<?xml version='1.0' encoding='UTF-8'?><gpx version="1.1" creator="JPX - https://github.com/jenetics/jpx" xmlns="http://www.topografix.com/GPX/1/1"><trk><trkseg><trkpt lat="45.010265" lon="8.3993233"><ele>284.0</ele><time>2026-04-11T07:35:43.27Z</time></trkpt><trkpt lat="45.0101517" lon="8.399245"><ele>284.0</ele><time>2026-04-11T07:35:49.27Z</time></trkpt><trkpt lat="45.0100967" lon="8.3991783"><ele>284.0</ele><time>2026-04-11T07:35:55.305Z</time></trkpt><trkpt lat="45.0100367" lon="8.399215"><ele>284.0</ele><time>2026-04-11T07:36:03.304Z</time></trkpt><trkpt lat="45.01009" lon="8.39927"><ele>284.0</ele><time>2026-04-11T07:36:12.304Z</time></trkpt><trkpt lat="45.0102" lon="8.3993417"><ele>284.0</ele><time>2026-04-11T07:36:42.305Z</time></trkpt><trkpt lat="45.0102717" lon="8.3993783"><ele>284.0</ele><time>2026-04-11T07:37:18.304Z</time></trkpt><trkpt lat="45.01028" lon="8.39928"><ele>284.0</ele><time>2026-04-11T07:37:20.304Z</time></trkpt><trkpt lat="45.0103417" lon="8.399215"><ele>284.0</ele><time>2026-04-11T07:37:23.304Z</time></trkpt><trkpt lat="45.0102283" lon="8.3992967"><ele>284.0</ele><time>2026-04-11T07:38:21.304Z</time></trkpt><trkpt lat="45.0101817" lon="8.3991983"><ele>284.0</ele><time>2026-04-11T07:38:26.304Z</time></trkpt><trkpt lat="45.0101517" lon="8.39911"><ele>284.0</ele><time>2026-04-11T07:38:28.305Z</time></trkpt><trkpt lat="45.0100783" lon="8.399005"><ele>284.0</ele><time>2026-04-11T07:38:30.304Z</time></trkpt><trkpt lat="45.0100033" lon="8.3988967"><ele>284.0</ele><time>2026-04-11T07:38:32.304Z</time></trkpt><trkpt lat="45.0099417" lon="8.3987733"><ele>284.0</ele><time>2026-04-11T07:38:34.305Z</time></trkpt><trkpt lat="45.00986" lon="8.3986217"><ele>281.1666666666667</ele><time>2026-04-11T07:38:36.304Z</time></trkpt><trkpt lat="45.009815" lon="8.3985467"><ele>278.33333333333337</ele><time>2026-04-11T07:38:37.304Z</time></trkpt><trkpt lat="45.0097483" lon="8.398395"><ele>275.5</ele><time>2026-04-11T07:38:39.304Z</time></trkpt><trkpt lat="45.009715" lon="8.398315"><ele>272.6666666666667</ele><time>2026-04-11T07:38:40.304Z</time></trkpt><trkpt lat="45.0096733" lon="8.3982283"><ele>269.8333333333333</ele><time>2026-04-11T07:38:41.304Z</time></trkpt><trkpt lat="45.0096367" lon="8.3981467"><ele>267.0</ele><time>2026-04-11T07:38:42.305Z</time></trkpt><trkpt lat="45.0095617" lon="8.3980183"><ele>266.8333333333333</ele><time>2026-04-11T07:38:44.304Z</time></trkpt><trkpt lat="45.009525" lon="8.3979033"><ele>266.6666666666667</ele><time>2026-04-11T07:38:46.304Z</time></trkpt><trkpt lat="45.0095067" lon="8.39774"><ele>266.5</ele><time>2026-04-11T07:38:48.304Z</time></trkpt><trkpt lat="45.009495" lon="8.3976383"><ele>266.33333333333337</ele><time>2026-04-11T07:38:49.305Z</time></trkpt><trkpt lat="45.0094917" lon="8.3975367"><ele>266.1666666666667</ele><time>2026-04-11T07:38:50.305Z</time></trkpt><trkpt lat="45.009505" lon="8.3974217"><ele>266.0</ele><time>2026-04-11T07:38:51.304Z</time></trkpt><trkpt lat="45.00953" lon="8.3973033"><ele>266.0</ele><time>2026-04-11T07:38:52.305Z</time></trkpt><trkpt lat="45.0095733" lon="8.3971933"><ele>266.0</ele><time>2026-04-11T07:38:53.304Z</time></trkpt><trkpt lat="45.0096233" lon="8.3970933"><ele>266.0</ele><time>2026-04-11T07:38:54.304Z</time></trkpt><trkpt lat="45.0096817" lon="8.3968917"><ele>266.0</ele><time>2026-04-11T07:38:56.304Z</time></trkpt><trkpt lat="45.0096833" lon="8.3967983"><ele>266.0</ele><time>2026-04-11T07:38:57.305Z</time></trkpt><trkpt lat="45.00966" lon="8.39671"><ele>265.40000000000003</ele><time>2026-04-11T07:38:58.304Z</time></trkpt><trkpt lat="45.0095817" lon="8.396595"><ele>264.8</ele><time>2026-04-11T07:38:59.305Z</time></trkpt><trkpt lat="45.0095133" lon="8.396505"><ele>264.20000000000005</ele><time>2026-04-11T07:39:00.304Z</time></trkpt><trkpt lat="45.00944" lon="8.396425"><ele>263.6</ele><time>2026-04-11T07:39:01.304Z</time></trkpt><trkpt lat="45.0093717" lon="8.3963533"><ele>263.0</ele><time>2026-04-11T07:39:02.304Z</time></trkpt><trkpt lat="45.0093" lon="8.3963017"><ele>264.57142857142856</ele><time>2026-04-11T07:39:03.304Z</time></trkpt><trkpt lat="45.009235" lon="8.3962383"><ele>266.1428571428571</ele><time>2026-04-11T07:39:04.305Z</time></trkpt><trkpt lat="45.009175" lon="8.3961867"><ele>267.7142857142857</ele><time>2026-04-11T07:39:05.304Z</time></trkpt><trkpt lat="45.009115" lon="8.3961417"><ele>269.2857142857143</ele><time>2026-04-11T07:39:06.304Z</time></trkpt><trkpt lat="45.0090617" lon="8.3960817"><ele>270.8571428571429</ele><time>2026-04-11T07:39:07.304Z</time></trkpt><trkpt lat="45.0090133" lon="8.3960217"><ele>272.42857142857144</ele><time>2026-04-11T07:39:08.304Z</time></trkpt><trkpt lat="45.0089367" lon="8.3959433"><ele>274.0</ele><time>2026-04-11T07:39:10.304Z</time></trkpt><trkpt lat="45.008895" lon="8.3958667"><ele>269.8333333333333</ele><time>2026-04-11T07:39:12.304Z</time></trkpt><trkpt lat="45.0088233" lon="8.39588"><ele>265.66666666666663</ele><time>2026-04-11T07:39:15.304Z</time></trkpt><trkpt lat="45.00887" lon="8.3960067"><ele>261.5</ele><time>2026-04-11T07:39:19.304Z</time></trkpt><trkpt lat="45.0089267" lon="8.3960617"><ele>257.3333333333333</ele><time>2026-04-11T07:39:21.304Z</time></trkpt><trkpt lat="45.0089833" lon="8.3961183"><ele>253.16666666666666</ele><time>2026-04-11T07:39:23.304Z</time></trkpt><trkpt lat="45.00903" lon="8.3961917"><ele>249.0</ele><time>2026-04-11T07:39:25.304Z</time></trkpt><trkpt lat="45.0090783" lon="8.396275"><ele>247.0</ele><time>2026-04-11T07:39:28.304Z</time></trkpt><trkpt lat="45.0091083" lon="8.3963783"><ele>244.99999999999997</ele><time>2026-04-11T07:39:31.304Z</time></trkpt><trkpt lat="45.0091483" lon="8.3964967"><ele>242.99999999999997</ele><time>2026-04-11T07:39:47.303Z</time></trkpt><trkpt lat="45.0091833" lon="8.3965967"><ele>241.0</ele><time>2026-04-11T07:39:49.303Z</time></trkpt><trkpt lat="45.0091817" lon="8.3967033"><ele>239.0</ele><time>2026-04-11T07:39:51.304Z</time></trkpt><trkpt lat="45.00909" lon="8.39691"><ele>239.0</ele><time>2026-04-11T07:39:54.304Z</time></trkpt><trkpt lat="45.0090133" lon="8.397025"><ele>238.99999999999997</ele><time>2026-04-11T07:39:56.303Z</time></trkpt><trkpt lat="45.0089433" lon="8.397115"><ele>238.99999999999997</ele><time>2026-04-11T07:39:58.303Z</time></trkpt><trkpt lat="45.0088833" lon="8.3972"><ele>239.0</ele><time>2026-04-11T07:40:00.303Z</time></trkpt><trkpt lat="45.0088133" lon="8.3972833"><ele>239.0</ele><time>2026-04-11T07:40:03.303Z</time></trkpt><trkpt lat="45.0087483" lon="8.397365"><ele>239.50000000000003</ele><time>2026-04-11T07:40:06.303Z</time></trkpt><trkpt lat="45.0086883" lon="8.39745"><ele>240.0</ele><time>2026-04-11T07:40:09.304Z</time></trkpt><trkpt lat="45.008645" lon="8.397535"><ele>240.5</ele><time>2026-04-11T07:40:12.303Z</time></trkpt><trkpt lat="45.0086233" lon="8.3976583"><ele>241.0</ele><time>2026-04-11T07:40:15.304Z</time></trkpt><trkpt lat="45.00854" lon="8.3977383"><ele>241.50000000000003</ele><time>2026-04-11T07:40:17.303Z</time></trkpt><trkpt lat="45.0084867" lon="8.3978333"><ele>242.0</ele><time>2026-04-11T07:40:19.303Z</time></trkpt><trkpt lat="45.008435" lon="8.3978883"><ele>242.00000000000003</ele><time>2026-04-11T07:40:20.303Z</time></trkpt><trkpt lat="45.0083683" lon="8.3979467"><ele>242.0</ele><time>2026-04-11T07:40:21.303Z</time></trkpt><trkpt lat="45.0082967" lon="8.3980117"><ele>242.0</ele><time>2026-04-11T07:40:22.304Z</time></trkpt><trkpt lat="45.00823" lon="8.3980917"><ele>242.0</ele><time>2026-04-11T07:40:23.303Z</time></trkpt><trkpt lat="45.0081733" lon="8.3981667"><ele>242.00000000000003</ele><time>2026-04-11T07:40:24.304Z</time></trkpt><trkpt lat="45.0081383" lon="8.39825"><ele>242.0</ele><time>2026-04-11T07:40:25.304Z</time></trkpt><trkpt lat="45.008085" lon="8.3983583"><ele>239.83333333333334</ele><time>2026-04-11T07:40:27.303Z</time></trkpt><trkpt lat="45.0080317" lon="8.3984517"><ele>237.66666666666669</ele><time>2026-04-11T07:40:30.304Z</time></trkpt><trkpt lat="45.0079833" lon="8.3985267"><ele>235.5</ele><time>2026-04-11T07:41:19.303Z</time></trkpt><trkpt lat="45.0079333" lon="8.3986517"><ele>233.33333333333331</ele><time>2026-04-11T07:41:22.303Z</time></trkpt><trkpt lat="45.00787" lon="8.39879"><ele>231.16666666666666</ele><time>2026-04-11T07:41:24.303Z</time></trkpt><trkpt lat="45.0078417" lon="8.3988733"><ele>229.0</ele><time>2026-04-11T07:41:25.304Z</time></trkpt><trkpt lat="45.0078117" lon="8.3989533"><ele>229.0</ele><time>2026-04-11T07:41:26.303Z</time></trkpt><trkpt lat="45.007785" lon="8.399045"><ele>229.0</ele><time>2026-04-11T07:41:27.304Z</time></trkpt><trkpt lat="45.00776" lon="8.3991367"><ele>229.0</ele><time>2026-04-11T07:41:28.304Z</time></trkpt><trkpt lat="45.0077333" lon="8.3992267"><ele>229.0</ele><time>2026-04-11T07:41:29.303Z</time></trkpt><trkpt lat="45.0077033" lon="8.3993133"><ele>229.0</ele><time>2026-04-11T07:41:30.303Z</time></trkpt><trkpt lat="45.0076717" lon="8.3994033"><ele>229.0</ele><time>2026-04-11T07:41:31.303Z</time></trkpt><trkpt lat="45.0076417" lon="8.3994933"><ele>229.0</ele><time>2026-04-11T07:41:32.303Z</time></trkpt><trkpt lat="45.007605" lon="8.3995817"><ele>229.71428571428572</ele><time>2026-04-11T07:41:33.303Z</time></trkpt><trkpt lat="45.0075783" lon="8.3996817"><ele>230.42857142857144</ele><time>2026-04-11T07:41:34.304Z</time></trkpt><trkpt lat="45.0075483" lon="8.3997683"><ele>231.14285714285717</ele><time>2026-04-11T07:41:35.304Z</time></trkpt><trkpt lat="45.0075267" lon="8.3998533"><ele>231.85714285714286</ele><time>2026-04-11T07:41:36.304Z</time></trkpt><trkpt lat="45.0075033" lon="8.3999467"><ele>232.5714285714286</ele><time>2026-04-11T07:41:37.303Z</time></trkpt><trkpt lat="45.0074917" lon="8.4000417"><ele>233.2857142857143</ele><time>2026-04-11T07:41:38.303Z</time></trkpt><trkpt lat="45.0074817" lon="8.400185"><ele>234.0</ele><time>2026-04-11T07:41:40.303Z</time></trkpt><trkpt lat="45.007445" lon="8.400335"><ele>234.0</ele><time>2026-04-11T07:41:43.303Z</time></trkpt><trkpt lat="45.0073467" lon="8.4003183"><ele>234.0</ele><time>2026-04-11T07:41:45.304Z</time></trkpt><trkpt lat="45.0072333" lon="8.4002517"><ele>234.0</ele><time>2026-04-11T07:41:47.303Z</time></trkpt><trkpt lat="45.0071567" lon="8.4002167"><ele>234.0</ele><time>2026-04-11T07:41:48.303Z</time></trkpt><trkpt lat="45.006995" lon="8.4001533"><ele>234.0</ele><time>2026-04-11T07:41:50.303Z</time></trkpt><trkpt lat="45.00691" lon="8.4001217"><ele>234.0</ele><time>2026-04-11T07:41:51.303Z</time></trkpt><trkpt lat="45.0068283" lon="8.4000883"><ele>234.0</ele><time>2026-04-11T07:41:52.304Z</time></trkpt><trkpt lat="45.006745" lon="8.4000533"><ele>234.0</ele><time>2026-04-11T07:41:53.303Z</time></trkpt><trkpt lat="45.006665" lon="8.4000133"><ele>234.0</ele><time>2026-04-11T07:41:54.303Z</time></trkpt><trkpt lat="45.0065867" lon="8.39998"><ele>234.0</ele><time>2026-04-11T07:41:55.303Z</time></trkpt><trkpt lat="45.0065183" lon="8.399915"><ele>234.39999999999998</ele><time>2026-04-11T07:41:56.303Z</time></trkpt><trkpt lat="45.0064333" lon="8.3998167"><ele>234.79999999999998</ele><time>2026-04-11T07:41:57.303Z</time></trkpt><trkpt lat="45.0063583" lon="8.3997183"><ele>235.20000000000002</ele><time>2026-04-11T07:41:58.304Z</time></trkpt><trkpt lat="45.0062883" lon="8.399625"><ele>235.60000000000002</ele><time>2026-04-11T07:41:59.303Z</time></trkpt><trkpt lat="45.006215" lon="8.3995567"><ele>236.0</ele><time>2026-04-11T07:42:00.303Z</time></trkpt><trkpt lat="45.0061" lon="8.3994517"><ele>236.0</ele><time>2026-04-11T07:42:02.304Z</time></trkpt><trkpt lat="45.0060483" lon="8.3993933"><ele>236.0</ele><time>2026-04-11T07:42:03.303Z</time></trkpt><trkpt lat="45.006" lon="8.3993283"><ele>236.0</ele><time>2026-04-11T07:42:04.303Z</time></trkpt><trkpt lat="45.0059567" lon="8.399245"><ele>236.0</ele><time>2026-04-11T07:42:05.304Z</time></trkpt><trkpt lat="45.00591" lon="8.39915"><ele>236.0</ele><time>2026-04-11T07:42:06.303Z</time></trkpt><trkpt lat="45.0058783" lon="8.3990583"><ele>236.0</ele><time>2026-04-11T07:42:07.304Z</time></trkpt><trkpt lat="45.0058483" lon="8.3989633"><ele>236.0</ele><time>2026-04-11T07:42:08.304Z</time></trkpt><trkpt lat="45.0058117" lon="8.398845"><ele>243.8</ele><time>2026-04-11T07:42:09.304Z</time></trkpt><trkpt lat="45.0057683" lon="8.3987367"><ele>251.60000000000002</ele><time>2026-04-11T07:42:10.304Z</time></trkpt><trkpt lat="45.0057167" lon="8.3986567"><ele>259.4</ele><time>2026-04-11T07:42:11.303Z</time></trkpt><trkpt lat="45.0057033" lon="8.3983783"><ele>267.2</ele><time>2026-04-11T07:42:13.303Z</time></trkpt><trkpt lat="45.0057" lon="8.3982767"><ele>275.0</ele><time>2026-04-11T07:42:14.304Z</time></trkpt><trkpt lat="45.0057" lon="8.3981417"><ele>269.6666666666667</ele><time>2026-04-11T07:42:15.303Z</time></trkpt><trkpt lat="45.0056767" lon="8.3978583"><ele>264.3333333333333</ele><time>2026-04-11T07:42:17.303Z</time></trkpt><trkpt lat="45.00564" lon="8.39763"><ele>259.0</ele><time>2026-04-11T07:42:19.303Z</time></trkpt><trkpt lat="45.005575" lon="8.3975117"><ele>259.0</ele><time>2026-04-11T07:42:21.303Z</time></trkpt><trkpt lat="45.0055517" lon="8.3973967"><ele>259.0</ele><time>2026-04-11T07:42:57.304Z</time></trkpt><trkpt lat="45.0054817" lon="8.3972783"><ele>259.0</ele><time>2026-04-11T07:42:59.303Z</time></trkpt><trkpt lat="45.0054017" lon="8.3971533"><ele>259.0</ele><time>2026-04-11T07:43:01.303Z</time></trkpt><trkpt lat="45.0053617" lon="8.3970833"><ele>259.0</ele><time>2026-04-11T07:43:02.303Z</time></trkpt><trkpt lat="45.005295" lon="8.3969517"><ele>258.5</ele><time>2026-04-11T07:43:04.304Z</time></trkpt><trkpt lat="45.0052117" lon="8.396825"><ele>258.0</ele><time>2026-04-11T07:43:06.304Z</time></trkpt><trkpt lat="45.0051583" lon="8.3967617"><ele>257.5</ele><time>2026-04-11T07:43:07.303Z</time></trkpt><trkpt lat="45.0051083" lon="8.3966917"><ele>257.0</ele><time>2026-04-11T07:43:08.304Z</time></trkpt><trkpt lat="45.0050383" lon="8.3966167"><ele>256.5</ele><time>2026-04-11T07:43:09.303Z</time></trkpt><trkpt lat="45.0049867" lon="8.3965483"><ele>256.0</ele><time>2026-04-11T07:43:10.303Z</time></trkpt><trkpt lat="45.0049217" lon="8.3964533"><ele>256.0</ele><time>2026-04-11T07:43:11.303Z</time></trkpt><trkpt lat="45.0048583" lon="8.3963383"><ele>256.0</ele><time>2026-04-11T07:43:12.303Z</time></trkpt><trkpt lat="45.0048283" lon="8.3962217"><ele>256.0</ele><time>2026-04-11T07:43:13.303Z</time></trkpt><trkpt lat="45.0047967" lon="8.3961017"><ele>256.0</ele><time>2026-04-11T07:43:14.304Z</time></trkpt><trkpt lat="45.0047617" lon="8.3959917"><ele>256.0</ele><time>2026-04-11T07:43:15.304Z</time></trkpt><trkpt lat="45.0047183" lon="8.3958833"><ele>253.66666666666666</ele><time>2026-04-11T07:43:16.303Z</time></trkpt><trkpt lat="45.0046883" lon="8.39579"><ele>251.33333333333331</ele><time>2026-04-11T07:43:17.303Z</time></trkpt><trkpt lat="45.0046517" lon="8.3956833"><ele>249.0</ele><time>2026-04-11T07:43:18.303Z</time></trkpt><trkpt lat="45.0046" lon="8.3955717"><ele>246.66666666666669</ele><time>2026-04-11T07:43:19.304Z</time></trkpt><trkpt lat="45.00453" lon="8.39547"><ele>244.33333333333334</ele><time>2026-04-11T07:43:20.304Z</time></trkpt><trkpt lat="45.0044567" lon="8.3953917"><ele>242.0</ele><time>2026-04-11T07:43:21.303Z</time></trkpt><trkpt lat="45.0043883" lon="8.3953117"><ele>240.83333333333334</ele><time>2026-04-11T07:43:22.304Z</time></trkpt><trkpt lat="45.0043183" lon="8.3952533"><ele>239.66666666666669</ele><time>2026-04-11T07:43:23.303Z</time></trkpt><trkpt lat="45.0042533" lon="8.3952067"><ele>238.5</ele><time>2026-04-11T07:43:24.303Z</time></trkpt><trkpt lat="45.0041833" lon="8.3951617"><ele>237.33333333333331</ele><time>2026-04-11T07:43:25.303Z</time></trkpt><trkpt lat="45.0040983" lon="8.3951117"><ele>236.16666666666666</ele><time>2026-04-11T07:43:26.303Z</time></trkpt><trkpt lat="45.0040083" lon="8.39506"><ele>235.0</ele><time>2026-04-11T07:43:27.303Z</time></trkpt><trkpt lat="45.003915" lon="8.3950017"><ele>233.8</ele><time>2026-04-11T07:43:28.304Z</time></trkpt><trkpt lat="45.0038117" lon="8.394935"><ele>232.6</ele><time>2026-04-11T07:43:29.304Z</time></trkpt><trkpt lat="45.0037183" lon="8.3948717"><ele>231.39999999999998</ele><time>2026-04-11T07:43:30.303Z</time></trkpt><trkpt lat="45.00363" lon="8.394805"><ele>230.2</ele><time>2026-04-11T07:43:31.303Z</time></trkpt><trkpt lat="45.0035467" lon="8.3947333"><ele>229.0</ele><time>2026-04-11T07:43:32.303Z</time></trkpt><trkpt lat="45.0034583" lon="8.3946583"><ele>228.0</ele><time>2026-04-11T07:43:33.303Z</time></trkpt><trkpt lat="45.003375" lon="8.394585"><ele>226.99999999999997</ele><time>2026-04-11T07:43:34.303Z</time></trkpt><trkpt lat="45.0032833" lon="8.394515"><ele>225.99999999999997</ele><time>2026-04-11T07:43:35.304Z</time></trkpt><trkpt lat="45.003175" lon="8.3944667"><ele>225.0</ele><time>2026-04-11T07:43:36.303Z</time></trkpt><trkpt lat="45.0030667" lon="8.3944233"><ele>224.0</ele><time>2026-04-11T07:43:37.303Z</time></trkpt><trkpt lat="45.0029467" lon="8.39438"><ele>220.75</ele><time>2026-04-11T07:43:38.304Z</time></trkpt><trkpt lat="45.002825" lon="8.3943417"><ele>217.5</ele><time>2026-04-11T07:43:39.303Z</time></trkpt><trkpt lat="45.002695" lon="8.394305"><ele>214.25</ele><time>2026-04-11T07:43:40.303Z</time></trkpt><trkpt lat="45.00257" lon="8.39427"><ele>211.0</ele><time>2026-04-11T07:43:41.304Z</time></trkpt><trkpt lat="45.0024483" lon="8.3942383"><ele>208.0</ele><time>2026-04-11T07:43:42.303Z</time></trkpt><trkpt lat="45.0023267" lon="8.3941983"><ele>205.0</ele><time>2026-04-11T07:43:43.304Z</time></trkpt><trkpt lat="45.0022033" lon="8.3941483"><ele>202.0</ele><time>2026-04-11T07:43:44.303Z</time></trkpt><trkpt lat="45.0020867" lon="8.3941"><ele>199.0</ele><time>2026-04-11T07:43:45.303Z</time></trkpt><trkpt lat="45.00197" lon="8.3940383"><ele>199.0</ele><time>2026-04-11T07:43:46.304Z</time></trkpt><trkpt lat="45.001865" lon="8.3939933"><ele>199.0</ele><time>2026-04-11T07:43:47.303Z</time></trkpt><trkpt lat="45.0017717" lon="8.3939583"><ele>199.0</ele><time>2026-04-11T07:43:48.303Z</time></trkpt><trkpt lat="45.0016733" lon="8.3939283"><ele>199.0</ele><time>2026-04-11T07:43:49.303Z</time></trkpt><trkpt lat="45.0015817" lon="8.393875"><ele>199.0</ele><time>2026-04-11T07:43:50.303Z</time></trkpt><trkpt lat="45.00149" lon="8.3937917"><ele>197.66666666666666</ele><time>2026-04-11T07:43:51.303Z</time></trkpt><trkpt lat="45.0014217" lon="8.3936983"><ele>196.33333333333331</ele><time>2026-04-11T07:43:52.303Z</time></trkpt><trkpt lat="45.0013683" lon="8.3936117"><ele>195.0</ele><time>2026-04-11T07:43:53.303Z</time></trkpt><trkpt lat="45.0013133" lon="8.393515"><ele>193.66666666666666</ele><time>2026-04-11T07:43:54.303Z</time></trkpt><trkpt lat="45.0012533" lon="8.3934367"><ele>192.33333333333331</ele><time>2026-04-11T07:43:55.303Z</time></trkpt><trkpt lat="45.0012" lon="8.3933667"><ele>191.0</ele><time>2026-04-11T07:43:56.304Z</time></trkpt><trkpt lat="45.0011367" lon="8.3933"><ele>191.0</ele><time>2026-04-11T07:43:57.303Z</time></trkpt><trkpt lat="45.0010683" lon="8.3932433"><ele>191.0</ele><time>2026-04-11T07:43:58.303Z</time></trkpt><trkpt lat="45.0009883" lon="8.3931783"><ele>191.0</ele><time>2026-04-11T07:43:59.304Z</time></trkpt><trkpt lat="45.0009067" lon="8.3931167"><ele>191.0</ele><time>2026-04-11T07:44:00.303Z</time></trkpt><trkpt lat="45.0008017" lon="8.3930617"><ele>191.0</ele><time>2026-04-11T07:44:01.303Z</time></trkpt><trkpt lat="45.0006917" lon="8.39301"><ele>189.4</ele><time>2026-04-11T07:44:02.303Z</time></trkpt><trkpt lat="45.0005667" lon="8.3929767"><ele>187.8</ele><time>2026-04-11T07:44:03.302Z</time></trkpt><trkpt lat="45.00046" lon="8.3929417"><ele>186.20000000000002</ele><time>2026-04-11T07:44:04.303Z</time></trkpt><trkpt lat="45.00036" lon="8.3928983"><ele>184.60000000000002</ele><time>2026-04-11T07:44:05.303Z</time></trkpt><trkpt lat="45.00026" lon="8.3928433"><ele>183.0</ele><time>2026-04-11T07:44:06.303Z</time></trkpt><trkpt lat="45.0001533" lon="8.3927933"><ele>183.0</ele><time>2026-04-11T07:44:07.302Z</time></trkpt><trkpt lat="45.0000483" lon="8.392745"><ele>183.0</ele><time>2026-04-11T07:44:08.302Z</time></trkpt><trkpt lat="44.9999317" lon="8.3926917"><ele>183.0</ele><time>2026-04-11T07:44:09.302Z</time></trkpt><trkpt lat="44.9998117" lon="8.3926483"><ele>183.0</ele><time>2026-04-11T07:44:10.302Z</time></trkpt><trkpt lat="44.9996817" lon="8.3926033"><ele>183.0</ele><time>2026-04-11T07:44:11.302Z</time></trkpt><trkpt lat="44.9995567" lon="8.392555"><ele>183.0</ele><time>2026-04-11T07:44:12.302Z</time></trkpt><trkpt lat="44.9994167" lon="8.3925167"><ele>183.0</ele><time>2026-04-11T07:44:13.302Z</time></trkpt><trkpt lat="44.9992783" lon="8.39248"><ele>183.0</ele><time>2026-04-11T07:44:14.302Z</time></trkpt><trkpt lat="44.9991417" lon="8.392465"><ele>181.5</ele><time>2026-04-11T07:44:15.302Z</time></trkpt><trkpt lat="44.9989983" lon="8.39246"><ele>180.0</ele><time>2026-04-11T07:44:16.302Z</time></trkpt><trkpt lat="44.998865" lon="8.3924617"><ele>178.5</ele><time>2026-04-11T07:44:17.302Z</time></trkpt><trkpt lat="44.9987367" lon="8.39246"><ele>177.0</ele><time>2026-04-11T07:44:18.302Z</time></trkpt><trkpt lat="44.9986" lon="8.3924617"><ele>177.0</ele><time>2026-04-11T07:44:19.302Z</time></trkpt><trkpt lat="44.9984567" lon="8.39247"><ele>177.0</ele><time>2026-04-11T07:44:20.302Z</time></trkpt><trkpt lat="44.9982967" lon="8.392485"><ele>177.0</ele><time>2026-04-11T07:44:21.303Z</time></trkpt><trkpt lat="44.9981317" lon="8.39251"><ele>174.5</ele><time>2026-04-11T07:44:22.302Z</time></trkpt><trkpt lat="44.9978117" lon="8.3926117"><ele>172.0</ele><time>2026-04-11T07:44:24.303Z</time></trkpt><trkpt lat="44.9976617" lon="8.39264"><ele>172.0</ele><time>2026-04-11T07:44:25.303Z</time></trkpt><trkpt lat="44.9975233" lon="8.3926533"><ele>172.0</ele><time>2026-04-11T07:44:26.303Z</time></trkpt><trkpt lat="44.9973883" lon="8.39266"><ele>172.0</ele><time>2026-04-11T07:44:27.302Z</time></trkpt><trkpt lat="44.9972733" lon="8.392655"><ele>172.0</ele><time>2026-04-11T07:44:28.303Z</time></trkpt><trkpt lat="44.99718" lon="8.3926267"><ele>170.0</ele><time>2026-04-11T07:44:29.302Z</time></trkpt><trkpt lat="44.9970967" lon="8.3925717"><ele>168.0</ele><time>2026-04-11T07:44:30.302Z</time></trkpt><trkpt lat="44.9970233" lon="8.3924933"><ele>166.0</ele><time>2026-04-11T07:44:31.302Z</time></trkpt><trkpt lat="44.9969617" lon="8.3923817"><ele>164.0</ele><time>2026-04-11T07:44:32.302Z</time></trkpt><trkpt lat="44.99687" lon="8.3920983"><ele>163.2</ele><time>2026-04-11T07:44:34.303Z</time></trkpt><trkpt lat="44.9968233" lon="8.3919617"><ele>162.39999999999998</ele><time>2026-04-11T07:44:35.302Z</time></trkpt><trkpt lat="44.9967683" lon="8.3918383"><ele>161.6</ele><time>2026-04-11T07:44:36.302Z</time></trkpt><trkpt lat="44.9967083" lon="8.3917317"><ele>160.8</ele><time>2026-04-11T07:44:37.302Z</time></trkpt><trkpt lat="44.996645" lon="8.3916317"><ele>160.0</ele><time>2026-04-11T07:44:38.302Z</time></trkpt><trkpt lat="44.9965833" lon="8.39154"><ele>159.66666666666669</ele><time>2026-04-11T07:44:39.303Z</time></trkpt><trkpt lat="44.996525" lon="8.391455"><ele>159.33333333333334</ele><time>2026-04-11T07:44:40.302Z</time></trkpt><trkpt lat="44.9964683" lon="8.3913867"><ele>159.0</ele><time>2026-04-11T07:44:41.303Z</time></trkpt><trkpt lat="44.9964133" lon="8.39134"><ele>158.66666666666666</ele><time>2026-04-11T07:44:42.302Z</time></trkpt><trkpt lat="44.9963317" lon="8.3912717"><ele>158.33333333333331</ele><time>2026-04-11T07:44:44.303Z</time></trkpt><trkpt lat="44.996265" lon="8.39123"><ele>158.0</ele><time>2026-04-11T07:44:46.303Z</time></trkpt><trkpt lat="44.9961517" lon="8.391215"><ele>158.0</ele><time>2026-04-11T07:44:48.303Z</time></trkpt><trkpt lat="44.9960767" lon="8.3912417"><ele>158.0</ele><time>2026-04-11T07:44:49.303Z</time></trkpt><trkpt lat="44.996" lon="8.3912983"><ele>158.0</ele><time>2026-04-11T07:44:50.302Z</time></trkpt><trkpt lat="44.9959083" lon="8.391355"><ele>158.0</ele><time>2026-04-11T07:44:51.302Z</time></trkpt><trkpt lat="44.99581" lon="8.3914117"><ele>158.0</ele><time>2026-04-11T07:44:52.302Z</time></trkpt><trkpt lat="44.9957117" lon="8.3914683"><ele>157.4</ele><time>2026-04-11T07:44:53.302Z</time></trkpt><trkpt lat="44.9956133" lon="8.3915133"><ele>156.8</ele><time>2026-04-11T07:44:54.302Z</time></trkpt><trkpt lat="44.995525" lon="8.39155"><ele>156.2</ele><time>2026-04-11T07:44:55.302Z</time></trkpt><trkpt lat="44.9954317" lon="8.3915783"><ele>155.6</ele><time>2026-04-11T07:44:56.302Z</time></trkpt><trkpt lat="44.9953333" lon="8.3916067"><ele>155.0</ele><time>2026-04-11T07:44:57.302Z</time></trkpt><trkpt lat="44.9952483" lon="8.39162"><ele>155.0</ele><time>2026-04-11T07:44:58.302Z</time></trkpt><trkpt lat="44.9951633" lon="8.3916183"><ele>155.0</ele><time>2026-04-11T07:44:59.302Z</time></trkpt><trkpt lat="44.9950833" lon="8.3916067"><ele>155.0</ele><time>2026-04-11T07:45:00.302Z</time></trkpt><trkpt lat="44.9950067" lon="8.39157"><ele>155.0</ele><time>2026-04-11T07:45:01.302Z</time></trkpt><trkpt lat="44.994935" lon="8.3915133"><ele>155.0</ele><time>2026-04-11T07:45:02.302Z</time></trkpt><trkpt lat="44.9948733" lon="8.3914483"><ele>155.0</ele><time>2026-04-11T07:45:03.302Z</time></trkpt><trkpt lat="44.9948133" lon="8.3913667"><ele>154.66666666666666</ele><time>2026-04-11T07:45:04.303Z</time></trkpt><trkpt lat="44.9947583" lon="8.39129"><ele>154.33333333333331</ele><time>2026-04-11T07:45:05.302Z</time></trkpt><trkpt lat="44.99471" lon="8.39121"><ele>154.0</ele><time>2026-04-11T07:45:06.303Z</time></trkpt><trkpt lat="44.9946617" lon="8.3911267"><ele>153.66666666666666</ele><time>2026-04-11T07:45:07.303Z</time></trkpt><trkpt lat="44.9946267" lon="8.391025"><ele>153.33333333333334</ele><time>2026-04-11T07:45:08.303Z</time></trkpt><trkpt lat="44.9945967" lon="8.3909133"><ele>153.0</ele><time>2026-04-11T07:45:09.302Z</time></trkpt><trkpt lat="44.9945783" lon="8.3907967"><ele>153.0</ele><time>2026-04-11T07:45:10.302Z</time></trkpt><trkpt lat="44.9945733" lon="8.39067"><ele>153.0</ele><time>2026-04-11T07:45:11.302Z</time></trkpt><trkpt lat="44.9945733" lon="8.3905483"><ele>153.0</ele><time>2026-04-11T07:45:12.302Z</time></trkpt><trkpt lat="44.9945933" lon="8.3904117"><ele>153.0</ele><time>2026-04-11T07:45:13.302Z</time></trkpt><trkpt lat="44.9946267" lon="8.3902817"><ele>153.0</ele><time>2026-04-11T07:45:14.302Z</time></trkpt><trkpt lat="44.9946817" lon="8.3900617"><ele>153.0</ele><time>2026-04-11T07:45:16.302Z</time></trkpt><trkpt lat="44.99471" lon="8.38998"><ele>153.0</ele><time>2026-04-11T07:45:17.302Z</time></trkpt><trkpt lat="44.994745" lon="8.3898333"><ele>153.0</ele><time>2026-04-11T07:45:19.302Z</time></trkpt><trkpt lat="44.9947633" lon="8.3897133"><ele>153.0</ele><time>2026-04-11T07:45:21.302Z</time></trkpt><trkpt lat="44.9947783" lon="8.389585"><ele>153.0</ele><time>2026-04-11T07:45:23.302Z</time></trkpt><trkpt lat="44.9948233" lon="8.3894417"><ele>153.5</ele><time>2026-04-11T07:45:25.303Z</time></trkpt><trkpt lat="44.9949217" lon="8.389365"><ele>154.0</ele><time>2026-04-11T07:45:27.302Z</time></trkpt><trkpt lat="44.9950333" lon="8.38936"><ele>154.5</ele><time>2026-04-11T07:45:29.303Z</time></trkpt><trkpt lat="44.9950883" lon="8.3894083"><ele>155.0</ele><time>2026-04-11T07:45:30.303Z</time></trkpt><trkpt lat="44.9951467" lon="8.389475"><ele>155.5</ele><time>2026-04-11T07:45:31.302Z</time></trkpt><trkpt lat="44.9952183" lon="8.3895283"><ele>156.0</ele><time>2026-04-11T07:45:32.302Z</time></trkpt><trkpt lat="44.9953667" lon="8.3896"><ele>156.16666666666666</ele><time>2026-04-11T07:45:34.303Z</time></trkpt><trkpt lat="44.9954383" lon="8.389615"><ele>156.33333333333334</ele><time>2026-04-11T07:45:35.302Z</time></trkpt><trkpt lat="44.9955067" lon="8.38962"><ele>156.5</ele><time>2026-04-11T07:45:36.302Z</time></trkpt><trkpt lat="44.9955717" lon="8.3896217"><ele>156.66666666666669</ele><time>2026-04-11T07:45:37.302Z</time></trkpt><trkpt lat="44.99564" lon="8.3896233"><ele>156.83333333333334</ele><time>2026-04-11T07:45:38.303Z</time></trkpt><trkpt lat="44.995755" lon="8.3896167"><ele>157.0</ele><time>2026-04-11T07:45:40.302Z</time></trkpt><trkpt lat="44.9958283" lon="8.3895683"><ele>157.0</ele><time>2026-04-11T07:45:42.303Z</time></trkpt><trkpt lat="44.9958683" lon="8.3894933"><ele>157.0</ele><time>2026-04-11T07:45:44.303Z</time></trkpt><trkpt lat="44.995865" lon="8.3893883"><ele>157.0</ele><time>2026-04-11T07:45:46.302Z</time></trkpt><trkpt lat="44.9958333" lon="8.3892567"><ele>157.0</ele><time>2026-04-11T07:45:48.302Z</time></trkpt><trkpt lat="44.9958567" lon="8.3891283"><ele>157.0</ele><time>2026-04-11T07:45:50.302Z</time></trkpt><trkpt lat="44.995935" lon="8.3890267"><ele>157.0</ele><time>2026-04-11T07:45:52.302Z</time></trkpt><trkpt lat="44.995985" lon="8.3889583"><ele>156.4</ele><time>2026-04-11T07:45:53.303Z</time></trkpt><trkpt lat="44.9960283" lon="8.38889"><ele>155.79999999999998</ele><time>2026-04-11T07:45:54.302Z</time></trkpt><trkpt lat="44.996085" lon="8.3887317"><ele>155.2</ele><time>2026-04-11T07:45:56.302Z</time></trkpt><trkpt lat="44.9961183" lon="8.3885633"><ele>154.6</ele><time>2026-04-11T07:45:58.302Z</time></trkpt><trkpt lat="44.9961317" lon="8.38847"><ele>154.0</ele><time>2026-04-11T07:45:59.302Z</time></trkpt><trkpt lat="44.9961467" lon="8.3883683"><ele>154.0</ele><time>2026-04-11T07:46:00.303Z</time></trkpt><trkpt lat="44.9961567" lon="8.3882633"><ele>154.0</ele><time>2026-04-11T07:46:01.302Z</time></trkpt><trkpt lat="44.9961683" lon="8.3881683"><ele>154.0</ele><time>2026-04-11T07:46:02.302Z</time></trkpt><trkpt lat="44.9961867" lon="8.3880733"><ele>154.0</ele><time>2026-04-11T07:46:03.302Z</time></trkpt><trkpt lat="44.996205" lon="8.3879717"><ele>154.0</ele><time>2026-04-11T07:46:04.302Z</time></trkpt><trkpt lat="44.9962183" lon="8.38787"><ele>154.0</ele><time>2026-04-11T07:46:05.303Z</time></trkpt><trkpt lat="44.9962367" lon="8.3877667"><ele>154.0</ele><time>2026-04-11T07:46:06.303Z</time></trkpt><trkpt lat="44.9962483" lon="8.3876567"><ele>154.0</ele><time>2026-04-11T07:46:07.302Z</time></trkpt><trkpt lat="44.99626" lon="8.3875483"><ele>154.0</ele><time>2026-04-11T07:46:08.302Z</time></trkpt><trkpt lat="44.9962683" lon="8.3874317"><ele>154.0</ele><time>2026-04-11T07:46:09.302Z</time></trkpt><trkpt lat="44.9962817" lon="8.3873283"><ele>154.0</ele><time>2026-04-11T07:46:10.302Z</time></trkpt><trkpt lat="44.9962933" lon="8.3872267"><ele>154.0</ele><time>2026-04-11T07:46:11.302Z</time></trkpt><trkpt lat="44.996295" lon="8.3871267"><ele>154.0</ele><time>2026-04-11T07:46:12.303Z</time></trkpt><trkpt lat="44.996305" lon="8.3870267"><ele>154.14285714285714</ele><time>2026-04-11T07:46:13.303Z</time></trkpt><trkpt lat="44.9963167" lon="8.386925"><ele>154.28571428571428</ele><time>2026-04-11T07:46:14.302Z</time></trkpt><trkpt lat="44.9963317" lon="8.3868267"><ele>154.42857142857144</ele><time>2026-04-11T07:46:15.302Z</time></trkpt><trkpt lat="44.9963483" lon="8.38673"><ele>154.57142857142856</ele><time>2026-04-11T07:46:16.302Z</time></trkpt><trkpt lat="44.996365" lon="8.3866217"><ele>154.71428571428572</ele><time>2026-04-11T07:46:17.302Z</time></trkpt><trkpt lat="44.9963817" lon="8.3865283"><ele>154.85714285714286</ele><time>2026-04-11T07:46:18.302Z</time></trkpt><trkpt lat="44.9964" lon="8.38643"><ele>155.0</ele><time>2026-04-11T07:46:19.302Z</time></trkpt><trkpt lat="44.9964267" lon="8.3863283"><ele>156.2</ele><time>2026-04-11T07:46:20.302Z</time></trkpt><trkpt lat="44.9964583" lon="8.38621"><ele>157.4</ele><time>2026-04-11T07:46:21.302Z</time></trkpt><trkpt lat="44.996485" lon="8.38608"><ele>158.60000000000002</ele><time>2026-04-11T07:46:22.302Z</time></trkpt><trkpt lat="44.99651" lon="8.3859467"><ele>159.8</ele><time>2026-04-11T07:46:23.302Z</time></trkpt><trkpt lat="44.9965333" lon="8.3858217"><ele>161.0</ele><time>2026-04-11T07:46:24.302Z</time></trkpt><trkpt lat="44.9965583" lon="8.3857017"><ele>161.0</ele><time>2026-04-11T07:46:25.302Z</time></trkpt><trkpt lat="44.996585" lon="8.3855817"><ele>161.0</ele><time>2026-04-11T07:46:26.302Z</time></trkpt><trkpt lat="44.9966133" lon="8.3854617"><ele>161.0</ele><time>2026-04-11T07:46:27.303Z</time></trkpt><trkpt lat="44.9966433" lon="8.38534"><ele>161.0</ele><time>2026-04-11T07:46:28.302Z</time></trkpt><trkpt lat="44.9966783" lon="8.3852217"><ele>161.0</ele><time>2026-04-11T07:46:29.302Z</time></trkpt><trkpt lat="44.9967167" lon="8.3850933"><ele>161.33333333333331</ele><time>2026-04-11T07:46:30.302Z</time></trkpt><trkpt lat="44.99674" lon="8.3849733"><ele>161.66666666666666</ele><time>2026-04-11T07:46:31.302Z</time></trkpt><trkpt lat="44.9967767" lon="8.38485"><ele>162.0</ele><time>2026-04-11T07:46:32.302Z</time></trkpt><trkpt lat="44.9968083" lon="8.38474"><ele>162.33333333333334</ele><time>2026-04-11T07:46:33.302Z</time></trkpt><trkpt lat="44.9968333" lon="8.3846517"><ele>162.66666666666669</ele><time>2026-04-11T07:46:34.302Z</time></trkpt><trkpt lat="44.996865" lon="8.3845467"><ele>163.0</ele><time>2026-04-11T07:46:36.302Z</time></trkpt><trkpt lat="44.99693" lon="8.3844233"><ele>163.33333333333334</ele><time>2026-04-11T07:49:35.301Z</time></trkpt><trkpt lat="44.9969833" lon="8.384345"><ele>163.66666666666669</ele><time>2026-04-11T07:49:41.301Z</time></trkpt><trkpt lat="44.9970183" lon="8.3842567"><ele>164.0</ele><time>2026-04-11T07:49:45.301Z</time></trkpt><trkpt lat="44.9970217" lon="8.3841617"><ele>164.33333333333334</ele><time>2026-04-11T07:49:48.302Z</time></trkpt><trkpt lat="44.9970483" lon="8.3840367"><ele>164.66666666666666</ele><time>2026-04-11T07:49:51.301Z</time></trkpt><trkpt lat="44.9970783" lon="8.3839467"><ele>165.0</ele><time>2026-04-11T07:49:53.301Z</time></trkpt><trkpt lat="44.9971183" lon="8.3838317"><ele>165.6</ele><time>2026-04-11T07:49:56.302Z</time></trkpt><trkpt lat="44.997145" lon="8.3837033"><ele>166.2</ele><time>2026-04-11T07:49:58.301Z</time></trkpt><trkpt lat="44.9971767" lon="8.3835467"><ele>166.8</ele><time>2026-04-11T07:50:00.301Z</time></trkpt><trkpt lat="44.997205" lon="8.383385"><ele>167.4</ele><time>2026-04-11T07:50:02.301Z</time></trkpt><trkpt lat="44.9972317" lon="8.3832233"><ele>168.0</ele><time>2026-04-11T07:50:04.301Z</time></trkpt><trkpt lat="44.9972583" lon="8.38308"><ele>168.33333333333334</ele><time>2026-04-11T07:50:06.302Z</time></trkpt><trkpt lat="44.9972983" lon="8.3829267"><ele>168.66666666666666</ele><time>2026-04-11T07:50:08.301Z</time></trkpt><trkpt lat="44.9973117" lon="8.3828267"><ele>169.0</ele><time>2026-04-11T07:50:09.302Z</time></trkpt><trkpt lat="44.9973283" lon="8.3827333"><ele>169.33333333333331</ele><time>2026-04-11T07:50:10.301Z</time></trkpt><trkpt lat="44.99735" lon="8.3825867"><ele>169.66666666666666</ele><time>2026-04-11T07:50:12.301Z</time></trkpt><trkpt lat="44.9973983" lon="8.3824917"><ele>170.0</ele><time>2026-04-11T07:50:14.301Z</time></trkpt><trkpt lat="44.9974867" lon="8.382475"><ele>170.0</ele><time>2026-04-11T08:00:04.3Z</time></trkpt><trkpt lat="44.99756" lon="8.3825"><ele>170.0</ele><time>2026-04-11T08:00:13.301Z</time></trkpt><trkpt lat="44.9977133" lon="8.3825767"><ele>170.0</ele><time>2026-04-11T08:00:15.3Z</time></trkpt><trkpt lat="44.99781" lon="8.382625"><ele>170.0</ele><time>2026-04-11T08:00:16.3Z</time></trkpt><trkpt lat="44.9979117" lon="8.382675"><ele>170.0</ele><time>2026-04-11T08:00:17.3Z</time></trkpt><trkpt lat="44.9981217" lon="8.3827517"><ele>170.0</ele><time>2026-04-11T08:00:19.299Z</time></trkpt><trkpt lat="44.99821" lon="8.38278"><ele>170.0</ele><time>2026-04-11T08:00:20.299Z</time></trkpt><trkpt lat="44.9983917" lon="8.3828667"><ele>170.0</ele><time>2026-04-11T08:00:22.299Z</time></trkpt><trkpt lat="44.998475" lon="8.38293"><ele>170.0</ele><time>2026-04-11T08:00:23.3Z</time></trkpt><trkpt lat="44.9985717" lon="8.3830083"><ele>171.2</ele><time>2026-04-11T08:00:24.299Z</time></trkpt><trkpt lat="44.9986433" lon="8.3830817"><ele>172.4</ele><time>2026-04-11T08:00:25.299Z</time></trkpt><trkpt lat="44.99872" lon="8.3831333"><ele>173.60000000000002</ele><time>2026-04-11T08:00:26.299Z</time></trkpt><trkpt lat="44.998805" lon="8.3831783"><ele>174.8</ele><time>2026-04-11T08:00:27.3Z</time></trkpt><trkpt lat="44.9988933" lon="8.3832183"><ele>176.0</ele><time>2026-04-11T08:00:28.3Z</time></trkpt><trkpt lat="44.99899" lon="8.3832717"><ele>176.0</ele><time>2026-04-11T08:00:29.299Z</time></trkpt><trkpt lat="44.9990833" lon="8.3833317"><ele>176.0</ele><time>2026-04-11T08:00:30.299Z</time></trkpt><trkpt lat="44.9991733" lon="8.3833833"><ele>176.0</ele><time>2026-04-11T08:00:31.299Z</time></trkpt><trkpt lat="44.99926" lon="8.3834383"><ele>176.0</ele><time>2026-04-11T08:00:32.299Z</time></trkpt><trkpt lat="44.9993483" lon="8.3834967"><ele>176.0</ele><time>2026-04-11T08:00:33.3Z</time></trkpt><trkpt lat="44.9994517" lon="8.3835633"><ele>178.20000000000002</ele><time>2026-04-11T08:00:34.299Z</time></trkpt><trkpt lat="44.9995583" lon="8.383635"><ele>180.4</ele><time>2026-04-11T08:00:35.299Z</time></trkpt><trkpt lat="44.9996533" lon="8.3836983"><ele>182.6</ele><time>2026-04-11T08:00:36.299Z</time></trkpt><trkpt lat="44.9997517" lon="8.38377"><ele>184.8</ele><time>2026-04-11T08:00:37.299Z</time></trkpt><trkpt lat="44.9998467" lon="8.3838533"><ele>187.0</ele><time>2026-04-11T08:00:38.299Z</time></trkpt><trkpt lat="44.9999333" lon="8.383935"><ele>187.0</ele><time>2026-04-11T08:00:39.299Z</time></trkpt><trkpt lat="45.0000017" lon="8.3840067"><ele>187.0</ele><time>2026-04-11T08:00:40.3Z</time></trkpt><trkpt lat="45.00007" lon="8.3840683"><ele>187.0</ele><time>2026-04-11T08:00:41.299Z</time></trkpt><trkpt lat="45.0001733" lon="8.3841333"><ele>187.0</ele><time>2026-04-11T08:00:43.299Z</time></trkpt><trkpt lat="45.0002933" lon="8.38414"><ele>187.0</ele><time>2026-04-11T08:00:45.299Z</time></trkpt><trkpt lat="45.0004233" lon="8.38402"><ele>187.0</ele><time>2026-04-11T08:00:47.299Z</time></trkpt><trkpt lat="45.00049" lon="8.383935"><ele>187.0</ele><time>2026-04-11T08:00:48.299Z</time></trkpt><trkpt lat="45.0005467" lon="8.3838267"><ele>187.0</ele><time>2026-04-11T08:00:49.299Z</time></trkpt><trkpt lat="45.00061" lon="8.3837233"><ele>187.0</ele><time>2026-04-11T08:00:50.3Z</time></trkpt><trkpt lat="45.0006667" lon="8.3836217"><ele>187.0</ele><time>2026-04-11T08:00:51.299Z</time></trkpt><trkpt lat="45.0007333" lon="8.3835233"><ele>187.2</ele><time>2026-04-11T08:00:52.3Z</time></trkpt><trkpt lat="45.0007983" lon="8.383405"><ele>187.39999999999998</ele><time>2026-04-11T08:00:53.299Z</time></trkpt><trkpt lat="45.00087" lon="8.3832917"><ele>187.60000000000002</ele><time>2026-04-11T08:00:54.299Z</time></trkpt><trkpt lat="45.0009367" lon="8.3831683"><ele>187.8</ele><time>2026-04-11T08:00:55.3Z</time></trkpt><trkpt lat="45.0010017" lon="8.3830417"><ele>188.0</ele><time>2026-04-11T08:00:56.299Z</time></trkpt><trkpt lat="45.0010667" lon="8.38293"><ele>189.4</ele><time>2026-04-11T08:00:57.299Z</time></trkpt><trkpt lat="45.001125" lon="8.3828133"><ele>190.8</ele><time>2026-04-11T08:00:58.3Z</time></trkpt><trkpt lat="45.0011733" lon="8.3826833"><ele>192.2</ele><time>2026-04-11T08:00:59.3Z</time></trkpt><trkpt lat="45.0012133" lon="8.3825417"><ele>193.6</ele><time>2026-04-11T08:01:00.3Z</time></trkpt><trkpt lat="45.0012533" lon="8.3823933"><ele>195.0</ele><time>2026-04-11T08:01:01.299Z</time></trkpt><trkpt lat="45.001295" lon="8.3822417"><ele>195.2</ele><time>2026-04-11T08:01:02.299Z</time></trkpt><trkpt lat="45.0013383" lon="8.3820933"><ele>195.4</ele><time>2026-04-11T08:01:03.299Z</time></trkpt><trkpt lat="45.0013717" lon="8.3819417"><ele>195.60000000000002</ele><time>2026-04-11T08:01:04.3Z</time></trkpt><trkpt lat="45.0014083" lon="8.3817917"><ele>195.8</ele><time>2026-04-11T08:01:05.299Z</time></trkpt><trkpt lat="45.00146" lon="8.3816717"><ele>196.0</ele><time>2026-04-11T08:01:06.299Z</time></trkpt><trkpt lat="45.0014967" lon="8.3815633"><ele>195.99999999999997</ele><time>2026-04-11T08:01:07.299Z</time></trkpt><trkpt lat="45.0015433" lon="8.3814633"><ele>196.0</ele><time>2026-04-11T08:01:08.299Z</time></trkpt><trkpt lat="45.0015967" lon="8.3813617"><ele>196.0</ele><time>2026-04-11T08:01:09.299Z</time></trkpt><trkpt lat="45.0016417" lon="8.3812567"><ele>196.0</ele><time>2026-04-11T08:01:10.299Z</time></trkpt><trkpt lat="45.0016767" lon="8.3811483"><ele>195.99999999999997</ele><time>2026-04-11T08:01:11.299Z</time></trkpt><trkpt lat="45.0017133" lon="8.38103"><ele>196.0</ele><time>2026-04-11T08:01:12.3Z</time></trkpt><trkpt lat="45.0017483" lon="8.38092"><ele>197.49999999999997</ele><time>2026-04-11T08:01:13.299Z</time></trkpt><trkpt lat="45.001775" lon="8.3808133"><ele>199.0</ele><time>2026-04-11T08:01:14.299Z</time></trkpt><trkpt lat="45.0018067" lon="8.3807033"><ele>200.5</ele><time>2026-04-11T08:01:15.299Z</time></trkpt><trkpt lat="45.00184" lon="8.3805917"><ele>202.0</ele><time>2026-04-11T08:01:16.3Z</time></trkpt><trkpt lat="45.0018667" lon="8.3804783"><ele>203.49999999999997</ele><time>2026-04-11T08:01:17.299Z</time></trkpt><trkpt lat="45.0018967" lon="8.380365"><ele>205.0</ele><time>2026-04-11T08:01:18.299Z</time></trkpt><trkpt lat="45.0019317" lon="8.3802483"><ele>205.6</ele><time>2026-04-11T08:01:19.299Z</time></trkpt><trkpt lat="45.00196" lon="8.380125"><ele>206.2</ele><time>2026-04-11T08:01:20.299Z</time></trkpt><trkpt lat="45.0019867" lon="8.379995"><ele>206.8</ele><time>2026-04-11T08:01:21.299Z</time></trkpt><trkpt lat="45.0020133" lon="8.3798633"><ele>207.4</ele><time>2026-04-11T08:01:22.3Z</time></trkpt><trkpt lat="45.0020333" lon="8.37972"><ele>208.0</ele><time>2026-04-11T08:01:23.299Z</time></trkpt><trkpt lat="45.0020433" lon="8.37956"><ele>208.4</ele><time>2026-04-11T08:01:24.3Z</time></trkpt><trkpt lat="45.00205" lon="8.3793917"><ele>208.8</ele><time>2026-04-11T08:01:25.299Z</time></trkpt><trkpt lat="45.00206" lon="8.37924"><ele>209.2</ele><time>2026-04-11T08:01:26.299Z</time></trkpt><trkpt lat="45.00206" lon="8.3791017"><ele>209.6</ele><time>2026-04-11T08:01:27.3Z</time></trkpt><trkpt lat="45.0020717" lon="8.3789617"><ele>210.0</ele><time>2026-04-11T08:01:28.299Z</time></trkpt><trkpt lat="45.0020833" lon="8.378825"><ele>210.5</ele><time>2026-04-11T08:01:29.3Z</time></trkpt><trkpt lat="45.0020967" lon="8.3787017"><ele>211.0</ele><time>2026-04-11T08:01:30.3Z</time></trkpt><trkpt lat="45.002115" lon="8.3785867"><ele>211.5</ele><time>2026-04-11T08:01:31.299Z</time></trkpt><trkpt lat="45.00213" lon="8.378485"><ele>212.0</ele><time>2026-04-11T08:01:32.299Z</time></trkpt><trkpt lat="45.002145" lon="8.3783967"><ele>212.5</ele><time>2026-04-11T08:01:33.299Z</time></trkpt><trkpt lat="45.0021467" lon="8.378305"><ele>213.0</ele><time>2026-04-11T08:01:34.3Z</time></trkpt><trkpt lat="45.0021" lon="8.3781217"><ele>213.25</ele><time>2026-04-11T08:01:36.299Z</time></trkpt><trkpt lat="45.0020533" lon="8.377995"><ele>213.5</ele><time>2026-04-11T08:01:37.3Z</time></trkpt><trkpt lat="45.0019867" lon="8.3778517"><ele>213.75</ele><time>2026-04-11T08:01:38.299Z</time></trkpt><trkpt lat="45.00192" lon="8.3776783"><ele>214.0</ele><time>2026-04-11T08:01:39.299Z</time></trkpt><trkpt lat="45.00185" lon="8.377515"><ele>214.0</ele><time>2026-04-11T08:01:40.299Z</time></trkpt><trkpt lat="45.0017817" lon="8.377355"><ele>214.0</ele><time>2026-04-11T08:01:41.3Z</time></trkpt><trkpt lat="45.001715" lon="8.377185"><ele>214.0</ele><time>2026-04-11T08:01:42.299Z</time></trkpt><trkpt lat="45.001655" lon="8.3770167"><ele>214.0</ele><time>2026-04-11T08:01:43.299Z</time></trkpt><trkpt lat="45.0016" lon="8.37683"><ele>215.0</ele><time>2026-04-11T08:01:44.299Z</time></trkpt><trkpt lat="45.0015333" lon="8.3766567"><ele>216.0</ele><time>2026-04-11T08:01:45.299Z</time></trkpt><trkpt lat="45.001475" lon="8.3764717"><ele>217.0</ele><time>2026-04-11T08:01:46.299Z</time></trkpt><trkpt lat="45.0014183" lon="8.3762983"><ele>218.0</ele><time>2026-04-11T08:01:47.3Z</time></trkpt><trkpt lat="45.0013517" lon="8.3761517"><ele>219.75</ele><time>2026-04-11T08:01:48.299Z</time></trkpt><trkpt lat="45.0012867" lon="8.3760383"><ele>221.5</ele><time>2026-04-11T08:01:49.299Z</time></trkpt><trkpt lat="45.00112" lon="8.3758933"><ele>223.25</ele><time>2026-04-11T08:01:51.299Z</time></trkpt><trkpt lat="45.001015" lon="8.375845"><ele>225.0</ele><time>2026-04-11T08:01:52.299Z</time></trkpt><trkpt lat="45.0008983" lon="8.3758183"><ele>225.25</ele><time>2026-04-11T08:01:53.3Z</time></trkpt><trkpt lat="45.0006783" lon="8.37575"><ele>225.5</ele><time>2026-04-11T08:01:55.299Z</time></trkpt><trkpt lat="45.0005917" lon="8.3757017"><ele>225.75</ele><time>2026-04-11T08:01:56.299Z</time></trkpt><trkpt lat="45.000515" lon="8.3756383"><ele>226.0</ele><time>2026-04-11T08:01:57.299Z</time></trkpt><trkpt lat="45.0004483" lon="8.3755617"><ele>228.0</ele><time>2026-04-11T08:01:58.3Z</time></trkpt><trkpt lat="45.0003683" lon="8.3754633"><ele>230.00000000000003</ele><time>2026-04-11T08:01:59.3Z</time></trkpt><trkpt lat="45.000295" lon="8.3753533"><ele>232.00000000000003</ele><time>2026-04-11T08:02:00.299Z</time></trkpt><trkpt lat="45.00021" lon="8.3752517"><ele>234.0</ele><time>2026-04-11T08:02:01.299Z</time></trkpt><trkpt lat="45.000125" lon="8.3751583"><ele>236.0</ele><time>2026-04-11T08:02:02.299Z</time></trkpt><trkpt lat="45.00003" lon="8.37507"><ele>236.0</ele><time>2026-04-11T08:02:03.3Z</time></trkpt><trkpt lat="44.999935" lon="8.374965"><ele>236.00000000000003</ele><time>2026-04-11T08:02:04.299Z</time></trkpt><trkpt lat="44.9998433" lon="8.3748667"><ele>236.00000000000003</ele><time>2026-04-11T08:02:05.3Z</time></trkpt><trkpt lat="44.99976" lon="8.3747667"><ele>236.0</ele><time>2026-04-11T08:02:06.299Z</time></trkpt><trkpt lat="44.9996817" lon="8.3746783"><ele>236.0</ele><time>2026-04-11T08:02:07.299Z</time></trkpt><trkpt lat="44.9996033" lon="8.3745667"><ele>237.20000000000002</ele><time>2026-04-11T08:02:08.3Z</time></trkpt><trkpt lat="44.9995167" lon="8.37446"><ele>238.40000000000003</ele><time>2026-04-11T08:02:09.299Z</time></trkpt><trkpt lat="44.9994317" lon="8.37436"><ele>239.6</ele><time>2026-04-11T08:02:10.3Z</time></trkpt><trkpt lat="44.9993467" lon="8.3742683"><ele>240.8</ele><time>2026-04-11T08:02:11.3Z</time></trkpt><trkpt lat="44.9992717" lon="8.37419"><ele>242.0</ele><time>2026-04-11T08:02:12.299Z</time></trkpt><trkpt lat="44.9992017" lon="8.3741417"><ele>241.83333333333334</ele><time>2026-04-11T08:02:13.299Z</time></trkpt><trkpt lat="44.9991217" lon="8.3741067"><ele>241.66666666666669</ele><time>2026-04-11T08:02:14.3Z</time></trkpt><trkpt lat="44.9990483" lon="8.374105"><ele>241.5</ele><time>2026-04-11T08:02:15.3Z</time></trkpt><trkpt lat="44.9989817" lon="8.3741167"><ele>241.33333333333331</ele><time>2026-04-11T08:02:16.3Z</time></trkpt><trkpt lat="44.9989067" lon="8.3741533"><ele>241.16666666666666</ele><time>2026-04-11T08:02:17.299Z</time></trkpt><trkpt lat="44.9988233" lon="8.374195"><ele>241.0</ele><time>2026-04-11T08:02:18.299Z</time></trkpt><trkpt lat="44.99873" lon="8.374235"><ele>241.0</ele><time>2026-04-11T08:02:19.299Z</time></trkpt><trkpt lat="44.9986217" lon="8.3742883"><ele>241.0</ele><time>2026-04-11T08:02:20.3Z</time></trkpt><trkpt lat="44.9985" lon="8.374345"><ele>241.0</ele><time>2026-04-11T08:02:21.3Z</time></trkpt><trkpt lat="44.9983833" lon="8.3744083"><ele>241.0</ele><time>2026-04-11T08:02:22.299Z</time></trkpt><trkpt lat="44.9982617" lon="8.37447"><ele>241.5</ele><time>2026-04-11T08:02:23.299Z</time></trkpt><trkpt lat="44.9981417" lon="8.3745317"><ele>242.0</ele><time>2026-04-11T08:02:24.299Z</time></trkpt><trkpt lat="44.9980117" lon="8.374605"><ele>242.5</ele><time>2026-04-11T08:02:25.299Z</time></trkpt><trkpt lat="44.9978883" lon="8.3746683"><ele>243.0</ele><time>2026-04-11T08:02:26.3Z</time></trkpt><trkpt lat="44.9977583" lon="8.3747417"><ele>241.33333333333331</ele><time>2026-04-11T08:02:27.299Z</time></trkpt><trkpt lat="44.9976333" lon="8.3747983"><ele>239.66666666666666</ele><time>2026-04-11T08:02:28.3Z</time></trkpt><trkpt lat="44.99751" lon="8.374855"><ele>238.0</ele><time>2026-04-11T08:02:29.299Z</time></trkpt><trkpt lat="44.9971883" lon="8.375015"><ele>238.0</ele><time>2026-04-11T08:02:32.299Z</time></trkpt><trkpt lat="44.997075" lon="8.375075"><ele>238.0</ele><time>2026-04-11T08:02:33.299Z</time></trkpt><trkpt lat="44.9969617" lon="8.3751367"><ele>238.0</ele><time>2026-04-11T08:02:34.299Z</time></trkpt><trkpt lat="44.9968467" lon="8.375175"><ele>238.0</ele><time>2026-04-11T08:02:35.299Z</time></trkpt><trkpt lat="44.996735" lon="8.3752333"><ele>237.2</ele><time>2026-04-11T08:02:36.299Z</time></trkpt><trkpt lat="44.9966333" lon="8.3752767"><ele>236.4</ele><time>2026-04-11T08:02:37.299Z</time></trkpt><trkpt lat="44.9965317" lon="8.37532"><ele>235.59999999999997</ele><time>2026-04-11T08:02:38.299Z</time></trkpt><trkpt lat="44.9964283" lon="8.3753717"><ele>234.79999999999998</ele><time>2026-04-11T08:02:39.299Z</time></trkpt><trkpt lat="44.99633" lon="8.3754433"><ele>234.0</ele><time>2026-04-11T08:02:40.299Z</time></trkpt><trkpt lat="44.9962233" lon="8.3755"><ele>233.79999999999998</ele><time>2026-04-11T08:02:41.299Z</time></trkpt><trkpt lat="44.996125" lon="8.3755633"><ele>233.59999999999997</ele><time>2026-04-11T08:02:42.299Z</time></trkpt><trkpt lat="44.99602" lon="8.3756117"><ele>233.4</ele><time>2026-04-11T08:02:43.299Z</time></trkpt><trkpt lat="44.99592" lon="8.37567"><ele>233.2</ele><time>2026-04-11T08:02:44.299Z</time></trkpt><trkpt lat="44.995825" lon="8.3757183"><ele>233.0</ele><time>2026-04-11T08:02:45.299Z</time></trkpt><trkpt lat="44.99572" lon="8.3757667"><ele>233.0</ele><time>2026-04-11T08:02:46.299Z</time></trkpt><trkpt lat="44.995605" lon="8.3758183"><ele>233.0</ele><time>2026-04-11T08:02:47.299Z</time></trkpt><trkpt lat="44.9955033" lon="8.3758617"><ele>233.0</ele><time>2026-04-11T08:02:48.299Z</time></trkpt><trkpt lat="44.9953983" lon="8.3759033"><ele>233.0</ele><time>2026-04-11T08:02:49.299Z</time></trkpt><trkpt lat="44.9953117" lon="8.3759517"><ele>233.0</ele><time>2026-04-11T08:02:50.299Z</time></trkpt><trkpt lat="44.9952417" lon="8.3759883"><ele>233.00000000000003</ele><time>2026-04-11T08:02:51.3Z</time></trkpt><trkpt lat="44.99513" lon="8.3760317"><ele>233.0</ele><time>2026-04-11T08:02:53.299Z</time></trkpt><trkpt lat="44.9950433" lon="8.3760417"><ele>233.0</ele><time>2026-04-11T08:02:55.299Z</time></trkpt><trkpt lat="44.9949933" lon="8.3759683"><ele>233.0</ele><time>2026-04-11T08:03:00.299Z</time></trkpt><trkpt lat="44.9950133" lon="8.3758833"><ele>233.00000000000003</ele><time>2026-04-11T08:03:03.299Z</time></trkpt><trkpt lat="44.9950283" lon="8.3757867"><ele>233.0</ele><time>2026-04-11T08:03:06.299Z</time></trkpt><trkpt lat="44.9949917" lon="8.37567"><ele>233.0</ele><time>2026-04-11T08:03:08.299Z</time></trkpt><trkpt lat="44.9949933" lon="8.3755383"><ele>233.0</ele><time>2026-04-11T08:03:10.3Z</time></trkpt><trkpt lat="44.995005" lon="8.3754"><ele>233.0</ele><time>2026-04-11T08:03:12.299Z</time></trkpt><trkpt lat="44.995005" lon="8.3753017"><ele>233.0</ele><time>2026-04-11T08:03:13.299Z</time></trkpt><trkpt lat="44.9950117" lon="8.37513"><ele>233.0</ele><time>2026-04-11T08:03:15.299Z</time></trkpt><trkpt lat="44.9950217" lon="8.3750333"><ele>232.66666666666669</ele><time>2026-04-11T08:03:16.299Z</time></trkpt><trkpt lat="44.9950383" lon="8.3749417"><ele>232.33333333333334</ele><time>2026-04-11T08:03:17.3Z</time></trkpt><trkpt lat="44.9950583" lon="8.3748483"><ele>232.0</ele><time>2026-04-11T08:03:18.3Z</time></trkpt><trkpt lat="44.9950633" lon="8.3747467"><ele>231.66666666666669</ele><time>2026-04-11T08:03:19.299Z</time></trkpt><trkpt lat="44.9950667" lon="8.3746483"><ele>231.33333333333334</ele><time>2026-04-11T08:03:20.299Z</time></trkpt><trkpt lat="44.9950967" lon="8.3744917"><ele>231.0</ele><time>2026-04-11T08:03:22.299Z</time></trkpt><trkpt lat="44.99511" lon="8.3744033"><ele>230.0</ele><time>2026-04-11T08:03:23.3Z</time></trkpt><trkpt lat="44.9950933" lon="8.3742283"><ele>229.00000000000003</ele><time>2026-04-11T08:03:25.299Z</time></trkpt><trkpt lat="44.9950833" lon="8.37413"><ele>228.00000000000003</ele><time>2026-04-11T08:03:26.299Z</time></trkpt><trkpt lat="44.9950783" lon="8.3740033"><ele>227.0</ele><time>2026-04-11T08:03:27.3Z</time></trkpt><trkpt lat="44.995075" lon="8.37388"><ele>226.0</ele><time>2026-04-11T08:03:28.299Z</time></trkpt><trkpt lat="44.99507" lon="8.37376"><ele>224.66666666666666</ele><time>2026-04-11T08:03:29.3Z</time></trkpt><trkpt lat="44.9950683" lon="8.373645"><ele>223.33333333333331</ele><time>2026-04-11T08:03:30.3Z</time></trkpt><trkpt lat="44.9950717" lon="8.3735317"><ele>222.0</ele><time>2026-04-11T08:03:31.299Z</time></trkpt><trkpt lat="44.995065" lon="8.3734233"><ele>220.66666666666669</ele><time>2026-04-11T08:03:32.3Z</time></trkpt><trkpt lat="44.99506" lon="8.3733133"><ele>219.33333333333334</ele><time>2026-04-11T08:03:33.3Z</time></trkpt><trkpt lat="44.995055" lon="8.373195"><ele>218.0</ele><time>2026-04-11T08:03:34.299Z</time></trkpt><trkpt lat="44.9950483" lon="8.37308"><ele>216.00000000000003</ele><time>2026-04-11T08:03:35.299Z</time></trkpt><trkpt lat="44.995045" lon="8.37297"><ele>214.0</ele><time>2026-04-11T08:03:36.299Z</time></trkpt><trkpt lat="44.9950467" lon="8.372855"><ele>212.0</ele><time>2026-04-11T08:03:37.3Z</time></trkpt><trkpt lat="44.995055" lon="8.372735"><ele>210.0</ele><time>2026-04-11T08:03:38.299Z</time></trkpt><trkpt lat="44.9950617" lon="8.3726033"><ele>208.00000000000003</ele><time>2026-04-11T08:03:39.299Z</time></trkpt><trkpt lat="44.99507" lon="8.372485"><ele>206.0</ele><time>2026-04-11T08:03:40.299Z</time></trkpt><trkpt lat="44.9950817" lon="8.3723783"><ele>206.0</ele><time>2026-04-11T08:03:41.3Z</time></trkpt><trkpt lat="44.9950917" lon="8.3722767"><ele>206.0</ele><time>2026-04-11T08:03:42.299Z</time></trkpt><trkpt lat="44.9951033" lon="8.3721867"><ele>206.0</ele><time>2026-04-11T08:03:43.299Z</time></trkpt><trkpt lat="44.99509" lon="8.3720233"><ele>206.0</ele><time>2026-04-11T08:03:45.299Z</time></trkpt><trkpt lat="44.9950633" lon="8.3718433"><ele>206.0</ele><time>2026-04-11T08:03:47.299Z</time></trkpt><trkpt lat="44.99503" lon="8.371735"><ele>203.75</ele><time>2026-04-11T08:03:48.299Z</time></trkpt><trkpt lat="44.99499" lon="8.37161"><ele>201.5</ele><time>2026-04-11T08:03:49.299Z</time></trkpt><trkpt lat="44.99494" lon="8.37148"><ele>199.25</ele><time>2026-04-11T08:03:50.3Z</time></trkpt><trkpt lat="44.9948833" lon="8.371325"><ele>197.0</ele><time>2026-04-11T08:03:51.3Z</time></trkpt><trkpt lat="44.994825" lon="8.3711533"><ele>195.25</ele><time>2026-04-11T08:03:52.3Z</time></trkpt><trkpt lat="44.9947617" lon="8.370975"><ele>193.5</ele><time>2026-04-11T08:03:53.299Z</time></trkpt><trkpt lat="44.994705" lon="8.37079"><ele>191.75</ele><time>2026-04-11T08:03:54.3Z</time></trkpt><trkpt lat="44.99465" lon="8.370615"><ele>190.0</ele><time>2026-04-11T08:03:55.3Z</time></trkpt><trkpt lat="44.994595" lon="8.3704533"><ele>188.5</ele><time>2026-04-11T08:03:56.3Z</time></trkpt><trkpt lat="44.9945367" lon="8.3703017"><ele>187.0</ele><time>2026-04-11T08:03:57.299Z</time></trkpt><trkpt lat="44.9944783" lon="8.3701583"><ele>185.5</ele><time>2026-04-11T08:03:58.3Z</time></trkpt><trkpt lat="44.994415" lon="8.370015"><ele>184.0</ele><time>2026-04-11T08:03:59.299Z</time></trkpt><trkpt lat="44.99435" lon="8.3698967"><ele>184.0</ele><time>2026-04-11T08:04:00.3Z</time></trkpt><trkpt lat="44.9942867" lon="8.3697783"><ele>184.0</ele><time>2026-04-11T08:04:01.3Z</time></trkpt><trkpt lat="44.99422" lon="8.3696483"><ele>184.0</ele><time>2026-04-11T08:04:02.299Z</time></trkpt><trkpt lat="44.9941567" lon="8.3695267"><ele>184.0</ele><time>2026-04-11T08:04:03.3Z</time></trkpt><trkpt lat="44.9940833" lon="8.369415"><ele>184.0</ele><time>2026-04-11T08:04:04.3Z</time></trkpt><trkpt lat="44.9940117" lon="8.36932"><ele>184.16666666666669</ele><time>2026-04-11T08:04:05.299Z</time></trkpt><trkpt lat="44.99396" lon="8.36925"><ele>184.33333333333334</ele><time>2026-04-11T08:04:06.299Z</time></trkpt><trkpt lat="44.993885" lon="8.3691817"><ele>184.5</ele><time>2026-04-11T08:04:07.299Z</time></trkpt><trkpt lat="44.99382" lon="8.3691033"><ele>184.66666666666666</ele><time>2026-04-11T08:04:08.299Z</time></trkpt><trkpt lat="44.9937717" lon="8.3690217"><ele>184.83333333333331</ele><time>2026-04-11T08:04:09.3Z</time></trkpt><trkpt lat="44.9937483" lon="8.3689317"><ele>185.0</ele><time>2026-04-11T08:04:10.3Z</time></trkpt><trkpt lat="44.9937367" lon="8.3688167"><ele>185.83333333333331</ele><time>2026-04-11T08:04:11.299Z</time></trkpt><trkpt lat="44.9937333" lon="8.3687033"><ele>186.66666666666666</ele><time>2026-04-11T08:04:12.299Z</time></trkpt><trkpt lat="44.9937383" lon="8.3685967"><ele>187.5</ele><time>2026-04-11T08:04:13.3Z</time></trkpt><trkpt lat="44.9937367" lon="8.3684917"><ele>188.33333333333334</ele><time>2026-04-11T08:04:14.299Z</time></trkpt><trkpt lat="44.993725" lon="8.3683833"><ele>189.16666666666669</ele><time>2026-04-11T08:04:15.299Z</time></trkpt><trkpt lat="44.993705" lon="8.3682733"><ele>190.0</ele><time>2026-04-11T08:04:16.299Z</time></trkpt><trkpt lat="44.9936733" lon="8.368165"><ele>190.0</ele><time>2026-04-11T08:04:17.298Z</time></trkpt><trkpt lat="44.9936383" lon="8.3680683"><ele>190.0</ele><time>2026-04-11T08:04:18.298Z</time></trkpt><trkpt lat="44.993595" lon="8.367975"><ele>190.0</ele><time>2026-04-11T08:04:19.298Z</time></trkpt><trkpt lat="44.9935583" lon="8.3678767"><ele>190.0</ele><time>2026-04-11T08:04:20.298Z</time></trkpt><trkpt lat="44.9935217" lon="8.36778"><ele>190.0</ele><time>2026-04-11T08:04:21.298Z</time></trkpt><trkpt lat="44.9934833" lon="8.3676867"><ele>190.0</ele><time>2026-04-11T08:04:22.298Z</time></trkpt><trkpt lat="44.9934583" lon="8.3675817"><ele>191.2</ele><time>2026-04-11T08:04:23.299Z</time></trkpt><trkpt lat="44.9934333" lon="8.3674583"><ele>192.4</ele><time>2026-04-11T08:04:24.298Z</time></trkpt><trkpt lat="44.9934183" lon="8.3673217"><ele>193.60000000000002</ele><time>2026-04-11T08:04:25.298Z</time></trkpt><trkpt lat="44.993395" lon="8.3671783"><ele>194.8</ele><time>2026-04-11T08:04:26.298Z</time></trkpt><trkpt lat="44.9933817" lon="8.3670367"><ele>196.0</ele><time>2026-04-11T08:04:27.299Z</time></trkpt><trkpt lat="44.9933683" lon="8.36689"><ele>197.0</ele><time>2026-04-11T08:04:28.299Z</time></trkpt><trkpt lat="44.9933617" lon="8.3667417"><ele>198.0</ele><time>2026-04-11T08:04:29.298Z</time></trkpt><trkpt lat="44.9933633" lon="8.3666017"><ele>199.0</ele><time>2026-04-11T08:04:30.298Z</time></trkpt><trkpt lat="44.99337" lon="8.36645"><ele>200.0</ele><time>2026-04-11T08:04:31.299Z</time></trkpt><trkpt lat="44.993375" lon="8.3663267"><ele>201.0</ele><time>2026-04-11T08:04:32.298Z</time></trkpt><trkpt lat="44.993385" lon="8.3661133"><ele>201.16666666666666</ele><time>2026-04-11T08:04:34.299Z</time></trkpt><trkpt lat="44.9933783" lon="8.36599"><ele>201.33333333333331</ele><time>2026-04-11T08:04:35.299Z</time></trkpt><trkpt lat="44.9933717" lon="8.3658633"><ele>201.5</ele><time>2026-04-11T08:04:36.298Z</time></trkpt><trkpt lat="44.9933633" lon="8.3657417"><ele>201.66666666666666</ele><time>2026-04-11T08:04:37.298Z</time></trkpt><trkpt lat="44.9933583" lon="8.365615"><ele>201.83333333333331</ele><time>2026-04-11T08:04:38.299Z</time></trkpt><trkpt lat="44.99335" lon="8.36548"><ele>202.0</ele><time>2026-04-11T08:04:39.298Z</time></trkpt><trkpt lat="44.9933433" lon="8.3653433"><ele>199.6</ele><time>2026-04-11T08:04:40.298Z</time></trkpt><trkpt lat="44.9933333" lon="8.36522"><ele>197.2</ele><time>2026-04-11T08:04:41.299Z</time></trkpt><trkpt lat="44.9933283" lon="8.3651"><ele>194.8</ele><time>2026-04-11T08:04:42.298Z</time></trkpt><trkpt lat="44.9933217" lon="8.3649767"><ele>192.4</ele><time>2026-04-11T08:04:43.298Z</time></trkpt><trkpt lat="44.99332" lon="8.36483"><ele>190.0</ele><time>2026-04-11T08:04:44.298Z</time></trkpt><trkpt lat="44.9933183" lon="8.3646733"><ele>190.0</ele><time>2026-04-11T08:04:45.299Z</time></trkpt><trkpt lat="44.9933283" lon="8.3645383"><ele>190.0</ele><time>2026-04-11T08:04:46.299Z</time></trkpt><trkpt lat="44.9933417" lon="8.3643983"><ele>190.0</ele><time>2026-04-11T08:04:47.298Z</time></trkpt><trkpt lat="44.9933633" lon="8.3642783"><ele>190.0</ele><time>2026-04-11T08:04:48.298Z</time></trkpt><trkpt lat="44.9933767" lon="8.3641667"><ele>190.0</ele><time>2026-04-11T08:04:49.299Z</time></trkpt><trkpt lat="44.993395" lon="8.36407"><ele>190.0</ele><time>2026-04-11T08:04:50.298Z</time></trkpt><trkpt lat="44.9934183" lon="8.36397"><ele>190.83333333333334</ele><time>2026-04-11T08:04:51.299Z</time></trkpt><trkpt lat="44.9934433" lon="8.3638617"><ele>191.66666666666669</ele><time>2026-04-11T08:04:52.298Z</time></trkpt><trkpt lat="44.99347" lon="8.3637467"><ele>192.5</ele><time>2026-04-11T08:04:53.298Z</time></trkpt><trkpt lat="44.9934967" lon="8.363635"><ele>193.33333333333334</ele><time>2026-04-11T08:04:54.298Z</time></trkpt><trkpt lat="44.9935283" lon="8.3635233"><ele>194.16666666666666</ele><time>2026-04-11T08:04:55.299Z</time></trkpt><trkpt lat="44.9935583" lon="8.3634133"><ele>195.0</ele><time>2026-04-11T08:04:56.298Z</time></trkpt><trkpt lat="44.9935783" lon="8.3633033"><ele>195.0</ele><time>2026-04-11T08:04:57.298Z</time></trkpt><trkpt lat="44.9935917" lon="8.3631867"><ele>195.0</ele><time>2026-04-11T08:04:58.298Z</time></trkpt><trkpt lat="44.9935883" lon="8.36309"><ele>195.0</ele><time>2026-04-11T08:04:59.299Z</time></trkpt><trkpt lat="44.9935833" lon="8.3629583"><ele>195.0</ele><time>2026-04-11T08:05:01.299Z</time></trkpt><trkpt lat="44.9935433" lon="8.362875"><ele>195.0</ele><time>2026-04-11T08:05:03.299Z</time></trkpt><trkpt lat="44.9935117" lon="8.3627683"><ele>195.0</ele><time>2026-04-11T08:05:05.299Z</time></trkpt><trkpt lat="44.9934867" lon="8.3626033"><ele>194.66666666666666</ele><time>2026-04-11T08:05:07.299Z</time></trkpt><trkpt lat="44.9934433" lon="8.3624517"><ele>194.33333333333331</ele><time>2026-04-11T08:05:09.298Z</time></trkpt><trkpt lat="44.993425" lon="8.3623633"><ele>194.0</ele><time>2026-04-11T08:05:10.299Z</time></trkpt><trkpt lat="44.9933833" lon="8.36219"><ele>193.66666666666666</ele><time>2026-04-11T08:05:12.298Z</time></trkpt><trkpt lat="44.9933567" lon="8.3621033"><ele>193.33333333333331</ele><time>2026-04-11T08:05:13.299Z</time></trkpt><trkpt lat="44.993325" lon="8.3620133"><ele>193.0</ele><time>2026-04-11T08:05:14.298Z</time></trkpt><trkpt lat="44.9932933" lon="8.36193"><ele>191.16666666666666</ele><time>2026-04-11T08:05:15.298Z</time></trkpt><trkpt lat="44.99326" lon="8.36184"><ele>189.33333333333331</ele><time>2026-04-11T08:05:16.298Z</time></trkpt><trkpt lat="44.99323" lon="8.361755"><ele>187.5</ele><time>2026-04-11T08:05:17.298Z</time></trkpt><trkpt lat="44.9932017" lon="8.3616683"><ele>185.66666666666666</ele><time>2026-04-11T08:05:18.299Z</time></trkpt><trkpt lat="44.9931533" lon="8.36149"><ele>183.83333333333331</ele><time>2026-04-11T08:05:20.298Z</time></trkpt><trkpt lat="44.9931267" lon="8.3613883"><ele>182.0</ele><time>2026-04-11T08:05:21.298Z</time></trkpt><trkpt lat="44.9931" lon="8.361275"><ele>180.83333333333331</ele><time>2026-04-11T08:05:22.298Z</time></trkpt><trkpt lat="44.9930633" lon="8.3611617"><ele>179.66666666666666</ele><time>2026-04-11T08:05:23.298Z</time></trkpt><trkpt lat="44.9930317" lon="8.3610433"><ele>178.5</ele><time>2026-04-11T08:05:24.299Z</time></trkpt><trkpt lat="44.993" lon="8.360935"><ele>177.33333333333334</ele><time>2026-04-11T08:05:25.298Z</time></trkpt><trkpt lat="44.9929783" lon="8.3608317"><ele>176.16666666666669</ele><time>2026-04-11T08:05:26.298Z</time></trkpt><trkpt lat="44.992955" lon="8.3607117"><ele>175.0</ele><time>2026-04-11T08:05:27.298Z</time></trkpt><trkpt lat="44.9929267" lon="8.3605867"><ele>174.33333333333334</ele><time>2026-04-11T08:05:28.298Z</time></trkpt><trkpt lat="44.9929067" lon="8.3604733"><ele>173.66666666666669</ele><time>2026-04-11T08:05:29.298Z</time></trkpt><trkpt lat="44.99289" lon="8.3603633"><ele>173.0</ele><time>2026-04-11T08:05:30.299Z</time></trkpt><trkpt lat="44.9928683" lon="8.3602483"><ele>172.33333333333334</ele><time>2026-04-11T08:05:31.298Z</time></trkpt><trkpt lat="44.9928433" lon="8.360145"><ele>171.66666666666666</ele><time>2026-04-11T08:05:32.299Z</time></trkpt><trkpt lat="44.9928183" lon="8.3600617"><ele>171.0</ele><time>2026-04-11T08:05:33.298Z</time></trkpt><trkpt lat="44.9927633" lon="8.35991"><ele>170.99999999999997</ele><time>2026-04-11T08:05:35.298Z</time></trkpt><trkpt lat="44.9927283" lon="8.3598283"><ele>171.0</ele><time>2026-04-11T08:05:36.298Z</time></trkpt><trkpt lat="44.9927067" lon="8.3597333"><ele>171.0</ele><time>2026-04-11T08:05:37.298Z</time></trkpt><trkpt lat="44.992675" lon="8.3596417"><ele>171.0</ele><time>2026-04-11T08:05:38.298Z</time></trkpt><trkpt lat="44.99265" lon="8.3595533"><ele>171.0</ele><time>2026-04-11T08:05:39.298Z</time></trkpt><trkpt lat="44.9926267" lon="8.35947"><ele>170.99999999999997</ele><time>2026-04-11T08:05:40.298Z</time></trkpt><trkpt lat="44.9925983" lon="8.3593717"><ele>171.0</ele><time>2026-04-11T08:05:41.298Z</time></trkpt><trkpt lat="44.9925633" lon="8.359275"><ele>171.16666666666666</ele><time>2026-04-11T08:05:42.299Z</time></trkpt><trkpt lat="44.9925383" lon="8.3591767"><ele>171.33333333333334</ele><time>2026-04-11T08:05:43.299Z</time></trkpt><trkpt lat="44.9925117" lon="8.3590733"><ele>171.5</ele><time>2026-04-11T08:05:44.298Z</time></trkpt><trkpt lat="44.9924883" lon="8.3589683"><ele>171.66666666666669</ele><time>2026-04-11T08:05:45.299Z</time></trkpt><trkpt lat="44.9924683" lon="8.3588533"><ele>171.83333333333334</ele><time>2026-04-11T08:05:46.298Z</time></trkpt><trkpt lat="44.992445" lon="8.35874"><ele>172.0</ele><time>2026-04-11T08:05:47.299Z</time></trkpt><trkpt lat="44.9924217" lon="8.35862"><ele>172.0</ele><time>2026-04-11T08:05:48.298Z</time></trkpt><trkpt lat="44.992395" lon="8.358495"><ele>172.0</ele><time>2026-04-11T08:05:49.298Z</time></trkpt><trkpt lat="44.9923533" lon="8.3583767"><ele>172.0</ele><time>2026-04-11T08:05:50.298Z</time></trkpt><trkpt lat="44.9923133" lon="8.3582533"><ele>172.0</ele><time>2026-04-11T08:05:51.298Z</time></trkpt><trkpt lat="44.9922767" lon="8.3581217"><ele>172.0</ele><time>2026-04-11T08:05:52.298Z</time></trkpt><trkpt lat="44.9922433" lon="8.3579967"><ele>173.39999999999998</ele><time>2026-04-11T08:05:53.298Z</time></trkpt><trkpt lat="44.9922083" lon="8.3578617"><ele>174.79999999999998</ele><time>2026-04-11T08:05:54.298Z</time></trkpt><trkpt lat="44.9921667" lon="8.3577183"><ele>176.2</ele><time>2026-04-11T08:05:55.299Z</time></trkpt><trkpt lat="44.9921267" lon="8.3575867"><ele>177.6</ele><time>2026-04-11T08:05:56.298Z</time></trkpt><trkpt lat="44.9920967" lon="8.3574533"><ele>179.0</ele><time>2026-04-11T08:05:57.298Z</time></trkpt><trkpt lat="44.9920617" lon="8.3573283"><ele>180.39999999999998</ele><time>2026-04-11T08:05:58.298Z</time></trkpt><trkpt lat="44.9920333" lon="8.35719"><ele>181.8</ele><time>2026-04-11T08:05:59.298Z</time></trkpt><trkpt lat="44.9920017" lon="8.3570383"><ele>183.2</ele><time>2026-04-11T08:06:00.299Z</time></trkpt><trkpt lat="44.9919767" lon="8.356895"><ele>184.60000000000002</ele><time>2026-04-11T08:06:01.299Z</time></trkpt><trkpt lat="44.991955" lon="8.3567533"><ele>186.0</ele><time>2026-04-11T08:06:02.298Z</time></trkpt><trkpt lat="44.99193" lon="8.3566117"><ele>186.0</ele><time>2026-04-11T08:06:03.298Z</time></trkpt><trkpt lat="44.9919183" lon="8.35648"><ele>186.0</ele><time>2026-04-11T08:06:04.298Z</time></trkpt><trkpt lat="44.99191" lon="8.3563633"><ele>186.0</ele><time>2026-04-11T08:06:05.299Z</time></trkpt><trkpt lat="44.9919117" lon="8.356255"><ele>186.0</ele><time>2026-04-11T08:06:06.298Z</time></trkpt><trkpt lat="44.99193" lon="8.3561017"><ele>186.0</ele><time>2026-04-11T08:06:08.299Z</time></trkpt><trkpt lat="44.9920017" lon="8.356005"><ele>187.66666666666666</ele><time>2026-04-11T08:06:10.298Z</time></trkpt><trkpt lat="44.9920583" lon="8.3559417"><ele>189.33333333333331</ele><time>2026-04-11T08:06:11.299Z</time></trkpt><trkpt lat="44.9921917" lon="8.3557317"><ele>191.0</ele><time>2026-04-11T08:06:13.298Z</time></trkpt><trkpt lat="44.992355" lon="8.3554683"><ele>192.25</ele><time>2026-04-11T08:06:15.298Z</time></trkpt><trkpt lat="44.9924483" lon="8.3553383"><ele>193.5</ele><time>2026-04-11T08:06:16.298Z</time></trkpt><trkpt lat="44.9925283" lon="8.3552233"><ele>194.75</ele><time>2026-04-11T08:06:17.299Z</time></trkpt><trkpt lat="44.9926083" lon="8.3551183"><ele>196.0</ele><time>2026-04-11T08:06:18.298Z</time></trkpt><trkpt lat="44.992685" lon="8.35502"><ele>197.0</ele><time>2026-04-11T08:06:19.298Z</time></trkpt><trkpt lat="44.9927567" lon="8.3549267"><ele>198.0</ele><time>2026-04-11T08:06:20.298Z</time></trkpt><trkpt lat="44.9928283" lon="8.3548267"><ele>199.0</ele><time>2026-04-11T08:06:21.298Z</time></trkpt><trkpt lat="44.9929017" lon="8.3547433"><ele>200.0</ele><time>2026-04-11T08:06:22.299Z</time></trkpt><trkpt lat="44.9929817" lon="8.3546583"><ele>201.0</ele><time>2026-04-11T08:06:23.298Z</time></trkpt><trkpt lat="44.993065" lon="8.354575"><ele>202.20000000000002</ele><time>2026-04-11T08:06:24.298Z</time></trkpt><trkpt lat="44.9931517" lon="8.35449"><ele>203.4</ele><time>2026-04-11T08:06:25.299Z</time></trkpt><trkpt lat="44.993235" lon="8.3543983"><ele>204.6</ele><time>2026-04-11T08:06:26.298Z</time></trkpt><trkpt lat="44.9933233" lon="8.3543017"><ele>205.8</ele><time>2026-04-11T08:06:27.299Z</time></trkpt><trkpt lat="44.9934033" lon="8.3542083"><ele>207.0</ele><time>2026-04-11T08:06:28.298Z</time></trkpt><trkpt lat="44.9934883" lon="8.35412"><ele>207.2</ele><time>2026-04-11T08:06:29.298Z</time></trkpt><trkpt lat="44.9935683" lon="8.3540333"><ele>207.39999999999998</ele><time>2026-04-11T08:06:30.299Z</time></trkpt><trkpt lat="44.9936433" lon="8.3539567"><ele>207.60000000000002</ele><time>2026-04-11T08:06:31.298Z</time></trkpt><trkpt lat="44.9937317" lon="8.3538917"><ele>207.8</ele><time>2026-04-11T08:06:32.298Z</time></trkpt><trkpt lat="44.9938233" lon="8.353825"><ele>208.0</ele><time>2026-04-11T08:06:33.298Z</time></trkpt><trkpt lat="44.993995" lon="8.35372"><ele>208.2</ele><time>2026-04-11T08:06:35.298Z</time></trkpt><trkpt lat="44.9940883" lon="8.3536817"><ele>208.4</ele><time>2026-04-11T08:06:36.298Z</time></trkpt><trkpt lat="44.99418" lon="8.3536483"><ele>208.6</ele><time>2026-04-11T08:06:37.298Z</time></trkpt><trkpt lat="44.9942733" lon="8.3536083"><ele>208.79999999999998</ele><time>2026-04-11T08:06:38.298Z</time></trkpt><trkpt lat="44.99436" lon="8.3535517"><ele>209.0</ele><time>2026-04-11T08:06:39.298Z</time></trkpt><trkpt lat="44.9944467" lon="8.3534933"><ele>209.79999999999998</ele><time>2026-04-11T08:06:40.298Z</time></trkpt><trkpt lat="44.9945317" lon="8.35342"><ele>210.6</ele><time>2026-04-11T08:06:41.299Z</time></trkpt><trkpt lat="44.994625" lon="8.3533567"><ele>211.4</ele><time>2026-04-11T08:06:42.298Z</time></trkpt><trkpt lat="44.9947167" lon="8.3532783"><ele>212.2</ele><time>2026-04-11T08:06:43.298Z</time></trkpt><trkpt lat="44.9948067" lon="8.3531883"><ele>213.0</ele><time>2026-04-11T08:06:44.298Z</time></trkpt><trkpt lat="44.9949017" lon="8.3531017"><ele>213.2</ele><time>2026-04-11T08:06:45.298Z</time></trkpt><trkpt lat="44.9950017" lon="8.3530283"><ele>213.4</ele><time>2026-04-11T08:06:46.298Z</time></trkpt><trkpt lat="44.99509" lon="8.3529483"><ele>213.59999999999997</ele><time>2026-04-11T08:06:47.299Z</time></trkpt><trkpt lat="44.9951717" lon="8.35287"><ele>213.79999999999998</ele><time>2026-04-11T08:06:48.298Z</time></trkpt><trkpt lat="44.9952533" lon="8.352795"><ele>214.0</ele><time>2026-04-11T08:06:49.298Z</time></trkpt><trkpt lat="44.995345" lon="8.3527183"><ele>215.0</ele><time>2026-04-11T08:06:50.299Z</time></trkpt><trkpt lat="44.9954183" lon="8.3526467"><ele>215.99999999999997</ele><time>2026-04-11T08:06:51.298Z</time></trkpt><trkpt lat="44.9955017" lon="8.352585"><ele>216.99999999999997</ele><time>2026-04-11T08:06:52.299Z</time></trkpt><trkpt lat="44.99559" lon="8.3525183"><ele>218.0</ele><time>2026-04-11T08:06:53.298Z</time></trkpt><trkpt lat="44.9956667" lon="8.3524583"><ele>219.0</ele><time>2026-04-11T08:06:54.298Z</time></trkpt><trkpt lat="44.9957333" lon="8.352395"><ele>219.0</ele><time>2026-04-11T08:06:55.299Z</time></trkpt><trkpt lat="44.9957917" lon="8.35235"><ele>219.0</ele><time>2026-04-11T08:06:56.298Z</time></trkpt><trkpt lat="44.9958483" lon="8.3523083"><ele>219.0</ele><time>2026-04-11T08:06:57.298Z</time></trkpt><trkpt lat="44.9959533" lon="8.3522483"><ele>219.0</ele><time>2026-04-11T08:06:59.299Z</time></trkpt><trkpt lat="44.996045" lon="8.3521967"><ele>219.0</ele><time>2026-04-11T08:07:01.298Z</time></trkpt><trkpt lat="44.9961333" lon="8.3521567"><ele>219.0</ele><time>2026-04-11T08:07:03.298Z</time></trkpt><trkpt lat="44.9962133" lon="8.3521283"><ele>219.0</ele><time>2026-04-11T08:07:05.298Z</time></trkpt><trkpt lat="44.996305" lon="8.3520883"><ele>218.99999999999997</ele><time>2026-04-11T08:07:07.298Z</time></trkpt><trkpt lat="44.9964233" lon="8.352045"><ele>218.99999999999997</ele><time>2026-04-11T08:07:09.299Z</time></trkpt><trkpt lat="44.9964933" lon="8.3520267"><ele>219.0</ele><time>2026-04-11T08:07:10.298Z</time></trkpt><trkpt lat="44.9965667" lon="8.3519917"><ele>219.0</ele><time>2026-04-11T08:07:11.298Z</time></trkpt><trkpt lat="44.9966617" lon="8.3519633"><ele>218.75</ele><time>2026-04-11T08:07:12.298Z</time></trkpt><trkpt lat="44.99677" lon="8.3519333"><ele>218.5</ele><time>2026-04-11T08:07:13.299Z</time></trkpt><trkpt lat="44.996885" lon="8.3519117"><ele>218.25</ele><time>2026-04-11T08:07:14.298Z</time></trkpt><trkpt lat="44.9970083" lon="8.3518917"><ele>218.0</ele><time>2026-04-11T08:07:15.298Z</time></trkpt><trkpt lat="44.9971333" lon="8.3518733"><ele>218.0</ele><time>2026-04-11T08:07:16.298Z</time></trkpt><trkpt lat="44.9972567" lon="8.3518533"><ele>218.0</ele><time>2026-04-11T08:07:17.298Z</time></trkpt><trkpt lat="44.99739" lon="8.351825"><ele>218.0</ele><time>2026-04-11T08:07:18.298Z</time></trkpt><trkpt lat="44.9975283" lon="8.351795"><ele>218.0</ele><time>2026-04-11T08:07:19.298Z</time></trkpt><trkpt lat="44.99766" lon="8.351765"><ele>219.0</ele><time>2026-04-11T08:07:20.298Z</time></trkpt><trkpt lat="44.997785" lon="8.3517267"><ele>220.0</ele><time>2026-04-11T08:07:21.298Z</time></trkpt><trkpt lat="44.9979083" lon="8.3516783"><ele>221.0</ele><time>2026-04-11T08:07:22.298Z</time></trkpt><trkpt lat="44.9980133" lon="8.3516267"><ele>222.0</ele><time>2026-04-11T08:07:23.298Z</time></trkpt><trkpt lat="44.9981183" lon="8.3515633"><ele>222.0</ele><time>2026-04-11T08:07:24.299Z</time></trkpt><trkpt lat="44.9982283" lon="8.3514933"><ele>222.0</ele><time>2026-04-11T08:07:25.298Z</time></trkpt><trkpt lat="44.99834" lon="8.3514283"><ele>222.0</ele><time>2026-04-11T08:07:26.298Z</time></trkpt><trkpt lat="44.998445" lon="8.351365"><ele>222.0</ele><time>2026-04-11T08:07:27.298Z</time></trkpt><trkpt lat="44.9985417" lon="8.351295"><ele>222.75</ele><time>2026-04-11T08:07:28.298Z</time></trkpt><trkpt lat="44.9986233" lon="8.351205"><ele>223.5</ele><time>2026-04-11T08:07:29.298Z</time></trkpt><trkpt lat="44.9987167" lon="8.3511"><ele>224.25</ele><time>2026-04-11T08:07:30.299Z</time></trkpt><trkpt lat="44.9988167" lon="8.3510033"><ele>225.0</ele><time>2026-04-11T08:07:31.298Z</time></trkpt><trkpt lat="44.9989167" lon="8.3509233"><ele>225.0</ele><time>2026-04-11T08:07:32.299Z</time></trkpt><trkpt lat="44.99902" lon="8.3508483"><ele>225.0</ele><time>2026-04-11T08:07:33.298Z</time></trkpt><trkpt lat="44.9991283" lon="8.350775"><ele>225.0</ele><time>2026-04-11T08:07:34.298Z</time></trkpt><trkpt lat="44.9992467" lon="8.3507017"><ele>225.0</ele><time>2026-04-11T08:07:35.299Z</time></trkpt><trkpt lat="44.9993633" lon="8.3506333"><ele>225.0</ele><time>2026-04-11T08:07:36.299Z</time></trkpt><trkpt lat="44.9994867" lon="8.3505867"><ele>225.0</ele><time>2026-04-11T08:07:37.298Z</time></trkpt><trkpt lat="44.9996017" lon="8.3505383"><ele>225.0</ele><time>2026-04-11T08:07:38.298Z</time></trkpt><trkpt lat="44.9997033" lon="8.350475"><ele>225.0</ele><time>2026-04-11T08:07:39.298Z</time></trkpt><trkpt lat="44.99981" lon="8.3504017"><ele>226.0</ele><time>2026-04-11T08:07:40.298Z</time></trkpt><trkpt lat="44.99992" lon="8.3503483"><ele>227.0</ele><time>2026-04-11T08:07:41.299Z</time></trkpt><trkpt lat="45.0000517" lon="8.350305"><ele>228.0</ele><time>2026-04-11T08:07:42.298Z</time></trkpt><trkpt lat="45.000185" lon="8.3502767"><ele>229.0</ele><time>2026-04-11T08:07:43.298Z</time></trkpt><trkpt lat="45.0003067" lon="8.3502567"><ele>229.0</ele><time>2026-04-11T08:07:44.298Z</time></trkpt><trkpt lat="45.0004167" lon="8.350235"><ele>229.0</ele><time>2026-04-11T08:07:45.298Z</time></trkpt><trkpt lat="45.0005117" lon="8.3502183"><ele>229.0</ele><time>2026-04-11T08:07:46.298Z</time></trkpt><trkpt lat="45.00061" lon="8.3501867"><ele>229.0</ele><time>2026-04-11T08:07:47.298Z</time></trkpt><trkpt lat="45.000815" lon="8.3500733"><ele>229.75</ele><time>2026-04-11T08:07:49.298Z</time></trkpt><trkpt lat="45.000925" lon="8.3499933"><ele>230.5</ele><time>2026-04-11T08:07:50.299Z</time></trkpt><trkpt lat="45.0010367" lon="8.3499117"><ele>231.25</ele><time>2026-04-11T08:07:51.298Z</time></trkpt><trkpt lat="45.001145" lon="8.3498083"><ele>232.0</ele><time>2026-04-11T08:07:52.298Z</time></trkpt><trkpt lat="45.001245" lon="8.34971"><ele>232.25</ele><time>2026-04-11T08:07:53.298Z</time></trkpt><trkpt lat="45.0013483" lon="8.3496033"><ele>232.5</ele><time>2026-04-11T08:07:54.299Z</time></trkpt><trkpt lat="45.001445" lon="8.3494933"><ele>232.75</ele><time>2026-04-11T08:07:55.298Z</time></trkpt><trkpt lat="45.0015433" lon="8.3493767"><ele>233.0</ele><time>2026-04-11T08:07:56.298Z</time></trkpt><trkpt lat="45.0016417" lon="8.3492667"><ele>233.75</ele><time>2026-04-11T08:07:57.298Z</time></trkpt><trkpt lat="45.0017433" lon="8.3491517"><ele>234.5</ele><time>2026-04-11T08:07:58.298Z</time></trkpt><trkpt lat="45.0018483" lon="8.3490367"><ele>235.25</ele><time>2026-04-11T08:07:59.298Z</time></trkpt><trkpt lat="45.0019467" lon="8.3489433"><ele>236.0</ele><time>2026-04-11T08:08:00.298Z</time></trkpt><trkpt lat="45.0020383" lon="8.3488717"><ele>236.0</ele><time>2026-04-11T08:08:01.299Z</time></trkpt><trkpt lat="45.0021283" lon="8.348805"><ele>236.00000000000003</ele><time>2026-04-11T08:08:02.299Z</time></trkpt><trkpt lat="45.00222" lon="8.3487367"><ele>236.00000000000003</ele><time>2026-04-11T08:08:03.298Z</time></trkpt><trkpt lat="45.0023033" lon="8.3486817"><ele>236.0</ele><time>2026-04-11T08:08:04.298Z</time></trkpt><trkpt lat="45.002385" lon="8.348635"><ele>236.0</ele><time>2026-04-11T08:08:05.298Z</time></trkpt><trkpt lat="45.0024733" lon="8.3485967"><ele>237.50000000000003</ele><time>2026-04-11T08:08:06.298Z</time></trkpt><trkpt lat="45.0025583" lon="8.3485583"><ele>239.0</ele><time>2026-04-11T08:08:07.298Z</time></trkpt><trkpt lat="45.0026467" lon="8.348525"><ele>240.5</ele><time>2026-04-11T08:08:08.298Z</time></trkpt><trkpt lat="45.00274" lon="8.3484933"><ele>242.0</ele><time>2026-04-11T08:08:09.298Z</time></trkpt><trkpt lat="45.0028183" lon="8.348465"><ele>243.50000000000003</ele><time>2026-04-11T08:08:10.299Z</time></trkpt><trkpt lat="45.0028883" lon="8.348445"><ele>245.0</ele><time>2026-04-11T08:08:11.298Z</time></trkpt><trkpt lat="45.00296" lon="8.3484333"><ele>245.00000000000003</ele><time>2026-04-11T08:08:12.298Z</time></trkpt><trkpt lat="45.0030367" lon="8.348425"><ele>245.0</ele><time>2026-04-11T08:08:13.299Z</time></trkpt><trkpt lat="45.0031117" lon="8.34841"><ele>245.0</ele><time>2026-04-11T08:08:14.298Z</time></trkpt><trkpt lat="45.0031733" lon="8.348385"><ele>245.0</ele><time>2026-04-11T08:08:15.299Z</time></trkpt><trkpt lat="45.0032417" lon="8.3483567"><ele>245.00000000000003</ele><time>2026-04-11T08:08:16.298Z</time></trkpt><trkpt lat="45.0033183" lon="8.348325"><ele>245.0</ele><time>2026-04-11T08:08:17.298Z</time></trkpt><trkpt lat="45.003395" lon="8.34828"><ele>244.66666666666669</ele><time>2026-04-11T08:08:18.298Z</time></trkpt><trkpt lat="45.0034667" lon="8.3482383"><ele>244.33333333333334</ele><time>2026-04-11T08:08:19.299Z</time></trkpt><trkpt lat="45.003545" lon="8.3481933"><ele>244.0</ele><time>2026-04-11T08:08:20.298Z</time></trkpt><trkpt lat="45.00363" lon="8.3481483"><ele>243.66666666666669</ele><time>2026-04-11T08:08:21.298Z</time></trkpt><trkpt lat="45.0037117" lon="8.3481083"><ele>243.33333333333334</ele><time>2026-04-11T08:08:22.298Z</time></trkpt><trkpt lat="45.00379" lon="8.3480667"><ele>243.0</ele><time>2026-04-11T08:08:23.297Z</time></trkpt><trkpt lat="45.0038767" lon="8.3480283"><ele>243.0</ele><time>2026-04-11T08:08:24.297Z</time></trkpt><trkpt lat="45.0039767" lon="8.34799"><ele>243.0</ele><time>2026-04-11T08:08:25.297Z</time></trkpt><trkpt lat="45.00407" lon="8.3479517"><ele>243.0</ele><time>2026-04-11T08:08:26.297Z</time></trkpt><trkpt lat="45.0041633" lon="8.34792"><ele>243.0</ele><time>2026-04-11T08:08:27.298Z</time></trkpt><trkpt lat="45.0042517" lon="8.3478967"><ele>243.0</ele><time>2026-04-11T08:08:28.298Z</time></trkpt><trkpt lat="45.0043317" lon="8.3478783"><ele>242.83333333333334</ele><time>2026-04-11T08:08:29.297Z</time></trkpt><trkpt lat="45.00441" lon="8.3478567"><ele>242.66666666666669</ele><time>2026-04-11T08:08:30.297Z</time></trkpt><trkpt lat="45.0044833" lon="8.3478383"><ele>242.5</ele><time>2026-04-11T08:08:31.297Z</time></trkpt><trkpt lat="45.00456" lon="8.347815"><ele>242.33333333333334</ele><time>2026-04-11T08:08:32.297Z</time></trkpt><trkpt lat="45.004625" lon="8.3477833"><ele>242.16666666666669</ele><time>2026-04-11T08:08:33.297Z</time></trkpt><trkpt lat="45.004695" lon="8.3477417"><ele>242.0</ele><time>2026-04-11T08:08:34.297Z</time></trkpt><trkpt lat="45.0047683" lon="8.3476917"><ele>242.00000000000003</ele><time>2026-04-11T08:08:35.297Z</time></trkpt><trkpt lat="45.0048467" lon="8.3476567"><ele>242.0</ele><time>2026-04-11T08:08:36.297Z</time></trkpt><trkpt lat="45.0049117" lon="8.3476217"><ele>242.0</ele><time>2026-04-11T08:08:37.297Z</time></trkpt><trkpt lat="45.0049733" lon="8.347595"><ele>242.0</ele><time>2026-04-11T08:08:38.297Z</time></trkpt><trkpt lat="45.005075" lon="8.3475467"><ele>242.00000000000003</ele><time>2026-04-11T08:08:40.297Z</time></trkpt><trkpt lat="45.0051667" lon="8.3475017"><ele>242.0</ele><time>2026-04-11T08:08:42.298Z</time></trkpt><trkpt lat="45.005225" lon="8.3474317"><ele>241.83333333333334</ele><time>2026-04-11T08:09:08.298Z</time></trkpt><trkpt lat="45.0051817" lon="8.3473083"><ele>241.66666666666669</ele><time>2026-04-11T08:09:11.297Z</time></trkpt><trkpt lat="45.0050833" lon="8.34726"><ele>241.5</ele><time>2026-04-11T08:09:13.297Z</time></trkpt><trkpt lat="45.0050183" lon="8.3472267"><ele>241.33333333333331</ele><time>2026-04-11T08:09:14.297Z</time></trkpt><trkpt lat="45.0049417" lon="8.3471917"><ele>241.16666666666666</ele><time>2026-04-11T08:09:15.297Z</time></trkpt><trkpt lat="45.0048667" lon="8.3471683"><ele>241.0</ele><time>2026-04-11T08:09:16.298Z</time></trkpt><trkpt lat="45.0047833" lon="8.3471333"><ele>239.83333333333331</ele><time>2026-04-11T08:09:17.297Z</time></trkpt><trkpt lat="45.004695" lon="8.3470917"><ele>238.66666666666666</ele><time>2026-04-11T08:09:18.297Z</time></trkpt><trkpt lat="45.004615" lon="8.3470617"><ele>237.5</ele><time>2026-04-11T08:09:19.297Z</time></trkpt><trkpt lat="45.0045383" lon="8.3470317"><ele>236.33333333333331</ele><time>2026-04-11T08:09:20.297Z</time></trkpt><trkpt lat="45.0044733" lon="8.3469933"><ele>235.16666666666666</ele><time>2026-04-11T08:09:21.297Z</time></trkpt><trkpt lat="45.0044" lon="8.3469567"><ele>234.0</ele><time>2026-04-11T08:09:22.298Z</time></trkpt><trkpt lat="45.0043183" lon="8.34692"><ele>234.0</ele><time>2026-04-11T08:09:23.298Z</time></trkpt><trkpt lat="45.0042433" lon="8.3468883"><ele>233.99999999999997</ele><time>2026-04-11T08:09:24.297Z</time></trkpt><trkpt lat="45.0041633" lon="8.3468417"><ele>233.99999999999997</ele><time>2026-04-11T08:09:25.298Z</time></trkpt><trkpt lat="45.00408" lon="8.3467883"><ele>234.0</ele><time>2026-04-11T08:09:26.297Z</time></trkpt><trkpt lat="45.003995" lon="8.34672"><ele>234.0</ele><time>2026-04-11T08:09:27.298Z</time></trkpt><trkpt lat="45.0039183" lon="8.3466383"><ele>234.39999999999998</ele><time>2026-04-11T08:09:28.298Z</time></trkpt><trkpt lat="45.0038467" lon="8.346555"><ele>234.79999999999998</ele><time>2026-04-11T08:09:29.297Z</time></trkpt><trkpt lat="45.0037767" lon="8.34648"><ele>235.20000000000002</ele><time>2026-04-11T08:09:30.297Z</time></trkpt><trkpt lat="45.003705" lon="8.3463983"><ele>235.60000000000002</ele><time>2026-04-11T08:09:31.298Z</time></trkpt><trkpt lat="45.0036233" lon="8.34633"><ele>236.0</ele><time>2026-04-11T08:09:32.297Z</time></trkpt><trkpt lat="45.0035383" lon="8.3462683"><ele>235.0</ele><time>2026-04-11T08:09:33.297Z</time></trkpt><trkpt lat="45.00344" lon="8.3462117"><ele>234.00000000000003</ele><time>2026-04-11T08:09:34.298Z</time></trkpt><trkpt lat="45.00334" lon="8.3461783"><ele>233.00000000000003</ele><time>2026-04-11T08:09:35.297Z</time></trkpt><trkpt lat="45.0032283" lon="8.346145"><ele>232.0</ele><time>2026-04-11T08:09:36.297Z</time></trkpt><trkpt lat="45.0031167" lon="8.3461217"><ele>231.0</ele><time>2026-04-11T08:09:37.297Z</time></trkpt><trkpt lat="45.003005" lon="8.3460867"><ele>231.0</ele><time>2026-04-11T08:09:38.297Z</time></trkpt><trkpt lat="45.0028983" lon="8.346065"><ele>231.00000000000003</ele><time>2026-04-11T08:09:39.297Z</time></trkpt><trkpt lat="45.002795" lon="8.3460383"><ele>231.00000000000003</ele><time>2026-04-11T08:09:40.297Z</time></trkpt><trkpt lat="45.002695" lon="8.346015"><ele>231.0</ele><time>2026-04-11T08:09:41.297Z</time></trkpt><trkpt lat="45.002605" lon="8.34599"><ele>231.0</ele><time>2026-04-11T08:09:42.298Z</time></trkpt><trkpt lat="45.002515" lon="8.3459767"><ele>230.0</ele><time>2026-04-11T08:09:43.297Z</time></trkpt><trkpt lat="45.0024217" lon="8.3459483"><ele>229.00000000000003</ele><time>2026-04-11T08:09:44.297Z</time></trkpt><trkpt lat="45.00233" lon="8.3459183"><ele>228.00000000000003</ele><time>2026-04-11T08:09:45.297Z</time></trkpt><trkpt lat="45.0022417" lon="8.345875"><ele>227.0</ele><time>2026-04-11T08:09:46.298Z</time></trkpt><trkpt lat="45.0021533" lon="8.345815"><ele>226.0</ele><time>2026-04-11T08:09:47.297Z</time></trkpt><trkpt lat="45.0020733" lon="8.3457433"><ele>225.99999999999997</ele><time>2026-04-11T08:09:48.297Z</time></trkpt><trkpt lat="45.0020183" lon="8.3456717"><ele>226.0</ele><time>2026-04-11T08:09:49.297Z</time></trkpt><trkpt lat="45.0019567" lon="8.34559"><ele>226.0</ele><time>2026-04-11T08:09:50.297Z</time></trkpt><trkpt lat="45.0018883" lon="8.3455067"><ele>226.0</ele><time>2026-04-11T08:09:51.297Z</time></trkpt><trkpt lat="45.00182" lon="8.3454133"><ele>225.99999999999997</ele><time>2026-04-11T08:09:52.297Z</time></trkpt><trkpt lat="45.001755" lon="8.3453067"><ele>226.0</ele><time>2026-04-11T08:09:53.297Z</time></trkpt><trkpt lat="45.0016933" lon="8.3451917"><ele>223.83333333333331</ele><time>2026-04-11T08:09:54.298Z</time></trkpt><trkpt lat="45.0016333" lon="8.345085"><ele>221.66666666666666</ele><time>2026-04-11T08:09:55.297Z</time></trkpt><trkpt lat="45.00158" lon="8.344985"><ele>219.5</ele><time>2026-04-11T08:09:56.298Z</time></trkpt><trkpt lat="45.001525" lon="8.344895"><ele>217.33333333333331</ele><time>2026-04-11T08:09:57.298Z</time></trkpt><trkpt lat="45.00147" lon="8.344815"><ele>215.16666666666666</ele><time>2026-04-11T08:09:58.297Z</time></trkpt><trkpt lat="45.0014133" lon="8.3447367"><ele>213.0</ele><time>2026-04-11T08:09:59.297Z</time></trkpt><trkpt lat="45.0013583" lon="8.3446617"><ele>212.66666666666666</ele><time>2026-04-11T08:10:00.297Z</time></trkpt><trkpt lat="45.001305" lon="8.34459"><ele>212.33333333333331</ele><time>2026-04-11T08:10:01.297Z</time></trkpt><trkpt lat="45.0012533" lon="8.3445283"><ele>212.0</ele><time>2026-04-11T08:10:02.297Z</time></trkpt><trkpt lat="45.0011967" lon="8.3444567"><ele>211.66666666666666</ele><time>2026-04-11T08:10:03.297Z</time></trkpt><trkpt lat="45.00114" lon="8.3443833"><ele>211.33333333333331</ele><time>2026-04-11T08:10:04.298Z</time></trkpt><trkpt lat="45.0010883" lon="8.3442967"><ele>211.0</ele><time>2026-04-11T08:10:05.297Z</time></trkpt><trkpt lat="45.0010383" lon="8.3442117"><ele>210.99999999999997</ele><time>2026-04-11T08:10:06.297Z</time></trkpt><trkpt lat="45.0009817" lon="8.3441133"><ele>211.0</ele><time>2026-04-11T08:10:07.297Z</time></trkpt><trkpt lat="45.0009233" lon="8.3440217"><ele>211.0</ele><time>2026-04-11T08:10:08.297Z</time></trkpt><trkpt lat="45.0008683" lon="8.34393"><ele>211.0</ele><time>2026-04-11T08:10:09.297Z</time></trkpt><trkpt lat="45.0008167" lon="8.3438517"><ele>210.99999999999997</ele><time>2026-04-11T08:10:10.297Z</time></trkpt><trkpt lat="45.0007683" lon="8.3437783"><ele>211.0</ele><time>2026-04-11T08:10:11.297Z</time></trkpt><trkpt lat="45.000715" lon="8.3437133"><ele>210.0</ele><time>2026-04-11T08:10:12.297Z</time></trkpt><trkpt lat="45.00066" lon="8.343665"><ele>209.0</ele><time>2026-04-11T08:10:13.297Z</time></trkpt><trkpt lat="45.0005967" lon="8.343635"><ele>208.0</ele><time>2026-04-11T08:10:14.298Z</time></trkpt><trkpt lat="45.000525" lon="8.3436083"><ele>207.0</ele><time>2026-04-11T08:10:15.297Z</time></trkpt><trkpt lat="45.0004533" lon="8.3435867"><ele>206.0</ele><time>2026-04-11T08:10:16.298Z</time></trkpt><trkpt lat="45.0003733" lon="8.34357"><ele>205.0</ele><time>2026-04-11T08:10:17.297Z</time></trkpt><trkpt lat="45.0002933" lon="8.3435483"><ele>204.0</ele><time>2026-04-11T08:10:18.297Z</time></trkpt><trkpt lat="45.0002233" lon="8.3435333"><ele>204.0</ele><time>2026-04-11T08:10:19.297Z</time></trkpt><trkpt lat="45.000145" lon="8.3435133"><ele>204.0</ele><time>2026-04-11T08:10:20.297Z</time></trkpt><trkpt lat="45.0000533" lon="8.3434867"><ele>204.0</ele><time>2026-04-11T08:10:21.297Z</time></trkpt><trkpt lat="44.99996" lon="8.34346"><ele>204.0</ele><time>2026-04-11T08:10:22.298Z</time></trkpt><trkpt lat="44.9998717" lon="8.34344"><ele>204.0</ele><time>2026-04-11T08:10:23.297Z</time></trkpt><trkpt lat="44.9997867" lon="8.3434233"><ele>204.0</ele><time>2026-04-11T08:10:24.297Z</time></trkpt><trkpt lat="44.99971" lon="8.3434033"><ele>204.0</ele><time>2026-04-11T08:10:25.298Z</time></trkpt><trkpt lat="44.9996233" lon="8.3433783"><ele>204.0</ele><time>2026-04-11T08:10:26.298Z</time></trkpt><trkpt lat="44.9995267" lon="8.3433567"><ele>204.0</ele><time>2026-04-11T08:10:27.297Z</time></trkpt><trkpt lat="44.9994333" lon="8.3433367"><ele>204.0</ele><time>2026-04-11T08:10:28.297Z</time></trkpt><trkpt lat="44.9993367" lon="8.3433083"><ele>204.0</ele><time>2026-04-11T08:10:29.297Z</time></trkpt><trkpt lat="44.9992333" lon="8.3432817"><ele>204.6</ele><time>2026-04-11T08:10:30.298Z</time></trkpt><trkpt lat="44.9991283" lon="8.3432517"><ele>205.2</ele><time>2026-04-11T08:10:31.298Z</time></trkpt><trkpt lat="44.9990383" lon="8.3432283"><ele>205.79999999999998</ele><time>2026-04-11T08:10:32.298Z</time></trkpt><trkpt lat="44.9989483" lon="8.343205"><ele>206.39999999999998</ele><time>2026-04-11T08:10:33.298Z</time></trkpt><trkpt lat="44.99886" lon="8.3431783"><ele>207.0</ele><time>2026-04-11T08:10:34.298Z</time></trkpt><trkpt lat="44.9987783" lon="8.3431583"><ele>207.0</ele><time>2026-04-11T08:10:35.297Z</time></trkpt><trkpt lat="44.998695" lon="8.3431433"><ele>207.0</ele><time>2026-04-11T08:10:36.297Z</time></trkpt><trkpt lat="44.9985983" lon="8.3431233"><ele>207.0</ele><time>2026-04-11T08:10:37.297Z</time></trkpt><trkpt lat="44.9985083" lon="8.3431"><ele>207.0</ele><time>2026-04-11T08:10:38.297Z</time></trkpt><trkpt lat="44.998415" lon="8.34307"><ele>207.0</ele><time>2026-04-11T08:10:39.297Z</time></trkpt><trkpt lat="44.9983217" lon="8.343055"><ele>206.33333333333334</ele><time>2026-04-11T08:10:40.298Z</time></trkpt><trkpt lat="44.9982433" lon="8.3430417"><ele>205.66666666666669</ele><time>2026-04-11T08:10:41.297Z</time></trkpt><trkpt lat="44.9981683" lon="8.3430367"><ele>205.0</ele><time>2026-04-11T08:10:42.297Z</time></trkpt><trkpt lat="44.998095" lon="8.3430233"><ele>204.33333333333334</ele><time>2026-04-11T08:10:43.297Z</time></trkpt><trkpt lat="44.9979883" lon="8.3429983"><ele>203.66666666666669</ele><time>2026-04-11T08:10:45.297Z</time></trkpt><trkpt lat="44.99793" lon="8.34295"><ele>203.0</ele><time>2026-04-11T08:10:47.297Z</time></trkpt><trkpt lat="44.997925" lon="8.3428383"><ele>203.00000000000003</ele><time>2026-04-11T08:10:50.298Z</time></trkpt><trkpt lat="44.9979167" lon="8.3427333"><ele>203.0</ele><time>2026-04-11T08:10:53.298Z</time></trkpt><trkpt lat="44.9979167" lon="8.3425867"><ele>203.0</ele><time>2026-04-11T08:10:56.297Z</time></trkpt><trkpt lat="44.99791" lon="8.3424917"><ele>203.0</ele><time>2026-04-11T08:10:57.297Z</time></trkpt><trkpt lat="44.9979" lon="8.3423867"><ele>203.00000000000003</ele><time>2026-04-11T08:10:58.297Z</time></trkpt><trkpt lat="44.9978817" lon="8.342285"><ele>203.0</ele><time>2026-04-11T08:10:59.297Z</time></trkpt><trkpt lat="44.99787" lon="8.342175"><ele>201.4</ele><time>2026-04-11T08:11:00.297Z</time></trkpt><trkpt lat="44.9978617" lon="8.3420617"><ele>199.8</ele><time>2026-04-11T08:11:01.297Z</time></trkpt><trkpt lat="44.9978433" lon="8.3419367"><ele>198.2</ele><time>2026-04-11T08:11:02.297Z</time></trkpt><trkpt lat="44.9978283" lon="8.3418033"><ele>196.6</ele><time>2026-04-11T08:11:03.297Z</time></trkpt><trkpt lat="44.9978117" lon="8.341665"><ele>195.0</ele><time>2026-04-11T08:11:04.298Z</time></trkpt><trkpt lat="44.9977833" lon="8.34153"><ele>195.0</ele><time>2026-04-11T08:11:05.297Z</time></trkpt><trkpt lat="44.997755" lon="8.3413967"><ele>195.0</ele><time>2026-04-11T08:11:06.297Z</time></trkpt><trkpt lat="44.997725" lon="8.3412617"><ele>195.0</ele><time>2026-04-11T08:11:07.297Z</time></trkpt><trkpt lat="44.99769" lon="8.3411267"><ele>195.0</ele><time>2026-04-11T08:11:08.297Z</time></trkpt><trkpt lat="44.99766" lon="8.34099"><ele>195.0</ele><time>2026-04-11T08:11:09.297Z</time></trkpt><trkpt lat="44.997635" lon="8.3408483"><ele>192.75</ele><time>2026-04-11T08:11:10.298Z</time></trkpt><trkpt lat="44.9976283" lon="8.3407017"><ele>190.5</ele><time>2026-04-11T08:11:11.297Z</time></trkpt><trkpt lat="44.9976283" lon="8.3405617"><ele>188.25</ele><time>2026-04-11T08:11:12.297Z</time></trkpt><trkpt lat="44.9976567" lon="8.3402617"><ele>186.0</ele><time>2026-04-11T08:11:14.297Z</time></trkpt><trkpt lat="44.9976833" lon="8.3401067"><ele>185.20000000000002</ele><time>2026-04-11T08:11:15.298Z</time></trkpt><trkpt lat="44.9977133" lon="8.3399583"><ele>184.4</ele><time>2026-04-11T08:11:16.297Z</time></trkpt><trkpt lat="44.9977517" lon="8.3398183"><ele>183.6</ele><time>2026-04-11T08:11:17.297Z</time></trkpt><trkpt lat="44.9977867" lon="8.339685"><ele>182.8</ele><time>2026-04-11T08:11:18.297Z</time></trkpt><trkpt lat="44.9978167" lon="8.3395583"><ele>182.0</ele><time>2026-04-11T08:11:19.297Z</time></trkpt><trkpt lat="44.9978417" lon="8.3394417"><ele>181.8</ele><time>2026-04-11T08:11:20.297Z</time></trkpt><trkpt lat="44.9978767" lon="8.3393117"><ele>181.6</ele><time>2026-04-11T08:11:21.297Z</time></trkpt><trkpt lat="44.9979033" lon="8.33919"><ele>181.4</ele><time>2026-04-11T08:11:22.298Z</time></trkpt><trkpt lat="44.997925" lon="8.3390933"><ele>181.20000000000002</ele><time>2026-04-11T08:11:23.297Z</time></trkpt><trkpt lat="44.9979617" lon="8.33892"><ele>181.0</ele><time>2026-04-11T08:11:25.297Z</time></trkpt><trkpt lat="44.998" lon="8.3387633"><ele>181.4</ele><time>2026-04-11T08:11:27.297Z</time></trkpt><trkpt lat="44.998055" lon="8.3386517"><ele>181.8</ele><time>2026-04-11T08:11:29.297Z</time></trkpt><trkpt lat="44.9981633" lon="8.33867"><ele>182.20000000000002</ele><time>2026-04-11T08:11:31.298Z</time></trkpt><trkpt lat="44.9982383" lon="8.33871"><ele>182.60000000000002</ele><time>2026-04-11T08:11:32.297Z</time></trkpt><trkpt lat="44.998345" lon="8.3387783"><ele>183.0</ele><time>2026-04-11T08:11:33.297Z</time></trkpt><trkpt lat="44.998465" lon="8.3388617"><ele>182.75</ele><time>2026-04-11T08:11:34.297Z</time></trkpt><trkpt lat="44.9985917" lon="8.33894"><ele>182.5</ele><time>2026-04-11T08:11:35.298Z</time></trkpt><trkpt lat="44.9987017" lon="8.3390217"><ele>182.25</ele><time>2026-04-11T08:11:36.297Z</time></trkpt><trkpt lat="44.998805" lon="8.3390917"><ele>182.0</ele><time>2026-04-11T08:11:37.297Z</time></trkpt><trkpt lat="44.9989" lon="8.3391533"><ele>182.0</ele><time>2026-04-11T08:11:38.297Z</time></trkpt><trkpt lat="44.998995" lon="8.3392133"><ele>182.0</ele><time>2026-04-11T08:11:39.297Z</time></trkpt><trkpt lat="44.99909" lon="8.33926"><ele>182.0</ele><time>2026-04-11T08:11:40.297Z</time></trkpt><trkpt lat="44.9991783" lon="8.3393067"><ele>182.0</ele><time>2026-04-11T08:11:41.297Z</time></trkpt><trkpt lat="44.9992667" lon="8.3393633"><ele>182.0</ele><time>2026-04-11T08:11:42.297Z</time></trkpt><trkpt lat="44.9993583" lon="8.3394267"><ele>182.39999999999998</ele><time>2026-04-11T08:11:43.297Z</time></trkpt><trkpt lat="44.9994433" lon="8.3394783"><ele>182.79999999999998</ele><time>2026-04-11T08:11:44.297Z</time></trkpt><trkpt lat="44.9995317" lon="8.3395233"><ele>183.2</ele><time>2026-04-11T08:11:45.297Z</time></trkpt><trkpt lat="44.9996217" lon="8.3395667"><ele>183.6</ele><time>2026-04-11T08:11:46.297Z</time></trkpt><trkpt lat="44.999705" lon="8.3396083"><ele>184.0</ele><time>2026-04-11T08:11:47.297Z</time></trkpt><trkpt lat="44.9997967" lon="8.3396467"><ele>184.0</ele><time>2026-04-11T08:11:48.297Z</time></trkpt><trkpt lat="44.9998983" lon="8.3396933"><ele>184.0</ele><time>2026-04-11T08:11:49.298Z</time></trkpt><trkpt lat="45.0000067" lon="8.3397483"><ele>184.0</ele><time>2026-04-11T08:11:50.297Z</time></trkpt><trkpt lat="45.0001067" lon="8.33981"><ele>184.0</ele><time>2026-04-11T08:11:51.298Z</time></trkpt><trkpt lat="45.0001967" lon="8.3398767"><ele>184.0</ele><time>2026-04-11T08:11:52.298Z</time></trkpt><trkpt lat="45.0002833" lon="8.3399517"><ele>183.39999999999998</ele><time>2026-04-11T08:11:53.297Z</time></trkpt><trkpt lat="45.0003733" lon="8.340025"><ele>182.8</ele><time>2026-04-11T08:11:54.297Z</time></trkpt><trkpt lat="45.000475" lon="8.3400833"><ele>182.2</ele><time>2026-04-11T08:11:55.297Z</time></trkpt><trkpt lat="45.000575" lon="8.3401483"><ele>181.60000000000002</ele><time>2026-04-11T08:11:56.298Z</time></trkpt><trkpt lat="45.0006683" lon="8.3402067"><ele>181.0</ele><time>2026-04-11T08:11:57.297Z</time></trkpt><trkpt lat="45.000765" lon="8.3402667"><ele>182.0</ele><time>2026-04-11T08:11:58.297Z</time></trkpt><trkpt lat="45.0008667" lon="8.340315"><ele>183.0</ele><time>2026-04-11T08:11:59.298Z</time></trkpt><trkpt lat="45.0009633" lon="8.340365"><ele>184.0</ele><time>2026-04-11T08:12:00.297Z</time></trkpt><trkpt lat="45.001065" lon="8.3404117"><ele>185.0</ele><time>2026-04-11T08:12:01.297Z</time></trkpt><trkpt lat="45.0011667" lon="8.3404617"><ele>186.0</ele><time>2026-04-11T08:12:02.297Z</time></trkpt><trkpt lat="45.0012633" lon="8.34052"><ele>185.83333333333334</ele><time>2026-04-11T08:12:03.298Z</time></trkpt><trkpt lat="45.0013517" lon="8.34057"><ele>185.66666666666666</ele><time>2026-04-11T08:12:04.298Z</time></trkpt><trkpt lat="45.0014283" lon="8.3406033"><ele>185.5</ele><time>2026-04-11T08:12:05.298Z</time></trkpt><trkpt lat="45.0015033" lon="8.3406167"><ele>185.33333333333331</ele><time>2026-04-11T08:12:06.297Z</time></trkpt><trkpt lat="45.0016117" lon="8.3406483"><ele>185.16666666666666</ele><time>2026-04-11T08:12:08.297Z</time></trkpt><trkpt lat="45.001695" lon="8.3406583"><ele>185.0</ele><time>2026-04-11T08:12:10.297Z</time></trkpt><trkpt lat="45.0017633" lon="8.340665"><ele>185.8</ele><time>2026-04-11T08:12:12.297Z</time></trkpt><trkpt lat="45.0018483" lon="8.3406883"><ele>186.6</ele><time>2026-04-11T08:12:15.297Z</time></trkpt><trkpt lat="45.0019467" lon="8.34068"><ele>187.39999999999998</ele><time>2026-04-11T08:12:18.297Z</time></trkpt><trkpt lat="45.00199" lon="8.3405883"><ele>188.2</ele><time>2026-04-11T08:12:20.298Z</time></trkpt><trkpt lat="45.00205" lon="8.3404317"><ele>189.0</ele><time>2026-04-11T08:12:22.297Z</time></trkpt><trkpt lat="45.00208" lon="8.340335"><ele>189.6</ele><time>2026-04-11T08:12:23.298Z</time></trkpt><trkpt lat="45.0021167" lon="8.340225"><ele>190.2</ele><time>2026-04-11T08:12:24.298Z</time></trkpt><trkpt lat="45.00216" lon="8.3400983"><ele>190.79999999999998</ele><time>2026-04-11T08:12:25.297Z</time></trkpt><trkpt lat="45.0021983" lon="8.339945"><ele>191.39999999999998</ele><time>2026-04-11T08:12:26.297Z</time></trkpt><trkpt lat="45.0022367" lon="8.3397733"><ele>192.0</ele><time>2026-04-11T08:12:27.297Z</time></trkpt><trkpt lat="45.00228" lon="8.33961"><ele>194.0</ele><time>2026-04-11T08:12:28.298Z</time></trkpt><trkpt lat="45.00232" lon="8.3394383"><ele>196.0</ele><time>2026-04-11T08:12:29.297Z</time></trkpt><trkpt lat="45.002355" lon="8.3393"><ele>198.0</ele><time>2026-04-11T08:12:30.297Z</time></trkpt><trkpt lat="45.0023883" lon="8.3391717"><ele>200.0</ele><time>2026-04-11T08:12:31.297Z</time></trkpt><trkpt lat="45.0024267" lon="8.3390383"><ele>202.0</ele><time>2026-04-11T08:12:32.298Z</time></trkpt><trkpt lat="45.002475" lon="8.3389017"><ele>203.6</ele><time>2026-04-11T08:12:33.297Z</time></trkpt><trkpt lat="45.0025217" lon="8.3387533"><ele>205.2</ele><time>2026-04-11T08:12:34.298Z</time></trkpt><trkpt lat="45.0025717" lon="8.338615"><ele>206.8</ele><time>2026-04-11T08:12:35.297Z</time></trkpt><trkpt lat="45.0026217" lon="8.3384933"><ele>208.4</ele><time>2026-04-11T08:12:36.298Z</time></trkpt><trkpt lat="45.002675" lon="8.3383833"><ele>210.0</ele><time>2026-04-11T08:12:37.298Z</time></trkpt><trkpt lat="45.0027233" lon="8.3382683"><ele>210.0</ele><time>2026-04-11T08:12:38.297Z</time></trkpt><trkpt lat="45.0027683" lon="8.3381517"><ele>210.0</ele><time>2026-04-11T08:12:39.298Z</time></trkpt><trkpt lat="45.0028133" lon="8.3380367"><ele>210.0</ele><time>2026-04-11T08:12:40.297Z</time></trkpt><trkpt lat="45.0028583" lon="8.3379133"><ele>210.0</ele><time>2026-04-11T08:12:41.297Z</time></trkpt><trkpt lat="45.0028983" lon="8.3377967"><ele>210.0</ele><time>2026-04-11T08:12:42.298Z</time></trkpt><trkpt lat="45.002935" lon="8.3376783"><ele>211.33333333333334</ele><time>2026-04-11T08:12:43.297Z</time></trkpt><trkpt lat="45.0029733" lon="8.337575"><ele>212.66666666666669</ele><time>2026-04-11T08:12:44.297Z</time></trkpt><trkpt lat="45.00301" lon="8.337475"><ele>214.0</ele><time>2026-04-11T08:12:45.298Z</time></trkpt><trkpt lat="45.0030433" lon="8.3373667"><ele>215.33333333333334</ele><time>2026-04-11T08:12:46.298Z</time></trkpt><trkpt lat="45.0030783" lon="8.337255"><ele>216.66666666666669</ele><time>2026-04-11T08:12:47.298Z</time></trkpt><trkpt lat="45.0031067" lon="8.3371417"><ele>218.0</ele><time>2026-04-11T08:12:48.297Z</time></trkpt><trkpt lat="45.003135" lon="8.3370283"><ele>219.4</ele><time>2026-04-11T08:12:49.297Z</time></trkpt><trkpt lat="45.0031617" lon="8.3369067"><ele>220.8</ele><time>2026-04-11T08:12:50.297Z</time></trkpt><trkpt lat="45.00318" lon="8.3367817"><ele>222.2</ele><time>2026-04-11T08:12:51.297Z</time></trkpt><trkpt lat="45.0031917" lon="8.3366717"><ele>223.6</ele><time>2026-04-11T08:12:52.297Z</time></trkpt><trkpt lat="45.0032017" lon="8.3365817"><ele>225.0</ele><time>2026-04-11T08:12:53.297Z</time></trkpt><trkpt lat="45.0032267" lon="8.336405"><ele>225.2</ele><time>2026-04-11T08:12:55.298Z</time></trkpt><trkpt lat="45.003235" lon="8.3362633"><ele>225.4</ele><time>2026-04-11T08:12:57.297Z</time></trkpt><trkpt lat="45.0032333" lon="8.3361483"><ele>225.60000000000002</ele><time>2026-04-11T08:12:59.297Z</time></trkpt><trkpt lat="45.0032617" lon="8.33604"><ele>225.8</ele><time>2026-04-11T08:13:02.297Z</time></trkpt><trkpt lat="45.0033517" lon="8.33604"><ele>226.0</ele><time>2026-04-11T08:13:05.297Z</time></trkpt><trkpt lat="45.0034483" lon="8.3360567"><ele>226.16666666666666</ele><time>2026-04-11T08:13:07.297Z</time></trkpt><trkpt lat="45.0035467" lon="8.336085"><ele>226.33333333333331</ele><time>2026-04-11T08:13:09.297Z</time></trkpt><trkpt lat="45.003655" lon="8.3361167"><ele>226.5</ele><time>2026-04-11T08:13:11.296Z</time></trkpt><trkpt lat="45.0037383" lon="8.3361183"><ele>226.66666666666669</ele><time>2026-04-11T08:13:13.297Z</time></trkpt><trkpt lat="45.0037833" lon="8.3360533"><ele>226.83333333333334</ele><time>2026-04-11T08:13:15.296Z</time></trkpt><trkpt lat="45.0037933" lon="8.335945"><ele>227.0</ele><time>2026-04-11T08:13:17.296Z</time></trkpt><trkpt lat="45.0038133" lon="8.3357933"><ele>227.0</ele><time>2026-04-11T08:13:19.297Z</time></trkpt><trkpt lat="45.0038233" lon="8.33566"><ele>227.0</ele><time>2026-04-11T08:13:21.297Z</time></trkpt><trkpt lat="45.0038367" lon="8.3355267"><ele>227.0</ele><time>2026-04-11T08:13:23.296Z</time></trkpt><trkpt lat="45.0038583" lon="8.3353783"><ele>227.0</ele><time>2026-04-11T08:13:25.296Z</time></trkpt><trkpt lat="45.0038817" lon="8.3352317"><ele>227.0</ele><time>2026-04-11T08:13:27.296Z</time></trkpt><trkpt lat="45.0039083" lon="8.3350717"><ele>226.00000000000003</ele><time>2026-04-11T08:13:29.296Z</time></trkpt><trkpt lat="45.00394" lon="8.3348983"><ele>225.0</ele><time>2026-04-11T08:13:31.296Z</time></trkpt><trkpt lat="45.0039667" lon="8.3347983"><ele>224.0</ele><time>2026-04-11T08:13:32.296Z</time></trkpt><trkpt lat="45.004" lon="8.3347"><ele>223.0</ele><time>2026-04-11T08:13:33.296Z</time></trkpt><trkpt lat="45.0040417" lon="8.334615"><ele>222.00000000000003</ele><time>2026-04-11T08:13:34.296Z</time></trkpt><trkpt lat="45.0040917" lon="8.33454"><ele>221.0</ele><time>2026-04-11T08:13:35.297Z</time></trkpt><trkpt lat="45.00415" lon="8.3344733"><ele>220.50000000000003</ele><time>2026-04-11T08:13:36.296Z</time></trkpt><trkpt lat="45.0042083" lon="8.3344033"><ele>220.0</ele><time>2026-04-11T08:13:37.296Z</time></trkpt><trkpt lat="45.0042683" lon="8.3343317"><ele>219.5</ele><time>2026-04-11T08:13:38.297Z</time></trkpt><trkpt lat="45.0043267" lon="8.3342617"><ele>219.0</ele><time>2026-04-11T08:13:39.297Z</time></trkpt><trkpt lat="45.0043833" lon="8.3342033"><ele>218.50000000000003</ele><time>2026-04-11T08:13:40.297Z</time></trkpt><trkpt lat="45.0044367" lon="8.33414"><ele>218.0</ele><time>2026-04-11T08:13:41.296Z</time></trkpt><trkpt lat="45.0045683" lon="8.333975"><ele>218.00000000000003</ele><time>2026-04-11T08:13:44.296Z</time></trkpt><trkpt lat="45.0046217" lon="8.3339167"><ele>218.0</ele><time>2026-04-11T08:13:45.297Z</time></trkpt><trkpt lat="45.0046783" lon="8.3338683"><ele>218.0</ele><time>2026-04-11T08:13:46.297Z</time></trkpt><trkpt lat="45.0047267" lon="8.33381"><ele>218.0</ele><time>2026-04-11T08:13:47.296Z</time></trkpt><trkpt lat="45.0048133" lon="8.3336833"><ele>218.00000000000003</ele><time>2026-04-11T08:13:49.296Z</time></trkpt><trkpt lat="45.004905" lon="8.3335667"><ele>218.0</ele><time>2026-04-11T08:13:51.296Z</time></trkpt><trkpt lat="45.0049583" lon="8.3335117"><ele>217.28571428571428</ele><time>2026-04-11T08:13:52.296Z</time></trkpt><trkpt lat="45.005015" lon="8.3334567"><ele>216.57142857142858</ele><time>2026-04-11T08:13:53.297Z</time></trkpt><trkpt lat="45.0050767" lon="8.3334"><ele>215.85714285714283</ele><time>2026-04-11T08:13:54.296Z</time></trkpt><trkpt lat="45.005135" lon="8.3333467"><ele>215.14285714285714</ele><time>2026-04-11T08:13:55.296Z</time></trkpt><trkpt lat="45.0052017" lon="8.3332967"><ele>214.42857142857142</ele><time>2026-04-11T08:13:56.296Z</time></trkpt><trkpt lat="45.0052683" lon="8.3332517"><ele>213.7142857142857</ele><time>2026-04-11T08:13:57.296Z</time></trkpt><trkpt lat="45.0053333" lon="8.3331917"><ele>213.0</ele><time>2026-04-11T08:13:58.297Z</time></trkpt><trkpt lat="45.0053967" lon="8.3331433"><ele>212.99999999999997</ele><time>2026-04-11T08:13:59.296Z</time></trkpt><trkpt lat="45.0054583" lon="8.3330967"><ele>213.0</ele><time>2026-04-11T08:14:00.296Z</time></trkpt><trkpt lat="45.0055267" lon="8.3330533"><ele>213.0</ele><time>2026-04-11T08:14:01.297Z</time></trkpt><trkpt lat="45.0055917" lon="8.333005"><ele>213.0</ele><time>2026-04-11T08:14:02.296Z</time></trkpt><trkpt lat="45.005665" lon="8.3329583"><ele>213.0</ele><time>2026-04-11T08:14:03.297Z</time></trkpt><trkpt lat="45.0057383" lon="8.3329083"><ele>212.99999999999997</ele><time>2026-04-11T08:14:04.296Z</time></trkpt><trkpt lat="45.0057967" lon="8.3328633"><ele>213.0</ele><time>2026-04-11T08:14:05.296Z</time></trkpt><trkpt lat="45.0058517" lon="8.3328183"><ele>211.0</ele><time>2026-04-11T08:14:06.296Z</time></trkpt><trkpt lat="45.00595" lon="8.3327433"><ele>209.0</ele><time>2026-04-11T08:14:08.296Z</time></trkpt><trkpt lat="45.006055" lon="8.33269"><ele>207.0</ele><time>2026-04-11T08:14:10.297Z</time></trkpt><trkpt lat="45.0062083" lon="8.332555"><ele>205.0</ele><time>2026-04-11T08:14:13.296Z</time></trkpt><trkpt lat="45.0062783" lon="8.33253"><ele>204.99999999999997</ele><time>2026-04-11T08:14:14.297Z</time></trkpt><trkpt lat="45.00635" lon="8.3325117"><ele>205.0</ele><time>2026-04-11T08:14:15.296Z</time></trkpt><trkpt lat="45.0064167" lon="8.3324983"><ele>205.0</ele><time>2026-04-11T08:14:16.296Z</time></trkpt><trkpt lat="45.0064817" lon="8.3324983"><ele>205.0</ele><time>2026-04-11T08:14:17.296Z</time></trkpt><trkpt lat="45.0065483" lon="8.3325017"><ele>204.99999999999997</ele><time>2026-04-11T08:14:18.297Z</time></trkpt><trkpt lat="45.006615" lon="8.3325117"><ele>205.0</ele><time>2026-04-11T08:14:19.297Z</time></trkpt><trkpt lat="45.0067367" lon="8.3324967"><ele>205.2857142857143</ele><time>2026-04-11T08:14:21.296Z</time></trkpt><trkpt lat="45.0068017" lon="8.3324883"><ele>205.57142857142856</ele><time>2026-04-11T08:14:22.296Z</time></trkpt><trkpt lat="45.00687" lon="8.33248"><ele>205.85714285714286</ele><time>2026-04-11T08:14:23.296Z</time></trkpt><trkpt lat="45.0069383" lon="8.332475"><ele>206.14285714285717</ele><time>2026-04-11T08:14:24.296Z</time></trkpt><trkpt lat="45.0070117" lon="8.3324667"><ele>206.42857142857144</ele><time>2026-04-11T08:14:25.297Z</time></trkpt><trkpt lat="45.0070867" lon="8.332465"><ele>206.71428571428572</ele><time>2026-04-11T08:14:26.296Z</time></trkpt><trkpt lat="45.007155" lon="8.332445"><ele>207.0</ele><time>2026-04-11T08:14:27.296Z</time></trkpt><trkpt lat="45.0072283" lon="8.3324283"><ele>207.0</ele><time>2026-04-11T08:14:28.296Z</time></trkpt><trkpt lat="45.0073083" lon="8.332405"><ele>207.0</ele><time>2026-04-11T08:14:29.296Z</time></trkpt><trkpt lat="45.0073833" lon="8.332375"><ele>207.0</ele><time>2026-04-11T08:14:30.297Z</time></trkpt><trkpt lat="45.0074583" lon="8.3323333"><ele>207.0</ele><time>2026-04-11T08:14:31.296Z</time></trkpt><trkpt lat="45.00752" lon="8.3322817"><ele>207.0</ele><time>2026-04-11T08:14:32.296Z</time></trkpt><trkpt lat="45.007635" lon="8.3322067"><ele>207.0</ele><time>2026-04-11T08:14:34.296Z</time></trkpt><trkpt lat="45.007705" lon="8.3321867"><ele>205.16666666666666</ele><time>2026-04-11T08:14:35.297Z</time></trkpt><trkpt lat="45.0077733" lon="8.3321767"><ele>203.33333333333331</ele><time>2026-04-11T08:14:36.297Z</time></trkpt><trkpt lat="45.0078783" lon="8.3321617"><ele>201.5</ele><time>2026-04-11T08:14:38.296Z</time></trkpt><trkpt lat="45.0079833" lon="8.3321217"><ele>199.66666666666666</ele><time>2026-04-11T08:14:40.296Z</time></trkpt><trkpt lat="45.0080433" lon="8.3320667"><ele>197.83333333333331</ele><time>2026-04-11T08:14:41.297Z</time></trkpt><trkpt lat="45.0081017" lon="8.3319983"><ele>196.0</ele><time>2026-04-11T08:14:42.296Z</time></trkpt><trkpt lat="45.008145" lon="8.3319183"><ele>196.0</ele><time>2026-04-11T08:14:43.296Z</time></trkpt><trkpt lat="45.008185" lon="8.3318483"><ele>196.0</ele><time>2026-04-11T08:14:44.296Z</time></trkpt><trkpt lat="45.0082567" lon="8.33171"><ele>196.0</ele><time>2026-04-11T08:14:46.296Z</time></trkpt><trkpt lat="45.0083817" lon="8.331495"><ele>196.0</ele><time>2026-04-11T08:14:49.297Z</time></trkpt><trkpt lat="45.008425" lon="8.3314233"><ele>196.0</ele><time>2026-04-11T08:14:50.296Z</time></trkpt><trkpt lat="45.0084733" lon="8.3313633"><ele>194.57142857142858</ele><time>2026-04-11T08:14:51.296Z</time></trkpt><trkpt lat="45.0085283" lon="8.3313033"><ele>193.14285714285714</ele><time>2026-04-11T08:14:52.296Z</time></trkpt><trkpt lat="45.0085817" lon="8.3312283"><ele>191.71428571428572</ele><time>2026-04-11T08:14:53.297Z</time></trkpt><trkpt lat="45.0086333" lon="8.3311433"><ele>190.28571428571428</ele><time>2026-04-11T08:14:54.296Z</time></trkpt><trkpt lat="45.0086833" lon="8.3310683"><ele>188.85714285714286</ele><time>2026-04-11T08:14:55.296Z</time></trkpt><trkpt lat="45.0087367" lon="8.3309933"><ele>187.42857142857144</ele><time>2026-04-11T08:14:56.296Z</time></trkpt><trkpt lat="45.0087867" lon="8.3309167"><ele>186.0</ele><time>2026-04-11T08:14:57.297Z</time></trkpt><trkpt lat="45.0088417" lon="8.3308383"><ele>186.0</ele><time>2026-04-11T08:14:58.296Z</time></trkpt><trkpt lat="45.00889" lon="8.33077"><ele>186.0</ele><time>2026-04-11T08:14:59.296Z</time></trkpt><trkpt lat="45.008945" lon="8.3307017"><ele>186.0</ele><time>2026-04-11T08:15:00.296Z</time></trkpt><trkpt lat="45.00904" lon="8.3305667"><ele>186.0</ele><time>2026-04-11T08:15:02.296Z</time></trkpt><trkpt lat="45.0090933" lon="8.3304933"><ele>186.0</ele><time>2026-04-11T08:15:03.296Z</time></trkpt><trkpt lat="45.0091583" lon="8.3304167"><ele>186.0</ele><time>2026-04-11T08:15:04.296Z</time></trkpt><trkpt lat="45.0092267" lon="8.33034"><ele>185.33333333333334</ele><time>2026-04-11T08:15:05.296Z</time></trkpt><trkpt lat="45.0092983" lon="8.3302583"><ele>184.66666666666666</ele><time>2026-04-11T08:15:06.296Z</time></trkpt><trkpt lat="45.0093733" lon="8.33019"><ele>184.0</ele><time>2026-04-11T08:15:07.296Z</time></trkpt><trkpt lat="45.0094383" lon="8.3301283"><ele>183.33333333333331</ele><time>2026-04-11T08:15:08.296Z</time></trkpt><trkpt lat="45.0095017" lon="8.3300583"><ele>182.66666666666666</ele><time>2026-04-11T08:15:09.296Z</time></trkpt><trkpt lat="45.0095633" lon="8.3299817"><ele>182.0</ele><time>2026-04-11T08:15:10.296Z</time></trkpt><trkpt lat="45.0096217" lon="8.32991"><ele>182.0</ele><time>2026-04-11T08:15:11.296Z</time></trkpt><trkpt lat="45.0096817" lon="8.3298433"><ele>182.0</ele><time>2026-04-11T08:15:12.296Z</time></trkpt><trkpt lat="45.0097417" lon="8.3297767"><ele>182.0</ele><time>2026-04-11T08:15:13.296Z</time></trkpt><trkpt lat="45.0097967" lon="8.3297017"><ele>182.0</ele><time>2026-04-11T08:15:14.296Z</time></trkpt><trkpt lat="45.0098483" lon="8.3296367"><ele>182.0</ele><time>2026-04-11T08:15:15.296Z</time></trkpt><trkpt lat="45.0099367" lon="8.3295367"><ele>182.0</ele><time>2026-04-11T08:15:17.297Z</time></trkpt><trkpt lat="45.0100267" lon="8.3294617"><ele>182.5</ele><time>2026-04-11T08:15:19.296Z</time></trkpt><trkpt lat="45.01011" lon="8.32941"><ele>183.0</ele><time>2026-04-11T08:15:21.296Z</time></trkpt><trkpt lat="45.0101767" lon="8.329375"><ele>183.5</ele><time>2026-04-11T08:15:23.297Z</time></trkpt><trkpt lat="45.0102567" lon="8.3293183"><ele>184.0</ele><time>2026-04-11T08:15:26.297Z</time></trkpt><trkpt lat="45.0102867" lon="8.329225"><ele>184.5</ele><time>2026-04-11T08:15:28.297Z</time></trkpt><trkpt lat="45.010255" lon="8.329115"><ele>185.0</ele><time>2026-04-11T08:15:30.296Z</time></trkpt><trkpt lat="45.0102133" lon="8.32898"><ele>184.66666666666666</ele><time>2026-04-11T08:15:32.296Z</time></trkpt><trkpt lat="45.0101683" lon="8.3288183"><ele>184.33333333333331</ele><time>2026-04-11T08:15:34.296Z</time></trkpt><trkpt lat="45.010145" lon="8.328725"><ele>184.0</ele><time>2026-04-11T08:15:35.296Z</time></trkpt><trkpt lat="45.0101267" lon="8.3286133"><ele>183.66666666666666</ele><time>2026-04-11T08:15:36.296Z</time></trkpt><trkpt lat="45.0101017" lon="8.3284933"><ele>183.33333333333334</ele><time>2026-04-11T08:15:37.296Z</time></trkpt><trkpt lat="45.0100717" lon="8.3283817"><ele>183.0</ele><time>2026-04-11T08:15:38.297Z</time></trkpt><trkpt lat="45.01004" lon="8.3282717"><ele>183.0</ele><time>2026-04-11T08:15:39.296Z</time></trkpt><trkpt lat="45.0100083" lon="8.3281483"><ele>183.0</ele><time>2026-04-11T08:15:40.296Z</time></trkpt><trkpt lat="45.0099733" lon="8.32803"><ele>183.0</ele><time>2026-04-11T08:15:41.296Z</time></trkpt><trkpt lat="45.0099367" lon="8.3278983"><ele>183.0</ele><time>2026-04-11T08:15:42.296Z</time></trkpt><trkpt lat="45.0098933" lon="8.3277617"><ele>183.0</ele><time>2026-04-11T08:15:43.296Z</time></trkpt><trkpt lat="45.0098533" lon="8.3276067"><ele>182.75</ele><time>2026-04-11T08:15:44.296Z</time></trkpt><trkpt lat="45.0098133" lon="8.3274417"><ele>182.5</ele><time>2026-04-11T08:15:45.296Z</time></trkpt><trkpt lat="45.009775" lon="8.3272783"><ele>182.25</ele><time>2026-04-11T08:15:46.296Z</time></trkpt><trkpt lat="45.0097417" lon="8.327115"><ele>182.0</ele><time>2026-04-11T08:15:47.296Z</time></trkpt><trkpt lat="45.0097033" lon="8.326955"><ele>182.0</ele><time>2026-04-11T08:15:48.296Z</time></trkpt><trkpt lat="45.0096617" lon="8.3268117"><ele>182.0</ele><time>2026-04-11T08:15:49.296Z</time></trkpt><trkpt lat="45.00962" lon="8.3266733"><ele>182.0</ele><time>2026-04-11T08:15:50.297Z</time></trkpt><trkpt lat="45.0095817" lon="8.32653"><ele>182.0</ele><time>2026-04-11T08:15:51.296Z</time></trkpt><trkpt lat="45.0095333" lon="8.3263717"><ele>182.0</ele><time>2026-04-11T08:15:52.297Z</time></trkpt><trkpt lat="45.0094833" lon="8.3262183"><ele>183.25</ele><time>2026-04-11T08:15:53.296Z</time></trkpt><trkpt lat="45.0094233" lon="8.3260783"><ele>184.5</ele><time>2026-04-11T08:15:54.296Z</time></trkpt><trkpt lat="45.0093467" lon="8.3259567"><ele>185.75</ele><time>2026-04-11T08:15:55.296Z</time></trkpt><trkpt lat="45.009255" lon="8.3258567"><ele>187.0</ele><time>2026-04-11T08:15:56.297Z</time></trkpt><trkpt lat="45.0091383" lon="8.3258"><ele>187.0</ele><time>2026-04-11T08:15:57.296Z</time></trkpt><trkpt lat="45.0090033" lon="8.32576"><ele>187.0</ele><time>2026-04-11T08:15:58.297Z</time></trkpt><trkpt lat="45.00889" lon="8.3257517"><ele>187.0</ele><time>2026-04-11T08:15:59.296Z</time></trkpt><trkpt lat="45.0087633" lon="8.3257317"><ele>187.0</ele><time>2026-04-11T08:16:00.297Z</time></trkpt><trkpt lat="45.0086333" lon="8.3257083"><ele>187.0</ele><time>2026-04-11T08:16:01.296Z</time></trkpt><trkpt lat="45.0085" lon="8.32568"><ele>187.0</ele><time>2026-04-11T08:16:02.296Z</time></trkpt><trkpt lat="45.0083717" lon="8.3256417"><ele>187.0</ele><time>2026-04-11T08:16:03.296Z</time></trkpt><trkpt lat="45.00825" lon="8.3256117"><ele>187.0</ele><time>2026-04-11T08:16:04.297Z</time></trkpt><trkpt lat="45.00813" lon="8.3255783"><ele>188.5</ele><time>2026-04-11T08:16:05.296Z</time></trkpt><trkpt lat="45.008015" lon="8.3255367"><ele>190.0</ele><time>2026-04-11T08:16:06.296Z</time></trkpt><trkpt lat="45.0078983" lon="8.3255017"><ele>191.5</ele><time>2026-04-11T08:16:07.296Z</time></trkpt><trkpt lat="45.0077717" lon="8.3254567"><ele>193.0</ele><time>2026-04-11T08:16:08.296Z</time></trkpt><trkpt lat="45.007645" lon="8.325405"><ele>193.0</ele><time>2026-04-11T08:16:09.297Z</time></trkpt><trkpt lat="45.00753" lon="8.3253433"><ele>193.0</ele><time>2026-04-11T08:16:10.297Z</time></trkpt><trkpt lat="45.007415" lon="8.325275"><ele>193.0</ele><time>2026-04-11T08:16:11.296Z</time></trkpt><trkpt lat="45.007305" lon="8.325195"><ele>193.0</ele><time>2026-04-11T08:16:12.296Z</time></trkpt><trkpt lat="45.0071933" lon="8.3251183"><ele>192.75</ele><time>2026-04-11T08:16:13.296Z</time></trkpt><trkpt lat="45.00708" lon="8.325025"><ele>192.5</ele><time>2026-04-11T08:16:14.296Z</time></trkpt><trkpt lat="45.0069783" lon="8.3249217"><ele>192.25</ele><time>2026-04-11T08:16:15.296Z</time></trkpt><trkpt lat="45.006885" lon="8.324805"><ele>192.0</ele><time>2026-04-11T08:16:16.296Z</time></trkpt><trkpt lat="45.006805" lon="8.3246867"><ele>192.33333333333334</ele><time>2026-04-11T08:16:17.297Z</time></trkpt><trkpt lat="45.0067383" lon="8.3245933"><ele>192.66666666666669</ele><time>2026-04-11T08:16:18.297Z</time></trkpt><trkpt lat="45.006685" lon="8.3245167"><ele>193.0</ele><time>2026-04-11T08:16:19.296Z</time></trkpt><trkpt lat="45.00664" lon="8.32445"><ele>193.33333333333334</ele><time>2026-04-11T08:16:20.296Z</time></trkpt><trkpt lat="45.006565" lon="8.3243417"><ele>193.66666666666669</ele><time>2026-04-11T08:16:22.296Z</time></trkpt><trkpt lat="45.0065167" lon="8.3242483"><ele>194.0</ele><time>2026-04-11T08:16:24.296Z</time></trkpt><trkpt lat="45.00648" lon="8.32417"><ele>194.00000000000003</ele><time>2026-04-11T08:16:26.296Z</time></trkpt><trkpt lat="45.0065017" lon="8.32408"><ele>194.0</ele><time>2026-04-11T08:16:28.296Z</time></trkpt><trkpt lat="45.0065967" lon="8.3240033"><ele>194.0</ele><time>2026-04-11T08:16:31.297Z</time></trkpt><trkpt lat="45.0067017" lon="8.32405"><ele>194.0</ele><time>2026-04-11T08:16:33.296Z</time></trkpt><trkpt lat="45.0067633" lon="8.3241017"><ele>194.00000000000003</ele><time>2026-04-11T08:16:34.296Z</time></trkpt><trkpt lat="45.0068183" lon="8.3241617"><ele>194.0</ele><time>2026-04-11T08:16:35.296Z</time></trkpt><trkpt lat="45.00688" lon="8.3241967"><ele>194.66666666666669</ele><time>2026-04-11T08:16:36.296Z</time></trkpt><trkpt lat="45.0069533" lon="8.324205"><ele>195.33333333333334</ele><time>2026-04-11T08:16:37.296Z</time></trkpt><trkpt lat="45.0070267" lon="8.32419"><ele>196.0</ele><time>2026-04-11T08:16:38.296Z</time></trkpt><trkpt lat="45.0071" lon="8.3241633"><ele>196.66666666666669</ele><time>2026-04-11T08:16:39.296Z</time></trkpt><trkpt lat="45.0071683" lon="8.32414"><ele>197.33333333333334</ele><time>2026-04-11T08:16:40.296Z</time></trkpt><trkpt lat="45.0072517" lon="8.324125"><ele>198.0</ele><time>2026-04-11T08:16:41.296Z</time></trkpt><trkpt lat="45.00733" lon="8.3241"><ele>198.0</ele><time>2026-04-11T08:16:42.296Z</time></trkpt><trkpt lat="45.0074083" lon="8.3240667"><ele>198.0</ele><time>2026-04-11T08:16:43.297Z</time></trkpt><trkpt lat="45.0074883" lon="8.324035"><ele>198.0</ele><time>2026-04-11T08:16:44.296Z</time></trkpt><trkpt lat="45.0075633" lon="8.3239883"><ele>198.0</ele><time>2026-04-11T08:16:45.297Z</time></trkpt><trkpt lat="45.007625" lon="8.3239233"><ele>198.0</ele><time>2026-04-11T08:16:46.297Z</time></trkpt><trkpt lat="45.0076967" lon="8.3238667"><ele>198.0</ele><time>2026-04-11T08:16:47.297Z</time></trkpt><trkpt lat="45.0077683" lon="8.323795"><ele>199.0</ele><time>2026-04-11T08:16:48.296Z</time></trkpt><trkpt lat="45.007835" lon="8.3237233"><ele>200.0</ele><time>2026-04-11T08:16:49.296Z</time></trkpt><trkpt lat="45.0078933" lon="8.3236467"><ele>201.0</ele><time>2026-04-11T08:16:50.296Z</time></trkpt><trkpt lat="45.0079583" lon="8.323575"><ele>202.0</ele><time>2026-04-11T08:16:51.296Z</time></trkpt><trkpt lat="45.0080233" lon="8.3235067"><ele>203.0</ele><time>2026-04-11T08:16:52.296Z</time></trkpt><trkpt lat="45.0080967" lon="8.32344"><ele>204.0</ele><time>2026-04-11T08:16:53.296Z</time></trkpt><trkpt lat="45.0081633" lon="8.32337"><ele>204.0</ele><time>2026-04-11T08:16:54.296Z</time></trkpt><trkpt lat="45.0082333" lon="8.3232983"><ele>204.0</ele><time>2026-04-11T08:16:55.297Z</time></trkpt><trkpt lat="45.0083033" lon="8.323225"><ele>204.0</ele><time>2026-04-11T08:16:56.296Z</time></trkpt><trkpt lat="45.0083667" lon="8.323165"><ele>204.0</ele><time>2026-04-11T08:16:57.296Z</time></trkpt><trkpt lat="45.0084467" lon="8.323115"><ele>204.0</ele><time>2026-04-11T08:16:58.297Z</time></trkpt><trkpt lat="45.0085433" lon="8.3230817"><ele>204.0</ele><time>2026-04-11T08:16:59.296Z</time></trkpt><trkpt lat="45.0086417" lon="8.3230567"><ele>204.39999999999998</ele><time>2026-04-11T08:17:00.296Z</time></trkpt><trkpt lat="45.0087317" lon="8.3230517"><ele>204.8</ele><time>2026-04-11T08:17:01.296Z</time></trkpt><trkpt lat="45.0088133" lon="8.323035"><ele>205.2</ele><time>2026-04-11T08:17:02.296Z</time></trkpt><trkpt lat="45.0088967" lon="8.3230117"><ele>205.60000000000002</ele><time>2026-04-11T08:17:03.296Z</time></trkpt><trkpt lat="45.0089717" lon="8.3229967"><ele>206.0</ele><time>2026-04-11T08:17:04.297Z</time></trkpt><trkpt lat="45.0090967" lon="8.3229583"><ele>206.16666666666669</ele><time>2026-04-11T08:17:06.296Z</time></trkpt><trkpt lat="45.0091617" lon="8.3229417"><ele>206.33333333333334</ele><time>2026-04-11T08:17:07.296Z</time></trkpt><trkpt lat="45.0092683" lon="8.3229217"><ele>206.5</ele><time>2026-04-11T08:17:09.297Z</time></trkpt><trkpt lat="45.0093617" lon="8.3229067"><ele>206.66666666666669</ele><time>2026-04-11T08:17:11.297Z</time></trkpt><trkpt lat="45.009425" lon="8.3228883"><ele>206.83333333333334</ele><time>2026-04-11T08:17:13.296Z</time></trkpt><trkpt lat="45.009445" lon="8.3227733"><ele>207.0</ele><time>2026-04-11T08:17:16.297Z</time></trkpt><trkpt lat="45.009375" lon="8.3226083"><ele>207.0</ele><time>2026-04-11T08:17:18.296Z</time></trkpt><trkpt lat="45.00933" lon="8.3225083"><ele>207.0</ele><time>2026-04-11T08:17:19.296Z</time></trkpt><trkpt lat="45.0093" lon="8.3224117"><ele>207.0</ele><time>2026-04-11T08:17:20.296Z</time></trkpt><trkpt lat="45.00926" lon="8.322295"><ele>207.0</ele><time>2026-04-11T08:17:21.297Z</time></trkpt><trkpt lat="45.0092333" lon="8.3221767"><ele>207.0</ele><time>2026-04-11T08:17:22.296Z</time></trkpt><trkpt lat="45.0092067" lon="8.32205"><ele>207.0</ele><time>2026-04-11T08:17:23.297Z</time></trkpt><trkpt lat="45.009175" lon="8.3219133"><ele>205.8</ele><time>2026-04-11T08:17:24.297Z</time></trkpt><trkpt lat="45.0091433" lon="8.32178"><ele>204.6</ele><time>2026-04-11T08:17:25.296Z</time></trkpt><trkpt lat="45.0091133" lon="8.3216517"><ele>203.4</ele><time>2026-04-11T08:17:26.297Z</time></trkpt><trkpt lat="45.0090817" lon="8.3215133"><ele>202.20000000000002</ele><time>2026-04-11T08:17:27.297Z</time></trkpt><trkpt lat="45.00905" lon="8.3213833"><ele>201.0</ele><time>2026-04-11T08:17:28.296Z</time></trkpt><trkpt lat="45.00901" lon="8.3212433"><ele>201.0</ele><time>2026-04-11T08:17:29.296Z</time></trkpt><trkpt lat="45.00897" lon="8.32111"><ele>201.0</ele><time>2026-04-11T08:17:30.297Z</time></trkpt><trkpt lat="45.0089267" lon="8.3209767"><ele>201.0</ele><time>2026-04-11T08:17:31.296Z</time></trkpt><trkpt lat="45.008875" lon="8.3208333"><ele>201.0</ele><time>2026-04-11T08:17:32.296Z</time></trkpt><trkpt lat="45.0088133" lon="8.3207033"><ele>201.0</ele><time>2026-04-11T08:17:33.296Z</time></trkpt><trkpt lat="45.0087467" lon="8.3205833"><ele>202.20000000000002</ele><time>2026-04-11T08:17:34.296Z</time></trkpt><trkpt lat="45.0086617" lon="8.32049"><ele>203.4</ele><time>2026-04-11T08:17:35.296Z</time></trkpt><trkpt lat="45.0085817" lon="8.3204117"><ele>204.6</ele><time>2026-04-11T08:17:36.296Z</time></trkpt><trkpt lat="45.0085017" lon="8.3203167"><ele>205.8</ele><time>2026-04-11T08:17:37.296Z</time></trkpt><trkpt lat="45.0084283" lon="8.3202333"><ele>207.0</ele><time>2026-04-11T08:17:38.296Z</time></trkpt><trkpt lat="45.0083617" lon="8.3201683"><ele>205.5</ele><time>2026-04-11T08:17:39.296Z</time></trkpt><trkpt lat="45.008305" lon="8.3200967"><ele>204.0</ele><time>2026-04-11T08:17:40.296Z</time></trkpt><trkpt lat="45.0082533" lon="8.320025"><ele>202.5</ele><time>2026-04-11T08:17:41.296Z</time></trkpt><trkpt lat="45.0082033" lon="8.319955"><ele>201.0</ele><time>2026-04-11T08:17:42.296Z</time></trkpt><trkpt lat="45.00816" lon="8.31989"><ele>199.5</ele><time>2026-04-11T08:17:43.296Z</time></trkpt><trkpt lat="45.0080917" lon="8.3197633"><ele>198.0</ele><time>2026-04-11T08:17:45.296Z</time></trkpt><trkpt lat="45.0080567" lon="8.3196"><ele>198.0</ele><time>2026-04-11T08:17:47.296Z</time></trkpt><trkpt lat="45.0080583" lon="8.3195083"><ele>198.0</ele><time>2026-04-11T08:17:48.296Z</time></trkpt><trkpt lat="45.008065" lon="8.319415"><ele>198.0</ele><time>2026-04-11T08:17:49.296Z</time></trkpt><trkpt lat="45.0080817" lon="8.319325"><ele>198.0</ele><time>2026-04-11T08:17:50.296Z</time></trkpt><trkpt lat="45.0080967" lon="8.3192267"><ele>198.0</ele><time>2026-04-11T08:17:51.296Z</time></trkpt><trkpt lat="45.008115" lon="8.3191283"><ele>198.0</ele><time>2026-04-11T08:17:52.297Z</time></trkpt><trkpt lat="45.0081333" lon="8.3190333"><ele>198.0</ele><time>2026-04-11T08:17:53.296Z</time></trkpt><trkpt lat="45.0081533" lon="8.31894"><ele>197.4</ele><time>2026-04-11T08:17:54.296Z</time></trkpt><trkpt lat="45.0081933" lon="8.3187883"><ele>196.8</ele><time>2026-04-11T08:17:56.296Z</time></trkpt><trkpt lat="45.0082217" lon="8.3186267"><ele>196.2</ele><time>2026-04-11T08:17:58.296Z</time></trkpt><trkpt lat="45.0082333" lon="8.3184583"><ele>195.6</ele><time>2026-04-11T08:18:00.297Z</time></trkpt><trkpt lat="45.0082217" lon="8.3183667"><ele>195.0</ele><time>2026-04-11T08:18:01.297Z</time></trkpt><trkpt lat="45.0081917" lon="8.3182667"><ele>195.0</ele><time>2026-04-11T08:18:02.297Z</time></trkpt><trkpt lat="45.00816" lon="8.3181633"><ele>195.0</ele><time>2026-04-11T08:18:03.297Z</time></trkpt><trkpt lat="45.00812" lon="8.318055"><ele>195.0</ele><time>2026-04-11T08:18:04.296Z</time></trkpt><trkpt lat="45.008085" lon="8.3179333"><ele>195.0</ele><time>2026-04-11T08:18:05.295Z</time></trkpt><trkpt lat="45.0080433" lon="8.3177967"><ele>195.0</ele><time>2026-04-11T08:18:06.295Z</time></trkpt><trkpt lat="45.0080033" lon="8.3176683"><ele>194.0</ele><time>2026-04-11T08:18:07.295Z</time></trkpt><trkpt lat="45.0079683" lon="8.31753"><ele>193.0</ele><time>2026-04-11T08:18:08.295Z</time></trkpt><trkpt lat="45.0079367" lon="8.3173833"><ele>192.0</ele><time>2026-04-11T08:18:09.295Z</time></trkpt><trkpt lat="45.0079" lon="8.31725"><ele>191.0</ele><time>2026-04-11T08:18:10.296Z</time></trkpt><trkpt lat="45.0078583" lon="8.3171133"><ele>190.0</ele><time>2026-04-11T08:18:11.295Z</time></trkpt><trkpt lat="45.007825" lon="8.316975"><ele>189.8</ele><time>2026-04-11T08:18:12.295Z</time></trkpt><trkpt lat="45.007785" lon="8.31683"><ele>189.6</ele><time>2026-04-11T08:18:13.295Z</time></trkpt><trkpt lat="45.0077417" lon="8.3166883"><ele>189.39999999999998</ele><time>2026-04-11T08:18:14.295Z</time></trkpt><trkpt lat="45.0076983" lon="8.3165533"><ele>189.2</ele><time>2026-04-11T08:18:15.295Z</time></trkpt><trkpt lat="45.0076617" lon="8.3164283"><ele>189.0</ele><time>2026-04-11T08:18:16.295Z</time></trkpt><trkpt lat="45.0076317" lon="8.3163017"><ele>189.0</ele><time>2026-04-11T08:18:17.295Z</time></trkpt><trkpt lat="45.0076083" lon="8.3161733"><ele>189.0</ele><time>2026-04-11T08:18:18.295Z</time></trkpt><trkpt lat="45.0075867" lon="8.316045"><ele>189.0</ele><time>2026-04-11T08:18:19.295Z</time></trkpt><trkpt lat="45.0075583" lon="8.3159183"><ele>189.0</ele><time>2026-04-11T08:18:20.296Z</time></trkpt><trkpt lat="45.007535" lon="8.3157933"><ele>189.0</ele><time>2026-04-11T08:18:21.295Z</time></trkpt><trkpt lat="45.007515" lon="8.3156517"><ele>191.2</ele><time>2026-04-11T08:18:22.296Z</time></trkpt><trkpt lat="45.0074917" lon="8.3155033"><ele>193.39999999999998</ele><time>2026-04-11T08:18:23.295Z</time></trkpt><trkpt lat="45.00747" lon="8.315355"><ele>195.6</ele><time>2026-04-11T08:18:24.296Z</time></trkpt><trkpt lat="45.007445" lon="8.3152083"><ele>197.8</ele><time>2026-04-11T08:18:25.295Z</time></trkpt><trkpt lat="45.0074167" lon="8.315065"><ele>200.0</ele><time>2026-04-11T08:18:26.295Z</time></trkpt><trkpt lat="45.0073883" lon="8.3149317"><ele>200.0</ele><time>2026-04-11T08:18:27.295Z</time></trkpt><trkpt lat="45.0073483" lon="8.314805"><ele>200.0</ele><time>2026-04-11T08:18:28.295Z</time></trkpt><trkpt lat="45.0073183" lon="8.3146617"><ele>200.0</ele><time>2026-04-11T08:18:29.296Z</time></trkpt><trkpt lat="45.0072833" lon="8.3145167"><ele>200.0</ele><time>2026-04-11T08:18:30.296Z</time></trkpt><trkpt lat="45.007265" lon="8.3143667"><ele>200.0</ele><time>2026-04-11T08:18:31.295Z</time></trkpt><trkpt lat="45.0072483" lon="8.3142183"><ele>201.4</ele><time>2026-04-11T08:18:32.296Z</time></trkpt><trkpt lat="45.0072317" lon="8.3140683"><ele>202.8</ele><time>2026-04-11T08:18:33.296Z</time></trkpt><trkpt lat="45.0072067" lon="8.31394"><ele>204.2</ele><time>2026-04-11T08:18:34.296Z</time></trkpt><trkpt lat="45.0071533" lon="8.3138283"><ele>205.6</ele><time>2026-04-11T08:18:35.296Z</time></trkpt><trkpt lat="45.0070917" lon="8.31374"><ele>207.0</ele><time>2026-04-11T08:18:36.295Z</time></trkpt><trkpt lat="45.00703" lon="8.31366"><ele>208.0</ele><time>2026-04-11T08:18:37.296Z</time></trkpt><trkpt lat="45.0069867" lon="8.3135733"><ele>209.0</ele><time>2026-04-11T08:18:38.295Z</time></trkpt><trkpt lat="45.00696" lon="8.3134883"><ele>210.0</ele><time>2026-04-11T08:18:39.295Z</time></trkpt><trkpt lat="45.0069233" lon="8.3133867"><ele>211.0</ele><time>2026-04-11T08:18:40.295Z</time></trkpt><trkpt lat="45.0068883" lon="8.3132683"><ele>212.0</ele><time>2026-04-11T08:18:41.295Z</time></trkpt><trkpt lat="45.00686" lon="8.3131333"><ele>213.0</ele><time>2026-04-11T08:18:42.296Z</time></trkpt><trkpt lat="45.006825" lon="8.312975"><ele>215.25</ele><time>2026-04-11T08:18:43.295Z</time></trkpt><trkpt lat="45.0067867" lon="8.3128"><ele>217.5</ele><time>2026-04-11T08:18:44.295Z</time></trkpt><trkpt lat="45.0067383" lon="8.3126117"><ele>219.75</ele><time>2026-04-11T08:18:45.295Z</time></trkpt><trkpt lat="45.0067" lon="8.312425"><ele>222.0</ele><time>2026-04-11T08:18:46.295Z</time></trkpt><trkpt lat="45.0066667" lon="8.3122517"><ele>222.8</ele><time>2026-04-11T08:18:47.295Z</time></trkpt><trkpt lat="45.0066367" lon="8.3121017"><ele>223.6</ele><time>2026-04-11T08:18:48.295Z</time></trkpt><trkpt lat="45.0066233" lon="8.311975"><ele>224.40000000000003</ele><time>2026-04-11T08:18:49.295Z</time></trkpt><trkpt lat="45.0066167" lon="8.3118683"><ele>225.20000000000002</ele><time>2026-04-11T08:18:50.295Z</time></trkpt><trkpt lat="45.0065933" lon="8.3117217"><ele>226.0</ele><time>2026-04-11T08:18:52.295Z</time></trkpt><trkpt lat="45.0065517" lon="8.311625"><ele>225.99999999999997</ele><time>2026-04-11T08:18:54.295Z</time></trkpt><trkpt lat="45.00649" lon="8.3115767"><ele>226.0</ele><time>2026-04-11T08:18:56.296Z</time></trkpt><trkpt lat="45.0063933" lon="8.3116133"><ele>226.0</ele><time>2026-04-11T08:18:59.295Z</time></trkpt><trkpt lat="45.0063067" lon="8.31158"><ele>226.0</ele><time>2026-04-11T08:19:02.295Z</time></trkpt><trkpt lat="45.0062933" lon="8.3114683"><ele>225.99999999999997</ele><time>2026-04-11T08:19:04.295Z</time></trkpt><trkpt lat="45.0063067" lon="8.3113517"><ele>226.0</ele><time>2026-04-11T08:19:06.295Z</time></trkpt><trkpt lat="45.0063067" lon="8.3111933"><ele>225.16666666666666</ele><time>2026-04-11T08:19:08.295Z</time></trkpt><trkpt lat="45.0063017" lon="8.3110933"><ele>224.33333333333331</ele><time>2026-04-11T08:19:09.295Z</time></trkpt><trkpt lat="45.0062967" lon="8.3109817"><ele>223.5</ele><time>2026-04-11T08:19:10.295Z</time></trkpt><trkpt lat="45.0062917" lon="8.3108617"><ele>222.66666666666669</ele><time>2026-04-11T08:19:11.295Z</time></trkpt><trkpt lat="45.0062833" lon="8.3107467"><ele>221.83333333333334</ele><time>2026-04-11T08:19:12.295Z</time></trkpt><trkpt lat="45.0062667" lon="8.31063"><ele>221.0</ele><time>2026-04-11T08:19:13.295Z</time></trkpt><trkpt lat="45.0062517" lon="8.3105167"><ele>220.16666666666669</ele><time>2026-04-11T08:19:14.296Z</time></trkpt><trkpt lat="45.00624" lon="8.3104017"><ele>219.33333333333334</ele><time>2026-04-11T08:19:15.296Z</time></trkpt><trkpt lat="45.0062267" lon="8.310295"><ele>218.5</ele><time>2026-04-11T08:19:16.295Z</time></trkpt><trkpt lat="45.0062117" lon="8.31019"><ele>217.66666666666669</ele><time>2026-04-11T08:19:17.295Z</time></trkpt><trkpt lat="45.0061483" lon="8.310025"><ele>216.83333333333334</ele><time>2026-04-11T08:19:19.295Z</time></trkpt><trkpt lat="45.0061117" lon="8.3099517"><ele>216.0</ele><time>2026-04-11T08:19:20.295Z</time></trkpt><trkpt lat="45.0060683" lon="8.3098783"><ele>216.0</ele><time>2026-04-11T08:19:21.295Z</time></trkpt><trkpt lat="45.0060233" lon="8.3097867"><ele>216.00000000000003</ele><time>2026-04-11T08:19:22.295Z</time></trkpt><trkpt lat="45.0059767" lon="8.3097"><ele>216.00000000000003</ele><time>2026-04-11T08:19:23.295Z</time></trkpt><trkpt lat="45.00588" lon="8.3095283"><ele>216.0</ele><time>2026-04-11T08:19:25.295Z</time></trkpt><trkpt lat="45.0058317" lon="8.3094517"><ele>216.0</ele><time>2026-04-11T08:19:26.295Z</time></trkpt><trkpt lat="45.0057867" lon="8.3093633"><ele>215.0</ele><time>2026-04-11T08:19:27.295Z</time></trkpt><trkpt lat="45.0057517" lon="8.309285"><ele>214.00000000000003</ele><time>2026-04-11T08:19:28.296Z</time></trkpt><trkpt lat="45.005715" lon="8.3092117"><ele>213.0</ele><time>2026-04-11T08:19:29.295Z</time></trkpt><trkpt lat="45.0056567" lon="8.3090833"><ele>212.0</ele><time>2026-04-11T08:19:31.296Z</time></trkpt><trkpt lat="45.00559" lon="8.30895"><ele>211.0</ele><time>2026-04-11T08:19:33.295Z</time></trkpt><trkpt lat="45.0055167" lon="8.3088117"><ele>209.28571428571428</ele><time>2026-04-11T08:19:35.295Z</time></trkpt><trkpt lat="45.005475" lon="8.3087383"><ele>207.57142857142858</ele><time>2026-04-11T08:19:36.295Z</time></trkpt><trkpt lat="45.005435" lon="8.3086467"><ele>205.85714285714283</ele><time>2026-04-11T08:19:37.296Z</time></trkpt><trkpt lat="45.005395" lon="8.308565"><ele>204.14285714285714</ele><time>2026-04-11T08:19:38.295Z</time></trkpt><trkpt lat="45.0053567" lon="8.3084867"><ele>202.42857142857142</ele><time>2026-04-11T08:19:39.295Z</time></trkpt><trkpt lat="45.0053217" lon="8.3084083"><ele>200.7142857142857</ele><time>2026-04-11T08:19:40.296Z</time></trkpt><trkpt lat="45.0052833" lon="8.30833"><ele>199.0</ele><time>2026-04-11T08:19:41.295Z</time></trkpt><trkpt lat="45.0052367" lon="8.30825"><ele>198.99999999999997</ele><time>2026-04-11T08:19:42.295Z</time></trkpt><trkpt lat="45.00519" lon="8.3081717"><ele>199.0</ele><time>2026-04-11T08:19:43.295Z</time></trkpt><trkpt lat="45.0051467" lon="8.3081017"><ele>199.0</ele><time>2026-04-11T08:19:44.295Z</time></trkpt><trkpt lat="45.00511" lon="8.3080133"><ele>199.0</ele><time>2026-04-11T08:19:45.296Z</time></trkpt><trkpt lat="45.0050667" lon="8.30794"><ele>199.0</ele><time>2026-04-11T08:19:46.296Z</time></trkpt><trkpt lat="45.005015" lon="8.30787"><ele>198.99999999999997</ele><time>2026-04-11T08:19:47.295Z</time></trkpt><trkpt lat="45.0049633" lon="8.3078117"><ele>199.0</ele><time>2026-04-11T08:19:48.295Z</time></trkpt><trkpt lat="45.0048617" lon="8.3077117"><ele>196.66666666666666</ele><time>2026-04-11T08:19:50.295Z</time></trkpt><trkpt lat="45.0048117" lon="8.307645"><ele>194.33333333333331</ele><time>2026-04-11T08:19:51.295Z</time></trkpt><trkpt lat="45.0047533" lon="8.3076017"><ele>192.0</ele><time>2026-04-11T08:19:52.296Z</time></trkpt><trkpt lat="45.004685" lon="8.3075567"><ele>189.66666666666666</ele><time>2026-04-11T08:19:53.295Z</time></trkpt><trkpt lat="45.0046067" lon="8.30751"><ele>187.33333333333331</ele><time>2026-04-11T08:19:54.295Z</time></trkpt><trkpt lat="45.0045267" lon="8.307435"><ele>185.0</ele><time>2026-04-11T08:19:55.296Z</time></trkpt><trkpt lat="45.00445" lon="8.3073583"><ele>185.0</ele><time>2026-04-11T08:19:56.295Z</time></trkpt><trkpt lat="45.00438" lon="8.30729"><ele>185.0</ele><time>2026-04-11T08:19:57.295Z</time></trkpt><trkpt lat="45.0043117" lon="8.30722"><ele>185.0</ele><time>2026-04-11T08:19:58.295Z</time></trkpt><trkpt lat="45.0042367" lon="8.307155"><ele>185.0</ele><time>2026-04-11T08:19:59.296Z</time></trkpt><trkpt lat="45.0041533" lon="8.3070933"><ele>185.0</ele><time>2026-04-11T08:20:00.295Z</time></trkpt><trkpt lat="45.00408" lon="8.3070283"><ele>185.0</ele><time>2026-04-11T08:20:01.295Z</time></trkpt><trkpt lat="45.0040133" lon="8.3069667"><ele>184.0</ele><time>2026-04-11T08:20:02.295Z</time></trkpt><trkpt lat="45.00395" lon="8.3068933"><ele>183.0</ele><time>2026-04-11T08:20:03.295Z</time></trkpt><trkpt lat="45.0038933" lon="8.30683"><ele>182.0</ele><time>2026-04-11T08:20:04.296Z</time></trkpt><trkpt lat="45.0038367" lon="8.3067683"><ele>181.0</ele><time>2026-04-11T08:20:05.296Z</time></trkpt><trkpt lat="45.0037733" lon="8.3066983"><ele>180.0</ele><time>2026-04-11T08:20:06.296Z</time></trkpt><trkpt lat="45.003705" lon="8.3066233"><ele>179.0</ele><time>2026-04-11T08:20:07.295Z</time></trkpt><trkpt lat="45.0036383" lon="8.3065583"><ele>179.0</ele><time>2026-04-11T08:20:08.295Z</time></trkpt><trkpt lat="45.0035883" lon="8.30649"><ele>179.0</ele><time>2026-04-11T08:20:09.295Z</time></trkpt><trkpt lat="45.0035267" lon="8.3064167"><ele>179.0</ele><time>2026-04-11T08:20:10.295Z</time></trkpt><trkpt lat="45.0034733" lon="8.306345"><ele>179.0</ele><time>2026-04-11T08:20:11.295Z</time></trkpt><trkpt lat="45.00341" lon="8.3062833"><ele>179.0</ele><time>2026-04-11T08:20:12.295Z</time></trkpt><trkpt lat="45.0033567" lon="8.3062083"><ele>179.0</ele><time>2026-04-11T08:20:13.296Z</time></trkpt><trkpt lat="45.003305" lon="8.3061283"><ele>179.6</ele><time>2026-04-11T08:20:14.295Z</time></trkpt><trkpt lat="45.0032433" lon="8.3060317"><ele>180.2</ele><time>2026-04-11T08:20:15.295Z</time></trkpt><trkpt lat="45.0031767" lon="8.3059233"><ele>180.79999999999998</ele><time>2026-04-11T08:20:16.295Z</time></trkpt><trkpt lat="45.0031167" lon="8.3058217"><ele>181.39999999999998</ele><time>2026-04-11T08:20:17.296Z</time></trkpt><trkpt lat="45.0030617" lon="8.3057217"><ele>182.0</ele><time>2026-04-11T08:20:18.296Z</time></trkpt><trkpt lat="45.0030217" lon="8.3056217"><ele>182.2</ele><time>2026-04-11T08:20:19.295Z</time></trkpt><trkpt lat="45.002995" lon="8.30552"><ele>182.39999999999998</ele><time>2026-04-11T08:20:20.295Z</time></trkpt><trkpt lat="45.0029767" lon="8.305425"><ele>182.60000000000002</ele><time>2026-04-11T08:20:21.295Z</time></trkpt><trkpt lat="45.0029617" lon="8.30527"><ele>182.8</ele><time>2026-04-11T08:20:23.295Z</time></trkpt><trkpt lat="45.0030367" lon="8.3051733"><ele>183.0</ele><time>2026-04-11T08:20:25.296Z</time></trkpt><trkpt lat="45.003225" lon="8.305055"><ele>183.0</ele><time>2026-04-11T08:20:28.295Z</time></trkpt><trkpt lat="45.00331" lon="8.3049983"><ele>183.0</ele><time>2026-04-11T08:20:29.295Z</time></trkpt><trkpt lat="45.0034083" lon="8.3049283"><ele>183.0</ele><time>2026-04-11T08:20:30.296Z</time></trkpt><trkpt lat="45.0035133" lon="8.3048383"><ele>183.0</ele><time>2026-04-11T08:20:31.295Z</time></trkpt><trkpt lat="45.00363" lon="8.3047417"><ele>182.5</ele><time>2026-04-11T08:20:32.296Z</time></trkpt><trkpt lat="45.0037483" lon="8.30465"><ele>182.0</ele><time>2026-04-11T08:20:33.295Z</time></trkpt><trkpt lat="45.0038633" lon="8.304565"><ele>181.5</ele><time>2026-04-11T08:20:34.295Z</time></trkpt><trkpt lat="45.003975" lon="8.3044967"><ele>181.0</ele><time>2026-04-11T08:20:35.295Z</time></trkpt><trkpt lat="45.0040933" lon="8.3044333"><ele>180.75</ele><time>2026-04-11T08:20:36.295Z</time></trkpt><trkpt lat="45.0042133" lon="8.304365"><ele>180.5</ele><time>2026-04-11T08:20:37.295Z</time></trkpt><trkpt lat="45.00432" lon="8.304275"><ele>180.25</ele><time>2026-04-11T08:20:38.295Z</time></trkpt><trkpt lat="45.0044167" lon="8.3041817"><ele>180.0</ele><time>2026-04-11T08:20:39.295Z</time></trkpt><trkpt lat="45.0045167" lon="8.3040883"><ele>180.0</ele><time>2026-04-11T08:20:40.296Z</time></trkpt><trkpt lat="45.0046117" lon="8.3039967"><ele>180.0</ele><time>2026-04-11T08:20:41.295Z</time></trkpt><trkpt lat="45.0047083" lon="8.3039283"><ele>180.0</ele><time>2026-04-11T08:20:42.295Z</time></trkpt><trkpt lat="45.004815" lon="8.3038833"><ele>180.0</ele><time>2026-04-11T08:20:43.295Z</time></trkpt><trkpt lat="45.0049167" lon="8.303855"><ele>180.0</ele><time>2026-04-11T08:20:44.296Z</time></trkpt><trkpt lat="45.005025" lon="8.3038167"><ele>180.2</ele><time>2026-04-11T08:20:45.295Z</time></trkpt><trkpt lat="45.0051267" lon="8.3037717"><ele>180.4</ele><time>2026-04-11T08:20:46.295Z</time></trkpt><trkpt lat="45.0052217" lon="8.30371"><ele>180.60000000000002</ele><time>2026-04-11T08:20:47.295Z</time></trkpt><trkpt lat="45.005305" lon="8.3036183"><ele>180.8</ele><time>2026-04-11T08:20:48.295Z</time></trkpt><trkpt lat="45.0053717" lon="8.3035"><ele>181.0</ele><time>2026-04-11T08:20:49.296Z</time></trkpt><trkpt lat="45.005435" lon="8.3033733"><ele>181.0</ele><time>2026-04-11T08:20:50.296Z</time></trkpt><trkpt lat="45.0054917" lon="8.3032583"><ele>181.0</ele><time>2026-04-11T08:20:51.295Z</time></trkpt><trkpt lat="45.0055467" lon="8.3031333"><ele>181.0</ele><time>2026-04-11T08:20:52.295Z</time></trkpt><trkpt lat="45.0055867" lon="8.3030133"><ele>181.0</ele><time>2026-04-11T08:20:53.295Z</time></trkpt><trkpt lat="45.0056217" lon="8.3028933"><ele>181.0</ele><time>2026-04-11T08:20:54.296Z</time></trkpt><trkpt lat="45.0056467" lon="8.3027667"><ele>181.0</ele><time>2026-04-11T08:20:55.295Z</time></trkpt><trkpt lat="45.0056783" lon="8.30262"><ele>181.0</ele><time>2026-04-11T08:20:56.295Z</time></trkpt><trkpt lat="45.0057283" lon="8.30249"><ele>181.0</ele><time>2026-04-11T08:20:57.295Z</time></trkpt><trkpt lat="45.0057867" lon="8.3023583"><ele>181.0</ele><time>2026-04-11T08:20:58.296Z</time></trkpt><trkpt lat="45.0058633" lon="8.3022383"><ele>181.0</ele><time>2026-04-11T08:20:59.295Z</time></trkpt><trkpt lat="45.00595" lon="8.3021267"><ele>181.60000000000002</ele><time>2026-04-11T08:21:00.296Z</time></trkpt><trkpt lat="45.0060367" lon="8.302025"><ele>182.2</ele><time>2026-04-11T08:21:01.296Z</time></trkpt><trkpt lat="45.0061267" lon="8.3019267"><ele>182.8</ele><time>2026-04-11T08:21:02.295Z</time></trkpt><trkpt lat="45.00621" lon="8.3018333"><ele>183.39999999999998</ele><time>2026-04-11T08:21:03.295Z</time></trkpt><trkpt lat="45.00629" lon="8.3017333"><ele>184.0</ele><time>2026-04-11T08:21:04.295Z</time></trkpt><trkpt lat="45.0063667" lon="8.3016483"><ele>184.0</ele><time>2026-04-11T08:21:05.296Z</time></trkpt><trkpt lat="45.0064483" lon="8.3015517"><ele>184.0</ele><time>2026-04-11T08:21:06.295Z</time></trkpt><trkpt lat="45.006535" lon="8.30145"><ele>184.0</ele><time>2026-04-11T08:21:07.295Z</time></trkpt><trkpt lat="45.0066117" lon="8.301325"><ele>184.0</ele><time>2026-04-11T08:21:08.296Z</time></trkpt><trkpt lat="45.006675" lon="8.3012033"><ele>184.0</ele><time>2026-04-11T08:21:09.296Z</time></trkpt><trkpt lat="45.0067317" lon="8.3010767"><ele>184.0</ele><time>2026-04-11T08:21:10.295Z</time></trkpt><trkpt lat="45.0067867" lon="8.3009417"><ele>184.0</ele><time>2026-04-11T08:21:11.295Z</time></trkpt><trkpt lat="45.0068417" lon="8.300795"><ele>184.0</ele><time>2026-04-11T08:21:12.295Z</time></trkpt><trkpt lat="45.0069" lon="8.30065"><ele>184.0</ele><time>2026-04-11T08:21:13.295Z</time></trkpt><trkpt lat="45.0069667" lon="8.30052"><ele>183.75</ele><time>2026-04-11T08:21:14.295Z</time></trkpt><trkpt lat="45.0070267" lon="8.300385"><ele>183.5</ele><time>2026-04-11T08:21:15.296Z</time></trkpt><trkpt lat="45.00709" lon="8.300245"><ele>183.25</ele><time>2026-04-11T08:21:16.296Z</time></trkpt><trkpt lat="45.007155" lon="8.3001183"><ele>183.0</ele><time>2026-04-11T08:21:17.295Z</time></trkpt><trkpt lat="45.007215" lon="8.29999"><ele>183.0</ele><time>2026-04-11T08:21:18.296Z</time></trkpt><trkpt lat="45.0072717" lon="8.2998633"><ele>183.0</ele><time>2026-04-11T08:21:19.295Z</time></trkpt><trkpt lat="45.0073367" lon="8.2997267"><ele>183.0</ele><time>2026-04-11T08:21:20.295Z</time></trkpt><trkpt lat="45.0073983" lon="8.29958"><ele>183.0</ele><time>2026-04-11T08:21:21.295Z</time></trkpt><trkpt lat="45.0074483" lon="8.299445"><ele>182.8</ele><time>2026-04-11T08:21:22.295Z</time></trkpt><trkpt lat="45.0074967" lon="8.2993217"><ele>182.60000000000002</ele><time>2026-04-11T08:21:23.295Z</time></trkpt><trkpt lat="45.00755" lon="8.29921"><ele>182.39999999999998</ele><time>2026-04-11T08:21:24.295Z</time></trkpt><trkpt lat="45.0076133" lon="8.2990833"><ele>182.2</ele><time>2026-04-11T08:21:25.295Z</time></trkpt><trkpt lat="45.007665" lon="8.2989483"><ele>182.0</ele><time>2026-04-11T08:21:26.295Z</time></trkpt><trkpt lat="45.00772" lon="8.2988267"><ele>182.0</ele><time>2026-04-11T08:21:27.295Z</time></trkpt><trkpt lat="45.0077833" lon="8.2987067"><ele>182.0</ele><time>2026-04-11T08:21:28.295Z</time></trkpt><trkpt lat="45.0078583" lon="8.2986117"><ele>182.0</ele><time>2026-04-11T08:21:29.296Z</time></trkpt><trkpt lat="45.0079467" lon="8.2985233"><ele>182.0</ele><time>2026-04-11T08:21:30.295Z</time></trkpt><trkpt lat="45.0080333" lon="8.2984383"><ele>182.0</ele><time>2026-04-11T08:21:31.295Z</time></trkpt><trkpt lat="45.00813" lon="8.2983617"><ele>182.0</ele><time>2026-04-11T08:21:32.295Z</time></trkpt><trkpt lat="45.008225" lon="8.29829"><ele>182.0</ele><time>2026-04-11T08:21:33.295Z</time></trkpt><trkpt lat="45.0083133" lon="8.298205"><ele>182.0</ele><time>2026-04-11T08:21:34.295Z</time></trkpt><trkpt lat="45.008395" lon="8.2981183"><ele>182.0</ele><time>2026-04-11T08:21:35.296Z</time></trkpt><trkpt lat="45.00846" lon="8.2980183"><ele>182.0</ele><time>2026-04-11T08:21:36.296Z</time></trkpt><trkpt lat="45.0085117" lon="8.2979017"><ele>181.8</ele><time>2026-04-11T08:21:37.296Z</time></trkpt><trkpt lat="45.0085583" lon="8.297765"><ele>181.6</ele><time>2026-04-11T08:21:38.296Z</time></trkpt><trkpt lat="45.008605" lon="8.2976433"><ele>181.4</ele><time>2026-04-11T08:21:39.295Z</time></trkpt><trkpt lat="45.0086467" lon="8.2975283"><ele>181.20000000000002</ele><time>2026-04-11T08:21:40.296Z</time></trkpt><trkpt lat="45.0086967" lon="8.2974017"><ele>181.0</ele><time>2026-04-11T08:21:41.295Z</time></trkpt><trkpt lat="45.008745" lon="8.2972717"><ele>181.4</ele><time>2026-04-11T08:21:42.295Z</time></trkpt><trkpt lat="45.0087933" lon="8.2971567"><ele>181.8</ele><time>2026-04-11T08:21:43.296Z</time></trkpt><trkpt lat="45.008845" lon="8.297035"><ele>182.20000000000002</ele><time>2026-04-11T08:21:44.296Z</time></trkpt><trkpt lat="45.0088933" lon="8.2969033"><ele>182.60000000000002</ele><time>2026-04-11T08:21:45.296Z</time></trkpt><trkpt lat="45.0089433" lon="8.2967683"><ele>183.0</ele><time>2026-04-11T08:21:46.295Z</time></trkpt><trkpt lat="45.008985" lon="8.2966267"><ele>183.0</ele><time>2026-04-11T08:21:47.295Z</time></trkpt><trkpt lat="45.0090217" lon="8.2964983"><ele>183.0</ele><time>2026-04-11T08:21:48.295Z</time></trkpt><trkpt lat="45.009045" lon="8.2963583"><ele>183.0</ele><time>2026-04-11T08:21:49.295Z</time></trkpt><trkpt lat="45.00905" lon="8.2962233"><ele>183.0</ele><time>2026-04-11T08:21:50.296Z</time></trkpt><trkpt lat="45.0090567" lon="8.2961"><ele>183.0</ele><time>2026-04-11T08:21:51.295Z</time></trkpt><trkpt lat="45.009055" lon="8.2959917"><ele>183.0</ele><time>2026-04-11T08:21:52.296Z</time></trkpt><trkpt lat="45.0090533" lon="8.29589"><ele>183.0</ele><time>2026-04-11T08:21:53.295Z</time></trkpt><trkpt lat="45.0090633" lon="8.2957483"><ele>183.0</ele><time>2026-04-11T08:21:55.295Z</time></trkpt><trkpt lat="45.0090783" lon="8.2956383"><ele>183.0</ele><time>2026-04-11T08:21:58.295Z</time></trkpt><trkpt lat="45.0091467" lon="8.2955517"><ele>183.0</ele><time>2026-04-11T08:22:01.295Z</time></trkpt><trkpt lat="45.00924" lon="8.2955083"><ele>183.0</ele><time>2026-04-11T08:22:03.295Z</time></trkpt><trkpt lat="45.009305" lon="8.2954767"><ele>183.33333333333334</ele><time>2026-04-11T08:22:04.296Z</time></trkpt><trkpt lat="45.0093817" lon="8.2954483"><ele>183.66666666666666</ele><time>2026-04-11T08:22:05.295Z</time></trkpt><trkpt lat="45.009445" lon="8.29541"><ele>184.0</ele><time>2026-04-11T08:22:06.296Z</time></trkpt><trkpt lat="45.0095133" lon="8.2953617"><ele>184.33333333333331</ele><time>2026-04-11T08:22:07.295Z</time></trkpt><trkpt lat="45.009585" lon="8.295305"><ele>184.66666666666666</ele><time>2026-04-11T08:22:08.295Z</time></trkpt><trkpt lat="45.0096517" lon="8.2952667"><ele>185.0</ele><time>2026-04-11T08:22:09.296Z</time></trkpt><trkpt lat="45.00972" lon="8.29523"><ele>185.0</ele><time>2026-04-11T08:22:10.296Z</time></trkpt><trkpt lat="45.0097883" lon="8.2951917"><ele>185.0</ele><time>2026-04-11T08:22:11.295Z</time></trkpt><trkpt lat="45.0098617" lon="8.2951667"><ele>185.0</ele><time>2026-04-11T08:22:12.295Z</time></trkpt><trkpt lat="45.0099917" lon="8.2951"><ele>185.0</ele><time>2026-04-11T08:22:14.295Z</time></trkpt><trkpt lat="45.0100517" lon="8.2950683"><ele>185.0</ele><time>2026-04-11T08:22:15.296Z</time></trkpt><trkpt lat="45.0101167" lon="8.2950383"><ele>185.0</ele><time>2026-04-11T08:22:16.295Z</time></trkpt><trkpt lat="45.0101783" lon="8.2950183"><ele>184.83333333333331</ele><time>2026-04-11T08:22:17.295Z</time></trkpt><trkpt lat="45.0102817" lon="8.2950083"><ele>184.66666666666666</ele><time>2026-04-11T08:22:19.296Z</time></trkpt><trkpt lat="45.0103467" lon="8.29501"><ele>184.5</ele><time>2026-04-11T08:22:20.295Z</time></trkpt><trkpt lat="45.010415" lon="8.2950233"><ele>184.33333333333334</ele><time>2026-04-11T08:22:21.295Z</time></trkpt><trkpt lat="45.010495" lon="8.2950333"><ele>184.16666666666669</ele><time>2026-04-11T08:22:22.296Z</time></trkpt><trkpt lat="45.0105767" lon="8.2950333"><ele>184.0</ele><time>2026-04-11T08:22:23.295Z</time></trkpt><trkpt lat="45.010655" lon="8.2950283"><ele>184.0</ele><time>2026-04-11T08:22:24.295Z</time></trkpt><trkpt lat="45.0107367" lon="8.294985"><ele>184.0</ele><time>2026-04-11T08:22:25.296Z</time></trkpt><trkpt lat="45.010805" lon="8.2949083"><ele>184.0</ele><time>2026-04-11T08:22:26.295Z</time></trkpt><trkpt lat="45.01087" lon="8.2948267"><ele>184.0</ele><time>2026-04-11T08:22:27.296Z</time></trkpt><trkpt lat="45.0109383" lon="8.2947433"><ele>184.0</ele><time>2026-04-11T08:22:28.295Z</time></trkpt><trkpt lat="45.0110067" lon="8.2946517"><ele>184.0</ele><time>2026-04-11T08:22:29.295Z</time></trkpt><trkpt lat="45.011075" lon="8.2945617"><ele>184.39999999999998</ele><time>2026-04-11T08:22:30.296Z</time></trkpt><trkpt lat="45.01115" lon="8.2944667"><ele>184.8</ele><time>2026-04-11T08:22:31.295Z</time></trkpt><trkpt lat="45.0112233" lon="8.294365"><ele>185.2</ele><time>2026-04-11T08:22:32.296Z</time></trkpt><trkpt lat="45.0113" lon="8.2942683"><ele>185.60000000000002</ele><time>2026-04-11T08:22:33.296Z</time></trkpt><trkpt lat="45.011375" lon="8.2941883"><ele>186.0</ele><time>2026-04-11T08:22:34.295Z</time></trkpt><trkpt lat="45.01144" lon="8.2941183"><ele>186.0</ele><time>2026-04-11T08:22:35.295Z</time></trkpt><trkpt lat="45.0115033" lon="8.2940367"><ele>186.0</ele><time>2026-04-11T08:22:36.295Z</time></trkpt><trkpt lat="45.0115583" lon="8.29393"><ele>186.0</ele><time>2026-04-11T08:22:37.295Z</time></trkpt><trkpt lat="45.01162" lon="8.2938217"><ele>186.0</ele><time>2026-04-11T08:22:38.295Z</time></trkpt><trkpt lat="45.0116817" lon="8.2937083"><ele>186.0</ele><time>2026-04-11T08:22:39.295Z</time></trkpt><trkpt lat="45.0117433" lon="8.2936017"><ele>186.33333333333334</ele><time>2026-04-11T08:22:40.295Z</time></trkpt><trkpt lat="45.0117967" lon="8.293505"><ele>186.66666666666666</ele><time>2026-04-11T08:22:41.295Z</time></trkpt><trkpt lat="45.0118467" lon="8.293425"><ele>187.0</ele><time>2026-04-11T08:22:42.295Z</time></trkpt><trkpt lat="45.0118967" lon="8.2933533"><ele>187.33333333333331</ele><time>2026-04-11T08:22:43.296Z</time></trkpt><trkpt lat="45.0119533" lon="8.2932833"><ele>187.66666666666666</ele><time>2026-04-11T08:22:44.296Z</time></trkpt><trkpt lat="45.01201" lon="8.29322"><ele>188.0</ele><time>2026-04-11T08:22:45.295Z</time></trkpt><trkpt lat="45.0120767" lon="8.2931483"><ele>187.83333333333331</ele><time>2026-04-11T08:22:46.296Z</time></trkpt><trkpt lat="45.012155" lon="8.2930667"><ele>187.66666666666666</ele><time>2026-04-11T08:22:47.295Z</time></trkpt><trkpt lat="45.0122233" lon="8.292995"><ele>187.5</ele><time>2026-04-11T08:22:48.295Z</time></trkpt><trkpt lat="45.01229" lon="8.2929233"><ele>187.33333333333334</ele><time>2026-04-11T08:22:49.295Z</time></trkpt><trkpt lat="45.0123533" lon="8.29285"><ele>187.16666666666669</ele><time>2026-04-11T08:22:50.295Z</time></trkpt><trkpt lat="45.0124117" lon="8.2927983"><ele>187.0</ele><time>2026-04-11T08:22:51.295Z</time></trkpt><trkpt lat="45.01252" lon="8.2927083"><ele>187.0</ele><time>2026-04-11T08:22:53.295Z</time></trkpt><trkpt lat="45.012615" lon="8.29262"><ele>187.0</ele><time>2026-04-11T08:22:55.296Z</time></trkpt><trkpt lat="45.0126983" lon="8.2925767"><ele>187.0</ele><time>2026-04-11T08:22:57.295Z</time></trkpt><trkpt lat="45.012755" lon="8.2924983"><ele>187.0</ele><time>2026-04-11T08:22:59.296Z</time></trkpt><trkpt lat="45.01278" lon="8.2923683"><ele>187.0</ele><time>2026-04-11T08:23:01.295Z</time></trkpt><trkpt lat="45.0127683" lon="8.2922767"><ele>187.0</ele><time>2026-04-11T08:23:02.295Z</time></trkpt><trkpt lat="45.012705" lon="8.2920783"><ele>187.0</ele><time>2026-04-11T08:23:04.295Z</time></trkpt><trkpt lat="45.0126583" lon="8.2919"><ele>187.0</ele><time>2026-04-11T08:23:06.295Z</time></trkpt><trkpt lat="45.0126433" lon="8.2918033"><ele>187.0</ele><time>2026-04-11T08:23:07.295Z</time></trkpt><trkpt lat="45.012625" lon="8.29169"><ele>187.0</ele><time>2026-04-11T08:23:08.294Z</time></trkpt><trkpt lat="45.0126067" lon="8.29157"><ele>187.0</ele><time>2026-04-11T08:23:09.294Z</time></trkpt><trkpt lat="45.0125817" lon="8.29145"><ele>187.0</ele><time>2026-04-11T08:23:10.294Z</time></trkpt><trkpt lat="45.0125533" lon="8.2913233"><ele>187.0</ele><time>2026-04-11T08:23:11.294Z</time></trkpt><trkpt lat="45.01251" lon="8.2912"><ele>187.0</ele><time>2026-04-11T08:23:12.294Z</time></trkpt><trkpt lat="45.012455" lon="8.2910867"><ele>187.0</ele><time>2026-04-11T08:23:13.294Z</time></trkpt><trkpt lat="45.0123983" lon="8.290975"><ele>187.0</ele><time>2026-04-11T08:23:14.295Z</time></trkpt><trkpt lat="45.0123317" lon="8.2908583"><ele>186.5</ele><time>2026-04-11T08:23:15.294Z</time></trkpt><trkpt lat="45.0122583" lon="8.2907517"><ele>186.0</ele><time>2026-04-11T08:23:16.294Z</time></trkpt><trkpt lat="45.0121683" lon="8.2906483"><ele>185.5</ele><time>2026-04-11T08:23:17.294Z</time></trkpt><trkpt lat="45.0120767" lon="8.290565"><ele>185.0</ele><time>2026-04-11T08:23:18.294Z</time></trkpt><trkpt lat="45.0119583" lon="8.290515"><ele>185.75</ele><time>2026-04-11T08:23:19.294Z</time></trkpt><trkpt lat="45.0118417" lon="8.2904533"><ele>186.5</ele><time>2026-04-11T08:23:20.294Z</time></trkpt><trkpt lat="45.0117383" lon="8.2903817"><ele>187.25</ele><time>2026-04-11T08:23:21.295Z</time></trkpt><trkpt lat="45.0116417" lon="8.2902933"><ele>188.0</ele><time>2026-04-11T08:23:22.295Z</time></trkpt><trkpt lat="45.011555" lon="8.2902233"><ele>188.0</ele><time>2026-04-11T08:23:23.294Z</time></trkpt><trkpt lat="45.011485" lon="8.2901267"><ele>188.0</ele><time>2026-04-11T08:23:24.294Z</time></trkpt><trkpt lat="45.011415" lon="8.29004"><ele>188.0</ele><time>2026-04-11T08:23:25.294Z</time></trkpt><trkpt lat="45.011345" lon="8.2899483"><ele>188.0</ele><time>2026-04-11T08:23:26.294Z</time></trkpt><trkpt lat="45.0112667" lon="8.2898567"><ele>188.0</ele><time>2026-04-11T08:23:27.295Z</time></trkpt><trkpt lat="45.011095" lon="8.28967"><ele>187.60000000000002</ele><time>2026-04-11T08:23:29.295Z</time></trkpt><trkpt lat="45.0110183" lon="8.2895767"><ele>187.20000000000002</ele><time>2026-04-11T08:23:30.295Z</time></trkpt><trkpt lat="45.0109383" lon="8.2894883"><ele>186.8</ele><time>2026-04-11T08:23:31.295Z</time></trkpt><trkpt lat="45.0108583" lon="8.2893983"><ele>186.4</ele><time>2026-04-11T08:23:32.294Z</time></trkpt><trkpt lat="45.010785" lon="8.2893067"><ele>186.0</ele><time>2026-04-11T08:23:33.294Z</time></trkpt><trkpt lat="45.01071" lon="8.28922"><ele>186.0</ele><time>2026-04-11T08:23:34.295Z</time></trkpt><trkpt lat="45.0106283" lon="8.289115"><ele>186.0</ele><time>2026-04-11T08:23:35.294Z</time></trkpt><trkpt lat="45.0105533" lon="8.289005"><ele>186.0</ele><time>2026-04-11T08:23:36.294Z</time></trkpt><trkpt lat="45.010495" lon="8.2888717"><ele>186.0</ele><time>2026-04-11T08:23:37.294Z</time></trkpt><trkpt lat="45.01047" lon="8.28876"><ele>186.0</ele><time>2026-04-11T08:23:38.294Z</time></trkpt><trkpt lat="45.0104133" lon="8.288615"><ele>186.20000000000002</ele><time>2026-04-11T08:23:39.294Z</time></trkpt><trkpt lat="45.0103717" lon="8.2884833"><ele>186.4</ele><time>2026-04-11T08:23:40.294Z</time></trkpt><trkpt lat="45.0103433" lon="8.28835"><ele>186.6</ele><time>2026-04-11T08:23:41.294Z</time></trkpt><trkpt lat="45.0102933" lon="8.2882283"><ele>186.8</ele><time>2026-04-11T08:23:42.295Z</time></trkpt><trkpt lat="45.0102367" lon="8.288105"><ele>187.0</ele><time>2026-04-11T08:23:43.294Z</time></trkpt><trkpt lat="45.0101817" lon="8.2879833"><ele>187.2</ele><time>2026-04-11T08:23:44.294Z</time></trkpt><trkpt lat="45.0101183" lon="8.287855"><ele>187.39999999999998</ele><time>2026-04-11T08:23:45.295Z</time></trkpt><trkpt lat="45.0100667" lon="8.2877283"><ele>187.60000000000002</ele><time>2026-04-11T08:23:46.294Z</time></trkpt><trkpt lat="45.01003" lon="8.2875883"><ele>187.8</ele><time>2026-04-11T08:23:47.295Z</time></trkpt><trkpt lat="45.009985" lon="8.287455"><ele>188.0</ele><time>2026-04-11T08:23:48.294Z</time></trkpt><trkpt lat="45.00995" lon="8.2873233"><ele>187.60000000000002</ele><time>2026-04-11T08:23:49.294Z</time></trkpt><trkpt lat="45.0099217" lon="8.287185"><ele>187.20000000000002</ele><time>2026-04-11T08:23:50.294Z</time></trkpt><trkpt lat="45.0098883" lon="8.2870533"><ele>186.8</ele><time>2026-04-11T08:23:51.294Z</time></trkpt><trkpt lat="45.0098483" lon="8.2869383"><ele>186.4</ele><time>2026-04-11T08:23:52.294Z</time></trkpt><trkpt lat="45.0098033" lon="8.286805"><ele>186.0</ele><time>2026-04-11T08:23:53.294Z</time></trkpt><trkpt lat="45.0097517" lon="8.286675"><ele>186.0</ele><time>2026-04-11T08:23:54.295Z</time></trkpt><trkpt lat="45.0097067" lon="8.2865367"><ele>186.0</ele><time>2026-04-11T08:23:55.294Z</time></trkpt><trkpt lat="45.0096533" lon="8.2864033"><ele>186.0</ele><time>2026-04-11T08:23:56.294Z</time></trkpt><trkpt lat="45.0096167" lon="8.2862583"><ele>186.0</ele><time>2026-04-11T08:23:57.294Z</time></trkpt><trkpt lat="45.00959" lon="8.286115"><ele>186.0</ele><time>2026-04-11T08:23:58.294Z</time></trkpt><trkpt lat="45.009565" lon="8.28598"><ele>186.0</ele><time>2026-04-11T08:23:59.294Z</time></trkpt><trkpt lat="45.00954" lon="8.2858533"><ele>186.0</ele><time>2026-04-11T08:24:00.294Z</time></trkpt><trkpt lat="45.0095233" lon="8.2857283"><ele>186.0</ele><time>2026-04-11T08:24:01.294Z</time></trkpt><trkpt lat="45.0095033" lon="8.28561"><ele>186.0</ele><time>2026-04-11T08:24:02.294Z</time></trkpt><trkpt lat="45.0094917" lon="8.2854983"><ele>186.0</ele><time>2026-04-11T08:24:03.294Z</time></trkpt><trkpt lat="45.0094883" lon="8.2853517"><ele>186.33333333333334</ele><time>2026-04-11T08:24:05.294Z</time></trkpt><trkpt lat="45.00949" lon="8.2852517"><ele>186.66666666666666</ele><time>2026-04-11T08:24:06.294Z</time></trkpt><trkpt lat="45.00948" lon="8.285145"><ele>187.0</ele><time>2026-04-11T08:24:07.294Z</time></trkpt><trkpt lat="45.009455" lon="8.2850317"><ele>187.33333333333331</ele><time>2026-04-11T08:24:08.294Z</time></trkpt><trkpt lat="45.009425" lon="8.2848967"><ele>187.66666666666666</ele><time>2026-04-11T08:24:09.294Z</time></trkpt><trkpt lat="45.0094133" lon="8.2847783"><ele>188.0</ele><time>2026-04-11T08:24:10.294Z</time></trkpt><trkpt lat="45.0093967" lon="8.28465"><ele>188.0</ele><time>2026-04-11T08:24:11.295Z</time></trkpt><trkpt lat="45.0093867" lon="8.284515"><ele>188.0</ele><time>2026-04-11T08:24:12.294Z</time></trkpt><trkpt lat="45.009365" lon="8.284385"><ele>188.0</ele><time>2026-04-11T08:24:13.294Z</time></trkpt><trkpt lat="45.0093467" lon="8.2842733"><ele>188.0</ele><time>2026-04-11T08:24:14.294Z</time></trkpt><trkpt lat="45.0093483" lon="8.28417"><ele>188.0</ele><time>2026-04-11T08:24:15.294Z</time></trkpt><trkpt lat="45.0093317" lon="8.2840533"><ele>188.0</ele><time>2026-04-11T08:24:16.294Z</time></trkpt><trkpt lat="45.0093267" lon="8.2839583"><ele>187.83333333333331</ele><time>2026-04-11T08:24:17.294Z</time></trkpt><trkpt lat="45.009345" lon="8.2838067"><ele>187.66666666666666</ele><time>2026-04-11T08:24:19.294Z</time></trkpt><trkpt lat="45.00936" lon="8.2836283"><ele>187.5</ele><time>2026-04-11T08:24:21.295Z</time></trkpt><trkpt lat="45.0093783" lon="8.2835367"><ele>187.33333333333334</ele><time>2026-04-11T08:24:22.294Z</time></trkpt><trkpt lat="45.009405" lon="8.2834417"><ele>187.16666666666669</ele><time>2026-04-11T08:24:23.294Z</time></trkpt><trkpt lat="45.009435" lon="8.2833533"><ele>187.0</ele><time>2026-04-11T08:24:24.294Z</time></trkpt><trkpt lat="45.00946" lon="8.283255"><ele>187.0</ele><time>2026-04-11T08:24:25.294Z</time></trkpt><trkpt lat="45.0094833" lon="8.2831533"><ele>187.0</ele><time>2026-04-11T08:24:26.294Z</time></trkpt><trkpt lat="45.0094983" lon="8.2830383"><ele>187.0</ele><time>2026-04-11T08:24:27.294Z</time></trkpt><trkpt lat="45.0095117" lon="8.282925"><ele>187.0</ele><time>2026-04-11T08:24:28.294Z</time></trkpt><trkpt lat="45.009515" lon="8.2827867"><ele>187.0</ele><time>2026-04-11T08:24:29.295Z</time></trkpt><trkpt lat="45.009515" lon="8.282645"><ele>187.0</ele><time>2026-04-11T08:24:30.294Z</time></trkpt><trkpt lat="45.00953" lon="8.2825117"><ele>186.8</ele><time>2026-04-11T08:24:31.294Z</time></trkpt><trkpt lat="45.0095467" lon="8.2823817"><ele>186.6</ele><time>2026-04-11T08:24:32.294Z</time></trkpt><trkpt lat="45.0095717" lon="8.28226"><ele>186.4</ele><time>2026-04-11T08:24:33.295Z</time></trkpt><trkpt lat="45.0096267" lon="8.28215"><ele>186.20000000000002</ele><time>2026-04-11T08:24:34.294Z</time></trkpt><trkpt lat="45.0096733" lon="8.2820383"><ele>186.0</ele><time>2026-04-11T08:24:35.294Z</time></trkpt><trkpt lat="45.0097117" lon="8.28192"><ele>186.60000000000002</ele><time>2026-04-11T08:24:36.294Z</time></trkpt><trkpt lat="45.0097533" lon="8.2817983"><ele>187.2</ele><time>2026-04-11T08:24:37.294Z</time></trkpt><trkpt lat="45.0098017" lon="8.28168"><ele>187.8</ele><time>2026-04-11T08:24:38.295Z</time></trkpt><trkpt lat="45.0098567" lon="8.2815867"><ele>188.39999999999998</ele><time>2026-04-11T08:24:39.294Z</time></trkpt><trkpt lat="45.00993" lon="8.2815083"><ele>189.0</ele><time>2026-04-11T08:24:40.295Z</time></trkpt><trkpt lat="45.0100033" lon="8.281445"><ele>189.0</ele><time>2026-04-11T08:24:41.294Z</time></trkpt><trkpt lat="45.0100833" lon="8.2813867"><ele>189.0</ele><time>2026-04-11T08:24:42.294Z</time></trkpt><trkpt lat="45.0101567" lon="8.2813233"><ele>189.0</ele><time>2026-04-11T08:24:43.294Z</time></trkpt><trkpt lat="45.0102417" lon="8.2812517"><ele>189.0</ele><time>2026-04-11T08:24:44.294Z</time></trkpt><trkpt lat="45.0103233" lon="8.2811567"><ele>189.0</ele><time>2026-04-11T08:24:45.294Z</time></trkpt><trkpt lat="45.0103833" lon="8.2810333"><ele>189.0</ele><time>2026-04-11T08:24:46.294Z</time></trkpt><trkpt lat="45.0104267" lon="8.2808983"><ele>189.0</ele><time>2026-04-11T08:24:47.294Z</time></trkpt><trkpt lat="45.0104533" lon="8.28075"><ele>189.0</ele><time>2026-04-11T08:24:48.294Z</time></trkpt><trkpt lat="45.0104917" lon="8.2805917"><ele>189.0</ele><time>2026-04-11T08:24:49.294Z</time></trkpt><trkpt lat="45.0105267" lon="8.2804467"><ele>189.0</ele><time>2026-04-11T08:24:50.294Z</time></trkpt><trkpt lat="45.0105567" lon="8.2803083"><ele>189.33333333333334</ele><time>2026-04-11T08:24:51.294Z</time></trkpt><trkpt lat="45.01059" lon="8.2801817"><ele>189.66666666666666</ele><time>2026-04-11T08:24:52.294Z</time></trkpt><trkpt lat="45.0106333" lon="8.2800717"><ele>190.0</ele><time>2026-04-11T08:24:53.294Z</time></trkpt><trkpt lat="45.0106717" lon="8.27997"><ele>190.33333333333331</ele><time>2026-04-11T08:24:54.295Z</time></trkpt><trkpt lat="45.010705" lon="8.27986"><ele>190.66666666666666</ele><time>2026-04-11T08:24:55.294Z</time></trkpt><trkpt lat="45.0107183" lon="8.2797417"><ele>191.0</ele><time>2026-04-11T08:24:56.294Z</time></trkpt><trkpt lat="45.01073" lon="8.2796267"><ele>191.5</ele><time>2026-04-11T08:24:57.294Z</time></trkpt><trkpt lat="45.0107367" lon="8.2795183"><ele>192.0</ele><time>2026-04-11T08:24:58.294Z</time></trkpt><trkpt lat="45.0107417" lon="8.2794033"><ele>192.5</ele><time>2026-04-11T08:24:59.294Z</time></trkpt><trkpt lat="45.0107483" lon="8.2792883"><ele>193.0</ele><time>2026-04-11T08:25:00.295Z</time></trkpt><trkpt lat="45.010745" lon="8.2791733"><ele>193.50000000000003</ele><time>2026-04-11T08:25:01.294Z</time></trkpt><trkpt lat="45.0107283" lon="8.2790483"><ele>194.0</ele><time>2026-04-11T08:25:02.294Z</time></trkpt><trkpt lat="45.0107233" lon="8.2789233"><ele>194.0</ele><time>2026-04-11T08:25:03.295Z</time></trkpt><trkpt lat="45.0107233" lon="8.2788"><ele>194.0</ele><time>2026-04-11T08:25:04.294Z</time></trkpt><trkpt lat="45.010725" lon="8.2786733"><ele>194.0</ele><time>2026-04-11T08:25:05.294Z</time></trkpt><trkpt lat="45.0107233" lon="8.2785383"><ele>194.0</ele><time>2026-04-11T08:25:06.295Z</time></trkpt><trkpt lat="45.01072" lon="8.2783983"><ele>194.0</ele><time>2026-04-11T08:25:07.294Z</time></trkpt><trkpt lat="45.010725" lon="8.2782533"><ele>194.0</ele><time>2026-04-11T08:25:08.294Z</time></trkpt><trkpt lat="45.0107433" lon="8.2781033"><ele>194.0</ele><time>2026-04-11T08:25:09.294Z</time></trkpt><trkpt lat="45.010775" lon="8.277965"><ele>194.0</ele><time>2026-04-11T08:25:10.294Z</time></trkpt><trkpt lat="45.010805" lon="8.2778233"><ele>194.0</ele><time>2026-04-11T08:25:11.294Z</time></trkpt><trkpt lat="45.0108333" lon="8.2776817"><ele>194.0</ele><time>2026-04-11T08:25:12.295Z</time></trkpt><trkpt lat="45.01086" lon="8.27754"><ele>193.6</ele><time>2026-04-11T08:25:13.294Z</time></trkpt><trkpt lat="45.010895" lon="8.2773983"><ele>193.2</ele><time>2026-04-11T08:25:14.294Z</time></trkpt><trkpt lat="45.0109267" lon="8.2772567"><ele>192.79999999999998</ele><time>2026-04-11T08:25:15.294Z</time></trkpt><trkpt lat="45.010965" lon="8.277115"><ele>192.39999999999998</ele><time>2026-04-11T08:25:16.294Z</time></trkpt><trkpt lat="45.0110017" lon="8.27698"><ele>192.0</ele><time>2026-04-11T08:25:17.295Z</time></trkpt><trkpt lat="45.0110417" lon="8.2768517"><ele>191.8</ele><time>2026-04-11T08:25:18.295Z</time></trkpt><trkpt lat="45.0110833" lon="8.2767183"><ele>191.6</ele><time>2026-04-11T08:25:19.294Z</time></trkpt><trkpt lat="45.0111133" lon="8.276585"><ele>191.4</ele><time>2026-04-11T08:25:20.294Z</time></trkpt><trkpt lat="45.0111567" lon="8.27645"><ele>191.20000000000002</ele><time>2026-04-11T08:25:21.294Z</time></trkpt><trkpt lat="45.0111933" lon="8.2763233"><ele>191.0</ele><time>2026-04-11T08:25:22.294Z</time></trkpt><trkpt lat="45.01123" lon="8.2761933"><ele>191.0</ele><time>2026-04-11T08:25:23.294Z</time></trkpt><trkpt lat="45.0112583" lon="8.276055"><ele>191.0</ele><time>2026-04-11T08:25:24.294Z</time></trkpt><trkpt lat="45.011285" lon="8.27591"><ele>191.0</ele><time>2026-04-11T08:25:25.295Z</time></trkpt><trkpt lat="45.0113133" lon="8.2757683"><ele>191.0</ele><time>2026-04-11T08:25:26.294Z</time></trkpt><trkpt lat="45.011345" lon="8.2756267"><ele>191.0</ele><time>2026-04-11T08:25:27.294Z</time></trkpt><trkpt lat="45.0114" lon="8.2755033"><ele>191.20000000000002</ele><time>2026-04-11T08:25:28.294Z</time></trkpt><trkpt lat="45.0114633" lon="8.275395"><ele>191.4</ele><time>2026-04-11T08:25:29.295Z</time></trkpt><trkpt lat="45.011535" lon="8.275295"><ele>191.6</ele><time>2026-04-11T08:25:30.294Z</time></trkpt><trkpt lat="45.0116117" lon="8.2751817"><ele>191.8</ele><time>2026-04-11T08:25:31.295Z</time></trkpt><trkpt lat="45.0116917" lon="8.27507"><ele>192.0</ele><time>2026-04-11T08:25:32.294Z</time></trkpt><trkpt lat="45.01176" lon="8.2749533"><ele>192.33333333333334</ele><time>2026-04-11T08:25:33.294Z</time></trkpt><trkpt lat="45.011825" lon="8.2748583"><ele>192.66666666666669</ele><time>2026-04-11T08:25:34.294Z</time></trkpt><trkpt lat="45.0119067" lon="8.274785"><ele>193.0</ele><time>2026-04-11T08:25:35.294Z</time></trkpt><trkpt lat="45.01197" lon="8.2747183"><ele>193.33333333333334</ele><time>2026-04-11T08:25:36.294Z</time></trkpt><trkpt lat="45.012025" lon="8.2746733"><ele>193.66666666666669</ele><time>2026-04-11T08:25:37.294Z</time></trkpt><trkpt lat="45.0120867" lon="8.2745633"><ele>194.0</ele><time>2026-04-11T08:25:39.294Z</time></trkpt><trkpt lat="45.0121" lon="8.2744"><ele>194.2</ele><time>2026-04-11T08:25:41.295Z</time></trkpt><trkpt lat="45.0121067" lon="8.2742967"><ele>194.39999999999998</ele><time>2026-04-11T08:25:42.295Z</time></trkpt><trkpt lat="45.01212" lon="8.2741917"><ele>194.6</ele><time>2026-04-11T08:25:43.294Z</time></trkpt><trkpt lat="45.0121383" lon="8.2740133"><ele>194.8</ele><time>2026-04-11T08:25:45.294Z</time></trkpt><trkpt lat="45.01213" lon="8.2738467"><ele>195.0</ele><time>2026-04-11T08:25:47.294Z</time></trkpt><trkpt lat="45.01211" lon="8.273755"><ele>195.0</ele><time>2026-04-11T08:25:48.295Z</time></trkpt><trkpt lat="45.0120767" lon="8.2736333"><ele>195.0</ele><time>2026-04-11T08:25:49.294Z</time></trkpt><trkpt lat="45.0120417" lon="8.2735067"><ele>195.0</ele><time>2026-04-11T08:25:50.295Z</time></trkpt><trkpt lat="45.012005" lon="8.273375"><ele>195.0</ele><time>2026-04-11T08:25:51.294Z</time></trkpt><trkpt lat="45.0119667" lon="8.2732483"><ele>195.0</ele><time>2026-04-11T08:25:52.294Z</time></trkpt><trkpt lat="45.0119317" lon="8.273125"><ele>194.83333333333334</ele><time>2026-04-11T08:25:53.294Z</time></trkpt><trkpt lat="45.0118967" lon="8.2730267"><ele>194.66666666666669</ele><time>2026-04-11T08:25:54.294Z</time></trkpt><trkpt lat="45.01187" lon="8.2729283"><ele>194.5</ele><time>2026-04-11T08:25:55.294Z</time></trkpt><trkpt lat="45.0118367" lon="8.2728267"><ele>194.33333333333334</ele><time>2026-04-11T08:25:56.294Z</time></trkpt><trkpt lat="45.011815" lon="8.2727217"><ele>194.16666666666669</ele><time>2026-04-11T08:25:57.294Z</time></trkpt><trkpt lat="45.0118" lon="8.272615"><ele>194.0</ele><time>2026-04-11T08:25:58.294Z</time></trkpt><trkpt lat="45.0117967" lon="8.2724983"><ele>194.00000000000003</ele><time>2026-04-11T08:25:59.294Z</time></trkpt><trkpt lat="45.0118033" lon="8.27238"><ele>194.0</ele><time>2026-04-11T08:26:00.295Z</time></trkpt><trkpt lat="45.0118167" lon="8.272265"><ele>194.0</ele><time>2026-04-11T08:26:01.295Z</time></trkpt><trkpt lat="45.0118333" lon="8.272175"><ele>194.0</ele><time>2026-04-11T08:26:02.294Z</time></trkpt><trkpt lat="45.0118433" lon="8.2720433"><ele>194.00000000000003</ele><time>2026-04-11T08:26:04.294Z</time></trkpt><trkpt lat="45.0118517" lon="8.2719283"><ele>194.0</ele><time>2026-04-11T08:26:06.294Z</time></trkpt><trkpt lat="45.0118667" lon="8.27178"><ele>194.00000000000003</ele><time>2026-04-11T08:26:08.295Z</time></trkpt><trkpt lat="45.01189" lon="8.271615"><ele>194.0</ele><time>2026-04-11T08:26:10.295Z</time></trkpt><trkpt lat="45.0119" lon="8.27152"><ele>194.0</ele><time>2026-04-11T08:26:11.294Z</time></trkpt><trkpt lat="45.01192" lon="8.2714333"><ele>194.0</ele><time>2026-04-11T08:26:12.294Z</time></trkpt><trkpt lat="45.0119583" lon="8.2713433"><ele>194.00000000000003</ele><time>2026-04-11T08:26:13.294Z</time></trkpt><trkpt lat="45.0120067" lon="8.2712617"><ele>194.0</ele><time>2026-04-11T08:26:14.294Z</time></trkpt><trkpt lat="45.0120533" lon="8.271185"><ele>193.83333333333334</ele><time>2026-04-11T08:26:15.295Z</time></trkpt><trkpt lat="45.0121017" lon="8.2710933"><ele>193.66666666666669</ele><time>2026-04-11T08:26:16.294Z</time></trkpt><trkpt lat="45.0121433" lon="8.2709917"><ele>193.5</ele><time>2026-04-11T08:26:17.294Z</time></trkpt><trkpt lat="45.0121883" lon="8.2708833"><ele>193.33333333333331</ele><time>2026-04-11T08:26:18.294Z</time></trkpt><trkpt lat="45.0122217" lon="8.2707867"><ele>193.16666666666666</ele><time>2026-04-11T08:26:19.294Z</time></trkpt><trkpt lat="45.0122617" lon="8.2706983"><ele>193.0</ele><time>2026-04-11T08:26:20.294Z</time></trkpt><trkpt lat="45.0122917" lon="8.2706183"><ele>192.83333333333331</ele><time>2026-04-11T08:26:21.294Z</time></trkpt><trkpt lat="45.0123133" lon="8.2705317"><ele>192.66666666666666</ele><time>2026-04-11T08:26:22.294Z</time></trkpt><trkpt lat="45.01234" lon="8.2704383"><ele>192.5</ele><time>2026-04-11T08:26:23.294Z</time></trkpt><trkpt lat="45.0123717" lon="8.27034"><ele>192.33333333333331</ele><time>2026-04-11T08:26:24.294Z</time></trkpt><trkpt lat="45.01241" lon="8.2702467"><ele>192.16666666666666</ele><time>2026-04-11T08:26:25.295Z</time></trkpt><trkpt lat="45.0124583" lon="8.2701367"><ele>192.0</ele><time>2026-04-11T08:26:26.295Z</time></trkpt><trkpt lat="45.012505" lon="8.27003"><ele>192.6</ele><time>2026-04-11T08:26:27.294Z</time></trkpt><trkpt lat="45.012555" lon="8.2699183"><ele>193.2</ele><time>2026-04-11T08:26:28.294Z</time></trkpt><trkpt lat="45.0126" lon="8.2697983"><ele>193.8</ele><time>2026-04-11T08:26:29.294Z</time></trkpt><trkpt lat="45.0126517" lon="8.2696733"><ele>194.4</ele><time>2026-04-11T08:26:30.294Z</time></trkpt><trkpt lat="45.012715" lon="8.2695567"><ele>195.0</ele><time>2026-04-11T08:26:31.294Z</time></trkpt><trkpt lat="45.01277" lon="8.2694483"><ele>195.0</ele><time>2026-04-11T08:26:32.294Z</time></trkpt><trkpt lat="45.012835" lon="8.2693317"><ele>195.0</ele><time>2026-04-11T08:26:33.295Z</time></trkpt><trkpt lat="45.0129" lon="8.2692367"><ele>195.0</ele><time>2026-04-11T08:26:34.295Z</time></trkpt><trkpt lat="45.0129633" lon="8.2691267"><ele>195.0</ele><time>2026-04-11T08:26:35.294Z</time></trkpt><trkpt lat="45.0130133" lon="8.269"><ele>195.0</ele><time>2026-04-11T08:26:36.294Z</time></trkpt><trkpt lat="45.0130717" lon="8.26888"><ele>195.0</ele><time>2026-04-11T08:26:37.295Z</time></trkpt><trkpt lat="45.01313" lon="8.2687567"><ele>195.0</ele><time>2026-04-11T08:26:38.295Z</time></trkpt><trkpt lat="45.01317" lon="8.2686383"><ele>195.0</ele><time>2026-04-11T08:26:39.294Z</time></trkpt><trkpt lat="45.0132033" lon="8.2685183"><ele>195.0</ele><time>2026-04-11T08:26:40.295Z</time></trkpt><trkpt lat="45.0132267" lon="8.268405"><ele>195.0</ele><time>2026-04-11T08:26:41.295Z</time></trkpt><trkpt lat="45.0132583" lon="8.2682833"><ele>195.0</ele><time>2026-04-11T08:26:42.295Z</time></trkpt><trkpt lat="45.013295" lon="8.268175"><ele>195.0</ele><time>2026-04-11T08:26:43.294Z</time></trkpt><trkpt lat="45.013335" lon="8.2680783"><ele>195.0</ele><time>2026-04-11T08:26:44.294Z</time></trkpt><trkpt lat="45.0133733" lon="8.2680033"><ele>195.0</ele><time>2026-04-11T08:26:45.294Z</time></trkpt><trkpt lat="45.0134183" lon="8.2679117"><ele>195.0</ele><time>2026-04-11T08:26:46.294Z</time></trkpt><trkpt lat="45.0134717" lon="8.2678033"><ele>195.0</ele><time>2026-04-11T08:26:47.294Z</time></trkpt><trkpt lat="45.0135417" lon="8.26769"><ele>195.5</ele><time>2026-04-11T08:26:48.294Z</time></trkpt><trkpt lat="45.0136117" lon="8.2675867"><ele>196.0</ele><time>2026-04-11T08:26:49.294Z</time></trkpt><trkpt lat="45.01367" lon="8.2674917"><ele>196.5</ele><time>2026-04-11T08:26:50.295Z</time></trkpt><trkpt lat="45.0137333" lon="8.2674183"><ele>197.0</ele><time>2026-04-11T08:26:51.294Z</time></trkpt><trkpt lat="45.0138683" lon="8.267225"><ele>197.66666666666669</ele><time>2026-04-11T08:26:53.295Z</time></trkpt><trkpt lat="45.0140017" lon="8.2670067"><ele>198.33333333333331</ele><time>2026-04-11T08:26:55.294Z</time></trkpt><trkpt lat="45.0141383" lon="8.2667817"><ele>199.0</ele><time>2026-04-11T08:26:57.294Z</time></trkpt><trkpt lat="45.0142083" lon="8.2666717"><ele>199.0</ele><time>2026-04-11T08:26:58.294Z</time></trkpt><trkpt lat="45.0142783" lon="8.266555"><ele>199.0</ele><time>2026-04-11T08:26:59.294Z</time></trkpt><trkpt lat="45.0143467" lon="8.26644"><ele>199.0</ele><time>2026-04-11T08:27:00.294Z</time></trkpt><trkpt lat="45.0144133" lon="8.2663217"><ele>199.0</ele><time>2026-04-11T08:27:01.294Z</time></trkpt><trkpt lat="45.0145033" lon="8.2662067"><ele>199.0</ele><time>2026-04-11T08:27:02.294Z</time></trkpt><trkpt lat="45.0145933" lon="8.26608"><ele>198.75</ele><time>2026-04-11T08:27:03.294Z</time></trkpt><trkpt lat="45.0146833" lon="8.2659683"><ele>198.5</ele><time>2026-04-11T08:27:04.295Z</time></trkpt><trkpt lat="45.0147783" lon="8.2658467"><ele>198.25</ele><time>2026-04-11T08:27:05.295Z</time></trkpt><trkpt lat="45.014875" lon="8.2657367"><ele>198.0</ele><time>2026-04-11T08:27:06.294Z</time></trkpt><trkpt lat="45.0149683" lon="8.2656317"><ele>199.5</ele><time>2026-04-11T08:27:07.294Z</time></trkpt><trkpt lat="45.0150517" lon="8.2655367"><ele>201.0</ele><time>2026-04-11T08:27:08.295Z</time></trkpt><trkpt lat="45.0151433" lon="8.26544"><ele>202.5</ele><time>2026-04-11T08:27:09.294Z</time></trkpt><trkpt lat="45.0152317" lon="8.2653317"><ele>204.0</ele><time>2026-04-11T08:27:10.294Z</time></trkpt><trkpt lat="45.0153183" lon="8.26522"><ele>204.0</ele><time>2026-04-11T08:27:11.295Z</time></trkpt><trkpt lat="45.015405" lon="8.26511"><ele>204.0</ele><time>2026-04-11T08:27:12.294Z</time></trkpt><trkpt lat="45.01549" lon="8.2650033"><ele>204.0</ele><time>2026-04-11T08:27:13.295Z</time></trkpt><trkpt lat="45.015565" lon="8.2649167"><ele>204.0</ele><time>2026-04-11T08:27:14.295Z</time></trkpt><trkpt lat="45.0156283" lon="8.2648317"><ele>204.0</ele><time>2026-04-11T08:27:15.294Z</time></trkpt><trkpt lat="45.0156883" lon="8.264765"><ele>203.66666666666666</ele><time>2026-04-11T08:27:16.294Z</time></trkpt><trkpt lat="45.01575" lon="8.2646983"><ele>203.33333333333331</ele><time>2026-04-11T08:27:17.294Z</time></trkpt><trkpt lat="45.01582" lon="8.2646483"><ele>203.0</ele><time>2026-04-11T08:27:18.294Z</time></trkpt><trkpt lat="45.0158883" lon="8.2645717"><ele>202.66666666666666</ele><time>2026-04-11T08:27:19.294Z</time></trkpt><trkpt lat="45.0159633" lon="8.2644917"><ele>202.33333333333331</ele><time>2026-04-11T08:27:20.294Z</time></trkpt><trkpt lat="45.0160483" lon="8.2644083"><ele>202.0</ele><time>2026-04-11T08:27:21.294Z</time></trkpt><trkpt lat="45.0161283" lon="8.26432"><ele>201.8</ele><time>2026-04-11T08:27:22.294Z</time></trkpt><trkpt lat="45.01621" lon="8.2642333"><ele>201.6</ele><time>2026-04-11T08:27:23.295Z</time></trkpt><trkpt lat="45.0162833" lon="8.264145"><ele>201.4</ele><time>2026-04-11T08:27:24.294Z</time></trkpt><trkpt lat="45.0163683" lon="8.2640567"><ele>201.20000000000002</ele><time>2026-04-11T08:27:25.294Z</time></trkpt><trkpt lat="45.016455" lon="8.2639783"><ele>201.0</ele><time>2026-04-11T08:27:26.294Z</time></trkpt><trkpt lat="45.0165383" lon="8.263895"><ele>201.0</ele><time>2026-04-11T08:27:27.295Z</time></trkpt><trkpt lat="45.01662" lon="8.2638117"><ele>201.0</ele><time>2026-04-11T08:27:28.294Z</time></trkpt><trkpt lat="45.0167033" lon="8.26372"><ele>201.0</ele><time>2026-04-11T08:27:29.294Z</time></trkpt><trkpt lat="45.0167867" lon="8.2636283"><ele>201.0</ele><time>2026-04-11T08:27:30.294Z</time></trkpt><trkpt lat="45.01685" lon="8.2635267"><ele>201.0</ele><time>2026-04-11T08:27:31.294Z</time></trkpt><trkpt lat="45.0169117" lon="8.26341"><ele>201.0</ele><time>2026-04-11T08:27:32.294Z</time></trkpt><trkpt lat="45.0169767" lon="8.2632817"><ele>201.0</ele><time>2026-04-11T08:27:33.294Z</time></trkpt><trkpt lat="45.01705" lon="8.263165"><ele>201.0</ele><time>2026-04-11T08:27:34.294Z</time></trkpt><trkpt lat="45.01713" lon="8.2630433"><ele>201.0</ele><time>2026-04-11T08:27:35.294Z</time></trkpt><trkpt lat="45.0172033" lon="8.26293"><ele>201.0</ele><time>2026-04-11T08:27:36.294Z</time></trkpt><trkpt lat="45.0172733" lon="8.262825"><ele>201.0</ele><time>2026-04-11T08:27:37.294Z</time></trkpt><trkpt lat="45.01734" lon="8.26273"><ele>201.0</ele><time>2026-04-11T08:27:38.294Z</time></trkpt><trkpt lat="45.0174067" lon="8.2626583"><ele>201.0</ele><time>2026-04-11T08:27:39.294Z</time></trkpt><trkpt lat="45.017485" lon="8.2626017"><ele>201.0</ele><time>2026-04-11T08:27:40.294Z</time></trkpt><trkpt lat="45.0175717" lon="8.262555"><ele>201.0</ele><time>2026-04-11T08:27:41.294Z</time></trkpt><trkpt lat="45.01767" lon="8.2625267"><ele>201.0</ele><time>2026-04-11T08:27:42.294Z</time></trkpt><trkpt lat="45.017765" lon="8.26251"><ele>201.0</ele><time>2026-04-11T08:27:43.294Z</time></trkpt><trkpt lat="45.0178583" lon="8.262505"><ele>201.0</ele><time>2026-04-11T08:27:44.294Z</time></trkpt><trkpt lat="45.017945" lon="8.26251"><ele>201.0</ele><time>2026-04-11T08:27:45.294Z</time></trkpt><trkpt lat="45.0180183" lon="8.2625233"><ele>201.0</ele><time>2026-04-11T08:27:46.294Z</time></trkpt><trkpt lat="45.0181317" lon="8.26251"><ele>201.0</ele><time>2026-04-11T08:27:48.294Z</time></trkpt><trkpt lat="45.0182183" lon="8.262475"><ele>201.0</ele><time>2026-04-11T08:27:50.294Z</time></trkpt><trkpt lat="45.0182883" lon="8.2624133"><ele>201.0</ele><time>2026-04-11T08:27:52.294Z</time></trkpt><trkpt lat="45.0183433" lon="8.262345"><ele>201.0</ele><time>2026-04-11T08:27:54.294Z</time></trkpt><trkpt lat="45.0183633" lon="8.2622517"><ele>201.0</ele><time>2026-04-11T08:27:57.294Z</time></trkpt><trkpt lat="45.0182983" lon="8.2621717"><ele>201.0</ele><time>2026-04-11T08:28:00.294Z</time></trkpt><trkpt lat="45.0182" lon="8.2620867"><ele>201.5</ele><time>2026-04-11T08:30:55.294Z</time></trkpt><trkpt lat="45.0181417" lon="8.2620133"><ele>202.0</ele><time>2026-04-11T08:30:57.293Z</time></trkpt><trkpt lat="45.0180217" lon="8.26186"><ele>202.5</ele><time>2026-04-11T08:30:59.293Z</time></trkpt><trkpt lat="45.01795" lon="8.2617467"><ele>203.0</ele><time>2026-04-11T08:31:00.293Z</time></trkpt><trkpt lat="45.0178633" lon="8.2616117"><ele>203.0</ele><time>2026-04-11T08:31:01.293Z</time></trkpt><trkpt lat="45.0177833" lon="8.2614733"><ele>203.0</ele><time>2026-04-11T08:31:02.293Z</time></trkpt><trkpt lat="45.0177433" lon="8.2613467"><ele>203.0</ele><time>2026-04-11T08:31:03.294Z</time></trkpt><trkpt lat="45.0177017" lon="8.2612233"><ele>203.0</ele><time>2026-04-11T08:31:04.293Z</time></trkpt><trkpt lat="45.0176967" lon="8.2610883"><ele>203.0</ele><time>2026-04-11T08:31:05.293Z</time></trkpt><trkpt lat="45.0177083" lon="8.2609683"><ele>203.33333333333334</ele><time>2026-04-11T08:31:06.293Z</time></trkpt><trkpt lat="45.0177267" lon="8.2608483"><ele>203.66666666666669</ele><time>2026-04-11T08:31:07.293Z</time></trkpt><trkpt lat="45.0177283" lon="8.260725"><ele>204.0</ele><time>2026-04-11T08:31:08.293Z</time></trkpt><trkpt lat="45.0177217" lon="8.2606133"><ele>204.33333333333331</ele><time>2026-04-11T08:31:09.293Z</time></trkpt><trkpt lat="45.017685" lon="8.2605017"><ele>204.66666666666666</ele><time>2026-04-11T08:31:10.293Z</time></trkpt><trkpt lat="45.0176367" lon="8.2603833"><ele>205.0</ele><time>2026-04-11T08:31:11.293Z</time></trkpt><trkpt lat="45.0175833" lon="8.260245"><ele>205.0</ele><time>2026-04-11T08:31:12.293Z</time></trkpt><trkpt lat="45.0175283" lon="8.2601"><ele>205.0</ele><time>2026-04-11T08:31:13.293Z</time></trkpt><trkpt lat="45.01748" lon="8.2599567"><ele>205.0</ele><time>2026-04-11T08:31:14.293Z</time></trkpt><trkpt lat="45.0174433" lon="8.2598283"><ele>205.0</ele><time>2026-04-11T08:31:15.293Z</time></trkpt><trkpt lat="45.0174183" lon="8.259705"><ele>205.0</ele><time>2026-04-11T08:31:16.293Z</time></trkpt><trkpt lat="45.0174033" lon="8.259575"><ele>205.8</ele><time>2026-04-11T08:31:17.294Z</time></trkpt><trkpt lat="45.0173967" lon="8.2594317"><ele>206.6</ele><time>2026-04-11T08:31:18.293Z</time></trkpt><trkpt lat="45.01739" lon="8.2592833"><ele>207.39999999999998</ele><time>2026-04-11T08:31:19.293Z</time></trkpt><trkpt lat="45.0173917" lon="8.259145"><ele>208.2</ele><time>2026-04-11T08:31:20.293Z</time></trkpt><trkpt lat="45.0174033" lon="8.25901"><ele>209.0</ele><time>2026-04-11T08:31:21.294Z</time></trkpt><trkpt lat="45.0173683" lon="8.2588667"><ele>209.6</ele><time>2026-04-11T08:31:22.294Z</time></trkpt><trkpt lat="45.017355" lon="8.25873"><ele>210.2</ele><time>2026-04-11T08:31:23.293Z</time></trkpt><trkpt lat="45.0173367" lon="8.258605"><ele>210.79999999999998</ele><time>2026-04-11T08:31:24.294Z</time></trkpt><trkpt lat="45.0172767" lon="8.2584433"><ele>211.39999999999998</ele><time>2026-04-11T08:31:25.294Z</time></trkpt><trkpt lat="45.0172217" lon="8.2583"><ele>212.0</ele><time>2026-04-11T08:31:26.293Z</time></trkpt><trkpt lat="45.01717" lon="8.2581733"><ele>212.6</ele><time>2026-04-11T08:31:27.294Z</time></trkpt><trkpt lat="45.0171183" lon="8.2580617"><ele>213.2</ele><time>2026-04-11T08:31:28.293Z</time></trkpt><trkpt lat="45.0170717" lon="8.2579717"><ele>213.8</ele><time>2026-04-11T08:31:29.293Z</time></trkpt><trkpt lat="45.0170183" lon="8.2578733"><ele>214.4</ele><time>2026-04-11T08:31:30.293Z</time></trkpt><trkpt lat="45.0169633" lon="8.257775"><ele>215.0</ele><time>2026-04-11T08:31:31.293Z</time></trkpt><trkpt lat="45.0169067" lon="8.2576533"><ele>215.0</ele><time>2026-04-11T08:31:32.293Z</time></trkpt><trkpt lat="45.0168617" lon="8.2575217"><ele>215.0</ele><time>2026-04-11T08:31:33.294Z</time></trkpt><trkpt lat="45.0168233" lon="8.2573867"><ele>215.0</ele><time>2026-04-11T08:31:34.294Z</time></trkpt><trkpt lat="45.016785" lon="8.2572733"><ele>215.0</ele><time>2026-04-11T08:31:35.293Z</time></trkpt><trkpt lat="45.0167467" lon="8.2571433"><ele>215.0</ele><time>2026-04-11T08:31:36.293Z</time></trkpt><trkpt lat="45.0167017" lon="8.2570117"><ele>216.0</ele><time>2026-04-11T08:31:37.293Z</time></trkpt><trkpt lat="45.0166583" lon="8.256875"><ele>217.0</ele><time>2026-04-11T08:31:38.293Z</time></trkpt><trkpt lat="45.01661" lon="8.2567383"><ele>218.0</ele><time>2026-04-11T08:31:39.293Z</time></trkpt><trkpt lat="45.016565" lon="8.2566117"><ele>219.0</ele><time>2026-04-11T08:31:40.293Z</time></trkpt><trkpt lat="45.016515" lon="8.2564767"><ele>220.0</ele><time>2026-04-11T08:31:41.294Z</time></trkpt><trkpt lat="45.0164633" lon="8.2563617"><ele>221.6</ele><time>2026-04-11T08:31:42.293Z</time></trkpt><trkpt lat="45.0164167" lon="8.2562617"><ele>223.2</ele><time>2026-04-11T08:31:43.294Z</time></trkpt><trkpt lat="45.0163383" lon="8.2560767"><ele>224.8</ele><time>2026-04-11T08:31:45.293Z</time></trkpt><trkpt lat="45.0163067" lon="8.25598"><ele>226.4</ele><time>2026-04-11T08:31:46.293Z</time></trkpt><trkpt lat="45.016265" lon="8.2558683"><ele>228.0</ele><time>2026-04-11T08:31:47.293Z</time></trkpt><trkpt lat="45.01623" lon="8.2557733"><ele>228.0</ele><time>2026-04-11T08:31:48.294Z</time></trkpt><trkpt lat="45.016175" lon="8.2557017"><ele>228.0</ele><time>2026-04-11T08:31:49.293Z</time></trkpt><trkpt lat="45.0161167" lon="8.2556433"><ele>228.0</ele><time>2026-04-11T08:31:50.293Z</time></trkpt><trkpt lat="45.016045" lon="8.255605"><ele>228.0</ele><time>2026-04-11T08:31:51.293Z</time></trkpt><trkpt lat="45.0159583" lon="8.2555833"><ele>228.0</ele><time>2026-04-11T08:31:52.293Z</time></trkpt><trkpt lat="45.01586" lon="8.255545"><ele>228.0</ele><time>2026-04-11T08:31:53.294Z</time></trkpt><trkpt lat="45.015765" lon="8.2554933"><ele>228.8</ele><time>2026-04-11T08:31:54.293Z</time></trkpt><trkpt lat="45.0156833" lon="8.2554233"><ele>229.60000000000002</ele><time>2026-04-11T08:31:55.293Z</time></trkpt><trkpt lat="45.015615" lon="8.25533"><ele>230.39999999999998</ele><time>2026-04-11T08:31:56.293Z</time></trkpt><trkpt lat="45.0155433" lon="8.2552267"><ele>231.2</ele><time>2026-04-11T08:31:57.293Z</time></trkpt><trkpt lat="45.0154817" lon="8.2551167"><ele>232.0</ele><time>2026-04-11T08:31:58.293Z</time></trkpt><trkpt lat="45.0154133" lon="8.254985"><ele>231.99999999999997</ele><time>2026-04-11T08:31:59.293Z</time></trkpt><trkpt lat="45.01535" lon="8.2548583"><ele>232.0</ele><time>2026-04-11T08:32:00.294Z</time></trkpt><trkpt lat="45.0152983" lon="8.2547533"><ele>232.0</ele><time>2026-04-11T08:32:01.293Z</time></trkpt><trkpt lat="45.0152533" lon="8.2546667"><ele>232.0</ele><time>2026-04-11T08:32:02.293Z</time></trkpt><trkpt lat="45.0152167" lon="8.25459"><ele>231.99999999999997</ele><time>2026-04-11T08:32:03.294Z</time></trkpt><trkpt lat="45.0151567" lon="8.2544767"><ele>232.0</ele><time>2026-04-11T08:32:05.293Z</time></trkpt><trkpt lat="45.0150567" lon="8.254325"><ele>232.0</ele><time>2026-04-11T08:33:31.293Z</time></trkpt><trkpt lat="45.0150033" lon="8.254235"><ele>232.0</ele><time>2026-04-11T08:33:34.292Z</time></trkpt><trkpt lat="45.0149483" lon="8.254175"><ele>232.0</ele><time>2026-04-11T08:33:36.293Z</time></trkpt><trkpt lat="45.0148283" lon="8.2541767"><ele>232.0</ele><time>2026-04-11T08:33:45.292Z</time></trkpt><trkpt lat="45.01471" lon="8.2541933"><ele>232.0</ele><time>2026-04-11T08:33:47.292Z</time></trkpt><trkpt lat="45.01463" lon="8.2541983"><ele>233.39999999999998</ele><time>2026-04-11T08:33:48.292Z</time></trkpt><trkpt lat="45.0145467" lon="8.2541917"><ele>234.79999999999998</ele><time>2026-04-11T08:33:49.292Z</time></trkpt><trkpt lat="45.0143683" lon="8.2541833"><ele>236.2</ele><time>2026-04-11T08:33:51.292Z</time></trkpt><trkpt lat="45.014285" lon="8.2541767"><ele>237.6</ele><time>2026-04-11T08:33:52.292Z</time></trkpt><trkpt lat="45.0142" lon="8.2541767"><ele>239.0</ele><time>2026-04-11T08:33:53.292Z</time></trkpt><trkpt lat="45.0141217" lon="8.2541767"><ele>239.50000000000003</ele><time>2026-04-11T08:33:54.292Z</time></trkpt><trkpt lat="45.0140467" lon="8.254165"><ele>240.0</ele><time>2026-04-11T08:33:55.292Z</time></trkpt><trkpt lat="45.01398" lon="8.2541633"><ele>240.5</ele><time>2026-04-11T08:33:56.292Z</time></trkpt><trkpt lat="45.0138867" lon="8.2541667"><ele>241.0</ele><time>2026-04-11T08:33:58.292Z</time></trkpt><trkpt lat="45.0138183" lon="8.2541333"><ele>241.50000000000003</ele><time>2026-04-11T08:34:00.292Z</time></trkpt><trkpt lat="45.01382" lon="8.254035"><ele>242.0</ele><time>2026-04-11T08:34:02.292Z</time></trkpt><trkpt lat="45.01388" lon="8.25396"><ele>239.0</ele><time>2026-04-11T08:34:04.293Z</time></trkpt><trkpt lat="45.0140067" lon="8.2538917"><ele>236.0</ele><time>2026-04-11T08:34:06.292Z</time></trkpt><trkpt lat="45.0140883" lon="8.2538333"><ele>233.0</ele><time>2026-04-11T08:34:07.292Z</time></trkpt><trkpt lat="45.0143617" lon="8.2535933"><ele>231.75</ele><time>2026-04-11T08:34:10.292Z</time></trkpt><trkpt lat="45.0144717" lon="8.253505"><ele>230.5</ele><time>2026-04-11T08:34:11.292Z</time></trkpt><trkpt lat="45.0145883" lon="8.2534083"><ele>229.25</ele><time>2026-04-11T08:34:12.292Z</time></trkpt><trkpt lat="45.0147" lon="8.2533017"><ele>228.0</ele><time>2026-04-11T08:34:13.292Z</time></trkpt><trkpt lat="45.0148083" lon="8.253205"><ele>226.75</ele><time>2026-04-11T08:34:14.292Z</time></trkpt><trkpt lat="45.0149117" lon="8.253085"><ele>225.5</ele><time>2026-04-11T08:34:15.293Z</time></trkpt><trkpt lat="45.015005" lon="8.2529333"><ele>224.25</ele><time>2026-04-11T08:34:16.292Z</time></trkpt><trkpt lat="45.0150733" lon="8.2527417"><ele>223.0</ele><time>2026-04-11T08:34:17.292Z</time></trkpt><trkpt lat="45.0151167" lon="8.25253"><ele>223.0</ele><time>2026-04-11T08:34:18.292Z</time></trkpt><trkpt lat="45.0151467" lon="8.2523083"><ele>223.0</ele><time>2026-04-11T08:34:19.292Z</time></trkpt><trkpt lat="45.0151783" lon="8.2520883"><ele>223.0</ele><time>2026-04-11T08:34:20.292Z</time></trkpt><trkpt lat="45.0152417" lon="8.2516933"><ele>221.5</ele><time>2026-04-11T08:34:22.293Z</time></trkpt><trkpt lat="45.01527" lon="8.2515117"><ele>220.0</ele><time>2026-04-11T08:34:23.293Z</time></trkpt><trkpt lat="45.01531" lon="8.2513383"><ele>218.5</ele><time>2026-04-11T08:34:24.293Z</time></trkpt><trkpt lat="45.01535" lon="8.2511683"><ele>217.0</ele><time>2026-04-11T08:34:25.293Z</time></trkpt><trkpt lat="45.0154033" lon="8.2510083"><ele>215.25</ele><time>2026-04-11T08:34:26.292Z</time></trkpt><trkpt lat="45.015465" lon="8.2508433"><ele>213.5</ele><time>2026-04-11T08:34:27.292Z</time></trkpt><trkpt lat="45.015535" lon="8.250685"><ele>211.75</ele><time>2026-04-11T08:34:28.293Z</time></trkpt><trkpt lat="45.01561" lon="8.2505233"><ele>210.0</ele><time>2026-04-11T08:34:29.292Z</time></trkpt><trkpt lat="45.015685" lon="8.2503533"><ele>210.75</ele><time>2026-04-11T08:34:30.292Z</time></trkpt><trkpt lat="45.0157517" lon="8.2501817"><ele>211.5</ele><time>2026-04-11T08:34:31.292Z</time></trkpt><trkpt lat="45.0158067" lon="8.250015"><ele>212.25</ele><time>2026-04-11T08:34:32.293Z</time></trkpt><trkpt lat="45.0158683" lon="8.249845"><ele>213.0</ele><time>2026-04-11T08:34:33.292Z</time></trkpt><trkpt lat="45.015925" lon="8.2496767"><ele>213.0</ele><time>2026-04-11T08:34:34.292Z</time></trkpt><trkpt lat="45.015965" lon="8.2495"><ele>213.0</ele><time>2026-04-11T08:34:35.292Z</time></trkpt><trkpt lat="45.0160017" lon="8.2493083"><ele>213.0</ele><time>2026-04-11T08:34:36.292Z</time></trkpt><trkpt lat="45.0160433" lon="8.2491217"><ele>213.0</ele><time>2026-04-11T08:34:37.292Z</time></trkpt><trkpt lat="45.0160817" lon="8.2489467"><ele>212.5</ele><time>2026-04-11T08:34:38.292Z</time></trkpt><trkpt lat="45.0161167" lon="8.2487567"><ele>212.0</ele><time>2026-04-11T08:34:39.293Z</time></trkpt><trkpt lat="45.0161483" lon="8.2485583"><ele>211.5</ele><time>2026-04-11T08:34:40.293Z</time></trkpt><trkpt lat="45.0161633" lon="8.2483617"><ele>211.0</ele><time>2026-04-11T08:34:41.292Z</time></trkpt><trkpt lat="45.0161633" lon="8.24817"><ele>211.33333333333331</ele><time>2026-04-11T08:34:42.293Z</time></trkpt><trkpt lat="45.0161317" lon="8.24796"><ele>211.66666666666669</ele><time>2026-04-11T08:34:43.292Z</time></trkpt><trkpt lat="45.0160917" lon="8.24775"><ele>212.0</ele><time>2026-04-11T08:34:44.293Z</time></trkpt><trkpt lat="45.016055" lon="8.247535"><ele>212.0</ele><time>2026-04-11T08:34:45.292Z</time></trkpt><trkpt lat="45.0159967" lon="8.247325"><ele>212.0</ele><time>2026-04-11T08:34:46.292Z</time></trkpt><trkpt lat="45.015935" lon="8.2471267"><ele>212.0</ele><time>2026-04-11T08:34:47.292Z</time></trkpt><trkpt lat="45.0157983" lon="8.2467417"><ele>210.25</ele><time>2026-04-11T08:34:49.292Z</time></trkpt><trkpt lat="45.0157217" lon="8.2465483"><ele>208.5</ele><time>2026-04-11T08:34:50.292Z</time></trkpt><trkpt lat="45.0156567" lon="8.24636"><ele>206.75</ele><time>2026-04-11T08:34:51.292Z</time></trkpt><trkpt lat="45.01559" lon="8.246185"><ele>205.0</ele><time>2026-04-11T08:34:52.292Z</time></trkpt><trkpt lat="45.015525" lon="8.2460167"><ele>205.0</ele><time>2026-04-11T08:34:53.292Z</time></trkpt><trkpt lat="45.015455" lon="8.2458433"><ele>205.0</ele><time>2026-04-11T08:34:54.292Z</time></trkpt><trkpt lat="45.0153883" lon="8.24567"><ele>205.0</ele><time>2026-04-11T08:34:55.292Z</time></trkpt><trkpt lat="45.0153217" lon="8.2454883"><ele>205.0</ele><time>2026-04-11T08:34:56.293Z</time></trkpt><trkpt lat="45.0152417" lon="8.2453117"><ele>204.75</ele><time>2026-04-11T08:34:57.293Z</time></trkpt><trkpt lat="45.0151717" lon="8.2451367"><ele>204.5</ele><time>2026-04-11T08:34:58.292Z</time></trkpt><trkpt lat="45.0151033" lon="8.2449583"><ele>204.25</ele><time>2026-04-11T08:34:59.292Z</time></trkpt><trkpt lat="45.0150167" lon="8.244795"><ele>204.0</ele><time>2026-04-11T08:35:00.292Z</time></trkpt><trkpt lat="45.0149433" lon="8.2446333"><ele>204.0</ele><time>2026-04-11T08:35:01.293Z</time></trkpt><trkpt lat="45.0148717" lon="8.2444883"><ele>204.0</ele><time>2026-04-11T08:35:02.292Z</time></trkpt><trkpt lat="45.0147933" lon="8.2443417"><ele>204.0</ele><time>2026-04-11T08:35:03.293Z</time></trkpt><trkpt lat="45.0147083" lon="8.2442017"><ele>204.0</ele><time>2026-04-11T08:35:04.292Z</time></trkpt><trkpt lat="45.014565" lon="8.243935"><ele>204.6</ele><time>2026-04-11T08:35:06.292Z</time></trkpt><trkpt lat="45.0144917" lon="8.2438217"><ele>205.2</ele><time>2026-04-11T08:35:07.292Z</time></trkpt><trkpt lat="45.0144183" lon="8.2437033"><ele>205.79999999999998</ele><time>2026-04-11T08:35:08.292Z</time></trkpt><trkpt lat="45.01437" lon="8.2435733"><ele>206.39999999999998</ele><time>2026-04-11T08:35:09.292Z</time></trkpt><trkpt lat="45.014315" lon="8.2434667"><ele>207.0</ele><time>2026-04-11T08:35:10.293Z</time></trkpt><trkpt lat="45.014265" lon="8.2433467"><ele>205.8</ele><time>2026-04-11T08:35:11.292Z</time></trkpt><trkpt lat="45.0141517" lon="8.2431367"><ele>204.6</ele><time>2026-04-11T08:35:13.292Z</time></trkpt><trkpt lat="45.0141083" lon="8.243025"><ele>203.4</ele><time>2026-04-11T08:35:14.293Z</time></trkpt><trkpt lat="45.0140667" lon="8.2429233"><ele>202.20000000000002</ele><time>2026-04-11T08:35:15.292Z</time></trkpt><trkpt lat="45.0140283" lon="8.24283"><ele>201.0</ele><time>2026-04-11T08:35:16.292Z</time></trkpt><trkpt lat="45.01399" lon="8.2427383"><ele>201.0</ele><time>2026-04-11T08:35:17.292Z</time></trkpt><trkpt lat="45.013955" lon="8.2426567"><ele>201.0</ele><time>2026-04-11T08:35:18.292Z</time></trkpt><trkpt lat="45.0139183" lon="8.2425767"><ele>201.0</ele><time>2026-04-11T08:35:19.292Z</time></trkpt><trkpt lat="45.0138917" lon="8.2424933"><ele>201.0</ele><time>2026-04-11T08:35:20.292Z</time></trkpt><trkpt lat="45.0138467" lon="8.2423033"><ele>201.0</ele><time>2026-04-11T08:35:22.293Z</time></trkpt><trkpt lat="45.0138367" lon="8.2421917"><ele>201.0</ele><time>2026-04-11T08:35:23.292Z</time></trkpt><trkpt lat="45.0138317" lon="8.242065"><ele>202.0</ele><time>2026-04-11T08:35:24.293Z</time></trkpt><trkpt lat="45.0138467" lon="8.24194"><ele>203.0</ele><time>2026-04-11T08:35:25.293Z</time></trkpt><trkpt lat="45.0138733" lon="8.241815"><ele>204.0</ele><time>2026-04-11T08:35:26.292Z</time></trkpt><trkpt lat="45.0139133" lon="8.2417017"><ele>205.0</ele><time>2026-04-11T08:35:27.292Z</time></trkpt><trkpt lat="45.0139517" lon="8.241585"><ele>206.0</ele><time>2026-04-11T08:35:28.292Z</time></trkpt><trkpt lat="45.0140283" lon="8.2413483"><ele>207.0</ele><time>2026-04-11T08:35:30.292Z</time></trkpt><trkpt lat="45.01407" lon="8.2412117"><ele>208.0</ele><time>2026-04-11T08:35:31.292Z</time></trkpt><trkpt lat="45.014105" lon="8.2410767"><ele>209.0</ele><time>2026-04-11T08:35:32.292Z</time></trkpt><trkpt lat="45.0141367" lon="8.2409533"><ele>210.0</ele><time>2026-04-11T08:35:33.292Z</time></trkpt><trkpt lat="45.014175" lon="8.2408267"><ele>211.0</ele><time>2026-04-11T08:35:34.292Z</time></trkpt><trkpt lat="45.014215" lon="8.2407083"><ele>207.0</ele><time>2026-04-11T08:35:35.292Z</time></trkpt><trkpt lat="45.0142633" lon="8.2405833"><ele>203.0</ele><time>2026-04-11T08:35:36.292Z</time></trkpt><trkpt lat="45.0143067" lon="8.240465"><ele>199.0</ele><time>2026-04-11T08:35:37.292Z</time></trkpt><trkpt lat="45.0143483" lon="8.24034"><ele>195.0</ele><time>2026-04-11T08:35:38.293Z</time></trkpt><trkpt lat="45.014395" lon="8.240225"><ele>191.0</ele><time>2026-04-11T08:35:39.292Z</time></trkpt><trkpt lat="45.0144467" lon="8.2401067"><ele>191.0</ele><time>2026-04-11T08:35:40.292Z</time></trkpt><trkpt lat="45.014505" lon="8.239995"><ele>191.0</ele><time>2026-04-11T08:35:41.293Z</time></trkpt><trkpt lat="45.0145633" lon="8.23989"><ele>191.0</ele><time>2026-04-11T08:35:42.293Z</time></trkpt><trkpt lat="45.0146283" lon="8.2397833"><ele>191.0</ele><time>2026-04-11T08:35:43.292Z</time></trkpt><trkpt lat="45.0147" lon="8.2396883"><ele>191.0</ele><time>2026-04-11T08:35:44.292Z</time></trkpt><trkpt lat="45.01477" lon="8.2396"><ele>189.0</ele><time>2026-04-11T08:35:45.292Z</time></trkpt><trkpt lat="45.01484" lon="8.2395117"><ele>187.0</ele><time>2026-04-11T08:35:46.293Z</time></trkpt><trkpt lat="45.0149117" lon="8.239415"><ele>185.0</ele><time>2026-04-11T08:35:47.292Z</time></trkpt><trkpt lat="45.0149767" lon="8.2393183"><ele>183.0</ele><time>2026-04-11T08:35:48.292Z</time></trkpt><trkpt lat="45.0150433" lon="8.2392183"><ele>181.0</ele><time>2026-04-11T08:35:49.292Z</time></trkpt><trkpt lat="45.0151033" lon="8.2391217"><ele>179.8</ele><time>2026-04-11T08:35:50.292Z</time></trkpt><trkpt lat="45.0151683" lon="8.2390267"><ele>178.60000000000002</ele><time>2026-04-11T08:35:51.292Z</time></trkpt><trkpt lat="45.0152283" lon="8.2389167"><ele>177.4</ele><time>2026-04-11T08:35:52.292Z</time></trkpt><trkpt lat="45.0152933" lon="8.238815"><ele>176.2</ele><time>2026-04-11T08:35:53.292Z</time></trkpt><trkpt lat="45.015345" lon="8.2387233"><ele>175.0</ele><time>2026-04-11T08:35:54.292Z</time></trkpt><trkpt lat="45.0154033" lon="8.2386217"><ele>174.4</ele><time>2026-04-11T08:35:55.292Z</time></trkpt><trkpt lat="45.0154617" lon="8.2385083"><ele>173.8</ele><time>2026-04-11T08:35:56.293Z</time></trkpt><trkpt lat="45.015515" lon="8.2383933"><ele>173.2</ele><time>2026-04-11T08:35:57.292Z</time></trkpt><trkpt lat="45.0155633" lon="8.2382667"><ele>172.6</ele><time>2026-04-11T08:35:58.292Z</time></trkpt><trkpt lat="45.0156083" lon="8.238135"><ele>172.0</ele><time>2026-04-11T08:35:59.293Z</time></trkpt><trkpt lat="45.01564" lon="8.2380033"><ele>171.5</ele><time>2026-04-11T08:36:00.292Z</time></trkpt><trkpt lat="45.01567" lon="8.23786"><ele>171.0</ele><time>2026-04-11T08:36:01.292Z</time></trkpt><trkpt lat="45.015695" lon="8.2377067"><ele>170.5</ele><time>2026-04-11T08:36:02.292Z</time></trkpt><trkpt lat="45.0157167" lon="8.237545"><ele>170.0</ele><time>2026-04-11T08:36:03.293Z</time></trkpt><trkpt lat="45.01575" lon="8.237385"><ele>169.25</ele><time>2026-04-11T08:36:04.293Z</time></trkpt><trkpt lat="45.0157767" lon="8.237235"><ele>168.5</ele><time>2026-04-11T08:36:05.292Z</time></trkpt><trkpt lat="45.0157933" lon="8.2370733"><ele>167.75</ele><time>2026-04-11T08:36:06.292Z</time></trkpt><trkpt lat="45.0158167" lon="8.2369"><ele>167.0</ele><time>2026-04-11T08:36:07.292Z</time></trkpt><trkpt lat="45.0158383" lon="8.2367383"><ele>166.39999999999998</ele><time>2026-04-11T08:36:08.292Z</time></trkpt><trkpt lat="45.0158683" lon="8.2365833"><ele>165.79999999999998</ele><time>2026-04-11T08:36:09.293Z</time></trkpt><trkpt lat="45.0159" lon="8.2364333"><ele>165.2</ele><time>2026-04-11T08:36:10.292Z</time></trkpt><trkpt lat="45.015945" lon="8.2363133"><ele>164.6</ele><time>2026-04-11T08:36:11.292Z</time></trkpt><trkpt lat="45.0159967" lon="8.2362117"><ele>164.0</ele><time>2026-04-11T08:36:12.292Z</time></trkpt><trkpt lat="45.016045" lon="8.23613"><ele>163.66666666666666</ele><time>2026-04-11T08:36:13.293Z</time></trkpt><trkpt lat="45.0161" lon="8.2360583"><ele>163.33333333333331</ele><time>2026-04-11T08:36:14.293Z</time></trkpt><trkpt lat="45.0161517" lon="8.2359933"><ele>163.0</ele><time>2026-04-11T08:36:15.292Z</time></trkpt><trkpt lat="45.0162367" lon="8.2359017"><ele>162.66666666666666</ele><time>2026-04-11T08:36:17.292Z</time></trkpt><trkpt lat="45.0162983" lon="8.2358317"><ele>162.33333333333334</ele><time>2026-04-11T08:36:19.292Z</time></trkpt><trkpt lat="45.0163517" lon="8.2357333"><ele>162.0</ele><time>2026-04-11T08:36:22.292Z</time></trkpt><trkpt lat="45.0163983" lon="8.2356733"><ele>162.0</ele><time>2026-04-11T08:36:25.292Z</time></trkpt><trkpt lat="45.0164617" lon="8.235645"><ele>162.0</ele><time>2026-04-11T08:36:38.293Z</time></trkpt><trkpt lat="45.0165417" lon="8.2357567"><ele>162.0</ele><time>2026-04-11T08:36:41.292Z</time></trkpt><trkpt lat="45.0165667" lon="8.23585"><ele>162.0</ele><time>2026-04-11T08:36:42.292Z</time></trkpt><trkpt lat="45.0166383" lon="8.2360617"><ele>162.0</ele><time>2026-04-11T08:36:44.292Z</time></trkpt><trkpt lat="45.0166733" lon="8.23618"><ele>162.0</ele><time>2026-04-11T08:36:45.293Z</time></trkpt><trkpt lat="45.0167017" lon="8.236295"><ele>162.0</ele><time>2026-04-11T08:36:46.292Z</time></trkpt><trkpt lat="45.0167417" lon="8.2363967"><ele>162.0</ele><time>2026-04-11T08:36:47.293Z</time></trkpt><trkpt lat="45.0167833" lon="8.2365167"><ele>162.0</ele><time>2026-04-11T08:36:48.293Z</time></trkpt><trkpt lat="45.0168317" lon="8.2366517"><ele>162.0</ele><time>2026-04-11T08:36:49.292Z</time></trkpt><trkpt lat="45.0168817" lon="8.236775"><ele>162.0</ele><time>2026-04-11T08:36:50.293Z</time></trkpt><trkpt lat="45.0169317" lon="8.2368983"><ele>162.0</ele><time>2026-04-11T08:36:51.292Z</time></trkpt><trkpt lat="45.0169733" lon="8.2370183"><ele>162.0</ele><time>2026-04-11T08:36:52.292Z</time></trkpt><trkpt lat="45.01701" lon="8.2371467"><ele>162.0</ele><time>2026-04-11T08:36:53.292Z</time></trkpt><trkpt lat="45.0170367" lon="8.2372783"><ele>162.0</ele><time>2026-04-11T08:36:54.292Z</time></trkpt><trkpt lat="45.0170667" lon="8.2374083"><ele>162.2</ele><time>2026-04-11T08:36:55.292Z</time></trkpt><trkpt lat="45.0171017" lon="8.237535"><ele>162.39999999999998</ele><time>2026-04-11T08:36:56.293Z</time></trkpt><trkpt lat="45.0171467" lon="8.2376517"><ele>162.60000000000002</ele><time>2026-04-11T08:36:57.292Z</time></trkpt><trkpt lat="45.0171917" lon="8.2377667"><ele>162.8</ele><time>2026-04-11T08:36:58.292Z</time></trkpt><trkpt lat="45.0172367" lon="8.237865"><ele>163.0</ele><time>2026-04-11T08:36:59.293Z</time></trkpt><trkpt lat="45.0172883" lon="8.2379583"><ele>163.0</ele><time>2026-04-11T08:37:00.292Z</time></trkpt><trkpt lat="45.0173333" lon="8.2380533"><ele>163.0</ele><time>2026-04-11T08:37:01.292Z</time></trkpt><trkpt lat="45.0173717" lon="8.23814"><ele>163.0</ele><time>2026-04-11T08:37:02.292Z</time></trkpt><trkpt lat="45.0174067" lon="8.2382433"><ele>163.0</ele><time>2026-04-11T08:37:03.293Z</time></trkpt><trkpt lat="45.0174383" lon="8.238345"><ele>163.0</ele><time>2026-04-11T08:37:04.292Z</time></trkpt><trkpt lat="45.01748" lon="8.2384533"><ele>163.0</ele><time>2026-04-11T08:37:05.292Z</time></trkpt><trkpt lat="45.017535" lon="8.2385617"><ele>163.4</ele><time>2026-04-11T08:37:06.293Z</time></trkpt><trkpt lat="45.0175917" lon="8.2386667"><ele>163.8</ele><time>2026-04-11T08:37:07.293Z</time></trkpt><trkpt lat="45.0176417" lon="8.238795"><ele>164.2</ele><time>2026-04-11T08:37:08.292Z</time></trkpt><trkpt lat="45.0176967" lon="8.2389167"><ele>164.6</ele><time>2026-04-11T08:37:09.293Z</time></trkpt><trkpt lat="45.0177433" lon="8.2390333"><ele>165.0</ele><time>2026-04-11T08:37:10.292Z</time></trkpt><trkpt lat="45.0177933" lon="8.2391467"><ele>165.4</ele><time>2026-04-11T08:37:11.293Z</time></trkpt><trkpt lat="45.017845" lon="8.2392617"><ele>165.8</ele><time>2026-04-11T08:37:12.292Z</time></trkpt><trkpt lat="45.0178867" lon="8.23937"><ele>166.2</ele><time>2026-04-11T08:37:13.292Z</time></trkpt><trkpt lat="45.0179267" lon="8.23948"><ele>166.6</ele><time>2026-04-11T08:37:14.292Z</time></trkpt><trkpt lat="45.0179717" lon="8.2395967"><ele>167.0</ele><time>2026-04-11T08:37:15.292Z</time></trkpt><trkpt lat="45.018015" lon="8.239715"><ele>167.2</ele><time>2026-04-11T08:37:16.292Z</time></trkpt><trkpt lat="45.01807" lon="8.2398367"><ele>167.39999999999998</ele><time>2026-04-11T08:37:17.292Z</time></trkpt><trkpt lat="45.0181183" lon="8.239955"><ele>167.60000000000002</ele><time>2026-04-11T08:37:18.292Z</time></trkpt><trkpt lat="45.0181783" lon="8.2400783"><ele>167.8</ele><time>2026-04-11T08:37:19.293Z</time></trkpt><trkpt lat="45.0182317" lon="8.2402017"><ele>168.0</ele><time>2026-04-11T08:37:20.292Z</time></trkpt><trkpt lat="45.0182883" lon="8.2403083"><ele>167.66666666666666</ele><time>2026-04-11T08:37:21.292Z</time></trkpt><trkpt lat="45.0183367" lon="8.2404133"><ele>167.33333333333334</ele><time>2026-04-11T08:37:22.292Z</time></trkpt><trkpt lat="45.0183783" lon="8.2405083"><ele>167.0</ele><time>2026-04-11T08:37:23.293Z</time></trkpt><trkpt lat="45.0184183" lon="8.2406"><ele>166.66666666666669</ele><time>2026-04-11T08:37:24.292Z</time></trkpt><trkpt lat="45.0184467" lon="8.24068"><ele>166.33333333333334</ele><time>2026-04-11T08:37:25.292Z</time></trkpt><trkpt lat="45.01848" lon="8.240795"><ele>166.0</ele><time>2026-04-11T08:37:27.292Z</time></trkpt><trkpt lat="45.018445" lon="8.2409083"><ele>166.66666666666669</ele><time>2026-04-11T08:37:29.292Z</time></trkpt><trkpt lat="45.0183933" lon="8.2409617"><ele>167.33333333333334</ele><time>2026-04-11T08:37:30.292Z</time></trkpt><trkpt lat="45.01834" lon="8.2410167"><ele>168.0</ele><time>2026-04-11T08:37:31.292Z</time></trkpt><trkpt lat="45.0182883" lon="8.2410683"><ele>168.66666666666666</ele><time>2026-04-11T08:37:32.293Z</time></trkpt><trkpt lat="45.01827" lon="8.2411967"><ele>169.33333333333331</ele><time>2026-04-11T08:37:34.292Z</time></trkpt><trkpt lat="45.0183683" lon="8.24135"><ele>170.0</ele><time>2026-04-11T08:37:36.293Z</time></trkpt><trkpt lat="45.0184267" lon="8.24144"><ele>170.2</ele><time>2026-04-11T08:37:37.292Z</time></trkpt><trkpt lat="45.0184883" lon="8.2415333"><ele>170.4</ele><time>2026-04-11T08:37:38.292Z</time></trkpt><trkpt lat="45.01856" lon="8.2416367"><ele>170.60000000000002</ele><time>2026-04-11T08:37:39.292Z</time></trkpt><trkpt lat="45.01863" lon="8.2417483"><ele>170.8</ele><time>2026-04-11T08:37:40.292Z</time></trkpt><trkpt lat="45.0186967" lon="8.2418567"><ele>171.0</ele><time>2026-04-11T08:37:41.293Z</time></trkpt><trkpt lat="45.0187567" lon="8.2419533"><ele>171.0</ele><time>2026-04-11T08:37:42.292Z</time></trkpt><trkpt lat="45.0188267" lon="8.2420633"><ele>171.0</ele><time>2026-04-11T08:37:43.292Z</time></trkpt><trkpt lat="45.018905" lon="8.2421733"><ele>171.0</ele><time>2026-04-11T08:37:44.292Z</time></trkpt><trkpt lat="45.0189783" lon="8.2422817"><ele>171.0</ele><time>2026-04-11T08:37:45.292Z</time></trkpt><trkpt lat="45.019045" lon="8.2423733"><ele>171.0</ele><time>2026-04-11T08:37:46.292Z</time></trkpt><trkpt lat="45.019115" lon="8.2424517"><ele>171.33333333333334</ele><time>2026-04-11T08:37:47.292Z</time></trkpt><trkpt lat="45.0191783" lon="8.2425317"><ele>171.66666666666666</ele><time>2026-04-11T08:37:48.293Z</time></trkpt><trkpt lat="45.01924" lon="8.2426017"><ele>172.0</ele><time>2026-04-11T08:37:49.293Z</time></trkpt><trkpt lat="45.0193067" lon="8.2426833"><ele>172.33333333333331</ele><time>2026-04-11T08:37:50.292Z</time></trkpt><trkpt lat="45.0193783" lon="8.242775"><ele>172.66666666666666</ele><time>2026-04-11T08:37:51.292Z</time></trkpt><trkpt lat="45.0194517" lon="8.2428717"><ele>173.0</ele><time>2026-04-11T08:37:52.292Z</time></trkpt><trkpt lat="45.01953" lon="8.2429733"><ele>173.0</ele><time>2026-04-11T08:37:53.292Z</time></trkpt><trkpt lat="45.0196" lon="8.2430667"><ele>173.0</ele><time>2026-04-11T08:37:54.292Z</time></trkpt><trkpt lat="45.019645" lon="8.2431633"><ele>173.0</ele><time>2026-04-11T08:37:55.292Z</time></trkpt><trkpt lat="45.0196817" lon="8.2432783"><ele>173.0</ele><time>2026-04-11T08:37:56.293Z</time></trkpt><trkpt lat="45.0197067" lon="8.2433967"><ele>173.0</ele><time>2026-04-11T08:37:57.292Z</time></trkpt><trkpt lat="45.0197433" lon="8.2435083"><ele>173.0</ele><time>2026-04-11T08:37:58.292Z</time></trkpt><trkpt lat="45.0197883" lon="8.2435867"><ele>173.16666666666666</ele><time>2026-04-11T08:37:59.292Z</time></trkpt><trkpt lat="45.0198483" lon="8.243655"><ele>173.33333333333331</ele><time>2026-04-11T08:38:00.292Z</time></trkpt><trkpt lat="45.0199117" lon="8.24372"><ele>173.5</ele><time>2026-04-11T08:38:01.293Z</time></trkpt><trkpt lat="45.0199767" lon="8.2438067"><ele>173.66666666666666</ele><time>2026-04-11T08:38:02.293Z</time></trkpt><trkpt lat="45.02004" lon="8.2438767"><ele>173.83333333333334</ele><time>2026-04-11T08:38:03.292Z</time></trkpt><trkpt lat="45.020095" lon="8.24395"><ele>174.0</ele><time>2026-04-11T08:38:04.292Z</time></trkpt><trkpt lat="45.0201483" lon="8.2440217"><ele>174.16666666666666</ele><time>2026-04-11T08:38:05.292Z</time></trkpt><trkpt lat="45.0202017" lon="8.2440833"><ele>174.33333333333334</ele><time>2026-04-11T08:38:06.292Z</time></trkpt><trkpt lat="45.0202567" lon="8.2441417"><ele>174.5</ele><time>2026-04-11T08:38:07.292Z</time></trkpt><trkpt lat="45.0203433" lon="8.24425"><ele>174.66666666666669</ele><time>2026-04-11T08:38:09.292Z</time></trkpt><trkpt lat="45.0204117" lon="8.244315"><ele>174.83333333333334</ele><time>2026-04-11T08:38:13.293Z</time></trkpt><trkpt lat="45.0204867" lon="8.244355"><ele>175.0</ele><time>2026-04-11T08:38:15.293Z</time></trkpt><trkpt lat="45.0205933" lon="8.2444117"><ele>175.0</ele><time>2026-04-11T08:38:17.293Z</time></trkpt><trkpt lat="45.0207117" lon="8.24439"><ele>175.0</ele><time>2026-04-11T08:38:19.292Z</time></trkpt><trkpt lat="45.020765" lon="8.24432"><ele>175.0</ele><time>2026-04-11T08:38:20.292Z</time></trkpt><trkpt lat="45.0208067" lon="8.2442267"><ele>175.0</ele><time>2026-04-11T08:38:21.292Z</time></trkpt><trkpt lat="45.0208517" lon="8.2441183"><ele>175.0</ele><time>2026-04-11T08:38:22.292Z</time></trkpt><trkpt lat="45.0208967" lon="8.2440283"><ele>175.0</ele><time>2026-04-11T08:38:23.292Z</time></trkpt><trkpt lat="45.020935" lon="8.2439433"><ele>174.5</ele><time>2026-04-11T08:38:24.292Z</time></trkpt><trkpt lat="45.0209717" lon="8.2438683"><ele>174.0</ele><time>2026-04-11T08:38:25.292Z</time></trkpt><trkpt lat="45.0210367" lon="8.2437767"><ele>173.5</ele><time>2026-04-11T08:38:27.292Z</time></trkpt><trkpt lat="45.0211133" lon="8.2437867"><ele>173.0</ele><time>2026-04-11T08:38:29.292Z</time></trkpt><trkpt lat="45.0212067" lon="8.2438833"><ele>172.5</ele><time>2026-04-11T08:38:31.292Z</time></trkpt><trkpt lat="45.02126" lon="8.2439467"><ele>172.0</ele><time>2026-04-11T08:38:32.292Z</time></trkpt><trkpt lat="45.021315" lon="8.2440017"><ele>172.0</ele><time>2026-04-11T08:38:33.292Z</time></trkpt><trkpt lat="45.0213717" lon="8.244055"><ele>172.0</ele><time>2026-04-11T08:38:34.291Z</time></trkpt><trkpt lat="45.0214667" lon="8.2441433"><ele>172.0</ele><time>2026-04-11T08:38:36.291Z</time></trkpt><trkpt lat="45.021525" lon="8.2442"><ele>172.0</ele><time>2026-04-11T08:38:37.291Z</time></trkpt><trkpt lat="45.0215867" lon="8.24425"><ele>172.0</ele><time>2026-04-11T08:38:38.291Z</time></trkpt><trkpt lat="45.0216583" lon="8.2443067"><ele>172.0</ele><time>2026-04-11T08:38:39.291Z</time></trkpt><trkpt lat="45.02173" lon="8.24437"><ele>171.66666666666669</ele><time>2026-04-11T08:38:40.291Z</time></trkpt><trkpt lat="45.0218" lon="8.2444283"><ele>171.33333333333334</ele><time>2026-04-11T08:38:41.291Z</time></trkpt><trkpt lat="45.021875" lon="8.2444817"><ele>171.0</ele><time>2026-04-11T08:38:42.292Z</time></trkpt><trkpt lat="45.0219533" lon="8.2445417"><ele>170.66666666666666</ele><time>2026-04-11T08:38:43.292Z</time></trkpt><trkpt lat="45.0220267" lon="8.2446083"><ele>170.33333333333331</ele><time>2026-04-11T08:38:44.291Z</time></trkpt><trkpt lat="45.0221" lon="8.2446717"><ele>170.0</ele><time>2026-04-11T08:38:45.292Z</time></trkpt><trkpt lat="45.0221733" lon="8.24474"><ele>170.8</ele><time>2026-04-11T08:38:46.291Z</time></trkpt><trkpt lat="45.0222533" lon="8.24481"><ele>171.6</ele><time>2026-04-11T08:38:47.291Z</time></trkpt><trkpt lat="45.0223317" lon="8.2448983"><ele>172.39999999999998</ele><time>2026-04-11T08:38:48.291Z</time></trkpt><trkpt lat="45.0224083" lon="8.2449767"><ele>173.2</ele><time>2026-04-11T08:38:49.291Z</time></trkpt><trkpt lat="45.0224933" lon="8.2450517"><ele>174.0</ele><time>2026-04-11T08:38:50.291Z</time></trkpt><trkpt lat="45.0225733" lon="8.24513"><ele>174.2</ele><time>2026-04-11T08:38:51.291Z</time></trkpt><trkpt lat="45.0226517" lon="8.2452033"><ele>174.39999999999998</ele><time>2026-04-11T08:38:52.292Z</time></trkpt><trkpt lat="45.0227283" lon="8.2452883"><ele>174.6</ele><time>2026-04-11T08:38:53.291Z</time></trkpt><trkpt lat="45.0228017" lon="8.2453683"><ele>174.8</ele><time>2026-04-11T08:38:54.291Z</time></trkpt><trkpt lat="45.0228717" lon="8.2454433"><ele>175.0</ele><time>2026-04-11T08:38:55.292Z</time></trkpt><trkpt lat="45.02295" lon="8.2455083"><ele>175.0</ele><time>2026-04-11T08:38:56.291Z</time></trkpt><trkpt lat="45.0230317" lon="8.245565"><ele>175.0</ele><time>2026-04-11T08:38:57.291Z</time></trkpt><trkpt lat="45.023115" lon="8.2456217"><ele>175.0</ele><time>2026-04-11T08:38:58.291Z</time></trkpt><trkpt lat="45.0231967" lon="8.245675"><ele>175.0</ele><time>2026-04-11T08:38:59.292Z</time></trkpt><trkpt lat="45.0232733" lon="8.2457283"><ele>175.0</ele><time>2026-04-11T08:39:00.291Z</time></trkpt><trkpt lat="45.0233467" lon="8.245795"><ele>175.0</ele><time>2026-04-11T08:39:01.291Z</time></trkpt><trkpt lat="45.0234133" lon="8.2458817"><ele>175.75</ele><time>2026-04-11T08:39:02.291Z</time></trkpt><trkpt lat="45.023475" lon="8.2459817"><ele>176.5</ele><time>2026-04-11T08:39:03.291Z</time></trkpt><trkpt lat="45.0235883" lon="8.24622"><ele>177.25</ele><time>2026-04-11T08:39:05.291Z</time></trkpt><trkpt lat="45.0236483" lon="8.2463133"><ele>178.0</ele><time>2026-04-11T08:39:06.291Z</time></trkpt><trkpt lat="45.023715" lon="8.2464083"><ele>178.4</ele><time>2026-04-11T08:39:07.291Z</time></trkpt><trkpt lat="45.0237867" lon="8.2464967"><ele>178.8</ele><time>2026-04-11T08:39:08.292Z</time></trkpt><trkpt lat="45.0238583" lon="8.2465883"><ele>179.2</ele><time>2026-04-11T08:39:09.292Z</time></trkpt><trkpt lat="45.02393" lon="8.246685"><ele>179.6</ele><time>2026-04-11T08:39:10.291Z</time></trkpt><trkpt lat="45.0240083" lon="8.246785"><ele>180.0</ele><time>2026-04-11T08:39:11.291Z</time></trkpt><trkpt lat="45.0240783" lon="8.2468717"><ele>179.8</ele><time>2026-04-11T08:39:12.292Z</time></trkpt><trkpt lat="45.02415" lon="8.2469633"><ele>179.6</ele><time>2026-04-11T08:39:13.291Z</time></trkpt><trkpt lat="45.0242233" lon="8.2470633"><ele>179.39999999999998</ele><time>2026-04-11T08:39:14.291Z</time></trkpt><trkpt lat="45.0243017" lon="8.2471617"><ele>179.2</ele><time>2026-04-11T08:39:15.292Z</time></trkpt><trkpt lat="45.02438" lon="8.2472617"><ele>179.0</ele><time>2026-04-11T08:39:16.292Z</time></trkpt><trkpt lat="45.024455" lon="8.2473683"><ele>179.0</ele><time>2026-04-11T08:39:17.291Z</time></trkpt><trkpt lat="45.0245317" lon="8.2474733"><ele>179.0</ele><time>2026-04-11T08:39:18.291Z</time></trkpt><trkpt lat="45.02461" lon="8.2475783"><ele>179.0</ele><time>2026-04-11T08:39:19.291Z</time></trkpt><trkpt lat="45.0246833" lon="8.247685"><ele>179.0</ele><time>2026-04-11T08:39:20.291Z</time></trkpt><trkpt lat="45.024755" lon="8.2477783"><ele>179.0</ele><time>2026-04-11T08:39:21.291Z</time></trkpt><trkpt lat="45.024825" lon="8.247865"><ele>179.0</ele><time>2026-04-11T08:39:22.291Z</time></trkpt><trkpt lat="45.0249017" lon="8.247965"><ele>179.0</ele><time>2026-04-11T08:39:23.291Z</time></trkpt><trkpt lat="45.0249767" lon="8.24806"><ele>179.0</ele><time>2026-04-11T08:39:24.291Z</time></trkpt><trkpt lat="45.0250517" lon="8.2481667"><ele>179.0</ele><time>2026-04-11T08:39:25.291Z</time></trkpt><trkpt lat="45.02513" lon="8.2482633"><ele>179.0</ele><time>2026-04-11T08:39:26.291Z</time></trkpt><trkpt lat="45.0252083" lon="8.2483633"><ele>179.39999999999998</ele><time>2026-04-11T08:39:27.291Z</time></trkpt><trkpt lat="45.02529" lon="8.2484733"><ele>179.8</ele><time>2026-04-11T08:39:28.292Z</time></trkpt><trkpt lat="45.02537" lon="8.2485717"><ele>180.2</ele><time>2026-04-11T08:39:29.291Z</time></trkpt><trkpt lat="45.02545" lon="8.2486733"><ele>180.60000000000002</ele><time>2026-04-11T08:39:30.291Z</time></trkpt><trkpt lat="45.0255167" lon="8.24878"><ele>181.0</ele><time>2026-04-11T08:39:31.291Z</time></trkpt><trkpt lat="45.0255817" lon="8.248895"><ele>181.60000000000002</ele><time>2026-04-11T08:39:32.291Z</time></trkpt><trkpt lat="45.0256483" lon="8.2490017"><ele>182.2</ele><time>2026-04-11T08:39:33.291Z</time></trkpt><trkpt lat="45.0257167" lon="8.2491117"><ele>182.8</ele><time>2026-04-11T08:39:34.292Z</time></trkpt><trkpt lat="45.0257883" lon="8.2492217"><ele>183.39999999999998</ele><time>2026-04-11T08:39:35.291Z</time></trkpt><trkpt lat="45.0258717" lon="8.2493367"><ele>184.0</ele><time>2026-04-11T08:39:36.291Z</time></trkpt><trkpt lat="45.0259533" lon="8.2494467"><ele>184.0</ele><time>2026-04-11T08:39:37.291Z</time></trkpt><trkpt lat="45.0260267" lon="8.2495317"><ele>184.0</ele><time>2026-04-11T08:39:38.291Z</time></trkpt><trkpt lat="45.02611" lon="8.2496017"><ele>184.0</ele><time>2026-04-11T08:39:39.291Z</time></trkpt><trkpt lat="45.026205" lon="8.2496633"><ele>184.0</ele><time>2026-04-11T08:39:40.291Z</time></trkpt><trkpt lat="45.02631" lon="8.2497183"><ele>184.0</ele><time>2026-04-11T08:39:41.292Z</time></trkpt><trkpt lat="45.0264217" lon="8.2497483"><ele>184.0</ele><time>2026-04-11T08:39:42.291Z</time></trkpt><trkpt lat="45.0265317" lon="8.24978"><ele>184.0</ele><time>2026-04-11T08:39:43.291Z</time></trkpt><trkpt lat="45.0266417" lon="8.2498233"><ele>184.0</ele><time>2026-04-11T08:39:44.291Z</time></trkpt><trkpt lat="45.0267433" lon="8.2498733"><ele>184.0</ele><time>2026-04-11T08:39:45.291Z</time></trkpt><trkpt lat="45.026845" lon="8.249925"><ele>184.0</ele><time>2026-04-11T08:39:46.291Z</time></trkpt><trkpt lat="45.0269433" lon="8.2499817"><ele>186.6</ele><time>2026-04-11T08:39:47.291Z</time></trkpt><trkpt lat="45.0270367" lon="8.2500433"><ele>189.2</ele><time>2026-04-11T08:39:48.291Z</time></trkpt><trkpt lat="45.0271317" lon="8.2501"><ele>191.79999999999998</ele><time>2026-04-11T08:39:49.292Z</time></trkpt><trkpt lat="45.0272183" lon="8.2501667"><ele>194.39999999999998</ele><time>2026-04-11T08:39:50.292Z</time></trkpt><trkpt lat="45.027305" lon="8.2502417"><ele>197.0</ele><time>2026-04-11T08:39:51.291Z</time></trkpt><trkpt lat="45.0273867" lon="8.2503233"><ele>197.0</ele><time>2026-04-11T08:39:52.291Z</time></trkpt><trkpt lat="45.0274717" lon="8.2504167"><ele>197.0</ele><time>2026-04-11T08:39:53.291Z</time></trkpt><trkpt lat="45.0275533" lon="8.2505083"><ele>197.0</ele><time>2026-04-11T08:39:54.291Z</time></trkpt><trkpt lat="45.0276233" lon="8.2506067"><ele>197.0</ele><time>2026-04-11T08:39:55.292Z</time></trkpt><trkpt lat="45.027695" lon="8.2506933"><ele>197.0</ele><time>2026-04-11T08:39:56.292Z</time></trkpt><trkpt lat="45.0277617" lon="8.25078"><ele>199.6</ele><time>2026-04-11T08:39:57.292Z</time></trkpt><trkpt lat="45.0278283" lon="8.2508667"><ele>202.2</ele><time>2026-04-11T08:39:58.291Z</time></trkpt><trkpt lat="45.0279083" lon="8.2509367"><ele>204.8</ele><time>2026-04-11T08:39:59.292Z</time></trkpt><trkpt lat="45.0279883" lon="8.250985"><ele>207.4</ele><time>2026-04-11T08:40:00.292Z</time></trkpt><trkpt lat="45.0280817" lon="8.2510117"><ele>210.0</ele><time>2026-04-11T08:40:01.291Z</time></trkpt><trkpt lat="45.0281867" lon="8.2510283"><ele>210.0</ele><time>2026-04-11T08:40:02.291Z</time></trkpt><trkpt lat="45.028295" lon="8.2510467"><ele>210.0</ele><time>2026-04-11T08:40:03.291Z</time></trkpt><trkpt lat="45.0284067" lon="8.2510567"><ele>210.0</ele><time>2026-04-11T08:40:04.291Z</time></trkpt><trkpt lat="45.02852" lon="8.25105"><ele>210.0</ele><time>2026-04-11T08:40:05.291Z</time></trkpt><trkpt lat="45.0286317" lon="8.25103"><ele>210.0</ele><time>2026-04-11T08:40:06.291Z</time></trkpt><trkpt lat="45.0287383" lon="8.2509967"><ele>211.75</ele><time>2026-04-11T08:40:07.291Z</time></trkpt><trkpt lat="45.0289367" lon="8.2509083"><ele>213.5</ele><time>2026-04-11T08:40:09.291Z</time></trkpt><trkpt lat="45.0290267" lon="8.2508417"><ele>215.25</ele><time>2026-04-11T08:40:10.291Z</time></trkpt><trkpt lat="45.0291117" lon="8.2507733"><ele>217.0</ele><time>2026-04-11T08:40:11.291Z</time></trkpt><trkpt lat="45.0291967" lon="8.250725"><ele>219.33333333333331</ele><time>2026-04-11T08:40:12.291Z</time></trkpt><trkpt lat="45.02927" lon="8.2506567"><ele>221.66666666666666</ele><time>2026-04-11T08:40:13.291Z</time></trkpt><trkpt lat="45.0293317" lon="8.2505783"><ele>224.0</ele><time>2026-04-11T08:40:14.291Z</time></trkpt><trkpt lat="45.0293667" lon="8.250495"><ele>226.33333333333331</ele><time>2026-04-11T08:40:15.291Z</time></trkpt><trkpt lat="45.029405" lon="8.2504067"><ele>228.66666666666666</ele><time>2026-04-11T08:40:17.291Z</time></trkpt><trkpt lat="45.02949" lon="8.2503933"><ele>231.0</ele><time>2026-04-11T08:40:20.292Z</time></trkpt><trkpt lat="45.02956" lon="8.2504033"><ele>231.0</ele><time>2026-04-11T08:40:22.291Z</time></trkpt><trkpt lat="45.02963" lon="8.250355"><ele>231.00000000000003</ele><time>2026-04-11T08:40:36.291Z</time></trkpt><trkpt lat="45.02975" lon="8.2502667"><ele>231.00000000000003</ele><time>2026-04-11T08:40:38.291Z</time></trkpt><trkpt lat="45.02983" lon="8.25024"><ele>231.0</ele><time>2026-04-11T08:40:39.291Z</time></trkpt><trkpt lat="45.0299133" lon="8.2502383"><ele>231.0</ele><time>2026-04-11T08:40:40.292Z</time></trkpt><trkpt lat="45.029985" lon="8.2502433"><ele>232.66666666666666</ele><time>2026-04-11T08:40:41.291Z</time></trkpt><trkpt lat="45.03007" lon="8.2502583"><ele>234.33333333333331</ele><time>2026-04-11T08:40:42.291Z</time></trkpt><trkpt lat="45.0301517" lon="8.2502583"><ele>236.0</ele><time>2026-04-11T08:40:43.291Z</time></trkpt><trkpt lat="45.0302367" lon="8.2502583"><ele>237.66666666666666</ele><time>2026-04-11T08:40:44.291Z</time></trkpt><trkpt lat="45.030325" lon="8.250265"><ele>239.33333333333331</ele><time>2026-04-11T08:40:45.291Z</time></trkpt><trkpt lat="45.0304083" lon="8.2502783"><ele>241.0</ele><time>2026-04-11T08:40:46.292Z</time></trkpt><trkpt lat="45.0304933" lon="8.250285"><ele>241.0</ele><time>2026-04-11T08:40:47.291Z</time></trkpt><trkpt lat="45.03059" lon="8.2502917"><ele>241.00000000000003</ele><time>2026-04-11T08:40:48.291Z</time></trkpt><trkpt lat="45.0306833" lon="8.2503"><ele>241.00000000000003</ele><time>2026-04-11T08:40:49.291Z</time></trkpt><trkpt lat="45.030785" lon="8.2503183"><ele>241.0</ele><time>2026-04-11T08:40:50.291Z</time></trkpt><trkpt lat="45.0308783" lon="8.250335"><ele>241.0</ele><time>2026-04-11T08:40:51.291Z</time></trkpt><trkpt lat="45.0309733" lon="8.25037"><ele>241.0</ele><time>2026-04-11T08:40:52.291Z</time></trkpt><trkpt lat="45.0310667" lon="8.2503917"><ele>241.0</ele><time>2026-04-11T08:40:53.291Z</time></trkpt><trkpt lat="45.0311517" lon="8.25044"><ele>241.0</ele><time>2026-04-11T08:40:54.291Z</time></trkpt><trkpt lat="45.0313367" lon="8.2505083"><ele>241.0</ele><time>2026-04-11T08:40:56.292Z</time></trkpt><trkpt lat="45.0314317" lon="8.2505617"><ele>241.60000000000002</ele><time>2026-04-11T08:40:57.291Z</time></trkpt><trkpt lat="45.031535" lon="8.2506317"><ele>242.20000000000002</ele><time>2026-04-11T08:40:58.292Z</time></trkpt><trkpt lat="45.0316333" lon="8.2506967"><ele>242.79999999999998</ele><time>2026-04-11T08:40:59.291Z</time></trkpt><trkpt lat="45.03173" lon="8.2507667"><ele>243.39999999999998</ele><time>2026-04-11T08:41:00.291Z</time></trkpt><trkpt lat="45.0318267" lon="8.2508417"><ele>244.0</ele><time>2026-04-11T08:41:01.291Z</time></trkpt><trkpt lat="45.0319067" lon="8.2509233"><ele>244.0</ele><time>2026-04-11T08:41:02.291Z</time></trkpt><trkpt lat="45.0319883" lon="8.2510017"><ele>243.99999999999997</ele><time>2026-04-11T08:41:03.292Z</time></trkpt><trkpt lat="45.0320533" lon="8.251105"><ele>243.99999999999997</ele><time>2026-04-11T08:41:04.291Z</time></trkpt><trkpt lat="45.0321133" lon="8.2512133"><ele>244.0</ele><time>2026-04-11T08:41:05.291Z</time></trkpt><trkpt lat="45.032175" lon="8.2513217"><ele>244.0</ele><time>2026-04-11T08:41:06.292Z</time></trkpt><trkpt lat="45.0322467" lon="8.2514167"><ele>243.6</ele><time>2026-04-11T08:41:07.292Z</time></trkpt><trkpt lat="45.0323167" lon="8.25152"><ele>243.2</ele><time>2026-04-11T08:41:08.291Z</time></trkpt><trkpt lat="45.03239" lon="8.251615"><ele>242.79999999999998</ele><time>2026-04-11T08:41:09.291Z</time></trkpt><trkpt lat="45.03246" lon="8.251715"><ele>242.39999999999998</ele><time>2026-04-11T08:41:10.291Z</time></trkpt><trkpt lat="45.0325383" lon="8.2518133"><ele>242.0</ele><time>2026-04-11T08:41:11.291Z</time></trkpt><trkpt lat="45.0326183" lon="8.2519117"><ele>242.8</ele><time>2026-04-11T08:41:12.291Z</time></trkpt><trkpt lat="45.032695" lon="8.2520217"><ele>243.6</ele><time>2026-04-11T08:41:13.291Z</time></trkpt><trkpt lat="45.0327667" lon="8.2521067"><ele>244.40000000000003</ele><time>2026-04-11T08:41:14.291Z</time></trkpt><trkpt lat="45.03284" lon="8.2522033"><ele>245.20000000000002</ele><time>2026-04-11T08:41:15.291Z</time></trkpt><trkpt lat="45.0329117" lon="8.2523033"><ele>246.0</ele><time>2026-04-11T08:41:16.291Z</time></trkpt><trkpt lat="45.032985" lon="8.2524133"><ele>246.60000000000002</ele><time>2026-04-11T08:41:17.291Z</time></trkpt><trkpt lat="45.0330583" lon="8.252515"><ele>247.20000000000002</ele><time>2026-04-11T08:41:18.291Z</time></trkpt><trkpt lat="45.0331267" lon="8.2526333"><ele>247.79999999999998</ele><time>2026-04-11T08:41:19.291Z</time></trkpt><trkpt lat="45.0332" lon="8.2527417"><ele>248.39999999999998</ele><time>2026-04-11T08:41:20.291Z</time></trkpt><trkpt lat="45.0332617" lon="8.25285"><ele>249.0</ele><time>2026-04-11T08:41:21.291Z</time></trkpt><trkpt lat="45.0333383" lon="8.2529433"><ele>250.39999999999998</ele><time>2026-04-11T08:41:22.291Z</time></trkpt><trkpt lat="45.03341" lon="8.2530333"><ele>251.79999999999998</ele><time>2026-04-11T08:41:23.291Z</time></trkpt><trkpt lat="45.03348" lon="8.253135"><ele>253.20000000000002</ele><time>2026-04-11T08:41:24.291Z</time></trkpt><trkpt lat="45.0335583" lon="8.2532367"><ele>254.60000000000002</ele><time>2026-04-11T08:41:25.292Z</time></trkpt><trkpt lat="45.033635" lon="8.2533433"><ele>256.0</ele><time>2026-04-11T08:41:26.291Z</time></trkpt><trkpt lat="45.03371" lon="8.2534583"><ele>256.8</ele><time>2026-04-11T08:41:27.292Z</time></trkpt><trkpt lat="45.0337833" lon="8.2535633"><ele>257.6</ele><time>2026-04-11T08:41:28.291Z</time></trkpt><trkpt lat="45.0338533" lon="8.2536833"><ele>258.4</ele><time>2026-04-11T08:41:29.291Z</time></trkpt><trkpt lat="45.03392" lon="8.2537933"><ele>259.2</ele><time>2026-04-11T08:41:30.291Z</time></trkpt><trkpt lat="45.03399" lon="8.2538917"><ele>260.0</ele><time>2026-04-11T08:41:31.292Z</time></trkpt><trkpt lat="45.0340517" lon="8.2539667"><ele>260.5</ele><time>2026-04-11T08:41:32.292Z</time></trkpt><trkpt lat="45.03413" lon="8.25403"><ele>261.0</ele><time>2026-04-11T08:41:34.292Z</time></trkpt><trkpt lat="45.034165" lon="8.254105"><ele>261.5</ele><time>2026-04-11T08:41:58.291Z</time></trkpt><trkpt lat="45.034245" lon="8.2542367"><ele>262.0</ele><time>2026-04-11T08:42:00.291Z</time></trkpt><trkpt lat="45.03429" lon="8.2543183"><ele>262.5</ele><time>2026-04-11T08:42:01.292Z</time></trkpt><trkpt lat="45.0343383" lon="8.2543967"><ele>263.0</ele><time>2026-04-11T08:42:02.292Z</time></trkpt><trkpt lat="45.0343983" lon="8.2544817"><ele>263.5</ele><time>2026-04-11T08:42:03.292Z</time></trkpt><trkpt lat="45.034445" lon="8.254585"><ele>264.0</ele><time>2026-04-11T08:42:04.291Z</time></trkpt><trkpt lat="45.034485" lon="8.2546983"><ele>264.5</ele><time>2026-04-11T08:42:05.291Z</time></trkpt><trkpt lat="45.034535" lon="8.2548067"><ele>265.0</ele><time>2026-04-11T08:42:06.291Z</time></trkpt><trkpt lat="45.0345767" lon="8.2549067"><ele>265.5</ele><time>2026-04-11T08:42:07.291Z</time></trkpt><trkpt lat="45.03462" lon="8.254995"><ele>266.0</ele><time>2026-04-11T08:42:08.291Z</time></trkpt><trkpt lat="45.0346767" lon="8.2551033"><ele>266.0</ele><time>2026-04-11T08:42:09.291Z</time></trkpt><trkpt lat="45.0347217" lon="8.2551983"><ele>266.0</ele><time>2026-04-11T08:42:10.291Z</time></trkpt><trkpt lat="45.0347683" lon="8.2552933"><ele>266.0</ele><time>2026-04-11T08:42:11.291Z</time></trkpt><trkpt lat="45.0348233" lon="8.2554017"><ele>266.0</ele><time>2026-04-11T08:42:12.291Z</time></trkpt><trkpt lat="45.0348683" lon="8.2555183"><ele>266.0</ele><time>2026-04-11T08:42:13.291Z</time></trkpt><trkpt lat="45.0349133" lon="8.255635"><ele>266.0</ele><time>2026-04-11T08:42:14.291Z</time></trkpt><trkpt lat="45.0349533" lon="8.2557583"><ele>262.8</ele><time>2026-04-11T08:42:15.292Z</time></trkpt><trkpt lat="45.0349933" lon="8.2558767"><ele>259.6</ele><time>2026-04-11T08:42:16.291Z</time></trkpt><trkpt lat="45.0350317" lon="8.25599"><ele>256.4</ele><time>2026-04-11T08:42:17.291Z</time></trkpt><trkpt lat="45.0350833" lon="8.2561"><ele>253.2</ele><time>2026-04-11T08:42:18.292Z</time></trkpt><trkpt lat="45.035145" lon="8.2561883"><ele>250.0</ele><time>2026-04-11T08:42:19.291Z</time></trkpt><trkpt lat="45.0352733" lon="8.2563417"><ele>250.0</ele><time>2026-04-11T08:42:21.292Z</time></trkpt><trkpt lat="45.035345" lon="8.25642"><ele>250.0</ele><time>2026-04-11T08:42:22.291Z</time></trkpt><trkpt lat="45.0354067" lon="8.2565083"><ele>250.0</ele><time>2026-04-11T08:42:23.292Z</time></trkpt><trkpt lat="45.03546" lon="8.2566133"><ele>250.0</ele><time>2026-04-11T08:42:24.292Z</time></trkpt><trkpt lat="45.0355167" lon="8.256745"><ele>250.0</ele><time>2026-04-11T08:42:25.292Z</time></trkpt><trkpt lat="45.0355583" lon="8.2568883"><ele>249.16666666666666</ele><time>2026-04-11T08:42:26.291Z</time></trkpt><trkpt lat="45.035605" lon="8.257015"><ele>248.33333333333331</ele><time>2026-04-11T08:42:27.291Z</time></trkpt><trkpt lat="45.0356533" lon="8.25712"><ele>247.5</ele><time>2026-04-11T08:42:28.291Z</time></trkpt><trkpt lat="45.035705" lon="8.25718"><ele>246.66666666666669</ele><time>2026-04-11T08:42:29.291Z</time></trkpt><trkpt lat="45.0357783" lon="8.25722"><ele>245.83333333333334</ele><time>2026-04-11T08:42:30.291Z</time></trkpt><trkpt lat="45.035855" lon="8.2572317"><ele>245.0</ele><time>2026-04-11T08:42:31.291Z</time></trkpt><trkpt lat="45.035935" lon="8.2572517"><ele>244.8</ele><time>2026-04-11T08:42:32.291Z</time></trkpt><trkpt lat="45.036005" lon="8.2572833"><ele>244.6</ele><time>2026-04-11T08:42:33.292Z</time></trkpt><trkpt lat="45.0361183" lon="8.2573883"><ele>244.39999999999998</ele><time>2026-04-11T08:42:35.291Z</time></trkpt><trkpt lat="45.0361633" lon="8.257455"><ele>244.2</ele><time>2026-04-11T08:42:36.291Z</time></trkpt><trkpt lat="45.036255" lon="8.25765"><ele>244.0</ele><time>2026-04-11T08:42:38.292Z</time></trkpt><trkpt lat="45.036285" lon="8.2577667"><ele>243.39999999999998</ele><time>2026-04-11T08:42:39.291Z</time></trkpt><trkpt lat="45.0363033" lon="8.2578833"><ele>242.79999999999998</ele><time>2026-04-11T08:42:40.292Z</time></trkpt><trkpt lat="45.0363167" lon="8.257995"><ele>242.20000000000002</ele><time>2026-04-11T08:42:41.291Z</time></trkpt><trkpt lat="45.036345" lon="8.2581267"><ele>241.60000000000002</ele><time>2026-04-11T08:42:42.291Z</time></trkpt><trkpt lat="45.0363683" lon="8.2582633"><ele>241.0</ele><time>2026-04-11T08:42:43.291Z</time></trkpt><trkpt lat="45.036395" lon="8.2583983"><ele>240.20000000000002</ele><time>2026-04-11T08:42:44.291Z</time></trkpt><trkpt lat="45.03643" lon="8.25853"><ele>239.40000000000003</ele><time>2026-04-11T08:42:45.291Z</time></trkpt><trkpt lat="45.0364583" lon="8.2586533"><ele>238.6</ele><time>2026-04-11T08:42:46.292Z</time></trkpt><trkpt lat="45.036495" lon="8.2587717"><ele>237.8</ele><time>2026-04-11T08:42:47.292Z</time></trkpt><trkpt lat="45.0365433" lon="8.2588817"><ele>237.0</ele><time>2026-04-11T08:42:48.292Z</time></trkpt><trkpt lat="45.0365883" lon="8.2589883"><ele>237.39999999999998</ele><time>2026-04-11T08:42:49.291Z</time></trkpt><trkpt lat="45.0366333" lon="8.2590967"><ele>237.79999999999998</ele><time>2026-04-11T08:42:50.291Z</time></trkpt><trkpt lat="45.0366817" lon="8.2592017"><ele>238.2</ele><time>2026-04-11T08:42:51.292Z</time></trkpt><trkpt lat="45.036735" lon="8.25931"><ele>238.6</ele><time>2026-04-11T08:42:52.291Z</time></trkpt><trkpt lat="45.0367867" lon="8.2594267"><ele>239.0</ele><time>2026-04-11T08:42:53.292Z</time></trkpt><trkpt lat="45.03683" lon="8.2595417"><ele>239.00000000000003</ele><time>2026-04-11T08:42:54.292Z</time></trkpt><trkpt lat="45.0368683" lon="8.2596567"><ele>239.0</ele><time>2026-04-11T08:42:55.291Z</time></trkpt><trkpt lat="45.036905" lon="8.2597717"><ele>239.0</ele><time>2026-04-11T08:42:56.291Z</time></trkpt><trkpt lat="45.0369533" lon="8.25988"><ele>239.0</ele><time>2026-04-11T08:42:57.292Z</time></trkpt><trkpt lat="45.0369917" lon="8.2599867"><ele>239.00000000000003</ele><time>2026-04-11T08:42:58.291Z</time></trkpt><trkpt lat="45.0370317" lon="8.2601083"><ele>239.0</ele><time>2026-04-11T08:42:59.291Z</time></trkpt><trkpt lat="45.0370717" lon="8.2602367"><ele>238.2</ele><time>2026-04-11T08:43:00.291Z</time></trkpt><trkpt lat="45.037115" lon="8.2603617"><ele>237.39999999999998</ele><time>2026-04-11T08:43:01.291Z</time></trkpt><trkpt lat="45.0371533" lon="8.2604983"><ele>236.6</ele><time>2026-04-11T08:43:02.291Z</time></trkpt><trkpt lat="45.03719" lon="8.2606217"><ele>235.8</ele><time>2026-04-11T08:43:03.291Z</time></trkpt><trkpt lat="45.0372317" lon="8.2607483"><ele>235.0</ele><time>2026-04-11T08:43:04.292Z</time></trkpt><trkpt lat="45.0372767" lon="8.2608717"><ele>234.49999999999997</ele><time>2026-04-11T08:43:05.291Z</time></trkpt><trkpt lat="45.0373083" lon="8.2609933"><ele>234.0</ele><time>2026-04-11T08:43:06.292Z</time></trkpt><trkpt lat="45.0373517" lon="8.2611067"><ele>233.5</ele><time>2026-04-11T08:43:07.291Z</time></trkpt><trkpt lat="45.0373967" lon="8.2612217"><ele>233.0</ele><time>2026-04-11T08:43:08.291Z</time></trkpt><trkpt lat="45.037445" lon="8.2613083"><ele>232.49999999999997</ele><time>2026-04-11T08:43:09.291Z</time></trkpt><trkpt lat="45.0374883" lon="8.2613733"><ele>232.0</ele><time>2026-04-11T08:43:10.291Z</time></trkpt><trkpt lat="45.03755" lon="8.261435"><ele>232.8</ele><time>2026-04-11T08:43:11.291Z</time></trkpt><trkpt lat="45.0376317" lon="8.2614917"><ele>233.6</ele><time>2026-04-11T08:43:12.291Z</time></trkpt><trkpt lat="45.037715" lon="8.2615433"><ele>234.40000000000003</ele><time>2026-04-11T08:43:13.291Z</time></trkpt><trkpt lat="45.0377967" lon="8.261605"><ele>235.20000000000002</ele><time>2026-04-11T08:43:14.291Z</time></trkpt><trkpt lat="45.0378683" lon="8.2616783"><ele>236.0</ele><time>2026-04-11T08:43:15.292Z</time></trkpt><trkpt lat="45.03793" lon="8.2617817"><ele>236.0</ele><time>2026-04-11T08:43:16.292Z</time></trkpt><trkpt lat="45.037985" lon="8.2618883"><ele>236.00000000000003</ele><time>2026-04-11T08:43:17.292Z</time></trkpt><trkpt lat="45.03804" lon="8.261995"><ele>236.00000000000003</ele><time>2026-04-11T08:43:18.291Z</time></trkpt><trkpt lat="45.0380967" lon="8.2621067"><ele>236.0</ele><time>2026-04-11T08:43:19.291Z</time></trkpt><trkpt lat="45.038155" lon="8.26223"><ele>236.0</ele><time>2026-04-11T08:43:20.291Z</time></trkpt><trkpt lat="45.0382033" lon="8.2623633"><ele>237.5</ele><time>2026-04-11T08:43:21.291Z</time></trkpt><trkpt lat="45.0383067" lon="8.2626"><ele>239.0</ele><time>2026-04-11T08:43:23.291Z</time></trkpt><trkpt lat="45.0383567" lon="8.2627133"><ele>240.5</ele><time>2026-04-11T08:43:24.291Z</time></trkpt><trkpt lat="45.0384083" lon="8.262825"><ele>242.0</ele><time>2026-04-11T08:43:25.292Z</time></trkpt><trkpt lat="45.0384533" lon="8.2629233"><ele>242.00000000000003</ele><time>2026-04-11T08:43:26.291Z</time></trkpt><trkpt lat="45.0384933" lon="8.26301"><ele>242.0</ele><time>2026-04-11T08:43:27.291Z</time></trkpt><trkpt lat="45.0385383" lon="8.2630883"><ele>242.0</ele><time>2026-04-11T08:43:28.291Z</time></trkpt><trkpt lat="45.038575" lon="8.26317"><ele>242.0</ele><time>2026-04-11T08:43:29.291Z</time></trkpt><trkpt lat="45.0386333" lon="8.2633067"><ele>242.00000000000003</ele><time>2026-04-11T08:43:31.291Z</time></trkpt><trkpt lat="45.03869" lon="8.263445"><ele>242.0</ele><time>2026-04-11T08:43:33.291Z</time></trkpt><trkpt lat="45.0387333" lon="8.2636133"><ele>242.00000000000003</ele><time>2026-04-11T08:43:35.292Z</time></trkpt><trkpt lat="45.0387417" lon="8.26371"><ele>242.0</ele><time>2026-04-11T08:43:36.291Z</time></trkpt><trkpt lat="45.0387433" lon="8.2638183"><ele>242.0</ele><time>2026-04-11T08:43:37.291Z</time></trkpt><trkpt lat="45.038745" lon="8.2639133"><ele>242.0</ele><time>2026-04-11T08:43:38.29Z</time></trkpt><trkpt lat="45.03876" lon="8.26402"><ele>242.00000000000003</ele><time>2026-04-11T08:43:39.29Z</time></trkpt><trkpt lat="45.038765" lon="8.2641367"><ele>242.0</ele><time>2026-04-11T08:43:40.291Z</time></trkpt><trkpt lat="45.0387633" lon="8.2642617"><ele>241.0</ele><time>2026-04-11T08:43:41.29Z</time></trkpt><trkpt lat="45.0387533" lon="8.2644033"><ele>240.0</ele><time>2026-04-11T08:43:42.291Z</time></trkpt><trkpt lat="45.0387467" lon="8.2645383"><ele>239.0</ele><time>2026-04-11T08:43:43.29Z</time></trkpt><trkpt lat="45.0387567" lon="8.2646633"><ele>238.0</ele><time>2026-04-11T08:43:44.291Z</time></trkpt><trkpt lat="45.03878" lon="8.2648033"><ele>237.0</ele><time>2026-04-11T08:43:45.29Z</time></trkpt><trkpt lat="45.0388233" lon="8.2649283"><ele>236.0</ele><time>2026-04-11T08:43:46.29Z</time></trkpt><trkpt lat="45.038885" lon="8.2650517"><ele>235.0</ele><time>2026-04-11T08:43:47.29Z</time></trkpt><trkpt lat="45.0389433" lon="8.2651567"><ele>234.0</ele><time>2026-04-11T08:43:48.291Z</time></trkpt><trkpt lat="45.0390017" lon="8.265265"><ele>233.0</ele><time>2026-04-11T08:43:49.291Z</time></trkpt><trkpt lat="45.0390583" lon="8.2653833"><ele>232.0</ele><time>2026-04-11T08:43:50.29Z</time></trkpt><trkpt lat="45.0391167" lon="8.265495"><ele>231.39999999999998</ele><time>2026-04-11T08:43:51.291Z</time></trkpt><trkpt lat="45.03916" lon="8.2656117"><ele>230.79999999999998</ele><time>2026-04-11T08:43:52.29Z</time></trkpt><trkpt lat="45.0392017" lon="8.265735"><ele>230.2</ele><time>2026-04-11T08:43:53.29Z</time></trkpt><trkpt lat="45.0392333" lon="8.2658667"><ele>229.6</ele><time>2026-04-11T08:43:54.29Z</time></trkpt><trkpt lat="45.0392517" lon="8.2659933"><ele>229.0</ele><time>2026-04-11T08:43:55.29Z</time></trkpt><trkpt lat="45.0392683" lon="8.266115"><ele>227.79999999999998</ele><time>2026-04-11T08:43:56.291Z</time></trkpt><trkpt lat="45.039285" lon="8.26623"><ele>226.59999999999997</ele><time>2026-04-11T08:43:57.291Z</time></trkpt><trkpt lat="45.0393033" lon="8.2663417"><ele>225.4</ele><time>2026-04-11T08:43:58.29Z</time></trkpt><trkpt lat="45.039345" lon="8.2665"><ele>224.2</ele><time>2026-04-11T08:44:00.29Z</time></trkpt><trkpt lat="45.0393733" lon="8.266595"><ele>223.0</ele><time>2026-04-11T08:44:02.29Z</time></trkpt><trkpt lat="45.0394133" lon="8.2667167"><ele>223.0</ele><time>2026-04-11T08:44:05.291Z</time></trkpt><trkpt lat="45.0394467" lon="8.2668083"><ele>223.0</ele><time>2026-04-11T08:44:08.29Z</time></trkpt><trkpt lat="45.0394867" lon="8.2667383"><ele>223.0</ele><time>2026-04-11T08:44:25.291Z</time></trkpt><trkpt lat="45.0394883" lon="8.2666417"><ele>223.0</ele><time>2026-04-11T08:44:48.29Z</time></trkpt><trkpt lat="45.03954" lon="8.2665767"><ele>223.0</ele><time>2026-04-11T08:44:50.291Z</time></trkpt><trkpt lat="45.039635" lon="8.2665233"><ele>223.0</ele><time>2026-04-11T08:44:52.291Z</time></trkpt><trkpt lat="45.0396967" lon="8.2664767"><ele>223.0</ele><time>2026-04-11T08:44:53.291Z</time></trkpt><trkpt lat="45.03977" lon="8.2664067"><ele>223.0</ele><time>2026-04-11T08:44:54.291Z</time></trkpt><trkpt lat="45.03987" lon="8.2663083"><ele>223.0</ele><time>2026-04-11T08:44:55.291Z</time></trkpt><trkpt lat="45.0399583" lon="8.2662217"><ele>223.0</ele><time>2026-04-11T08:44:56.29Z</time></trkpt><trkpt lat="45.0400433" lon="8.2661417"><ele>223.0</ele><time>2026-04-11T08:44:57.29Z</time></trkpt><trkpt lat="45.0401317" lon="8.2660633"><ele>223.0</ele><time>2026-04-11T08:44:58.291Z</time></trkpt><trkpt lat="45.0402167" lon="8.265995"><ele>225.0</ele><time>2026-04-11T08:44:59.29Z</time></trkpt><trkpt lat="45.040305" lon="8.26594"><ele>227.0</ele><time>2026-04-11T08:45:00.29Z</time></trkpt><trkpt lat="45.0403933" lon="8.2658867"><ele>229.0</ele><time>2026-04-11T08:45:01.29Z</time></trkpt><trkpt lat="45.040475" lon="8.2658467"><ele>231.0</ele><time>2026-04-11T08:45:02.29Z</time></trkpt><trkpt lat="45.0405633" lon="8.2658117"><ele>233.0</ele><time>2026-04-11T08:45:03.29Z</time></trkpt><trkpt lat="45.040655" lon="8.2657767"><ele>233.00000000000003</ele><time>2026-04-11T08:45:04.29Z</time></trkpt><trkpt lat="45.0407417" lon="8.26575"><ele>233.0</ele><time>2026-04-11T08:45:05.29Z</time></trkpt><trkpt lat="45.0408233" lon="8.2657133"><ele>233.0</ele><time>2026-04-11T08:45:06.29Z</time></trkpt><trkpt lat="45.0409" lon="8.2656467"><ele>233.0</ele><time>2026-04-11T08:45:07.29Z</time></trkpt><trkpt lat="45.0409467" lon="8.2655517"><ele>233.00000000000003</ele><time>2026-04-11T08:45:08.29Z</time></trkpt><trkpt lat="45.040975" lon="8.2654583"><ele>233.0</ele><time>2026-04-11T08:45:09.291Z</time></trkpt><trkpt lat="45.0410033" lon="8.2653617"><ele>233.0</ele><time>2026-04-11T08:45:10.29Z</time></trkpt><trkpt lat="45.0410333" lon="8.265265"><ele>233.0</ele><time>2026-04-11T08:45:11.29Z</time></trkpt><trkpt lat="45.0411017" lon="8.26507"><ele>233.0</ele><time>2026-04-11T08:45:13.29Z</time></trkpt><trkpt lat="45.0411433" lon="8.264975"><ele>233.0</ele><time>2026-04-11T08:45:14.29Z</time></trkpt><trkpt lat="45.04119" lon="8.2648717"><ele>233.0</ele><time>2026-04-11T08:45:15.29Z</time></trkpt><trkpt lat="45.0412417" lon="8.2647767"><ele>233.00000000000003</ele><time>2026-04-11T08:45:16.29Z</time></trkpt><trkpt lat="45.041295" lon="8.2646867"><ele>233.0</ele><time>2026-04-11T08:45:17.29Z</time></trkpt><trkpt lat="45.0413533" lon="8.2646033"><ele>233.0</ele><time>2026-04-11T08:45:18.291Z</time></trkpt><trkpt lat="45.0414183" lon="8.264525"><ele>233.0</ele><time>2026-04-11T08:45:19.29Z</time></trkpt><trkpt lat="45.041485" lon="8.2644283"><ele>233.00000000000003</ele><time>2026-04-11T08:45:20.29Z</time></trkpt><trkpt lat="45.041555" lon="8.2643483"><ele>233.0</ele><time>2026-04-11T08:45:21.29Z</time></trkpt><trkpt lat="45.0416183" lon="8.264275"><ele>233.83333333333334</ele><time>2026-04-11T08:45:22.29Z</time></trkpt><trkpt lat="45.041695" lon="8.2642"><ele>234.66666666666669</ele><time>2026-04-11T08:45:23.29Z</time></trkpt><trkpt lat="45.0417667" lon="8.2641167"><ele>235.5</ele><time>2026-04-11T08:45:24.29Z</time></trkpt><trkpt lat="45.041835" lon="8.2640367"><ele>236.33333333333331</ele><time>2026-04-11T08:45:25.291Z</time></trkpt><trkpt lat="45.041905" lon="8.2639583"><ele>237.16666666666666</ele><time>2026-04-11T08:45:26.29Z</time></trkpt><trkpt lat="45.0419683" lon="8.263885"><ele>238.0</ele><time>2026-04-11T08:45:27.29Z</time></trkpt><trkpt lat="45.0420433" lon="8.2638233"><ele>237.99999999999997</ele><time>2026-04-11T08:45:28.29Z</time></trkpt><trkpt lat="45.042115" lon="8.2637667"><ele>238.0</ele><time>2026-04-11T08:45:29.291Z</time></trkpt><trkpt lat="45.0421817" lon="8.2637083"><ele>238.0</ele><time>2026-04-11T08:45:30.29Z</time></trkpt><trkpt lat="45.0422467" lon="8.2636383"><ele>238.0</ele><time>2026-04-11T08:45:31.29Z</time></trkpt><trkpt lat="45.0423083" lon="8.26356"><ele>237.99999999999997</ele><time>2026-04-11T08:45:32.29Z</time></trkpt><trkpt lat="45.042365" lon="8.2634667"><ele>238.0</ele><time>2026-04-11T08:45:33.29Z</time></trkpt><trkpt lat="45.04243" lon="8.26336"><ele>239.0</ele><time>2026-04-11T08:45:34.29Z</time></trkpt><trkpt lat="45.0424967" lon="8.263255"><ele>240.0</ele><time>2026-04-11T08:45:35.29Z</time></trkpt><trkpt lat="45.0425583" lon="8.2631433"><ele>241.0</ele><time>2026-04-11T08:45:36.291Z</time></trkpt><trkpt lat="45.042615" lon="8.2630267"><ele>242.0</ele><time>2026-04-11T08:45:37.29Z</time></trkpt><trkpt lat="45.0426667" lon="8.2629033"><ele>243.0</ele><time>2026-04-11T08:45:38.29Z</time></trkpt><trkpt lat="45.0427183" lon="8.26278"><ele>243.0</ele><time>2026-04-11T08:45:39.29Z</time></trkpt><trkpt lat="45.0427767" lon="8.2626533"><ele>243.0</ele><time>2026-04-11T08:45:40.29Z</time></trkpt><trkpt lat="45.0428367" lon="8.2625283"><ele>243.0</ele><time>2026-04-11T08:45:41.291Z</time></trkpt><trkpt lat="45.042885" lon="8.2623933"><ele>243.0</ele><time>2026-04-11T08:45:42.29Z</time></trkpt><trkpt lat="45.0429433" lon="8.2622783"><ele>243.0</ele><time>2026-04-11T08:45:43.29Z</time></trkpt><trkpt lat="45.0430033" lon="8.2621783"><ele>241.8</ele><time>2026-04-11T08:45:44.291Z</time></trkpt><trkpt lat="45.0430683" lon="8.2620883"><ele>240.60000000000002</ele><time>2026-04-11T08:45:45.29Z</time></trkpt><trkpt lat="45.0431483" lon="8.262015"><ele>239.39999999999998</ele><time>2026-04-11T08:45:46.29Z</time></trkpt><trkpt lat="45.04323" lon="8.2619467"><ele>238.2</ele><time>2026-04-11T08:45:47.29Z</time></trkpt><trkpt lat="45.0433167" lon="8.2618867"><ele>237.0</ele><time>2026-04-11T08:45:48.291Z</time></trkpt><trkpt lat="45.0434067" lon="8.2618317"><ele>239.39999999999998</ele><time>2026-04-11T08:45:49.291Z</time></trkpt><trkpt lat="45.0434967" lon="8.2617917"><ele>241.79999999999998</ele><time>2026-04-11T08:45:50.29Z</time></trkpt><trkpt lat="45.0435883" lon="8.2617533"><ele>244.2</ele><time>2026-04-11T08:45:51.29Z</time></trkpt><trkpt lat="45.043675" lon="8.2617233"><ele>246.6</ele><time>2026-04-11T08:45:52.29Z</time></trkpt><trkpt lat="45.0437617" lon="8.2616933"><ele>249.0</ele><time>2026-04-11T08:45:53.29Z</time></trkpt><trkpt lat="45.043855" lon="8.261665"><ele>249.0</ele><time>2026-04-11T08:45:54.29Z</time></trkpt><trkpt lat="45.0439483" lon="8.2616433"><ele>248.99999999999997</ele><time>2026-04-11T08:45:55.29Z</time></trkpt><trkpt lat="45.0440433" lon="8.2616133"><ele>248.99999999999997</ele><time>2026-04-11T08:45:56.29Z</time></trkpt><trkpt lat="45.0441367" lon="8.261575"><ele>249.0</ele><time>2026-04-11T08:45:57.29Z</time></trkpt><trkpt lat="45.0442283" lon="8.26153"><ele>249.0</ele><time>2026-04-11T08:45:58.291Z</time></trkpt><trkpt lat="45.04432" lon="8.2614817"><ele>249.39999999999998</ele><time>2026-04-11T08:45:59.29Z</time></trkpt><trkpt lat="45.0444067" lon="8.2614233"><ele>249.79999999999998</ele><time>2026-04-11T08:46:00.291Z</time></trkpt><trkpt lat="45.044485" lon="8.261355"><ele>250.20000000000002</ele><time>2026-04-11T08:46:01.291Z</time></trkpt><trkpt lat="45.0445567" lon="8.26128"><ele>250.60000000000002</ele><time>2026-04-11T08:46:02.29Z</time></trkpt><trkpt lat="45.0446283" lon="8.2611867"><ele>251.0</ele><time>2026-04-11T08:46:03.29Z</time></trkpt><trkpt lat="45.0446983" lon="8.2611033"><ele>251.0</ele><time>2026-04-11T08:46:04.29Z</time></trkpt><trkpt lat="45.0447717" lon="8.2610017"><ele>251.00000000000003</ele><time>2026-04-11T08:46:05.29Z</time></trkpt><trkpt lat="45.04484" lon="8.2608933"><ele>251.00000000000003</ele><time>2026-04-11T08:46:06.29Z</time></trkpt><trkpt lat="45.0448983" lon="8.2607767"><ele>251.0</ele><time>2026-04-11T08:46:07.29Z</time></trkpt><trkpt lat="45.0449433" lon="8.2606583"><ele>251.0</ele><time>2026-04-11T08:46:08.29Z</time></trkpt><trkpt lat="45.0449933" lon="8.26054"><ele>252.60000000000002</ele><time>2026-04-11T08:46:09.29Z</time></trkpt><trkpt lat="45.04505" lon="8.2604183"><ele>254.20000000000002</ele><time>2026-04-11T08:46:10.29Z</time></trkpt><trkpt lat="45.04511" lon="8.2602917"><ele>255.79999999999998</ele><time>2026-04-11T08:46:11.291Z</time></trkpt><trkpt lat="45.045165" lon="8.2601783"><ele>257.4</ele><time>2026-04-11T08:46:12.29Z</time></trkpt><trkpt lat="45.0452167" lon="8.2600817"><ele>259.0</ele><time>2026-04-11T08:46:13.291Z</time></trkpt><trkpt lat="45.0452583" lon="8.259985"><ele>259.0</ele><time>2026-04-11T08:46:14.29Z</time></trkpt><trkpt lat="45.045305" lon="8.2598933"><ele>259.0</ele><time>2026-04-11T08:46:15.29Z</time></trkpt><trkpt lat="45.0453583" lon="8.2597817"><ele>259.0</ele><time>2026-04-11T08:46:16.29Z</time></trkpt><trkpt lat="45.0454117" lon="8.2596783"><ele>259.0</ele><time>2026-04-11T08:46:17.29Z</time></trkpt><trkpt lat="45.0454667" lon="8.25957"><ele>259.0</ele><time>2026-04-11T08:46:18.29Z</time></trkpt><trkpt lat="45.0455233" lon="8.2594533"><ele>258.0</ele><time>2026-04-11T08:46:19.291Z</time></trkpt><trkpt lat="45.0455783" lon="8.259345"><ele>257.0</ele><time>2026-04-11T08:46:20.29Z</time></trkpt><trkpt lat="45.04563" lon="8.25923"><ele>255.99999999999997</ele><time>2026-04-11T08:46:21.29Z</time></trkpt><trkpt lat="45.0456717" lon="8.2591133"><ele>255.0</ele><time>2026-04-11T08:46:22.291Z</time></trkpt><trkpt lat="45.0457183" lon="8.2589933"><ele>254.0</ele><time>2026-04-11T08:46:23.29Z</time></trkpt><trkpt lat="45.0457667" lon="8.2588683"><ele>254.79999999999998</ele><time>2026-04-11T08:46:24.29Z</time></trkpt><trkpt lat="45.04581" lon="8.2587333"><ele>255.59999999999997</ele><time>2026-04-11T08:46:25.29Z</time></trkpt><trkpt lat="45.0458533" lon="8.2586167"><ele>256.4</ele><time>2026-04-11T08:46:26.29Z</time></trkpt><trkpt lat="45.04591" lon="8.2584883"><ele>257.2</ele><time>2026-04-11T08:46:27.29Z</time></trkpt><trkpt lat="45.0459633" lon="8.2583633"><ele>258.0</ele><time>2026-04-11T08:46:28.29Z</time></trkpt><trkpt lat="45.0460067" lon="8.2582467"><ele>258.0</ele><time>2026-04-11T08:46:29.29Z</time></trkpt><trkpt lat="45.0460467" lon="8.2581567"><ele>258.0</ele><time>2026-04-11T08:46:30.29Z</time></trkpt><trkpt lat="45.0460833" lon="8.2580783"><ele>258.0</ele><time>2026-04-11T08:46:31.29Z</time></trkpt><trkpt lat="45.0461367" lon="8.2579167"><ele>258.0</ele><time>2026-04-11T08:46:33.29Z</time></trkpt><trkpt lat="45.0461383" lon="8.25782"><ele>258.0</ele><time>2026-04-11T08:46:34.29Z</time></trkpt><trkpt lat="45.0461333" lon="8.2577117"><ele>258.0</ele><time>2026-04-11T08:46:35.29Z</time></trkpt><trkpt lat="45.046135" lon="8.2575983"><ele>257.1666666666667</ele><time>2026-04-11T08:46:36.29Z</time></trkpt><trkpt lat="45.0461333" lon="8.2574917"><ele>256.3333333333333</ele><time>2026-04-11T08:46:37.29Z</time></trkpt><trkpt lat="45.046135" lon="8.2573933"><ele>255.5</ele><time>2026-04-11T08:46:38.29Z</time></trkpt><trkpt lat="45.046135" lon="8.25724"><ele>254.66666666666666</ele><time>2026-04-11T08:46:40.29Z</time></trkpt><trkpt lat="45.0461283" lon="8.25715"><ele>253.83333333333331</ele><time>2026-04-11T08:46:42.29Z</time></trkpt><trkpt lat="45.0461267" lon="8.2569983"><ele>253.0</ele><time>2026-04-11T08:46:44.291Z</time></trkpt><trkpt lat="45.0461133" lon="8.256895"><ele>253.0</ele><time>2026-04-11T08:46:45.29Z</time></trkpt><trkpt lat="45.0460967" lon="8.2567783"><ele>253.0</ele><time>2026-04-11T08:46:46.29Z</time></trkpt><trkpt lat="45.0460683" lon="8.25665"><ele>253.0</ele><time>2026-04-11T08:46:47.29Z</time></trkpt><trkpt lat="45.0460233" lon="8.2565183"><ele>253.0</ele><time>2026-04-11T08:46:48.29Z</time></trkpt><trkpt lat="45.045965" lon="8.2563667"><ele>253.0</ele><time>2026-04-11T08:46:49.291Z</time></trkpt><trkpt lat="45.0458917" lon="8.2562317"><ele>252.33333333333331</ele><time>2026-04-11T08:46:50.29Z</time></trkpt><trkpt lat="45.0456683" lon="8.25602"><ele>251.66666666666669</ele><time>2026-04-11T08:46:52.29Z</time></trkpt><trkpt lat="45.0455383" lon="8.25593"><ele>251.0</ele><time>2026-04-11T08:46:53.29Z</time></trkpt><trkpt lat="45.0454067" lon="8.2558667"><ele>251.0</ele><time>2026-04-11T08:46:54.29Z</time></trkpt><trkpt lat="45.04529" lon="8.2558333"><ele>251.0</ele><time>2026-04-11T08:46:55.29Z</time></trkpt><trkpt lat="45.04517" lon="8.2558167"><ele>251.0</ele><time>2026-04-11T08:46:56.291Z</time></trkpt><trkpt lat="45.045045" lon="8.2558383"><ele>251.0</ele><time>2026-04-11T08:46:57.29Z</time></trkpt><trkpt lat="45.04492" lon="8.2558633"><ele>252.25</ele><time>2026-04-11T08:46:58.29Z</time></trkpt><trkpt lat="45.0448" lon="8.255885"><ele>253.5</ele><time>2026-04-11T08:46:59.29Z</time></trkpt><trkpt lat="45.0446867" lon="8.2558717"><ele>254.75</ele><time>2026-04-11T08:47:00.29Z</time></trkpt><trkpt lat="45.044565" lon="8.255835"><ele>256.0</ele><time>2026-04-11T08:47:01.29Z</time></trkpt><trkpt lat="45.0444367" lon="8.255805"><ele>256.0</ele><time>2026-04-11T08:47:02.29Z</time></trkpt><trkpt lat="45.0443083" lon="8.2557817"><ele>256.0</ele><time>2026-04-11T08:47:03.29Z</time></trkpt><trkpt lat="45.0441833" lon="8.25578"><ele>256.0</ele><time>2026-04-11T08:47:04.29Z</time></trkpt><trkpt lat="45.04405" lon="8.2557933"><ele>256.0</ele><time>2026-04-11T08:47:05.29Z</time></trkpt><trkpt lat="45.0439083" lon="8.2557933"><ele>256.6</ele><time>2026-04-11T08:47:06.29Z</time></trkpt><trkpt lat="45.0437883" lon="8.2557883"><ele>257.20000000000005</ele><time>2026-04-11T08:47:07.29Z</time></trkpt><trkpt lat="45.04369" lon="8.2557733"><ele>257.79999999999995</ele><time>2026-04-11T08:47:08.291Z</time></trkpt><trkpt lat="45.0436" lon="8.2557533"><ele>258.4</ele><time>2026-04-11T08:47:09.29Z</time></trkpt><trkpt lat="45.043525" lon="8.2557283"><ele>259.0</ele><time>2026-04-11T08:47:10.291Z</time></trkpt><trkpt lat="45.043465" lon="8.255685"><ele>260.0</ele><time>2026-04-11T08:47:11.29Z</time></trkpt><trkpt lat="45.0434067" lon="8.2556183"><ele>261.0</ele><time>2026-04-11T08:47:12.291Z</time></trkpt><trkpt lat="45.043355" lon="8.2555367"><ele>262.0</ele><time>2026-04-11T08:47:13.291Z</time></trkpt><trkpt lat="45.0432983" lon="8.25544"><ele>263.0</ele><time>2026-04-11T08:47:14.29Z</time></trkpt><trkpt lat="45.043235" lon="8.25533"><ele>264.0</ele><time>2026-04-11T08:47:15.29Z</time></trkpt><trkpt lat="45.0431783" lon="8.2552267"><ele>265.0</ele><time>2026-04-11T08:47:16.29Z</time></trkpt><trkpt lat="45.043115" lon="8.2551133"><ele>265.5</ele><time>2026-04-11T08:47:17.29Z</time></trkpt><trkpt lat="45.0430517" lon="8.2550233"><ele>266.0</ele><time>2026-04-11T08:47:18.29Z</time></trkpt><trkpt lat="45.0429983" lon="8.254945"><ele>266.5</ele><time>2026-04-11T08:47:19.291Z</time></trkpt><trkpt lat="45.0429433" lon="8.2548133"><ele>267.0</ele><time>2026-04-11T08:47:21.29Z</time></trkpt><trkpt lat="45.0429733" lon="8.2546933"><ele>267.5</ele><time>2026-04-11T08:47:23.29Z</time></trkpt><trkpt lat="45.0430083" lon="8.25461"><ele>268.0</ele><time>2026-04-11T08:47:24.29Z</time></trkpt><trkpt lat="45.04304" lon="8.254515"><ele>266.2</ele><time>2026-04-11T08:47:25.291Z</time></trkpt><trkpt lat="45.04308" lon="8.2543767"><ele>264.4</ele><time>2026-04-11T08:47:27.29Z</time></trkpt><trkpt lat="45.0431133" lon="8.2542783"><ele>262.59999999999997</ele><time>2026-04-11T08:47:29.29Z</time></trkpt><trkpt lat="45.043145" lon="8.2541883"><ele>260.8</ele><time>2026-04-11T08:47:32.29Z</time></trkpt><trkpt lat="45.0430633" lon="8.25412"><ele>259.0</ele><time>2026-04-11T08:47:35.291Z</time></trkpt><trkpt lat="45.0429667" lon="8.2540233"><ele>257.3333333333333</ele><time>2026-04-11T08:47:37.29Z</time></trkpt><trkpt lat="45.042915" lon="8.253955"><ele>255.66666666666666</ele><time>2026-04-11T08:47:38.29Z</time></trkpt><trkpt lat="45.04285" lon="8.253875"><ele>254.0</ele><time>2026-04-11T08:47:39.29Z</time></trkpt><trkpt lat="45.0427867" lon="8.2538133"><ele>252.33333333333331</ele><time>2026-04-11T08:47:40.29Z</time></trkpt><trkpt lat="45.042735" lon="8.2537483"><ele>250.66666666666666</ele><time>2026-04-11T08:47:41.29Z</time></trkpt><trkpt lat="45.0426833" lon="8.2536767"><ele>249.0</ele><time>2026-04-11T08:47:42.291Z</time></trkpt><trkpt lat="45.0426367" lon="8.2535933"><ele>249.0</ele><time>2026-04-11T08:47:43.29Z</time></trkpt><trkpt lat="45.0425767" lon="8.2535217"><ele>249.0</ele><time>2026-04-11T08:47:44.29Z</time></trkpt><trkpt lat="45.0425117" lon="8.253455"><ele>249.0</ele><time>2026-04-11T08:47:45.29Z</time></trkpt><trkpt lat="45.04244" lon="8.2533883"><ele>249.0</ele><time>2026-04-11T08:47:46.29Z</time></trkpt><trkpt lat="45.0423617" lon="8.2533283"><ele>249.0</ele><time>2026-04-11T08:47:47.29Z</time></trkpt><trkpt lat="45.0422817" lon="8.253265"><ele>249.0</ele><time>2026-04-11T08:47:48.29Z</time></trkpt><trkpt lat="45.0422117" lon="8.2532"><ele>246.2</ele><time>2026-04-11T08:47:49.29Z</time></trkpt><trkpt lat="45.04215" lon="8.2531367"><ele>243.39999999999998</ele><time>2026-04-11T08:47:50.291Z</time></trkpt><trkpt lat="45.0420883" lon="8.2530733"><ele>240.6</ele><time>2026-04-11T08:47:51.291Z</time></trkpt><trkpt lat="45.0420317" lon="8.2530333"><ele>237.8</ele><time>2026-04-11T08:47:52.291Z</time></trkpt><trkpt lat="45.0419267" lon="8.2529467"><ele>235.0</ele><time>2026-04-11T08:47:54.29Z</time></trkpt><trkpt lat="45.041825" lon="8.2528667"><ele>233.99999999999997</ele><time>2026-04-11T08:47:56.29Z</time></trkpt><trkpt lat="45.0417633" lon="8.2528283"><ele>233.0</ele><time>2026-04-11T08:47:57.29Z</time></trkpt><trkpt lat="45.0417017" lon="8.2527767"><ele>232.0</ele><time>2026-04-11T08:47:58.291Z</time></trkpt><trkpt lat="45.0416333" lon="8.2527317"><ele>231.0</ele><time>2026-04-11T08:47:59.29Z</time></trkpt><trkpt lat="45.0415583" lon="8.2526867"><ele>229.99999999999997</ele><time>2026-04-11T08:48:00.291Z</time></trkpt><trkpt lat="45.0414833" lon="8.2526333"><ele>229.0</ele><time>2026-04-11T08:48:01.29Z</time></trkpt><trkpt lat="45.041405" lon="8.2525933"><ele>227.66666666666666</ele><time>2026-04-11T08:48:02.29Z</time></trkpt><trkpt lat="45.0413333" lon="8.25254"><ele>226.33333333333331</ele><time>2026-04-11T08:48:03.29Z</time></trkpt><trkpt lat="45.0412533" lon="8.2524883"><ele>225.0</ele><time>2026-04-11T08:48:04.291Z</time></trkpt><trkpt lat="45.0411817" lon="8.2524267"><ele>223.66666666666669</ele><time>2026-04-11T08:48:05.29Z</time></trkpt><trkpt lat="45.0411083" lon="8.2523833"><ele>222.33333333333334</ele><time>2026-04-11T08:48:06.29Z</time></trkpt><trkpt lat="45.04103" lon="8.252345"><ele>221.0</ele><time>2026-04-11T08:48:07.29Z</time></trkpt><trkpt lat="45.04096" lon="8.2523167"><ele>220.0</ele><time>2026-04-11T08:48:08.29Z</time></trkpt><trkpt lat="45.0408667" lon="8.252275"><ele>219.00000000000003</ele><time>2026-04-11T08:48:10.29Z</time></trkpt><trkpt lat="45.0407983" lon="8.2522517"><ele>218.00000000000003</ele><time>2026-04-11T08:48:13.29Z</time></trkpt><trkpt lat="45.0407183" lon="8.25221"><ele>217.0</ele><time>2026-04-11T08:48:17.29Z</time></trkpt><trkpt lat="45.0406317" lon="8.25218"><ele>216.0</ele><time>2026-04-11T08:48:19.29Z</time></trkpt><trkpt lat="45.0405083" lon="8.252135"><ele>214.83333333333334</ele><time>2026-04-11T08:48:21.29Z</time></trkpt><trkpt lat="45.040435" lon="8.2521017"><ele>213.66666666666669</ele><time>2026-04-11T08:48:22.29Z</time></trkpt><trkpt lat="45.04036" lon="8.2520667"><ele>212.5</ele><time>2026-04-11T08:48:23.29Z</time></trkpt><trkpt lat="45.0402933" lon="8.2520267"><ele>211.33333333333334</ele><time>2026-04-11T08:48:24.29Z</time></trkpt><trkpt lat="45.04024" lon="8.251975"><ele>210.16666666666669</ele><time>2026-04-11T08:48:25.29Z</time></trkpt><trkpt lat="45.0402" lon="8.25187"><ele>209.0</ele><time>2026-04-11T08:48:27.291Z</time></trkpt><trkpt lat="45.040215" lon="8.2517383"><ele>209.00000000000003</ele><time>2026-04-11T08:48:29.29Z</time></trkpt><trkpt lat="45.0402633" lon="8.25159"><ele>209.0</ele><time>2026-04-11T08:48:31.29Z</time></trkpt><trkpt lat="45.0402883" lon="8.2515067"><ele>209.0</ele><time>2026-04-11T08:48:32.29Z</time></trkpt><trkpt lat="45.0403183" lon="8.2514167"><ele>209.0</ele><time>2026-04-11T08:48:33.29Z</time></trkpt><trkpt lat="45.0403483" lon="8.2513283"><ele>209.00000000000003</ele><time>2026-04-11T08:48:34.29Z</time></trkpt><trkpt lat="45.040395" lon="8.2511567"><ele>209.0</ele><time>2026-04-11T08:48:36.29Z</time></trkpt><trkpt lat="45.0404183" lon="8.2510667"><ele>208.42857142857142</ele><time>2026-04-11T08:48:37.29Z</time></trkpt><trkpt lat="45.0404433" lon="8.25098"><ele>207.85714285714283</ele><time>2026-04-11T08:48:38.29Z</time></trkpt><trkpt lat="45.0404717" lon="8.2508817"><ele>207.28571428571428</ele><time>2026-04-11T08:48:39.29Z</time></trkpt><trkpt lat="45.0404983" lon="8.25078"><ele>206.71428571428572</ele><time>2026-04-11T08:48:40.291Z</time></trkpt><trkpt lat="45.040525" lon="8.2506817"><ele>206.14285714285714</ele><time>2026-04-11T08:48:41.289Z</time></trkpt><trkpt lat="45.0405483" lon="8.2505833"><ele>205.57142857142858</ele><time>2026-04-11T08:48:42.289Z</time></trkpt><trkpt lat="45.040575" lon="8.2504833"><ele>205.0</ele><time>2026-04-11T08:48:43.29Z</time></trkpt><trkpt lat="45.040605" lon="8.2503783"><ele>204.99999999999997</ele><time>2026-04-11T08:48:44.289Z</time></trkpt><trkpt lat="45.0406317" lon="8.25027"><ele>205.0</ele><time>2026-04-11T08:48:45.289Z</time></trkpt><trkpt lat="45.0406567" lon="8.2501617"><ele>205.0</ele><time>2026-04-11T08:48:46.29Z</time></trkpt><trkpt lat="45.040675" lon="8.2500517"><ele>205.0</ele><time>2026-04-11T08:48:47.289Z</time></trkpt><trkpt lat="45.040685" lon="8.24994"><ele>204.99999999999997</ele><time>2026-04-11T08:48:48.29Z</time></trkpt><trkpt lat="45.0406833" lon="8.2498283"><ele>205.0</ele><time>2026-04-11T08:48:49.29Z</time></trkpt><trkpt lat="45.0406833" lon="8.249715"><ele>204.83333333333331</ele><time>2026-04-11T08:48:50.289Z</time></trkpt><trkpt lat="45.0406833" lon="8.2495967"><ele>204.66666666666666</ele><time>2026-04-11T08:48:51.29Z</time></trkpt><trkpt lat="45.0406783" lon="8.24948"><ele>204.5</ele><time>2026-04-11T08:48:52.289Z</time></trkpt><trkpt lat="45.0406717" lon="8.2493667"><ele>204.33333333333331</ele><time>2026-04-11T08:48:53.29Z</time></trkpt><trkpt lat="45.0406617" lon="8.2492633"><ele>204.16666666666666</ele><time>2026-04-11T08:48:54.289Z</time></trkpt><trkpt lat="45.0406483" lon="8.2491667"><ele>204.0</ele><time>2026-04-11T08:48:55.29Z</time></trkpt><trkpt lat="45.0406267" lon="8.249075"><ele>204.0</ele><time>2026-04-11T08:48:56.289Z</time></trkpt><trkpt lat="45.0405883" lon="8.2489833"><ele>204.0</ele><time>2026-04-11T08:48:57.289Z</time></trkpt><trkpt lat="45.0405467" lon="8.2488883"><ele>204.0</ele><time>2026-04-11T08:48:58.29Z</time></trkpt><trkpt lat="45.0405067" lon="8.2487967"><ele>204.0</ele><time>2026-04-11T08:48:59.289Z</time></trkpt><trkpt lat="45.0404617" lon="8.2487083"><ele>204.0</ele><time>2026-04-11T08:49:00.29Z</time></trkpt><trkpt lat="45.04042" lon="8.2486267"><ele>204.0</ele><time>2026-04-11T08:49:01.289Z</time></trkpt><trkpt lat="45.0403783" lon="8.2485483"><ele>204.0</ele><time>2026-04-11T08:49:02.289Z</time></trkpt><trkpt lat="45.0403367" lon="8.2484667"><ele>203.16666666666666</ele><time>2026-04-11T08:49:03.289Z</time></trkpt><trkpt lat="45.0402983" lon="8.2483733"><ele>202.33333333333331</ele><time>2026-04-11T08:49:04.289Z</time></trkpt><trkpt lat="45.0402567" lon="8.248205"><ele>201.5</ele><time>2026-04-11T08:49:06.289Z</time></trkpt><trkpt lat="45.0402367" lon="8.2481117"><ele>200.66666666666666</ele><time>2026-04-11T08:49:07.289Z</time></trkpt><trkpt lat="45.0402217" lon="8.2480183"><ele>199.83333333333331</ele><time>2026-04-11T08:49:08.289Z</time></trkpt><trkpt lat="45.040205" lon="8.2479183"><ele>199.0</ele><time>2026-04-11T08:49:09.289Z</time></trkpt><trkpt lat="45.0401833" lon="8.24781"><ele>198.49999999999997</ele><time>2026-04-11T08:49:10.29Z</time></trkpt><trkpt lat="45.0401567" lon="8.2477017"><ele>198.0</ele><time>2026-04-11T08:49:11.29Z</time></trkpt><trkpt lat="45.0401383" lon="8.24761"><ele>197.5</ele><time>2026-04-11T08:49:12.289Z</time></trkpt><trkpt lat="45.0401283" lon="8.24751"><ele>197.0</ele><time>2026-04-11T08:49:13.289Z</time></trkpt><trkpt lat="45.0401167" lon="8.2474217"><ele>196.49999999999997</ele><time>2026-04-11T08:49:14.289Z</time></trkpt><trkpt lat="45.0401017" lon="8.24731"><ele>196.0</ele><time>2026-04-11T08:49:15.289Z</time></trkpt><trkpt lat="45.0400817" lon="8.2471817"><ele>196.0</ele><time>2026-04-11T08:49:16.289Z</time></trkpt><trkpt lat="45.0400517" lon="8.2470617"><ele>196.0</ele><time>2026-04-11T08:49:17.289Z</time></trkpt><trkpt lat="45.0400267" lon="8.2469217"><ele>196.0</ele><time>2026-04-11T08:49:18.29Z</time></trkpt><trkpt lat="45.0400017" lon="8.246785"><ele>196.0</ele><time>2026-04-11T08:49:19.289Z</time></trkpt><trkpt lat="45.0399733" lon="8.246655"><ele>196.0</ele><time>2026-04-11T08:49:20.29Z</time></trkpt><trkpt lat="45.0399283" lon="8.246525"><ele>194.8</ele><time>2026-04-11T08:49:21.289Z</time></trkpt><trkpt lat="45.039885" lon="8.24638"><ele>193.60000000000002</ele><time>2026-04-11T08:49:22.289Z</time></trkpt><trkpt lat="45.0398433" lon="8.2462467"><ele>192.4</ele><time>2026-04-11T08:49:23.289Z</time></trkpt><trkpt lat="45.0398033" lon="8.2461083"><ele>191.2</ele><time>2026-04-11T08:49:24.289Z</time></trkpt><trkpt lat="45.03977" lon="8.24597"><ele>190.0</ele><time>2026-04-11T08:49:25.289Z</time></trkpt><trkpt lat="45.0397383" lon="8.2458317"><ele>190.0</ele><time>2026-04-11T08:49:26.289Z</time></trkpt><trkpt lat="45.0397083" lon="8.2457"><ele>190.0</ele><time>2026-04-11T08:49:27.289Z</time></trkpt><trkpt lat="45.0396767" lon="8.2455567"><ele>190.0</ele><time>2026-04-11T08:49:28.289Z</time></trkpt><trkpt lat="45.03965" lon="8.24543"><ele>190.0</ele><time>2026-04-11T08:49:29.289Z</time></trkpt><trkpt lat="45.0396333" lon="8.2453133"><ele>190.0</ele><time>2026-04-11T08:49:30.289Z</time></trkpt><trkpt lat="45.0396133" lon="8.2452033"><ele>189.2</ele><time>2026-04-11T08:49:31.289Z</time></trkpt><trkpt lat="45.0395833" lon="8.2450967"><ele>188.4</ele><time>2026-04-11T08:49:32.29Z</time></trkpt><trkpt lat="45.03956" lon="8.2449767"><ele>187.60000000000002</ele><time>2026-04-11T08:49:33.29Z</time></trkpt><trkpt lat="45.03953" lon="8.2448283"><ele>186.8</ele><time>2026-04-11T08:49:34.289Z</time></trkpt><trkpt lat="45.039485" lon="8.2446767"><ele>186.0</ele><time>2026-04-11T08:49:35.29Z</time></trkpt><trkpt lat="45.0394483" lon="8.24452"><ele>185.0</ele><time>2026-04-11T08:49:36.289Z</time></trkpt><trkpt lat="45.0394067" lon="8.244355"><ele>184.0</ele><time>2026-04-11T08:49:37.289Z</time></trkpt><trkpt lat="45.0393683" lon="8.2441967"><ele>183.0</ele><time>2026-04-11T08:49:38.289Z</time></trkpt><trkpt lat="45.039335" lon="8.2440633"><ele>182.0</ele><time>2026-04-11T08:49:39.289Z</time></trkpt><trkpt lat="45.039305" lon="8.2439217"><ele>181.0</ele><time>2026-04-11T08:49:40.289Z</time></trkpt><trkpt lat="45.0392717" lon="8.24377"><ele>181.0</ele><time>2026-04-11T08:49:41.29Z</time></trkpt><trkpt lat="45.0392383" lon="8.243615"><ele>181.0</ele><time>2026-04-11T08:49:42.289Z</time></trkpt><trkpt lat="45.03921" lon="8.24346"><ele>181.0</ele><time>2026-04-11T08:49:43.289Z</time></trkpt><trkpt lat="45.0392" lon="8.2433283"><ele>181.0</ele><time>2026-04-11T08:49:44.289Z</time></trkpt><trkpt lat="45.0391917" lon="8.2431967"><ele>181.0</ele><time>2026-04-11T08:49:45.289Z</time></trkpt><trkpt lat="45.03919" lon="8.2430767"><ele>181.0</ele><time>2026-04-11T08:49:46.29Z</time></trkpt><trkpt lat="45.0391883" lon="8.2429567"><ele>181.0</ele><time>2026-04-11T08:49:47.29Z</time></trkpt><trkpt lat="45.03919" lon="8.242835"><ele>181.0</ele><time>2026-04-11T08:49:48.289Z</time></trkpt><trkpt lat="45.0391917" lon="8.2427083"><ele>181.0</ele><time>2026-04-11T08:49:49.289Z</time></trkpt><trkpt lat="45.0391917" lon="8.2425767"><ele>181.0</ele><time>2026-04-11T08:49:50.289Z</time></trkpt><trkpt lat="45.0391917" lon="8.2424417"><ele>181.0</ele><time>2026-04-11T08:49:51.289Z</time></trkpt><trkpt lat="45.0391867" lon="8.242315"><ele>181.20000000000002</ele><time>2026-04-11T08:49:52.289Z</time></trkpt><trkpt lat="45.0391767" lon="8.2422067"><ele>181.4</ele><time>2026-04-11T08:49:53.289Z</time></trkpt><trkpt lat="45.03915" lon="8.2421067"><ele>181.6</ele><time>2026-04-11T08:49:54.29Z</time></trkpt><trkpt lat="45.0391133" lon="8.242015"><ele>181.8</ele><time>2026-04-11T08:49:55.29Z</time></trkpt><trkpt lat="45.0390617" lon="8.2419283"><ele>182.0</ele><time>2026-04-11T08:49:56.289Z</time></trkpt><trkpt lat="45.0389317" lon="8.2417567"><ele>181.39999999999998</ele><time>2026-04-11T08:49:58.289Z</time></trkpt><trkpt lat="45.0388617" lon="8.2416717"><ele>180.79999999999998</ele><time>2026-04-11T08:49:59.289Z</time></trkpt><trkpt lat="45.0387817" lon="8.241565"><ele>180.2</ele><time>2026-04-11T08:50:00.29Z</time></trkpt><trkpt lat="45.0387083" lon="8.241455"><ele>179.6</ele><time>2026-04-11T08:50:01.289Z</time></trkpt><trkpt lat="45.038645" lon="8.2413283"><ele>179.0</ele><time>2026-04-11T08:50:02.289Z</time></trkpt><trkpt lat="45.03858" lon="8.2411917"><ele>178.0</ele><time>2026-04-11T08:50:03.289Z</time></trkpt><trkpt lat="45.038515" lon="8.24106"><ele>177.0</ele><time>2026-04-11T08:50:04.289Z</time></trkpt><trkpt lat="45.0384533" lon="8.240915"><ele>176.0</ele><time>2026-04-11T08:50:05.289Z</time></trkpt><trkpt lat="45.0383917" lon="8.24079"><ele>175.0</ele><time>2026-04-11T08:50:06.289Z</time></trkpt><trkpt lat="45.03833" lon="8.24065"><ele>175.4</ele><time>2026-04-11T08:50:07.289Z</time></trkpt><trkpt lat="45.03827" lon="8.240525"><ele>175.8</ele><time>2026-04-11T08:50:08.29Z</time></trkpt><trkpt lat="45.0382" lon="8.240415"><ele>176.2</ele><time>2026-04-11T08:50:09.289Z</time></trkpt><trkpt lat="45.0381217" lon="8.240315"><ele>176.6</ele><time>2026-04-11T08:50:10.289Z</time></trkpt><trkpt lat="45.03804" lon="8.2402217"><ele>177.0</ele><time>2026-04-11T08:50:11.289Z</time></trkpt><trkpt lat="45.0379633" lon="8.2401283"><ele>177.0</ele><time>2026-04-11T08:50:12.289Z</time></trkpt><trkpt lat="45.03789" lon="8.2400617"><ele>177.0</ele><time>2026-04-11T08:50:13.289Z</time></trkpt><trkpt lat="45.0378167" lon="8.2399833"><ele>177.0</ele><time>2026-04-11T08:50:14.289Z</time></trkpt><trkpt lat="45.0377467" lon="8.2398883"><ele>177.0</ele><time>2026-04-11T08:50:15.289Z</time></trkpt><trkpt lat="45.0376617" lon="8.2398083"><ele>177.0</ele><time>2026-04-11T08:50:16.289Z</time></trkpt><trkpt lat="45.03759" lon="8.2397333"><ele>176.8</ele><time>2026-04-11T08:50:17.289Z</time></trkpt><trkpt lat="45.03752" lon="8.2396433"><ele>176.6</ele><time>2026-04-11T08:50:18.289Z</time></trkpt><trkpt lat="45.0374517" lon="8.2395533"><ele>176.4</ele><time>2026-04-11T08:50:19.29Z</time></trkpt><trkpt lat="45.037385" lon="8.2394683"><ele>176.20000000000002</ele><time>2026-04-11T08:50:20.289Z</time></trkpt><trkpt lat="45.03732" lon="8.2393783"><ele>176.0</ele><time>2026-04-11T08:50:21.289Z</time></trkpt><trkpt lat="45.0372583" lon="8.2392933"><ele>175.83333333333331</ele><time>2026-04-11T08:50:22.289Z</time></trkpt><trkpt lat="45.0372" lon="8.23921"><ele>175.66666666666666</ele><time>2026-04-11T08:50:23.29Z</time></trkpt><trkpt lat="45.03714" lon="8.23913"><ele>175.5</ele><time>2026-04-11T08:50:24.289Z</time></trkpt><trkpt lat="45.03707" lon="8.239055"><ele>175.33333333333334</ele><time>2026-04-11T08:50:25.289Z</time></trkpt><trkpt lat="45.03699" lon="8.23898"><ele>175.16666666666669</ele><time>2026-04-11T08:50:26.289Z</time></trkpt><trkpt lat="45.0369133" lon="8.2389117"><ele>175.0</ele><time>2026-04-11T08:50:27.289Z</time></trkpt><trkpt lat="45.0368233" lon="8.2388617"><ele>174.75</ele><time>2026-04-11T08:50:28.289Z</time></trkpt><trkpt lat="45.0367117" lon="8.2388183"><ele>174.5</ele><time>2026-04-11T08:50:29.289Z</time></trkpt><trkpt lat="45.0366017" lon="8.2387733"><ele>174.25</ele><time>2026-04-11T08:50:30.289Z</time></trkpt><trkpt lat="45.0364783" lon="8.23874"><ele>174.0</ele><time>2026-04-11T08:50:31.289Z</time></trkpt><trkpt lat="45.036365" lon="8.2387067"><ele>172.66666666666666</ele><time>2026-04-11T08:50:32.289Z</time></trkpt><trkpt lat="45.0361133" lon="8.2386117"><ele>171.33333333333331</ele><time>2026-04-11T08:50:34.289Z</time></trkpt><trkpt lat="45.0359767" lon="8.2385583"><ele>170.0</ele><time>2026-04-11T08:50:35.29Z</time></trkpt><trkpt lat="45.035845" lon="8.2385017"><ele>171.5</ele><time>2026-04-11T08:50:36.289Z</time></trkpt><trkpt lat="45.0357067" lon="8.23844"><ele>173.0</ele><time>2026-04-11T08:50:37.29Z</time></trkpt><trkpt lat="45.03558" lon="8.23837"><ele>174.5</ele><time>2026-04-11T08:50:38.289Z</time></trkpt><trkpt lat="45.035445" lon="8.2382833"><ele>176.0</ele><time>2026-04-11T08:50:39.289Z</time></trkpt><trkpt lat="45.03531" lon="8.2382017"><ele>175.0</ele><time>2026-04-11T08:50:40.289Z</time></trkpt><trkpt lat="45.0351883" lon="8.2381283"><ele>174.0</ele><time>2026-04-11T08:50:41.289Z</time></trkpt><trkpt lat="45.0350767" lon="8.238055"><ele>173.0</ele><time>2026-04-11T08:50:42.289Z</time></trkpt><trkpt lat="45.0349533" lon="8.238"><ele>172.0</ele><time>2026-04-11T08:50:43.289Z</time></trkpt><trkpt lat="45.0348283" lon="8.23795"><ele>172.0</ele><time>2026-04-11T08:50:44.289Z</time></trkpt><trkpt lat="45.0347117" lon="8.2379083"><ele>172.0</ele><time>2026-04-11T08:50:45.289Z</time></trkpt><trkpt lat="45.03459" lon="8.237865"><ele>172.0</ele><time>2026-04-11T08:50:46.289Z</time></trkpt><trkpt lat="45.034465" lon="8.2378283"><ele>172.0</ele><time>2026-04-11T08:50:47.289Z</time></trkpt><trkpt lat="45.0343317" lon="8.2377933"><ele>172.0</ele><time>2026-04-11T08:50:48.289Z</time></trkpt><trkpt lat="45.0342067" lon="8.2377383"><ele>172.0</ele><time>2026-04-11T08:50:49.289Z</time></trkpt><trkpt lat="45.0340967" lon="8.237685"><ele>172.0</ele><time>2026-04-11T08:50:50.29Z</time></trkpt><trkpt lat="45.033995" lon="8.2376283"><ele>172.0</ele><time>2026-04-11T08:50:51.289Z</time></trkpt><trkpt lat="45.033895" lon="8.2375783"><ele>171.75</ele><time>2026-04-11T08:50:52.289Z</time></trkpt><trkpt lat="45.0337833" lon="8.2375417"><ele>171.5</ele><time>2026-04-11T08:50:53.289Z</time></trkpt><trkpt lat="45.033665" lon="8.2375367"><ele>171.25</ele><time>2026-04-11T08:50:54.289Z</time></trkpt><trkpt lat="45.0335483" lon="8.2375717"><ele>171.0</ele><time>2026-04-11T08:50:55.289Z</time></trkpt><trkpt lat="45.033435" lon="8.2376017"><ele>171.0</ele><time>2026-04-11T08:50:56.289Z</time></trkpt><trkpt lat="45.0333283" lon="8.23762"><ele>171.0</ele><time>2026-04-11T08:50:57.289Z</time></trkpt><trkpt lat="45.033235" lon="8.2376133"><ele>171.0</ele><time>2026-04-11T08:50:58.29Z</time></trkpt><trkpt lat="45.0331417" lon="8.2375933"><ele>171.0</ele><time>2026-04-11T08:50:59.29Z</time></trkpt><trkpt lat="45.0330483" lon="8.2375667"><ele>171.0</ele><time>2026-04-11T08:51:00.289Z</time></trkpt><trkpt lat="45.0329667" lon="8.23754"><ele>170.60000000000002</ele><time>2026-04-11T08:51:01.289Z</time></trkpt><trkpt lat="45.0328383" lon="8.23746"><ele>170.2</ele><time>2026-04-11T08:51:03.289Z</time></trkpt><trkpt lat="45.0327867" lon="8.23739"><ele>169.8</ele><time>2026-04-11T08:51:04.29Z</time></trkpt><trkpt lat="45.0327417" lon="8.23732"><ele>169.39999999999998</ele><time>2026-04-11T08:51:05.289Z</time></trkpt><trkpt lat="45.0327117" lon="8.2371717"><ele>169.0</ele><time>2026-04-11T08:51:07.289Z</time></trkpt><trkpt lat="45.03272" lon="8.23698"><ele>168.83333333333334</ele><time>2026-04-11T08:51:09.29Z</time></trkpt><trkpt lat="45.0327483" lon="8.2368783"><ele>168.66666666666669</ele><time>2026-04-11T08:51:10.289Z</time></trkpt><trkpt lat="45.0327767" lon="8.2367733"><ele>168.5</ele><time>2026-04-11T08:51:11.289Z</time></trkpt><trkpt lat="45.0327917" lon="8.236675"><ele>168.33333333333334</ele><time>2026-04-11T08:51:12.289Z</time></trkpt><trkpt lat="45.03281" lon="8.236585"><ele>168.16666666666666</ele><time>2026-04-11T08:51:13.289Z</time></trkpt><trkpt lat="45.0328467" lon="8.2364433"><ele>168.0</ele><time>2026-04-11T08:51:15.289Z</time></trkpt><trkpt lat="45.03289" lon="8.2363383"><ele>168.0</ele><time>2026-04-11T08:51:17.289Z</time></trkpt><trkpt lat="45.032945" lon="8.2362783"><ele>168.0</ele><time>2026-04-11T08:51:19.289Z</time></trkpt><trkpt lat="45.033035" lon="8.236285"><ele>168.0</ele><time>2026-04-11T08:51:21.29Z</time></trkpt><trkpt lat="45.0331433" lon="8.2363317"><ele>168.0</ele><time>2026-04-11T08:51:23.289Z</time></trkpt><trkpt lat="45.0332167" lon="8.23636"><ele>168.0</ele><time>2026-04-11T08:51:24.289Z</time></trkpt><trkpt lat="45.033295" lon="8.2363883"><ele>168.0</ele><time>2026-04-11T08:51:25.29Z</time></trkpt><trkpt lat="45.033375" lon="8.23641"><ele>167.83333333333334</ele><time>2026-04-11T08:51:26.29Z</time></trkpt><trkpt lat="45.0334583" lon="8.2364417"><ele>167.66666666666666</ele><time>2026-04-11T08:51:27.289Z</time></trkpt><trkpt lat="45.03355" lon="8.2364683"><ele>167.5</ele><time>2026-04-11T08:51:28.289Z</time></trkpt><trkpt lat="45.0336367" lon="8.2364983"><ele>167.33333333333331</ele><time>2026-04-11T08:51:29.289Z</time></trkpt><trkpt lat="45.03372" lon="8.2365317"><ele>167.16666666666666</ele><time>2026-04-11T08:51:30.289Z</time></trkpt><trkpt lat="45.0337967" lon="8.2365567"><ele>167.0</ele><time>2026-04-11T08:51:31.289Z</time></trkpt><trkpt lat="45.03388" lon="8.23659"><ele>167.0</ele><time>2026-04-11T08:51:32.289Z</time></trkpt><trkpt lat="45.0339733" lon="8.2366183"><ele>167.0</ele><time>2026-04-11T08:51:33.29Z</time></trkpt><trkpt lat="45.0340683" lon="8.23665"><ele>167.0</ele><time>2026-04-11T08:51:34.289Z</time></trkpt><trkpt lat="45.0341633" lon="8.2366683"><ele>167.0</ele><time>2026-04-11T08:51:35.289Z</time></trkpt><trkpt lat="45.0342517" lon="8.2366983"><ele>167.0</ele><time>2026-04-11T08:51:36.289Z</time></trkpt><trkpt lat="45.034345" lon="8.2367267"><ele>167.39999999999998</ele><time>2026-04-11T08:51:37.289Z</time></trkpt><trkpt lat="45.034435" lon="8.2367383"><ele>167.79999999999998</ele><time>2026-04-11T08:51:38.29Z</time></trkpt><trkpt lat="45.0345333" lon="8.2367483"><ele>168.2</ele><time>2026-04-11T08:51:39.289Z</time></trkpt><trkpt lat="45.0346267" lon="8.236755"><ele>168.6</ele><time>2026-04-11T08:51:40.289Z</time></trkpt><trkpt lat="45.03472" lon="8.2367733"><ele>169.0</ele><time>2026-04-11T08:51:41.289Z</time></trkpt><trkpt lat="45.034815" lon="8.2367833"><ele>169.0</ele><time>2026-04-11T08:51:42.289Z</time></trkpt><trkpt lat="45.0349133" lon="8.2367967"><ele>169.0</ele><time>2026-04-11T08:51:43.289Z</time></trkpt><trkpt lat="45.035015" lon="8.2367983"><ele>169.0</ele><time>2026-04-11T08:51:44.289Z</time></trkpt><trkpt lat="45.03512" lon="8.2367967"><ele>169.0</ele><time>2026-04-11T08:51:45.29Z</time></trkpt><trkpt lat="45.035225" lon="8.2368167"><ele>169.0</ele><time>2026-04-11T08:51:46.289Z</time></trkpt><trkpt lat="45.03533" lon="8.236845"><ele>169.2</ele><time>2026-04-11T08:51:47.289Z</time></trkpt><trkpt lat="45.0354317" lon="8.2368767"><ele>169.39999999999998</ele><time>2026-04-11T08:51:48.289Z</time></trkpt><trkpt lat="45.035525" lon="8.2369217"><ele>169.6</ele><time>2026-04-11T08:51:49.289Z</time></trkpt><trkpt lat="45.0356133" lon="8.2369667"><ele>169.8</ele><time>2026-04-11T08:51:50.289Z</time></trkpt><trkpt lat="45.0357" lon="8.237025"><ele>170.0</ele><time>2026-04-11T08:51:51.289Z</time></trkpt><trkpt lat="45.0357867" lon="8.2370967"><ele>170.2</ele><time>2026-04-11T08:51:52.29Z</time></trkpt><trkpt lat="45.0358833" lon="8.2371633"><ele>170.4</ele><time>2026-04-11T08:51:53.289Z</time></trkpt><trkpt lat="45.0359767" lon="8.237235"><ele>170.60000000000002</ele><time>2026-04-11T08:51:54.29Z</time></trkpt><trkpt lat="45.036065" lon="8.2372883"><ele>170.8</ele><time>2026-04-11T08:51:55.29Z</time></trkpt><trkpt lat="45.03616" lon="8.2373417"><ele>171.0</ele><time>2026-04-11T08:51:56.289Z</time></trkpt><trkpt lat="45.0362533" lon="8.2373733"><ele>171.0</ele><time>2026-04-11T08:51:57.289Z</time></trkpt><trkpt lat="45.036355" lon="8.23739"><ele>171.0</ele><time>2026-04-11T08:51:58.289Z</time></trkpt><trkpt lat="45.036455" lon="8.237405"><ele>171.0</ele><time>2026-04-11T08:51:59.289Z</time></trkpt><trkpt lat="45.0365617" lon="8.23741"><ele>171.0</ele><time>2026-04-11T08:52:00.29Z</time></trkpt><trkpt lat="45.0366533" lon="8.23741"><ele>171.0</ele><time>2026-04-11T08:52:01.289Z</time></trkpt><trkpt lat="45.0367517" lon="8.2374267"><ele>171.4</ele><time>2026-04-11T08:52:02.289Z</time></trkpt><trkpt lat="45.0368433" lon="8.237445"><ele>171.8</ele><time>2026-04-11T08:52:03.289Z</time></trkpt><trkpt lat="45.03694" lon="8.2374583"><ele>172.20000000000002</ele><time>2026-04-11T08:52:04.29Z</time></trkpt><trkpt lat="45.0370383" lon="8.237495"><ele>172.60000000000002</ele><time>2026-04-11T08:52:05.29Z</time></trkpt><trkpt lat="45.0371333" lon="8.23755"><ele>173.0</ele><time>2026-04-11T08:52:06.289Z</time></trkpt><trkpt lat="45.0372317" lon="8.237605"><ele>173.0</ele><time>2026-04-11T08:52:07.289Z</time></trkpt><trkpt lat="45.0373367" lon="8.23765"><ele>173.0</ele><time>2026-04-11T08:52:08.29Z</time></trkpt><trkpt lat="45.0374383" lon="8.2376517"><ele>173.0</ele><time>2026-04-11T08:52:09.29Z</time></trkpt><trkpt lat="45.037545" lon="8.2376367"><ele>173.0</ele><time>2026-04-11T08:52:10.29Z</time></trkpt><trkpt lat="45.0376483" lon="8.237605"><ele>173.0</ele><time>2026-04-11T08:52:11.289Z</time></trkpt><trkpt lat="45.0377533" lon="8.23759"><ele>172.8</ele><time>2026-04-11T08:52:12.289Z</time></trkpt><trkpt lat="45.0378533" lon="8.23757"><ele>172.60000000000002</ele><time>2026-04-11T08:52:13.289Z</time></trkpt><trkpt lat="45.03795" lon="8.237545"><ele>172.39999999999998</ele><time>2026-04-11T08:52:14.29Z</time></trkpt><trkpt lat="45.0380417" lon="8.237515"><ele>172.2</ele><time>2026-04-11T08:52:15.29Z</time></trkpt><trkpt lat="45.0381333" lon="8.2374967"><ele>172.0</ele><time>2026-04-11T08:52:16.29Z</time></trkpt><trkpt lat="45.0382283" lon="8.237475"><ele>172.2</ele><time>2026-04-11T08:52:17.289Z</time></trkpt><trkpt lat="45.038325" lon="8.2374533"><ele>172.39999999999998</ele><time>2026-04-11T08:52:18.29Z</time></trkpt><trkpt lat="45.03842" lon="8.2374483"><ele>172.60000000000002</ele><time>2026-04-11T08:52:19.29Z</time></trkpt><trkpt lat="45.0385117" lon="8.2374183"><ele>172.8</ele><time>2026-04-11T08:52:20.29Z</time></trkpt><trkpt lat="45.0386033" lon="8.2373783"><ele>173.0</ele><time>2026-04-11T08:52:21.29Z</time></trkpt><trkpt lat="45.0387067" lon="8.2373367"><ele>173.0</ele><time>2026-04-11T08:52:22.289Z</time></trkpt><trkpt lat="45.0388017" lon="8.2373033"><ele>173.0</ele><time>2026-04-11T08:52:23.289Z</time></trkpt><trkpt lat="45.038905" lon="8.237265"><ele>173.0</ele><time>2026-04-11T08:52:24.289Z</time></trkpt><trkpt lat="45.0389933" lon="8.23722"><ele>173.0</ele><time>2026-04-11T08:52:25.289Z</time></trkpt><trkpt lat="45.039075" lon="8.2371733"><ele>173.0</ele><time>2026-04-11T08:52:26.289Z</time></trkpt><trkpt lat="45.0391583" lon="8.2371233"><ele>174.0</ele><time>2026-04-11T08:52:27.29Z</time></trkpt><trkpt lat="45.03924" lon="8.237075"><ele>175.0</ele><time>2026-04-11T08:52:28.289Z</time></trkpt><trkpt lat="45.039325" lon="8.237025"><ele>176.0</ele><time>2026-04-11T08:52:29.29Z</time></trkpt><trkpt lat="45.0394067" lon="8.2369717"><ele>177.0</ele><time>2026-04-11T08:52:30.289Z</time></trkpt><trkpt lat="45.039485" lon="8.23693"><ele>178.0</ele><time>2026-04-11T08:52:31.29Z</time></trkpt><trkpt lat="45.0395517" lon="8.236895"><ele>179.0</ele><time>2026-04-11T08:52:32.289Z</time></trkpt><trkpt lat="45.03964" lon="8.2368683"><ele>179.0</ele><time>2026-04-11T08:52:34.289Z</time></trkpt><trkpt lat="45.0396917" lon="8.2369333"><ele>179.0</ele><time>2026-04-11T08:52:36.289Z</time></trkpt><trkpt lat="45.039755" lon="8.2370033"><ele>179.0</ele><time>2026-04-11T08:52:38.289Z</time></trkpt><trkpt lat="45.039875" lon="8.236995"><ele>179.0</ele><time>2026-04-11T08:52:40.289Z</time></trkpt><trkpt lat="45.0399617" lon="8.2369517"><ele>179.0</ele><time>2026-04-11T08:52:41.289Z</time></trkpt><trkpt lat="45.0400583" lon="8.2369233"><ele>178.6</ele><time>2026-04-11T08:52:42.289Z</time></trkpt><trkpt lat="45.0401583" lon="8.236895"><ele>178.2</ele><time>2026-04-11T08:52:43.289Z</time></trkpt><trkpt lat="45.0402533" lon="8.23686"><ele>177.79999999999998</ele><time>2026-04-11T08:52:44.289Z</time></trkpt><trkpt lat="45.0403483" lon="8.23682"><ele>177.39999999999998</ele><time>2026-04-11T08:52:45.29Z</time></trkpt><trkpt lat="45.0404417" lon="8.23678"><ele>177.0</ele><time>2026-04-11T08:52:46.289Z</time></trkpt><trkpt lat="45.0405367" lon="8.236755"><ele>177.0</ele><time>2026-04-11T08:52:47.289Z</time></trkpt><trkpt lat="45.040635" lon="8.2367333"><ele>177.0</ele><time>2026-04-11T08:52:48.289Z</time></trkpt><trkpt lat="45.04073" lon="8.2367167"><ele>177.0</ele><time>2026-04-11T08:52:49.289Z</time></trkpt><trkpt lat="45.0408333" lon="8.236695"><ele>177.0</ele><time>2026-04-11T08:52:50.29Z</time></trkpt><trkpt lat="45.0409383" lon="8.2366767"><ele>177.0</ele><time>2026-04-11T08:52:51.29Z</time></trkpt><trkpt lat="45.0410317" lon="8.2366633"><ele>177.33333333333334</ele><time>2026-04-11T08:52:52.289Z</time></trkpt><trkpt lat="45.0411133" lon="8.2366483"><ele>177.66666666666666</ele><time>2026-04-11T08:52:53.29Z</time></trkpt><trkpt lat="45.04118" lon="8.2366383"><ele>178.0</ele><time>2026-04-11T08:52:54.289Z</time></trkpt><trkpt lat="45.0412667" lon="8.2366367"><ele>178.33333333333331</ele><time>2026-04-11T08:52:56.289Z</time></trkpt><trkpt lat="45.0413467" lon="8.2366333"><ele>178.66666666666666</ele><time>2026-04-11T08:52:58.29Z</time></trkpt><trkpt lat="45.0414167" lon="8.2366317"><ele>179.0</ele><time>2026-04-11T08:53:00.289Z</time></trkpt><trkpt lat="45.0415" lon="8.2366233"><ele>179.0</ele><time>2026-04-11T08:53:02.289Z</time></trkpt><trkpt lat="45.041585" lon="8.2366233"><ele>179.0</ele><time>2026-04-11T08:53:04.289Z</time></trkpt><trkpt lat="45.04167" lon="8.2366017"><ele>179.0</ele><time>2026-04-11T08:53:06.289Z</time></trkpt><trkpt lat="45.0417817" lon="8.23656"><ele>179.0</ele><time>2026-04-11T08:53:08.29Z</time></trkpt><trkpt lat="45.041845" lon="8.2365467"><ele>179.0</ele><time>2026-04-11T08:53:09.29Z</time></trkpt><trkpt lat="45.04191" lon="8.2365433"><ele>179.0</ele><time>2026-04-11T08:53:10.29Z</time></trkpt><trkpt lat="45.0419817" lon="8.2365317"><ele>178.5</ele><time>2026-04-11T08:53:11.289Z</time></trkpt><trkpt lat="45.04206" lon="8.236515"><ele>178.0</ele><time>2026-04-11T08:53:12.289Z</time></trkpt><trkpt lat="45.0421417" lon="8.2365067"><ele>177.5</ele><time>2026-04-11T08:53:13.289Z</time></trkpt><trkpt lat="45.042215" lon="8.2365033"><ele>177.0</ele><time>2026-04-11T08:53:14.29Z</time></trkpt><trkpt lat="45.0422867" lon="8.2364917"><ele>176.5</ele><time>2026-04-11T08:53:15.289Z</time></trkpt><trkpt lat="45.0423583" lon="8.2364783"><ele>176.0</ele><time>2026-04-11T08:53:16.289Z</time></trkpt><trkpt lat="45.0424317" lon="8.2364717"><ele>176.33333333333331</ele><time>2026-04-11T08:53:17.289Z</time></trkpt><trkpt lat="45.0425033" lon="8.23646"><ele>176.66666666666666</ele><time>2026-04-11T08:53:18.289Z</time></trkpt><trkpt lat="45.0425817" lon="8.2364517"><ele>177.0</ele><time>2026-04-11T08:53:19.289Z</time></trkpt><trkpt lat="45.0426633" lon="8.2364317"><ele>177.33333333333334</ele><time>2026-04-11T08:53:20.289Z</time></trkpt><trkpt lat="45.0427467" lon="8.2364283"><ele>177.66666666666669</ele><time>2026-04-11T08:53:21.289Z</time></trkpt><trkpt lat="45.0428317" lon="8.23643"><ele>178.0</ele><time>2026-04-11T08:53:22.289Z</time></trkpt><trkpt lat="45.042915" lon="8.236425"><ele>178.0</ele><time>2026-04-11T08:53:23.289Z</time></trkpt><trkpt lat="45.043" lon="8.2364317"><ele>178.0</ele><time>2026-04-11T08:53:24.289Z</time></trkpt><trkpt lat="45.04309" lon="8.2364483"><ele>178.0</ele><time>2026-04-11T08:53:25.289Z</time></trkpt><trkpt lat="45.043175" lon="8.2364583"><ele>178.0</ele><time>2026-04-11T08:53:26.289Z</time></trkpt><trkpt lat="45.0432567" lon="8.2364467"><ele>178.0</ele><time>2026-04-11T08:53:27.289Z</time></trkpt><trkpt lat="45.04335" lon="8.2364183"><ele>178.0</ele><time>2026-04-11T08:53:28.289Z</time></trkpt><trkpt lat="45.043435" lon="8.23638"><ele>178.33333333333334</ele><time>2026-04-11T08:53:29.289Z</time></trkpt><trkpt lat="45.04351" lon="8.236335"><ele>178.66666666666669</ele><time>2026-04-11T08:53:30.289Z</time></trkpt><trkpt lat="45.0435767" lon="8.2362783"><ele>179.0</ele><time>2026-04-11T08:53:31.289Z</time></trkpt><trkpt lat="45.0436433" lon="8.236215"><ele>179.33333333333334</ele><time>2026-04-11T08:53:32.289Z</time></trkpt><trkpt lat="45.0437067" lon="8.2361633"><ele>179.66666666666666</ele><time>2026-04-11T08:53:33.289Z</time></trkpt><trkpt lat="45.0437667" lon="8.2361117"><ele>180.0</ele><time>2026-04-11T08:53:34.289Z</time></trkpt><trkpt lat="45.0438317" lon="8.2360533"><ele>180.0</ele><time>2026-04-11T08:53:35.289Z</time></trkpt><trkpt lat="45.0438933" lon="8.2359967"><ele>180.0</ele><time>2026-04-11T08:53:36.289Z</time></trkpt><trkpt lat="45.0439567" lon="8.23594"><ele>180.0</ele><time>2026-04-11T08:53:37.289Z</time></trkpt><trkpt lat="45.0440267" lon="8.2358767"><ele>180.0</ele><time>2026-04-11T08:53:38.29Z</time></trkpt><trkpt lat="45.0440917" lon="8.2358117"><ele>180.0</ele><time>2026-04-11T08:53:39.29Z</time></trkpt><trkpt lat="45.044155" lon="8.2357433"><ele>180.0</ele><time>2026-04-11T08:53:40.289Z</time></trkpt><trkpt lat="45.0442233" lon="8.2356867"><ele>180.0</ele><time>2026-04-11T08:53:41.29Z</time></trkpt><trkpt lat="45.044295" lon="8.235635"><ele>180.0</ele><time>2026-04-11T08:53:42.29Z</time></trkpt><trkpt lat="45.044375" lon="8.2355867"><ele>180.0</ele><time>2026-04-11T08:53:43.29Z</time></trkpt><trkpt lat="45.0444533" lon="8.2355433"><ele>180.0</ele><time>2026-04-11T08:53:44.289Z</time></trkpt><trkpt lat="45.0445267" lon="8.235495"><ele>180.0</ele><time>2026-04-11T08:53:45.288Z</time></trkpt><trkpt lat="45.0446" lon="8.2354467"><ele>180.0</ele><time>2026-04-11T08:53:46.288Z</time></trkpt><trkpt lat="45.0446767" lon="8.2353867"><ele>180.0</ele><time>2026-04-11T08:53:47.288Z</time></trkpt><trkpt lat="45.044755" lon="8.2353267"><ele>180.0</ele><time>2026-04-11T08:53:48.289Z</time></trkpt><trkpt lat="45.044825" lon="8.2352467"><ele>180.0</ele><time>2026-04-11T08:53:49.288Z</time></trkpt><trkpt lat="45.04488" lon="8.23516"><ele>180.0</ele><time>2026-04-11T08:53:50.288Z</time></trkpt><trkpt lat="45.0449283" lon="8.2350867"><ele>180.0</ele><time>2026-04-11T08:53:51.288Z</time></trkpt><trkpt lat="45.0449717" lon="8.2350167"><ele>180.0</ele><time>2026-04-11T08:53:52.289Z</time></trkpt><trkpt lat="45.0450467" lon="8.2349167"><ele>180.0</ele><time>2026-04-11T08:53:54.288Z</time></trkpt><trkpt lat="45.0450933" lon="8.23483"><ele>180.0</ele><time>2026-04-11T08:53:56.288Z</time></trkpt><trkpt lat="45.0451" lon="8.2347367"><ele>180.0</ele><time>2026-04-11T08:53:58.289Z</time></trkpt><trkpt lat="45.0450383" lon="8.2346217"><ele>180.0</ele><time>2026-04-11T08:54:00.289Z</time></trkpt><trkpt lat="45.0449983" lon="8.2345517"><ele>180.0</ele><time>2026-04-11T08:54:01.288Z</time></trkpt><trkpt lat="45.044945" lon="8.2344017"><ele>180.0</ele><time>2026-04-11T08:54:03.289Z</time></trkpt><trkpt lat="45.044895" lon="8.2342683"><ele>179.8</ele><time>2026-04-11T08:54:05.288Z</time></trkpt><trkpt lat="45.0448517" lon="8.23414"><ele>179.6</ele><time>2026-04-11T08:54:07.288Z</time></trkpt><trkpt lat="45.0448067" lon="8.2340183"><ele>179.39999999999998</ele><time>2026-04-11T08:54:09.289Z</time></trkpt><trkpt lat="45.0447617" lon="8.23389"><ele>179.2</ele><time>2026-04-11T08:54:11.289Z</time></trkpt><trkpt lat="45.0447017" lon="8.2337667"><ele>179.0</ele><time>2026-04-11T08:54:13.289Z</time></trkpt><trkpt lat="45.044665" lon="8.2336917"><ele>179.42857142857144</ele><time>2026-04-11T08:54:14.289Z</time></trkpt><trkpt lat="45.044635" lon="8.2336083"><ele>179.85714285714286</ele><time>2026-04-11T08:54:15.288Z</time></trkpt><trkpt lat="45.0446" lon="8.23352"><ele>180.28571428571428</ele><time>2026-04-11T08:54:16.289Z</time></trkpt><trkpt lat="45.0445667" lon="8.2334317"><ele>180.71428571428572</ele><time>2026-04-11T08:54:17.289Z</time></trkpt><trkpt lat="45.044545" lon="8.23333"><ele>181.14285714285714</ele><time>2026-04-11T08:54:18.289Z</time></trkpt><trkpt lat="45.04452" lon="8.2332317"><ele>181.57142857142858</ele><time>2026-04-11T08:54:19.289Z</time></trkpt><trkpt lat="45.044485" lon="8.23314"><ele>182.0</ele><time>2026-04-11T08:54:20.289Z</time></trkpt><trkpt lat="45.044445" lon="8.2330417"><ele>182.83333333333331</ele><time>2026-04-11T08:54:21.289Z</time></trkpt><trkpt lat="45.0444083" lon="8.2329483"><ele>183.66666666666666</ele><time>2026-04-11T08:54:22.288Z</time></trkpt><trkpt lat="45.0443667" lon="8.232855"><ele>184.5</ele><time>2026-04-11T08:54:23.288Z</time></trkpt><trkpt lat="45.0443267" lon="8.232745"><ele>185.33333333333334</ele><time>2026-04-11T08:54:24.288Z</time></trkpt><trkpt lat="45.0442883" lon="8.2326433"><ele>186.16666666666669</ele><time>2026-04-11T08:54:25.289Z</time></trkpt><trkpt lat="45.0442567" lon="8.23253"><ele>187.0</ele><time>2026-04-11T08:54:26.289Z</time></trkpt><trkpt lat="45.0442233" lon="8.2324167"><ele>187.0</ele><time>2026-04-11T08:54:27.288Z</time></trkpt><trkpt lat="45.044175" lon="8.2323133"><ele>187.0</ele><time>2026-04-11T08:54:28.288Z</time></trkpt><trkpt lat="45.044135" lon="8.2322017"><ele>187.0</ele><time>2026-04-11T08:54:29.288Z</time></trkpt><trkpt lat="45.044095" lon="8.2320867"><ele>187.0</ele><time>2026-04-11T08:54:30.289Z</time></trkpt><trkpt lat="45.044055" lon="8.2319733"><ele>187.0</ele><time>2026-04-11T08:54:31.288Z</time></trkpt><trkpt lat="45.0440083" lon="8.2318683"><ele>187.0</ele><time>2026-04-11T08:54:32.288Z</time></trkpt><trkpt lat="45.04395" lon="8.2317467"><ele>188.83333333333334</ele><time>2026-04-11T08:54:33.289Z</time></trkpt><trkpt lat="45.0438933" lon="8.231645"><ele>190.66666666666669</ele><time>2026-04-11T08:54:34.288Z</time></trkpt><trkpt lat="45.0438467" lon="8.2315617"><ele>192.5</ele><time>2026-04-11T08:54:35.288Z</time></trkpt><trkpt lat="45.043815" lon="8.2314633"><ele>194.33333333333334</ele><time>2026-04-11T08:54:36.288Z</time></trkpt><trkpt lat="45.0437833" lon="8.2313433"><ele>196.16666666666666</ele><time>2026-04-11T08:54:37.288Z</time></trkpt><trkpt lat="45.0437417" lon="8.23122"><ele>198.0</ele><time>2026-04-11T08:54:38.289Z</time></trkpt><trkpt lat="45.0437067" lon="8.2311017"><ele>199.2</ele><time>2026-04-11T08:54:39.289Z</time></trkpt><trkpt lat="45.0436717" lon="8.2309933"><ele>200.4</ele><time>2026-04-11T08:54:40.288Z</time></trkpt><trkpt lat="45.0436333" lon="8.2308667"><ele>201.6</ele><time>2026-04-11T08:54:41.288Z</time></trkpt><trkpt lat="45.0435983" lon="8.230745"><ele>202.79999999999998</ele><time>2026-04-11T08:54:42.288Z</time></trkpt><trkpt lat="45.0435583" lon="8.2306167"><ele>204.0</ele><time>2026-04-11T08:54:43.288Z</time></trkpt><trkpt lat="45.0435133" lon="8.2304917"><ele>206.16666666666666</ele><time>2026-04-11T08:54:44.288Z</time></trkpt><trkpt lat="45.0434717" lon="8.2303783"><ele>208.33333333333331</ele><time>2026-04-11T08:54:45.288Z</time></trkpt><trkpt lat="45.043445" lon="8.230265"><ele>210.5</ele><time>2026-04-11T08:54:46.289Z</time></trkpt><trkpt lat="45.0434083" lon="8.2301733"><ele>212.66666666666666</ele><time>2026-04-11T08:54:47.289Z</time></trkpt><trkpt lat="45.0433817" lon="8.23003"><ele>214.83333333333331</ele><time>2026-04-11T08:54:49.289Z</time></trkpt><trkpt lat="45.0434033" lon="8.2299317"><ele>217.0</ele><time>2026-04-11T08:54:51.288Z</time></trkpt><trkpt lat="45.0435033" lon="8.2298667"><ele>216.99999999999997</ele><time>2026-04-11T08:54:53.288Z</time></trkpt><trkpt lat="45.0435867" lon="8.229845"><ele>217.0</ele><time>2026-04-11T08:54:54.289Z</time></trkpt><trkpt lat="45.0436817" lon="8.2298283"><ele>217.0</ele><time>2026-04-11T08:54:55.288Z</time></trkpt><trkpt lat="45.0437767" lon="8.2298067"><ele>217.0</ele><time>2026-04-11T08:54:56.288Z</time></trkpt><trkpt lat="45.04386" lon="8.2297833"><ele>216.99999999999997</ele><time>2026-04-11T08:54:57.289Z</time></trkpt><trkpt lat="45.0439283" lon="8.2297617"><ele>217.0</ele><time>2026-04-11T08:54:58.289Z</time></trkpt><trkpt lat="45.04403" lon="8.2297117"><ele>219.2</ele><time>2026-04-11T08:55:00.288Z</time></trkpt><trkpt lat="45.0441183" lon="8.22964"><ele>221.39999999999998</ele><time>2026-04-11T08:55:02.288Z</time></trkpt><trkpt lat="45.0441533" lon="8.2295617"><ele>223.60000000000002</ele><time>2026-04-11T08:55:04.288Z</time></trkpt><trkpt lat="45.0441483" lon="8.2294633"><ele>225.8</ele><time>2026-04-11T08:55:06.288Z</time></trkpt><trkpt lat="45.0441183" lon="8.2293133"><ele>228.0</ele><time>2026-04-11T08:55:08.289Z</time></trkpt><trkpt lat="45.04407" lon="8.2291683"><ele>228.0</ele><time>2026-04-11T08:55:10.288Z</time></trkpt><trkpt lat="45.0440367" lon="8.22908"><ele>228.0</ele><time>2026-04-11T08:55:11.288Z</time></trkpt><trkpt lat="45.0440017" lon="8.2289867"><ele>228.0</ele><time>2026-04-11T08:55:12.288Z</time></trkpt><trkpt lat="45.0439683" lon="8.2288833"><ele>228.0</ele><time>2026-04-11T08:55:13.289Z</time></trkpt><trkpt lat="45.04392" lon="8.2287883"><ele>228.0</ele><time>2026-04-11T08:55:14.288Z</time></trkpt><trkpt lat="45.0438683" lon="8.2286833"><ele>228.0</ele><time>2026-04-11T08:55:15.288Z</time></trkpt><trkpt lat="45.0438083" lon="8.2285817"><ele>230.0</ele><time>2026-04-11T08:55:16.288Z</time></trkpt><trkpt lat="45.0437317" lon="8.2284883"><ele>232.0</ele><time>2026-04-11T08:55:17.288Z</time></trkpt><trkpt lat="45.04365" lon="8.2284117"><ele>234.0</ele><time>2026-04-11T08:55:18.288Z</time></trkpt><trkpt lat="45.0435667" lon="8.22834"><ele>236.0</ele><time>2026-04-11T08:55:19.289Z</time></trkpt><trkpt lat="45.0434833" lon="8.2282767"><ele>238.0</ele><time>2026-04-11T08:55:20.289Z</time></trkpt><trkpt lat="45.0433917" lon="8.2282217"><ele>238.0</ele><time>2026-04-11T08:55:21.288Z</time></trkpt><trkpt lat="45.0433" lon="8.228175"><ele>238.0</ele><time>2026-04-11T08:55:22.288Z</time></trkpt><trkpt lat="45.0432017" lon="8.2281333"><ele>238.0</ele><time>2026-04-11T08:55:23.289Z</time></trkpt><trkpt lat="45.0430983" lon="8.228095"><ele>238.0</ele><time>2026-04-11T08:55:24.288Z</time></trkpt><trkpt lat="45.042995" lon="8.2280483"><ele>238.0</ele><time>2026-04-11T08:55:25.288Z</time></trkpt><trkpt lat="45.042905" lon="8.2280033"><ele>238.16666666666666</ele><time>2026-04-11T08:55:26.288Z</time></trkpt><trkpt lat="45.0428333" lon="8.2279683"><ele>238.33333333333331</ele><time>2026-04-11T08:55:27.288Z</time></trkpt><trkpt lat="45.042775" lon="8.22793"><ele>238.5</ele><time>2026-04-11T08:55:28.288Z</time></trkpt><trkpt lat="45.0426833" lon="8.22792"><ele>238.66666666666669</ele><time>2026-04-11T08:55:30.288Z</time></trkpt><trkpt lat="45.0426083" lon="8.2280233"><ele>238.83333333333334</ele><time>2026-04-11T08:55:32.288Z</time></trkpt><trkpt lat="45.0425617" lon="8.2281083"><ele>239.0</ele><time>2026-04-11T08:55:33.289Z</time></trkpt><trkpt lat="45.0425133" lon="8.2282083"><ele>239.00000000000003</ele><time>2026-04-11T08:55:34.289Z</time></trkpt><trkpt lat="45.0424683" lon="8.2283133"><ele>239.0</ele><time>2026-04-11T08:55:35.288Z</time></trkpt><trkpt lat="45.0424133" lon="8.2284083"><ele>239.0</ele><time>2026-04-11T08:55:36.288Z</time></trkpt><trkpt lat="45.0423583" lon="8.2285183"><ele>239.0</ele><time>2026-04-11T08:55:37.288Z</time></trkpt><trkpt lat="45.0422967" lon="8.22861"><ele>239.00000000000003</ele><time>2026-04-11T08:55:38.288Z</time></trkpt><trkpt lat="45.0422367" lon="8.228705"><ele>239.0</ele><time>2026-04-11T08:55:39.289Z</time></trkpt><trkpt lat="45.042185" lon="8.2287867"><ele>239.16666666666669</ele><time>2026-04-11T08:55:40.288Z</time></trkpt><trkpt lat="45.0421367" lon="8.2288717"><ele>239.33333333333334</ele><time>2026-04-11T08:55:41.289Z</time></trkpt><trkpt lat="45.0420883" lon="8.22896"><ele>239.5</ele><time>2026-04-11T08:55:42.289Z</time></trkpt><trkpt lat="45.0420467" lon="8.22905"><ele>239.66666666666669</ele><time>2026-04-11T08:55:43.289Z</time></trkpt><trkpt lat="45.0419967" lon="8.2291467"><ele>239.83333333333334</ele><time>2026-04-11T08:55:44.288Z</time></trkpt><trkpt lat="45.0419567" lon="8.2292433"><ele>240.0</ele><time>2026-04-11T08:55:45.288Z</time></trkpt><trkpt lat="45.0419183" lon="8.2293533"><ele>240.0</ele><time>2026-04-11T08:55:46.288Z</time></trkpt><trkpt lat="45.04187" lon="8.2294567"><ele>240.0</ele><time>2026-04-11T08:55:47.288Z</time></trkpt><trkpt lat="45.04182" lon="8.2295617"><ele>240.0</ele><time>2026-04-11T08:55:48.288Z</time></trkpt><trkpt lat="45.04177" lon="8.2296683"><ele>240.0</ele><time>2026-04-11T08:55:49.288Z</time></trkpt><trkpt lat="45.0417" lon="8.229765"><ele>240.0</ele><time>2026-04-11T08:55:50.288Z</time></trkpt><trkpt lat="45.0416133" lon="8.229855"><ele>239.5</ele><time>2026-04-11T08:55:51.288Z</time></trkpt><trkpt lat="45.0415417" lon="8.2299417"><ele>239.0</ele><time>2026-04-11T08:55:52.288Z</time></trkpt><trkpt lat="45.04147" lon="8.230015"><ele>238.5</ele><time>2026-04-11T08:55:53.289Z</time></trkpt><trkpt lat="45.041405" lon="8.2300967"><ele>238.0</ele><time>2026-04-11T08:55:54.289Z</time></trkpt><trkpt lat="45.041345" lon="8.23016"><ele>237.5</ele><time>2026-04-11T08:55:55.288Z</time></trkpt><trkpt lat="45.0412717" lon="8.2302233"><ele>237.0</ele><time>2026-04-11T08:55:56.289Z</time></trkpt><trkpt lat="45.04119" lon="8.2302833"><ele>237.0</ele><time>2026-04-11T08:55:57.288Z</time></trkpt><trkpt lat="45.0410933" lon="8.2303483"><ele>237.0</ele><time>2026-04-11T08:55:58.289Z</time></trkpt><trkpt lat="45.0409833" lon="8.2304133"><ele>237.0</ele><time>2026-04-11T08:55:59.288Z</time></trkpt><trkpt lat="45.040885" lon="8.230475"><ele>237.0</ele><time>2026-04-11T08:56:00.288Z</time></trkpt><trkpt lat="45.0408067" lon="8.23056"><ele>237.0</ele><time>2026-04-11T08:56:01.288Z</time></trkpt><trkpt lat="45.04074" lon="8.2306583"><ele>236.2</ele><time>2026-04-11T08:56:02.289Z</time></trkpt><trkpt lat="45.0406683" lon="8.2307483"><ele>235.39999999999998</ele><time>2026-04-11T08:56:03.289Z</time></trkpt><trkpt lat="45.0406067" lon="8.2308533"><ele>234.60000000000002</ele><time>2026-04-11T08:56:04.288Z</time></trkpt><trkpt lat="45.040535" lon="8.2309583"><ele>233.8</ele><time>2026-04-11T08:56:05.289Z</time></trkpt><trkpt lat="45.04045" lon="8.2310483"><ele>233.0</ele><time>2026-04-11T08:56:06.288Z</time></trkpt><trkpt lat="45.0403783" lon="8.23112"><ele>233.00000000000003</ele><time>2026-04-11T08:56:07.289Z</time></trkpt><trkpt lat="45.0403133" lon="8.2311783"><ele>233.0</ele><time>2026-04-11T08:56:08.288Z</time></trkpt><trkpt lat="45.04026" lon="8.2312383"><ele>233.0</ele><time>2026-04-11T08:56:09.288Z</time></trkpt><trkpt lat="45.0401783" lon="8.2313417"><ele>233.0</ele><time>2026-04-11T08:56:11.288Z</time></trkpt><trkpt lat="45.0400783" lon="8.2314417"><ele>233.00000000000003</ele><time>2026-04-11T08:56:13.288Z</time></trkpt><trkpt lat="45.0400267" lon="8.23151"><ele>233.0</ele><time>2026-04-11T08:56:14.288Z</time></trkpt><trkpt lat="45.0399733" lon="8.2315633"><ele>233.0</ele><time>2026-04-11T08:56:15.288Z</time></trkpt><trkpt lat="45.0399167" lon="8.23162"><ele>233.0</ele><time>2026-04-11T08:56:16.288Z</time></trkpt><trkpt lat="45.0398617" lon="8.2316783"><ele>233.0</ele><time>2026-04-11T08:56:17.288Z</time></trkpt><trkpt lat="45.0398033" lon="8.231745"><ele>233.0</ele><time>2026-04-11T08:56:18.289Z</time></trkpt><trkpt lat="45.0397433" lon="8.2318117"><ele>233.0</ele><time>2026-04-11T08:56:19.288Z</time></trkpt><trkpt lat="45.03969" lon="8.2318883"><ele>233.0</ele><time>2026-04-11T08:56:20.288Z</time></trkpt><trkpt lat="45.0396367" lon="8.2319767"><ele>233.0</ele><time>2026-04-11T08:56:21.288Z</time></trkpt><trkpt lat="45.0395783" lon="8.2320717"><ele>233.00000000000003</ele><time>2026-04-11T08:56:22.288Z</time></trkpt><trkpt lat="45.0395133" lon="8.23216"><ele>233.0</ele><time>2026-04-11T08:56:23.289Z</time></trkpt><trkpt lat="45.0394517" lon="8.2322433"><ele>233.0</ele><time>2026-04-11T08:56:24.289Z</time></trkpt><trkpt lat="45.0393867" lon="8.2323117"><ele>233.0</ele><time>2026-04-11T08:56:25.288Z</time></trkpt><trkpt lat="45.039315" lon="8.2323817"><ele>233.00000000000003</ele><time>2026-04-11T08:56:26.288Z</time></trkpt><trkpt lat="45.0392517" lon="8.2324533"><ele>233.0</ele><time>2026-04-11T08:56:27.289Z</time></trkpt><trkpt lat="45.039195" lon="8.23252"><ele>233.33333333333334</ele><time>2026-04-11T08:56:28.288Z</time></trkpt><trkpt lat="45.0391367" lon="8.23258"><ele>233.66666666666669</ele><time>2026-04-11T08:56:29.288Z</time></trkpt><trkpt lat="45.03908" lon="8.23265"><ele>234.0</ele><time>2026-04-11T08:56:30.288Z</time></trkpt><trkpt lat="45.039015" lon="8.2327167"><ele>234.33333333333331</ele><time>2026-04-11T08:56:31.288Z</time></trkpt><trkpt lat="45.038955" lon="8.2327817"><ele>234.66666666666666</ele><time>2026-04-11T08:56:32.289Z</time></trkpt><trkpt lat="45.0388883" lon="8.2328483"><ele>235.0</ele><time>2026-04-11T08:56:33.289Z</time></trkpt><trkpt lat="45.038825" lon="8.2329217"><ele>233.99999999999997</ele><time>2026-04-11T08:56:34.288Z</time></trkpt><trkpt lat="45.03877" lon="8.2329867"><ele>233.0</ele><time>2026-04-11T08:56:35.288Z</time></trkpt><trkpt lat="45.0387167" lon="8.23306"><ele>232.0</ele><time>2026-04-11T08:56:36.289Z</time></trkpt><trkpt lat="45.0386667" lon="8.2331233"><ele>231.0</ele><time>2026-04-11T08:56:37.288Z</time></trkpt><trkpt lat="45.0386217" lon="8.2331883"><ele>229.99999999999997</ele><time>2026-04-11T08:56:38.288Z</time></trkpt><trkpt lat="45.0385317" lon="8.2333117"><ele>229.0</ele><time>2026-04-11T08:56:40.288Z</time></trkpt><trkpt lat="45.0384767" lon="8.23338"><ele>229.0</ele><time>2026-04-11T08:56:41.288Z</time></trkpt><trkpt lat="45.0384217" lon="8.2334383"><ele>229.0</ele><time>2026-04-11T08:56:42.288Z</time></trkpt><trkpt lat="45.038355" lon="8.233475"><ele>229.0</ele><time>2026-04-11T08:56:43.289Z</time></trkpt><trkpt lat="45.0382917" lon="8.23352"><ele>229.0</ele><time>2026-04-11T08:56:44.288Z</time></trkpt><trkpt lat="45.0382333" lon="8.2335617"><ele>229.0</ele><time>2026-04-11T08:56:45.288Z</time></trkpt><trkpt lat="45.0381717" lon="8.2336"><ele>229.0</ele><time>2026-04-11T08:56:46.289Z</time></trkpt><trkpt lat="45.0381133" lon="8.2336567"><ele>229.0</ele><time>2026-04-11T08:56:47.289Z</time></trkpt><trkpt lat="45.0380517" lon="8.2337133"><ele>226.7142857142857</ele><time>2026-04-11T08:56:48.289Z</time></trkpt><trkpt lat="45.0379883" lon="8.2337683"><ele>224.42857142857144</ele><time>2026-04-11T08:56:49.288Z</time></trkpt><trkpt lat="45.0379317" lon="8.23382"><ele>222.14285714285714</ele><time>2026-04-11T08:56:50.288Z</time></trkpt><trkpt lat="45.0378767" lon="8.23387"><ele>219.85714285714283</ele><time>2026-04-11T08:56:51.288Z</time></trkpt><trkpt lat="45.03782" lon="8.2339117"><ele>217.57142857142856</ele><time>2026-04-11T08:56:52.288Z</time></trkpt><trkpt lat="45.037765" lon="8.23396"><ele>215.28571428571428</ele><time>2026-04-11T08:56:53.288Z</time></trkpt><trkpt lat="45.0377067" lon="8.2340033"><ele>213.0</ele><time>2026-04-11T08:56:54.288Z</time></trkpt><trkpt lat="45.03764" lon="8.2340483"><ele>213.0</ele><time>2026-04-11T08:56:55.288Z</time></trkpt><trkpt lat="45.0375733" lon="8.2340883"><ele>213.0</ele><time>2026-04-11T08:56:56.288Z</time></trkpt><trkpt lat="45.0374983" lon="8.234115"><ele>213.0</ele><time>2026-04-11T08:56:57.289Z</time></trkpt><trkpt lat="45.037425" lon="8.234145"><ele>213.0</ele><time>2026-04-11T08:56:58.289Z</time></trkpt><trkpt lat="45.0373517" lon="8.2341817"><ele>213.0</ele><time>2026-04-11T08:56:59.288Z</time></trkpt><trkpt lat="45.0372783" lon="8.23422"><ele>213.0</ele><time>2026-04-11T08:57:00.288Z</time></trkpt><trkpt lat="45.0372117" lon="8.2342583"><ele>210.5</ele><time>2026-04-11T08:57:01.288Z</time></trkpt><trkpt lat="45.0371333" lon="8.2342967"><ele>208.0</ele><time>2026-04-11T08:57:02.288Z</time></trkpt><trkpt lat="45.03706" lon="8.23433"><ele>205.5</ele><time>2026-04-11T08:57:03.288Z</time></trkpt><trkpt lat="45.0369883" lon="8.2343633"><ele>203.0</ele><time>2026-04-11T08:57:04.289Z</time></trkpt><trkpt lat="45.0369233" lon="8.234405"><ele>200.5</ele><time>2026-04-11T08:57:05.288Z</time></trkpt><trkpt lat="45.0368483" lon="8.2344433"><ele>198.0</ele><time>2026-04-11T08:57:06.288Z</time></trkpt><trkpt lat="45.0367767" lon="8.23448"><ele>198.0</ele><time>2026-04-11T08:57:07.288Z</time></trkpt><trkpt lat="45.0367067" lon="8.23452"><ele>198.0</ele><time>2026-04-11T08:57:08.289Z</time></trkpt><trkpt lat="45.0366333" lon="8.2345483"><ele>198.0</ele><time>2026-04-11T08:57:09.288Z</time></trkpt><trkpt lat="45.03656" lon="8.2345717"><ele>198.0</ele><time>2026-04-11T08:57:10.288Z</time></trkpt><trkpt lat="45.0364833" lon="8.2345883"><ele>198.0</ele><time>2026-04-11T08:57:11.288Z</time></trkpt><trkpt lat="45.0364067" lon="8.2346117"><ele>198.0</ele><time>2026-04-11T08:57:12.289Z</time></trkpt><trkpt lat="45.0363333" lon="8.234635"><ele>196.42857142857144</ele><time>2026-04-11T08:57:13.288Z</time></trkpt><trkpt lat="45.0362617" lon="8.2346567"><ele>194.85714285714283</ele><time>2026-04-11T08:57:14.288Z</time></trkpt><trkpt lat="45.03619" lon="8.2346517"><ele>193.28571428571428</ele><time>2026-04-11T08:57:15.288Z</time></trkpt><trkpt lat="45.0361133" lon="8.23464"><ele>191.71428571428572</ele><time>2026-04-11T08:57:16.289Z</time></trkpt><trkpt lat="45.0360367" lon="8.2346217"><ele>190.14285714285717</ele><time>2026-04-11T08:57:17.288Z</time></trkpt><trkpt lat="45.0359667" lon="8.2346"><ele>188.57142857142856</ele><time>2026-04-11T08:57:18.288Z</time></trkpt><trkpt lat="45.0358983" lon="8.2345733"><ele>187.0</ele><time>2026-04-11T08:57:19.288Z</time></trkpt><trkpt lat="45.0358217" lon="8.2345383"><ele>185.0</ele><time>2026-04-11T08:57:20.289Z</time></trkpt><trkpt lat="45.0357467" lon="8.2345"><ele>183.0</ele><time>2026-04-11T08:57:21.288Z</time></trkpt><trkpt lat="45.0356667" lon="8.2344633"><ele>181.0</ele><time>2026-04-11T08:57:22.288Z</time></trkpt><trkpt lat="45.0355917" lon="8.2344317"><ele>179.0</ele><time>2026-04-11T08:57:23.288Z</time></trkpt><trkpt lat="45.03552" lon="8.2343983"><ele>177.0</ele><time>2026-04-11T08:57:24.289Z</time></trkpt><trkpt lat="45.0354467" lon="8.2343633"><ele>175.0</ele><time>2026-04-11T08:57:25.288Z</time></trkpt><trkpt lat="45.0353667" lon="8.2343283"><ele>175.0</ele><time>2026-04-11T08:57:26.289Z</time></trkpt><trkpt lat="45.0352867" lon="8.2342883"><ele>175.0</ele><time>2026-04-11T08:57:27.289Z</time></trkpt><trkpt lat="45.0352083" lon="8.23424"><ele>175.0</ele><time>2026-04-11T08:57:28.288Z</time></trkpt><trkpt lat="45.0351333" lon="8.234185"><ele>175.0</ele><time>2026-04-11T08:57:29.289Z</time></trkpt><trkpt lat="45.0350633" lon="8.234125"><ele>175.0</ele><time>2026-04-11T08:57:30.288Z</time></trkpt><trkpt lat="45.034995" lon="8.2340567"><ele>175.0</ele><time>2026-04-11T08:57:31.288Z</time></trkpt><trkpt lat="45.0349217" lon="8.2339867"><ele>174.5</ele><time>2026-04-11T08:57:32.288Z</time></trkpt><trkpt lat="45.03485" lon="8.2339167"><ele>174.0</ele><time>2026-04-11T08:57:33.289Z</time></trkpt><trkpt lat="45.03477" lon="8.2338483"><ele>173.5</ele><time>2026-04-11T08:57:34.288Z</time></trkpt><trkpt lat="45.0346883" lon="8.2337883"><ele>173.0</ele><time>2026-04-11T08:57:35.288Z</time></trkpt><trkpt lat="45.0346133" lon="8.2337283"><ele>172.5</ele><time>2026-04-11T08:57:36.289Z</time></trkpt><trkpt lat="45.034535" lon="8.233665"><ele>172.0</ele><time>2026-04-11T08:57:37.288Z</time></trkpt><trkpt lat="45.03447" lon="8.23359"><ele>172.00000000000003</ele><time>2026-04-11T08:57:38.289Z</time></trkpt><trkpt lat="45.0344133" lon="8.233535"><ele>172.0</ele><time>2026-04-11T08:57:39.289Z</time></trkpt><trkpt lat="45.0343583" lon="8.2334717"><ele>172.0</ele><time>2026-04-11T08:57:40.289Z</time></trkpt><trkpt lat="45.0343" lon="8.2334133"><ele>172.0</ele><time>2026-04-11T08:57:41.289Z</time></trkpt><trkpt lat="45.0342367" lon="8.2333683"><ele>172.0</ele><time>2026-04-11T08:57:42.288Z</time></trkpt><trkpt lat="45.034175" lon="8.23333"><ele>172.00000000000003</ele><time>2026-04-11T08:57:43.288Z</time></trkpt><trkpt lat="45.0341017" lon="8.2333067"><ele>172.0</ele><time>2026-04-11T08:57:44.288Z</time></trkpt><trkpt lat="45.0340283" lon="8.2333033"><ele>171.5</ele><time>2026-04-11T08:57:45.289Z</time></trkpt><trkpt lat="45.0339517" lon="8.233295"><ele>171.0</ele><time>2026-04-11T08:57:46.288Z</time></trkpt><trkpt lat="45.033885" lon="8.233295"><ele>170.5</ele><time>2026-04-11T08:57:47.288Z</time></trkpt><trkpt lat="45.033785" lon="8.2333133"><ele>170.0</ele><time>2026-04-11T08:57:49.288Z</time></trkpt><trkpt lat="45.0337333" lon="8.2333967"><ele>169.5</ele><time>2026-04-11T08:57:51.288Z</time></trkpt><trkpt lat="45.0337533" lon="8.233555"><ele>169.0</ele><time>2026-04-11T08:57:53.288Z</time></trkpt><trkpt lat="45.03379" lon="8.233655"><ele>169.0</ele><time>2026-04-11T08:57:54.288Z</time></trkpt><trkpt lat="45.03384" lon="8.233765"><ele>169.0</ele><time>2026-04-11T08:57:55.288Z</time></trkpt><trkpt lat="45.033895" lon="8.23388"><ele>169.0</ele><time>2026-04-11T08:57:56.288Z</time></trkpt><trkpt lat="45.0339383" lon="8.233985"><ele>169.0</ele><time>2026-04-11T08:57:57.288Z</time></trkpt><trkpt lat="45.0339667" lon="8.2340933"><ele>169.0</ele><time>2026-04-11T08:57:58.288Z</time></trkpt><trkpt lat="45.0339717" lon="8.23419"><ele>169.0</ele><time>2026-04-11T08:57:59.288Z</time></trkpt><trkpt lat="45.0339567" lon="8.23429"><ele>168.66666666666669</ele><time>2026-04-11T08:58:00.288Z</time></trkpt><trkpt lat="45.0339083" lon="8.2343967"><ele>168.33333333333334</ele><time>2026-04-11T08:58:01.288Z</time></trkpt><trkpt lat="45.0338417" lon="8.234495"><ele>168.0</ele><time>2026-04-11T08:58:02.288Z</time></trkpt><trkpt lat="45.033785" lon="8.2345683"><ele>167.66666666666666</ele><time>2026-04-11T08:58:03.288Z</time></trkpt><trkpt lat="45.033735" lon="8.2346483"><ele>167.33333333333331</ele><time>2026-04-11T08:58:04.288Z</time></trkpt><trkpt lat="45.0336817" lon="8.234735"><ele>167.0</ele><time>2026-04-11T08:58:05.289Z</time></trkpt><trkpt lat="45.0336283" lon="8.234825"><ele>167.0</ele><time>2026-04-11T08:58:06.289Z</time></trkpt><trkpt lat="45.0335733" lon="8.2349033"><ele>167.0</ele><time>2026-04-11T08:58:07.288Z</time></trkpt><trkpt lat="45.033525" lon="8.234985"><ele>167.0</ele><time>2026-04-11T08:58:08.288Z</time></trkpt><trkpt lat="45.0334617" lon="8.235065"><ele>167.0</ele><time>2026-04-11T08:58:09.288Z</time></trkpt><trkpt lat="45.0334" lon="8.2351433"><ele>167.0</ele><time>2026-04-11T08:58:10.288Z</time></trkpt><trkpt lat="45.0333383" lon="8.2352217"><ele>167.0</ele><time>2026-04-11T08:58:11.289Z</time></trkpt><trkpt lat="45.03329" lon="8.2352967"><ele>167.0</ele><time>2026-04-11T08:58:12.289Z</time></trkpt><trkpt lat="45.0332083" lon="8.2353983"><ele>167.0</ele><time>2026-04-11T08:58:14.288Z</time></trkpt><trkpt lat="45.0331533" lon="8.2354983"><ele>167.0</ele><time>2026-04-11T08:58:16.288Z</time></trkpt><trkpt lat="45.0331283" lon="8.235605"><ele>167.0</ele><time>2026-04-11T08:58:19.288Z</time></trkpt><trkpt lat="45.0330667" lon="8.2356517"><ele>167.0</ele><time>2026-04-11T08:58:22.288Z</time></trkpt><trkpt lat="45.03299" lon="8.235615"><ele>167.0</ele><time>2026-04-11T08:58:24.289Z</time></trkpt><trkpt lat="45.0328933" lon="8.235565"><ele>167.0</ele><time>2026-04-11T08:58:26.288Z</time></trkpt><trkpt lat="45.0327783" lon="8.235495"><ele>167.0</ele><time>2026-04-11T08:58:28.289Z</time></trkpt><trkpt lat="45.0327167" lon="8.2354717"><ele>167.0</ele><time>2026-04-11T08:58:29.289Z</time></trkpt><trkpt lat="45.0326533" lon="8.235435"><ele>167.0</ele><time>2026-04-11T08:58:30.288Z</time></trkpt><trkpt lat="45.0325467" lon="8.235405"><ele>167.0</ele><time>2026-04-11T08:58:32.288Z</time></trkpt><trkpt lat="45.0324333" lon="8.2354333"><ele>167.2</ele><time>2026-04-11T08:58:34.288Z</time></trkpt><trkpt lat="45.0323333" lon="8.235505"><ele>167.39999999999998</ele><time>2026-04-11T08:58:36.288Z</time></trkpt><trkpt lat="45.0322683" lon="8.2356"><ele>167.60000000000002</ele><time>2026-04-11T08:58:38.288Z</time></trkpt><trkpt lat="45.0321933" lon="8.2356483"><ele>167.8</ele><time>2026-04-11T08:58:40.289Z</time></trkpt><trkpt lat="45.0321033" lon="8.23563"><ele>168.0</ele><time>2026-04-11T08:58:42.289Z</time></trkpt><trkpt lat="45.0319983" lon="8.2355817"><ele>168.0</ele><time>2026-04-11T08:58:44.287Z</time></trkpt><trkpt lat="45.03189" lon="8.2355283"><ele>168.0</ele><time>2026-04-11T08:58:46.287Z</time></trkpt><trkpt lat="45.0317817" lon="8.23548"><ele>168.0</ele><time>2026-04-11T08:58:48.287Z</time></trkpt><trkpt lat="45.031715" lon="8.23546"><ele>168.0</ele><time>2026-04-11T08:58:49.287Z</time></trkpt><trkpt lat="45.0316417" lon="8.2354417"><ele>168.0</ele><time>2026-04-11T08:58:50.288Z</time></trkpt><trkpt lat="45.0315633" lon="8.2354117"><ele>167.83333333333334</ele><time>2026-04-11T08:58:51.287Z</time></trkpt><trkpt lat="45.031485" lon="8.2353717"><ele>167.66666666666666</ele><time>2026-04-11T08:58:52.287Z</time></trkpt><trkpt lat="45.03141" lon="8.235335"><ele>167.5</ele><time>2026-04-11T08:58:53.287Z</time></trkpt><trkpt lat="45.0313317" lon="8.2353033"><ele>167.33333333333331</ele><time>2026-04-11T08:58:54.287Z</time></trkpt><trkpt lat="45.03125" lon="8.2352717"><ele>167.16666666666666</ele><time>2026-04-11T08:58:55.287Z</time></trkpt><trkpt lat="45.0311683" lon="8.2352433"><ele>167.0</ele><time>2026-04-11T08:58:56.287Z</time></trkpt><trkpt lat="45.0310917" lon="8.2352183"><ele>167.0</ele><time>2026-04-11T08:58:57.287Z</time></trkpt><trkpt lat="45.031005" lon="8.235185"><ele>167.0</ele><time>2026-04-11T08:58:58.287Z</time></trkpt><trkpt lat="45.0309133" lon="8.2351483"><ele>167.0</ele><time>2026-04-11T08:58:59.287Z</time></trkpt><trkpt lat="45.0308167" lon="8.235105"><ele>167.0</ele><time>2026-04-11T08:59:00.288Z</time></trkpt><trkpt lat="45.030715" lon="8.2350617"><ele>167.0</ele><time>2026-04-11T08:59:01.287Z</time></trkpt><trkpt lat="45.0306133" lon="8.23501"><ele>166.6</ele><time>2026-04-11T08:59:02.288Z</time></trkpt><trkpt lat="45.03051" lon="8.2349667"><ele>166.2</ele><time>2026-04-11T08:59:03.287Z</time></trkpt><trkpt lat="45.0304067" lon="8.2349283"><ele>165.8</ele><time>2026-04-11T08:59:04.288Z</time></trkpt><trkpt lat="45.0303017" lon="8.234895"><ele>165.4</ele><time>2026-04-11T08:59:05.287Z</time></trkpt><trkpt lat="45.0301983" lon="8.2348567"><ele>165.0</ele><time>2026-04-11T08:59:06.287Z</time></trkpt><trkpt lat="45.0301017" lon="8.234825"><ele>165.0</ele><time>2026-04-11T08:59:07.288Z</time></trkpt><trkpt lat="45.03" lon="8.2347917"><ele>165.0</ele><time>2026-04-11T08:59:08.287Z</time></trkpt><trkpt lat="45.0298983" lon="8.234775"><ele>165.0</ele><time>2026-04-11T08:59:09.288Z</time></trkpt><trkpt lat="45.0297983" lon="8.2347617"><ele>165.0</ele><time>2026-04-11T08:59:10.288Z</time></trkpt><trkpt lat="45.02971" lon="8.23475"><ele>165.0</ele><time>2026-04-11T08:59:11.287Z</time></trkpt><trkpt lat="45.02962" lon="8.2347233"><ele>165.0</ele><time>2026-04-11T08:59:12.287Z</time></trkpt><trkpt lat="45.0295267" lon="8.2346867"><ele>165.0</ele><time>2026-04-11T08:59:13.287Z</time></trkpt><trkpt lat="45.0294383" lon="8.23465"><ele>165.0</ele><time>2026-04-11T08:59:14.288Z</time></trkpt><trkpt lat="45.0293483" lon="8.2346217"><ele>165.0</ele><time>2026-04-11T08:59:15.287Z</time></trkpt><trkpt lat="45.029255" lon="8.2345833"><ele>165.0</ele><time>2026-04-11T08:59:16.287Z</time></trkpt><trkpt lat="45.02916" lon="8.2345433"><ele>165.33333333333334</ele><time>2026-04-11T08:59:17.287Z</time></trkpt><trkpt lat="45.0290717" lon="8.2345033"><ele>165.66666666666666</ele><time>2026-04-11T08:59:18.287Z</time></trkpt><trkpt lat="45.02899" lon="8.234455"><ele>166.0</ele><time>2026-04-11T08:59:19.288Z</time></trkpt><trkpt lat="45.0289133" lon="8.2344233"><ele>166.33333333333331</ele><time>2026-04-11T08:59:20.287Z</time></trkpt><trkpt lat="45.0288317" lon="8.2344"><ele>166.66666666666666</ele><time>2026-04-11T08:59:21.287Z</time></trkpt><trkpt lat="45.02874" lon="8.2343817"><ele>167.0</ele><time>2026-04-11T08:59:22.287Z</time></trkpt><trkpt lat="45.0286433" lon="8.23436"><ele>167.0</ele><time>2026-04-11T08:59:23.287Z</time></trkpt><trkpt lat="45.02855" lon="8.2343333"><ele>167.0</ele><time>2026-04-11T08:59:24.287Z</time></trkpt><trkpt lat="45.0284633" lon="8.2342883"><ele>167.0</ele><time>2026-04-11T08:59:25.287Z</time></trkpt><trkpt lat="45.028385" lon="8.2342433"><ele>167.0</ele><time>2026-04-11T08:59:26.287Z</time></trkpt><trkpt lat="45.028305" lon="8.2341933"><ele>167.0</ele><time>2026-04-11T08:59:27.287Z</time></trkpt><trkpt lat="45.0282217" lon="8.2341467"><ele>167.0</ele><time>2026-04-11T08:59:28.287Z</time></trkpt><trkpt lat="45.0280483" lon="8.234055"><ele>166.8</ele><time>2026-04-11T08:59:30.287Z</time></trkpt><trkpt lat="45.02795" lon="8.2340117"><ele>166.6</ele><time>2026-04-11T08:59:31.287Z</time></trkpt><trkpt lat="45.0278483" lon="8.2339733"><ele>166.4</ele><time>2026-04-11T08:59:32.288Z</time></trkpt><trkpt lat="45.0277467" lon="8.2339083"><ele>166.20000000000002</ele><time>2026-04-11T08:59:33.287Z</time></trkpt><trkpt lat="45.0276333" lon="8.233845"><ele>166.0</ele><time>2026-04-11T08:59:34.287Z</time></trkpt><trkpt lat="45.0275167" lon="8.2337733"><ele>165.75</ele><time>2026-04-11T08:59:35.287Z</time></trkpt><trkpt lat="45.0273983" lon="8.2337033"><ele>165.5</ele><time>2026-04-11T08:59:36.288Z</time></trkpt><trkpt lat="45.0272817" lon="8.23363"><ele>165.25</ele><time>2026-04-11T08:59:37.287Z</time></trkpt><trkpt lat="45.02718" lon="8.2335733"><ele>165.0</ele><time>2026-04-11T08:59:38.287Z</time></trkpt><trkpt lat="45.0270917" lon="8.2334983"><ele>165.0</ele><time>2026-04-11T08:59:39.288Z</time></trkpt><trkpt lat="45.02699" lon="8.2334333"><ele>165.0</ele><time>2026-04-11T08:59:40.287Z</time></trkpt><trkpt lat="45.0268833" lon="8.233395"><ele>165.0</ele><time>2026-04-11T08:59:41.288Z</time></trkpt><trkpt lat="45.0267733" lon="8.2333617"><ele>165.0</ele><time>2026-04-11T08:59:42.287Z</time></trkpt><trkpt lat="45.0266733" lon="8.2333383"><ele>165.0</ele><time>2026-04-11T08:59:43.288Z</time></trkpt><trkpt lat="45.0265783" lon="8.2332933"><ele>164.8</ele><time>2026-04-11T08:59:44.287Z</time></trkpt><trkpt lat="45.026475" lon="8.2332517"><ele>164.6</ele><time>2026-04-11T08:59:45.287Z</time></trkpt><trkpt lat="45.0263633" lon="8.2332133"><ele>164.39999999999998</ele><time>2026-04-11T08:59:46.287Z</time></trkpt><trkpt lat="45.026255" lon="8.23317"><ele>164.2</ele><time>2026-04-11T08:59:47.288Z</time></trkpt><trkpt lat="45.0261483" lon="8.233125"><ele>164.0</ele><time>2026-04-11T08:59:48.287Z</time></trkpt><trkpt lat="45.02605" lon="8.2330783"><ele>164.0</ele><time>2026-04-11T08:59:49.287Z</time></trkpt><trkpt lat="45.025955" lon="8.2330217"><ele>164.0</ele><time>2026-04-11T08:59:50.287Z</time></trkpt><trkpt lat="45.0258633" lon="8.23295"><ele>164.0</ele><time>2026-04-11T08:59:51.288Z</time></trkpt><trkpt lat="45.0257883" lon="8.232865"><ele>164.0</ele><time>2026-04-11T08:59:52.288Z</time></trkpt><trkpt lat="45.025715" lon="8.2327867"><ele>164.0</ele><time>2026-04-11T08:59:53.287Z</time></trkpt><trkpt lat="45.0256367" lon="8.2327117"><ele>163.66666666666666</ele><time>2026-04-11T08:59:54.287Z</time></trkpt><trkpt lat="45.02554" lon="8.23267"><ele>163.33333333333331</ele><time>2026-04-11T08:59:55.287Z</time></trkpt><trkpt lat="45.025455" lon="8.2326517"><ele>163.0</ele><time>2026-04-11T08:59:56.287Z</time></trkpt><trkpt lat="45.0253717" lon="8.2326583"><ele>162.66666666666666</ele><time>2026-04-11T08:59:57.287Z</time></trkpt><trkpt lat="45.0252833" lon="8.232655"><ele>162.33333333333334</ele><time>2026-04-11T08:59:58.287Z</time></trkpt><trkpt lat="45.0251983" lon="8.2326467"><ele>162.0</ele><time>2026-04-11T08:59:59.288Z</time></trkpt><trkpt lat="45.025115" lon="8.2326333"><ele>162.0</ele><time>2026-04-11T09:00:00.288Z</time></trkpt><trkpt lat="45.0250367" lon="8.2326117"><ele>162.0</ele><time>2026-04-11T09:00:01.287Z</time></trkpt><trkpt lat="45.02495" lon="8.2326017"><ele>162.0</ele><time>2026-04-11T09:00:02.288Z</time></trkpt><trkpt lat="45.0248633" lon="8.2325917"><ele>162.0</ele><time>2026-04-11T09:00:03.287Z</time></trkpt><trkpt lat="45.024765" lon="8.2325817"><ele>162.0</ele><time>2026-04-11T09:00:04.287Z</time></trkpt><trkpt lat="45.0246683" lon="8.2325667"><ele>162.8</ele><time>2026-04-11T09:00:05.287Z</time></trkpt><trkpt lat="45.0245633" lon="8.23255"><ele>163.6</ele><time>2026-04-11T09:00:06.287Z</time></trkpt><trkpt lat="45.0244633" lon="8.2325283"><ele>164.4</ele><time>2026-04-11T09:00:07.288Z</time></trkpt><trkpt lat="45.024375" lon="8.2324917"><ele>165.20000000000002</ele><time>2026-04-11T09:00:08.287Z</time></trkpt><trkpt lat="45.0242917" lon="8.23245"><ele>166.0</ele><time>2026-04-11T09:00:09.287Z</time></trkpt><trkpt lat="45.02422" lon="8.2324067"><ele>166.0</ele><time>2026-04-11T09:00:10.287Z</time></trkpt><trkpt lat="45.024155" lon="8.2323733"><ele>166.0</ele><time>2026-04-11T09:00:11.287Z</time></trkpt><trkpt lat="45.024085" lon="8.232335"><ele>166.0</ele><time>2026-04-11T09:00:12.287Z</time></trkpt><trkpt lat="45.0240183" lon="8.23231"><ele>166.0</ele><time>2026-04-11T09:00:13.287Z</time></trkpt><trkpt lat="45.023945" lon="8.2322867"><ele>166.0</ele><time>2026-04-11T09:00:14.287Z</time></trkpt><trkpt lat="45.0238767" lon="8.2322717"><ele>166.0</ele><time>2026-04-11T09:00:15.288Z</time></trkpt><trkpt lat="45.02381" lon="8.2322517"><ele>166.0</ele><time>2026-04-11T09:00:16.288Z</time></trkpt><trkpt lat="45.0237367" lon="8.232225"><ele>165.66666666666669</ele><time>2026-04-11T09:00:17.288Z</time></trkpt><trkpt lat="45.02366" lon="8.2322117"><ele>165.33333333333334</ele><time>2026-04-11T09:00:18.288Z</time></trkpt><trkpt lat="45.0235783" lon="8.2322033"><ele>165.0</ele><time>2026-04-11T09:00:19.287Z</time></trkpt><trkpt lat="45.0234933" lon="8.2321917"><ele>164.66666666666666</ele><time>2026-04-11T09:00:20.287Z</time></trkpt><trkpt lat="45.02341" lon="8.2321567"><ele>164.33333333333331</ele><time>2026-04-11T09:00:21.287Z</time></trkpt><trkpt lat="45.0233283" lon="8.2321267"><ele>164.0</ele><time>2026-04-11T09:00:22.287Z</time></trkpt><trkpt lat="45.02325" lon="8.2320817"><ele>164.0</ele><time>2026-04-11T09:00:23.287Z</time></trkpt><trkpt lat="45.0231633" lon="8.2320533"><ele>164.0</ele><time>2026-04-11T09:00:24.287Z</time></trkpt><trkpt lat="45.0230817" lon="8.2320317"><ele>164.0</ele><time>2026-04-11T09:00:25.287Z</time></trkpt><trkpt lat="45.0230017" lon="8.2320133"><ele>164.0</ele><time>2026-04-11T09:00:26.287Z</time></trkpt><trkpt lat="45.0229283" lon="8.2319933"><ele>164.0</ele><time>2026-04-11T09:00:27.288Z</time></trkpt><trkpt lat="45.0228633" lon="8.2319817"><ele>164.0</ele><time>2026-04-11T09:00:28.287Z</time></trkpt><trkpt lat="45.0227783" lon="8.2319667"><ele>164.0</ele><time>2026-04-11T09:00:29.287Z</time></trkpt><trkpt lat="45.0226883" lon="8.231955"><ele>164.0</ele><time>2026-04-11T09:00:30.287Z</time></trkpt><trkpt lat="45.0225933" lon="8.23194"><ele>164.0</ele><time>2026-04-11T09:00:31.287Z</time></trkpt><trkpt lat="45.0225" lon="8.2319317"><ele>164.0</ele><time>2026-04-11T09:00:32.288Z</time></trkpt><trkpt lat="45.0224083" lon="8.2319117"><ele>164.0</ele><time>2026-04-11T09:00:33.288Z</time></trkpt><trkpt lat="45.022325" lon="8.2318867"><ele>163.83333333333331</ele><time>2026-04-11T09:00:34.287Z</time></trkpt><trkpt lat="45.02225" lon="8.2318533"><ele>163.66666666666666</ele><time>2026-04-11T09:00:35.287Z</time></trkpt><trkpt lat="45.02217" lon="8.2318233"><ele>163.5</ele><time>2026-04-11T09:00:36.287Z</time></trkpt><trkpt lat="45.0220833" lon="8.2318017"><ele>163.33333333333334</ele><time>2026-04-11T09:00:37.287Z</time></trkpt><trkpt lat="45.0219917" lon="8.2317817"><ele>163.16666666666669</ele><time>2026-04-11T09:00:38.288Z</time></trkpt><trkpt lat="45.0218867" lon="8.231755"><ele>163.0</ele><time>2026-04-11T09:00:39.288Z</time></trkpt><trkpt lat="45.0217817" lon="8.2317117"><ele>163.0</ele><time>2026-04-11T09:00:40.287Z</time></trkpt><trkpt lat="45.0216867" lon="8.2316733"><ele>163.0</ele><time>2026-04-11T09:00:41.287Z</time></trkpt><trkpt lat="45.0216017" lon="8.2316433"><ele>163.0</ele><time>2026-04-11T09:00:42.288Z</time></trkpt><trkpt lat="45.0215233" lon="8.2316067"><ele>163.0</ele><time>2026-04-11T09:00:43.287Z</time></trkpt><trkpt lat="45.0214483" lon="8.2315583"><ele>163.0</ele><time>2026-04-11T09:00:44.288Z</time></trkpt><trkpt lat="45.0213633" lon="8.2315083"><ele>163.0</ele><time>2026-04-11T09:00:45.288Z</time></trkpt><trkpt lat="45.021285" lon="8.231465"><ele>162.20000000000002</ele><time>2026-04-11T09:00:46.287Z</time></trkpt><trkpt lat="45.021215" lon="8.23141"><ele>161.4</ele><time>2026-04-11T09:00:47.288Z</time></trkpt><trkpt lat="45.0211367" lon="8.231355"><ele>160.60000000000002</ele><time>2026-04-11T09:00:48.287Z</time></trkpt><trkpt lat="45.0210717" lon="8.231315"><ele>159.8</ele><time>2026-04-11T09:00:49.287Z</time></trkpt><trkpt lat="45.0209583" lon="8.231255"><ele>159.0</ele><time>2026-04-11T09:00:51.287Z</time></trkpt><trkpt lat="45.020845" lon="8.2311867"><ele>160.0</ele><time>2026-04-11T09:00:53.288Z</time></trkpt><trkpt lat="45.0207867" lon="8.2311483"><ele>161.0</ele><time>2026-04-11T09:00:54.287Z</time></trkpt><trkpt lat="45.0207167" lon="8.2311017"><ele>162.0</ele><time>2026-04-11T09:00:55.288Z</time></trkpt><trkpt lat="45.0206383" lon="8.2310567"><ele>163.0</ele><time>2026-04-11T09:00:56.287Z</time></trkpt><trkpt lat="45.0205583" lon="8.2310067"><ele>164.0</ele><time>2026-04-11T09:00:57.287Z</time></trkpt><trkpt lat="45.0204683" lon="8.230955"><ele>165.0</ele><time>2026-04-11T09:00:58.288Z</time></trkpt><trkpt lat="45.0203833" lon="8.2309167"><ele>165.0</ele><time>2026-04-11T09:00:59.287Z</time></trkpt><trkpt lat="45.020295" lon="8.2308717"><ele>165.0</ele><time>2026-04-11T09:01:00.287Z</time></trkpt><trkpt lat="45.0202017" lon="8.2308233"><ele>165.0</ele><time>2026-04-11T09:01:01.287Z</time></trkpt><trkpt lat="45.020105" lon="8.23077"><ele>165.0</ele><time>2026-04-11T09:01:02.287Z</time></trkpt><trkpt lat="45.020015" lon="8.23071"><ele>165.0</ele><time>2026-04-11T09:01:03.287Z</time></trkpt><trkpt lat="45.019915" lon="8.230655"><ele>165.2</ele><time>2026-04-11T09:01:04.287Z</time></trkpt><trkpt lat="45.01983" lon="8.230595"><ele>165.4</ele><time>2026-04-11T09:01:05.287Z</time></trkpt><trkpt lat="45.019745" lon="8.23053"><ele>165.60000000000002</ele><time>2026-04-11T09:01:06.287Z</time></trkpt><trkpt lat="45.0196583" lon="8.230465"><ele>165.8</ele><time>2026-04-11T09:01:07.287Z</time></trkpt><trkpt lat="45.0195617" lon="8.2303917"><ele>166.0</ele><time>2026-04-11T09:01:08.287Z</time></trkpt><trkpt lat="45.0194617" lon="8.23031"><ele>166.0</ele><time>2026-04-11T09:01:09.287Z</time></trkpt><trkpt lat="45.0193767" lon="8.2302133"><ele>166.0</ele><time>2026-04-11T09:01:10.287Z</time></trkpt><trkpt lat="45.0192933" lon="8.230115"><ele>166.0</ele><time>2026-04-11T09:01:11.287Z</time></trkpt><trkpt lat="45.01921" lon="8.230025"><ele>166.0</ele><time>2026-04-11T09:01:12.288Z</time></trkpt><trkpt lat="45.01913" lon="8.229935"><ele>166.0</ele><time>2026-04-11T09:01:13.287Z</time></trkpt><trkpt lat="45.019045" lon="8.2298567"><ele>165.4</ele><time>2026-04-11T09:01:14.287Z</time></trkpt><trkpt lat="45.0189767" lon="8.229785"><ele>164.8</ele><time>2026-04-11T09:01:15.287Z</time></trkpt><trkpt lat="45.018915" lon="8.2297183"><ele>164.20000000000002</ele><time>2026-04-11T09:01:16.287Z</time></trkpt><trkpt lat="45.0188567" lon="8.2296367"><ele>163.60000000000002</ele><time>2026-04-11T09:01:17.288Z</time></trkpt><trkpt lat="45.0188" lon="8.2295783"><ele>163.0</ele><time>2026-04-11T09:01:18.287Z</time></trkpt><trkpt lat="45.0186733" lon="8.2295033"><ele>163.0</ele><time>2026-04-11T09:01:20.287Z</time></trkpt><trkpt lat="45.018595" lon="8.2294383"><ele>163.0</ele><time>2026-04-11T09:01:21.287Z</time></trkpt><trkpt lat="45.0185167" lon="8.2293683"><ele>163.0</ele><time>2026-04-11T09:01:22.287Z</time></trkpt><trkpt lat="45.0184433" lon="8.229285"><ele>163.0</ele><time>2026-04-11T09:01:23.287Z</time></trkpt><trkpt lat="45.0183717" lon="8.2292033"><ele>163.0</ele><time>2026-04-11T09:01:24.288Z</time></trkpt><trkpt lat="45.01829" lon="8.2291217"><ele>163.2</ele><time>2026-04-11T09:01:25.287Z</time></trkpt><trkpt lat="45.018205" lon="8.22904"><ele>163.4</ele><time>2026-04-11T09:01:26.287Z</time></trkpt><trkpt lat="45.0181333" lon="8.228965"><ele>163.6</ele><time>2026-04-11T09:01:27.288Z</time></trkpt><trkpt lat="45.0180567" lon="8.2288933"><ele>163.79999999999998</ele><time>2026-04-11T09:01:28.287Z</time></trkpt><trkpt lat="45.0179817" lon="8.228835"><ele>164.0</ele><time>2026-04-11T09:01:29.287Z</time></trkpt><trkpt lat="45.0179067" lon="8.22877"><ele>163.42857142857142</ele><time>2026-04-11T09:01:30.287Z</time></trkpt><trkpt lat="45.017845" lon="8.2287133"><ele>162.85714285714286</ele><time>2026-04-11T09:01:31.288Z</time></trkpt><trkpt lat="45.0177833" lon="8.2286517"><ele>162.28571428571428</ele><time>2026-04-11T09:01:32.287Z</time></trkpt><trkpt lat="45.0177233" lon="8.2285867"><ele>161.71428571428572</ele><time>2026-04-11T09:01:33.287Z</time></trkpt><trkpt lat="45.0176583" lon="8.22853"><ele>161.14285714285714</ele><time>2026-04-11T09:01:34.288Z</time></trkpt><trkpt lat="45.0175817" lon="8.2285067"><ele>160.57142857142856</ele><time>2026-04-11T09:01:35.287Z</time></trkpt><trkpt lat="45.017515" lon="8.2284867"><ele>160.0</ele><time>2026-04-11T09:01:36.287Z</time></trkpt><trkpt lat="45.017445" lon="8.2284517"><ele>160.0</ele><time>2026-04-11T09:01:37.288Z</time></trkpt><trkpt lat="45.01738" lon="8.22843"><ele>160.0</ele><time>2026-04-11T09:01:38.287Z</time></trkpt><trkpt lat="45.0173167" lon="8.228415"><ele>160.0</ele><time>2026-04-11T09:01:39.288Z</time></trkpt><trkpt lat="45.0172533" lon="8.2283917"><ele>160.0</ele><time>2026-04-11T09:01:40.287Z</time></trkpt><trkpt lat="45.0171433" lon="8.2283583"><ele>160.0</ele><time>2026-04-11T09:01:42.288Z</time></trkpt><trkpt lat="45.01708" lon="8.22835"><ele>160.0</ele><time>2026-04-11T09:01:43.288Z</time></trkpt><trkpt lat="45.0170133" lon="8.22834"><ele>160.0</ele><time>2026-04-11T09:01:44.287Z</time></trkpt><trkpt lat="45.0169067" lon="8.2283133"><ele>160.0</ele><time>2026-04-11T09:01:46.288Z</time></trkpt><trkpt lat="45.0168267" lon="8.2282967"><ele>160.0</ele><time>2026-04-11T09:01:48.287Z</time></trkpt><trkpt lat="45.0167383" lon="8.2282767"><ele>160.0</ele><time>2026-04-11T09:01:51.287Z</time></trkpt><trkpt lat="45.0166333" lon="8.22825"><ele>160.0</ele><time>2026-04-11T09:01:54.288Z</time></trkpt><trkpt lat="45.0165367" lon="8.2282317"><ele>160.0</ele><time>2026-04-11T09:01:56.287Z</time></trkpt><trkpt lat="45.0164517" lon="8.2282267"><ele>160.16666666666669</ele><time>2026-04-11T09:01:58.287Z</time></trkpt><trkpt lat="45.0163583" lon="8.22821"><ele>160.33333333333334</ele><time>2026-04-11T09:02:00.288Z</time></trkpt><trkpt lat="45.0162467" lon="8.2281767"><ele>160.5</ele><time>2026-04-11T09:02:02.287Z</time></trkpt><trkpt lat="45.0161833" lon="8.2281583"><ele>160.66666666666666</ele><time>2026-04-11T09:02:03.287Z</time></trkpt><trkpt lat="45.01608" lon="8.2281133"><ele>160.83333333333331</ele><time>2026-04-11T09:02:05.287Z</time></trkpt><trkpt lat="45.016025" lon="8.2280617"><ele>161.0</ele><time>2026-04-11T09:02:07.287Z</time></trkpt><trkpt lat="45.015965" lon="8.2279783"><ele>161.0</ele><time>2026-04-11T09:02:09.287Z</time></trkpt><trkpt lat="45.015915" lon="8.2279067"><ele>161.0</ele><time>2026-04-11T09:02:11.287Z</time></trkpt><trkpt lat="45.0158617" lon="8.2278383"><ele>161.0</ele><time>2026-04-11T09:02:13.288Z</time></trkpt><trkpt lat="45.0157667" lon="8.227705"><ele>161.0</ele><time>2026-04-11T09:02:15.287Z</time></trkpt><trkpt lat="45.0157117" lon="8.2276367"><ele>161.0</ele><time>2026-04-11T09:02:16.288Z</time></trkpt><trkpt lat="45.015665" lon="8.2275533"><ele>161.0</ele><time>2026-04-11T09:02:17.288Z</time></trkpt><trkpt lat="45.0156183" lon="8.2274717"><ele>160.28571428571428</ele><time>2026-04-11T09:02:18.288Z</time></trkpt><trkpt lat="45.015565" lon="8.2273867"><ele>159.57142857142856</ele><time>2026-04-11T09:02:19.287Z</time></trkpt><trkpt lat="45.015515" lon="8.2273117"><ele>158.85714285714286</ele><time>2026-04-11T09:02:20.288Z</time></trkpt><trkpt lat="45.0154567" lon="8.227235"><ele>158.14285714285714</ele><time>2026-04-11T09:02:21.288Z</time></trkpt><trkpt lat="45.0154033" lon="8.2271667"><ele>157.42857142857142</ele><time>2026-04-11T09:02:22.287Z</time></trkpt><trkpt lat="45.0153467" lon="8.2271033"><ele>156.71428571428572</ele><time>2026-04-11T09:02:23.287Z</time></trkpt><trkpt lat="45.0152967" lon="8.2270383"><ele>156.0</ele><time>2026-04-11T09:02:24.287Z</time></trkpt><trkpt lat="45.0152383" lon="8.2269717"><ele>156.0</ele><time>2026-04-11T09:02:25.287Z</time></trkpt><trkpt lat="45.0151833" lon="8.2269017"><ele>156.0</ele><time>2026-04-11T09:02:26.287Z</time></trkpt><trkpt lat="45.0151283" lon="8.2268067"><ele>156.0</ele><time>2026-04-11T09:02:27.287Z</time></trkpt><trkpt lat="45.0150617" lon="8.2267167"><ele>156.0</ele><time>2026-04-11T09:02:28.287Z</time></trkpt><trkpt lat="45.015005" lon="8.2266233"><ele>156.0</ele><time>2026-04-11T09:02:29.287Z</time></trkpt><trkpt lat="45.0149517" lon="8.2265183"><ele>156.0</ele><time>2026-04-11T09:02:30.287Z</time></trkpt><trkpt lat="45.0149" lon="8.2264217"><ele>156.33333333333334</ele><time>2026-04-11T09:02:31.287Z</time></trkpt><trkpt lat="45.0148467" lon="8.22633"><ele>156.66666666666666</ele><time>2026-04-11T09:02:32.288Z</time></trkpt><trkpt lat="45.014795" lon="8.2262283"><ele>157.0</ele><time>2026-04-11T09:02:33.287Z</time></trkpt><trkpt lat="45.0147483" lon="8.22612"><ele>157.33333333333331</ele><time>2026-04-11T09:02:34.287Z</time></trkpt><trkpt lat="45.014695" lon="8.22601"><ele>157.66666666666666</ele><time>2026-04-11T09:02:35.288Z</time></trkpt><trkpt lat="45.0146383" lon="8.2259183"><ele>158.0</ele><time>2026-04-11T09:02:36.288Z</time></trkpt><trkpt lat="45.0145817" lon="8.2258317"><ele>158.0</ele><time>2026-04-11T09:02:37.288Z</time></trkpt><trkpt lat="45.0145183" lon="8.22574"><ele>158.0</ele><time>2026-04-11T09:02:38.287Z</time></trkpt><trkpt lat="45.01445" lon="8.2256383"><ele>158.0</ele><time>2026-04-11T09:02:39.287Z</time></trkpt><trkpt lat="45.0143867" lon="8.22553"><ele>158.0</ele><time>2026-04-11T09:02:40.287Z</time></trkpt><trkpt lat="45.0143333" lon="8.22542"><ele>158.0</ele><time>2026-04-11T09:02:41.287Z</time></trkpt><trkpt lat="45.0142783" lon="8.225295"><ele>158.0</ele><time>2026-04-11T09:02:42.287Z</time></trkpt><trkpt lat="45.0142317" lon="8.2251733"><ele>158.0</ele><time>2026-04-11T09:02:43.287Z</time></trkpt><trkpt lat="45.0142017" lon="8.2250467"><ele>158.0</ele><time>2026-04-11T09:02:44.287Z</time></trkpt><trkpt lat="45.0141783" lon="8.2249217"><ele>158.0</ele><time>2026-04-11T09:02:45.287Z</time></trkpt><trkpt lat="45.0141567" lon="8.2248017"><ele>158.0</ele><time>2026-04-11T09:02:46.288Z</time></trkpt><trkpt lat="45.0141183" lon="8.2245683"><ele>158.16666666666666</ele><time>2026-04-11T09:02:48.287Z</time></trkpt><trkpt lat="45.0140933" lon="8.2244633"><ele>158.33333333333331</ele><time>2026-04-11T09:02:49.287Z</time></trkpt><trkpt lat="45.0140633" lon="8.22431"><ele>158.5</ele><time>2026-04-11T09:02:51.287Z</time></trkpt><trkpt lat="45.0140633" lon="8.224215"><ele>158.66666666666666</ele><time>2026-04-11T09:02:53.287Z</time></trkpt><trkpt lat="45.0141367" lon="8.2241117"><ele>158.83333333333334</ele><time>2026-04-11T09:03:08.287Z</time></trkpt><trkpt lat="45.0141983" lon="8.22409"><ele>159.0</ele><time>2026-04-11T09:03:11.287Z</time></trkpt><trkpt lat="45.0142783" lon="8.2240617"><ele>158.25</ele><time>2026-04-11T09:03:13.287Z</time></trkpt><trkpt lat="45.0143983" lon="8.22401"><ele>157.5</ele><time>2026-04-11T09:03:15.287Z</time></trkpt><trkpt lat="45.01456" lon="8.22394"><ele>156.75</ele><time>2026-04-11T09:03:17.288Z</time></trkpt><trkpt lat="45.0146383" lon="8.2239067"><ele>156.0</ele><time>2026-04-11T09:03:18.287Z</time></trkpt><trkpt lat="45.0147217" lon="8.2238833"><ele>155.83333333333334</ele><time>2026-04-11T09:03:19.287Z</time></trkpt><trkpt lat="45.0147917" lon="8.223855"><ele>155.66666666666666</ele><time>2026-04-11T09:03:20.287Z</time></trkpt><trkpt lat="45.014865" lon="8.2238233"><ele>155.5</ele><time>2026-04-11T09:03:21.287Z</time></trkpt><trkpt lat="45.014945" lon="8.2238017"><ele>155.33333333333331</ele><time>2026-04-11T09:03:22.288Z</time></trkpt><trkpt lat="45.01503" lon="8.2237683"><ele>155.16666666666666</ele><time>2026-04-11T09:03:23.287Z</time></trkpt><trkpt lat="45.0151167" lon="8.223735"><ele>155.0</ele><time>2026-04-11T09:03:24.287Z</time></trkpt><trkpt lat="45.0152067" lon="8.2237017"><ele>155.0</ele><time>2026-04-11T09:03:25.288Z</time></trkpt><trkpt lat="45.015305" lon="8.2236833"><ele>155.0</ele><time>2026-04-11T09:03:26.288Z</time></trkpt><trkpt lat="45.015395" lon="8.2236633"><ele>155.0</ele><time>2026-04-11T09:03:27.287Z</time></trkpt><trkpt lat="45.0154833" lon="8.223645"><ele>155.0</ele><time>2026-04-11T09:03:28.287Z</time></trkpt><trkpt lat="45.01556" lon="8.223625"><ele>155.0</ele><time>2026-04-11T09:03:29.287Z</time></trkpt><trkpt lat="45.0156317" lon="8.2236"><ele>155.0</ele><time>2026-04-11T09:03:30.288Z</time></trkpt><trkpt lat="45.015715" lon="8.2235783"><ele>155.0</ele><time>2026-04-11T09:03:31.287Z</time></trkpt><trkpt lat="45.01579" lon="8.223565"><ele>155.0</ele><time>2026-04-11T09:03:32.287Z</time></trkpt><trkpt lat="45.015865" lon="8.22355"><ele>155.0</ele><time>2026-04-11T09:03:33.288Z</time></trkpt><trkpt lat="45.0159383" lon="8.2235433"><ele>155.0</ele><time>2026-04-11T09:03:34.288Z</time></trkpt><trkpt lat="45.0160033" lon="8.2235217"><ele>155.0</ele><time>2026-04-11T09:03:35.287Z</time></trkpt><trkpt lat="45.016065" lon="8.2234883"><ele>155.0</ele><time>2026-04-11T09:03:36.287Z</time></trkpt><trkpt lat="45.01613" lon="8.2234467"><ele>155.0</ele><time>2026-04-11T09:03:37.287Z</time></trkpt><trkpt lat="45.0162267" lon="8.2233617"><ele>155.4</ele><time>2026-04-11T09:03:39.287Z</time></trkpt><trkpt lat="45.0162883" lon="8.2232367"><ele>155.8</ele><time>2026-04-11T09:03:41.287Z</time></trkpt><trkpt lat="45.0162817" lon="8.2230683"><ele>156.2</ele><time>2026-04-11T09:03:43.286Z</time></trkpt><trkpt lat="45.0162233" lon="8.2228883"><ele>156.6</ele><time>2026-04-11T09:03:45.287Z</time></trkpt><trkpt lat="45.0161733" lon="8.2228217"><ele>157.0</ele><time>2026-04-11T09:03:46.286Z</time></trkpt><trkpt lat="45.0160867" lon="8.2227217"><ele>157.0</ele><time>2026-04-11T09:03:48.286Z</time></trkpt><trkpt lat="45.01603" lon="8.2226417"><ele>157.0</ele><time>2026-04-11T09:03:50.287Z</time></trkpt><trkpt lat="45.0159617" lon="8.2225467"><ele>157.0</ele><time>2026-04-11T09:03:52.286Z</time></trkpt><trkpt lat="45.01596" lon="8.2223667"><ele>157.0</ele><time>2026-04-11T09:03:55.286Z</time></trkpt><trkpt lat="45.0160467" lon="8.222305"><ele>157.0</ele><time>2026-04-11T09:03:57.287Z</time></trkpt><trkpt lat="45.01611" lon="8.2222967"><ele>156.66666666666669</ele><time>2026-04-11T09:03:58.286Z</time></trkpt><trkpt lat="45.0161833" lon="8.2222833"><ele>156.33333333333334</ele><time>2026-04-11T09:03:59.287Z</time></trkpt><trkpt lat="45.0162583" lon="8.2222317"><ele>156.0</ele><time>2026-04-11T09:04:00.286Z</time></trkpt><trkpt lat="45.0163117" lon="8.2221733"><ele>155.66666666666666</ele><time>2026-04-11T09:04:01.286Z</time></trkpt><trkpt lat="45.01633" lon="8.222"><ele>155.33333333333331</ele><time>2026-04-11T09:04:03.286Z</time></trkpt><trkpt lat="45.0163317" lon="8.2218917"><ele>155.0</ele><time>2026-04-11T09:04:04.286Z</time></trkpt><trkpt lat="45.016435" lon="8.221675"><ele>155.0</ele><time>2026-04-11T09:04:07.287Z</time></trkpt><trkpt lat="45.0165067" lon="8.2216333"><ele>155.0</ele><time>2026-04-11T09:04:08.287Z</time></trkpt><trkpt lat="45.0165817" lon="8.2215933"><ele>155.0</ele><time>2026-04-11T09:04:09.286Z</time></trkpt><trkpt lat="45.0166717" lon="8.2215783"><ele>155.0</ele><time>2026-04-11T09:04:10.286Z</time></trkpt><trkpt lat="45.0167633" lon="8.2215317"><ele>155.0</ele><time>2026-04-11T09:04:11.286Z</time></trkpt><trkpt lat="45.0168433" lon="8.2214683"><ele>155.0</ele><time>2026-04-11T09:04:12.286Z</time></trkpt><trkpt lat="45.01691" lon="8.2213933"><ele>155.4</ele><time>2026-04-11T09:04:13.286Z</time></trkpt><trkpt lat="45.0169567" lon="8.2212983"><ele>155.8</ele><time>2026-04-11T09:04:14.286Z</time></trkpt><trkpt lat="45.01697" lon="8.2211817"><ele>156.2</ele><time>2026-04-11T09:04:15.286Z</time></trkpt><trkpt lat="45.0169683" lon="8.22105"><ele>156.6</ele><time>2026-04-11T09:04:16.286Z</time></trkpt><trkpt lat="45.0169683" lon="8.2209117"><ele>157.0</ele><time>2026-04-11T09:04:17.287Z</time></trkpt><trkpt lat="45.0169633" lon="8.220765"><ele>156.79999999999998</ele><time>2026-04-11T09:04:18.287Z</time></trkpt><trkpt lat="45.016955" lon="8.2206133"><ele>156.6</ele><time>2026-04-11T09:04:19.286Z</time></trkpt><trkpt lat="45.0169533" lon="8.2204633"><ele>156.39999999999998</ele><time>2026-04-11T09:04:20.287Z</time></trkpt><trkpt lat="45.0169417" lon="8.2203183"><ele>156.2</ele><time>2026-04-11T09:04:21.286Z</time></trkpt><trkpt lat="45.016935" lon="8.2201583"><ele>156.0</ele><time>2026-04-11T09:04:22.287Z</time></trkpt><trkpt lat="45.0169333" lon="8.219985"><ele>156.2</ele><time>2026-04-11T09:04:23.286Z</time></trkpt><trkpt lat="45.016935" lon="8.21981"><ele>156.39999999999998</ele><time>2026-04-11T09:04:24.287Z</time></trkpt><trkpt lat="45.0169317" lon="8.21965"><ele>156.6</ele><time>2026-04-11T09:04:25.286Z</time></trkpt><trkpt lat="45.016935" lon="8.2195067"><ele>156.79999999999998</ele><time>2026-04-11T09:04:26.286Z</time></trkpt><trkpt lat="45.0169367" lon="8.219395"><ele>157.0</ele><time>2026-04-11T09:04:27.286Z</time></trkpt><trkpt lat="45.0169383" lon="8.2193017"><ele>157.0</ele><time>2026-04-11T09:04:28.286Z</time></trkpt><trkpt lat="45.0169433" lon="8.2191617"><ele>157.0</ele><time>2026-04-11T09:04:30.286Z</time></trkpt><trkpt lat="45.016955" lon="8.21904"><ele>157.0</ele><time>2026-04-11T09:04:33.286Z</time></trkpt><trkpt lat="45.0169667" lon="8.2189283"><ele>157.0</ele><time>2026-04-11T09:04:36.287Z</time></trkpt><trkpt lat="45.0169633" lon="8.2188383"><ele>157.0</ele><time>2026-04-11T09:04:38.286Z</time></trkpt><trkpt lat="45.0169517" lon="8.21874"><ele>157.0</ele><time>2026-04-11T09:04:40.286Z</time></trkpt><trkpt lat="45.0169333" lon="8.218625"><ele>157.2</ele><time>2026-04-11T09:04:42.286Z</time></trkpt><trkpt lat="45.0169767" lon="8.2185217"><ele>157.39999999999998</ele><time>2026-04-11T09:04:44.286Z</time></trkpt><trkpt lat="45.01707" lon="8.218445"><ele>157.60000000000002</ele><time>2026-04-11T09:04:46.287Z</time></trkpt><trkpt lat="45.01717" lon="8.2184033"><ele>157.8</ele><time>2026-04-11T09:04:48.286Z</time></trkpt><trkpt lat="45.0172867" lon="8.2183383"><ele>158.0</ele><time>2026-04-11T09:04:50.286Z</time></trkpt><trkpt lat="45.01735" lon="8.2183133"><ele>158.0</ele><time>2026-04-11T09:04:51.286Z</time></trkpt><trkpt lat="45.0174167" lon="8.2182933"><ele>158.0</ele><time>2026-04-11T09:04:52.287Z</time></trkpt><trkpt lat="45.0174867" lon="8.21826"><ele>158.0</ele><time>2026-04-11T09:04:53.286Z</time></trkpt><trkpt lat="45.01756" lon="8.218215"><ele>158.0</ele><time>2026-04-11T09:04:54.287Z</time></trkpt><trkpt lat="45.0176383" lon="8.2181833"><ele>158.0</ele><time>2026-04-11T09:04:55.287Z</time></trkpt><trkpt lat="45.017725" lon="8.2181467"><ele>158.0</ele><time>2026-04-11T09:04:56.286Z</time></trkpt><trkpt lat="45.0178183" lon="8.2181117"><ele>158.4</ele><time>2026-04-11T09:04:57.286Z</time></trkpt><trkpt lat="45.0179167" lon="8.21807"><ele>158.8</ele><time>2026-04-11T09:04:58.286Z</time></trkpt><trkpt lat="45.0180167" lon="8.2180283"><ele>159.2</ele><time>2026-04-11T09:04:59.287Z</time></trkpt><trkpt lat="45.018115" lon="8.2179817"><ele>159.6</ele><time>2026-04-11T09:05:00.287Z</time></trkpt><trkpt lat="45.018225" lon="8.217945"><ele>160.0</ele><time>2026-04-11T09:05:01.286Z</time></trkpt><trkpt lat="45.018325" lon="8.21791"><ele>161.8</ele><time>2026-04-11T09:05:02.287Z</time></trkpt><trkpt lat="45.0184283" lon="8.2178567"><ele>163.6</ele><time>2026-04-11T09:05:03.286Z</time></trkpt><trkpt lat="45.0185317" lon="8.2177983"><ele>165.39999999999998</ele><time>2026-04-11T09:05:04.286Z</time></trkpt><trkpt lat="45.0186333" lon="8.21774"><ele>167.2</ele><time>2026-04-11T09:05:05.286Z</time></trkpt><trkpt lat="45.0187283" lon="8.2176783"><ele>169.0</ele><time>2026-04-11T09:05:06.287Z</time></trkpt><trkpt lat="45.0188183" lon="8.217625"><ele>169.0</ele><time>2026-04-11T09:05:07.287Z</time></trkpt><trkpt lat="45.0189217" lon="8.2175833"><ele>169.0</ele><time>2026-04-11T09:05:08.287Z</time></trkpt><trkpt lat="45.0190217" lon="8.2175233"><ele>169.0</ele><time>2026-04-11T09:05:09.286Z</time></trkpt><trkpt lat="45.019105" lon="8.2174617"><ele>169.0</ele><time>2026-04-11T09:05:10.286Z</time></trkpt><trkpt lat="45.0191833" lon="8.2173967"><ele>169.0</ele><time>2026-04-11T09:05:11.287Z</time></trkpt><trkpt lat="45.019255" lon="8.2173383"><ele>170.5</ele><time>2026-04-11T09:05:12.286Z</time></trkpt><trkpt lat="45.0193283" lon="8.217275"><ele>172.0</ele><time>2026-04-11T09:05:13.286Z</time></trkpt><trkpt lat="45.0193983" lon="8.2172217"><ele>173.5</ele><time>2026-04-11T09:05:14.286Z</time></trkpt><trkpt lat="45.01947" lon="8.2171733"><ele>175.0</ele><time>2026-04-11T09:05:15.286Z</time></trkpt><trkpt lat="45.0195467" lon="8.2171167"><ele>176.5</ele><time>2026-04-11T09:05:16.286Z</time></trkpt><trkpt lat="45.019625" lon="8.2170633"><ele>178.0</ele><time>2026-04-11T09:05:17.286Z</time></trkpt><trkpt lat="45.0197017" lon="8.2169983"><ele>178.0</ele><time>2026-04-11T09:05:18.286Z</time></trkpt><trkpt lat="45.0197817" lon="8.2169417"><ele>178.0</ele><time>2026-04-11T09:05:19.286Z</time></trkpt><trkpt lat="45.0198667" lon="8.216885"><ele>178.0</ele><time>2026-04-11T09:05:20.286Z</time></trkpt><trkpt lat="45.0199533" lon="8.2168367"><ele>178.0</ele><time>2026-04-11T09:05:21.286Z</time></trkpt><trkpt lat="45.0200383" lon="8.2167783"><ele>178.0</ele><time>2026-04-11T09:05:22.286Z</time></trkpt><trkpt lat="45.0201233" lon="8.2167167"><ele>177.60000000000002</ele><time>2026-04-11T09:05:23.287Z</time></trkpt><trkpt lat="45.0202183" lon="8.216655"><ele>177.20000000000002</ele><time>2026-04-11T09:05:24.286Z</time></trkpt><trkpt lat="45.020315" lon="8.2165867"><ele>176.8</ele><time>2026-04-11T09:05:25.287Z</time></trkpt><trkpt lat="45.0204033" lon="8.2165183"><ele>176.4</ele><time>2026-04-11T09:05:26.286Z</time></trkpt><trkpt lat="45.0204967" lon="8.21646"><ele>176.0</ele><time>2026-04-11T09:05:27.286Z</time></trkpt><trkpt lat="45.0205883" lon="8.2164017"><ele>176.0</ele><time>2026-04-11T09:05:28.286Z</time></trkpt><trkpt lat="45.02068" lon="8.2163467"><ele>176.0</ele><time>2026-04-11T09:05:29.286Z</time></trkpt><trkpt lat="45.0207717" lon="8.2162983"><ele>176.0</ele><time>2026-04-11T09:05:30.286Z</time></trkpt><trkpt lat="45.0208683" lon="8.2162617"><ele>176.0</ele><time>2026-04-11T09:05:31.287Z</time></trkpt><trkpt lat="45.0209467" lon="8.216245"><ele>176.0</ele><time>2026-04-11T09:05:32.287Z</time></trkpt><trkpt lat="45.0210333" lon="8.2162533"><ele>178.0</ele><time>2026-04-11T09:05:33.287Z</time></trkpt><trkpt lat="45.02112" lon="8.2162567"><ele>180.0</ele><time>2026-04-11T09:05:34.286Z</time></trkpt><trkpt lat="45.0212233" lon="8.21628"><ele>182.0</ele><time>2026-04-11T09:05:35.286Z</time></trkpt><trkpt lat="45.0213117" lon="8.2162983"><ele>184.0</ele><time>2026-04-11T09:05:36.286Z</time></trkpt><trkpt lat="45.0214067" lon="8.2163067"><ele>186.0</ele><time>2026-04-11T09:05:37.286Z</time></trkpt><trkpt lat="45.0214983" lon="8.21631"><ele>186.0</ele><time>2026-04-11T09:05:38.286Z</time></trkpt><trkpt lat="45.0215933" lon="8.2163033"><ele>186.0</ele><time>2026-04-11T09:05:39.286Z</time></trkpt><trkpt lat="45.0216733" lon="8.2163"><ele>186.0</ele><time>2026-04-11T09:05:40.286Z</time></trkpt><trkpt lat="45.0217483" lon="8.2162817"><ele>186.0</ele><time>2026-04-11T09:05:41.286Z</time></trkpt><trkpt lat="45.0218383" lon="8.2162383"><ele>186.0</ele><time>2026-04-11T09:05:42.286Z</time></trkpt><trkpt lat="45.0219183" lon="8.2161817"><ele>186.0</ele><time>2026-04-11T09:05:43.287Z</time></trkpt><trkpt lat="45.0219933" lon="8.216135"><ele>186.66666666666666</ele><time>2026-04-11T09:05:44.286Z</time></trkpt><trkpt lat="45.0220667" lon="8.2160917"><ele>187.33333333333334</ele><time>2026-04-11T09:05:45.287Z</time></trkpt><trkpt lat="45.02214" lon="8.21605"><ele>188.0</ele><time>2026-04-11T09:05:46.286Z</time></trkpt><trkpt lat="45.0222183" lon="8.216015"><ele>188.66666666666669</ele><time>2026-04-11T09:05:47.286Z</time></trkpt><trkpt lat="45.0222983" lon="8.2159733"><ele>189.33333333333334</ele><time>2026-04-11T09:05:48.287Z</time></trkpt><trkpt lat="45.0223817" lon="8.2159283"><ele>190.0</ele><time>2026-04-11T09:05:49.287Z</time></trkpt><trkpt lat="45.0224617" lon="8.2158817"><ele>192.0</ele><time>2026-04-11T09:05:50.287Z</time></trkpt><trkpt lat="45.0225483" lon="8.2158433"><ele>194.0</ele><time>2026-04-11T09:05:51.287Z</time></trkpt><trkpt lat="45.022635" lon="8.2158183"><ele>196.0</ele><time>2026-04-11T09:05:52.286Z</time></trkpt><trkpt lat="45.02273" lon="8.2158133"><ele>198.0</ele><time>2026-04-11T09:05:53.286Z</time></trkpt><trkpt lat="45.02282" lon="8.2158233"><ele>200.0</ele><time>2026-04-11T09:05:54.287Z</time></trkpt><trkpt lat="45.0229133" lon="8.21585"><ele>200.0</ele><time>2026-04-11T09:05:55.286Z</time></trkpt><trkpt lat="45.0230033" lon="8.2158817"><ele>200.0</ele><time>2026-04-11T09:05:56.286Z</time></trkpt><trkpt lat="45.02309" lon="8.21592"><ele>200.0</ele><time>2026-04-11T09:05:57.287Z</time></trkpt><trkpt lat="45.023185" lon="8.215945"><ele>200.0</ele><time>2026-04-11T09:05:58.287Z</time></trkpt><trkpt lat="45.0232883" lon="8.21598"><ele>200.0</ele><time>2026-04-11T09:05:59.287Z</time></trkpt><trkpt lat="45.0233817" lon="8.2159967"><ele>201.0</ele><time>2026-04-11T09:06:00.287Z</time></trkpt><trkpt lat="45.02348" lon="8.2160283"><ele>202.0</ele><time>2026-04-11T09:06:01.287Z</time></trkpt><trkpt lat="45.0235833" lon="8.2160583"><ele>203.0</ele><time>2026-04-11T09:06:02.286Z</time></trkpt><trkpt lat="45.0236883" lon="8.2160867"><ele>204.0</ele><time>2026-04-11T09:06:03.286Z</time></trkpt><trkpt lat="45.0237967" lon="8.2160933"><ele>205.0</ele><time>2026-04-11T09:06:04.286Z</time></trkpt><trkpt lat="45.0239033" lon="8.2161017"><ele>205.0</ele><time>2026-04-11T09:06:05.286Z</time></trkpt><trkpt lat="45.0240133" lon="8.2161167"><ele>205.0</ele><time>2026-04-11T09:06:06.286Z</time></trkpt><trkpt lat="45.02412" lon="8.2161317"><ele>205.0</ele><time>2026-04-11T09:06:07.286Z</time></trkpt><trkpt lat="45.0242283" lon="8.2161467"><ele>205.0</ele><time>2026-04-11T09:06:08.287Z</time></trkpt><trkpt lat="45.0243317" lon="8.21615"><ele>205.0</ele><time>2026-04-11T09:06:09.286Z</time></trkpt><trkpt lat="45.0244433" lon="8.2161333"><ele>205.8</ele><time>2026-04-11T09:06:10.286Z</time></trkpt><trkpt lat="45.024555" lon="8.2161083"><ele>206.6</ele><time>2026-04-11T09:06:11.287Z</time></trkpt><trkpt lat="45.024665" lon="8.2160833"><ele>207.39999999999998</ele><time>2026-04-11T09:06:12.286Z</time></trkpt><trkpt lat="45.024765" lon="8.2160533"><ele>208.2</ele><time>2026-04-11T09:06:13.286Z</time></trkpt><trkpt lat="45.0248667" lon="8.216015"><ele>209.0</ele><time>2026-04-11T09:06:14.286Z</time></trkpt><trkpt lat="45.024955" lon="8.2159867"><ele>210.00000000000003</ele><time>2026-04-11T09:06:15.286Z</time></trkpt><trkpt lat="45.0250383" lon="8.2159517"><ele>211.0</ele><time>2026-04-11T09:06:16.286Z</time></trkpt><trkpt lat="45.025105" lon="8.2159167"><ele>212.0</ele><time>2026-04-11T09:06:17.287Z</time></trkpt><trkpt lat="45.0251667" lon="8.2158867"><ele>213.0</ele><time>2026-04-11T09:06:18.286Z</time></trkpt><trkpt lat="45.0252317" lon="8.2158633"><ele>214.00000000000003</ele><time>2026-04-11T09:06:19.286Z</time></trkpt><trkpt lat="45.0253033" lon="8.2158467"><ele>215.0</ele><time>2026-04-11T09:06:20.287Z</time></trkpt><trkpt lat="45.0253867" lon="8.2158133"><ele>215.0</ele><time>2026-04-11T09:06:21.286Z</time></trkpt><trkpt lat="45.02547" lon="8.2157917"><ele>215.0</ele><time>2026-04-11T09:06:22.287Z</time></trkpt><trkpt lat="45.0255667" lon="8.215755"><ele>215.0</ele><time>2026-04-11T09:06:23.286Z</time></trkpt><trkpt lat="45.0256617" lon="8.215725"><ele>215.0</ele><time>2026-04-11T09:06:24.287Z</time></trkpt><trkpt lat="45.0257533" lon="8.2157017"><ele>215.0</ele><time>2026-04-11T09:06:25.287Z</time></trkpt><trkpt lat="45.0258483" lon="8.2156767"><ele>213.8</ele><time>2026-04-11T09:06:26.286Z</time></trkpt><trkpt lat="45.02594" lon="8.2156383"><ele>212.6</ele><time>2026-04-11T09:06:27.286Z</time></trkpt><trkpt lat="45.0260233" lon="8.2156"><ele>211.39999999999998</ele><time>2026-04-11T09:06:28.287Z</time></trkpt><trkpt lat="45.02612" lon="8.2155567"><ele>210.2</ele><time>2026-04-11T09:06:29.286Z</time></trkpt><trkpt lat="45.026215" lon="8.2155117"><ele>209.0</ele><time>2026-04-11T09:06:30.286Z</time></trkpt><trkpt lat="45.0263967" lon="8.2154883"><ele>209.0</ele><time>2026-04-11T09:06:32.287Z</time></trkpt><trkpt lat="45.0264783" lon="8.2154767"><ele>209.0</ele><time>2026-04-11T09:06:33.286Z</time></trkpt><trkpt lat="45.0265533" lon="8.2154783"><ele>209.0</ele><time>2026-04-11T09:06:34.286Z</time></trkpt><trkpt lat="45.02662" lon="8.2154983"><ele>209.0</ele><time>2026-04-11T09:06:35.286Z</time></trkpt><trkpt lat="45.0267267" lon="8.2155317"><ele>209.0</ele><time>2026-04-11T09:06:37.286Z</time></trkpt><trkpt lat="45.0268567" lon="8.2155483"><ele>209.16666666666669</ele><time>2026-04-11T09:06:40.287Z</time></trkpt><trkpt lat="45.0269583" lon="8.2155567"><ele>209.33333333333334</ele><time>2026-04-11T09:06:42.286Z</time></trkpt><trkpt lat="45.0270233" lon="8.215565"><ele>209.5</ele><time>2026-04-11T09:06:43.287Z</time></trkpt><trkpt lat="45.02709" lon="8.2155683"><ele>209.66666666666669</ele><time>2026-04-11T09:06:44.286Z</time></trkpt><trkpt lat="45.027165" lon="8.2155733"><ele>209.83333333333334</ele><time>2026-04-11T09:06:45.286Z</time></trkpt><trkpt lat="45.02724" lon="8.215575"><ele>210.0</ele><time>2026-04-11T09:06:46.286Z</time></trkpt><trkpt lat="45.027325" lon="8.215575"><ele>210.0</ele><time>2026-04-11T09:06:47.286Z</time></trkpt><trkpt lat="45.0274167" lon="8.2155867"><ele>210.0</ele><time>2026-04-11T09:06:48.286Z</time></trkpt><trkpt lat="45.0275083" lon="8.2156167"><ele>210.0</ele><time>2026-04-11T09:06:49.286Z</time></trkpt><trkpt lat="45.0275983" lon="8.21564"><ele>210.0</ele><time>2026-04-11T09:06:50.287Z</time></trkpt><trkpt lat="45.0276883" lon="8.2156567"><ele>210.0</ele><time>2026-04-11T09:06:51.286Z</time></trkpt><trkpt lat="45.0277767" lon="8.2156817"><ele>208.8</ele><time>2026-04-11T09:06:52.286Z</time></trkpt><trkpt lat="45.0278717" lon="8.2157183"><ele>207.6</ele><time>2026-04-11T09:06:53.286Z</time></trkpt><trkpt lat="45.0279633" lon="8.2157517"><ele>206.39999999999998</ele><time>2026-04-11T09:06:54.286Z</time></trkpt><trkpt lat="45.0280617" lon="8.215765"><ele>205.2</ele><time>2026-04-11T09:06:55.286Z</time></trkpt><trkpt lat="45.0281567" lon="8.215775"><ele>204.0</ele><time>2026-04-11T09:06:56.286Z</time></trkpt><trkpt lat="45.028245" lon="8.2157867"><ele>203.5</ele><time>2026-04-11T09:06:57.286Z</time></trkpt><trkpt lat="45.028335" lon="8.21581"><ele>203.0</ele><time>2026-04-11T09:06:58.286Z</time></trkpt><trkpt lat="45.0284217" lon="8.21583"><ele>202.5</ele><time>2026-04-11T09:06:59.287Z</time></trkpt><trkpt lat="45.0285033" lon="8.2158433"><ele>202.0</ele><time>2026-04-11T09:07:00.286Z</time></trkpt><trkpt lat="45.0285783" lon="8.2158617"><ele>201.5</ele><time>2026-04-11T09:07:01.286Z</time></trkpt><trkpt lat="45.0286483" lon="8.215875"><ele>201.0</ele><time>2026-04-11T09:07:02.286Z</time></trkpt><trkpt lat="45.0287117" lon="8.2158917"><ele>201.0</ele><time>2026-04-11T09:07:03.287Z</time></trkpt><trkpt lat="45.0288183" lon="8.2159183"><ele>201.0</ele><time>2026-04-11T09:07:05.286Z</time></trkpt><trkpt lat="45.0288967" lon="8.215925"><ele>201.0</ele><time>2026-04-11T09:07:07.286Z</time></trkpt><trkpt lat="45.0289717" lon="8.2158933"><ele>201.0</ele><time>2026-04-11T09:07:10.287Z</time></trkpt><trkpt lat="45.0290483" lon="8.2159367"><ele>201.0</ele><time>2026-04-11T09:07:38.287Z</time></trkpt><trkpt lat="45.0290717" lon="8.2160433"><ele>201.0</ele><time>2026-04-11T09:07:40.286Z</time></trkpt><trkpt lat="45.0290833" lon="8.2161883"><ele>201.0</ele><time>2026-04-11T09:07:42.286Z</time></trkpt><trkpt lat="45.0290983" lon="8.216375"><ele>201.0</ele><time>2026-04-11T09:07:44.286Z</time></trkpt><trkpt lat="45.0291067" lon="8.2164833"><ele>201.0</ele><time>2026-04-11T09:07:45.286Z</time></trkpt><trkpt lat="45.0291217" lon="8.2166017"><ele>201.0</ele><time>2026-04-11T09:07:46.286Z</time></trkpt><trkpt lat="45.0291333" lon="8.2167233"><ele>201.0</ele><time>2026-04-11T09:07:47.286Z</time></trkpt><trkpt lat="45.0291483" lon="8.21683"><ele>199.5</ele><time>2026-04-11T09:07:48.286Z</time></trkpt><trkpt lat="45.029155" lon="8.2169367"><ele>198.0</ele><time>2026-04-11T09:07:49.286Z</time></trkpt><trkpt lat="45.029165" lon="8.2170267"><ele>196.5</ele><time>2026-04-11T09:07:50.287Z</time></trkpt><trkpt lat="45.0291767" lon="8.2171883"><ele>195.0</ele><time>2026-04-11T09:07:52.286Z</time></trkpt><trkpt lat="45.0291883" lon="8.21729"><ele>193.5</ele><time>2026-04-11T09:07:54.286Z</time></trkpt><trkpt lat="45.0292267" lon="8.217395"><ele>192.0</ele><time>2026-04-11T09:07:58.286Z</time></trkpt><trkpt lat="45.0293017" lon="8.217425"><ele>192.0</ele><time>2026-04-11T09:08:01.286Z</time></trkpt><trkpt lat="45.0293667" lon="8.217375"><ele>192.0</ele><time>2026-04-11T09:08:55.285Z</time></trkpt><trkpt lat="45.0292933" lon="8.2173317"><ele>192.0</ele><time>2026-04-11T09:09:07.285Z</time></trkpt><trkpt lat="45.0292383" lon="8.2172883"><ele>192.0</ele><time>2026-04-11T09:09:09.286Z</time></trkpt><trkpt lat="45.0291983" lon="8.217115"><ele>192.0</ele><time>2026-04-11T09:09:12.286Z</time></trkpt><trkpt lat="45.029165" lon="8.216875"><ele>192.0</ele><time>2026-04-11T09:09:15.285Z</time></trkpt><trkpt lat="45.0291583" lon="8.2167683"><ele>192.0</ele><time>2026-04-11T09:09:16.285Z</time></trkpt><trkpt lat="45.0291467" lon="8.2166667"><ele>192.0</ele><time>2026-04-11T09:09:17.285Z</time></trkpt><trkpt lat="45.02914" lon="8.21655"><ele>192.0</ele><time>2026-04-11T09:09:18.285Z</time></trkpt><trkpt lat="45.0291217" lon="8.2164383"><ele>192.0</ele><time>2026-04-11T09:09:19.285Z</time></trkpt><trkpt lat="45.0290983" lon="8.21623"><ele>192.8</ele><time>2026-04-11T09:09:21.285Z</time></trkpt><trkpt lat="45.0290933" lon="8.21613"><ele>193.6</ele><time>2026-04-11T09:09:22.286Z</time></trkpt><trkpt lat="45.0290933" lon="8.215975"><ele>194.4</ele><time>2026-04-11T09:09:24.286Z</time></trkpt><trkpt lat="45.0290667" lon="8.2158567"><ele>195.20000000000002</ele><time>2026-04-11T09:09:26.285Z</time></trkpt><trkpt lat="45.0290367" lon="8.215735"><ele>196.0</ele><time>2026-04-11T09:09:28.286Z</time></trkpt><trkpt lat="45.0290083" lon="8.21559"><ele>196.0</ele><time>2026-04-11T09:09:30.286Z</time></trkpt><trkpt lat="45.0289817" lon="8.2154433"><ele>196.0</ele><time>2026-04-11T09:09:32.285Z</time></trkpt><trkpt lat="45.028945" lon="8.2152817"><ele>196.0</ele><time>2026-04-11T09:09:34.286Z</time></trkpt><trkpt lat="45.0289117" lon="8.215115"><ele>196.0</ele><time>2026-04-11T09:09:36.286Z</time></trkpt><trkpt lat="45.0288883" lon="8.215025"><ele>196.0</ele><time>2026-04-11T09:09:37.286Z</time></trkpt><trkpt lat="45.0288467" lon="8.2148683"><ele>194.66666666666666</ele><time>2026-04-11T09:09:39.285Z</time></trkpt><trkpt lat="45.0288217" lon="8.214695"><ele>193.33333333333331</ele><time>2026-04-11T09:09:41.285Z</time></trkpt><trkpt lat="45.028805" lon="8.2146033"><ele>192.0</ele><time>2026-04-11T09:09:42.285Z</time></trkpt><trkpt lat="45.0287817" lon="8.2144967"><ele>190.66666666666666</ele><time>2026-04-11T09:09:43.285Z</time></trkpt><trkpt lat="45.028765" lon="8.21439"><ele>189.33333333333331</ele><time>2026-04-11T09:09:44.285Z</time></trkpt><trkpt lat="45.028735" lon="8.2142833"><ele>188.0</ele><time>2026-04-11T09:09:45.286Z</time></trkpt><trkpt lat="45.028705" lon="8.2141717"><ele>188.0</ele><time>2026-04-11T09:09:46.285Z</time></trkpt><trkpt lat="45.02868" lon="8.2140567"><ele>188.0</ele><time>2026-04-11T09:09:47.285Z</time></trkpt><trkpt lat="45.0286583" lon="8.21395"><ele>188.0</ele><time>2026-04-11T09:09:48.285Z</time></trkpt><trkpt lat="45.0286283" lon="8.213825"><ele>188.0</ele><time>2026-04-11T09:09:49.285Z</time></trkpt><trkpt lat="45.0285933" lon="8.2136833"><ele>188.0</ele><time>2026-04-11T09:09:50.285Z</time></trkpt><trkpt lat="45.0285617" lon="8.21356"><ele>186.8</ele><time>2026-04-11T09:09:51.285Z</time></trkpt><trkpt lat="45.0285317" lon="8.2134267"><ele>185.60000000000002</ele><time>2026-04-11T09:09:52.285Z</time></trkpt><trkpt lat="45.0284933" lon="8.2133"><ele>184.39999999999998</ele><time>2026-04-11T09:09:53.285Z</time></trkpt><trkpt lat="45.0284617" lon="8.21317"><ele>183.2</ele><time>2026-04-11T09:09:54.285Z</time></trkpt><trkpt lat="45.0284333" lon="8.2130533"><ele>182.0</ele><time>2026-04-11T09:09:55.286Z</time></trkpt><trkpt lat="45.0284" lon="8.2129217"><ele>180.8</ele><time>2026-04-11T09:09:56.285Z</time></trkpt><trkpt lat="45.0283683" lon="8.2128067"><ele>179.6</ele><time>2026-04-11T09:09:57.285Z</time></trkpt><trkpt lat="45.0283267" lon="8.212695"><ele>178.4</ele><time>2026-04-11T09:09:58.285Z</time></trkpt><trkpt lat="45.02829" lon="8.2125667"><ele>177.20000000000002</ele><time>2026-04-11T09:09:59.285Z</time></trkpt><trkpt lat="45.0282483" lon="8.21244"><ele>176.0</ele><time>2026-04-11T09:10:00.286Z</time></trkpt><trkpt lat="45.0282117" lon="8.2123233"><ele>174.83333333333331</ele><time>2026-04-11T09:10:01.285Z</time></trkpt><trkpt lat="45.0281633" lon="8.2122033"><ele>173.66666666666666</ele><time>2026-04-11T09:10:02.285Z</time></trkpt><trkpt lat="45.0281167" lon="8.2120883"><ele>172.5</ele><time>2026-04-11T09:10:03.286Z</time></trkpt><trkpt lat="45.028065" lon="8.2119867"><ele>171.33333333333334</ele><time>2026-04-11T09:10:04.285Z</time></trkpt><trkpt lat="45.0280283" lon="8.211885"><ele>170.16666666666669</ele><time>2026-04-11T09:10:05.286Z</time></trkpt><trkpt lat="45.0280017" lon="8.2117767"><ele>169.0</ele><time>2026-04-11T09:10:06.285Z</time></trkpt><trkpt lat="45.027975" lon="8.2116783"><ele>169.0</ele><time>2026-04-11T09:10:07.285Z</time></trkpt><trkpt lat="45.0279567" lon="8.21158"><ele>169.0</ele><time>2026-04-11T09:10:08.285Z</time></trkpt><trkpt lat="45.0279417" lon="8.2114883"><ele>169.0</ele><time>2026-04-11T09:10:09.285Z</time></trkpt><trkpt lat="45.0279267" lon="8.2114"><ele>169.0</ele><time>2026-04-11T09:10:10.285Z</time></trkpt><trkpt lat="45.0279083" lon="8.2113133"><ele>169.0</ele><time>2026-04-11T09:10:11.285Z</time></trkpt><trkpt lat="45.0278883" lon="8.2111617"><ele>169.0</ele><time>2026-04-11T09:10:13.285Z</time></trkpt><trkpt lat="45.0278667" lon="8.2110333"><ele>168.16666666666669</ele><time>2026-04-11T09:10:15.285Z</time></trkpt><trkpt lat="45.0278417" lon="8.2109267"><ele>167.33333333333334</ele><time>2026-04-11T09:10:17.286Z</time></trkpt><trkpt lat="45.02782" lon="8.2108417"><ele>166.5</ele><time>2026-04-11T09:10:19.285Z</time></trkpt><trkpt lat="45.02795" lon="8.2107667"><ele>165.66666666666666</ele><time>2026-04-11T09:10:23.285Z</time></trkpt><trkpt lat="45.02802" lon="8.21076"><ele>164.83333333333331</ele><time>2026-04-11T09:10:24.285Z</time></trkpt><trkpt lat="45.0281017" lon="8.2107533"><ele>164.0</ele><time>2026-04-11T09:10:25.286Z</time></trkpt><trkpt lat="45.0281833" lon="8.210735"><ele>164.0</ele><time>2026-04-11T09:10:26.285Z</time></trkpt><trkpt lat="45.0282667" lon="8.210705"><ele>164.0</ele><time>2026-04-11T09:10:27.286Z</time></trkpt><trkpt lat="45.0283533" lon="8.2106883"><ele>164.0</ele><time>2026-04-11T09:10:28.285Z</time></trkpt><trkpt lat="45.028435" lon="8.2106883"><ele>164.0</ele><time>2026-04-11T09:10:29.285Z</time></trkpt><trkpt lat="45.0285217" lon="8.2106683"><ele>164.0</ele><time>2026-04-11T09:10:30.285Z</time></trkpt><trkpt lat="45.028605" lon="8.2106467"><ele>164.0</ele><time>2026-04-11T09:10:31.285Z</time></trkpt><trkpt lat="45.0287017" lon="8.2106217"><ele>164.6</ele><time>2026-04-11T09:10:32.285Z</time></trkpt><trkpt lat="45.0287917" lon="8.2105983"><ele>165.2</ele><time>2026-04-11T09:10:33.286Z</time></trkpt><trkpt lat="45.028885" lon="8.2105817"><ele>165.79999999999998</ele><time>2026-04-11T09:10:34.285Z</time></trkpt><trkpt lat="45.0289833" lon="8.2105533"><ele>166.39999999999998</ele><time>2026-04-11T09:10:35.285Z</time></trkpt><trkpt lat="45.0290767" lon="8.2105367"><ele>167.0</ele><time>2026-04-11T09:10:36.285Z</time></trkpt><trkpt lat="45.0291733" lon="8.2105217"><ele>167.6</ele><time>2026-04-11T09:10:37.285Z</time></trkpt><trkpt lat="45.0292733" lon="8.2105017"><ele>168.2</ele><time>2026-04-11T09:10:38.285Z</time></trkpt><trkpt lat="45.0293683" lon="8.2105"><ele>168.8</ele><time>2026-04-11T09:10:39.286Z</time></trkpt><trkpt lat="45.0294633" lon="8.2104917"><ele>169.4</ele><time>2026-04-11T09:10:40.285Z</time></trkpt><trkpt lat="45.0295583" lon="8.2104833"><ele>170.0</ele><time>2026-04-11T09:10:41.286Z</time></trkpt><trkpt lat="45.0296467" lon="8.2104767"><ele>170.0</ele><time>2026-04-11T09:10:42.286Z</time></trkpt><trkpt lat="45.0297383" lon="8.2104567"><ele>170.0</ele><time>2026-04-11T09:10:43.285Z</time></trkpt><trkpt lat="45.0298367" lon="8.2104433"><ele>170.0</ele><time>2026-04-11T09:10:44.285Z</time></trkpt><trkpt lat="45.0299317" lon="8.2104283"><ele>170.0</ele><time>2026-04-11T09:10:45.286Z</time></trkpt><trkpt lat="45.03002" lon="8.2104"><ele>170.0</ele><time>2026-04-11T09:10:46.285Z</time></trkpt><trkpt lat="45.0301" lon="8.2103717"><ele>169.5</ele><time>2026-04-11T09:10:47.285Z</time></trkpt><trkpt lat="45.03018" lon="8.21034"><ele>169.0</ele><time>2026-04-11T09:10:48.285Z</time></trkpt><trkpt lat="45.030255" lon="8.2103083"><ele>168.5</ele><time>2026-04-11T09:10:49.285Z</time></trkpt><trkpt lat="45.030325" lon="8.2102483"><ele>168.0</ele><time>2026-04-11T09:10:50.285Z</time></trkpt><trkpt lat="45.0303933" lon="8.210165"><ele>167.5</ele><time>2026-04-11T09:10:51.285Z</time></trkpt><trkpt lat="45.0304517" lon="8.2100683"><ele>167.0</ele><time>2026-04-11T09:10:52.285Z</time></trkpt><trkpt lat="45.030515" lon="8.2099583"><ele>167.0</ele><time>2026-04-11T09:10:53.285Z</time></trkpt><trkpt lat="45.0305633" lon="8.209855"><ele>167.0</ele><time>2026-04-11T09:10:54.285Z</time></trkpt><trkpt lat="45.0305967" lon="8.20975"><ele>167.0</ele><time>2026-04-11T09:10:55.285Z</time></trkpt><trkpt lat="45.030625" lon="8.2096633"><ele>167.0</ele><time>2026-04-11T09:10:56.285Z</time></trkpt><trkpt lat="45.0306617" lon="8.2095283"><ele>167.0</ele><time>2026-04-11T09:10:58.285Z</time></trkpt><trkpt lat="45.03071" lon="8.209405"><ele>167.0</ele><time>2026-04-11T09:11:00.285Z</time></trkpt><trkpt lat="45.0307567" lon="8.20934"><ele>167.5</ele><time>2026-04-11T09:11:01.285Z</time></trkpt><trkpt lat="45.03081" lon="8.2092633"><ele>168.0</ele><time>2026-04-11T09:11:02.285Z</time></trkpt><trkpt lat="45.0308667" lon="8.2091867"><ele>168.5</ele><time>2026-04-11T09:11:03.286Z</time></trkpt><trkpt lat="45.0309233" lon="8.209115"><ele>169.0</ele><time>2026-04-11T09:11:04.286Z</time></trkpt><trkpt lat="45.0309817" lon="8.20904"><ele>169.5</ele><time>2026-04-11T09:11:05.285Z</time></trkpt><trkpt lat="45.0310433" lon="8.2089617"><ele>170.0</ele><time>2026-04-11T09:11:06.285Z</time></trkpt><trkpt lat="45.031115" lon="8.2088783"><ele>170.0</ele><time>2026-04-11T09:11:07.285Z</time></trkpt><trkpt lat="45.0311917" lon="8.2088017"><ele>170.0</ele><time>2026-04-11T09:11:08.285Z</time></trkpt><trkpt lat="45.0312717" lon="8.2087067"><ele>170.0</ele><time>2026-04-11T09:11:09.285Z</time></trkpt><trkpt lat="45.0313517" lon="8.2086167"><ele>170.0</ele><time>2026-04-11T09:11:10.285Z</time></trkpt><trkpt lat="45.0314233" lon="8.20851"><ele>170.0</ele><time>2026-04-11T09:11:11.285Z</time></trkpt><trkpt lat="45.0314967" lon="8.208395"><ele>170.0</ele><time>2026-04-11T09:11:12.285Z</time></trkpt><trkpt lat="45.031565" lon="8.20827"><ele>170.0</ele><time>2026-04-11T09:11:13.285Z</time></trkpt><trkpt lat="45.0316333" lon="8.2081417"><ele>170.0</ele><time>2026-04-11T09:11:14.285Z</time></trkpt><trkpt lat="45.0316983" lon="8.208025"><ele>170.0</ele><time>2026-04-11T09:11:15.286Z</time></trkpt><trkpt lat="45.0317733" lon="8.2079217"><ele>170.0</ele><time>2026-04-11T09:11:16.285Z</time></trkpt><trkpt lat="45.0318567" lon="8.20784"><ele>169.6</ele><time>2026-04-11T09:11:17.286Z</time></trkpt><trkpt lat="45.031955" lon="8.2077783"><ele>169.2</ele><time>2026-04-11T09:11:18.285Z</time></trkpt><trkpt lat="45.0320467" lon="8.207725"><ele>168.8</ele><time>2026-04-11T09:11:19.285Z</time></trkpt><trkpt lat="45.03214" lon="8.2076733"><ele>168.4</ele><time>2026-04-11T09:11:20.285Z</time></trkpt><trkpt lat="45.0322317" lon="8.2076217"><ele>168.0</ele><time>2026-04-11T09:11:21.286Z</time></trkpt><trkpt lat="45.032305" lon="8.2075667"><ele>168.0</ele><time>2026-04-11T09:11:22.285Z</time></trkpt><trkpt lat="45.0323733" lon="8.2075183"><ele>168.0</ele><time>2026-04-11T09:11:23.285Z</time></trkpt><trkpt lat="45.03245" lon="8.2074733"><ele>168.0</ele><time>2026-04-11T09:11:24.286Z</time></trkpt><trkpt lat="45.0325183" lon="8.2074283"><ele>168.0</ele><time>2026-04-11T09:11:25.285Z</time></trkpt><trkpt lat="45.0325917" lon="8.2073767"><ele>168.0</ele><time>2026-04-11T09:11:26.285Z</time></trkpt><trkpt lat="45.03267" lon="8.2073117"><ele>168.0</ele><time>2026-04-11T09:11:27.285Z</time></trkpt><trkpt lat="45.0327433" lon="8.2072433"><ele>168.33333333333334</ele><time>2026-04-11T09:11:28.286Z</time></trkpt><trkpt lat="45.0328083" lon="8.20716"><ele>168.66666666666666</ele><time>2026-04-11T09:11:29.285Z</time></trkpt><trkpt lat="45.03287" lon="8.2070817"><ele>169.0</ele><time>2026-04-11T09:11:30.285Z</time></trkpt><trkpt lat="45.03293" lon="8.2070017"><ele>169.33333333333331</ele><time>2026-04-11T09:11:31.285Z</time></trkpt><trkpt lat="45.0329867" lon="8.2069267"><ele>169.66666666666666</ele><time>2026-04-11T09:11:32.285Z</time></trkpt><trkpt lat="45.033045" lon="8.2068533"><ele>170.0</ele><time>2026-04-11T09:11:33.285Z</time></trkpt><trkpt lat="45.0331" lon="8.206775"><ele>170.0</ele><time>2026-04-11T09:11:34.285Z</time></trkpt><trkpt lat="45.0331617" lon="8.2066933"><ele>170.0</ele><time>2026-04-11T09:11:35.285Z</time></trkpt><trkpt lat="45.03323" lon="8.2066167"><ele>170.0</ele><time>2026-04-11T09:11:36.285Z</time></trkpt><trkpt lat="45.033295" lon="8.2065433"><ele>170.0</ele><time>2026-04-11T09:11:37.285Z</time></trkpt><trkpt lat="45.0333583" lon="8.2064717"><ele>170.0</ele><time>2026-04-11T09:11:38.285Z</time></trkpt><trkpt lat="45.0334183" lon="8.206385"><ele>170.0</ele><time>2026-04-11T09:11:39.285Z</time></trkpt><trkpt lat="45.0334717" lon="8.206295"><ele>171.6</ele><time>2026-04-11T09:11:40.286Z</time></trkpt><trkpt lat="45.0335317" lon="8.206195"><ele>173.2</ele><time>2026-04-11T09:11:41.286Z</time></trkpt><trkpt lat="45.0336" lon="8.2060867"><ele>174.8</ele><time>2026-04-11T09:11:42.286Z</time></trkpt><trkpt lat="45.0336717" lon="8.2059883"><ele>176.4</ele><time>2026-04-11T09:11:43.285Z</time></trkpt><trkpt lat="45.0337517" lon="8.2058967"><ele>178.0</ele><time>2026-04-11T09:11:44.285Z</time></trkpt><trkpt lat="45.0338317" lon="8.2058017"><ele>178.0</ele><time>2026-04-11T09:11:45.286Z</time></trkpt><trkpt lat="45.033905" lon="8.2056967"><ele>178.0</ele><time>2026-04-11T09:11:46.285Z</time></trkpt><trkpt lat="45.03396" lon="8.2055833"><ele>178.0</ele><time>2026-04-11T09:11:47.285Z</time></trkpt><trkpt lat="45.0339967" lon="8.2054667"><ele>178.0</ele><time>2026-04-11T09:11:48.285Z</time></trkpt><trkpt lat="45.0340383" lon="8.20535"><ele>178.0</ele><time>2026-04-11T09:11:49.285Z</time></trkpt><trkpt lat="45.034095" lon="8.2052183"><ele>179.4</ele><time>2026-04-11T09:11:50.285Z</time></trkpt><trkpt lat="45.0341467" lon="8.205095"><ele>180.8</ele><time>2026-04-11T09:11:51.285Z</time></trkpt><trkpt lat="45.0341833" lon="8.20497"><ele>182.2</ele><time>2026-04-11T09:11:52.286Z</time></trkpt><trkpt lat="45.0342283" lon="8.2048317"><ele>183.6</ele><time>2026-04-11T09:11:53.285Z</time></trkpt><trkpt lat="45.03428" lon="8.2046933"><ele>185.0</ele><time>2026-04-11T09:11:54.285Z</time></trkpt><trkpt lat="45.0343367" lon="8.20456"><ele>185.0</ele><time>2026-04-11T09:11:55.285Z</time></trkpt><trkpt lat="45.0343933" lon="8.2044467"><ele>185.0</ele><time>2026-04-11T09:11:56.285Z</time></trkpt><trkpt lat="45.0344417" lon="8.204375"><ele>185.0</ele><time>2026-04-11T09:11:57.285Z</time></trkpt><trkpt lat="45.0345667" lon="8.2043467"><ele>185.0</ele><time>2026-04-11T09:11:59.285Z</time></trkpt><trkpt lat="45.0346517" lon="8.2043883"><ele>185.0</ele><time>2026-04-11T09:12:00.286Z</time></trkpt><trkpt lat="45.0347383" lon="8.2044383"><ele>185.0</ele><time>2026-04-11T09:12:01.285Z</time></trkpt><trkpt lat="45.03483" lon="8.204475"><ele>185.0</ele><time>2026-04-11T09:12:02.285Z</time></trkpt><trkpt lat="45.0349167" lon="8.2045017"><ele>185.0</ele><time>2026-04-11T09:12:03.285Z</time></trkpt><trkpt lat="45.035005" lon="8.2045033"><ele>185.0</ele><time>2026-04-11T09:12:04.285Z</time></trkpt><trkpt lat="45.0350933" lon="8.2044717"><ele>185.0</ele><time>2026-04-11T09:12:05.285Z</time></trkpt><trkpt lat="45.0351717" lon="8.204405"><ele>188.0</ele><time>2026-04-11T09:12:06.285Z</time></trkpt><trkpt lat="45.0352533" lon="8.2043083"><ele>191.0</ele><time>2026-04-11T09:12:07.285Z</time></trkpt><trkpt lat="45.035345" lon="8.204205"><ele>194.0</ele><time>2026-04-11T09:12:08.285Z</time></trkpt><trkpt lat="45.0354667" lon="8.2041133"><ele>197.0</ele><time>2026-04-11T09:12:09.285Z</time></trkpt><trkpt lat="45.0355833" lon="8.2040083"><ele>196.5</ele><time>2026-04-11T09:12:10.285Z</time></trkpt><trkpt lat="45.0357033" lon="8.2038983"><ele>196.0</ele><time>2026-04-11T09:12:11.286Z</time></trkpt><trkpt lat="45.0358183" lon="8.2037767"><ele>195.5</ele><time>2026-04-11T09:12:12.285Z</time></trkpt><trkpt lat="45.0359267" lon="8.2036433"><ele>195.0</ele><time>2026-04-11T09:12:13.285Z</time></trkpt><trkpt lat="45.0360367" lon="8.2035067"><ele>196.0</ele><time>2026-04-11T09:12:14.285Z</time></trkpt><trkpt lat="45.0361367" lon="8.2033767"><ele>197.0</ele><time>2026-04-11T09:12:15.285Z</time></trkpt><trkpt lat="45.0362183" lon="8.203255"><ele>198.0</ele><time>2026-04-11T09:12:16.286Z</time></trkpt><trkpt lat="45.0363033" lon="8.2031483"><ele>199.0</ele><time>2026-04-11T09:12:17.285Z</time></trkpt><trkpt lat="45.036385" lon="8.2030467"><ele>199.0</ele><time>2026-04-11T09:12:18.285Z</time></trkpt><trkpt lat="45.0364517" lon="8.202955"><ele>199.0</ele><time>2026-04-11T09:12:19.285Z</time></trkpt><trkpt lat="45.0365233" lon="8.2028683"><ele>199.0</ele><time>2026-04-11T09:12:20.285Z</time></trkpt><trkpt lat="45.0365983" lon="8.202775"><ele>199.0</ele><time>2026-04-11T09:12:21.285Z</time></trkpt><trkpt lat="45.0366733" lon="8.20268"><ele>199.0</ele><time>2026-04-11T09:12:22.285Z</time></trkpt><trkpt lat="45.0367733" lon="8.2025933"><ele>200.0</ele><time>2026-04-11T09:12:23.285Z</time></trkpt><trkpt lat="45.03685" lon="8.202505"><ele>201.0</ele><time>2026-04-11T09:12:24.285Z</time></trkpt><trkpt lat="45.0369317" lon="8.2024133"><ele>202.0</ele><time>2026-04-11T09:12:25.285Z</time></trkpt><trkpt lat="45.037015" lon="8.2023167"><ele>203.0</ele><time>2026-04-11T09:12:26.286Z</time></trkpt><trkpt lat="45.03711" lon="8.202225"><ele>204.0</ele><time>2026-04-11T09:12:27.285Z</time></trkpt><trkpt lat="45.0372" lon="8.20213"><ele>204.0</ele><time>2026-04-11T09:12:28.286Z</time></trkpt><trkpt lat="45.0373817" lon="8.2019467"><ele>204.0</ele><time>2026-04-11T09:12:30.284Z</time></trkpt><trkpt lat="45.0374683" lon="8.2018417"><ele>204.0</ele><time>2026-04-11T09:12:31.284Z</time></trkpt><trkpt lat="45.0375583" lon="8.2017383"><ele>205.75</ele><time>2026-04-11T09:12:32.284Z</time></trkpt><trkpt lat="45.0376583" lon="8.2016133"><ele>207.5</ele><time>2026-04-11T09:12:33.284Z</time></trkpt><trkpt lat="45.0377583" lon="8.201505"><ele>209.25</ele><time>2026-04-11T09:12:34.284Z</time></trkpt><trkpt lat="45.0378683" lon="8.20141"><ele>211.0</ele><time>2026-04-11T09:12:35.285Z</time></trkpt><trkpt lat="45.03798" lon="8.201325"><ele>211.75</ele><time>2026-04-11T09:12:36.284Z</time></trkpt><trkpt lat="45.0380933" lon="8.2012383"><ele>212.5</ele><time>2026-04-11T09:12:37.284Z</time></trkpt><trkpt lat="45.0382133" lon="8.2011767"><ele>213.25</ele><time>2026-04-11T09:12:38.284Z</time></trkpt><trkpt lat="45.038335" lon="8.2011417"><ele>214.0</ele><time>2026-04-11T09:12:39.284Z</time></trkpt><trkpt lat="45.03845" lon="8.2011"><ele>214.6</ele><time>2026-04-11T09:12:40.284Z</time></trkpt><trkpt lat="45.0385683" lon="8.20104"><ele>215.2</ele><time>2026-04-11T09:12:41.284Z</time></trkpt><trkpt lat="45.0386733" lon="8.200995"><ele>215.79999999999998</ele><time>2026-04-11T09:12:42.284Z</time></trkpt><trkpt lat="45.038775" lon="8.20095"><ele>216.39999999999998</ele><time>2026-04-11T09:12:43.284Z</time></trkpt><trkpt lat="45.0388717" lon="8.2009167"><ele>217.0</ele><time>2026-04-11T09:12:44.284Z</time></trkpt><trkpt lat="45.0389683" lon="8.2008667"><ele>217.0</ele><time>2026-04-11T09:12:45.285Z</time></trkpt><trkpt lat="45.039065" lon="8.2008033"><ele>217.0</ele><time>2026-04-11T09:12:46.285Z</time></trkpt><trkpt lat="45.0391667" lon="8.20074"><ele>217.0</ele><time>2026-04-11T09:12:47.284Z</time></trkpt><trkpt lat="45.0392667" lon="8.200695"><ele>217.0</ele><time>2026-04-11T09:12:48.284Z</time></trkpt><trkpt lat="45.0393717" lon="8.2006567"><ele>217.0</ele><time>2026-04-11T09:12:49.284Z</time></trkpt><trkpt lat="45.0394717" lon="8.2006167"><ele>218.2</ele><time>2026-04-11T09:12:50.284Z</time></trkpt><trkpt lat="45.0395717" lon="8.2005667"><ele>219.39999999999998</ele><time>2026-04-11T09:12:51.285Z</time></trkpt><trkpt lat="45.0396783" lon="8.2005117"><ele>220.60000000000002</ele><time>2026-04-11T09:12:52.284Z</time></trkpt><trkpt lat="45.0397833" lon="8.2004617"><ele>221.8</ele><time>2026-04-11T09:12:53.284Z</time></trkpt><trkpt lat="45.0398833" lon="8.200405"><ele>223.0</ele><time>2026-04-11T09:12:54.285Z</time></trkpt><trkpt lat="45.03998" lon="8.2003517"><ele>225.4</ele><time>2026-04-11T09:12:55.284Z</time></trkpt><trkpt lat="45.040075" lon="8.2003083"><ele>227.8</ele><time>2026-04-11T09:12:56.284Z</time></trkpt><trkpt lat="45.0401717" lon="8.2002617"><ele>230.2</ele><time>2026-04-11T09:12:57.285Z</time></trkpt><trkpt lat="45.0402667" lon="8.2002133"><ele>232.6</ele><time>2026-04-11T09:12:58.284Z</time></trkpt><trkpt lat="45.0403733" lon="8.2001583"><ele>235.0</ele><time>2026-04-11T09:12:59.284Z</time></trkpt><trkpt lat="45.0404733" lon="8.2000983"><ele>235.0</ele><time>2026-04-11T09:13:00.284Z</time></trkpt><trkpt lat="45.04057" lon="8.2000483"><ele>235.0</ele><time>2026-04-11T09:13:01.284Z</time></trkpt><trkpt lat="45.040665" lon="8.199995"><ele>235.0</ele><time>2026-04-11T09:13:02.285Z</time></trkpt><trkpt lat="45.0407683" lon="8.199945"><ele>235.0</ele><time>2026-04-11T09:13:03.284Z</time></trkpt><trkpt lat="45.04088" lon="8.1998833"><ele>235.0</ele><time>2026-04-11T09:13:04.284Z</time></trkpt><trkpt lat="45.04099" lon="8.1998033"><ele>236.75</ele><time>2026-04-11T09:13:05.284Z</time></trkpt><trkpt lat="45.0411" lon="8.199755"><ele>238.5</ele><time>2026-04-11T09:13:06.284Z</time></trkpt><trkpt lat="45.041215" lon="8.199695"><ele>240.25</ele><time>2026-04-11T09:13:07.284Z</time></trkpt><trkpt lat="45.0413217" lon="8.1996267"><ele>242.0</ele><time>2026-04-11T09:13:08.284Z</time></trkpt><trkpt lat="45.041425" lon="8.1995633"><ele>242.0</ele><time>2026-04-11T09:13:09.284Z</time></trkpt><trkpt lat="45.041545" lon="8.1995317"><ele>242.0</ele><time>2026-04-11T09:13:10.285Z</time></trkpt><trkpt lat="45.04167" lon="8.1995"><ele>242.0</ele><time>2026-04-11T09:13:11.284Z</time></trkpt><trkpt lat="45.0418017" lon="8.199485"><ele>242.0</ele><time>2026-04-11T09:13:12.284Z</time></trkpt><trkpt lat="45.0419417" lon="8.19947"><ele>240.75</ele><time>2026-04-11T09:13:13.285Z</time></trkpt><trkpt lat="45.0420733" lon="8.19946"><ele>239.5</ele><time>2026-04-11T09:13:14.284Z</time></trkpt><trkpt lat="45.0421917" lon="8.1994667"><ele>238.25</ele><time>2026-04-11T09:13:15.284Z</time></trkpt><trkpt lat="45.04232" lon="8.19948"><ele>237.0</ele><time>2026-04-11T09:13:16.285Z</time></trkpt><trkpt lat="45.04243" lon="8.199515"><ele>236.5</ele><time>2026-04-11T09:13:17.284Z</time></trkpt><trkpt lat="45.042545" lon="8.199555"><ele>236.0</ele><time>2026-04-11T09:13:18.284Z</time></trkpt><trkpt lat="45.0426517" lon="8.1995933"><ele>235.5</ele><time>2026-04-11T09:13:19.285Z</time></trkpt><trkpt lat="45.042745" lon="8.1996167"><ele>235.0</ele><time>2026-04-11T09:13:20.284Z</time></trkpt><trkpt lat="45.042905" lon="8.1996717"><ele>234.99999999999997</ele><time>2026-04-11T09:13:22.285Z</time></trkpt><trkpt lat="45.043015" lon="8.1997017"><ele>235.0</ele><time>2026-04-11T09:13:24.284Z</time></trkpt><trkpt lat="45.0431033" lon="8.1997167"><ele>235.0</ele><time>2026-04-11T09:13:26.285Z</time></trkpt><trkpt lat="45.0431733" lon="8.1997367"><ele>235.0</ele><time>2026-04-11T09:13:28.285Z</time></trkpt><trkpt lat="45.04324" lon="8.1997333"><ele>234.99999999999997</ele><time>2026-04-11T09:13:30.284Z</time></trkpt><trkpt lat="45.0433033" lon="8.1998083"><ele>235.0</ele><time>2026-04-11T09:13:33.284Z</time></trkpt><trkpt lat="45.0433083" lon="8.1998983"><ele>235.8</ele><time>2026-04-11T09:13:35.284Z</time></trkpt><trkpt lat="45.0433233" lon="8.20002"><ele>236.6</ele><time>2026-04-11T09:13:37.284Z</time></trkpt><trkpt lat="45.043365" lon="8.2001733"><ele>237.39999999999998</ele><time>2026-04-11T09:13:39.285Z</time></trkpt><trkpt lat="45.0434083" lon="8.2003083"><ele>238.2</ele><time>2026-04-11T09:13:41.285Z</time></trkpt><trkpt lat="45.04347" lon="8.2004267"><ele>239.0</ele><time>2026-04-11T09:13:43.285Z</time></trkpt><trkpt lat="45.043555" lon="8.2005133"><ele>239.0</ele><time>2026-04-11T09:13:45.285Z</time></trkpt><trkpt lat="45.0436683" lon="8.2005667"><ele>238.99999999999997</ele><time>2026-04-11T09:13:47.284Z</time></trkpt><trkpt lat="45.0437367" lon="8.2006017"><ele>238.99999999999997</ele><time>2026-04-11T09:13:48.284Z</time></trkpt><trkpt lat="45.0438017" lon="8.20063"><ele>239.0</ele><time>2026-04-11T09:13:49.285Z</time></trkpt><trkpt lat="45.0439117" lon="8.200675"><ele>239.0</ele><time>2026-04-11T09:13:51.284Z</time></trkpt><trkpt lat="45.044" lon="8.2007"><ele>237.66666666666669</ele><time>2026-04-11T09:13:53.284Z</time></trkpt><trkpt lat="45.044075" lon="8.2007217"><ele>236.33333333333334</ele><time>2026-04-11T09:13:55.284Z</time></trkpt><trkpt lat="45.0441633" lon="8.200755"><ele>235.0</ele><time>2026-04-11T09:13:57.285Z</time></trkpt><trkpt lat="45.0442633" lon="8.20083"><ele>233.66666666666669</ele><time>2026-04-11T09:13:59.284Z</time></trkpt><trkpt lat="45.04432" lon="8.2008783"><ele>232.33333333333334</ele><time>2026-04-11T09:14:00.284Z</time></trkpt><trkpt lat="45.044375" lon="8.2009317"><ele>231.0</ele><time>2026-04-11T09:14:01.284Z</time></trkpt><trkpt lat="45.0444183" lon="8.2009967"><ele>230.83333333333334</ele><time>2026-04-11T09:14:02.285Z</time></trkpt><trkpt lat="45.0444933" lon="8.2011233"><ele>230.66666666666669</ele><time>2026-04-11T09:14:04.285Z</time></trkpt><trkpt lat="45.0445533" lon="8.2011867"><ele>230.5</ele><time>2026-04-11T09:14:06.284Z</time></trkpt><trkpt lat="45.0446033" lon="8.2012467"><ele>230.33333333333334</ele><time>2026-04-11T09:14:08.284Z</time></trkpt><trkpt lat="45.0446517" lon="8.2013267"><ele>230.16666666666669</ele><time>2026-04-11T09:14:11.284Z</time></trkpt><trkpt lat="45.04472" lon="8.201405"><ele>230.0</ele><time>2026-04-11T09:14:15.284Z</time></trkpt><trkpt lat="45.0447817" lon="8.2014633"><ele>230.00000000000003</ele><time>2026-04-11T09:14:18.284Z</time></trkpt><trkpt lat="45.0448483" lon="8.201495"><ele>230.0</ele><time>2026-04-11T09:14:21.284Z</time></trkpt><trkpt lat="45.04493" lon="8.201515"><ele>230.0</ele><time>2026-04-11T09:14:32.284Z</time></trkpt><trkpt lat="45.0450117" lon="8.2015317"><ele>230.0</ele><time>2026-04-11T09:14:34.284Z</time></trkpt><trkpt lat="45.0450983" lon="8.2015467"><ele>230.00000000000003</ele><time>2026-04-11T09:14:36.284Z</time></trkpt><trkpt lat="45.0451683" lon="8.2015733"><ele>230.0</ele><time>2026-04-11T09:14:38.285Z</time></trkpt><trkpt lat="45.0452683" lon="8.2015817"><ele>228.5</ele><time>2026-04-11T09:14:40.285Z</time></trkpt><trkpt lat="45.0453833" lon="8.2015783"><ele>227.0</ele><time>2026-04-11T09:14:42.284Z</time></trkpt><trkpt lat="45.0454967" lon="8.20158"><ele>225.5</ele><time>2026-04-11T09:14:44.284Z</time></trkpt><trkpt lat="45.0456833" lon="8.2015767"><ele>224.0</ele><time>2026-04-11T09:14:47.284Z</time></trkpt><trkpt lat="45.0458" lon="8.2015583"><ele>224.0</ele><time>2026-04-11T09:14:49.284Z</time></trkpt><trkpt lat="45.0458617" lon="8.2015283"><ele>223.99999999999997</ele><time>2026-04-11T09:14:50.284Z</time></trkpt><trkpt lat="45.0459267" lon="8.2014917"><ele>223.99999999999997</ele><time>2026-04-11T09:14:51.284Z</time></trkpt><trkpt lat="45.046035" lon="8.2014783"><ele>224.0</ele><time>2026-04-11T09:14:53.284Z</time></trkpt><trkpt lat="45.046115" lon="8.20155"><ele>224.0</ele><time>2026-04-11T09:14:55.285Z</time></trkpt><trkpt lat="45.0462233" lon="8.201645"><ele>224.0</ele><time>2026-04-11T09:14:57.284Z</time></trkpt><trkpt lat="45.0462867" lon="8.2016833"><ele>223.99999999999997</ele><time>2026-04-11T09:14:58.284Z</time></trkpt><trkpt lat="45.0464183" lon="8.2017567"><ele>223.99999999999997</ele><time>2026-04-11T09:15:00.284Z</time></trkpt><trkpt lat="45.0464833" lon="8.2018017"><ele>224.0</ele><time>2026-04-11T09:15:01.284Z</time></trkpt><trkpt lat="45.0465517" lon="8.2018633"><ele>224.0</ele><time>2026-04-11T09:15:02.285Z</time></trkpt><trkpt lat="45.046625" lon="8.2019283"><ele>224.57142857142856</ele><time>2026-04-11T09:15:03.284Z</time></trkpt><trkpt lat="45.0466883" lon="8.2019933"><ele>225.14285714285714</ele><time>2026-04-11T09:15:04.285Z</time></trkpt><trkpt lat="45.0467533" lon="8.2020533"><ele>225.71428571428572</ele><time>2026-04-11T09:15:05.285Z</time></trkpt><trkpt lat="45.0468083" lon="8.202105"><ele>226.28571428571428</ele><time>2026-04-11T09:15:06.285Z</time></trkpt><trkpt lat="45.0468667" lon="8.20215"><ele>226.85714285714283</ele><time>2026-04-11T09:15:07.284Z</time></trkpt><trkpt lat="45.046925" lon="8.2022033"><ele>227.42857142857142</ele><time>2026-04-11T09:15:08.285Z</time></trkpt><trkpt lat="45.0469933" lon="8.2022533"><ele>228.0</ele><time>2026-04-11T09:15:09.285Z</time></trkpt><trkpt lat="45.0470683" lon="8.202295"><ele>228.33333333333334</ele><time>2026-04-11T09:15:10.284Z</time></trkpt><trkpt lat="45.047145" lon="8.202335"><ele>228.66666666666669</ele><time>2026-04-11T09:15:11.284Z</time></trkpt><trkpt lat="45.0472283" lon="8.2023683"><ele>229.0</ele><time>2026-04-11T09:15:12.284Z</time></trkpt><trkpt lat="45.0473133" lon="8.2023883"><ele>229.33333333333334</ele><time>2026-04-11T09:15:13.285Z</time></trkpt><trkpt lat="45.0474067" lon="8.202425"><ele>229.66666666666669</ele><time>2026-04-11T09:15:14.285Z</time></trkpt><trkpt lat="45.0474983" lon="8.20246"><ele>230.0</ele><time>2026-04-11T09:15:15.284Z</time></trkpt><trkpt lat="45.04759" lon="8.2025067"><ele>231.8</ele><time>2026-04-11T09:15:16.284Z</time></trkpt><trkpt lat="45.04769" lon="8.202565"><ele>233.6</ele><time>2026-04-11T09:15:17.285Z</time></trkpt><trkpt lat="45.0477833" lon="8.2026367"><ele>235.39999999999998</ele><time>2026-04-11T09:15:18.285Z</time></trkpt><trkpt lat="45.04787" lon="8.2027167"><ele>237.2</ele><time>2026-04-11T09:15:19.285Z</time></trkpt><trkpt lat="45.04795" lon="8.2027983"><ele>239.0</ele><time>2026-04-11T09:15:20.284Z</time></trkpt><trkpt lat="45.0480317" lon="8.2028683"><ele>239.00000000000003</ele><time>2026-04-11T09:15:21.284Z</time></trkpt><trkpt lat="45.0481083" lon="8.20293"><ele>239.0</ele><time>2026-04-11T09:15:22.284Z</time></trkpt><trkpt lat="45.0481783" lon="8.2029817"><ele>239.0</ele><time>2026-04-11T09:15:23.284Z</time></trkpt><trkpt lat="45.0482333" lon="8.2030417"><ele>239.0</ele><time>2026-04-11T09:15:24.284Z</time></trkpt><trkpt lat="45.04828" lon="8.2031067"><ele>239.00000000000003</ele><time>2026-04-11T09:15:25.284Z</time></trkpt><trkpt lat="45.0483283" lon="8.2031833"><ele>239.0</ele><time>2026-04-11T09:15:26.284Z</time></trkpt><trkpt lat="45.0483783" lon="8.2032717"><ele>240.42857142857144</ele><time>2026-04-11T09:15:27.284Z</time></trkpt><trkpt lat="45.04843" lon="8.203345"><ele>241.85714285714286</ele><time>2026-04-11T09:15:28.284Z</time></trkpt><trkpt lat="45.0484783" lon="8.2034167"><ele>243.28571428571428</ele><time>2026-04-11T09:15:29.284Z</time></trkpt><trkpt lat="45.0485267" lon="8.203485"><ele>244.71428571428572</ele><time>2026-04-11T09:15:30.285Z</time></trkpt><trkpt lat="45.0485783" lon="8.20354"><ele>246.1428571428571</ele><time>2026-04-11T09:15:31.284Z</time></trkpt><trkpt lat="45.0486317" lon="8.203605"><ele>247.57142857142856</ele><time>2026-04-11T09:15:32.284Z</time></trkpt><trkpt lat="45.048685" lon="8.2036767"><ele>249.0</ele><time>2026-04-11T09:15:33.285Z</time></trkpt><trkpt lat="45.0487317" lon="8.2037533"><ele>249.0</ele><time>2026-04-11T09:15:34.284Z</time></trkpt><trkpt lat="45.048775" lon="8.203845"><ele>249.0</ele><time>2026-04-11T09:15:35.285Z</time></trkpt><trkpt lat="45.048815" lon="8.2039483"><ele>249.0</ele><time>2026-04-11T09:15:36.285Z</time></trkpt><trkpt lat="45.04885" lon="8.2040617"><ele>249.0</ele><time>2026-04-11T09:15:37.284Z</time></trkpt><trkpt lat="45.0488817" lon="8.2041517"><ele>249.0</ele><time>2026-04-11T09:15:38.284Z</time></trkpt><trkpt lat="45.0489033" lon="8.20424"><ele>249.0</ele><time>2026-04-11T09:15:39.284Z</time></trkpt><trkpt lat="45.048925" lon="8.20433"><ele>249.42857142857142</ele><time>2026-04-11T09:15:40.284Z</time></trkpt><trkpt lat="45.0489667" lon="8.204405"><ele>249.85714285714283</ele><time>2026-04-11T09:15:41.284Z</time></trkpt><trkpt lat="45.0490133" lon="8.2044833"><ele>250.28571428571428</ele><time>2026-04-11T09:15:42.284Z</time></trkpt><trkpt lat="45.0490633" lon="8.20455"><ele>250.71428571428572</ele><time>2026-04-11T09:15:43.284Z</time></trkpt><trkpt lat="45.049115" lon="8.2046167"><ele>251.14285714285714</ele><time>2026-04-11T09:15:44.284Z</time></trkpt><trkpt lat="45.0491717" lon="8.2046733"><ele>251.57142857142856</ele><time>2026-04-11T09:15:45.284Z</time></trkpt><trkpt lat="45.0492283" lon="8.2047283"><ele>252.0</ele><time>2026-04-11T09:15:46.284Z</time></trkpt><trkpt lat="45.049285" lon="8.20477"><ele>254.0</ele><time>2026-04-11T09:15:47.285Z</time></trkpt><trkpt lat="45.0493933" lon="8.2048283"><ele>256.0</ele><time>2026-04-11T09:15:49.284Z</time></trkpt><trkpt lat="45.0494883" lon="8.204885"><ele>258.0</ele><time>2026-04-11T09:15:51.284Z</time></trkpt><trkpt lat="45.0495633" lon="8.2049367"><ele>260.0</ele><time>2026-04-11T09:15:53.285Z</time></trkpt><trkpt lat="45.04962" lon="8.20483"><ele>262.0</ele><time>2026-04-11T09:15:56.285Z</time></trkpt><trkpt lat="45.0496267" lon="8.2046667"><ele>262.0</ele><time>2026-04-11T09:15:58.285Z</time></trkpt><trkpt lat="45.0496883" lon="8.204585"><ele>262.0</ele><time>2026-04-11T09:16:08.284Z</time></trkpt><trkpt lat="45.0497083" lon="8.20473"><ele>262.0</ele><time>2026-04-11T09:16:11.285Z</time></trkpt><trkpt lat="45.049695" lon="8.2049483"><ele>262.0</ele><time>2026-04-11T09:16:13.285Z</time></trkpt><trkpt lat="45.0496983" lon="8.205085"><ele>262.0</ele><time>2026-04-11T09:16:14.284Z</time></trkpt><trkpt lat="45.0497033" lon="8.2052267"><ele>263.0</ele><time>2026-04-11T09:16:15.285Z</time></trkpt><trkpt lat="45.049705" lon="8.205375"><ele>264.0</ele><time>2026-04-11T09:16:16.284Z</time></trkpt><trkpt lat="45.0497017" lon="8.2055383"><ele>265.0</ele><time>2026-04-11T09:16:17.285Z</time></trkpt><trkpt lat="45.0496883" lon="8.2056717"><ele>266.0</ele><time>2026-04-11T09:16:18.284Z</time></trkpt><trkpt lat="45.0496767" lon="8.20579"><ele>267.0</ele><time>2026-04-11T09:16:19.284Z</time></trkpt><trkpt lat="45.04966" lon="8.2058933"><ele>268.0</ele><time>2026-04-11T09:16:20.284Z</time></trkpt><trkpt lat="45.049625" lon="8.20598"><ele>269.0</ele><time>2026-04-11T09:16:21.284Z</time></trkpt><trkpt lat="45.0496067" lon="8.2060833"><ele>270.0</ele><time>2026-04-11T09:16:23.284Z</time></trkpt><trkpt lat="45.0495567" lon="8.2061533"><ele>271.0</ele><time>2026-04-11T09:16:27.284Z</time></trkpt><trkpt lat="45.0496317" lon="8.2060717"><ele>272.0</ele><time>2026-04-11T09:45:48.276Z</time></trkpt><trkpt lat="45.0497083" lon="8.205835"><ele>272.0</ele><time>2026-04-11T09:45:51.276Z</time></trkpt><trkpt lat="45.0497667" lon="8.20569"><ele>272.0</ele><time>2026-04-11T09:45:53.276Z</time></trkpt><trkpt lat="45.049785" lon="8.2055917"><ele>272.0</ele><time>2026-04-11T09:45:54.277Z</time></trkpt><trkpt lat="45.0497833" lon="8.2054833"><ele>272.0</ele><time>2026-04-11T09:45:55.276Z</time></trkpt><trkpt lat="45.0497817" lon="8.2053833"><ele>272.0</ele><time>2026-04-11T09:45:56.276Z</time></trkpt><trkpt lat="45.0497683" lon="8.2052917"><ele>272.0</ele><time>2026-04-11T09:45:57.276Z</time></trkpt><trkpt lat="45.0497567" lon="8.2052"><ele>271.0</ele><time>2026-04-11T09:45:58.276Z</time></trkpt><trkpt lat="45.049725" lon="8.2050533"><ele>270.0</ele><time>2026-04-11T09:46:00.276Z</time></trkpt><trkpt lat="45.0497167" lon="8.2049183"><ele>269.0</ele><time>2026-04-11T09:46:02.276Z</time></trkpt><trkpt lat="45.0496883" lon="8.2047917"><ele>268.0</ele><time>2026-04-11T09:46:04.277Z</time></trkpt><trkpt lat="45.0496983" lon="8.2046833"><ele>267.0</ele><time>2026-04-11T09:46:05.277Z</time></trkpt><trkpt lat="45.0497033" lon="8.204575"><ele>266.1666666666667</ele><time>2026-04-11T09:46:06.276Z</time></trkpt><trkpt lat="45.0497183" lon="8.2044383"><ele>265.3333333333333</ele><time>2026-04-11T09:46:07.276Z</time></trkpt><trkpt lat="45.0497417" lon="8.2042917"><ele>264.5</ele><time>2026-04-11T09:46:08.277Z</time></trkpt><trkpt lat="45.049765" lon="8.204165"><ele>263.66666666666663</ele><time>2026-04-11T09:46:09.277Z</time></trkpt><trkpt lat="45.049785" lon="8.2040567"><ele>262.8333333333333</ele><time>2026-04-11T09:46:10.276Z</time></trkpt><trkpt lat="45.0498067" lon="8.2039617"><ele>262.0</ele><time>2026-04-11T09:46:11.276Z</time></trkpt><trkpt lat="45.0498267" lon="8.20387"><ele>261.66666666666663</ele><time>2026-04-11T09:46:12.276Z</time></trkpt><trkpt lat="45.0498467" lon="8.203785"><ele>261.3333333333333</ele><time>2026-04-11T09:46:13.276Z</time></trkpt><trkpt lat="45.049885" lon="8.2036283"><ele>261.0</ele><time>2026-04-11T09:46:15.276Z</time></trkpt><trkpt lat="45.0499067" lon="8.2035433"><ele>260.6666666666667</ele><time>2026-04-11T09:46:16.277Z</time></trkpt><trkpt lat="45.0499267" lon="8.20345"><ele>260.33333333333337</ele><time>2026-04-11T09:46:17.276Z</time></trkpt><trkpt lat="45.0499433" lon="8.2033517"><ele>260.0</ele><time>2026-04-11T09:46:18.276Z</time></trkpt><trkpt lat="45.0499633" lon="8.2032483"><ele>260.8</ele><time>2026-04-11T09:46:19.276Z</time></trkpt><trkpt lat="45.049995" lon="8.2031433"><ele>261.6</ele><time>2026-04-11T09:46:20.276Z</time></trkpt><trkpt lat="45.05003" lon="8.203035"><ele>262.4</ele><time>2026-04-11T09:46:21.277Z</time></trkpt><trkpt lat="45.05008" lon="8.20292"><ele>263.2</ele><time>2026-04-11T09:46:22.276Z</time></trkpt><trkpt lat="45.0501333" lon="8.2028033"><ele>264.0</ele><time>2026-04-11T09:46:23.276Z</time></trkpt><trkpt lat="45.0501817" lon="8.2026767"><ele>264.0</ele><time>2026-04-11T09:46:24.276Z</time></trkpt><trkpt lat="45.050235" lon="8.2025517"><ele>264.0</ele><time>2026-04-11T09:46:25.276Z</time></trkpt><trkpt lat="45.050285" lon="8.2024233"><ele>264.0</ele><time>2026-04-11T09:46:26.276Z</time></trkpt><trkpt lat="45.0503367" lon="8.2022783"><ele>264.0</ele><time>2026-04-11T09:46:27.277Z</time></trkpt><trkpt lat="45.050385" lon="8.20213"><ele>264.0</ele><time>2026-04-11T09:46:28.277Z</time></trkpt><trkpt lat="45.0504367" lon="8.2019817"><ele>262.5</ele><time>2026-04-11T09:46:29.276Z</time></trkpt><trkpt lat="45.0504867" lon="8.2018267"><ele>261.0</ele><time>2026-04-11T09:46:30.277Z</time></trkpt><trkpt lat="45.0505383" lon="8.2016833"><ele>259.5</ele><time>2026-04-11T09:46:31.276Z</time></trkpt><trkpt lat="45.0505983" lon="8.201545"><ele>258.0</ele><time>2026-04-11T09:46:32.276Z</time></trkpt><trkpt lat="45.05066" lon="8.2014133"><ele>257.8</ele><time>2026-04-11T09:46:33.276Z</time></trkpt><trkpt lat="45.0507167" lon="8.2012867"><ele>257.6</ele><time>2026-04-11T09:46:34.276Z</time></trkpt><trkpt lat="45.0507783" lon="8.2011617"><ele>257.4</ele><time>2026-04-11T09:46:35.276Z</time></trkpt><trkpt lat="45.0508283" lon="8.2010333"><ele>257.2</ele><time>2026-04-11T09:46:36.276Z</time></trkpt><trkpt lat="45.0508833" lon="8.200895"><ele>257.0</ele><time>2026-04-11T09:46:37.276Z</time></trkpt><trkpt lat="45.05094" lon="8.2007617"><ele>258.8</ele><time>2026-04-11T09:46:38.276Z</time></trkpt><trkpt lat="45.050985" lon="8.200625"><ele>260.6</ele><time>2026-04-11T09:46:39.276Z</time></trkpt><trkpt lat="45.0510267" lon="8.2004867"><ele>262.40000000000003</ele><time>2026-04-11T09:46:40.276Z</time></trkpt><trkpt lat="45.0510683" lon="8.2003517"><ele>264.2</ele><time>2026-04-11T09:46:41.276Z</time></trkpt><trkpt lat="45.051105" lon="8.200205"><ele>266.0</ele><time>2026-04-11T09:46:42.277Z</time></trkpt><trkpt lat="45.051135" lon="8.2000483"><ele>266.0</ele><time>2026-04-11T09:46:43.277Z</time></trkpt><trkpt lat="45.0511633" lon="8.1998783"><ele>266.0</ele><time>2026-04-11T09:46:44.276Z</time></trkpt><trkpt lat="45.0511983" lon="8.1997067"><ele>266.0</ele><time>2026-04-11T09:46:45.276Z</time></trkpt><trkpt lat="45.0512233" lon="8.1995417"><ele>266.0</ele><time>2026-04-11T09:46:46.276Z</time></trkpt><trkpt lat="45.051255" lon="8.1993917"><ele>265.5</ele><time>2026-04-11T09:46:47.276Z</time></trkpt><trkpt lat="45.0512933" lon="8.1992433"><ele>265.0</ele><time>2026-04-11T09:46:48.276Z</time></trkpt><trkpt lat="45.0513467" lon="8.1991"><ele>264.5</ele><time>2026-04-11T09:46:49.276Z</time></trkpt><trkpt lat="45.0513967" lon="8.1989533"><ele>264.0</ele><time>2026-04-11T09:46:50.276Z</time></trkpt><trkpt lat="45.0514533" lon="8.1987967"><ele>264.0</ele><time>2026-04-11T09:46:51.277Z</time></trkpt><trkpt lat="45.0515617" lon="8.1984983"><ele>264.0</ele><time>2026-04-11T09:46:53.277Z</time></trkpt><trkpt lat="45.0516683" lon="8.198195"><ele>262.75</ele><time>2026-04-11T09:46:55.276Z</time></trkpt><trkpt lat="45.05173" lon="8.1980633"><ele>261.5</ele><time>2026-04-11T09:46:56.276Z</time></trkpt><trkpt lat="45.0517883" lon="8.197925"><ele>260.25</ele><time>2026-04-11T09:46:57.277Z</time></trkpt><trkpt lat="45.051855" lon="8.19778"><ele>259.0</ele><time>2026-04-11T09:46:58.276Z</time></trkpt><trkpt lat="45.0519267" lon="8.1976317"><ele>259.0</ele><time>2026-04-11T09:46:59.276Z</time></trkpt><trkpt lat="45.052" lon="8.1974717"><ele>259.0</ele><time>2026-04-11T09:47:00.276Z</time></trkpt><trkpt lat="45.05207" lon="8.1973033"><ele>259.0</ele><time>2026-04-11T09:47:01.276Z</time></trkpt><trkpt lat="45.052135" lon="8.197135"><ele>259.0</ele><time>2026-04-11T09:47:02.277Z</time></trkpt><trkpt lat="45.0521983" lon="8.1969783"><ele>257.0</ele><time>2026-04-11T09:47:03.276Z</time></trkpt><trkpt lat="45.0522617" lon="8.1968083"><ele>255.0</ele><time>2026-04-11T09:47:04.276Z</time></trkpt><trkpt lat="45.0523217" lon="8.196635"><ele>253.0</ele><time>2026-04-11T09:47:05.276Z</time></trkpt><trkpt lat="45.052365" lon="8.19644"><ele>251.0</ele><time>2026-04-11T09:47:06.276Z</time></trkpt><trkpt lat="45.0523917" lon="8.1962367"><ele>250.75</ele><time>2026-04-11T09:47:07.276Z</time></trkpt><trkpt lat="45.0523817" lon="8.19604"><ele>250.5</ele><time>2026-04-11T09:47:08.277Z</time></trkpt><trkpt lat="45.0523383" lon="8.19584"><ele>250.25</ele><time>2026-04-11T09:47:09.276Z</time></trkpt><trkpt lat="45.0522783" lon="8.1956417"><ele>250.0</ele><time>2026-04-11T09:47:10.276Z</time></trkpt><trkpt lat="45.052215" lon="8.19545"><ele>251.33333333333331</ele><time>2026-04-11T09:47:11.277Z</time></trkpt><trkpt lat="45.0521617" lon="8.1952583"><ele>252.66666666666669</ele><time>2026-04-11T09:47:12.276Z</time></trkpt><trkpt lat="45.05214" lon="8.1950667"><ele>254.0</ele><time>2026-04-11T09:47:13.276Z</time></trkpt><trkpt lat="45.052225" lon="8.19468"><ele>255.66666666666669</ele><time>2026-04-11T09:47:15.276Z</time></trkpt><trkpt lat="45.05229" lon="8.1944633"><ele>257.3333333333333</ele><time>2026-04-11T09:47:16.276Z</time></trkpt><trkpt lat="45.0523433" lon="8.1942383"><ele>259.0</ele><time>2026-04-11T09:47:17.276Z</time></trkpt><trkpt lat="45.0523683" lon="8.1939833"><ele>261.0</ele><time>2026-04-11T09:47:18.276Z</time></trkpt><trkpt lat="45.05238" lon="8.19374"><ele>263.0</ele><time>2026-04-11T09:47:19.276Z</time></trkpt><trkpt lat="45.0523767" lon="8.1934833"><ele>265.0</ele><time>2026-04-11T09:47:20.276Z</time></trkpt><trkpt lat="45.0523667" lon="8.1932567"><ele>266.5</ele><time>2026-04-11T09:47:21.276Z</time></trkpt><trkpt lat="45.0523633" lon="8.1930317"><ele>268.0</ele><time>2026-04-11T09:47:22.276Z</time></trkpt><trkpt lat="45.0523567" lon="8.1928383"><ele>269.5</ele><time>2026-04-11T09:47:23.276Z</time></trkpt><trkpt lat="45.0523583" lon="8.19265"><ele>271.0</ele><time>2026-04-11T09:47:24.276Z</time></trkpt><trkpt lat="45.0523717" lon="8.1924567"><ele>272.5</ele><time>2026-04-11T09:47:25.276Z</time></trkpt><trkpt lat="45.0524" lon="8.1922583"><ele>274.0</ele><time>2026-04-11T09:47:26.277Z</time></trkpt><trkpt lat="45.0524267" lon="8.1920767"><ele>275.5</ele><time>2026-04-11T09:47:27.276Z</time></trkpt><trkpt lat="45.052455" lon="8.191905"><ele>277.0</ele><time>2026-04-11T09:47:28.276Z</time></trkpt><trkpt lat="45.0524983" lon="8.19173"><ele>278.0</ele><time>2026-04-11T09:47:29.276Z</time></trkpt><trkpt lat="45.0525333" lon="8.191565"><ele>279.0</ele><time>2026-04-11T09:47:30.276Z</time></trkpt><trkpt lat="45.052575" lon="8.191405"><ele>280.0</ele><time>2026-04-11T09:47:31.276Z</time></trkpt><trkpt lat="45.0526133" lon="8.19125"><ele>281.0</ele><time>2026-04-11T09:47:32.276Z</time></trkpt><trkpt lat="45.0526533" lon="8.19109"><ele>281.0</ele><time>2026-04-11T09:47:33.276Z</time></trkpt><trkpt lat="45.0526867" lon="8.190905"><ele>281.0</ele><time>2026-04-11T09:47:34.276Z</time></trkpt><trkpt lat="45.052715" lon="8.1907233"><ele>281.0</ele><time>2026-04-11T09:47:35.277Z</time></trkpt><trkpt lat="45.052745" lon="8.1905417"><ele>281.0</ele><time>2026-04-11T09:47:36.277Z</time></trkpt><trkpt lat="45.0527867" lon="8.1903683"><ele>279.5</ele><time>2026-04-11T09:47:37.276Z</time></trkpt><trkpt lat="45.0528233" lon="8.1901933"><ele>278.0</ele><time>2026-04-11T09:47:38.276Z</time></trkpt><trkpt lat="45.0528533" lon="8.1900217"><ele>276.5</ele><time>2026-04-11T09:47:39.276Z</time></trkpt><trkpt lat="45.0528783" lon="8.1898517"><ele>275.0</ele><time>2026-04-11T09:47:40.276Z</time></trkpt><trkpt lat="45.0528833" lon="8.1896933"><ele>274.0</ele><time>2026-04-11T09:47:41.276Z</time></trkpt><trkpt lat="45.0528917" lon="8.1895333"><ele>273.0</ele><time>2026-04-11T09:47:42.276Z</time></trkpt><trkpt lat="45.0528933" lon="8.1893783"><ele>272.0</ele><time>2026-04-11T09:47:43.276Z</time></trkpt><trkpt lat="45.0528867" lon="8.189245"><ele>271.0</ele><time>2026-04-11T09:47:44.277Z</time></trkpt><trkpt lat="45.0529083" lon="8.1891017"><ele>270.0</ele><time>2026-04-11T09:47:45.276Z</time></trkpt><trkpt lat="45.052965" lon="8.1889533"><ele>267.5</ele><time>2026-04-11T09:47:46.276Z</time></trkpt><trkpt lat="45.0530383" lon="8.188805"><ele>265.0</ele><time>2026-04-11T09:47:47.276Z</time></trkpt><trkpt lat="45.053115" lon="8.188665"><ele>262.5</ele><time>2026-04-11T09:47:48.277Z</time></trkpt><trkpt lat="45.0532033" lon="8.1885283"><ele>260.0</ele><time>2026-04-11T09:47:49.276Z</time></trkpt><trkpt lat="45.0532733" lon="8.1884"><ele>260.2</ele><time>2026-04-11T09:47:50.276Z</time></trkpt><trkpt lat="45.0533483" lon="8.1882817"><ele>260.4</ele><time>2026-04-11T09:47:51.276Z</time></trkpt><trkpt lat="45.0534217" lon="8.1881683"><ele>260.6</ele><time>2026-04-11T09:47:52.276Z</time></trkpt><trkpt lat="45.0534817" lon="8.1880417"><ele>260.8</ele><time>2026-04-11T09:47:53.276Z</time></trkpt><trkpt lat="45.05354" lon="8.1879117"><ele>261.0</ele><time>2026-04-11T09:47:54.275Z</time></trkpt><trkpt lat="45.053585" lon="8.18778"><ele>261.0</ele><time>2026-04-11T09:47:55.275Z</time></trkpt><trkpt lat="45.0535883" lon="8.1876283"><ele>261.0</ele><time>2026-04-11T09:47:56.275Z</time></trkpt><trkpt lat="45.0535567" lon="8.1874817"><ele>261.0</ele><time>2026-04-11T09:47:57.275Z</time></trkpt><trkpt lat="45.0534983" lon="8.1873417"><ele>261.0</ele><time>2026-04-11T09:47:58.275Z</time></trkpt><trkpt lat="45.0534233" lon="8.1872267"><ele>261.0</ele><time>2026-04-11T09:47:59.275Z</time></trkpt><trkpt lat="45.053335" lon="8.187135"><ele>257.0</ele><time>2026-04-11T09:48:00.275Z</time></trkpt><trkpt lat="45.0532317" lon="8.18708"><ele>253.0</ele><time>2026-04-11T09:48:01.275Z</time></trkpt><trkpt lat="45.0531033" lon="8.1870833"><ele>249.0</ele><time>2026-04-11T09:48:02.276Z</time></trkpt><trkpt lat="45.0529583" lon="8.1871183"><ele>245.0</ele><time>2026-04-11T09:48:03.276Z</time></trkpt><trkpt lat="45.0528033" lon="8.1871583"><ele>245.0</ele><time>2026-04-11T09:48:04.276Z</time></trkpt><trkpt lat="45.0526433" lon="8.1872067"><ele>245.0</ele><time>2026-04-11T09:48:05.275Z</time></trkpt><trkpt lat="45.0524917" lon="8.18725"><ele>245.0</ele><time>2026-04-11T09:48:06.275Z</time></trkpt><trkpt lat="45.0523383" lon="8.1872917"><ele>246.0</ele><time>2026-04-11T09:48:07.276Z</time></trkpt><trkpt lat="45.05218" lon="8.1873183"><ele>247.0</ele><time>2026-04-11T09:48:08.275Z</time></trkpt><trkpt lat="45.0520217" lon="8.1873483"><ele>248.0</ele><time>2026-04-11T09:48:09.276Z</time></trkpt><trkpt lat="45.0518683" lon="8.18737"><ele>248.0</ele><time>2026-04-11T09:48:10.276Z</time></trkpt><trkpt lat="45.05172" lon="8.1873833"><ele>248.0</ele><time>2026-04-11T09:48:11.275Z</time></trkpt><trkpt lat="45.0515833" lon="8.18742"><ele>248.0</ele><time>2026-04-11T09:48:12.276Z</time></trkpt><trkpt lat="45.05145" lon="8.187445"><ele>248.0</ele><time>2026-04-11T09:48:13.275Z</time></trkpt><trkpt lat="45.0512333" lon="8.1874567"><ele>246.83333333333334</ele><time>2026-04-11T09:48:15.275Z</time></trkpt><trkpt lat="45.0511383" lon="8.1874133"><ele>245.66666666666669</ele><time>2026-04-11T09:48:16.275Z</time></trkpt><trkpt lat="45.0510733" lon="8.1873267"><ele>244.5</ele><time>2026-04-11T09:48:17.275Z</time></trkpt><trkpt lat="45.0510333" lon="8.187215"><ele>243.33333333333331</ele><time>2026-04-11T09:48:18.276Z</time></trkpt><trkpt lat="45.051015" lon="8.1870983"><ele>242.16666666666666</ele><time>2026-04-11T09:48:19.276Z</time></trkpt><trkpt lat="45.0510067" lon="8.1869767"><ele>241.0</ele><time>2026-04-11T09:48:20.275Z</time></trkpt><trkpt lat="45.0510367" lon="8.1868433"><ele>239.4</ele><time>2026-04-11T09:48:21.275Z</time></trkpt><trkpt lat="45.0510917" lon="8.186715"><ele>237.8</ele><time>2026-04-11T09:48:22.275Z</time></trkpt><trkpt lat="45.0511617" lon="8.1866017"><ele>236.20000000000002</ele><time>2026-04-11T09:48:23.275Z</time></trkpt><trkpt lat="45.0512367" lon="8.1864967"><ele>234.60000000000002</ele><time>2026-04-11T09:48:24.276Z</time></trkpt><trkpt lat="45.0513217" lon="8.1863717"><ele>233.0</ele><time>2026-04-11T09:48:25.275Z</time></trkpt><trkpt lat="45.0514033" lon="8.1862433"><ele>232.25</ele><time>2026-04-11T09:48:26.275Z</time></trkpt><trkpt lat="45.0514933" lon="8.186125"><ele>231.5</ele><time>2026-04-11T09:48:27.275Z</time></trkpt><trkpt lat="45.0515733" lon="8.1860033"><ele>230.75</ele><time>2026-04-11T09:48:28.275Z</time></trkpt><trkpt lat="45.051655" lon="8.18589"><ele>230.0</ele><time>2026-04-11T09:48:29.275Z</time></trkpt><trkpt lat="45.05174" lon="8.185785"><ele>229.0</ele><time>2026-04-11T09:48:30.275Z</time></trkpt><trkpt lat="45.0518217" lon="8.1856783"><ele>228.0</ele><time>2026-04-11T09:48:31.275Z</time></trkpt><trkpt lat="45.0518967" lon="8.18557"><ele>227.0</ele><time>2026-04-11T09:48:32.276Z</time></trkpt><trkpt lat="45.0519567" lon="8.1854533"><ele>226.0</ele><time>2026-04-11T09:48:33.275Z</time></trkpt><trkpt lat="45.05199" lon="8.185325"><ele>225.0</ele><time>2026-04-11T09:48:34.276Z</time></trkpt><trkpt lat="45.051975" lon="8.1852017"><ele>225.0</ele><time>2026-04-11T09:48:35.275Z</time></trkpt><trkpt lat="45.0519183" lon="8.1851067"><ele>225.0</ele><time>2026-04-11T09:48:36.275Z</time></trkpt><trkpt lat="45.0518367" lon="8.1850283"><ele>225.0</ele><time>2026-04-11T09:48:37.276Z</time></trkpt><trkpt lat="45.05173" lon="8.18497"><ele>225.0</ele><time>2026-04-11T09:48:38.276Z</time></trkpt><trkpt lat="45.0516333" lon="8.1849083"><ele>225.0</ele><time>2026-04-11T09:48:39.275Z</time></trkpt><trkpt lat="45.0515667" lon="8.1848133"><ele>224.2</ele><time>2026-04-11T09:48:40.275Z</time></trkpt><trkpt lat="45.0515317" lon="8.1846833"><ele>223.4</ele><time>2026-04-11T09:48:41.275Z</time></trkpt><trkpt lat="45.0515333" lon="8.18455"><ele>222.60000000000002</ele><time>2026-04-11T09:48:42.275Z</time></trkpt><trkpt lat="45.0515733" lon="8.18442"><ele>221.8</ele><time>2026-04-11T09:48:43.275Z</time></trkpt><trkpt lat="45.0516383" lon="8.184335"><ele>221.0</ele><time>2026-04-11T09:48:44.275Z</time></trkpt><trkpt lat="45.0517133" lon="8.1843033"><ele>221.00000000000003</ele><time>2026-04-11T09:48:45.275Z</time></trkpt><trkpt lat="45.0517933" lon="8.1843033"><ele>221.0</ele><time>2026-04-11T09:48:47.275Z</time></trkpt><trkpt lat="45.0518583" lon="8.1843"><ele>221.0</ele><time>2026-04-11T09:48:59.276Z</time></trkpt><trkpt lat="45.0519333" lon="8.1842833"><ele>221.0</ele><time>2026-04-11T09:49:02.275Z</time></trkpt><trkpt lat="45.052015" lon="8.184255"><ele>221.00000000000003</ele><time>2026-04-11T09:49:05.275Z</time></trkpt><trkpt lat="45.052075" lon="8.1841717"><ele>221.0</ele><time>2026-04-11T09:49:09.275Z</time></trkpt><trkpt lat="45.052105" lon="8.1840333"><ele>219.25</ele><time>2026-04-11T09:49:11.275Z</time></trkpt><trkpt lat="45.0521717" lon="8.1837417"><ele>217.5</ele><time>2026-04-11T09:49:14.276Z</time></trkpt><trkpt lat="45.0521733" lon="8.18364"><ele>215.75</ele><time>2026-04-11T09:49:15.275Z</time></trkpt><trkpt lat="45.0521617" lon="8.1834833"><ele>214.0</ele><time>2026-04-11T09:49:17.276Z</time></trkpt><trkpt lat="45.05214" lon="8.1832867"><ele>215.2</ele><time>2026-04-11T09:49:19.275Z</time></trkpt><trkpt lat="45.0521333" lon="8.183165"><ele>216.39999999999998</ele><time>2026-04-11T09:49:20.275Z</time></trkpt><trkpt lat="45.0521267" lon="8.1830317"><ele>217.6</ele><time>2026-04-11T09:49:21.275Z</time></trkpt><trkpt lat="45.0521133" lon="8.1828967"><ele>218.8</ele><time>2026-04-11T09:49:22.275Z</time></trkpt><trkpt lat="45.0520967" lon="8.1827617"><ele>220.0</ele><time>2026-04-11T09:49:23.275Z</time></trkpt><trkpt lat="45.0520783" lon="8.1826167"><ele>220.0</ele><time>2026-04-11T09:49:24.275Z</time></trkpt><trkpt lat="45.0520583" lon="8.1824833"><ele>220.0</ele><time>2026-04-11T09:49:25.276Z</time></trkpt><trkpt lat="45.0520417" lon="8.1823333"><ele>220.0</ele><time>2026-04-11T09:49:26.275Z</time></trkpt><trkpt lat="45.0520083" lon="8.18218"><ele>220.0</ele><time>2026-04-11T09:49:27.275Z</time></trkpt><trkpt lat="45.0519633" lon="8.18203"><ele>220.0</ele><time>2026-04-11T09:49:28.275Z</time></trkpt><trkpt lat="45.05191" lon="8.181895"><ele>223.6</ele><time>2026-04-11T09:49:29.275Z</time></trkpt><trkpt lat="45.05184" lon="8.1817817"><ele>227.2</ele><time>2026-04-11T09:49:30.276Z</time></trkpt><trkpt lat="45.0517717" lon="8.18168"><ele>230.8</ele><time>2026-04-11T09:49:31.275Z</time></trkpt><trkpt lat="45.0517033" lon="8.181595"><ele>234.4</ele><time>2026-04-11T09:49:32.275Z</time></trkpt><trkpt lat="45.05163" lon="8.1815067"><ele>238.0</ele><time>2026-04-11T09:49:33.275Z</time></trkpt><trkpt lat="45.0515617" lon="8.181425"><ele>239.33333333333331</ele><time>2026-04-11T09:49:34.275Z</time></trkpt><trkpt lat="45.0515033" lon="8.181345"><ele>240.66666666666666</ele><time>2026-04-11T09:49:35.275Z</time></trkpt><trkpt lat="45.0514483" lon="8.1812533"><ele>242.0</ele><time>2026-04-11T09:49:36.275Z</time></trkpt><trkpt lat="45.051405" lon="8.1811617"><ele>243.33333333333331</ele><time>2026-04-11T09:49:37.275Z</time></trkpt><trkpt lat="45.0513917" lon="8.1810583"><ele>244.66666666666666</ele><time>2026-04-11T09:49:38.276Z</time></trkpt><trkpt lat="45.051375" lon="8.1809483"><ele>246.0</ele><time>2026-04-11T09:49:39.275Z</time></trkpt><trkpt lat="45.0513683" lon="8.1808467"><ele>246.0</ele><time>2026-04-11T09:49:40.276Z</time></trkpt><trkpt lat="45.0513583" lon="8.18075"><ele>246.0</ele><time>2026-04-11T09:49:41.276Z</time></trkpt><trkpt lat="45.0513483" lon="8.1806583"><ele>246.0</ele><time>2026-04-11T09:49:42.276Z</time></trkpt><trkpt lat="45.0513217" lon="8.1804983"><ele>246.0</ele><time>2026-04-11T09:49:44.275Z</time></trkpt><trkpt lat="45.051265" lon="8.1804183"><ele>246.0</ele><time>2026-04-11T09:49:47.275Z</time></trkpt><trkpt lat="45.051175" lon="8.1804117"><ele>246.0</ele><time>2026-04-11T09:49:49.275Z</time></trkpt><trkpt lat="45.0511067" lon="8.1804183"><ele>245.60000000000002</ele><time>2026-04-11T09:49:50.275Z</time></trkpt><trkpt lat="45.051" lon="8.1804233"><ele>245.20000000000002</ele><time>2026-04-11T09:49:52.275Z</time></trkpt><trkpt lat="45.05092" lon="8.1804783"><ele>244.79999999999998</ele><time>2026-04-11T09:49:54.276Z</time></trkpt><trkpt lat="45.05084" lon="8.180515"><ele>244.39999999999998</ele><time>2026-04-11T09:49:56.275Z</time></trkpt><trkpt lat="45.0507517" lon="8.1805483"><ele>244.0</ele><time>2026-04-11T09:49:58.275Z</time></trkpt><trkpt lat="45.0506567" lon="8.18059"><ele>244.0</ele><time>2026-04-11T09:50:00.275Z</time></trkpt><trkpt lat="45.050535" lon="8.1806317"><ele>243.99999999999997</ele><time>2026-04-11T09:50:02.275Z</time></trkpt><trkpt lat="45.0504567" lon="8.1806367"><ele>243.99999999999997</ele><time>2026-04-11T09:50:03.275Z</time></trkpt><trkpt lat="45.0503717" lon="8.1806433"><ele>244.0</ele><time>2026-04-11T09:50:04.275Z</time></trkpt><trkpt lat="45.0502867" lon="8.18064"><ele>244.0</ele><time>2026-04-11T09:50:05.275Z</time></trkpt><trkpt lat="45.050205" lon="8.1806333"><ele>243.99999999999997</ele><time>2026-04-11T09:50:06.275Z</time></trkpt><trkpt lat="45.0501267" lon="8.18063"><ele>244.0</ele><time>2026-04-11T09:50:07.275Z</time></trkpt><trkpt lat="45.050055" lon="8.180645"><ele>244.0</ele><time>2026-04-11T09:50:08.275Z</time></trkpt><trkpt lat="45.0499583" lon="8.1806483"><ele>244.0</ele><time>2026-04-11T09:50:09.275Z</time></trkpt><trkpt lat="45.0498667" lon="8.18064"><ele>243.99999999999997</ele><time>2026-04-11T09:50:10.276Z</time></trkpt><trkpt lat="45.0497717" lon="8.1806283"><ele>244.0</ele><time>2026-04-11T09:50:11.275Z</time></trkpt><trkpt lat="45.04967" lon="8.1806183"><ele>244.0</ele><time>2026-04-11T09:50:12.275Z</time></trkpt><trkpt lat="45.0495683" lon="8.1805933"><ele>243.99999999999997</ele><time>2026-04-11T09:50:13.275Z</time></trkpt><trkpt lat="45.0494633" lon="8.18057"><ele>243.99999999999997</ele><time>2026-04-11T09:50:14.275Z</time></trkpt><trkpt lat="45.0493533" lon="8.1805583"><ele>244.0</ele><time>2026-04-11T09:50:15.275Z</time></trkpt><trkpt lat="45.0492667" lon="8.1805117"><ele>244.0</ele><time>2026-04-11T09:50:16.275Z</time></trkpt><trkpt lat="45.049165" lon="8.1804683"><ele>243.6</ele><time>2026-04-11T09:50:17.275Z</time></trkpt><trkpt lat="45.0490783" lon="8.1804267"><ele>243.2</ele><time>2026-04-11T09:50:18.276Z</time></trkpt><trkpt lat="45.048995" lon="8.1803817"><ele>242.79999999999998</ele><time>2026-04-11T09:50:19.276Z</time></trkpt><trkpt lat="45.0489033" lon="8.1803317"><ele>242.39999999999998</ele><time>2026-04-11T09:50:20.275Z</time></trkpt><trkpt lat="45.0488067" lon="8.1802817"><ele>242.0</ele><time>2026-04-11T09:50:21.276Z</time></trkpt><trkpt lat="45.0487033" lon="8.180225"><ele>242.0</ele><time>2026-04-11T09:50:22.275Z</time></trkpt><trkpt lat="45.0486033" lon="8.180165"><ele>242.0</ele><time>2026-04-11T09:50:23.275Z</time></trkpt><trkpt lat="45.0485017" lon="8.1801233"><ele>242.0</ele><time>2026-04-11T09:50:24.275Z</time></trkpt><trkpt lat="45.0483933" lon="8.1800733"><ele>242.0</ele><time>2026-04-11T09:50:25.275Z</time></trkpt><trkpt lat="45.0482833" lon="8.1800183"><ele>242.0</ele><time>2026-04-11T09:50:26.275Z</time></trkpt><trkpt lat="45.0481783" lon="8.1799433"><ele>241.0</ele><time>2026-04-11T09:50:27.275Z</time></trkpt><trkpt lat="45.048075" lon="8.1798917"><ele>240.0</ele><time>2026-04-11T09:50:28.275Z</time></trkpt><trkpt lat="45.0479683" lon="8.1798333"><ele>239.0</ele><time>2026-04-11T09:50:29.275Z</time></trkpt><trkpt lat="45.0478617" lon="8.1797633"><ele>238.0</ele><time>2026-04-11T09:50:30.275Z</time></trkpt><trkpt lat="45.0477583" lon="8.1796883"><ele>237.8</ele><time>2026-04-11T09:50:31.276Z</time></trkpt><trkpt lat="45.0476667" lon="8.1796183"><ele>237.60000000000002</ele><time>2026-04-11T09:50:32.275Z</time></trkpt><trkpt lat="45.0475783" lon="8.1795467"><ele>237.39999999999998</ele><time>2026-04-11T09:50:33.275Z</time></trkpt><trkpt lat="45.0474933" lon="8.1794867"><ele>237.2</ele><time>2026-04-11T09:50:34.276Z</time></trkpt><trkpt lat="45.04741" lon="8.1794267"><ele>237.0</ele><time>2026-04-11T09:50:35.275Z</time></trkpt><trkpt lat="45.0473217" lon="8.1793633"><ele>236.39999999999998</ele><time>2026-04-11T09:50:36.275Z</time></trkpt><trkpt lat="45.04723" lon="8.1793017"><ele>235.79999999999998</ele><time>2026-04-11T09:50:37.275Z</time></trkpt><trkpt lat="45.0471367" lon="8.17924"><ele>235.2</ele><time>2026-04-11T09:50:38.275Z</time></trkpt><trkpt lat="45.0470367" lon="8.17919"><ele>234.6</ele><time>2026-04-11T09:50:39.275Z</time></trkpt><trkpt lat="45.046935" lon="8.1791533"><ele>234.0</ele><time>2026-04-11T09:50:40.275Z</time></trkpt><trkpt lat="45.04684" lon="8.1791417"><ele>234.0</ele><time>2026-04-11T09:50:41.275Z</time></trkpt><trkpt lat="45.0467467" lon="8.1791383"><ele>234.0</ele><time>2026-04-11T09:50:42.275Z</time></trkpt><trkpt lat="45.0466733" lon="8.1791367"><ele>234.0</ele><time>2026-04-11T09:50:43.275Z</time></trkpt><trkpt lat="45.0466083" lon="8.17913"><ele>234.0</ele><time>2026-04-11T09:50:44.276Z</time></trkpt><trkpt lat="45.046505" lon="8.1790983"><ele>234.0</ele><time>2026-04-11T09:50:46.276Z</time></trkpt><trkpt lat="45.0464217" lon="8.17905"><ele>234.0</ele><time>2026-04-11T09:50:48.275Z</time></trkpt><trkpt lat="45.0463483" lon="8.17898"><ele>232.83333333333334</ele><time>2026-04-11T09:50:51.275Z</time></trkpt><trkpt lat="45.0462933" lon="8.1788917"><ele>231.66666666666669</ele><time>2026-04-11T09:50:54.275Z</time></trkpt><trkpt lat="45.04622" lon="8.17886"><ele>230.5</ele><time>2026-04-11T09:50:58.275Z</time></trkpt><trkpt lat="45.0461633" lon="8.1789017"><ele>229.33333333333334</ele><time>2026-04-11T09:51:01.275Z</time></trkpt><trkpt lat="45.0461133" lon="8.1790133"><ele>228.16666666666669</ele><time>2026-04-11T09:51:13.275Z</time></trkpt><trkpt lat="45.04603" lon="8.1791483"><ele>227.0</ele><time>2026-04-11T09:51:15.275Z</time></trkpt><trkpt lat="45.0459917" lon="8.1792217"><ele>226.39999999999998</ele><time>2026-04-11T09:51:16.275Z</time></trkpt><trkpt lat="45.0459117" lon="8.1793567"><ele>225.79999999999998</ele><time>2026-04-11T09:51:18.276Z</time></trkpt><trkpt lat="45.0458167" lon="8.1795033"><ele>225.2</ele><time>2026-04-11T09:51:20.276Z</time></trkpt><trkpt lat="45.0457633" lon="8.1795867"><ele>224.6</ele><time>2026-04-11T09:51:21.275Z</time></trkpt><trkpt lat="45.045705" lon="8.17968"><ele>224.0</ele><time>2026-04-11T09:51:22.275Z</time></trkpt><trkpt lat="45.0456467" lon="8.179775"><ele>220.6</ele><time>2026-04-11T09:51:23.275Z</time></trkpt><trkpt lat="45.0455917" lon="8.1798783"><ele>217.2</ele><time>2026-04-11T09:51:24.275Z</time></trkpt><trkpt lat="45.0455383" lon="8.17997"><ele>213.79999999999998</ele><time>2026-04-11T09:51:25.275Z</time></trkpt><trkpt lat="45.04547" lon="8.18006"><ele>210.39999999999998</ele><time>2026-04-11T09:51:26.275Z</time></trkpt><trkpt lat="45.0453933" lon="8.18012"><ele>207.0</ele><time>2026-04-11T09:51:27.275Z</time></trkpt><trkpt lat="45.0453133" lon="8.1801883"><ele>207.0</ele><time>2026-04-11T09:51:28.275Z</time></trkpt><trkpt lat="45.045235" lon="8.1802283"><ele>207.0</ele><time>2026-04-11T09:51:29.276Z</time></trkpt><trkpt lat="45.045155" lon="8.1802667"><ele>207.0</ele><time>2026-04-11T09:51:30.275Z</time></trkpt><trkpt lat="45.045075" lon="8.1802933"><ele>207.0</ele><time>2026-04-11T09:51:31.275Z</time></trkpt><trkpt lat="45.0449967" lon="8.1803183"><ele>207.0</ele><time>2026-04-11T09:51:32.275Z</time></trkpt><trkpt lat="45.0449033" lon="8.1803317"><ele>207.0</ele><time>2026-04-11T09:51:33.275Z</time></trkpt><trkpt lat="45.0448133" lon="8.18035"><ele>205.39999999999998</ele><time>2026-04-11T09:51:34.275Z</time></trkpt><trkpt lat="45.0447083" lon="8.180375"><ele>203.79999999999998</ele><time>2026-04-11T09:51:35.275Z</time></trkpt><trkpt lat="45.0446133" lon="8.1804067"><ele>202.2</ele><time>2026-04-11T09:51:36.275Z</time></trkpt><trkpt lat="45.044525" lon="8.1804633"><ele>200.6</ele><time>2026-04-11T09:51:37.275Z</time></trkpt><trkpt lat="45.0444383" lon="8.1805333"><ele>199.0</ele><time>2026-04-11T09:51:38.275Z</time></trkpt><trkpt lat="45.044365" lon="8.18063"><ele>198.33333333333331</ele><time>2026-04-11T09:51:39.276Z</time></trkpt><trkpt lat="45.0442967" lon="8.1807417"><ele>197.66666666666666</ele><time>2026-04-11T09:51:40.275Z</time></trkpt><trkpt lat="45.0442383" lon="8.180845"><ele>197.0</ele><time>2026-04-11T09:51:41.275Z</time></trkpt><trkpt lat="45.0441917" lon="8.1809517"><ele>196.33333333333331</ele><time>2026-04-11T09:51:42.276Z</time></trkpt><trkpt lat="45.0441483" lon="8.1810667"><ele>195.66666666666666</ele><time>2026-04-11T09:51:43.275Z</time></trkpt><trkpt lat="45.0441133" lon="8.18115"><ele>195.0</ele><time>2026-04-11T09:51:44.275Z</time></trkpt><trkpt lat="45.0440767" lon="8.1812317"><ele>194.83333333333334</ele><time>2026-04-11T09:51:45.275Z</time></trkpt><trkpt lat="45.0440217" lon="8.1813083"><ele>194.66666666666669</ele><time>2026-04-11T09:51:47.276Z</time></trkpt><trkpt lat="45.0439433" lon="8.18124"><ele>194.5</ele><time>2026-04-11T09:51:50.275Z</time></trkpt><trkpt lat="45.0438783" lon="8.1810917"><ele>194.33333333333334</ele><time>2026-04-11T09:51:52.275Z</time></trkpt><trkpt lat="45.0438317" lon="8.181005"><ele>194.16666666666669</ele><time>2026-04-11T09:51:53.275Z</time></trkpt><trkpt lat="45.0437867" lon="8.1809233"><ele>194.0</ele><time>2026-04-11T09:51:54.276Z</time></trkpt><trkpt lat="45.0437533" lon="8.1808467"><ele>194.0</ele><time>2026-04-11T09:51:55.275Z</time></trkpt><trkpt lat="45.0436817" lon="8.1806967"><ele>194.0</ele><time>2026-04-11T09:51:57.276Z</time></trkpt><trkpt lat="45.0436333" lon="8.18062"><ele>194.0</ele><time>2026-04-11T09:51:58.276Z</time></trkpt><trkpt lat="45.04358" lon="8.1805317"><ele>194.0</ele><time>2026-04-11T09:51:59.275Z</time></trkpt><trkpt lat="45.0435233" lon="8.18044"><ele>194.0</ele><time>2026-04-11T09:52:00.275Z</time></trkpt><trkpt lat="45.043465" lon="8.1803467"><ele>194.25</ele><time>2026-04-11T09:52:01.274Z</time></trkpt><trkpt lat="45.0433967" lon="8.18026"><ele>194.5</ele><time>2026-04-11T09:52:02.275Z</time></trkpt><trkpt lat="45.0433183" lon="8.1801833"><ele>194.75</ele><time>2026-04-11T09:52:03.274Z</time></trkpt><trkpt lat="45.0431017" lon="8.1800767"><ele>195.0</ele><time>2026-04-11T09:52:05.275Z</time></trkpt><trkpt lat="45.0428767" lon="8.1800117"><ele>195.0</ele><time>2026-04-11T09:52:07.275Z</time></trkpt><trkpt lat="45.04277" lon="8.1799417"><ele>195.0</ele><time>2026-04-11T09:52:08.275Z</time></trkpt><trkpt lat="45.0426783" lon="8.179855"><ele>195.0</ele><time>2026-04-11T09:52:09.274Z</time></trkpt><trkpt lat="45.042485" lon="8.1796583"><ele>193.5</ele><time>2026-04-11T09:52:11.274Z</time></trkpt><trkpt lat="45.0422733" lon="8.17946"><ele>192.0</ele><time>2026-04-11T09:52:13.274Z</time></trkpt><trkpt lat="45.0420633" lon="8.1792367"><ele>192.0</ele><time>2026-04-11T09:52:15.274Z</time></trkpt><trkpt lat="45.0419467" lon="8.179115"><ele>192.0</ele><time>2026-04-11T09:52:16.275Z</time></trkpt><trkpt lat="45.0418333" lon="8.1790067"><ele>192.0</ele><time>2026-04-11T09:52:17.274Z</time></trkpt><trkpt lat="45.0417217" lon="8.1788967"><ele>192.0</ele><time>2026-04-11T09:52:18.275Z</time></trkpt><trkpt lat="45.041615" lon="8.1788017"><ele>190.75</ele><time>2026-04-11T09:52:19.274Z</time></trkpt><trkpt lat="45.0415033" lon="8.17871"><ele>189.5</ele><time>2026-04-11T09:52:20.275Z</time></trkpt><trkpt lat="45.0413867" lon="8.1786317"><ele>188.25</ele><time>2026-04-11T09:52:21.274Z</time></trkpt><trkpt lat="45.0412683" lon="8.1785667"><ele>187.0</ele><time>2026-04-11T09:52:22.274Z</time></trkpt><trkpt lat="45.0411533" lon="8.1785117"><ele>187.0</ele><time>2026-04-11T09:52:23.274Z</time></trkpt><trkpt lat="45.04104" lon="8.1784533"><ele>187.0</ele><time>2026-04-11T09:52:24.274Z</time></trkpt><trkpt lat="45.0409233" lon="8.1784067"><ele>187.0</ele><time>2026-04-11T09:52:25.275Z</time></trkpt><trkpt lat="45.0408117" lon="8.178345"><ele>187.0</ele><time>2026-04-11T09:52:26.275Z</time></trkpt><trkpt lat="45.040705" lon="8.178305"><ele>187.39999999999998</ele><time>2026-04-11T09:52:27.274Z</time></trkpt><trkpt lat="45.0406017" lon="8.1782417"><ele>187.79999999999998</ele><time>2026-04-11T09:52:28.275Z</time></trkpt><trkpt lat="45.0405033" lon="8.178185"><ele>188.2</ele><time>2026-04-11T09:52:29.274Z</time></trkpt><trkpt lat="45.040395" lon="8.1781283"><ele>188.6</ele><time>2026-04-11T09:52:30.274Z</time></trkpt><trkpt lat="45.040285" lon="8.1780833"><ele>189.0</ele><time>2026-04-11T09:52:31.275Z</time></trkpt><trkpt lat="45.04017" lon="8.1780317"><ele>188.5</ele><time>2026-04-11T09:52:32.274Z</time></trkpt><trkpt lat="45.04005" lon="8.17798"><ele>188.0</ele><time>2026-04-11T09:52:33.274Z</time></trkpt><trkpt lat="45.0399283" lon="8.1779217"><ele>187.5</ele><time>2026-04-11T09:52:34.274Z</time></trkpt><trkpt lat="45.039805" lon="8.177885"><ele>187.0</ele><time>2026-04-11T09:52:35.274Z</time></trkpt><trkpt lat="45.0396867" lon="8.1778533"><ele>187.0</ele><time>2026-04-11T09:52:36.274Z</time></trkpt><trkpt lat="45.039575" lon="8.1778117"><ele>187.0</ele><time>2026-04-11T09:52:37.274Z</time></trkpt><trkpt lat="45.0394733" lon="8.17777"><ele>187.0</ele><time>2026-04-11T09:52:38.274Z</time></trkpt><trkpt lat="45.03937" lon="8.1777233"><ele>187.0</ele><time>2026-04-11T09:52:39.275Z</time></trkpt><trkpt lat="45.039265" lon="8.1776783"><ele>187.0</ele><time>2026-04-11T09:52:40.274Z</time></trkpt><trkpt lat="45.03917" lon="8.17762"><ele>187.0</ele><time>2026-04-11T09:52:41.274Z</time></trkpt><trkpt lat="45.03907" lon="8.177545"><ele>187.0</ele><time>2026-04-11T09:52:42.274Z</time></trkpt><trkpt lat="45.0389933" lon="8.1774567"><ele>187.0</ele><time>2026-04-11T09:52:43.275Z</time></trkpt><trkpt lat="45.0389083" lon="8.177365"><ele>187.0</ele><time>2026-04-11T09:52:44.274Z</time></trkpt><trkpt lat="45.03882" lon="8.1772767"><ele>187.0</ele><time>2026-04-11T09:52:45.275Z</time></trkpt><trkpt lat="45.0387217" lon="8.1771933"><ele>187.0</ele><time>2026-04-11T09:52:46.274Z</time></trkpt><trkpt lat="45.0386267" lon="8.1771033"><ele>187.0</ele><time>2026-04-11T09:52:47.274Z</time></trkpt><trkpt lat="45.0385333" lon="8.17702"><ele>187.0</ele><time>2026-04-11T09:52:48.274Z</time></trkpt><trkpt lat="45.0384433" lon="8.1769167"><ele>187.0</ele><time>2026-04-11T09:52:49.274Z</time></trkpt><trkpt lat="45.038355" lon="8.17681"><ele>187.39999999999998</ele><time>2026-04-11T09:52:50.274Z</time></trkpt><trkpt lat="45.0382833" lon="8.1766983"><ele>187.79999999999998</ele><time>2026-04-11T09:52:51.274Z</time></trkpt><trkpt lat="45.03822" lon="8.1765833"><ele>188.2</ele><time>2026-04-11T09:52:52.274Z</time></trkpt><trkpt lat="45.03816" lon="8.1764567"><ele>188.6</ele><time>2026-04-11T09:52:53.274Z</time></trkpt><trkpt lat="45.0381083" lon="8.176315"><ele>189.0</ele><time>2026-04-11T09:52:54.274Z</time></trkpt><trkpt lat="45.0380617" lon="8.1761683"><ele>189.0</ele><time>2026-04-11T09:52:55.274Z</time></trkpt><trkpt lat="45.03802" lon="8.176015"><ele>189.0</ele><time>2026-04-11T09:52:56.274Z</time></trkpt><trkpt lat="45.03797" lon="8.17589"><ele>189.0</ele><time>2026-04-11T09:52:57.274Z</time></trkpt><trkpt lat="45.03792" lon="8.1757817"><ele>189.0</ele><time>2026-04-11T09:52:58.274Z</time></trkpt><trkpt lat="45.03786" lon="8.17569"><ele>189.0</ele><time>2026-04-11T09:52:59.274Z</time></trkpt><trkpt lat="45.0377817" lon="8.175615"><ele>187.75</ele><time>2026-04-11T09:53:00.274Z</time></trkpt><trkpt lat="45.0376867" lon="8.1755433"><ele>186.5</ele><time>2026-04-11T09:53:01.274Z</time></trkpt><trkpt lat="45.037585" lon="8.1754667"><ele>185.25</ele><time>2026-04-11T09:53:02.274Z</time></trkpt><trkpt lat="45.0374733" lon="8.1753783"><ele>184.0</ele><time>2026-04-11T09:53:03.274Z</time></trkpt><trkpt lat="45.0373667" lon="8.17529"><ele>184.0</ele><time>2026-04-11T09:53:04.275Z</time></trkpt><trkpt lat="45.0372533" lon="8.1751983"><ele>184.0</ele><time>2026-04-11T09:53:05.274Z</time></trkpt><trkpt lat="45.037145" lon="8.17511"><ele>184.0</ele><time>2026-04-11T09:53:06.274Z</time></trkpt><trkpt lat="45.0370383" lon="8.17502"><ele>184.0</ele><time>2026-04-11T09:53:07.275Z</time></trkpt><trkpt lat="45.0369233" lon="8.17493"><ele>183.25</ele><time>2026-04-11T09:53:08.274Z</time></trkpt><trkpt lat="45.0367983" lon="8.174835"><ele>182.5</ele><time>2026-04-11T09:53:09.274Z</time></trkpt><trkpt lat="45.03668" lon="8.1747617"><ele>181.75</ele><time>2026-04-11T09:53:10.274Z</time></trkpt><trkpt lat="45.0365617" lon="8.174705"><ele>181.0</ele><time>2026-04-11T09:53:11.274Z</time></trkpt><trkpt lat="45.0364383" lon="8.174635"><ele>180.5</ele><time>2026-04-11T09:53:12.274Z</time></trkpt><trkpt lat="45.036315" lon="8.1745633"><ele>180.0</ele><time>2026-04-11T09:53:13.274Z</time></trkpt><trkpt lat="45.0361967" lon="8.1745033"><ele>179.5</ele><time>2026-04-11T09:53:14.274Z</time></trkpt><trkpt lat="45.0360833" lon="8.174455"><ele>179.0</ele><time>2026-04-11T09:53:15.274Z</time></trkpt><trkpt lat="45.03599" lon="8.1744033"><ele>179.0</ele><time>2026-04-11T09:53:16.275Z</time></trkpt><trkpt lat="45.035895" lon="8.1743417"><ele>179.0</ele><time>2026-04-11T09:53:17.274Z</time></trkpt><trkpt lat="45.0358283" lon="8.174245"><ele>179.0</ele><time>2026-04-11T09:53:18.274Z</time></trkpt><trkpt lat="45.0357583" lon="8.1741283"><ele>179.0</ele><time>2026-04-11T09:53:19.274Z</time></trkpt><trkpt lat="45.035685" lon="8.1740017"><ele>179.0</ele><time>2026-04-11T09:53:20.274Z</time></trkpt><trkpt lat="45.0356117" lon="8.1738633"><ele>177.75</ele><time>2026-04-11T09:53:21.274Z</time></trkpt><trkpt lat="45.0355367" lon="8.1737367"><ele>176.5</ele><time>2026-04-11T09:53:22.274Z</time></trkpt><trkpt lat="45.03545" lon="8.1735983"><ele>175.25</ele><time>2026-04-11T09:53:23.274Z</time></trkpt><trkpt lat="45.0353633" lon="8.1734583"><ele>174.0</ele><time>2026-04-11T09:53:24.275Z</time></trkpt><trkpt lat="45.0352833" lon="8.173325"><ele>174.0</ele><time>2026-04-11T09:53:25.274Z</time></trkpt><trkpt lat="45.0352033" lon="8.173195"><ele>174.0</ele><time>2026-04-11T09:53:26.275Z</time></trkpt><trkpt lat="45.0351167" lon="8.1730933"><ele>174.0</ele><time>2026-04-11T09:53:27.274Z</time></trkpt><trkpt lat="45.035035" lon="8.17298"><ele>174.0</ele><time>2026-04-11T09:53:28.274Z</time></trkpt><trkpt lat="45.0349433" lon="8.1728733"><ele>173.5</ele><time>2026-04-11T09:53:29.275Z</time></trkpt><trkpt lat="45.0348483" lon="8.17277"><ele>173.0</ele><time>2026-04-11T09:53:30.275Z</time></trkpt><trkpt lat="45.034745" lon="8.1726667"><ele>172.5</ele><time>2026-04-11T09:53:31.275Z</time></trkpt><trkpt lat="45.0346383" lon="8.17256"><ele>172.0</ele><time>2026-04-11T09:53:32.274Z</time></trkpt><trkpt lat="45.0345183" lon="8.172455"><ele>172.0</ele><time>2026-04-11T09:53:33.275Z</time></trkpt><trkpt lat="45.0343967" lon="8.1723633"><ele>172.0</ele><time>2026-04-11T09:53:34.274Z</time></trkpt><trkpt lat="45.03429" lon="8.172265"><ele>172.0</ele><time>2026-04-11T09:53:35.275Z</time></trkpt><trkpt lat="45.034195" lon="8.172185"><ele>172.0</ele><time>2026-04-11T09:53:36.275Z</time></trkpt><trkpt lat="45.0341" lon="8.172095"><ele>172.75</ele><time>2026-04-11T09:53:37.274Z</time></trkpt><trkpt lat="45.034" lon="8.1720117"><ele>173.5</ele><time>2026-04-11T09:53:38.274Z</time></trkpt><trkpt lat="45.033895" lon="8.1719167"><ele>174.25</ele><time>2026-04-11T09:53:39.275Z</time></trkpt><trkpt lat="45.0337983" lon="8.1718167"><ele>175.0</ele><time>2026-04-11T09:53:40.274Z</time></trkpt><trkpt lat="45.033685" lon="8.1717217"><ele>175.0</ele><time>2026-04-11T09:53:41.274Z</time></trkpt><trkpt lat="45.033585" lon="8.1716383"><ele>175.0</ele><time>2026-04-11T09:53:42.274Z</time></trkpt><trkpt lat="45.03348" lon="8.1715483"><ele>175.0</ele><time>2026-04-11T09:53:43.274Z</time></trkpt><trkpt lat="45.03337" lon="8.1714717"><ele>175.0</ele><time>2026-04-11T09:53:44.275Z</time></trkpt><trkpt lat="45.0332567" lon="8.1713867"><ele>176.5</ele><time>2026-04-11T09:53:45.274Z</time></trkpt><trkpt lat="45.032915" lon="8.1711383"><ele>178.0</ele><time>2026-04-11T09:53:48.274Z</time></trkpt><trkpt lat="45.032805" lon="8.1710567"><ele>178.0</ele><time>2026-04-11T09:53:49.274Z</time></trkpt><trkpt lat="45.03271" lon="8.1709867"><ele>178.0</ele><time>2026-04-11T09:53:50.274Z</time></trkpt><trkpt lat="45.0326083" lon="8.1709033"><ele>178.0</ele><time>2026-04-11T09:53:51.275Z</time></trkpt><trkpt lat="45.0325067" lon="8.1708167"><ele>178.0</ele><time>2026-04-11T09:53:52.275Z</time></trkpt><trkpt lat="45.0324017" lon="8.170725"><ele>176.2</ele><time>2026-04-11T09:53:53.274Z</time></trkpt><trkpt lat="45.032315" lon="8.1706267"><ele>174.4</ele><time>2026-04-11T09:53:54.274Z</time></trkpt><trkpt lat="45.0322317" lon="8.1705317"><ele>172.6</ele><time>2026-04-11T09:53:55.274Z</time></trkpt><trkpt lat="45.032145" lon="8.1704517"><ele>170.79999999999998</ele><time>2026-04-11T09:53:56.274Z</time></trkpt><trkpt lat="45.032065" lon="8.1703817"><ele>169.0</ele><time>2026-04-11T09:53:57.275Z</time></trkpt><trkpt lat="45.0319867" lon="8.1703133"><ele>169.0</ele><time>2026-04-11T09:53:58.274Z</time></trkpt><trkpt lat="45.03192" lon="8.170245"><ele>169.0</ele><time>2026-04-11T09:53:59.274Z</time></trkpt><trkpt lat="45.0318617" lon="8.1701667"><ele>169.0</ele><time>2026-04-11T09:54:00.275Z</time></trkpt><trkpt lat="45.031835" lon="8.1700767"><ele>169.0</ele><time>2026-04-11T09:54:01.274Z</time></trkpt><trkpt lat="45.0318567" lon="8.1699683"><ele>169.0</ele><time>2026-04-11T09:54:02.274Z</time></trkpt><trkpt lat="45.031895" lon="8.1698633"><ele>169.0</ele><time>2026-04-11T09:54:03.274Z</time></trkpt><trkpt lat="45.0319433" lon="8.1697467"><ele>169.5</ele><time>2026-04-11T09:54:04.274Z</time></trkpt><trkpt lat="45.0319883" lon="8.16961"><ele>170.0</ele><time>2026-04-11T09:54:05.275Z</time></trkpt><trkpt lat="45.0320317" lon="8.16946"><ele>170.5</ele><time>2026-04-11T09:54:06.274Z</time></trkpt><trkpt lat="45.032065" lon="8.1693083"><ele>171.0</ele><time>2026-04-11T09:54:07.274Z</time></trkpt><trkpt lat="45.032085" lon="8.1691433"><ele>170.4</ele><time>2026-04-11T09:54:08.274Z</time></trkpt><trkpt lat="45.0321" lon="8.1689933"><ele>169.8</ele><time>2026-04-11T09:54:09.275Z</time></trkpt><trkpt lat="45.0321233" lon="8.1688333"><ele>169.20000000000002</ele><time>2026-04-11T09:54:10.274Z</time></trkpt><trkpt lat="45.0321533" lon="8.1686717"><ele>168.60000000000002</ele><time>2026-04-11T09:54:11.274Z</time></trkpt><trkpt lat="45.0321667" lon="8.1685217"><ele>168.0</ele><time>2026-04-11T09:54:12.274Z</time></trkpt><trkpt lat="45.032175" lon="8.168365"><ele>168.0</ele><time>2026-04-11T09:54:13.274Z</time></trkpt><trkpt lat="45.0321667" lon="8.1682067"><ele>168.0</ele><time>2026-04-11T09:54:14.274Z</time></trkpt><trkpt lat="45.0321417" lon="8.1680467"><ele>168.0</ele><time>2026-04-11T09:54:15.274Z</time></trkpt><trkpt lat="45.0321183" lon="8.1679033"><ele>168.0</ele><time>2026-04-11T09:54:16.275Z</time></trkpt><trkpt lat="45.0320817" lon="8.1677767"><ele>168.0</ele><time>2026-04-11T09:54:17.274Z</time></trkpt><trkpt lat="45.032035" lon="8.1676667"><ele>168.4</ele><time>2026-04-11T09:54:18.274Z</time></trkpt><trkpt lat="45.0319667" lon="8.16758"><ele>168.8</ele><time>2026-04-11T09:54:19.274Z</time></trkpt><trkpt lat="45.0318933" lon="8.1675"><ele>169.2</ele><time>2026-04-11T09:54:20.274Z</time></trkpt><trkpt lat="45.0318167" lon="8.16741"><ele>169.6</ele><time>2026-04-11T09:54:21.274Z</time></trkpt><trkpt lat="45.0317317" lon="8.167325"><ele>170.0</ele><time>2026-04-11T09:54:22.274Z</time></trkpt><trkpt lat="45.031635" lon="8.1672283"><ele>169.0</ele><time>2026-04-11T09:54:23.275Z</time></trkpt><trkpt lat="45.0315483" lon="8.1671267"><ele>168.0</ele><time>2026-04-11T09:54:24.274Z</time></trkpt><trkpt lat="45.0314533" lon="8.1670133"><ele>167.0</ele><time>2026-04-11T09:54:25.274Z</time></trkpt><trkpt lat="45.0313667" lon="8.1669117"><ele>166.0</ele><time>2026-04-11T09:54:26.274Z</time></trkpt><trkpt lat="45.031305" lon="8.1667883"><ele>166.0</ele><time>2026-04-11T09:54:27.274Z</time></trkpt><trkpt lat="45.0312583" lon="8.1666683"><ele>166.0</ele><time>2026-04-11T09:54:28.275Z</time></trkpt><trkpt lat="45.03118" lon="8.166375"><ele>166.0</ele><time>2026-04-11T09:54:30.274Z</time></trkpt><trkpt lat="45.0311317" lon="8.1662133"><ele>166.0</ele><time>2026-04-11T09:54:31.274Z</time></trkpt><trkpt lat="45.0310733" lon="8.1660683"><ele>166.4</ele><time>2026-04-11T09:54:32.274Z</time></trkpt><trkpt lat="45.03101" lon="8.1659333"><ele>166.8</ele><time>2026-04-11T09:54:33.274Z</time></trkpt><trkpt lat="45.0309433" lon="8.1657933"><ele>167.20000000000002</ele><time>2026-04-11T09:54:34.274Z</time></trkpt><trkpt lat="45.0308817" lon="8.1656733"><ele>167.60000000000002</ele><time>2026-04-11T09:54:35.275Z</time></trkpt><trkpt lat="45.0308167" lon="8.1655617"><ele>168.0</ele><time>2026-04-11T09:54:36.274Z</time></trkpt><trkpt lat="45.0307567" lon="8.1654533"><ele>167.2</ele><time>2026-04-11T09:54:37.274Z</time></trkpt><trkpt lat="45.0306967" lon="8.1653433"><ele>166.4</ele><time>2026-04-11T09:54:38.275Z</time></trkpt><trkpt lat="45.03064" lon="8.16523"><ele>165.6</ele><time>2026-04-11T09:54:39.274Z</time></trkpt><trkpt lat="45.0305733" lon="8.1651233"><ele>164.79999999999998</ele><time>2026-04-11T09:54:40.274Z</time></trkpt><trkpt lat="45.030515" lon="8.1650267"><ele>164.0</ele><time>2026-04-11T09:54:41.274Z</time></trkpt><trkpt lat="45.030465" lon="8.1649483"><ele>164.0</ele><time>2026-04-11T09:54:42.274Z</time></trkpt><trkpt lat="45.0304233" lon="8.1648783"><ele>164.0</ele><time>2026-04-11T09:54:43.274Z</time></trkpt><trkpt lat="45.0303783" lon="8.1647667"><ele>164.0</ele><time>2026-04-11T09:54:45.274Z</time></trkpt><trkpt lat="45.03037" lon="8.1646167"><ele>164.0</ele><time>2026-04-11T09:54:47.274Z</time></trkpt><trkpt lat="45.0303667" lon="8.1645083"><ele>164.0</ele><time>2026-04-11T09:54:48.274Z</time></trkpt><trkpt lat="45.03037" lon="8.1644"><ele>164.0</ele><time>2026-04-11T09:54:49.274Z</time></trkpt><trkpt lat="45.0303717" lon="8.1642767"><ele>163.79999999999998</ele><time>2026-04-11T09:54:50.274Z</time></trkpt><trkpt lat="45.0303817" lon="8.16415"><ele>163.6</ele><time>2026-04-11T09:54:51.275Z</time></trkpt><trkpt lat="45.03039" lon="8.164025"><ele>163.4</ele><time>2026-04-11T09:54:52.274Z</time></trkpt><trkpt lat="45.0303967" lon="8.1638883"><ele>163.2</ele><time>2026-04-11T09:54:53.274Z</time></trkpt><trkpt lat="45.0304017" lon="8.16375"><ele>163.0</ele><time>2026-04-11T09:54:54.275Z</time></trkpt><trkpt lat="45.0304083" lon="8.1636233"><ele>163.0</ele><time>2026-04-11T09:54:55.275Z</time></trkpt><trkpt lat="45.03043" lon="8.1634967"><ele>163.0</ele><time>2026-04-11T09:54:56.274Z</time></trkpt><trkpt lat="45.0304717" lon="8.1633717"><ele>163.0</ele><time>2026-04-11T09:54:57.274Z</time></trkpt><trkpt lat="45.0305267" lon="8.1632517"><ele>163.0</ele><time>2026-04-11T09:54:58.274Z</time></trkpt><trkpt lat="45.0305833" lon="8.1631367"><ele>163.0</ele><time>2026-04-11T09:54:59.274Z</time></trkpt><trkpt lat="45.0306417" lon="8.1630233"><ele>163.2</ele><time>2026-04-11T09:55:00.275Z</time></trkpt><trkpt lat="45.0307067" lon="8.1629067"><ele>163.4</ele><time>2026-04-11T09:55:01.275Z</time></trkpt><trkpt lat="45.0307767" lon="8.1627933"><ele>163.6</ele><time>2026-04-11T09:55:02.274Z</time></trkpt><trkpt lat="45.0308483" lon="8.16269"><ele>163.79999999999998</ele><time>2026-04-11T09:55:03.274Z</time></trkpt><trkpt lat="45.03093" lon="8.1625983"><ele>164.0</ele><time>2026-04-11T09:55:04.274Z</time></trkpt><trkpt lat="45.0310167" lon="8.1625217"><ele>164.0</ele><time>2026-04-11T09:55:05.274Z</time></trkpt><trkpt lat="45.03112" lon="8.162465"><ele>164.0</ele><time>2026-04-11T09:55:06.275Z</time></trkpt><trkpt lat="45.0312217" lon="8.1624067"><ele>164.0</ele><time>2026-04-11T09:55:07.274Z</time></trkpt><trkpt lat="45.031325" lon="8.1623383"><ele>164.0</ele><time>2026-04-11T09:55:08.274Z</time></trkpt><trkpt lat="45.0314283" lon="8.1622817"><ele>164.0</ele><time>2026-04-11T09:55:09.274Z</time></trkpt><trkpt lat="45.03154" lon="8.1622267"><ele>163.79999999999998</ele><time>2026-04-11T09:55:10.275Z</time></trkpt><trkpt lat="45.0316467" lon="8.1621767"><ele>163.6</ele><time>2026-04-11T09:55:11.274Z</time></trkpt><trkpt lat="45.0317483" lon="8.162125"><ele>163.4</ele><time>2026-04-11T09:55:12.274Z</time></trkpt><trkpt lat="45.0318583" lon="8.16208"><ele>163.2</ele><time>2026-04-11T09:55:13.274Z</time></trkpt><trkpt lat="45.031965" lon="8.16203"><ele>163.0</ele><time>2026-04-11T09:55:14.275Z</time></trkpt><trkpt lat="45.0320617" lon="8.1619833"><ele>163.0</ele><time>2026-04-11T09:55:15.275Z</time></trkpt><trkpt lat="45.0321533" lon="8.1619583"><ele>163.0</ele><time>2026-04-11T09:55:16.274Z</time></trkpt><trkpt lat="45.032245" lon="8.1619283"><ele>163.0</ele><time>2026-04-11T09:55:17.275Z</time></trkpt><trkpt lat="45.0323417" lon="8.1619"><ele>163.0</ele><time>2026-04-11T09:55:18.275Z</time></trkpt><trkpt lat="45.032445" lon="8.1618717"><ele>163.0</ele><time>2026-04-11T09:55:19.275Z</time></trkpt><trkpt lat="45.0325467" lon="8.1618433"><ele>163.25</ele><time>2026-04-11T09:55:20.274Z</time></trkpt><trkpt lat="45.0326617" lon="8.1618017"><ele>163.5</ele><time>2026-04-11T09:55:21.274Z</time></trkpt><trkpt lat="45.0327733" lon="8.16176"><ele>163.75</ele><time>2026-04-11T09:55:22.274Z</time></trkpt><trkpt lat="45.0328817" lon="8.1617117"><ele>164.0</ele><time>2026-04-11T09:55:23.275Z</time></trkpt><trkpt lat="45.0329917" lon="8.16167"><ele>164.0</ele><time>2026-04-11T09:55:24.274Z</time></trkpt><trkpt lat="45.0331067" lon="8.1616317"><ele>164.0</ele><time>2026-04-11T09:55:25.275Z</time></trkpt><trkpt lat="45.033225" lon="8.1615933"><ele>164.0</ele><time>2026-04-11T09:55:26.274Z</time></trkpt><trkpt lat="45.0333417" lon="8.1615567"><ele>164.0</ele><time>2026-04-11T09:55:27.274Z</time></trkpt><trkpt lat="45.03346" lon="8.16152"><ele>163.79999999999998</ele><time>2026-04-11T09:55:28.274Z</time></trkpt><trkpt lat="45.0335717" lon="8.1614783"><ele>163.6</ele><time>2026-04-11T09:55:29.275Z</time></trkpt><trkpt lat="45.0336833" lon="8.161435"><ele>163.4</ele><time>2026-04-11T09:55:30.274Z</time></trkpt><trkpt lat="45.03379" lon="8.1614033"><ele>163.2</ele><time>2026-04-11T09:55:31.274Z</time></trkpt><trkpt lat="45.0338967" lon="8.1613717"><ele>163.0</ele><time>2026-04-11T09:55:32.274Z</time></trkpt><trkpt lat="45.0340133" lon="8.1613567"><ele>163.0</ele><time>2026-04-11T09:55:33.274Z</time></trkpt><trkpt lat="45.0341217" lon="8.16134"><ele>163.0</ele><time>2026-04-11T09:55:34.274Z</time></trkpt><trkpt lat="45.034225" lon="8.1613067"><ele>163.0</ele><time>2026-04-11T09:55:35.274Z</time></trkpt><trkpt lat="45.03433" lon="8.161285"><ele>163.0</ele><time>2026-04-11T09:55:36.274Z</time></trkpt><trkpt lat="45.0344317" lon="8.1612633"><ele>163.0</ele><time>2026-04-11T09:55:37.275Z</time></trkpt><trkpt lat="45.0345467" lon="8.1612533"><ele>163.60000000000002</ele><time>2026-04-11T09:55:38.274Z</time></trkpt><trkpt lat="45.0346567" lon="8.1612483"><ele>164.20000000000002</ele><time>2026-04-11T09:55:39.275Z</time></trkpt><trkpt lat="45.0347683" lon="8.1612333"><ele>164.8</ele><time>2026-04-11T09:55:40.274Z</time></trkpt><trkpt lat="45.0348717" lon="8.1612283"><ele>165.4</ele><time>2026-04-11T09:55:41.274Z</time></trkpt><trkpt lat="45.0349617" lon="8.16122"><ele>166.0</ele><time>2026-04-11T09:55:42.274Z</time></trkpt><trkpt lat="45.0350417" lon="8.1612183"><ele>166.5</ele><time>2026-04-11T09:55:43.275Z</time></trkpt><trkpt lat="45.03512" lon="8.1612267"><ele>167.0</ele><time>2026-04-11T09:55:44.274Z</time></trkpt><trkpt lat="45.0351917" lon="8.1612317"><ele>167.5</ele><time>2026-04-11T09:55:45.275Z</time></trkpt><trkpt lat="45.0352933" lon="8.16125"><ele>168.0</ele><time>2026-04-11T09:55:47.274Z</time></trkpt><trkpt lat="45.0353767" lon="8.16123"><ele>168.5</ele><time>2026-04-11T09:55:50.274Z</time></trkpt><trkpt lat="45.0354033" lon="8.1610833"><ele>169.0</ele><time>2026-04-11T09:55:52.274Z</time></trkpt><trkpt lat="45.0354133" lon="8.160975"><ele>169.0</ele><time>2026-04-11T09:55:53.274Z</time></trkpt><trkpt lat="45.0354333" lon="8.1608583"><ele>169.0</ele><time>2026-04-11T09:55:54.274Z</time></trkpt><trkpt lat="45.0354467" lon="8.1607483"><ele>169.0</ele><time>2026-04-11T09:55:55.274Z</time></trkpt><trkpt lat="45.0354667" lon="8.16063"><ele>169.0</ele><time>2026-04-11T09:55:56.274Z</time></trkpt><trkpt lat="45.0354833" lon="8.1605133"><ele>169.0</ele><time>2026-04-11T09:55:57.274Z</time></trkpt><trkpt lat="45.0355" lon="8.160415"><ele>169.0</ele><time>2026-04-11T09:55:58.273Z</time></trkpt><trkpt lat="45.03552" lon="8.16031"><ele>168.33333333333334</ele><time>2026-04-11T09:55:59.273Z</time></trkpt><trkpt lat="45.03554" lon="8.1602233"><ele>167.66666666666669</ele><time>2026-04-11T09:56:00.273Z</time></trkpt><trkpt lat="45.0355583" lon="8.16013"><ele>167.0</ele><time>2026-04-11T09:56:01.274Z</time></trkpt><trkpt lat="45.03558" lon="8.1599817"><ele>166.33333333333334</ele><time>2026-04-11T09:56:03.273Z</time></trkpt><trkpt lat="45.035595" lon="8.1598683"><ele>165.66666666666666</ele><time>2026-04-11T09:56:05.274Z</time></trkpt><trkpt lat="45.0356167" lon="8.1597567"><ele>165.0</ele><time>2026-04-11T09:56:07.274Z</time></trkpt><trkpt lat="45.0356417" lon="8.15964"><ele>164.83333333333334</ele><time>2026-04-11T09:56:09.273Z</time></trkpt><trkpt lat="45.0356533" lon="8.15949"><ele>164.66666666666666</ele><time>2026-04-11T09:56:11.273Z</time></trkpt><trkpt lat="45.0356483" lon="8.15939"><ele>164.5</ele><time>2026-04-11T09:56:12.273Z</time></trkpt><trkpt lat="45.0356317" lon="8.1592833"><ele>164.33333333333331</ele><time>2026-04-11T09:56:13.273Z</time></trkpt><trkpt lat="45.0356017" lon="8.1591767"><ele>164.16666666666666</ele><time>2026-04-11T09:56:14.273Z</time></trkpt><trkpt lat="45.035565" lon="8.1590717"><ele>164.0</ele><time>2026-04-11T09:56:15.273Z</time></trkpt><trkpt lat="45.0355383" lon="8.1589583"><ele>163.99999999999997</ele><time>2026-04-11T09:56:16.273Z</time></trkpt><trkpt lat="45.0355117" lon="8.158855"><ele>164.0</ele><time>2026-04-11T09:56:17.273Z</time></trkpt><trkpt lat="45.0354967" lon="8.1587567"><ele>164.0</ele><time>2026-04-11T09:56:18.274Z</time></trkpt><trkpt lat="45.03549" lon="8.1586583"><ele>164.0</ele><time>2026-04-11T09:56:19.273Z</time></trkpt><trkpt lat="45.0355" lon="8.158555"><ele>164.0</ele><time>2026-04-11T09:56:20.274Z</time></trkpt><trkpt lat="45.0355217" lon="8.1584533"><ele>163.99999999999997</ele><time>2026-04-11T09:56:21.274Z</time></trkpt><trkpt lat="45.0355417" lon="8.1583683"><ele>164.0</ele><time>2026-04-11T09:56:22.273Z</time></trkpt><trkpt lat="45.0355767" lon="8.1582083"><ele>164.33333333333331</ele><time>2026-04-11T09:56:24.273Z</time></trkpt><trkpt lat="45.0356183" lon="8.1580267"><ele>164.66666666666666</ele><time>2026-04-11T09:56:26.273Z</time></trkpt><trkpt lat="45.0356433" lon="8.157925"><ele>165.0</ele><time>2026-04-11T09:56:27.274Z</time></trkpt><trkpt lat="45.0356717" lon="8.15782"><ele>165.33333333333334</ele><time>2026-04-11T09:56:28.273Z</time></trkpt><trkpt lat="45.0356983" lon="8.1577167"><ele>165.66666666666669</ele><time>2026-04-11T09:56:29.273Z</time></trkpt><trkpt lat="45.0357233" lon="8.1576217"><ele>166.0</ele><time>2026-04-11T09:56:30.273Z</time></trkpt><trkpt lat="45.035755" lon="8.15751"><ele>166.0</ele><time>2026-04-11T09:56:31.273Z</time></trkpt><trkpt lat="45.0357883" lon="8.1573783"><ele>166.0</ele><time>2026-04-11T09:56:32.273Z</time></trkpt><trkpt lat="45.0358217" lon="8.1572483"><ele>166.0</ele><time>2026-04-11T09:56:33.273Z</time></trkpt><trkpt lat="45.03586" lon="8.1571283"><ele>166.0</ele><time>2026-04-11T09:56:34.273Z</time></trkpt><trkpt lat="45.0359" lon="8.1570067"><ele>166.0</ele><time>2026-04-11T09:56:35.273Z</time></trkpt><trkpt lat="45.0359383" lon="8.1568883"><ele>166.0</ele><time>2026-04-11T09:56:36.273Z</time></trkpt><trkpt lat="45.035985" lon="8.1567867"><ele>166.0</ele><time>2026-04-11T09:56:37.273Z</time></trkpt><trkpt lat="45.03603" lon="8.1566867"><ele>166.0</ele><time>2026-04-11T09:56:38.273Z</time></trkpt><trkpt lat="45.0360767" lon="8.1566017"><ele>166.0</ele><time>2026-04-11T09:56:39.274Z</time></trkpt><trkpt lat="45.0361367" lon="8.1565167"><ele>166.0</ele><time>2026-04-11T09:56:40.274Z</time></trkpt><trkpt lat="45.0361967" lon="8.1564233"><ele>166.0</ele><time>2026-04-11T09:56:41.274Z</time></trkpt><trkpt lat="45.0362567" lon="8.156335"><ele>166.0</ele><time>2026-04-11T09:56:42.273Z</time></trkpt><trkpt lat="45.0363167" lon="8.1562583"><ele>166.0</ele><time>2026-04-11T09:56:43.273Z</time></trkpt><trkpt lat="45.03637" lon="8.1561967"><ele>166.0</ele><time>2026-04-11T09:56:44.274Z</time></trkpt><trkpt lat="45.0364383" lon="8.1561467"><ele>166.0</ele><time>2026-04-11T09:56:45.273Z</time></trkpt><trkpt lat="45.0365133" lon="8.15612"><ele>166.0</ele><time>2026-04-11T09:56:46.273Z</time></trkpt><trkpt lat="45.0365933" lon="8.1561033"><ele>166.0</ele><time>2026-04-11T09:56:47.273Z</time></trkpt><trkpt lat="45.0366817" lon="8.1560717"><ele>166.0</ele><time>2026-04-11T09:56:48.274Z</time></trkpt><trkpt lat="45.0367667" lon="8.15603"><ele>166.0</ele><time>2026-04-11T09:56:49.274Z</time></trkpt><trkpt lat="45.0368567" lon="8.1559717"><ele>166.0</ele><time>2026-04-11T09:56:50.273Z</time></trkpt><trkpt lat="45.0369317" lon="8.155895"><ele>166.0</ele><time>2026-04-11T09:56:51.273Z</time></trkpt><trkpt lat="45.0369983" lon="8.1558217"><ele>166.0</ele><time>2026-04-11T09:56:52.274Z</time></trkpt><trkpt lat="45.0370633" lon="8.1557317"><ele>166.0</ele><time>2026-04-11T09:56:53.273Z</time></trkpt><trkpt lat="45.037135" lon="8.1556483"><ele>166.0</ele><time>2026-04-11T09:56:54.273Z</time></trkpt><trkpt lat="45.0372067" lon="8.1555783"><ele>166.0</ele><time>2026-04-11T09:56:55.274Z</time></trkpt><trkpt lat="45.0372683" lon="8.1555117"><ele>166.0</ele><time>2026-04-11T09:56:56.273Z</time></trkpt><trkpt lat="45.037335" lon="8.1554383"><ele>166.0</ele><time>2026-04-11T09:56:57.273Z</time></trkpt><trkpt lat="45.0374067" lon="8.1553633"><ele>166.0</ele><time>2026-04-11T09:56:58.273Z</time></trkpt><trkpt lat="45.037475" lon="8.1552883"><ele>165.83333333333334</ele><time>2026-04-11T09:56:59.273Z</time></trkpt><trkpt lat="45.037545" lon="8.1552117"><ele>165.66666666666669</ele><time>2026-04-11T09:57:00.274Z</time></trkpt><trkpt lat="45.0376133" lon="8.1551417"><ele>165.5</ele><time>2026-04-11T09:57:01.273Z</time></trkpt><trkpt lat="45.0376817" lon="8.155085"><ele>165.33333333333334</ele><time>2026-04-11T09:57:02.273Z</time></trkpt><trkpt lat="45.037745" lon="8.1550233"><ele>165.16666666666666</ele><time>2026-04-11T09:57:03.274Z</time></trkpt><trkpt lat="45.0378067" lon="8.154945"><ele>165.0</ele><time>2026-04-11T09:57:04.274Z</time></trkpt><trkpt lat="45.037865" lon="8.1548617"><ele>165.0</ele><time>2026-04-11T09:57:05.274Z</time></trkpt><trkpt lat="45.037915" lon="8.1547833"><ele>165.0</ele><time>2026-04-11T09:57:06.273Z</time></trkpt><trkpt lat="45.0379683" lon="8.1547083"><ele>165.0</ele><time>2026-04-11T09:57:07.274Z</time></trkpt><trkpt lat="45.038075" lon="8.1545717"><ele>165.0</ele><time>2026-04-11T09:57:09.273Z</time></trkpt><trkpt lat="45.038135" lon="8.1545117"><ele>165.0</ele><time>2026-04-11T09:57:10.273Z</time></trkpt><trkpt lat="45.0381983" lon="8.1544667"><ele>165.0</ele><time>2026-04-11T09:57:11.274Z</time></trkpt><trkpt lat="45.0382983" lon="8.1543617"><ele>165.0</ele><time>2026-04-11T09:57:13.273Z</time></trkpt><trkpt lat="45.03835" lon="8.15429"><ele>165.0</ele><time>2026-04-11T09:57:14.274Z</time></trkpt><trkpt lat="45.0384017" lon="8.1542217"><ele>165.0</ele><time>2026-04-11T09:57:15.274Z</time></trkpt><trkpt lat="45.0384833" lon="8.1541283"><ele>165.0</ele><time>2026-04-11T09:57:17.273Z</time></trkpt><trkpt lat="45.0385883" lon="8.1540367"><ele>165.0</ele><time>2026-04-11T09:57:19.273Z</time></trkpt><trkpt lat="45.0386433" lon="8.15398"><ele>165.0</ele><time>2026-04-11T09:57:20.273Z</time></trkpt><trkpt lat="45.038695" lon="8.1539"><ele>165.0</ele><time>2026-04-11T09:57:21.273Z</time></trkpt><trkpt lat="45.0387667" lon="8.15383"><ele>165.0</ele><time>2026-04-11T09:57:22.273Z</time></trkpt><trkpt lat="45.0388333" lon="8.1537717"><ele>165.0</ele><time>2026-04-11T09:57:23.274Z</time></trkpt><trkpt lat="45.0388983" lon="8.1537183"><ele>165.0</ele><time>2026-04-11T09:57:24.273Z</time></trkpt><trkpt lat="45.038965" lon="8.1536517"><ele>165.0</ele><time>2026-04-11T09:57:25.274Z</time></trkpt><trkpt lat="45.039025" lon="8.1535767"><ele>165.0</ele><time>2026-04-11T09:57:26.273Z</time></trkpt><trkpt lat="45.039075" lon="8.1534983"><ele>165.0</ele><time>2026-04-11T09:57:27.273Z</time></trkpt><trkpt lat="45.0391317" lon="8.1534233"><ele>165.0</ele><time>2026-04-11T09:57:28.273Z</time></trkpt><trkpt lat="45.039185" lon="8.1533433"><ele>165.0</ele><time>2026-04-11T09:57:29.273Z</time></trkpt><trkpt lat="45.0392433" lon="8.1532433"><ele>165.0</ele><time>2026-04-11T09:57:30.273Z</time></trkpt><trkpt lat="45.0393" lon="8.153145"><ele>165.0</ele><time>2026-04-11T09:57:31.273Z</time></trkpt><trkpt lat="45.0393517" lon="8.1530483"><ele>165.0</ele><time>2026-04-11T09:57:32.273Z</time></trkpt><trkpt lat="45.039395" lon="8.1529633"><ele>165.16666666666666</ele><time>2026-04-11T09:57:33.274Z</time></trkpt><trkpt lat="45.03944" lon="8.1528817"><ele>165.33333333333334</ele><time>2026-04-11T09:57:34.273Z</time></trkpt><trkpt lat="45.0394817" lon="8.15279"><ele>165.5</ele><time>2026-04-11T09:57:35.273Z</time></trkpt><trkpt lat="45.0395167" lon="8.15271"><ele>165.66666666666669</ele><time>2026-04-11T09:57:36.274Z</time></trkpt><trkpt lat="45.0395533" lon="8.152605"><ele>165.83333333333334</ele><time>2026-04-11T09:57:37.274Z</time></trkpt><trkpt lat="45.0395817" lon="8.1524983"><ele>166.0</ele><time>2026-04-11T09:57:38.273Z</time></trkpt><trkpt lat="45.03962" lon="8.1523767"><ele>166.20000000000002</ele><time>2026-04-11T09:57:39.273Z</time></trkpt><trkpt lat="45.0396583" lon="8.1522533"><ele>166.4</ele><time>2026-04-11T09:57:40.274Z</time></trkpt><trkpt lat="45.0396983" lon="8.1521333"><ele>166.6</ele><time>2026-04-11T09:57:41.273Z</time></trkpt><trkpt lat="45.0397517" lon="8.15202"><ele>166.8</ele><time>2026-04-11T09:57:42.273Z</time></trkpt><trkpt lat="45.039805" lon="8.1519117"><ele>167.0</ele><time>2026-04-11T09:57:43.273Z</time></trkpt><trkpt lat="45.0398617" lon="8.1517983"><ele>167.0</ele><time>2026-04-11T09:57:44.273Z</time></trkpt><trkpt lat="45.0399233" lon="8.15169"><ele>167.0</ele><time>2026-04-11T09:57:45.273Z</time></trkpt><trkpt lat="45.0399867" lon="8.151585"><ele>167.0</ele><time>2026-04-11T09:57:46.273Z</time></trkpt><trkpt lat="45.04005" lon="8.1514767"><ele>167.0</ele><time>2026-04-11T09:57:47.273Z</time></trkpt><trkpt lat="45.0401167" lon="8.1513717"><ele>167.0</ele><time>2026-04-11T09:57:48.273Z</time></trkpt><trkpt lat="45.0401867" lon="8.1512683"><ele>167.2</ele><time>2026-04-11T09:57:49.273Z</time></trkpt><trkpt lat="45.04026" lon="8.1511667"><ele>167.39999999999998</ele><time>2026-04-11T09:57:50.274Z</time></trkpt><trkpt lat="45.040335" lon="8.1510733"><ele>167.60000000000002</ele><time>2026-04-11T09:57:51.273Z</time></trkpt><trkpt lat="45.040425" lon="8.1510017"><ele>167.8</ele><time>2026-04-11T09:57:52.273Z</time></trkpt><trkpt lat="45.0405117" lon="8.150925"><ele>168.0</ele><time>2026-04-11T09:57:53.273Z</time></trkpt><trkpt lat="45.0406" lon="8.1508533"><ele>168.0</ele><time>2026-04-11T09:57:54.274Z</time></trkpt><trkpt lat="45.0406883" lon="8.15078"><ele>168.0</ele><time>2026-04-11T09:57:55.273Z</time></trkpt><trkpt lat="45.0407717" lon="8.1507183"><ele>168.0</ele><time>2026-04-11T09:57:56.273Z</time></trkpt><trkpt lat="45.040855" lon="8.1506617"><ele>168.0</ele><time>2026-04-11T09:57:57.273Z</time></trkpt><trkpt lat="45.0409383" lon="8.1506033"><ele>168.0</ele><time>2026-04-11T09:57:58.272Z</time></trkpt><trkpt lat="45.0410367" lon="8.15054"><ele>168.75</ele><time>2026-04-11T09:57:59.274Z</time></trkpt><trkpt lat="45.0411333" lon="8.1504583"><ele>169.5</ele><time>2026-04-11T09:58:00.273Z</time></trkpt><trkpt lat="45.0412383" lon="8.150365"><ele>170.25</ele><time>2026-04-11T09:58:01.274Z</time></trkpt><trkpt lat="45.04134" lon="8.150285"><ele>171.0</ele><time>2026-04-11T09:58:02.273Z</time></trkpt><trkpt lat="45.0414417" lon="8.1502033"><ele>171.0</ele><time>2026-04-11T09:58:03.273Z</time></trkpt><trkpt lat="45.0415433" lon="8.1501267"><ele>171.0</ele><time>2026-04-11T09:58:04.273Z</time></trkpt><trkpt lat="45.0416417" lon="8.1500417"><ele>171.0</ele><time>2026-04-11T09:58:05.273Z</time></trkpt><trkpt lat="45.0417467" lon="8.1499483"><ele>171.0</ele><time>2026-04-11T09:58:06.273Z</time></trkpt><trkpt lat="45.04185" lon="8.1498517"><ele>170.5</ele><time>2026-04-11T09:58:07.273Z</time></trkpt><trkpt lat="45.0419667" lon="8.1497483"><ele>170.0</ele><time>2026-04-11T09:58:08.274Z</time></trkpt><trkpt lat="45.042085" lon="8.14965"><ele>169.5</ele><time>2026-04-11T09:58:09.273Z</time></trkpt><trkpt lat="45.042215" lon="8.149555"><ele>169.0</ele><time>2026-04-11T09:58:10.274Z</time></trkpt><trkpt lat="45.04234" lon="8.1494583"><ele>169.0</ele><time>2026-04-11T09:58:11.273Z</time></trkpt><trkpt lat="45.0424567" lon="8.1493733"><ele>169.0</ele><time>2026-04-11T09:58:12.273Z</time></trkpt><trkpt lat="45.04256" lon="8.1492933"><ele>169.0</ele><time>2026-04-11T09:58:13.273Z</time></trkpt><trkpt lat="45.04266" lon="8.1492383"><ele>169.0</ele><time>2026-04-11T09:58:14.273Z</time></trkpt><trkpt lat="45.0427617" lon="8.149185"><ele>169.83333333333334</ele><time>2026-04-11T09:58:15.273Z</time></trkpt><trkpt lat="45.04285" lon="8.14917"><ele>170.66666666666669</ele><time>2026-04-11T09:58:16.273Z</time></trkpt><trkpt lat="45.04294" lon="8.1491633"><ele>171.5</ele><time>2026-04-11T09:58:17.273Z</time></trkpt><trkpt lat="45.04302" lon="8.149185"><ele>172.33333333333334</ele><time>2026-04-11T09:58:18.274Z</time></trkpt><trkpt lat="45.043095" lon="8.1492117"><ele>173.16666666666666</ele><time>2026-04-11T09:58:19.274Z</time></trkpt><trkpt lat="45.043155" lon="8.1492517"><ele>174.0</ele><time>2026-04-11T09:58:20.274Z</time></trkpt><trkpt lat="45.0432267" lon="8.1493317"><ele>174.0</ele><time>2026-04-11T09:58:22.273Z</time></trkpt><trkpt lat="45.0432817" lon="8.1493917"><ele>174.0</ele><time>2026-04-11T09:58:24.273Z</time></trkpt><trkpt lat="45.04336" lon="8.14943"><ele>174.0</ele><time>2026-04-11T09:58:36.273Z</time></trkpt><trkpt lat="45.0434433" lon="8.149405"><ele>174.0</ele><time>2026-04-11T09:58:38.273Z</time></trkpt><trkpt lat="45.0435267" lon="8.1493617"><ele>174.0</ele><time>2026-04-11T09:58:40.274Z</time></trkpt><trkpt lat="45.0435967" lon="8.1493117"><ele>174.0</ele><time>2026-04-11T09:58:42.273Z</time></trkpt><trkpt lat="45.04369" lon="8.1492517"><ele>174.0</ele><time>2026-04-11T09:58:44.274Z</time></trkpt><trkpt lat="45.0437483" lon="8.14921"><ele>174.0</ele><time>2026-04-11T09:58:45.274Z</time></trkpt><trkpt lat="45.04381" lon="8.1491617"><ele>174.0</ele><time>2026-04-11T09:58:46.273Z</time></trkpt><trkpt lat="45.0438867" lon="8.1491067"><ele>174.0</ele><time>2026-04-11T09:58:47.273Z</time></trkpt><trkpt lat="45.0439633" lon="8.1490617"><ele>174.0</ele><time>2026-04-11T09:58:48.274Z</time></trkpt><trkpt lat="45.0440417" lon="8.1490033"><ele>174.0</ele><time>2026-04-11T09:58:49.274Z</time></trkpt><trkpt lat="45.044135" lon="8.1489317"><ele>174.0</ele><time>2026-04-11T09:58:50.273Z</time></trkpt><trkpt lat="45.04423" lon="8.1488633"><ele>174.0</ele><time>2026-04-11T09:58:51.273Z</time></trkpt><trkpt lat="45.04432" lon="8.1488017"><ele>174.0</ele><time>2026-04-11T09:58:52.273Z</time></trkpt><trkpt lat="45.04441" lon="8.14876"><ele>174.0</ele><time>2026-04-11T09:58:53.273Z</time></trkpt><trkpt lat="45.0445083" lon="8.1487417"><ele>174.0</ele><time>2026-04-11T09:58:54.273Z</time></trkpt><trkpt lat="45.044595" lon="8.1487333"><ele>174.0</ele><time>2026-04-11T09:58:55.274Z</time></trkpt><trkpt lat="45.0446817" lon="8.1487017"><ele>174.0</ele><time>2026-04-11T09:58:56.274Z</time></trkpt><trkpt lat="45.0447783" lon="8.1486617"><ele>174.0</ele><time>2026-04-11T09:58:57.273Z</time></trkpt><trkpt lat="45.0448733" lon="8.1486217"><ele>174.0</ele><time>2026-04-11T09:58:58.274Z</time></trkpt><trkpt lat="45.0449683" lon="8.1485817"><ele>174.0</ele><time>2026-04-11T09:58:59.273Z</time></trkpt><trkpt lat="45.0450517" lon="8.1485417"><ele>174.16666666666666</ele><time>2026-04-11T09:59:00.274Z</time></trkpt><trkpt lat="45.04514" lon="8.1485083"><ele>174.33333333333334</ele><time>2026-04-11T09:59:01.273Z</time></trkpt><trkpt lat="45.0452183" lon="8.1485"><ele>174.5</ele><time>2026-04-11T09:59:02.273Z</time></trkpt><trkpt lat="45.045285" lon="8.1485"><ele>174.66666666666669</ele><time>2026-04-11T09:59:03.273Z</time></trkpt><trkpt lat="45.0453483" lon="8.1485167"><ele>174.83333333333334</ele><time>2026-04-11T09:59:04.273Z</time></trkpt><trkpt lat="45.0454883" lon="8.14853"><ele>175.0</ele><time>2026-04-11T09:59:07.274Z</time></trkpt><trkpt lat="45.0455467" lon="8.1483733"><ele>175.0</ele><time>2026-04-11T09:59:09.273Z</time></trkpt><trkpt lat="45.04557" lon="8.1482667"><ele>175.0</ele><time>2026-04-11T09:59:10.273Z</time></trkpt><trkpt lat="45.0455933" lon="8.1481583"><ele>175.0</ele><time>2026-04-11T09:59:11.273Z</time></trkpt><trkpt lat="45.0456283" lon="8.148045"><ele>175.0</ele><time>2026-04-11T09:59:12.274Z</time></trkpt><trkpt lat="45.0456633" lon="8.14793"><ele>175.0</ele><time>2026-04-11T09:59:13.274Z</time></trkpt><trkpt lat="45.04571" lon="8.1478117"><ele>175.0</ele><time>2026-04-11T09:59:14.273Z</time></trkpt><trkpt lat="45.0457617" lon="8.147705"><ele>175.0</ele><time>2026-04-11T09:59:15.273Z</time></trkpt><trkpt lat="45.0458083" lon="8.1476017"><ele>175.0</ele><time>2026-04-11T09:59:16.273Z</time></trkpt><trkpt lat="45.04585" lon="8.14749"><ele>175.0</ele><time>2026-04-11T09:59:17.273Z</time></trkpt><trkpt lat="45.04591" lon="8.147385"><ele>175.0</ele><time>2026-04-11T09:59:18.273Z</time></trkpt><trkpt lat="45.045975" lon="8.147285"><ele>175.0</ele><time>2026-04-11T09:59:19.273Z</time></trkpt><trkpt lat="45.0460417" lon="8.1471867"><ele>175.0</ele><time>2026-04-11T09:59:20.273Z</time></trkpt><trkpt lat="45.0461083" lon="8.1470783"><ele>175.0</ele><time>2026-04-11T09:59:21.273Z</time></trkpt><trkpt lat="45.0461833" lon="8.146965"><ele>175.0</ele><time>2026-04-11T09:59:22.274Z</time></trkpt><trkpt lat="45.04625" lon="8.14685"><ele>175.0</ele><time>2026-04-11T09:59:23.273Z</time></trkpt><trkpt lat="45.0463167" lon="8.1467533"><ele>175.0</ele><time>2026-04-11T09:59:24.274Z</time></trkpt><trkpt lat="45.0463783" lon="8.1466667"><ele>175.0</ele><time>2026-04-11T09:59:25.273Z</time></trkpt><trkpt lat="45.0464433" lon="8.1465767"><ele>175.0</ele><time>2026-04-11T09:59:26.274Z</time></trkpt><trkpt lat="45.0465117" lon="8.14649"><ele>175.0</ele><time>2026-04-11T09:59:27.273Z</time></trkpt><trkpt lat="45.0465767" lon="8.1464"><ele>175.0</ele><time>2026-04-11T09:59:28.273Z</time></trkpt><trkpt lat="45.0466383" lon="8.146315"><ele>175.0</ele><time>2026-04-11T09:59:29.274Z</time></trkpt><trkpt lat="45.0466967" lon="8.1462217"><ele>175.0</ele><time>2026-04-11T09:59:30.274Z</time></trkpt><trkpt lat="45.0467517" lon="8.1461133"><ele>174.8</ele><time>2026-04-11T09:59:31.273Z</time></trkpt><trkpt lat="45.0468083" lon="8.1460133"><ele>174.6</ele><time>2026-04-11T09:59:32.273Z</time></trkpt><trkpt lat="45.0468717" lon="8.1459133"><ele>174.39999999999998</ele><time>2026-04-11T09:59:33.274Z</time></trkpt><trkpt lat="45.0469383" lon="8.14581"><ele>174.2</ele><time>2026-04-11T09:59:34.273Z</time></trkpt><trkpt lat="45.04701" lon="8.1457017"><ele>174.0</ele><time>2026-04-11T09:59:35.273Z</time></trkpt><trkpt lat="45.0470833" lon="8.1456083"><ele>174.0</ele><time>2026-04-11T09:59:36.274Z</time></trkpt><trkpt lat="45.04714" lon="8.1454967"><ele>174.0</ele><time>2026-04-11T09:59:37.273Z</time></trkpt><trkpt lat="45.0472" lon="8.1453867"><ele>174.0</ele><time>2026-04-11T09:59:38.273Z</time></trkpt><trkpt lat="45.0472617" lon="8.145265"><ele>174.0</ele><time>2026-04-11T09:59:39.274Z</time></trkpt><trkpt lat="45.0473283" lon="8.145135"><ele>174.0</ele><time>2026-04-11T09:59:40.273Z</time></trkpt><trkpt lat="45.04741" lon="8.1450133"><ele>174.0</ele><time>2026-04-11T09:59:41.273Z</time></trkpt><trkpt lat="45.0474867" lon="8.1448917"><ele>174.0</ele><time>2026-04-11T09:59:42.274Z</time></trkpt><trkpt lat="45.0475583" lon="8.1447783"><ele>174.0</ele><time>2026-04-11T09:59:43.273Z</time></trkpt><trkpt lat="45.04763" lon="8.1446767"><ele>174.0</ele><time>2026-04-11T09:59:44.273Z</time></trkpt><trkpt lat="45.0477133" lon="8.1445717"><ele>174.0</ele><time>2026-04-11T09:59:45.273Z</time></trkpt><trkpt lat="45.0477917" lon="8.1444817"><ele>174.0</ele><time>2026-04-11T09:59:46.274Z</time></trkpt><trkpt lat="45.0478717" lon="8.1443833"><ele>174.0</ele><time>2026-04-11T09:59:47.273Z</time></trkpt><trkpt lat="45.0479417" lon="8.1442883"><ele>174.0</ele><time>2026-04-11T09:59:48.273Z</time></trkpt><trkpt lat="45.0480183" lon="8.1442017"><ele>174.0</ele><time>2026-04-11T09:59:49.273Z</time></trkpt><trkpt lat="45.048105" lon="8.1441217"><ele>174.0</ele><time>2026-04-11T09:59:50.272Z</time></trkpt><trkpt lat="45.0481917" lon="8.14403"><ele>174.5</ele><time>2026-04-11T09:59:51.272Z</time></trkpt><trkpt lat="45.0482767" lon="8.1439533"><ele>175.0</ele><time>2026-04-11T09:59:52.272Z</time></trkpt><trkpt lat="45.04834" lon="8.1438767"><ele>175.5</ele><time>2026-04-11T09:59:53.272Z</time></trkpt><trkpt lat="45.0484" lon="8.1437967"><ele>176.0</ele><time>2026-04-11T09:59:54.273Z</time></trkpt><trkpt lat="45.0484633" lon="8.14373"><ele>176.5</ele><time>2026-04-11T09:59:55.272Z</time></trkpt><trkpt lat="45.0485333" lon="8.143675"><ele>177.0</ele><time>2026-04-11T09:59:56.273Z</time></trkpt><trkpt lat="45.0485933" lon="8.1436167"><ele>177.6</ele><time>2026-04-11T09:59:57.272Z</time></trkpt><trkpt lat="45.0486467" lon="8.1435583"><ele>178.2</ele><time>2026-04-11T09:59:58.272Z</time></trkpt><trkpt lat="45.0486917" lon="8.1434333"><ele>178.8</ele><time>2026-04-11T10:00:00.272Z</time></trkpt><trkpt lat="45.048715" lon="8.1432717"><ele>179.4</ele><time>2026-04-11T10:00:02.272Z</time></trkpt><trkpt lat="45.04867" lon="8.1431483"><ele>180.0</ele><time>2026-04-11T10:00:03.272Z</time></trkpt><trkpt lat="45.0486467" lon="8.14303"><ele>180.16666666666666</ele><time>2026-04-11T10:00:04.273Z</time></trkpt><trkpt lat="45.0486083" lon="8.14295"><ele>180.33333333333334</ele><time>2026-04-11T10:00:05.272Z</time></trkpt><trkpt lat="45.04855" lon="8.1428633"><ele>180.5</ele><time>2026-04-11T10:00:06.273Z</time></trkpt><trkpt lat="45.0485017" lon="8.1427717"><ele>180.66666666666669</ele><time>2026-04-11T10:00:07.272Z</time></trkpt><trkpt lat="45.0484617" lon="8.1426817"><ele>180.83333333333334</ele><time>2026-04-11T10:00:08.273Z</time></trkpt><trkpt lat="45.04843" lon="8.142595"><ele>181.0</ele><time>2026-04-11T10:00:09.272Z</time></trkpt><trkpt lat="45.0484017" lon="8.1424983"><ele>181.0</ele><time>2026-04-11T10:00:10.273Z</time></trkpt><trkpt lat="45.0483783" lon="8.1424"><ele>181.0</ele><time>2026-04-11T10:00:11.272Z</time></trkpt><trkpt lat="45.0483517" lon="8.1422883"><ele>181.0</ele><time>2026-04-11T10:00:12.272Z</time></trkpt><trkpt lat="45.0483183" lon="8.1421633"><ele>181.0</ele><time>2026-04-11T10:00:13.272Z</time></trkpt><trkpt lat="45.0482917" lon="8.14203"><ele>181.0</ele><time>2026-04-11T10:00:14.273Z</time></trkpt><trkpt lat="45.0482683" lon="8.1419017"><ele>181.0</ele><time>2026-04-11T10:00:15.272Z</time></trkpt><trkpt lat="45.048265" lon="8.141785"><ele>181.20000000000002</ele><time>2026-04-11T10:00:16.272Z</time></trkpt><trkpt lat="45.0482767" lon="8.1416617"><ele>181.4</ele><time>2026-04-11T10:00:17.272Z</time></trkpt><trkpt lat="45.04831" lon="8.1415317"><ele>181.6</ele><time>2026-04-11T10:00:18.272Z</time></trkpt><trkpt lat="45.04836" lon="8.1414033"><ele>181.8</ele><time>2026-04-11T10:00:19.272Z</time></trkpt><trkpt lat="45.048405" lon="8.14128"><ele>182.0</ele><time>2026-04-11T10:00:20.272Z</time></trkpt><trkpt lat="45.0484517" lon="8.1411783"><ele>182.0</ele><time>2026-04-11T10:00:21.272Z</time></trkpt><trkpt lat="45.04851" lon="8.1410817"><ele>182.0</ele><time>2026-04-11T10:00:22.272Z</time></trkpt><trkpt lat="45.0485817" lon="8.1409983"><ele>182.0</ele><time>2026-04-11T10:00:23.272Z</time></trkpt><trkpt lat="45.048665" lon="8.1409367"><ele>182.0</ele><time>2026-04-11T10:00:24.272Z</time></trkpt><trkpt lat="45.0487467" lon="8.140875"><ele>182.0</ele><time>2026-04-11T10:00:25.272Z</time></trkpt><trkpt lat="45.0488317" lon="8.1408183"><ele>182.0</ele><time>2026-04-11T10:00:26.272Z</time></trkpt><trkpt lat="45.0489133" lon="8.1407517"><ele>182.0</ele><time>2026-04-11T10:00:27.272Z</time></trkpt><trkpt lat="45.0489767" lon="8.1406733"><ele>182.0</ele><time>2026-04-11T10:00:28.273Z</time></trkpt><trkpt lat="45.0490267" lon="8.1405867"><ele>182.0</ele><time>2026-04-11T10:00:29.272Z</time></trkpt><trkpt lat="45.0490617" lon="8.1404933"><ele>182.0</ele><time>2026-04-11T10:00:30.273Z</time></trkpt><trkpt lat="45.0490767" lon="8.14035"><ele>182.0</ele><time>2026-04-11T10:00:32.273Z</time></trkpt><trkpt lat="45.049115" lon="8.1402767"><ele>181.66666666666666</ele><time>2026-04-11T10:00:34.272Z</time></trkpt><trkpt lat="45.049195" lon="8.14028"><ele>181.33333333333331</ele><time>2026-04-11T10:00:36.272Z</time></trkpt><trkpt lat="45.049265" lon="8.140315"><ele>181.0</ele><time>2026-04-11T10:00:37.272Z</time></trkpt><trkpt lat="45.049335" lon="8.1403633"><ele>180.66666666666666</ele><time>2026-04-11T10:00:38.272Z</time></trkpt><trkpt lat="45.0494083" lon="8.1404083"><ele>180.33333333333334</ele><time>2026-04-11T10:00:39.272Z</time></trkpt><trkpt lat="45.0494883" lon="8.1404583"><ele>180.0</ele><time>2026-04-11T10:00:40.273Z</time></trkpt><trkpt lat="45.049565" lon="8.1405033"><ele>180.0</ele><time>2026-04-11T10:00:41.273Z</time></trkpt><trkpt lat="45.0496317" lon="8.140535"><ele>180.0</ele><time>2026-04-11T10:00:42.272Z</time></trkpt><trkpt lat="45.04975" lon="8.1405283"><ele>180.0</ele><time>2026-04-11T10:00:44.273Z</time></trkpt><trkpt lat="45.0498467" lon="8.1404133"><ele>180.0</ele><time>2026-04-11T10:00:46.272Z</time></trkpt><trkpt lat="45.0498833" lon="8.1403367"><ele>180.0</ele><time>2026-04-11T10:00:47.273Z</time></trkpt><trkpt lat="45.0499217" lon="8.1402583"><ele>180.0</ele><time>2026-04-11T10:00:48.272Z</time></trkpt><trkpt lat="45.049985" lon="8.140105"><ele>180.16666666666666</ele><time>2026-04-11T10:00:50.272Z</time></trkpt><trkpt lat="45.0500167" lon="8.14001"><ele>180.33333333333334</ele><time>2026-04-11T10:00:51.272Z</time></trkpt><trkpt lat="45.0500633" lon="8.1399083"><ele>180.5</ele><time>2026-04-11T10:00:52.272Z</time></trkpt><trkpt lat="45.0501033" lon="8.13981"><ele>180.66666666666669</ele><time>2026-04-11T10:00:53.272Z</time></trkpt><trkpt lat="45.050145" lon="8.13972"><ele>180.83333333333334</ele><time>2026-04-11T10:00:54.273Z</time></trkpt><trkpt lat="45.0501833" lon="8.1396383"><ele>181.0</ele><time>2026-04-11T10:00:55.273Z</time></trkpt><trkpt lat="45.0502567" lon="8.1395233"><ele>181.0</ele><time>2026-04-11T10:00:57.272Z</time></trkpt><trkpt lat="45.0503517" lon="8.1394317"><ele>181.0</ele><time>2026-04-11T10:00:59.272Z</time></trkpt><trkpt lat="45.05042" lon="8.1393783"><ele>181.0</ele><time>2026-04-11T10:01:00.272Z</time></trkpt><trkpt lat="45.0504933" lon="8.139315"><ele>181.0</ele><time>2026-04-11T10:01:01.272Z</time></trkpt><trkpt lat="45.05058" lon="8.139255"><ele>181.0</ele><time>2026-04-11T10:01:02.272Z</time></trkpt><trkpt lat="45.050665" lon="8.139195"><ele>181.0</ele><time>2026-04-11T10:01:03.272Z</time></trkpt><trkpt lat="45.0507333" lon="8.13912"><ele>181.0</ele><time>2026-04-11T10:01:04.272Z</time></trkpt><trkpt lat="45.05079" lon="8.13903"><ele>181.0</ele><time>2026-04-11T10:01:05.272Z</time></trkpt><trkpt lat="45.0508417" lon="8.138925"><ele>181.0</ele><time>2026-04-11T10:01:06.272Z</time></trkpt><trkpt lat="45.0509017" lon="8.1387983"><ele>181.0</ele><time>2026-04-11T10:01:07.272Z</time></trkpt><trkpt lat="45.050955" lon="8.1386883"><ele>180.8</ele><time>2026-04-11T10:01:08.272Z</time></trkpt><trkpt lat="45.051015" lon="8.1385717"><ele>180.60000000000002</ele><time>2026-04-11T10:01:09.272Z</time></trkpt><trkpt lat="45.0510783" lon="8.138475"><ele>180.4</ele><time>2026-04-11T10:01:10.272Z</time></trkpt><trkpt lat="45.051135" lon="8.1383617"><ele>180.2</ele><time>2026-04-11T10:01:11.273Z</time></trkpt><trkpt lat="45.0511833" lon="8.1382433"><ele>180.0</ele><time>2026-04-11T10:01:12.272Z</time></trkpt><trkpt lat="45.0512183" lon="8.1381133"><ele>180.0</ele><time>2026-04-11T10:01:13.272Z</time></trkpt><trkpt lat="45.05124" lon="8.1379783"><ele>180.0</ele><time>2026-04-11T10:01:14.273Z</time></trkpt><trkpt lat="45.0512467" lon="8.1378533"><ele>180.0</ele><time>2026-04-11T10:01:15.272Z</time></trkpt><trkpt lat="45.0512467" lon="8.1377133"><ele>180.0</ele><time>2026-04-11T10:01:16.272Z</time></trkpt><trkpt lat="45.0512533" lon="8.137585"><ele>180.0</ele><time>2026-04-11T10:01:17.273Z</time></trkpt><trkpt lat="45.0512633" lon="8.1374667"><ele>180.0</ele><time>2026-04-11T10:01:18.272Z</time></trkpt><trkpt lat="45.05129" lon="8.1373467"><ele>180.0</ele><time>2026-04-11T10:01:19.272Z</time></trkpt><trkpt lat="45.05132" lon="8.137235"><ele>180.0</ele><time>2026-04-11T10:01:20.272Z</time></trkpt><trkpt lat="45.0513583" lon="8.1371367"><ele>180.0</ele><time>2026-04-11T10:01:21.272Z</time></trkpt><trkpt lat="45.0514033" lon="8.1370483"><ele>180.0</ele><time>2026-04-11T10:01:22.272Z</time></trkpt><trkpt lat="45.0514483" lon="8.1369817"><ele>180.0</ele><time>2026-04-11T10:01:23.272Z</time></trkpt><trkpt lat="45.0514967" lon="8.1369183"><ele>180.0</ele><time>2026-04-11T10:01:24.272Z</time></trkpt><trkpt lat="45.0515567" lon="8.136865"><ele>180.0</ele><time>2026-04-11T10:01:25.272Z</time></trkpt><trkpt lat="45.0516283" lon="8.1368083"><ele>180.0</ele><time>2026-04-11T10:01:26.272Z</time></trkpt><trkpt lat="45.0516967" lon="8.13674"><ele>180.0</ele><time>2026-04-11T10:01:27.272Z</time></trkpt><trkpt lat="45.0517717" lon="8.136665"><ele>180.0</ele><time>2026-04-11T10:01:28.273Z</time></trkpt><trkpt lat="45.0518517" lon="8.1366217"><ele>180.0</ele><time>2026-04-11T10:01:29.272Z</time></trkpt><trkpt lat="45.0519183" lon="8.1365717"><ele>180.4</ele><time>2026-04-11T10:01:30.273Z</time></trkpt><trkpt lat="45.0519867" lon="8.1365017"><ele>180.8</ele><time>2026-04-11T10:01:31.273Z</time></trkpt><trkpt lat="45.052045" lon="8.1364167"><ele>181.2</ele><time>2026-04-11T10:01:32.272Z</time></trkpt><trkpt lat="45.0520933" lon="8.136325"><ele>181.6</ele><time>2026-04-11T10:01:33.272Z</time></trkpt><trkpt lat="45.0521717" lon="8.136155"><ele>182.0</ele><time>2026-04-11T10:01:35.272Z</time></trkpt><trkpt lat="45.0522167" lon="8.1360567"><ele>182.0</ele><time>2026-04-11T10:01:36.272Z</time></trkpt><trkpt lat="45.0522483" lon="8.1359567"><ele>182.0</ele><time>2026-04-11T10:01:37.272Z</time></trkpt><trkpt lat="45.0523" lon="8.135855"><ele>182.0</ele><time>2026-04-11T10:01:38.273Z</time></trkpt><trkpt lat="45.0523483" lon="8.1357633"><ele>182.0</ele><time>2026-04-11T10:01:39.272Z</time></trkpt><trkpt lat="45.052405" lon="8.1356633"><ele>182.0</ele><time>2026-04-11T10:01:40.272Z</time></trkpt><trkpt lat="45.0524583" lon="8.1355633"><ele>182.0</ele><time>2026-04-11T10:01:41.272Z</time></trkpt><trkpt lat="45.052515" lon="8.1354667"><ele>182.5</ele><time>2026-04-11T10:01:42.272Z</time></trkpt><trkpt lat="45.0525683" lon="8.13538"><ele>183.0</ele><time>2026-04-11T10:01:43.272Z</time></trkpt><trkpt lat="45.0526117" lon="8.1352867"><ele>183.5</ele><time>2026-04-11T10:01:44.272Z</time></trkpt><trkpt lat="45.052655" lon="8.13519"><ele>184.0</ele><time>2026-04-11T10:01:45.272Z</time></trkpt><trkpt lat="45.0526967" lon="8.1350983"><ele>184.5</ele><time>2026-04-11T10:01:46.272Z</time></trkpt><trkpt lat="45.0527333" lon="8.1350033"><ele>185.0</ele><time>2026-04-11T10:01:47.272Z</time></trkpt><trkpt lat="45.0527733" lon="8.1349083"><ele>184.99999999999997</ele><time>2026-04-11T10:01:48.272Z</time></trkpt><trkpt lat="45.0528167" lon="8.134825"><ele>185.0</ele><time>2026-04-11T10:01:49.272Z</time></trkpt><trkpt lat="45.0528583" lon="8.13473"><ele>185.0</ele><time>2026-04-11T10:01:50.272Z</time></trkpt><trkpt lat="45.0528967" lon="8.1346317"><ele>185.0</ele><time>2026-04-11T10:01:51.272Z</time></trkpt><trkpt lat="45.0529333" lon="8.1345467"><ele>185.0</ele><time>2026-04-11T10:01:52.272Z</time></trkpt><trkpt lat="45.0529783" lon="8.13448"><ele>184.99999999999997</ele><time>2026-04-11T10:01:53.272Z</time></trkpt><trkpt lat="45.0530217" lon="8.1344033"><ele>185.0</ele><time>2026-04-11T10:01:54.272Z</time></trkpt><trkpt lat="45.0530733" lon="8.13434"><ele>185.0</ele><time>2026-04-11T10:01:55.272Z</time></trkpt><trkpt lat="45.0531533" lon="8.1342333"><ele>185.0</ele><time>2026-04-11T10:01:57.273Z</time></trkpt><trkpt lat="45.0532133" lon="8.1341717"><ele>185.0</ele><time>2026-04-11T10:01:58.273Z</time></trkpt><trkpt lat="45.0532783" lon="8.1340933"><ele>185.0</ele><time>2026-04-11T10:01:59.272Z</time></trkpt><trkpt lat="45.053355" lon="8.134005"><ele>185.0</ele><time>2026-04-11T10:02:00.273Z</time></trkpt><trkpt lat="45.0534317" lon="8.1339233"><ele>186.0</ele><time>2026-04-11T10:02:01.272Z</time></trkpt><trkpt lat="45.0535" lon="8.1338367"><ele>187.0</ele><time>2026-04-11T10:02:02.272Z</time></trkpt><trkpt lat="45.0535717" lon="8.13374"><ele>188.0</ele><time>2026-04-11T10:02:03.273Z</time></trkpt><trkpt lat="45.0536283" lon="8.1336467"><ele>189.0</ele><time>2026-04-11T10:02:04.272Z</time></trkpt><trkpt lat="45.0536817" lon="8.1335717"><ele>190.0</ele><time>2026-04-11T10:02:05.272Z</time></trkpt><trkpt lat="45.0537917" lon="8.1334283"><ele>190.0</ele><time>2026-04-11T10:02:07.272Z</time></trkpt><trkpt lat="45.0538333" lon="8.133325"><ele>190.0</ele><time>2026-04-11T10:02:08.273Z</time></trkpt><trkpt lat="45.0538683" lon="8.133235"><ele>190.0</ele><time>2026-04-11T10:02:09.273Z</time></trkpt><trkpt lat="45.053895" lon="8.1331267"><ele>190.0</ele><time>2026-04-11T10:02:10.272Z</time></trkpt><trkpt lat="45.0539167" lon="8.13302"><ele>190.0</ele><time>2026-04-11T10:02:11.272Z</time></trkpt><trkpt lat="45.0539333" lon="8.1328533"><ele>190.0</ele><time>2026-04-11T10:02:13.272Z</time></trkpt><trkpt lat="45.0539533" lon="8.1327517"><ele>191.2</ele><time>2026-04-11T10:02:15.273Z</time></trkpt><trkpt lat="45.0539117" lon="8.1326433"><ele>192.4</ele><time>2026-04-11T10:02:18.272Z</time></trkpt><trkpt lat="45.0537717" lon="8.1326567"><ele>193.60000000000002</ele><time>2026-04-11T10:02:20.273Z</time></trkpt><trkpt lat="45.053665" lon="8.1326717"><ele>194.8</ele><time>2026-04-11T10:02:21.272Z</time></trkpt><trkpt lat="45.0535567" lon="8.1326733"><ele>196.0</ele><time>2026-04-11T10:02:22.273Z</time></trkpt><trkpt lat="45.05346" lon="8.1326467"><ele>196.0</ele><time>2026-04-11T10:02:23.272Z</time></trkpt><trkpt lat="45.053365" lon="8.132605"><ele>196.0</ele><time>2026-04-11T10:02:24.272Z</time></trkpt><trkpt lat="45.0532633" lon="8.1325417"><ele>196.0</ele><time>2026-04-11T10:02:25.273Z</time></trkpt><trkpt lat="45.053175" lon="8.1324733"><ele>196.0</ele><time>2026-04-11T10:02:26.272Z</time></trkpt><trkpt lat="45.053085" lon="8.132395"><ele>196.0</ele><time>2026-04-11T10:02:27.272Z</time></trkpt><trkpt lat="45.0529983" lon="8.132315"><ele>199.0</ele><time>2026-04-11T10:02:28.272Z</time></trkpt><trkpt lat="45.0529083" lon="8.1322267"><ele>202.0</ele><time>2026-04-11T10:02:29.273Z</time></trkpt><trkpt lat="45.0528217" lon="8.1321467"><ele>205.0</ele><time>2026-04-11T10:02:30.272Z</time></trkpt><trkpt lat="45.0527433" lon="8.1320783"><ele>208.0</ele><time>2026-04-11T10:02:31.272Z</time></trkpt><trkpt lat="45.052665" lon="8.132035"><ele>211.0</ele><time>2026-04-11T10:02:32.272Z</time></trkpt><trkpt lat="45.052585" lon="8.1320017"><ele>211.0</ele><time>2026-04-11T10:02:33.272Z</time></trkpt><trkpt lat="45.0524967" lon="8.1319833"><ele>211.0</ele><time>2026-04-11T10:02:34.272Z</time></trkpt><trkpt lat="45.05239" lon="8.131955"><ele>211.0</ele><time>2026-04-11T10:02:35.273Z</time></trkpt><trkpt lat="45.0522917" lon="8.131935"><ele>211.0</ele><time>2026-04-11T10:02:36.273Z</time></trkpt><trkpt lat="45.0522183" lon="8.1318683"><ele>211.0</ele><time>2026-04-11T10:02:37.272Z</time></trkpt><trkpt lat="45.0521533" lon="8.1317933"><ele>212.20000000000002</ele><time>2026-04-11T10:02:38.272Z</time></trkpt><trkpt lat="45.0520883" lon="8.13172"><ele>213.4</ele><time>2026-04-11T10:02:39.272Z</time></trkpt><trkpt lat="45.0520183" lon="8.1316233"><ele>214.6</ele><time>2026-04-11T10:02:40.272Z</time></trkpt><trkpt lat="45.0519367" lon="8.131505"><ele>215.8</ele><time>2026-04-11T10:02:41.272Z</time></trkpt><trkpt lat="45.0518617" lon="8.131405"><ele>217.0</ele><time>2026-04-11T10:02:42.272Z</time></trkpt><trkpt lat="45.0517867" lon="8.131325"><ele>219.2</ele><time>2026-04-11T10:02:43.272Z</time></trkpt><trkpt lat="45.0517117" lon="8.1312633"><ele>221.39999999999998</ele><time>2026-04-11T10:02:44.272Z</time></trkpt><trkpt lat="45.0516333" lon="8.131225"><ele>223.60000000000002</ele><time>2026-04-11T10:02:45.273Z</time></trkpt><trkpt lat="45.0515483" lon="8.1312067"><ele>225.8</ele><time>2026-04-11T10:02:46.272Z</time></trkpt><trkpt lat="45.0514367" lon="8.1311983"><ele>228.0</ele><time>2026-04-11T10:02:47.272Z</time></trkpt><trkpt lat="45.05131" lon="8.131205"><ele>229.25</ele><time>2026-04-11T10:02:48.272Z</time></trkpt><trkpt lat="45.051085" lon="8.1310933"><ele>230.5</ele><time>2026-04-11T10:02:51.273Z</time></trkpt><trkpt lat="45.0510383" lon="8.13102"><ele>231.75</ele><time>2026-04-11T10:02:52.272Z</time></trkpt><trkpt lat="45.0509933" lon="8.1309317"><ele>233.0</ele><time>2026-04-11T10:02:53.272Z</time></trkpt><trkpt lat="45.0509417" lon="8.130845"><ele>233.00000000000003</ele><time>2026-04-11T10:02:54.272Z</time></trkpt><trkpt lat="45.05088" lon="8.1307533"><ele>233.0</ele><time>2026-04-11T10:02:55.272Z</time></trkpt><trkpt lat="45.0508117" lon="8.13067"><ele>233.0</ele><time>2026-04-11T10:02:56.272Z</time></trkpt><trkpt lat="45.0507433" lon="8.1305917"><ele>233.0</ele><time>2026-04-11T10:02:57.272Z</time></trkpt><trkpt lat="45.0506817" lon="8.1305167"><ele>233.00000000000003</ele><time>2026-04-11T10:02:58.273Z</time></trkpt><trkpt lat="45.0506183" lon="8.1304367"><ele>233.0</ele><time>2026-04-11T10:02:59.272Z</time></trkpt><trkpt lat="45.0505633" lon="8.13036"><ele>233.33333333333334</ele><time>2026-04-11T10:03:00.273Z</time></trkpt><trkpt lat="45.0505083" lon="8.130285"><ele>233.66666666666669</ele><time>2026-04-11T10:03:01.273Z</time></trkpt><trkpt lat="45.0504267" lon="8.13022"><ele>234.0</ele><time>2026-04-11T10:03:03.272Z</time></trkpt><trkpt lat="45.05035" lon="8.130245"><ele>234.33333333333331</ele><time>2026-04-11T10:03:05.272Z</time></trkpt><trkpt lat="45.050285" lon="8.130265"><ele>234.66666666666666</ele><time>2026-04-11T10:03:08.272Z</time></trkpt><trkpt lat="45.050315" lon="8.130165"><ele>235.0</ele><time>2026-04-11T10:03:11.272Z</time></trkpt><trkpt lat="45.0503983" lon="8.1301433"><ele>234.99999999999997</ele><time>2026-04-11T10:03:13.272Z</time></trkpt><trkpt lat="45.0504783" lon="8.1301167"><ele>235.0</ele><time>2026-04-11T10:03:16.272Z</time></trkpt><trkpt lat="45.0505583" lon="8.130055"><ele>235.0</ele><time>2026-04-11T10:03:28.272Z</time></trkpt><trkpt lat="45.05063" lon="8.1300083"><ele>235.0</ele><time>2026-04-11T10:03:30.272Z</time></trkpt><trkpt lat="45.05071" lon="8.1299817"><ele>234.99999999999997</ele><time>2026-04-11T10:03:32.271Z</time></trkpt><trkpt lat="45.0507867" lon="8.1299433"><ele>235.0</ele><time>2026-04-11T10:03:34.271Z</time></trkpt><trkpt lat="45.0508633" lon="8.1299067"><ele>235.16666666666666</ele><time>2026-04-11T10:03:36.272Z</time></trkpt><trkpt lat="45.0509533" lon="8.129885"><ele>235.33333333333331</ele><time>2026-04-11T10:03:38.272Z</time></trkpt><trkpt lat="45.0510333" lon="8.1298517"><ele>235.5</ele><time>2026-04-11T10:03:40.271Z</time></trkpt><trkpt lat="45.0511167" lon="8.1298267"><ele>235.66666666666669</ele><time>2026-04-11T10:03:42.272Z</time></trkpt><trkpt lat="45.0511983" lon="8.1298133"><ele>235.83333333333334</ele><time>2026-04-11T10:03:44.271Z</time></trkpt><trkpt lat="45.0513017" lon="8.1297733"><ele>236.0</ele><time>2026-04-11T10:03:46.272Z</time></trkpt><trkpt lat="45.0514117" lon="8.129735"><ele>236.00000000000003</ele><time>2026-04-11T10:03:48.271Z</time></trkpt><trkpt lat="45.0515117" lon="8.1296983"><ele>236.0</ele><time>2026-04-11T10:03:50.271Z</time></trkpt><trkpt lat="45.0515933" lon="8.1296583"><ele>236.0</ele><time>2026-04-11T10:03:52.271Z</time></trkpt><trkpt lat="45.0516767" lon="8.129655"><ele>236.0</ele><time>2026-04-11T10:03:55.271Z</time></trkpt><trkpt lat="45.0517717" lon="8.1296117"><ele>236.00000000000003</ele><time>2026-04-11T10:04:37.271Z</time></trkpt><trkpt lat="45.0518333" lon="8.1295867"><ele>236.0</ele><time>2026-04-11T10:04:38.271Z</time></trkpt><trkpt lat="45.0518967" lon="8.1295683"><ele>237.50000000000003</ele><time>2026-04-11T10:04:39.271Z</time></trkpt><trkpt lat="45.0519633" lon="8.1295367"><ele>239.0</ele><time>2026-04-11T10:04:40.271Z</time></trkpt><trkpt lat="45.0520433" lon="8.1295"><ele>240.5</ele><time>2026-04-11T10:04:41.272Z</time></trkpt><trkpt lat="45.0521267" lon="8.12946"><ele>242.0</ele><time>2026-04-11T10:04:42.271Z</time></trkpt><trkpt lat="45.052215" lon="8.129425"><ele>243.50000000000003</ele><time>2026-04-11T10:04:43.271Z</time></trkpt><trkpt lat="45.0523083" lon="8.1293867"><ele>245.0</ele><time>2026-04-11T10:04:44.271Z</time></trkpt><trkpt lat="45.0524133" lon="8.129345"><ele>245.25</ele><time>2026-04-11T10:04:45.271Z</time></trkpt><trkpt lat="45.0525167" lon="8.1292833"><ele>245.5</ele><time>2026-04-11T10:04:46.271Z</time></trkpt><trkpt lat="45.0526267" lon="8.1292133"><ele>245.75</ele><time>2026-04-11T10:04:47.272Z</time></trkpt><trkpt lat="45.0527367" lon="8.12913"><ele>246.0</ele><time>2026-04-11T10:04:48.271Z</time></trkpt><trkpt lat="45.0528583" lon="8.1290433"><ele>246.25</ele><time>2026-04-11T10:04:49.271Z</time></trkpt><trkpt lat="45.05298" lon="8.128945"><ele>246.5</ele><time>2026-04-11T10:04:50.271Z</time></trkpt><trkpt lat="45.0531017" lon="8.1288333"><ele>246.75</ele><time>2026-04-11T10:04:51.271Z</time></trkpt><trkpt lat="45.0532367" lon="8.128705"><ele>247.0</ele><time>2026-04-11T10:04:52.271Z</time></trkpt><trkpt lat="45.0533633" lon="8.12859"><ele>246.33333333333331</ele><time>2026-04-11T10:04:53.271Z</time></trkpt><trkpt lat="45.0534917" lon="8.12847"><ele>245.66666666666669</ele><time>2026-04-11T10:04:54.271Z</time></trkpt><trkpt lat="45.0536217" lon="8.1283583"><ele>245.0</ele><time>2026-04-11T10:04:55.271Z</time></trkpt><trkpt lat="45.0537467" lon="8.1282467"><ele>245.5</ele><time>2026-04-11T10:04:56.271Z</time></trkpt><trkpt lat="45.0538717" lon="8.1281467"><ele>246.0</ele><time>2026-04-11T10:04:57.271Z</time></trkpt><trkpt lat="45.0539933" lon="8.128025"><ele>246.5</ele><time>2026-04-11T10:04:58.272Z</time></trkpt><trkpt lat="45.0541183" lon="8.127895"><ele>247.0</ele><time>2026-04-11T10:04:59.271Z</time></trkpt><trkpt lat="45.05423" lon="8.1277467"><ele>246.66666666666666</ele><time>2026-04-11T10:05:00.272Z</time></trkpt><trkpt lat="45.0544283" lon="8.127465"><ele>246.33333333333331</ele><time>2026-04-11T10:05:02.271Z</time></trkpt><trkpt lat="45.0545167" lon="8.1273267"><ele>246.0</ele><time>2026-04-11T10:05:03.272Z</time></trkpt><trkpt lat="45.0545967" lon="8.1271883"><ele>246.0</ele><time>2026-04-11T10:05:04.271Z</time></trkpt><trkpt lat="45.0546783" lon="8.127065"><ele>246.0</ele><time>2026-04-11T10:05:05.271Z</time></trkpt><trkpt lat="45.054755" lon="8.12694"><ele>246.0</ele><time>2026-04-11T10:05:06.271Z</time></trkpt><trkpt lat="45.054835" lon="8.1268117"><ele>246.0</ele><time>2026-04-11T10:05:07.271Z</time></trkpt><trkpt lat="45.0549867" lon="8.126565"><ele>244.0</ele><time>2026-04-11T10:05:09.271Z</time></trkpt><trkpt lat="45.055065" lon="8.12645"><ele>242.0</ele><time>2026-04-11T10:05:10.271Z</time></trkpt><trkpt lat="45.05514" lon="8.12633"><ele>240.0</ele><time>2026-04-11T10:05:11.272Z</time></trkpt><trkpt lat="45.0552233" lon="8.1262083"><ele>238.0</ele><time>2026-04-11T10:05:12.271Z</time></trkpt><trkpt lat="45.0553" lon="8.126095"><ele>237.99999999999997</ele><time>2026-04-11T10:05:13.271Z</time></trkpt><trkpt lat="45.0553683" lon="8.12599"><ele>238.0</ele><time>2026-04-11T10:05:14.272Z</time></trkpt><trkpt lat="45.0554267" lon="8.1258933"><ele>238.0</ele><time>2026-04-11T10:05:15.271Z</time></trkpt><trkpt lat="45.05548" lon="8.1258083"><ele>238.0</ele><time>2026-04-11T10:05:16.271Z</time></trkpt><trkpt lat="45.0555283" lon="8.1257367"><ele>237.99999999999997</ele><time>2026-04-11T10:05:17.271Z</time></trkpt><trkpt lat="45.055575" lon="8.1256667"><ele>238.0</ele><time>2026-04-11T10:05:18.271Z</time></trkpt><trkpt lat="45.05562" lon="8.1256"><ele>238.0</ele><time>2026-04-11T10:05:19.272Z</time></trkpt><trkpt lat="45.055705" lon="8.125495"><ele>238.0</ele><time>2026-04-11T10:05:21.271Z</time></trkpt><trkpt lat="45.0557733" lon="8.1253917"><ele>238.0</ele><time>2026-04-11T10:05:23.272Z</time></trkpt><trkpt lat="45.055825" lon="8.1253317"><ele>238.0</ele><time>2026-04-11T10:05:25.272Z</time></trkpt><trkpt lat="45.0557933" lon="8.1252117"><ele>238.0</ele><time>2026-04-11T10:05:28.272Z</time></trkpt><trkpt lat="45.05568" lon="8.12522"><ele>238.2</ele><time>2026-04-11T10:05:30.272Z</time></trkpt><trkpt lat="45.0556083" lon="8.1252483"><ele>238.4</ele><time>2026-04-11T10:05:31.271Z</time></trkpt><trkpt lat="45.055445" lon="8.1252867"><ele>238.59999999999997</ele><time>2026-04-11T10:05:33.271Z</time></trkpt><trkpt lat="45.055365" lon="8.1252883"><ele>238.79999999999998</ele><time>2026-04-11T10:05:34.272Z</time></trkpt><trkpt lat="45.0552917" lon="8.1252917"><ele>239.0</ele><time>2026-04-11T10:05:35.272Z</time></trkpt><trkpt lat="45.0552217" lon="8.125295"><ele>239.00000000000003</ele><time>2026-04-11T10:05:36.271Z</time></trkpt><trkpt lat="45.0551267" lon="8.125205"><ele>239.0</ele><time>2026-04-11T10:05:38.272Z</time></trkpt><trkpt lat="45.055125" lon="8.1250717"><ele>239.0</ele><time>2026-04-11T10:05:40.271Z</time></trkpt><trkpt lat="45.055155" lon="8.12499"><ele>239.0</ele><time>2026-04-11T10:05:42.271Z</time></trkpt><trkpt lat="45.0551833" lon="8.12488"><ele>239.00000000000003</ele><time>2026-04-11T10:05:46.272Z</time></trkpt><trkpt lat="45.0551833" lon="8.1247867"><ele>239.0</ele><time>2026-04-11T10:05:49.271Z</time></trkpt><trkpt lat="45.0551767" lon="8.1246283"><ele>238.50000000000003</ele><time>2026-04-11T10:05:53.272Z</time></trkpt><trkpt lat="45.0551683" lon="8.1244483"><ele>238.0</ele><time>2026-04-11T10:05:55.271Z</time></trkpt><trkpt lat="45.05516" lon="8.1243533"><ele>237.5</ele><time>2026-04-11T10:05:56.271Z</time></trkpt><trkpt lat="45.0551633" lon="8.1242433"><ele>237.0</ele><time>2026-04-11T10:05:57.271Z</time></trkpt><trkpt lat="45.0551633" lon="8.1241267"><ele>236.50000000000003</ele><time>2026-04-11T10:05:58.271Z</time></trkpt><trkpt lat="45.0551633" lon="8.1240067"><ele>236.0</ele><time>2026-04-11T10:05:59.272Z</time></trkpt><trkpt lat="45.0551583" lon="8.1238933"><ele>235.66666666666669</ele><time>2026-04-11T10:06:00.272Z</time></trkpt><trkpt lat="45.0551533" lon="8.1237883"><ele>235.33333333333334</ele><time>2026-04-11T10:06:01.271Z</time></trkpt><trkpt lat="45.0551433" lon="8.123675"><ele>235.0</ele><time>2026-04-11T10:06:02.272Z</time></trkpt><trkpt lat="45.055135" lon="8.1235617"><ele>234.66666666666669</ele><time>2026-04-11T10:06:03.271Z</time></trkpt><trkpt lat="45.0551317" lon="8.1234417"><ele>234.33333333333334</ele><time>2026-04-11T10:06:04.271Z</time></trkpt><trkpt lat="45.0551317" lon="8.1233367"><ele>234.0</ele><time>2026-04-11T10:06:05.272Z</time></trkpt><trkpt lat="45.05513" lon="8.1232283"><ele>235.0</ele><time>2026-04-11T10:06:06.271Z</time></trkpt><trkpt lat="45.0551183" lon="8.1231233"><ele>236.0</ele><time>2026-04-11T10:06:07.271Z</time></trkpt><trkpt lat="45.0551067" lon="8.1230133"><ele>237.0</ele><time>2026-04-11T10:06:08.271Z</time></trkpt><trkpt lat="45.0551" lon="8.1228933"><ele>238.0</ele><time>2026-04-11T10:06:09.271Z</time></trkpt><trkpt lat="45.05509" lon="8.1227783"><ele>239.0</ele><time>2026-04-11T10:06:10.271Z</time></trkpt><trkpt lat="45.0550817" lon="8.12267"><ele>240.0</ele><time>2026-04-11T10:06:11.271Z</time></trkpt><trkpt lat="45.0550767" lon="8.1225717"><ele>240.0</ele><time>2026-04-11T10:06:12.271Z</time></trkpt><trkpt lat="45.0550733" lon="8.122475"><ele>240.0</ele><time>2026-04-11T10:06:13.271Z</time></trkpt><trkpt lat="45.0550633" lon="8.122375"><ele>240.0</ele><time>2026-04-11T10:06:14.271Z</time></trkpt><trkpt lat="45.0550583" lon="8.1222817"><ele>240.0</ele><time>2026-04-11T10:06:15.271Z</time></trkpt><trkpt lat="45.0550567" lon="8.12219"><ele>240.0</ele><time>2026-04-11T10:06:16.271Z</time></trkpt><trkpt lat="45.055065" lon="8.1220083"><ele>240.0</ele><time>2026-04-11T10:06:18.272Z</time></trkpt><trkpt lat="45.0550633" lon="8.1218217"><ele>241.16666666666666</ele><time>2026-04-11T10:06:20.271Z</time></trkpt><trkpt lat="45.055055" lon="8.1217283"><ele>242.33333333333331</ele><time>2026-04-11T10:06:21.271Z</time></trkpt><trkpt lat="45.0550367" lon="8.121625"><ele>243.5</ele><time>2026-04-11T10:06:22.271Z</time></trkpt><trkpt lat="45.0550133" lon="8.1215183"><ele>244.66666666666666</ele><time>2026-04-11T10:06:23.271Z</time></trkpt><trkpt lat="45.0549867" lon="8.121425"><ele>245.83333333333331</ele><time>2026-04-11T10:06:24.272Z</time></trkpt><trkpt lat="45.054965" lon="8.12128"><ele>247.0</ele><time>2026-04-11T10:06:26.272Z</time></trkpt><trkpt lat="45.054965" lon="8.121165"><ele>246.99999999999997</ele><time>2026-04-11T10:06:28.272Z</time></trkpt><trkpt lat="45.0549583" lon="8.121065"><ele>247.0</ele><time>2026-04-11T10:06:31.271Z</time></trkpt><trkpt lat="45.054895" lon="8.1210167"><ele>247.0</ele><time>2026-04-11T10:06:33.271Z</time></trkpt><trkpt lat="45.0548317" lon="8.12099"><ele>247.0</ele><time>2026-04-11T10:06:34.271Z</time></trkpt><trkpt lat="45.0547517" lon="8.120965"><ele>246.99999999999997</ele><time>2026-04-11T10:06:35.271Z</time></trkpt><trkpt lat="45.05466" lon="8.1209467"><ele>247.0</ele><time>2026-04-11T10:06:36.271Z</time></trkpt><trkpt lat="45.05456" lon="8.120905"><ele>247.25</ele><time>2026-04-11T10:06:37.271Z</time></trkpt><trkpt lat="45.0544517" lon="8.1208533"><ele>247.5</ele><time>2026-04-11T10:06:38.271Z</time></trkpt><trkpt lat="45.0543417" lon="8.12081"><ele>247.75</ele><time>2026-04-11T10:06:39.271Z</time></trkpt><trkpt lat="45.0542283" lon="8.12077"><ele>248.0</ele><time>2026-04-11T10:06:40.271Z</time></trkpt><trkpt lat="45.054115" lon="8.1207283"><ele>246.75</ele><time>2026-04-11T10:06:41.271Z</time></trkpt><trkpt lat="45.0540033" lon="8.1206967"><ele>245.5</ele><time>2026-04-11T10:06:42.271Z</time></trkpt><trkpt lat="45.0538867" lon="8.1206567"><ele>244.25</ele><time>2026-04-11T10:06:43.271Z</time></trkpt><trkpt lat="45.053765" lon="8.1206183"><ele>243.0</ele><time>2026-04-11T10:06:44.272Z</time></trkpt><trkpt lat="45.0536417" lon="8.120575"><ele>243.0</ele><time>2026-04-11T10:06:45.271Z</time></trkpt><trkpt lat="45.0535233" lon="8.1205217"><ele>243.0</ele><time>2026-04-11T10:06:46.271Z</time></trkpt><trkpt lat="45.0534" lon="8.1204667"><ele>243.0</ele><time>2026-04-11T10:06:47.271Z</time></trkpt><trkpt lat="45.053275" lon="8.1204267"><ele>243.0</ele><time>2026-04-11T10:06:48.271Z</time></trkpt><trkpt lat="45.0531333" lon="8.120375"><ele>244.0</ele><time>2026-04-11T10:06:49.272Z</time></trkpt><trkpt lat="45.053005" lon="8.120335"><ele>245.0</ele><time>2026-04-11T10:06:50.271Z</time></trkpt><trkpt lat="45.05288" lon="8.1203017"><ele>246.0</ele><time>2026-04-11T10:06:51.271Z</time></trkpt><trkpt lat="45.0527517" lon="8.1202667"><ele>247.0</ele><time>2026-04-11T10:06:52.271Z</time></trkpt><trkpt lat="45.052625" lon="8.120225"><ele>247.0</ele><time>2026-04-11T10:06:53.271Z</time></trkpt><trkpt lat="45.0524917" lon="8.1202117"><ele>247.0</ele><time>2026-04-11T10:06:54.272Z</time></trkpt><trkpt lat="45.0523567" lon="8.1202183"><ele>247.0</ele><time>2026-04-11T10:06:55.271Z</time></trkpt><trkpt lat="45.05221" lon="8.1202267"><ele>247.0</ele><time>2026-04-11T10:06:56.271Z</time></trkpt><trkpt lat="45.05207" lon="8.1202333"><ele>248.0</ele><time>2026-04-11T10:06:57.271Z</time></trkpt><trkpt lat="45.0519283" lon="8.120235"><ele>249.0</ele><time>2026-04-11T10:06:58.272Z</time></trkpt><trkpt lat="45.051785" lon="8.12024"><ele>250.0</ele><time>2026-04-11T10:06:59.271Z</time></trkpt><trkpt lat="45.0516367" lon="8.1202417"><ele>251.0</ele><time>2026-04-11T10:07:00.271Z</time></trkpt><trkpt lat="45.0514933" lon="8.1202467"><ele>251.75</ele><time>2026-04-11T10:07:01.271Z</time></trkpt><trkpt lat="45.051355" lon="8.1202483"><ele>252.5</ele><time>2026-04-11T10:07:02.271Z</time></trkpt><trkpt lat="45.0512083" lon="8.120255"><ele>253.25</ele><time>2026-04-11T10:07:03.271Z</time></trkpt><trkpt lat="45.0510667" lon="8.1202633"><ele>254.0</ele><time>2026-04-11T10:07:04.272Z</time></trkpt><trkpt lat="45.0509267" lon="8.120265"><ele>254.0</ele><time>2026-04-11T10:07:05.272Z</time></trkpt><trkpt lat="45.050795" lon="8.1202617"><ele>254.0</ele><time>2026-04-11T10:07:06.271Z</time></trkpt><trkpt lat="45.0506617" lon="8.1202617"><ele>254.0</ele><time>2026-04-11T10:07:07.272Z</time></trkpt><trkpt lat="45.050525" lon="8.12026"><ele>254.0</ele><time>2026-04-11T10:07:08.271Z</time></trkpt><trkpt lat="45.0503867" lon="8.1202733"><ele>254.25</ele><time>2026-04-11T10:07:09.271Z</time></trkpt><trkpt lat="45.0502483" lon="8.1202883"><ele>254.5</ele><time>2026-04-11T10:07:10.271Z</time></trkpt><trkpt lat="45.0501" lon="8.1203017"><ele>254.75</ele><time>2026-04-11T10:07:11.27Z</time></trkpt><trkpt lat="45.0499517" lon="8.120315"><ele>255.0</ele><time>2026-04-11T10:07:12.27Z</time></trkpt><trkpt lat="45.0497983" lon="8.1203333"><ele>252.66666666666669</ele><time>2026-04-11T10:07:13.27Z</time></trkpt><trkpt lat="45.0496417" lon="8.1203467"><ele>250.33333333333334</ele><time>2026-04-11T10:07:14.27Z</time></trkpt><trkpt lat="45.049485" lon="8.1203567"><ele>248.0</ele><time>2026-04-11T10:07:15.27Z</time></trkpt><trkpt lat="45.0493217" lon="8.1203467"><ele>248.0</ele><time>2026-04-11T10:07:16.27Z</time></trkpt><trkpt lat="45.0491533" lon="8.1203283"><ele>248.0</ele><time>2026-04-11T10:07:17.271Z</time></trkpt><trkpt lat="45.0489767" lon="8.1203083"><ele>248.0</ele><time>2026-04-11T10:07:18.271Z</time></trkpt><trkpt lat="45.0488" lon="8.1202917"><ele>246.0</ele><time>2026-04-11T10:07:19.27Z</time></trkpt><trkpt lat="45.048625" lon="8.1202617"><ele>244.0</ele><time>2026-04-11T10:07:20.27Z</time></trkpt><trkpt lat="45.048455" lon="8.1202267"><ele>242.0</ele><time>2026-04-11T10:07:21.27Z</time></trkpt><trkpt lat="45.0482867" lon="8.1202017"><ele>242.0</ele><time>2026-04-11T10:07:22.271Z</time></trkpt><trkpt lat="45.0481117" lon="8.12017"><ele>242.0</ele><time>2026-04-11T10:07:23.271Z</time></trkpt><trkpt lat="45.0479383" lon="8.12015"><ele>242.0</ele><time>2026-04-11T10:07:24.27Z</time></trkpt><trkpt lat="45.0477683" lon="8.1201217"><ele>242.0</ele><time>2026-04-11T10:07:25.271Z</time></trkpt><trkpt lat="45.04761" lon="8.1200983"><ele>242.0</ele><time>2026-04-11T10:07:26.27Z</time></trkpt><trkpt lat="45.0474483" lon="8.12008"><ele>242.0</ele><time>2026-04-11T10:07:27.271Z</time></trkpt><trkpt lat="45.0472817" lon="8.120055"><ele>242.33333333333334</ele><time>2026-04-11T10:07:28.27Z</time></trkpt><trkpt lat="45.0471217" lon="8.1200283"><ele>242.66666666666669</ele><time>2026-04-11T10:07:29.27Z</time></trkpt><trkpt lat="45.0469633" lon="8.1200033"><ele>243.0</ele><time>2026-04-11T10:07:30.27Z</time></trkpt><trkpt lat="45.0468067" lon="8.11998"><ele>243.0</ele><time>2026-04-11T10:07:31.27Z</time></trkpt><trkpt lat="45.0466433" lon="8.1199583"><ele>243.0</ele><time>2026-04-11T10:07:32.27Z</time></trkpt><trkpt lat="45.04648" lon="8.1199283"><ele>243.0</ele><time>2026-04-11T10:07:33.27Z</time></trkpt><trkpt lat="45.0463233" lon="8.11989"><ele>243.0</ele><time>2026-04-11T10:07:34.27Z</time></trkpt><trkpt lat="45.0461667" lon="8.119865"><ele>243.0</ele><time>2026-04-11T10:07:35.27Z</time></trkpt><trkpt lat="45.046" lon="8.1198333"><ele>243.0</ele><time>2026-04-11T10:07:36.271Z</time></trkpt><trkpt lat="45.0458333" lon="8.1198017"><ele>243.33333333333331</ele><time>2026-04-11T10:07:37.27Z</time></trkpt><trkpt lat="45.04566" lon="8.119775"><ele>243.66666666666666</ele><time>2026-04-11T10:07:38.27Z</time></trkpt><trkpt lat="45.045485" lon="8.11976"><ele>244.0</ele><time>2026-04-11T10:07:39.271Z</time></trkpt><trkpt lat="45.0451567" lon="8.1197217"><ele>244.0</ele><time>2026-04-11T10:07:41.27Z</time></trkpt><trkpt lat="45.0449833" lon="8.11969"><ele>244.0</ele><time>2026-04-11T10:07:42.27Z</time></trkpt><trkpt lat="45.04481" lon="8.1196567"><ele>244.0</ele><time>2026-04-11T10:07:43.271Z</time></trkpt><trkpt lat="45.0446433" lon="8.1196117"><ele>242.33333333333331</ele><time>2026-04-11T10:07:44.27Z</time></trkpt><trkpt lat="45.0444733" lon="8.119575"><ele>240.66666666666669</ele><time>2026-04-11T10:07:45.27Z</time></trkpt><trkpt lat="45.0443067" lon="8.119525"><ele>239.0</ele><time>2026-04-11T10:07:46.27Z</time></trkpt><trkpt lat="45.044145" lon="8.1194483"><ele>237.33333333333334</ele><time>2026-04-11T10:07:47.271Z</time></trkpt><trkpt lat="45.0439833" lon="8.1193633"><ele>235.66666666666669</ele><time>2026-04-11T10:07:48.27Z</time></trkpt><trkpt lat="45.0438267" lon="8.1192583"><ele>234.0</ele><time>2026-04-11T10:07:49.27Z</time></trkpt><trkpt lat="45.0436667" lon="8.11917"><ele>234.0</ele><time>2026-04-11T10:07:50.271Z</time></trkpt><trkpt lat="45.043515" lon="8.1190917"><ele>234.0</ele><time>2026-04-11T10:07:51.27Z</time></trkpt><trkpt lat="45.0433633" lon="8.1190167"><ele>234.0</ele><time>2026-04-11T10:07:52.27Z</time></trkpt><trkpt lat="45.04322" lon="8.1189433"><ele>234.75</ele><time>2026-04-11T10:07:53.27Z</time></trkpt><trkpt lat="45.0430817" lon="8.118865"><ele>235.5</ele><time>2026-04-11T10:07:54.271Z</time></trkpt><trkpt lat="45.04295" lon="8.11879"><ele>236.25</ele><time>2026-04-11T10:07:55.27Z</time></trkpt><trkpt lat="45.0428233" lon="8.1187233"><ele>237.0</ele><time>2026-04-11T10:07:56.27Z</time></trkpt><trkpt lat="45.042705" lon="8.1186567"><ele>237.0</ele><time>2026-04-11T10:07:57.271Z</time></trkpt><trkpt lat="45.0425867" lon="8.1186017"><ele>237.0</ele><time>2026-04-11T10:07:58.27Z</time></trkpt><trkpt lat="45.0424617" lon="8.1185233"><ele>237.0</ele><time>2026-04-11T10:07:59.27Z</time></trkpt><trkpt lat="45.04233" lon="8.11845"><ele>237.0</ele><time>2026-04-11T10:08:00.27Z</time></trkpt><trkpt lat="45.0421967" lon="8.1183667"><ele>235.0</ele><time>2026-04-11T10:08:01.27Z</time></trkpt><trkpt lat="45.0420483" lon="8.1183033"><ele>233.0</ele><time>2026-04-11T10:08:02.271Z</time></trkpt><trkpt lat="45.04191" lon="8.1182467"><ele>231.0</ele><time>2026-04-11T10:08:03.27Z</time></trkpt><trkpt lat="45.0417717" lon="8.1181833"><ele>229.0</ele><time>2026-04-11T10:08:04.27Z</time></trkpt><trkpt lat="45.0416467" lon="8.1181167"><ele>227.75</ele><time>2026-04-11T10:08:05.27Z</time></trkpt><trkpt lat="45.0415117" lon="8.1180817"><ele>226.5</ele><time>2026-04-11T10:08:06.27Z</time></trkpt><trkpt lat="45.0413733" lon="8.1180433"><ele>225.25</ele><time>2026-04-11T10:08:07.27Z</time></trkpt><trkpt lat="45.041225" lon="8.1180433"><ele>224.0</ele><time>2026-04-11T10:08:08.27Z</time></trkpt><trkpt lat="45.0410783" lon="8.11803"><ele>221.5</ele><time>2026-04-11T10:08:09.27Z</time></trkpt><trkpt lat="45.0407667" lon="8.1180483"><ele>219.0</ele><time>2026-04-11T10:08:11.27Z</time></trkpt><trkpt lat="45.0406117" lon="8.11806"><ele>219.0</ele><time>2026-04-11T10:08:12.271Z</time></trkpt><trkpt lat="45.0404633" lon="8.1180667"><ele>219.0</ele><time>2026-04-11T10:08:13.271Z</time></trkpt><trkpt lat="45.0403233" lon="8.118075"><ele>219.0</ele><time>2026-04-11T10:08:14.27Z</time></trkpt><trkpt lat="45.04018" lon="8.118075"><ele>219.0</ele><time>2026-04-11T10:08:15.271Z</time></trkpt><trkpt lat="45.0400383" lon="8.1180783"><ele>218.0</ele><time>2026-04-11T10:08:16.271Z</time></trkpt><trkpt lat="45.0399" lon="8.118075"><ele>217.0</ele><time>2026-04-11T10:08:17.27Z</time></trkpt><trkpt lat="45.039755" lon="8.1180967"><ele>216.0</ele><time>2026-04-11T10:08:18.271Z</time></trkpt><trkpt lat="45.0396117" lon="8.11811"><ele>215.0</ele><time>2026-04-11T10:08:19.271Z</time></trkpt><trkpt lat="45.0394833" lon="8.1181133"><ele>215.0</ele><time>2026-04-11T10:08:20.27Z</time></trkpt><trkpt lat="45.03936" lon="8.1181233"><ele>215.0</ele><time>2026-04-11T10:08:21.27Z</time></trkpt><trkpt lat="45.03925" lon="8.1181267"><ele>215.0</ele><time>2026-04-11T10:08:22.271Z</time></trkpt><trkpt lat="45.039155" lon="8.1181367"><ele>215.0</ele><time>2026-04-11T10:08:23.271Z</time></trkpt><trkpt lat="45.0389967" lon="8.11817"><ele>214.00000000000003</ele><time>2026-04-11T10:08:25.27Z</time></trkpt><trkpt lat="45.0389117" lon="8.118185"><ele>213.0</ele><time>2026-04-11T10:08:26.27Z</time></trkpt><trkpt lat="45.03884" lon="8.1182"><ele>212.0</ele><time>2026-04-11T10:08:27.27Z</time></trkpt><trkpt lat="45.0387617" lon="8.1182167"><ele>211.0</ele><time>2026-04-11T10:08:28.27Z</time></trkpt><trkpt lat="45.0386783" lon="8.118265"><ele>210.00000000000003</ele><time>2026-04-11T10:08:29.27Z</time></trkpt><trkpt lat="45.0385833" lon="8.1183067"><ele>209.0</ele><time>2026-04-11T10:08:30.27Z</time></trkpt><trkpt lat="45.0384833" lon="8.1183683"><ele>210.75</ele><time>2026-04-11T10:08:31.27Z</time></trkpt><trkpt lat="45.0383817" lon="8.11844"><ele>212.5</ele><time>2026-04-11T10:08:32.271Z</time></trkpt><trkpt lat="45.0382783" lon="8.1184917"><ele>214.25</ele><time>2026-04-11T10:08:33.271Z</time></trkpt><trkpt lat="45.0381717" lon="8.1185683"><ele>216.0</ele><time>2026-04-11T10:08:34.27Z</time></trkpt><trkpt lat="45.0380667" lon="8.1186467"><ele>216.0</ele><time>2026-04-11T10:08:35.27Z</time></trkpt><trkpt lat="45.0379583" lon="8.1187267"><ele>216.00000000000003</ele><time>2026-04-11T10:08:36.27Z</time></trkpt><trkpt lat="45.0378583" lon="8.1187983"><ele>216.00000000000003</ele><time>2026-04-11T10:08:37.27Z</time></trkpt><trkpt lat="45.0377667" lon="8.11887"><ele>216.0</ele><time>2026-04-11T10:08:38.271Z</time></trkpt><trkpt lat="45.0376983" lon="8.1189567"><ele>216.0</ele><time>2026-04-11T10:08:39.271Z</time></trkpt><trkpt lat="45.03762" lon="8.1190383"><ele>216.0</ele><time>2026-04-11T10:08:40.27Z</time></trkpt><trkpt lat="45.0375483" lon="8.1191267"><ele>216.00000000000003</ele><time>2026-04-11T10:08:41.27Z</time></trkpt><trkpt lat="45.0374767" lon="8.11921"><ele>216.00000000000003</ele><time>2026-04-11T10:08:42.271Z</time></trkpt><trkpt lat="45.037405" lon="8.1193033"><ele>216.0</ele><time>2026-04-11T10:08:43.27Z</time></trkpt><trkpt lat="45.0373217" lon="8.11939"><ele>216.0</ele><time>2026-04-11T10:08:44.271Z</time></trkpt><trkpt lat="45.037245" lon="8.1194767"><ele>216.0</ele><time>2026-04-11T10:08:45.27Z</time></trkpt><trkpt lat="45.0371767" lon="8.1195667"><ele>216.00000000000003</ele><time>2026-04-11T10:08:46.271Z</time></trkpt><trkpt lat="45.0370967" lon="8.11964"><ele>216.00000000000003</ele><time>2026-04-11T10:08:47.27Z</time></trkpt><trkpt lat="45.0370067" lon="8.1196967"><ele>216.0</ele><time>2026-04-11T10:08:48.27Z</time></trkpt><trkpt lat="45.0369167" lon="8.1197483"><ele>216.0</ele><time>2026-04-11T10:08:49.271Z</time></trkpt><trkpt lat="45.036825" lon="8.119805"><ele>216.0</ele><time>2026-04-11T10:08:50.27Z</time></trkpt><trkpt lat="45.0367333" lon="8.1198467"><ele>216.00000000000003</ele><time>2026-04-11T10:08:51.27Z</time></trkpt><trkpt lat="45.0366383" lon="8.1198817"><ele>216.00000000000003</ele><time>2026-04-11T10:08:52.27Z</time></trkpt><trkpt lat="45.0365367" lon="8.11991"><ele>216.0</ele><time>2026-04-11T10:08:53.271Z</time></trkpt><trkpt lat="45.036435" lon="8.1199317"><ele>216.0</ele><time>2026-04-11T10:08:54.271Z</time></trkpt><trkpt lat="45.03633" lon="8.11995"><ele>216.4</ele><time>2026-04-11T10:08:55.27Z</time></trkpt><trkpt lat="45.0362283" lon="8.1199617"><ele>216.8</ele><time>2026-04-11T10:08:56.271Z</time></trkpt><trkpt lat="45.036135" lon="8.11998"><ele>217.20000000000002</ele><time>2026-04-11T10:08:57.27Z</time></trkpt><trkpt lat="45.03605" lon="8.12001"><ele>217.60000000000002</ele><time>2026-04-11T10:08:58.27Z</time></trkpt><trkpt lat="45.0359617" lon="8.1200017"><ele>218.0</ele><time>2026-04-11T10:08:59.27Z</time></trkpt><trkpt lat="45.0358633" lon="8.1200033"><ele>218.5</ele><time>2026-04-11T10:09:00.27Z</time></trkpt><trkpt lat="45.0357583" lon="8.119975"><ele>219.0</ele><time>2026-04-11T10:09:01.27Z</time></trkpt><trkpt lat="45.0356483" lon="8.11991"><ele>219.5</ele><time>2026-04-11T10:09:02.27Z</time></trkpt><trkpt lat="45.035525" lon="8.1198433"><ele>220.0</ele><time>2026-04-11T10:09:03.27Z</time></trkpt><trkpt lat="45.0353933" lon="8.11974"><ele>215.75</ele><time>2026-04-11T10:09:04.27Z</time></trkpt><trkpt lat="45.03527" lon="8.1196467"><ele>211.5</ele><time>2026-04-11T10:09:05.27Z</time></trkpt><trkpt lat="45.0351533" lon="8.1195567"><ele>207.25</ele><time>2026-04-11T10:09:06.27Z</time></trkpt><trkpt lat="45.0350467" lon="8.11948"><ele>203.0</ele><time>2026-04-11T10:09:07.27Z</time></trkpt><trkpt lat="45.0349317" lon="8.1194167"><ele>201.25</ele><time>2026-04-11T10:09:08.27Z</time></trkpt><trkpt lat="45.0348133" lon="8.1193567"><ele>199.5</ele><time>2026-04-11T10:09:09.27Z</time></trkpt><trkpt lat="45.0346967" lon="8.1192967"><ele>197.75</ele><time>2026-04-11T10:09:10.271Z</time></trkpt><trkpt lat="45.0345933" lon="8.1192617"><ele>196.0</ele><time>2026-04-11T10:09:11.27Z</time></trkpt><trkpt lat="45.0344967" lon="8.1192317"><ele>196.0</ele><time>2026-04-11T10:09:12.271Z</time></trkpt><trkpt lat="45.0343933" lon="8.1191867"><ele>196.0</ele><time>2026-04-11T10:09:13.27Z</time></trkpt><trkpt lat="45.0342917" lon="8.1191433"><ele>196.0</ele><time>2026-04-11T10:09:14.27Z</time></trkpt><trkpt lat="45.0341967" lon="8.1191267"><ele>196.0</ele><time>2026-04-11T10:09:15.271Z</time></trkpt><trkpt lat="45.0340967" lon="8.1191617"><ele>196.0</ele><time>2026-04-11T10:09:16.27Z</time></trkpt><trkpt lat="45.0339883" lon="8.11922"><ele>192.5</ele><time>2026-04-11T10:09:17.27Z</time></trkpt><trkpt lat="45.0338733" lon="8.1192683"><ele>189.0</ele><time>2026-04-11T10:09:18.27Z</time></trkpt><trkpt lat="45.033755" lon="8.1193467"><ele>185.5</ele><time>2026-04-11T10:09:19.271Z</time></trkpt><trkpt lat="45.033645" lon="8.1194217"><ele>182.0</ele><time>2026-04-11T10:09:20.27Z</time></trkpt><trkpt lat="45.0335333" lon="8.1194867"><ele>182.0</ele><time>2026-04-11T10:09:21.271Z</time></trkpt><trkpt lat="45.0334283" lon="8.11957"><ele>182.0</ele><time>2026-04-11T10:09:22.271Z</time></trkpt><trkpt lat="45.0333217" lon="8.1196367"><ele>182.0</ele><time>2026-04-11T10:09:23.27Z</time></trkpt><trkpt lat="45.0332233" lon="8.119725"><ele>182.0</ele><time>2026-04-11T10:09:24.27Z</time></trkpt><trkpt lat="45.03312" lon="8.119835"><ele>181.0</ele><time>2026-04-11T10:09:25.27Z</time></trkpt><trkpt lat="45.0329133" lon="8.1200983"><ele>180.0</ele><time>2026-04-11T10:09:27.271Z</time></trkpt><trkpt lat="45.0328117" lon="8.1202317"><ele>179.0</ele><time>2026-04-11T10:09:28.27Z</time></trkpt><trkpt lat="45.0327117" lon="8.120365"><ele>179.0</ele><time>2026-04-11T10:09:29.27Z</time></trkpt><trkpt lat="45.0326067" lon="8.1205083"><ele>179.0</ele><time>2026-04-11T10:09:30.27Z</time></trkpt><trkpt lat="45.0325083" lon="8.120645"><ele>179.0</ele><time>2026-04-11T10:09:31.27Z</time></trkpt><trkpt lat="45.0324117" lon="8.1207717"><ele>179.0</ele><time>2026-04-11T10:09:32.271Z</time></trkpt><trkpt lat="45.032325" lon="8.1209083"><ele>177.5</ele><time>2026-04-11T10:09:33.27Z</time></trkpt><trkpt lat="45.03224" lon="8.1210367"><ele>176.0</ele><time>2026-04-11T10:09:34.27Z</time></trkpt><trkpt lat="45.0321583" lon="8.1211667"><ele>174.5</ele><time>2026-04-11T10:09:35.27Z</time></trkpt><trkpt lat="45.0320783" lon="8.1212817"><ele>173.0</ele><time>2026-04-11T10:09:36.271Z</time></trkpt><trkpt lat="45.0320017" lon="8.1213917"><ele>173.0</ele><time>2026-04-11T10:09:37.27Z</time></trkpt><trkpt lat="45.0319267" lon="8.1214933"><ele>173.0</ele><time>2026-04-11T10:09:38.27Z</time></trkpt><trkpt lat="45.031835" lon="8.1215733"><ele>173.0</ele><time>2026-04-11T10:09:39.27Z</time></trkpt><trkpt lat="45.0317333" lon="8.1216383"><ele>173.0</ele><time>2026-04-11T10:09:40.27Z</time></trkpt><trkpt lat="45.0316167" lon="8.1216517"><ele>173.0</ele><time>2026-04-11T10:09:41.27Z</time></trkpt><trkpt lat="45.0314933" lon="8.1216383"><ele>173.25</ele><time>2026-04-11T10:09:42.27Z</time></trkpt><trkpt lat="45.0313633" lon="8.1215767"><ele>173.5</ele><time>2026-04-11T10:09:43.27Z</time></trkpt><trkpt lat="45.0312333" lon="8.1215183"><ele>173.75</ele><time>2026-04-11T10:09:44.27Z</time></trkpt><trkpt lat="45.0311133" lon="8.121455"><ele>174.0</ele><time>2026-04-11T10:09:45.27Z</time></trkpt><trkpt lat="45.03101" lon="8.1213967"><ele>174.0</ele><time>2026-04-11T10:09:46.27Z</time></trkpt><trkpt lat="45.030925" lon="8.121345"><ele>174.0</ele><time>2026-04-11T10:09:47.27Z</time></trkpt><trkpt lat="45.0308483" lon="8.1213017"><ele>174.0</ele><time>2026-04-11T10:09:48.271Z</time></trkpt><trkpt lat="45.0307717" lon="8.12126"><ele>174.0</ele><time>2026-04-11T10:09:49.271Z</time></trkpt><trkpt lat="45.03069" lon="8.1212167"><ele>174.0</ele><time>2026-04-11T10:09:50.27Z</time></trkpt><trkpt lat="45.0306117" lon="8.12117"><ele>174.0</ele><time>2026-04-11T10:09:51.27Z</time></trkpt><trkpt lat="45.0305417" lon="8.1211283"><ele>173.33333333333334</ele><time>2026-04-11T10:09:52.27Z</time></trkpt><trkpt lat="45.03048" lon="8.12109"><ele>172.66666666666666</ele><time>2026-04-11T10:09:53.271Z</time></trkpt><trkpt lat="45.0304067" lon="8.121045"><ele>172.0</ele><time>2026-04-11T10:09:55.271Z</time></trkpt><trkpt lat="45.0303333" lon="8.12101"><ele>171.33333333333331</ele><time>2026-04-11T10:09:59.27Z</time></trkpt><trkpt lat="45.0302967" lon="8.1209267"><ele>170.66666666666666</ele><time>2026-04-11T10:10:01.271Z</time></trkpt><trkpt lat="45.0303317" lon="8.1207733"><ele>170.0</ele><time>2026-04-11T10:10:03.271Z</time></trkpt><trkpt lat="45.030365" lon="8.1206817"><ele>169.8</ele><time>2026-04-11T10:10:04.27Z</time></trkpt><trkpt lat="45.0304133" lon="8.12057"><ele>169.6</ele><time>2026-04-11T10:10:05.271Z</time></trkpt><trkpt lat="45.030465" lon="8.12045"><ele>169.39999999999998</ele><time>2026-04-11T10:10:06.27Z</time></trkpt><trkpt lat="45.03053" lon="8.1203167"><ele>169.2</ele><time>2026-04-11T10:10:07.27Z</time></trkpt><trkpt lat="45.0306067" lon="8.1201883"><ele>169.0</ele><time>2026-04-11T10:10:08.271Z</time></trkpt><trkpt lat="45.030685" lon="8.120055"><ele>169.0</ele><time>2026-04-11T10:10:09.27Z</time></trkpt><trkpt lat="45.0307717" lon="8.1199267"><ele>169.0</ele><time>2026-04-11T10:10:10.27Z</time></trkpt><trkpt lat="45.0308583" lon="8.1197983"><ele>169.0</ele><time>2026-04-11T10:10:11.27Z</time></trkpt><trkpt lat="45.030945" lon="8.1196733"><ele>169.0</ele><time>2026-04-11T10:10:12.27Z</time></trkpt><trkpt lat="45.031035" lon="8.1195433"><ele>169.25</ele><time>2026-04-11T10:10:13.27Z</time></trkpt><trkpt lat="45.03113" lon="8.119415"><ele>169.5</ele><time>2026-04-11T10:10:14.27Z</time></trkpt><trkpt lat="45.0312267" lon="8.1192783"><ele>169.75</ele><time>2026-04-11T10:10:15.27Z</time></trkpt><trkpt lat="45.0313283" lon="8.1191317"><ele>170.0</ele><time>2026-04-11T10:10:16.27Z</time></trkpt><trkpt lat="45.0314233" lon="8.1189767"><ele>170.0</ele><time>2026-04-11T10:10:17.27Z</time></trkpt><trkpt lat="45.03153" lon="8.1188417"><ele>170.0</ele><time>2026-04-11T10:10:18.27Z</time></trkpt><trkpt lat="45.0316333" lon="8.1186967"><ele>170.0</ele><time>2026-04-11T10:10:19.27Z</time></trkpt><trkpt lat="45.031735" lon="8.1185517"><ele>170.0</ele><time>2026-04-11T10:10:20.27Z</time></trkpt><trkpt lat="45.0318433" lon="8.11841"><ele>170.0</ele><time>2026-04-11T10:10:21.271Z</time></trkpt><trkpt lat="45.0319517" lon="8.1182583"><ele>170.0</ele><time>2026-04-11T10:10:22.27Z</time></trkpt><trkpt lat="45.032065" lon="8.1180967"><ele>170.0</ele><time>2026-04-11T10:10:23.27Z</time></trkpt><trkpt lat="45.03218" lon="8.1179367"><ele>170.33333333333331</ele><time>2026-04-11T10:10:24.27Z</time></trkpt><trkpt lat="45.0322883" lon="8.1177767"><ele>170.66666666666666</ele><time>2026-04-11T10:10:25.271Z</time></trkpt><trkpt lat="45.0324017" lon="8.11763"><ele>171.0</ele><time>2026-04-11T10:10:26.27Z</time></trkpt><trkpt lat="45.0325133" lon="8.1174783"><ele>171.0</ele><time>2026-04-11T10:10:27.271Z</time></trkpt><trkpt lat="45.032615" lon="8.117325"><ele>171.0</ele><time>2026-04-11T10:10:28.27Z</time></trkpt><trkpt lat="45.0327267" lon="8.1171683"><ele>171.0</ele><time>2026-04-11T10:10:29.27Z</time></trkpt><trkpt lat="45.03284" lon="8.1170183"><ele>171.0</ele><time>2026-04-11T10:10:30.27Z</time></trkpt><trkpt lat="45.032945" lon="8.1168767"><ele>171.0</ele><time>2026-04-11T10:10:31.271Z</time></trkpt><trkpt lat="45.0330483" lon="8.1167233"><ele>171.0</ele><time>2026-04-11T10:10:32.27Z</time></trkpt><trkpt lat="45.0331517" lon="8.1165733"><ele>171.0</ele><time>2026-04-11T10:10:33.271Z</time></trkpt><trkpt lat="45.0332583" lon="8.11643"><ele>171.0</ele><time>2026-04-11T10:10:34.27Z</time></trkpt><trkpt lat="45.0333683" lon="8.1162883"><ele>171.0</ele><time>2026-04-11T10:10:35.271Z</time></trkpt><trkpt lat="45.033475" lon="8.1161483"><ele>171.0</ele><time>2026-04-11T10:10:36.271Z</time></trkpt><trkpt lat="45.033585" lon="8.1159933"><ele>171.0</ele><time>2026-04-11T10:10:37.27Z</time></trkpt><trkpt lat="45.0336967" lon="8.1158517"><ele>171.25</ele><time>2026-04-11T10:10:38.27Z</time></trkpt><trkpt lat="45.0338067" lon="8.1157217"><ele>171.5</ele><time>2026-04-11T10:10:39.271Z</time></trkpt><trkpt lat="45.0339117" lon="8.1155883"><ele>171.75</ele><time>2026-04-11T10:10:40.27Z</time></trkpt><trkpt lat="45.0340133" lon="8.1154683"><ele>172.0</ele><time>2026-04-11T10:10:41.27Z</time></trkpt><trkpt lat="45.0341117" lon="8.1153483"><ele>172.75</ele><time>2026-04-11T10:10:42.27Z</time></trkpt><trkpt lat="45.0342067" lon="8.11521"><ele>173.5</ele><time>2026-04-11T10:10:43.27Z</time></trkpt><trkpt lat="45.0342967" lon="8.115065"><ele>174.25</ele><time>2026-04-11T10:10:44.27Z</time></trkpt><trkpt lat="45.034385" lon="8.1149017"><ele>175.0</ele><time>2026-04-11T10:10:45.271Z</time></trkpt><trkpt lat="45.0344683" lon="8.1147417"><ele>175.0</ele><time>2026-04-11T10:10:46.27Z</time></trkpt><trkpt lat="45.0345533" lon="8.1146033"><ele>175.0</ele><time>2026-04-11T10:10:47.27Z</time></trkpt><trkpt lat="45.0346317" lon="8.11448"><ele>175.0</ele><time>2026-04-11T10:10:48.27Z</time></trkpt><trkpt lat="45.0347133" lon="8.114365"><ele>175.0</ele><time>2026-04-11T10:10:49.271Z</time></trkpt><trkpt lat="45.0347883" lon="8.1142617"><ele>175.0</ele><time>2026-04-11T10:10:50.27Z</time></trkpt><trkpt lat="45.0348517" lon="8.1141717"><ele>175.0</ele><time>2026-04-11T10:10:51.27Z</time></trkpt><trkpt lat="45.0349033" lon="8.1140917"><ele>175.0</ele><time>2026-04-11T10:10:52.271Z</time></trkpt><trkpt lat="45.034975" lon="8.1139883"><ele>175.0</ele><time>2026-04-11T10:10:54.269Z</time></trkpt><trkpt lat="45.0350283" lon="8.1139233"><ele>175.0</ele><time>2026-04-11T10:10:58.269Z</time></trkpt><trkpt lat="45.035055" lon="8.1138333"><ele>175.0</ele><time>2026-04-11T10:11:03.27Z</time></trkpt><trkpt lat="45.0349933" lon="8.113675"><ele>175.0</ele><time>2026-04-11T10:11:05.269Z</time></trkpt><trkpt lat="45.0349367" lon="8.1135567"><ele>175.0</ele><time>2026-04-11T10:11:06.269Z</time></trkpt><trkpt lat="45.0348767" lon="8.113435"><ele>175.0</ele><time>2026-04-11T10:11:07.269Z</time></trkpt><trkpt lat="45.0348083" lon="8.1133"><ele>175.0</ele><time>2026-04-11T10:11:08.269Z</time></trkpt><trkpt lat="45.0347417" lon="8.11317"><ele>175.0</ele><time>2026-04-11T10:11:09.269Z</time></trkpt><trkpt lat="45.03466" lon="8.1130433"><ele>175.0</ele><time>2026-04-11T10:11:10.269Z</time></trkpt><trkpt lat="45.034565" lon="8.1129217"><ele>175.0</ele><time>2026-04-11T10:11:11.269Z</time></trkpt><trkpt lat="45.0344683" lon="8.1128017"><ele>175.0</ele><time>2026-04-11T10:11:12.269Z</time></trkpt><trkpt lat="45.0343667" lon="8.112685"><ele>175.0</ele><time>2026-04-11T10:11:13.269Z</time></trkpt><trkpt lat="45.0342733" lon="8.11258"><ele>175.0</ele><time>2026-04-11T10:11:14.269Z</time></trkpt><trkpt lat="45.03417" lon="8.1124683"><ele>175.0</ele><time>2026-04-11T10:11:15.269Z</time></trkpt><trkpt lat="45.0340683" lon="8.112345"><ele>175.0</ele><time>2026-04-11T10:11:16.269Z</time></trkpt><trkpt lat="45.0339767" lon="8.1122217"><ele>175.0</ele><time>2026-04-11T10:11:17.269Z</time></trkpt><trkpt lat="45.033875" lon="8.1121017"><ele>174.75</ele><time>2026-04-11T10:11:18.269Z</time></trkpt><trkpt lat="45.0337833" lon="8.1119817"><ele>174.5</ele><time>2026-04-11T10:11:19.269Z</time></trkpt><trkpt lat="45.03369" lon="8.1118617"><ele>174.25</ele><time>2026-04-11T10:11:20.269Z</time></trkpt><trkpt lat="45.03359" lon="8.111745"><ele>174.0</ele><time>2026-04-11T10:11:21.269Z</time></trkpt><trkpt lat="45.0334983" lon="8.11163"><ele>173.75</ele><time>2026-04-11T10:11:22.27Z</time></trkpt><trkpt lat="45.0334067" lon="8.1115283"><ele>173.5</ele><time>2026-04-11T10:11:23.269Z</time></trkpt><trkpt lat="45.0333033" lon="8.111425"><ele>173.25</ele><time>2026-04-11T10:11:24.269Z</time></trkpt><trkpt lat="45.033205" lon="8.1113183"><ele>173.0</ele><time>2026-04-11T10:11:25.269Z</time></trkpt><trkpt lat="45.0331133" lon="8.11122"><ele>173.0</ele><time>2026-04-11T10:11:26.27Z</time></trkpt><trkpt lat="45.033035" lon="8.11113"><ele>173.0</ele><time>2026-04-11T10:11:27.27Z</time></trkpt><trkpt lat="45.0329617" lon="8.1110367"><ele>173.0</ele><time>2026-04-11T10:11:28.269Z</time></trkpt><trkpt lat="45.032905" lon="8.1109433"><ele>173.0</ele><time>2026-04-11T10:11:29.269Z</time></trkpt><trkpt lat="45.0328617" lon="8.1108717"><ele>173.0</ele><time>2026-04-11T10:11:30.269Z</time></trkpt><trkpt lat="45.0328317" lon="8.1107867"><ele>173.0</ele><time>2026-04-11T10:11:31.27Z</time></trkpt><trkpt lat="45.0328" lon="8.1107067"><ele>173.75</ele><time>2026-04-11T10:11:32.269Z</time></trkpt><trkpt lat="45.03274" lon="8.1105667"><ele>174.5</ele><time>2026-04-11T10:11:34.269Z</time></trkpt><trkpt lat="45.0326483" lon="8.1105233"><ele>175.25</ele><time>2026-04-11T10:11:36.269Z</time></trkpt><trkpt lat="45.0325333" lon="8.1105983"><ele>176.0</ele><time>2026-04-11T10:11:38.269Z</time></trkpt><trkpt lat="45.0324033" lon="8.11074"><ele>175.8</ele><time>2026-04-11T10:11:40.27Z</time></trkpt><trkpt lat="45.0323367" lon="8.1108183"><ele>175.60000000000002</ele><time>2026-04-11T10:11:41.27Z</time></trkpt><trkpt lat="45.03226" lon="8.1109"><ele>175.4</ele><time>2026-04-11T10:11:42.269Z</time></trkpt><trkpt lat="45.0321783" lon="8.11095"><ele>175.2</ele><time>2026-04-11T10:11:43.27Z</time></trkpt><trkpt lat="45.0320867" lon="8.1109867"><ele>175.0</ele><time>2026-04-11T10:11:44.269Z</time></trkpt><trkpt lat="45.03199" lon="8.1110283"><ele>175.0</ele><time>2026-04-11T10:11:45.269Z</time></trkpt><trkpt lat="45.0318867" lon="8.1110533"><ele>175.0</ele><time>2026-04-11T10:11:46.269Z</time></trkpt><trkpt lat="45.0317817" lon="8.1110717"><ele>175.0</ele><time>2026-04-11T10:11:47.269Z</time></trkpt><trkpt lat="45.0316683" lon="8.1110717"><ele>175.0</ele><time>2026-04-11T10:11:48.269Z</time></trkpt><trkpt lat="45.03156" lon="8.111055"><ele>175.0</ele><time>2026-04-11T10:11:49.269Z</time></trkpt><trkpt lat="45.0314583" lon="8.1110233"><ele>174.8</ele><time>2026-04-11T10:11:50.269Z</time></trkpt><trkpt lat="45.03136" lon="8.1110017"><ele>174.6</ele><time>2026-04-11T10:11:51.269Z</time></trkpt><trkpt lat="45.03127" lon="8.1109767"><ele>174.39999999999998</ele><time>2026-04-11T10:11:52.27Z</time></trkpt><trkpt lat="45.03118" lon="8.11095"><ele>174.2</ele><time>2026-04-11T10:11:53.27Z</time></trkpt><trkpt lat="45.031115" lon="8.1109267"><ele>174.0</ele><time>2026-04-11T10:11:54.269Z</time></trkpt><trkpt lat="45.031015" lon="8.1109617"><ele>174.0</ele><time>2026-04-11T10:11:56.27Z</time></trkpt><trkpt lat="45.03094" lon="8.1110617"><ele>174.0</ele><time>2026-04-11T10:11:58.269Z</time></trkpt><trkpt lat="45.0308533" lon="8.111195"><ele>174.0</ele><time>2026-04-11T10:12:00.269Z</time></trkpt><trkpt lat="45.0307367" lon="8.1113367"><ele>174.0</ele><time>2026-04-11T10:12:02.269Z</time></trkpt><trkpt lat="45.0306767" lon="8.1114167"><ele>174.0</ele><time>2026-04-11T10:12:03.27Z</time></trkpt><trkpt lat="45.03062" lon="8.1114983"><ele>174.0</ele><time>2026-04-11T10:12:04.269Z</time></trkpt><trkpt lat="45.030565" lon="8.1115733"><ele>174.0</ele><time>2026-04-11T10:12:05.27Z</time></trkpt><trkpt lat="45.03052" lon="8.1116383"><ele>174.0</ele><time>2026-04-11T10:12:06.269Z</time></trkpt><trkpt lat="45.0304367" lon="8.1117567"><ele>174.0</ele><time>2026-04-11T10:12:08.269Z</time></trkpt><trkpt lat="45.0303533" lon="8.111895"><ele>174.0</ele><time>2026-04-11T10:12:10.269Z</time></trkpt><trkpt lat="45.0302617" lon="8.1119983"><ele>174.0</ele><time>2026-04-11T10:12:12.269Z</time></trkpt><trkpt lat="45.0301833" lon="8.1120867"><ele>174.0</ele><time>2026-04-11T10:12:14.27Z</time></trkpt><trkpt lat="45.0301233" lon="8.11216"><ele>174.0</ele><time>2026-04-11T10:12:16.269Z</time></trkpt><trkpt lat="45.0300367" lon="8.1121833"><ele>174.0</ele><time>2026-04-11T10:12:18.269Z</time></trkpt><trkpt lat="45.0299367" lon="8.1122"><ele>175.25</ele><time>2026-04-11T10:12:20.27Z</time></trkpt><trkpt lat="45.02982" lon="8.112205"><ele>176.5</ele><time>2026-04-11T10:12:22.27Z</time></trkpt><trkpt lat="45.0297" lon="8.1122133"><ele>177.75</ele><time>2026-04-11T10:12:24.269Z</time></trkpt><trkpt lat="45.029585" lon="8.1122267"><ele>179.0</ele><time>2026-04-11T10:12:26.269Z</time></trkpt><trkpt lat="45.0294767" lon="8.11224"><ele>179.0</ele><time>2026-04-11T10:12:28.269Z</time></trkpt><trkpt lat="45.02936" lon="8.1122517"><ele>179.0</ele><time>2026-04-11T10:12:30.269Z</time></trkpt><trkpt lat="45.0292967" lon="8.1122667"><ele>179.0</ele><time>2026-04-11T10:12:31.27Z</time></trkpt><trkpt lat="45.02918" lon="8.11229"><ele>179.0</ele><time>2026-04-11T10:12:33.269Z</time></trkpt><trkpt lat="45.0290983" lon="8.1123117"><ele>179.0</ele><time>2026-04-11T10:12:35.269Z</time></trkpt><trkpt lat="45.0290283" lon="8.11237"><ele>179.5</ele><time>2026-04-11T10:13:57.27Z</time></trkpt><trkpt lat="45.02888" lon="8.1124067"><ele>180.0</ele><time>2026-04-11T10:14:19.269Z</time></trkpt><trkpt lat="45.0287883" lon="8.1124567"><ele>180.5</ele><time>2026-04-11T10:14:21.269Z</time></trkpt><trkpt lat="45.0286833" lon="8.1125183"><ele>181.0</ele><time>2026-04-11T10:14:23.269Z</time></trkpt><trkpt lat="45.0285967" lon="8.112575"><ele>181.0</ele><time>2026-04-11T10:14:25.269Z</time></trkpt><trkpt lat="45.0285317" lon="8.11261"><ele>181.0</ele><time>2026-04-11T10:14:27.27Z</time></trkpt><trkpt lat="45.0284633" lon="8.1126517"><ele>181.0</ele><time>2026-04-11T10:15:59.268Z</time></trkpt><trkpt lat="45.0283633" lon="8.1126867"><ele>181.0</ele><time>2026-04-11T10:16:10.269Z</time></trkpt><trkpt lat="45.0283067" lon="8.11273"><ele>181.0</ele><time>2026-04-11T10:16:16.268Z</time></trkpt><trkpt lat="45.0282217" lon="8.1127717"><ele>181.0</ele><time>2026-04-11T10:16:24.268Z</time></trkpt><trkpt lat="45.02815" lon="8.11283"><ele>182.8</ele><time>2026-04-11T10:16:29.268Z</time></trkpt><trkpt lat="45.02809" lon="8.1128833"><ele>184.60000000000002</ele><time>2026-04-11T10:16:31.268Z</time></trkpt><trkpt lat="45.0280233" lon="8.1129483"><ele>186.4</ele><time>2026-04-11T10:16:34.268Z</time></trkpt><trkpt lat="45.0279067" lon="8.1129833"><ele>188.2</ele><time>2026-04-11T10:16:50.268Z</time></trkpt><trkpt lat="45.0278117" lon="8.1129833"><ele>190.0</ele><time>2026-04-11T10:24:22.267Z</time></trkpt><trkpt lat="45.0277267" lon="8.1130283"><ele>190.0</ele><time>2026-04-11T10:24:25.266Z</time></trkpt><trkpt lat="45.027635" lon="8.11307"><ele>190.0</ele><time>2026-04-11T10:24:28.266Z</time></trkpt><trkpt lat="45.027555" lon="8.113095"><ele>190.0</ele><time>2026-04-11T10:24:31.266Z</time></trkpt><trkpt lat="45.0275117" lon="8.1131933"><ele>190.0</ele><time>2026-04-11T10:28:29.266Z</time></trkpt><trkpt lat="45.0274383" lon="8.11325"><ele>190.0</ele><time>2026-04-11T10:28:31.265Z</time></trkpt><trkpt lat="45.027375" lon="8.1133"><ele>190.0</ele><time>2026-04-11T10:28:33.265Z</time></trkpt><trkpt lat="45.0272617" lon="8.1133917"><ele>191.8</ele><time>2026-04-11T10:29:23.265Z</time></trkpt><trkpt lat="45.0271983" lon="8.1134217"><ele>193.6</ele><time>2026-04-11T10:29:46.264Z</time></trkpt><trkpt lat="45.0271383" lon="8.1134633"><ele>195.39999999999998</ele><time>2026-04-11T10:29:48.264Z</time></trkpt><trkpt lat="45.0270583" lon="8.113525"><ele>197.2</ele><time>2026-04-11T10:30:30.264Z</time></trkpt><trkpt lat="45.0269617" lon="8.1135683"><ele>199.0</ele><time>2026-04-11T10:30:32.264Z</time></trkpt><trkpt lat="45.0268083" lon="8.1137017"><ele>198.99999999999997</ele><time>2026-04-11T10:30:35.264Z</time></trkpt><trkpt lat="45.02675" lon="8.1137617"><ele>199.0</ele><time>2026-04-11T10:30:36.264Z</time></trkpt><trkpt lat="45.02669" lon="8.11382"><ele>199.0</ele><time>2026-04-11T10:30:37.265Z</time></trkpt><trkpt lat="45.0265933" lon="8.1139067"><ele>199.0</ele><time>2026-04-11T10:30:39.264Z</time></trkpt><trkpt lat="45.0265367" lon="8.113955"><ele>198.99999999999997</ele><time>2026-04-11T10:30:40.264Z</time></trkpt><trkpt lat="45.0264883" lon="8.1140183"><ele>199.0</ele><time>2026-04-11T10:30:41.264Z</time></trkpt><trkpt lat="45.0264217" lon="8.1140933"><ele>199.6</ele><time>2026-04-11T10:30:43.265Z</time></trkpt><trkpt lat="45.0263833" lon="8.11418"><ele>200.2</ele><time>2026-04-11T10:30:57.264Z</time></trkpt><trkpt lat="45.02631" lon="8.114305"><ele>200.79999999999998</ele><time>2026-04-11T10:30:59.264Z</time></trkpt><trkpt lat="45.0262517" lon="8.1143767"><ele>201.39999999999998</ele><time>2026-04-11T10:31:00.265Z</time></trkpt><trkpt lat="45.0261883" lon="8.11445"><ele>202.0</ele><time>2026-04-11T10:31:01.265Z</time></trkpt><trkpt lat="45.0259983" lon="8.1147167"><ele>202.0</ele><time>2026-04-11T10:31:04.264Z</time></trkpt><trkpt lat="45.0259367" lon="8.11479"><ele>202.0</ele><time>2026-04-11T10:31:05.264Z</time></trkpt><trkpt lat="45.0258717" lon="8.11487"><ele>202.0</ele><time>2026-04-11T10:31:06.265Z</time></trkpt><trkpt lat="45.0257967" lon="8.11493"><ele>202.0</ele><time>2026-04-11T10:31:07.264Z</time></trkpt><trkpt lat="45.0257217" lon="8.1149733"><ele>202.0</ele><time>2026-04-11T10:31:08.264Z</time></trkpt><trkpt lat="45.0254733" lon="8.1151333"><ele>203.2</ele><time>2026-04-11T10:31:11.264Z</time></trkpt><trkpt lat="45.0253867" lon="8.1151933"><ele>204.39999999999998</ele><time>2026-04-11T10:31:12.264Z</time></trkpt><trkpt lat="45.0252967" lon="8.1152467"><ele>205.60000000000002</ele><time>2026-04-11T10:31:13.264Z</time></trkpt><trkpt lat="45.0252067" lon="8.1152833"><ele>206.8</ele><time>2026-04-11T10:31:14.265Z</time></trkpt><trkpt lat="45.02511" lon="8.1153"><ele>208.0</ele><time>2026-04-11T10:31:15.265Z</time></trkpt><trkpt lat="45.025015" lon="8.11532"><ele>208.4</ele><time>2026-04-11T10:31:16.264Z</time></trkpt><trkpt lat="45.0249083" lon="8.11534"><ele>208.8</ele><time>2026-04-11T10:31:17.264Z</time></trkpt><trkpt lat="45.0247967" lon="8.1153467"><ele>209.2</ele><time>2026-04-11T10:31:18.265Z</time></trkpt><trkpt lat="45.0246867" lon="8.1153567"><ele>209.6</ele><time>2026-04-11T10:31:19.264Z</time></trkpt><trkpt lat="45.0245733" lon="8.1153583"><ele>210.0</ele><time>2026-04-11T10:31:20.264Z</time></trkpt><trkpt lat="45.0244767" lon="8.1153567"><ele>210.0</ele><time>2026-04-11T10:31:21.265Z</time></trkpt><trkpt lat="45.0243933" lon="8.1153517"><ele>210.0</ele><time>2026-04-11T10:31:22.264Z</time></trkpt><trkpt lat="45.024325" lon="8.1153383"><ele>210.0</ele><time>2026-04-11T10:31:23.264Z</time></trkpt><trkpt lat="45.02418" lon="8.1153133"><ele>210.0</ele><time>2026-04-11T10:31:26.265Z</time></trkpt><trkpt lat="45.0240967" lon="8.1153167"><ele>210.0</ele><time>2026-04-11T10:32:38.264Z</time></trkpt><trkpt lat="45.023985" lon="8.115295"><ele>211.5</ele><time>2026-04-11T10:32:40.265Z</time></trkpt><trkpt lat="45.0239167" lon="8.1152767"><ele>213.0</ele><time>2026-04-11T10:32:41.264Z</time></trkpt><trkpt lat="45.02384" lon="8.1152533"><ele>214.5</ele><time>2026-04-11T10:32:42.265Z</time></trkpt><trkpt lat="45.0237617" lon="8.1152467"><ele>216.0</ele><time>2026-04-11T10:32:43.264Z</time></trkpt><trkpt lat="45.0235383" lon="8.11525"><ele>216.0</ele><time>2026-04-11T10:32:46.264Z</time></trkpt><trkpt lat="45.0234633" lon="8.1152517"><ele>216.0</ele><time>2026-04-11T10:32:47.264Z</time></trkpt><trkpt lat="45.023385" lon="8.1152667"><ele>216.0</ele><time>2026-04-11T10:32:48.264Z</time></trkpt><trkpt lat="45.0233067" lon="8.1152867"><ele>216.0</ele><time>2026-04-11T10:32:49.264Z</time></trkpt><trkpt lat="45.0232283" lon="8.1153"><ele>216.0</ele><time>2026-04-11T10:32:50.265Z</time></trkpt><trkpt lat="45.02315" lon="8.1153"><ele>216.0</ele><time>2026-04-11T10:32:51.264Z</time></trkpt><trkpt lat="45.0230667" lon="8.115305"><ele>217.16666666666666</ele><time>2026-04-11T10:32:52.265Z</time></trkpt><trkpt lat="45.0229833" lon="8.11532"><ele>218.33333333333331</ele><time>2026-04-11T10:32:53.265Z</time></trkpt><trkpt lat="45.0228917" lon="8.1153367"><ele>219.5</ele><time>2026-04-11T10:32:54.264Z</time></trkpt><trkpt lat="45.0228017" lon="8.1153467"><ele>220.66666666666666</ele><time>2026-04-11T10:32:55.265Z</time></trkpt><trkpt lat="45.0227217" lon="8.1153833"><ele>221.83333333333331</ele><time>2026-04-11T10:32:56.265Z</time></trkpt><trkpt lat="45.0226383" lon="8.1154133"><ele>223.0</ele><time>2026-04-11T10:32:57.265Z</time></trkpt><trkpt lat="45.0225583" lon="8.11543"><ele>222.99999999999997</ele><time>2026-04-11T10:32:58.264Z</time></trkpt><trkpt lat="45.0224933" lon="8.1154517"><ele>223.0</ele><time>2026-04-11T10:32:59.264Z</time></trkpt><trkpt lat="45.0224267" lon="8.11547"><ele>223.0</ele><time>2026-04-11T10:33:00.264Z</time></trkpt><trkpt lat="45.02235" lon="8.1154833"><ele>223.0</ele><time>2026-04-11T10:33:01.264Z</time></trkpt><trkpt lat="45.0222833" lon="8.1154917"><ele>222.99999999999997</ele><time>2026-04-11T10:33:02.264Z</time></trkpt><trkpt lat="45.0222017" lon="8.1155033"><ele>223.0</ele><time>2026-04-11T10:33:03.265Z</time></trkpt><trkpt lat="45.0221117" lon="8.115505"><ele>223.60000000000002</ele><time>2026-04-11T10:33:04.264Z</time></trkpt><trkpt lat="45.0220183" lon="8.1154983"><ele>224.20000000000002</ele><time>2026-04-11T10:33:05.264Z</time></trkpt><trkpt lat="45.0219233" lon="8.1154733"><ele>224.8</ele><time>2026-04-11T10:33:06.264Z</time></trkpt><trkpt lat="45.02183" lon="8.115435"><ele>225.4</ele><time>2026-04-11T10:33:07.264Z</time></trkpt><trkpt lat="45.0217333" lon="8.1154183"><ele>226.0</ele><time>2026-04-11T10:33:08.264Z</time></trkpt><trkpt lat="45.0216383" lon="8.1154117"><ele>224.8</ele><time>2026-04-11T10:33:09.264Z</time></trkpt><trkpt lat="45.0215467" lon="8.1154117"><ele>223.60000000000002</ele><time>2026-04-11T10:33:10.264Z</time></trkpt><trkpt lat="45.021455" lon="8.1154383"><ele>222.4</ele><time>2026-04-11T10:33:11.264Z</time></trkpt><trkpt lat="45.0213583" lon="8.1154533"><ele>221.2</ele><time>2026-04-11T10:33:12.265Z</time></trkpt><trkpt lat="45.0212633" lon="8.1154933"><ele>220.0</ele><time>2026-04-11T10:33:13.264Z</time></trkpt><trkpt lat="45.0211667" lon="8.1155483"><ele>220.0</ele><time>2026-04-11T10:33:14.264Z</time></trkpt><trkpt lat="45.0210683" lon="8.115615"><ele>220.0</ele><time>2026-04-11T10:33:15.265Z</time></trkpt><trkpt lat="45.0209733" lon="8.1156833"><ele>220.0</ele><time>2026-04-11T10:33:16.264Z</time></trkpt><trkpt lat="45.02089" lon="8.1157833"><ele>220.0</ele><time>2026-04-11T10:33:17.264Z</time></trkpt><trkpt lat="45.0208067" lon="8.1158683"><ele>220.0</ele><time>2026-04-11T10:33:18.265Z</time></trkpt><trkpt lat="45.0207283" lon="8.1159533"><ele>220.2</ele><time>2026-04-11T10:33:19.264Z</time></trkpt><trkpt lat="45.0206517" lon="8.11605"><ele>220.4</ele><time>2026-04-11T10:33:20.264Z</time></trkpt><trkpt lat="45.0205767" lon="8.11615"><ele>220.60000000000002</ele><time>2026-04-11T10:33:21.265Z</time></trkpt><trkpt lat="45.020505" lon="8.1162467"><ele>220.8</ele><time>2026-04-11T10:33:22.264Z</time></trkpt><trkpt lat="45.020425" lon="8.11634"><ele>221.0</ele><time>2026-04-11T10:33:23.265Z</time></trkpt><trkpt lat="45.0203417" lon="8.1164283"><ele>221.0</ele><time>2026-04-11T10:33:24.263Z</time></trkpt><trkpt lat="45.0202617" lon="8.116525"><ele>221.00000000000003</ele><time>2026-04-11T10:33:25.263Z</time></trkpt><trkpt lat="45.0201867" lon="8.1166117"><ele>221.00000000000003</ele><time>2026-04-11T10:33:26.264Z</time></trkpt><trkpt lat="45.0201083" lon="8.116695"><ele>221.0</ele><time>2026-04-11T10:33:27.264Z</time></trkpt><trkpt lat="45.020035" lon="8.1167783"><ele>221.0</ele><time>2026-04-11T10:33:28.263Z</time></trkpt><trkpt lat="45.0199517" lon="8.11686"><ele>221.20000000000002</ele><time>2026-04-11T10:33:29.263Z</time></trkpt><trkpt lat="45.0198667" lon="8.1169533"><ele>221.40000000000003</ele><time>2026-04-11T10:33:30.263Z</time></trkpt><trkpt lat="45.0197867" lon="8.11706"><ele>221.6</ele><time>2026-04-11T10:33:31.263Z</time></trkpt><trkpt lat="45.0197133" lon="8.1171533"><ele>221.8</ele><time>2026-04-11T10:33:32.263Z</time></trkpt><trkpt lat="45.0196433" lon="8.11726"><ele>222.0</ele><time>2026-04-11T10:33:33.263Z</time></trkpt><trkpt lat="45.019575" lon="8.1173517"><ele>225.0</ele><time>2026-04-11T10:33:34.263Z</time></trkpt><trkpt lat="45.0195033" lon="8.1174483"><ele>228.0</ele><time>2026-04-11T10:33:35.264Z</time></trkpt><trkpt lat="45.0194283" lon="8.1175267"><ele>231.0</ele><time>2026-04-11T10:33:36.263Z</time></trkpt><trkpt lat="45.0193517" lon="8.11759"><ele>234.0</ele><time>2026-04-11T10:33:37.263Z</time></trkpt><trkpt lat="45.019265" lon="8.11763"><ele>237.0</ele><time>2026-04-11T10:33:38.263Z</time></trkpt><trkpt lat="45.019185" lon="8.11768"><ele>237.0</ele><time>2026-04-11T10:33:39.263Z</time></trkpt><trkpt lat="45.0190933" lon="8.1177217"><ele>237.0</ele><time>2026-04-11T10:33:40.263Z</time></trkpt><trkpt lat="45.01899" lon="8.1177517"><ele>237.0</ele><time>2026-04-11T10:33:41.263Z</time></trkpt><trkpt lat="45.0188783" lon="8.1177683"><ele>237.0</ele><time>2026-04-11T10:33:42.263Z</time></trkpt><trkpt lat="45.01877" lon="8.1177667"><ele>237.0</ele><time>2026-04-11T10:33:43.263Z</time></trkpt><trkpt lat="45.0186483" lon="8.117765"><ele>237.0</ele><time>2026-04-11T10:33:44.263Z</time></trkpt><trkpt lat="45.0185217" lon="8.1177617"><ele>237.0</ele><time>2026-04-11T10:33:45.263Z</time></trkpt><trkpt lat="45.0184" lon="8.11774"><ele>237.0</ele><time>2026-04-11T10:33:46.264Z</time></trkpt><trkpt lat="45.01828" lon="8.1177267"><ele>237.0</ele><time>2026-04-11T10:33:47.263Z</time></trkpt><trkpt lat="45.0181683" lon="8.117715"><ele>237.0</ele><time>2026-04-11T10:33:48.263Z</time></trkpt><trkpt lat="45.0180633" lon="8.1177383"><ele>237.0</ele><time>2026-04-11T10:33:49.263Z</time></trkpt><trkpt lat="45.0179483" lon="8.1177783"><ele>237.0</ele><time>2026-04-11T10:33:50.263Z</time></trkpt><trkpt lat="45.0178267" lon="8.1178317"><ele>237.0</ele><time>2026-04-11T10:33:51.264Z</time></trkpt><trkpt lat="45.0177233" lon="8.1178733"><ele>237.0</ele><time>2026-04-11T10:33:52.263Z</time></trkpt><trkpt lat="45.0176167" lon="8.117895"><ele>237.0</ele><time>2026-04-11T10:33:53.263Z</time></trkpt><trkpt lat="45.017525" lon="8.1179233"><ele>237.0</ele><time>2026-04-11T10:33:54.263Z</time></trkpt><trkpt lat="45.0174433" lon="8.11795"><ele>237.0</ele><time>2026-04-11T10:33:55.263Z</time></trkpt><trkpt lat="45.0173567" lon="8.1179933"><ele>237.0</ele><time>2026-04-11T10:33:56.263Z</time></trkpt><trkpt lat="45.0172633" lon="8.1180267"><ele>237.6</ele><time>2026-04-11T10:33:57.263Z</time></trkpt><trkpt lat="45.0171617" lon="8.118055"><ele>238.2</ele><time>2026-04-11T10:33:58.263Z</time></trkpt><trkpt lat="45.0170583" lon="8.1180783"><ele>238.8</ele><time>2026-04-11T10:33:59.263Z</time></trkpt><trkpt lat="45.0169567" lon="8.1180883"><ele>239.4</ele><time>2026-04-11T10:34:00.263Z</time></trkpt><trkpt lat="45.0168633" lon="8.1180983"><ele>240.0</ele><time>2026-04-11T10:34:01.264Z</time></trkpt><trkpt lat="45.0167683" lon="8.118105"><ele>240.0</ele><time>2026-04-11T10:34:02.263Z</time></trkpt><trkpt lat="45.0166717" lon="8.1181233"><ele>240.0</ele><time>2026-04-11T10:34:03.263Z</time></trkpt><trkpt lat="45.0165917" lon="8.118155"><ele>240.0</ele><time>2026-04-11T10:34:04.263Z</time></trkpt><trkpt lat="45.0165067" lon="8.1181867"><ele>240.0</ele><time>2026-04-11T10:34:05.264Z</time></trkpt><trkpt lat="45.0164167" lon="8.118235"><ele>240.0</ele><time>2026-04-11T10:34:06.263Z</time></trkpt><trkpt lat="45.0163217" lon="8.118295"><ele>240.0</ele><time>2026-04-11T10:34:07.263Z</time></trkpt><trkpt lat="45.01624" lon="8.1183483"><ele>240.0</ele><time>2026-04-11T10:34:08.263Z</time></trkpt><trkpt lat="45.0161683" lon="8.118405"><ele>240.0</ele><time>2026-04-11T10:34:09.263Z</time></trkpt><trkpt lat="45.016105" lon="8.1184533"><ele>240.0</ele><time>2026-04-11T10:34:10.264Z</time></trkpt><trkpt lat="45.0160467" lon="8.1184983"><ele>240.0</ele><time>2026-04-11T10:34:11.263Z</time></trkpt><trkpt lat="45.0159917" lon="8.1185417"><ele>240.0</ele><time>2026-04-11T10:34:12.263Z</time></trkpt><trkpt lat="45.01588" lon="8.1186083"><ele>240.8</ele><time>2026-04-11T10:34:14.264Z</time></trkpt><trkpt lat="45.0157467" lon="8.118675"><ele>241.6</ele><time>2026-04-11T10:34:16.263Z</time></trkpt><trkpt lat="45.0156617" lon="8.1187217"><ele>242.39999999999998</ele><time>2026-04-11T10:34:17.264Z</time></trkpt><trkpt lat="45.01557" lon="8.1187867"><ele>243.2</ele><time>2026-04-11T10:34:18.263Z</time></trkpt><trkpt lat="45.0154683" lon="8.11886"><ele>244.0</ele><time>2026-04-11T10:34:19.263Z</time></trkpt><trkpt lat="45.015355" lon="8.1189533"><ele>244.0</ele><time>2026-04-11T10:34:20.264Z</time></trkpt><trkpt lat="45.0152483" lon="8.1190567"><ele>244.0</ele><time>2026-04-11T10:34:21.264Z</time></trkpt><trkpt lat="45.0151433" lon="8.119165"><ele>244.0</ele><time>2026-04-11T10:34:22.263Z</time></trkpt><trkpt lat="45.0150533" lon="8.1192717"><ele>244.0</ele><time>2026-04-11T10:34:23.263Z</time></trkpt><trkpt lat="45.014795" lon="8.1195517"><ele>246.0</ele><time>2026-04-11T10:34:26.263Z</time></trkpt><trkpt lat="45.01471" lon="8.1196417"><ele>248.0</ele><time>2026-04-11T10:34:27.264Z</time></trkpt><trkpt lat="45.0146133" lon="8.119725"><ele>250.0</ele><time>2026-04-11T10:34:28.263Z</time></trkpt><trkpt lat="45.0145167" lon="8.1198133"><ele>252.0</ele><time>2026-04-11T10:34:29.264Z</time></trkpt><trkpt lat="45.014415" lon="8.1198983"><ele>251.39999999999998</ele><time>2026-04-11T10:34:30.263Z</time></trkpt><trkpt lat="45.014325" lon="8.1199717"><ele>250.79999999999998</ele><time>2026-04-11T10:34:31.264Z</time></trkpt><trkpt lat="45.0142367" lon="8.1200417"><ele>250.2</ele><time>2026-04-11T10:34:32.263Z</time></trkpt><trkpt lat="45.014155" lon="8.1200933"><ele>249.6</ele><time>2026-04-11T10:34:33.263Z</time></trkpt><trkpt lat="45.0140583" lon="8.1201333"><ele>249.0</ele><time>2026-04-11T10:34:34.263Z</time></trkpt><trkpt lat="45.0139633" lon="8.1201583"><ele>250.6</ele><time>2026-04-11T10:34:35.263Z</time></trkpt><trkpt lat="45.0138717" lon="8.1201933"><ele>252.2</ele><time>2026-04-11T10:34:36.263Z</time></trkpt><trkpt lat="45.0137783" lon="8.12022"><ele>253.79999999999998</ele><time>2026-04-11T10:34:37.263Z</time></trkpt><trkpt lat="45.013685" lon="8.1202467"><ele>255.39999999999998</ele><time>2026-04-11T10:34:38.263Z</time></trkpt><trkpt lat="45.0135967" lon="8.120265"><ele>257.0</ele><time>2026-04-11T10:34:39.263Z</time></trkpt><trkpt lat="45.0135117" lon="8.1202733"><ele>257.0</ele><time>2026-04-11T10:34:40.263Z</time></trkpt><trkpt lat="45.01342" lon="8.12026"><ele>257.0</ele><time>2026-04-11T10:34:41.264Z</time></trkpt><trkpt lat="45.0133283" lon="8.1202367"><ele>257.0</ele><time>2026-04-11T10:34:42.263Z</time></trkpt><trkpt lat="45.0132333" lon="8.1202233"><ele>257.0</ele><time>2026-04-11T10:34:43.263Z</time></trkpt><trkpt lat="45.01313" lon="8.1202083"><ele>257.0</ele><time>2026-04-11T10:34:44.263Z</time></trkpt><trkpt lat="45.0130267" lon="8.1201983"><ele>256.83333333333337</ele><time>2026-04-11T10:34:45.264Z</time></trkpt><trkpt lat="45.0129267" lon="8.1201833"><ele>256.6666666666667</ele><time>2026-04-11T10:34:46.264Z</time></trkpt><trkpt lat="45.0128417" lon="8.120175"><ele>256.5</ele><time>2026-04-11T10:34:47.263Z</time></trkpt><trkpt lat="45.0127583" lon="8.12016"><ele>256.3333333333333</ele><time>2026-04-11T10:34:48.263Z</time></trkpt><trkpt lat="45.012685" lon="8.1201483"><ele>256.16666666666663</ele><time>2026-04-11T10:34:49.263Z</time></trkpt><trkpt lat="45.012605" lon="8.1201317"><ele>256.0</ele><time>2026-04-11T10:34:50.263Z</time></trkpt><trkpt lat="45.012515" lon="8.12011"><ele>256.0</ele><time>2026-04-11T10:34:51.263Z</time></trkpt><trkpt lat="45.0124217" lon="8.1200783"><ele>256.0</ele><time>2026-04-11T10:34:52.263Z</time></trkpt><trkpt lat="45.0123383" lon="8.1200467"><ele>256.0</ele><time>2026-04-11T10:34:53.264Z</time></trkpt><trkpt lat="45.01227" lon="8.1200017"><ele>256.0</ele><time>2026-04-11T10:34:54.263Z</time></trkpt><trkpt lat="45.01221" lon="8.11996"><ele>256.0</ele><time>2026-04-11T10:34:55.263Z</time></trkpt><trkpt lat="45.0120933" lon="8.119875"><ele>256.0</ele><time>2026-04-11T10:34:58.264Z</time></trkpt><trkpt lat="45.01203" lon="8.1198383"><ele>256.0</ele><time>2026-04-11T10:35:01.263Z</time></trkpt><trkpt lat="45.0120783" lon="8.1199667"><ele>256.0</ele><time>2026-04-11T10:35:05.264Z</time></trkpt><trkpt lat="45.0121467" lon="8.1200267"><ele>256.0</ele><time>2026-04-11T10:35:06.263Z</time></trkpt><trkpt lat="45.0122267" lon="8.1201"><ele>256.0</ele><time>2026-04-11T10:35:07.263Z</time></trkpt><trkpt lat="45.01232" lon="8.1201633"><ele>256.0</ele><time>2026-04-11T10:35:08.263Z</time></trkpt><trkpt lat="45.0124067" lon="8.120215"><ele>256.0</ele><time>2026-04-11T10:35:09.264Z</time></trkpt><trkpt lat="45.012495" lon="8.120275"><ele>256.0</ele><time>2026-04-11T10:35:10.263Z</time></trkpt><trkpt lat="45.0125817" lon="8.1203433"><ele>256.0</ele><time>2026-04-11T10:35:11.264Z</time></trkpt><trkpt lat="45.0126667" lon="8.120435"><ele>256.0</ele><time>2026-04-11T10:35:12.264Z</time></trkpt><trkpt lat="45.012745" lon="8.12052"><ele>255.99999999999997</ele><time>2026-04-11T10:35:13.263Z</time></trkpt><trkpt lat="45.012815" lon="8.12061"><ele>256.0</ele><time>2026-04-11T10:35:14.263Z</time></trkpt><trkpt lat="45.0128683" lon="8.12069"><ele>256.0</ele><time>2026-04-11T10:35:15.263Z</time></trkpt><trkpt lat="45.012925" lon="8.1207617"><ele>256.0</ele><time>2026-04-11T10:35:16.264Z</time></trkpt><trkpt lat="45.01298" lon="8.1208167"><ele>255.99999999999997</ele><time>2026-04-11T10:35:17.263Z</time></trkpt><trkpt lat="45.0130583" lon="8.1209133"><ele>256.0</ele><time>2026-04-11T10:35:19.264Z</time></trkpt><trkpt lat="45.0131233" lon="8.12099"><ele>254.20000000000002</ele><time>2026-04-11T10:35:21.263Z</time></trkpt><trkpt lat="45.01319" lon="8.1210617"><ele>252.40000000000003</ele><time>2026-04-11T10:35:23.263Z</time></trkpt><trkpt lat="45.0132633" lon="8.1211433"><ele>250.6</ele><time>2026-04-11T10:35:25.263Z</time></trkpt><trkpt lat="45.0133467" lon="8.121235"><ele>248.8</ele><time>2026-04-11T10:35:27.263Z</time></trkpt><trkpt lat="45.0134417" lon="8.1213733"><ele>247.0</ele><time>2026-04-11T10:35:29.263Z</time></trkpt><trkpt lat="45.0134983" lon="8.1214517"><ele>247.0</ele><time>2026-04-11T10:35:30.264Z</time></trkpt><trkpt lat="45.01356" lon="8.1215333"><ele>247.0</ele><time>2026-04-11T10:35:31.264Z</time></trkpt><trkpt lat="45.0136183" lon="8.12162"><ele>247.0</ele><time>2026-04-11T10:35:32.264Z</time></trkpt><trkpt lat="45.01367" lon="8.1217083"><ele>247.0</ele><time>2026-04-11T10:35:33.264Z</time></trkpt><trkpt lat="45.0137183" lon="8.1217867"><ele>247.0</ele><time>2026-04-11T10:35:34.264Z</time></trkpt><trkpt lat="45.01381" lon="8.1219167"><ele>245.42857142857144</ele><time>2026-04-11T10:35:36.263Z</time></trkpt><trkpt lat="45.0138567" lon="8.1219833"><ele>243.85714285714283</ele><time>2026-04-11T10:35:37.263Z</time></trkpt><trkpt lat="45.013905" lon="8.1220417"><ele>242.28571428571428</ele><time>2026-04-11T10:35:38.263Z</time></trkpt><trkpt lat="45.0139583" lon="8.1221017"><ele>240.71428571428572</ele><time>2026-04-11T10:35:39.263Z</time></trkpt><trkpt lat="45.01401" lon="8.1221733"><ele>239.14285714285717</ele><time>2026-04-11T10:35:40.263Z</time></trkpt><trkpt lat="45.0140567" lon="8.1222483"><ele>237.57142857142856</ele><time>2026-04-11T10:35:41.263Z</time></trkpt><trkpt lat="45.014095" lon="8.12233"><ele>236.0</ele><time>2026-04-11T10:35:42.263Z</time></trkpt><trkpt lat="45.0141267" lon="8.1224083"><ele>235.0</ele><time>2026-04-11T10:35:43.264Z</time></trkpt><trkpt lat="45.0141867" lon="8.1225567"><ele>234.00000000000003</ele><time>2026-04-11T10:35:45.263Z</time></trkpt><trkpt lat="45.0142567" lon="8.1227067"><ele>233.00000000000003</ele><time>2026-04-11T10:35:47.263Z</time></trkpt><trkpt lat="45.0143033" lon="8.12278"><ele>232.0</ele><time>2026-04-11T10:35:48.263Z</time></trkpt><trkpt lat="45.0143517" lon="8.1228533"><ele>231.0</ele><time>2026-04-11T10:35:49.263Z</time></trkpt><trkpt lat="45.01441" lon="8.1229317"><ele>231.0</ele><time>2026-04-11T10:35:50.263Z</time></trkpt><trkpt lat="45.0144667" lon="8.12301"><ele>231.0</ele><time>2026-04-11T10:35:51.263Z</time></trkpt><trkpt lat="45.01453" lon="8.1230867"><ele>231.0</ele><time>2026-04-11T10:35:52.263Z</time></trkpt><trkpt lat="45.0146017" lon="8.1231533"><ele>231.0</ele><time>2026-04-11T10:35:53.264Z</time></trkpt><trkpt lat="45.0146867" lon="8.123205"><ele>231.0</ele><time>2026-04-11T10:35:54.263Z</time></trkpt><trkpt lat="45.0147683" lon="8.12326"><ele>231.0</ele><time>2026-04-11T10:35:55.264Z</time></trkpt><trkpt lat="45.0148433" lon="8.1233133"><ele>229.20000000000002</ele><time>2026-04-11T10:35:56.263Z</time></trkpt><trkpt lat="45.0149283" lon="8.12338"><ele>227.40000000000003</ele><time>2026-04-11T10:35:57.263Z</time></trkpt><trkpt lat="45.0150067" lon="8.1234433"><ele>225.6</ele><time>2026-04-11T10:35:58.263Z</time></trkpt><trkpt lat="45.015085" lon="8.1234967"><ele>223.8</ele><time>2026-04-11T10:35:59.263Z</time></trkpt><trkpt lat="45.01516" lon="8.1235583"><ele>222.0</ele><time>2026-04-11T10:36:00.264Z</time></trkpt><trkpt lat="45.0152333" lon="8.1236317"><ele>221.16666666666666</ele><time>2026-04-11T10:36:01.263Z</time></trkpt><trkpt lat="45.0153" lon="8.123715"><ele>220.33333333333331</ele><time>2026-04-11T10:36:02.264Z</time></trkpt><trkpt lat="45.0153683" lon="8.1238067"><ele>219.5</ele><time>2026-04-11T10:36:03.263Z</time></trkpt><trkpt lat="45.0154283" lon="8.1239033"><ele>218.66666666666666</ele><time>2026-04-11T10:36:04.263Z</time></trkpt><trkpt lat="45.01549" lon="8.1239833"><ele>217.83333333333331</ele><time>2026-04-11T10:36:05.264Z</time></trkpt><trkpt lat="45.0155483" lon="8.1240583"><ele>217.0</ele><time>2026-04-11T10:36:06.263Z</time></trkpt><trkpt lat="45.0156083" lon="8.1241517"><ele>216.8</ele><time>2026-04-11T10:36:07.263Z</time></trkpt><trkpt lat="45.015675" lon="8.1242533"><ele>216.6</ele><time>2026-04-11T10:36:08.263Z</time></trkpt><trkpt lat="45.0157417" lon="8.12436"><ele>216.40000000000003</ele><time>2026-04-11T10:36:09.263Z</time></trkpt><trkpt lat="45.0157983" lon="8.12447"><ele>216.20000000000002</ele><time>2026-04-11T10:36:10.263Z</time></trkpt><trkpt lat="45.0158567" lon="8.1245867"><ele>216.0</ele><time>2026-04-11T10:36:11.263Z</time></trkpt><trkpt lat="45.0159217" lon="8.124705"><ele>215.4</ele><time>2026-04-11T10:36:12.263Z</time></trkpt><trkpt lat="45.0159867" lon="8.124825"><ele>214.8</ele><time>2026-04-11T10:36:13.264Z</time></trkpt><trkpt lat="45.0160583" lon="8.1249333"><ele>214.20000000000002</ele><time>2026-04-11T10:36:14.264Z</time></trkpt><trkpt lat="45.0161333" lon="8.1250467"><ele>213.60000000000002</ele><time>2026-04-11T10:36:15.263Z</time></trkpt><trkpt lat="45.0162083" lon="8.1251567"><ele>213.0</ele><time>2026-04-11T10:36:16.263Z</time></trkpt><trkpt lat="45.0162783" lon="8.12526"><ele>213.0</ele><time>2026-04-11T10:36:17.263Z</time></trkpt><trkpt lat="45.01635" lon="8.1253617"><ele>213.0</ele><time>2026-04-11T10:36:18.263Z</time></trkpt><trkpt lat="45.0164183" lon="8.1254667"><ele>213.0</ele><time>2026-04-11T10:36:19.263Z</time></trkpt><trkpt lat="45.0164833" lon="8.1255667"><ele>213.0</ele><time>2026-04-11T10:36:20.263Z</time></trkpt><trkpt lat="45.0165533" lon="8.1256483"><ele>213.0</ele><time>2026-04-11T10:36:21.264Z</time></trkpt><trkpt lat="45.01662" lon="8.1257317"><ele>212.83333333333334</ele><time>2026-04-11T10:36:22.263Z</time></trkpt><trkpt lat="45.0166833" lon="8.125805"><ele>212.66666666666669</ele><time>2026-04-11T10:36:23.264Z</time></trkpt><trkpt lat="45.0167533" lon="8.1258817"><ele>212.5</ele><time>2026-04-11T10:36:24.263Z</time></trkpt><trkpt lat="45.01682" lon="8.12595"><ele>212.33333333333334</ele><time>2026-04-11T10:36:25.263Z</time></trkpt><trkpt lat="45.016885" lon="8.1260017"><ele>212.16666666666669</ele><time>2026-04-11T10:36:26.263Z</time></trkpt><trkpt lat="45.0169683" lon="8.1260583"><ele>212.0</ele><time>2026-04-11T10:36:27.264Z</time></trkpt><trkpt lat="45.0170483" lon="8.12613"><ele>212.00000000000003</ele><time>2026-04-11T10:36:28.263Z</time></trkpt><trkpt lat="45.01711" lon="8.126205"><ele>212.0</ele><time>2026-04-11T10:36:29.263Z</time></trkpt><trkpt lat="45.017175" lon="8.1262717"><ele>212.0</ele><time>2026-04-11T10:36:30.263Z</time></trkpt><trkpt lat="45.0172367" lon="8.1263367"><ele>212.0</ele><time>2026-04-11T10:36:31.263Z</time></trkpt><trkpt lat="45.017295" lon="8.1264067"><ele>212.00000000000003</ele><time>2026-04-11T10:36:32.263Z</time></trkpt><trkpt lat="45.0173633" lon="8.1264833"><ele>212.0</ele><time>2026-04-11T10:36:33.263Z</time></trkpt><trkpt lat="45.0174333" lon="8.1265717"><ele>212.39999999999998</ele><time>2026-04-11T10:36:34.263Z</time></trkpt><trkpt lat="45.0175033" lon="8.12665"><ele>212.79999999999998</ele><time>2026-04-11T10:36:35.263Z</time></trkpt><trkpt lat="45.0175783" lon="8.1267333"><ele>213.2</ele><time>2026-04-11T10:36:36.264Z</time></trkpt><trkpt lat="45.01765" lon="8.1268167"><ele>213.6</ele><time>2026-04-11T10:36:37.264Z</time></trkpt><trkpt lat="45.0177283" lon="8.126895"><ele>214.0</ele><time>2026-04-11T10:36:38.264Z</time></trkpt><trkpt lat="45.0178083" lon="8.1269633"><ele>214.0</ele><time>2026-04-11T10:36:39.263Z</time></trkpt><trkpt lat="45.01788" lon="8.12704"><ele>213.99999999999997</ele><time>2026-04-11T10:36:40.264Z</time></trkpt><trkpt lat="45.0179583" lon="8.1271283"><ele>213.99999999999997</ele><time>2026-04-11T10:36:41.263Z</time></trkpt><trkpt lat="45.0180467" lon="8.12721"><ele>214.0</ele><time>2026-04-11T10:36:42.264Z</time></trkpt><trkpt lat="45.0181383" lon="8.127295"><ele>214.0</ele><time>2026-04-11T10:36:43.263Z</time></trkpt><trkpt lat="45.0182267" lon="8.1273817"><ele>212.5</ele><time>2026-04-11T10:36:44.264Z</time></trkpt><trkpt lat="45.01832" lon="8.1274733"><ele>211.0</ele><time>2026-04-11T10:36:45.263Z</time></trkpt><trkpt lat="45.0184217" lon="8.1275533"><ele>209.5</ele><time>2026-04-11T10:36:46.263Z</time></trkpt><trkpt lat="45.0185267" lon="8.12764"><ele>208.0</ele><time>2026-04-11T10:36:47.264Z</time></trkpt><trkpt lat="45.0186267" lon="8.1277417"><ele>208.0</ele><time>2026-04-11T10:36:48.263Z</time></trkpt><trkpt lat="45.01873" lon="8.1278467"><ele>208.0</ele><time>2026-04-11T10:36:49.263Z</time></trkpt><trkpt lat="45.0188333" lon="8.1279417"><ele>208.0</ele><time>2026-04-11T10:36:50.264Z</time></trkpt><trkpt lat="45.0189317" lon="8.1280367"><ele>208.0</ele><time>2026-04-11T10:36:51.263Z</time></trkpt><trkpt lat="45.01903" lon="8.1281317"><ele>207.75</ele><time>2026-04-11T10:36:52.263Z</time></trkpt><trkpt lat="45.0191183" lon="8.1282317"><ele>207.5</ele><time>2026-04-11T10:36:53.264Z</time></trkpt><trkpt lat="45.0192083" lon="8.1283333"><ele>207.25</ele><time>2026-04-11T10:36:54.264Z</time></trkpt><trkpt lat="45.019295" lon="8.128435"><ele>207.0</ele><time>2026-04-11T10:36:55.263Z</time></trkpt><trkpt lat="45.01938" lon="8.1285433"><ele>207.0</ele><time>2026-04-11T10:36:56.264Z</time></trkpt><trkpt lat="45.0194733" lon="8.1286517"><ele>207.0</ele><time>2026-04-11T10:36:57.263Z</time></trkpt><trkpt lat="45.0195583" lon="8.1287617"><ele>207.0</ele><time>2026-04-11T10:36:58.263Z</time></trkpt><trkpt lat="45.019645" lon="8.1288717"><ele>207.0</ele><time>2026-04-11T10:36:59.264Z</time></trkpt><trkpt lat="45.0197333" lon="8.1289767"><ele>206.5</ele><time>2026-04-11T10:37:00.263Z</time></trkpt><trkpt lat="45.0198283" lon="8.1290733"><ele>206.0</ele><time>2026-04-11T10:37:01.263Z</time></trkpt><trkpt lat="45.0199317" lon="8.1291717"><ele>205.5</ele><time>2026-04-11T10:37:02.263Z</time></trkpt><trkpt lat="45.0200317" lon="8.1292533"><ele>205.0</ele><time>2026-04-11T10:37:03.264Z</time></trkpt><trkpt lat="45.0201383" lon="8.1293267"><ele>205.0</ele><time>2026-04-11T10:37:04.262Z</time></trkpt><trkpt lat="45.0202467" lon="8.1293833"><ele>205.0</ele><time>2026-04-11T10:37:05.263Z</time></trkpt><trkpt lat="45.0203517" lon="8.12944"><ele>205.0</ele><time>2026-04-11T10:37:06.262Z</time></trkpt><trkpt lat="45.0204517" lon="8.129505"><ele>205.0</ele><time>2026-04-11T10:37:07.263Z</time></trkpt><trkpt lat="45.02055" lon="8.12959"><ele>205.0</ele><time>2026-04-11T10:37:08.262Z</time></trkpt><trkpt lat="45.0206433" lon="8.1296817"><ele>205.0</ele><time>2026-04-11T10:37:09.263Z</time></trkpt><trkpt lat="45.0207367" lon="8.1297733"><ele>205.0</ele><time>2026-04-11T10:37:10.262Z</time></trkpt><trkpt lat="45.0208267" lon="8.1298617"><ele>205.0</ele><time>2026-04-11T10:37:11.262Z</time></trkpt><trkpt lat="45.020905" lon="8.1299567"><ele>205.0</ele><time>2026-04-11T10:37:12.262Z</time></trkpt><trkpt lat="45.0209733" lon="8.1300517"><ele>204.66666666666666</ele><time>2026-04-11T10:37:13.262Z</time></trkpt><trkpt lat="45.0210317" lon="8.13015"><ele>204.33333333333331</ele><time>2026-04-11T10:37:14.262Z</time></trkpt><trkpt lat="45.0210883" lon="8.130225"><ele>204.0</ele><time>2026-04-11T10:37:15.262Z</time></trkpt><trkpt lat="45.0211367" lon="8.13031"><ele>203.66666666666669</ele><time>2026-04-11T10:37:16.262Z</time></trkpt><trkpt lat="45.0211833" lon="8.130385"><ele>203.33333333333334</ele><time>2026-04-11T10:37:17.262Z</time></trkpt><trkpt lat="45.0212333" lon="8.13047"><ele>203.0</ele><time>2026-04-11T10:37:18.262Z</time></trkpt><trkpt lat="45.02129" lon="8.1305567"><ele>203.00000000000003</ele><time>2026-04-11T10:37:19.262Z</time></trkpt><trkpt lat="45.02135" lon="8.1306417"><ele>203.0</ele><time>2026-04-11T10:37:20.262Z</time></trkpt><trkpt lat="45.0213983" lon="8.1307467"><ele>203.0</ele><time>2026-04-11T10:37:21.262Z</time></trkpt><trkpt lat="45.02145" lon="8.13085"><ele>203.0</ele><time>2026-04-11T10:37:22.263Z</time></trkpt><trkpt lat="45.021485" lon="8.1309633"><ele>203.00000000000003</ele><time>2026-04-11T10:37:23.262Z</time></trkpt><trkpt lat="45.02152" lon="8.1310783"><ele>203.0</ele><time>2026-04-11T10:37:24.262Z</time></trkpt><trkpt lat="45.0215517" lon="8.1311867"><ele>201.5</ele><time>2026-04-11T10:37:25.262Z</time></trkpt><trkpt lat="45.02158" lon="8.1313017"><ele>200.0</ele><time>2026-04-11T10:37:26.263Z</time></trkpt><trkpt lat="45.0216067" lon="8.131425"><ele>198.5</ele><time>2026-04-11T10:37:27.262Z</time></trkpt><trkpt lat="45.0216883" lon="8.1316583"><ele>197.0</ele><time>2026-04-11T10:37:29.262Z</time></trkpt><trkpt lat="45.021755" lon="8.1317817"><ele>196.2</ele><time>2026-04-11T10:37:30.262Z</time></trkpt><trkpt lat="45.0218267" lon="8.13191"><ele>195.39999999999998</ele><time>2026-04-11T10:37:31.263Z</time></trkpt><trkpt lat="45.0218833" lon="8.13202"><ele>194.60000000000002</ele><time>2026-04-11T10:37:32.262Z</time></trkpt><trkpt lat="45.0219333" lon="8.132125"><ele>193.8</ele><time>2026-04-11T10:37:33.263Z</time></trkpt><trkpt lat="45.02199" lon="8.1322317"><ele>193.0</ele><time>2026-04-11T10:37:34.263Z</time></trkpt><trkpt lat="45.0220383" lon="8.1323567"><ele>191.60000000000002</ele><time>2026-04-11T10:37:35.262Z</time></trkpt><trkpt lat="45.0220783" lon="8.1324683"><ele>190.20000000000002</ele><time>2026-04-11T10:37:36.262Z</time></trkpt><trkpt lat="45.0221217" lon="8.1325833"><ele>188.8</ele><time>2026-04-11T10:37:37.262Z</time></trkpt><trkpt lat="45.0221667" lon="8.13271"><ele>187.4</ele><time>2026-04-11T10:37:38.262Z</time></trkpt><trkpt lat="45.0222017" lon="8.13284"><ele>186.0</ele><time>2026-04-11T10:37:39.262Z</time></trkpt><trkpt lat="45.0222367" lon="8.13296"><ele>186.0</ele><time>2026-04-11T10:37:40.262Z</time></trkpt><trkpt lat="45.0222667" lon="8.13307"><ele>186.0</ele><time>2026-04-11T10:37:41.262Z</time></trkpt><trkpt lat="45.02228" lon="8.1331983"><ele>186.0</ele><time>2026-04-11T10:37:42.262Z</time></trkpt><trkpt lat="45.022295" lon="8.133315"><ele>186.0</ele><time>2026-04-11T10:37:43.262Z</time></trkpt><trkpt lat="45.02231" lon="8.1334333"><ele>186.0</ele><time>2026-04-11T10:37:44.263Z</time></trkpt><trkpt lat="45.0223333" lon="8.1335483"><ele>186.0</ele><time>2026-04-11T10:37:45.262Z</time></trkpt><trkpt lat="45.0223667" lon="8.1336667"><ele>184.0</ele><time>2026-04-11T10:37:46.262Z</time></trkpt><trkpt lat="45.0224033" lon="8.1337683"><ele>182.0</ele><time>2026-04-11T10:37:47.262Z</time></trkpt><trkpt lat="45.0224367" lon="8.133885"><ele>180.0</ele><time>2026-04-11T10:37:48.263Z</time></trkpt><trkpt lat="45.022475" lon="8.1340083"><ele>178.0</ele><time>2026-04-11T10:37:49.263Z</time></trkpt><trkpt lat="45.02253" lon="8.134125"><ele>176.0</ele><time>2026-04-11T10:37:50.262Z</time></trkpt><trkpt lat="45.022605" lon="8.1342217"><ele>175.0</ele><time>2026-04-11T10:37:51.263Z</time></trkpt><trkpt lat="45.0226867" lon="8.1343167"><ele>174.0</ele><time>2026-04-11T10:37:52.262Z</time></trkpt><trkpt lat="45.0227617" lon="8.1344267"><ele>173.0</ele><time>2026-04-11T10:37:53.262Z</time></trkpt><trkpt lat="45.0229233" lon="8.134655"><ele>172.0</ele><time>2026-04-11T10:37:55.262Z</time></trkpt><trkpt lat="45.0231267" lon="8.1350317"><ele>171.39999999999998</ele><time>2026-04-11T10:37:58.262Z</time></trkpt><trkpt lat="45.0231683" lon="8.135155"><ele>170.79999999999998</ele><time>2026-04-11T10:37:59.262Z</time></trkpt><trkpt lat="45.0232233" lon="8.13528"><ele>170.2</ele><time>2026-04-11T10:38:00.262Z</time></trkpt><trkpt lat="45.0232767" lon="8.135415"><ele>169.6</ele><time>2026-04-11T10:38:01.262Z</time></trkpt><trkpt lat="45.023335" lon="8.1355367"><ele>169.0</ele><time>2026-04-11T10:38:02.262Z</time></trkpt><trkpt lat="45.0233833" lon="8.1356383"><ele>168.75</ele><time>2026-04-11T10:38:03.262Z</time></trkpt><trkpt lat="45.023465" lon="8.135715"><ele>168.5</ele><time>2026-04-11T10:38:04.262Z</time></trkpt><trkpt lat="45.0235683" lon="8.13576"><ele>168.25</ele><time>2026-04-11T10:38:05.263Z</time></trkpt><trkpt lat="45.0237583" lon="8.13586"><ele>168.0</ele><time>2026-04-11T10:38:07.262Z</time></trkpt><trkpt lat="45.0238533" lon="8.1359133"><ele>168.0</ele><time>2026-04-11T10:38:08.263Z</time></trkpt><trkpt lat="45.0239517" lon="8.1359683"><ele>168.0</ele><time>2026-04-11T10:38:09.263Z</time></trkpt><trkpt lat="45.024055" lon="8.1360083"><ele>168.0</ele><time>2026-04-11T10:38:10.263Z</time></trkpt><trkpt lat="45.0241683" lon="8.13606"><ele>168.0</ele><time>2026-04-11T10:38:11.262Z</time></trkpt><trkpt lat="45.024275" lon="8.1361183"><ele>168.0</ele><time>2026-04-11T10:38:12.262Z</time></trkpt><trkpt lat="45.0243767" lon="8.136185"><ele>167.5</ele><time>2026-04-11T10:38:13.262Z</time></trkpt><trkpt lat="45.0244817" lon="8.1362567"><ele>167.0</ele><time>2026-04-11T10:38:14.262Z</time></trkpt><trkpt lat="45.0245917" lon="8.136325"><ele>166.5</ele><time>2026-04-11T10:38:15.262Z</time></trkpt><trkpt lat="45.02471" lon="8.1363817"><ele>166.0</ele><time>2026-04-11T10:38:16.262Z</time></trkpt><trkpt lat="45.02482" lon="8.1364283"><ele>166.0</ele><time>2026-04-11T10:38:17.262Z</time></trkpt><trkpt lat="45.0249383" lon="8.13648"><ele>166.0</ele><time>2026-04-11T10:38:18.262Z</time></trkpt><trkpt lat="45.0250533" lon="8.1365267"><ele>166.0</ele><time>2026-04-11T10:38:19.262Z</time></trkpt><trkpt lat="45.025155" lon="8.1365817"><ele>166.0</ele><time>2026-04-11T10:38:20.262Z</time></trkpt><trkpt lat="45.0252583" lon="8.1366267"><ele>165.60000000000002</ele><time>2026-04-11T10:38:21.262Z</time></trkpt><trkpt lat="45.0253633" lon="8.1366883"><ele>165.2</ele><time>2026-04-11T10:38:22.262Z</time></trkpt><trkpt lat="45.0254667" lon="8.1367467"><ele>164.8</ele><time>2026-04-11T10:38:23.263Z</time></trkpt><trkpt lat="45.0255683" lon="8.1367917"><ele>164.39999999999998</ele><time>2026-04-11T10:38:24.263Z</time></trkpt><trkpt lat="45.025665" lon="8.13683"><ele>164.0</ele><time>2026-04-11T10:38:25.262Z</time></trkpt><trkpt lat="45.02575" lon="8.1368767"><ele>164.28571428571428</ele><time>2026-04-11T10:38:26.263Z</time></trkpt><trkpt lat="45.025825" lon="8.1369133"><ele>164.57142857142856</ele><time>2026-04-11T10:38:27.262Z</time></trkpt><trkpt lat="45.0258917" lon="8.136945"><ele>164.85714285714283</ele><time>2026-04-11T10:38:28.263Z</time></trkpt><trkpt lat="45.0259633" lon="8.136995"><ele>165.14285714285714</ele><time>2026-04-11T10:38:30.262Z</time></trkpt><trkpt lat="45.0260267" lon="8.1369933"><ele>165.42857142857144</ele><time>2026-04-11T10:38:33.262Z</time></trkpt><trkpt lat="45.0260933" lon="8.1370433"><ele>165.7142857142857</ele><time>2026-04-11T10:38:36.263Z</time></trkpt><trkpt lat="45.0261583" lon="8.1370667"><ele>166.0</ele><time>2026-04-11T10:38:56.262Z</time></trkpt><trkpt lat="45.02626" lon="8.137125"><ele>166.0</ele><time>2026-04-11T10:38:58.262Z</time></trkpt><trkpt lat="45.026335" lon="8.1371583"><ele>166.0</ele><time>2026-04-11T10:38:59.262Z</time></trkpt><trkpt lat="45.0264867" lon="8.1372267"><ele>166.0</ele><time>2026-04-11T10:39:01.263Z</time></trkpt><trkpt lat="45.02656" lon="8.1372667"><ele>166.0</ele><time>2026-04-11T10:39:02.262Z</time></trkpt><trkpt lat="45.0266417" lon="8.1373067"><ele>166.0</ele><time>2026-04-11T10:39:03.262Z</time></trkpt><trkpt lat="45.02673" lon="8.1373517"><ele>166.0</ele><time>2026-04-11T10:39:04.262Z</time></trkpt><trkpt lat="45.026825" lon="8.13738"><ele>166.0</ele><time>2026-04-11T10:39:05.262Z</time></trkpt><trkpt lat="45.0269217" lon="8.1374217"><ele>166.0</ele><time>2026-04-11T10:39:06.262Z</time></trkpt><trkpt lat="45.0270183" lon="8.1374617"><ele>166.0</ele><time>2026-04-11T10:39:07.262Z</time></trkpt><trkpt lat="45.027125" lon="8.1375"><ele>166.0</ele><time>2026-04-11T10:39:08.262Z</time></trkpt><trkpt lat="45.0272417" lon="8.137535"><ele>165.75</ele><time>2026-04-11T10:39:09.262Z</time></trkpt><trkpt lat="45.0273583" lon="8.1375867"><ele>165.5</ele><time>2026-04-11T10:39:10.262Z</time></trkpt><trkpt lat="45.027475" lon="8.137635"><ele>165.25</ele><time>2026-04-11T10:39:11.262Z</time></trkpt><trkpt lat="45.027595" lon="8.1376883"><ele>165.0</ele><time>2026-04-11T10:39:12.262Z</time></trkpt><trkpt lat="45.0277133" lon="8.1377333"><ele>165.0</ele><time>2026-04-11T10:39:13.262Z</time></trkpt><trkpt lat="45.0278317" lon="8.1377817"><ele>165.0</ele><time>2026-04-11T10:39:14.262Z</time></trkpt><trkpt lat="45.0280333" lon="8.1378717"><ele>165.0</ele><time>2026-04-11T10:39:16.262Z</time></trkpt><trkpt lat="45.0281167" lon="8.137905"><ele>165.0</ele><time>2026-04-11T10:39:17.262Z</time></trkpt><trkpt lat="45.0281933" lon="8.1379333"><ele>165.0</ele><time>2026-04-11T10:39:18.262Z</time></trkpt><trkpt lat="45.0282567" lon="8.137965"><ele>165.0</ele><time>2026-04-11T10:39:19.262Z</time></trkpt><trkpt lat="45.0283167" lon="8.1379967"><ele>165.0</ele><time>2026-04-11T10:39:20.263Z</time></trkpt><trkpt lat="45.02838" lon="8.138015"><ele>165.0</ele><time>2026-04-11T10:39:21.263Z</time></trkpt><trkpt lat="45.0284633" lon="8.1381017"><ele>165.0</ele><time>2026-04-11T10:39:23.262Z</time></trkpt><trkpt lat="45.0284667" lon="8.13825"><ele>165.0</ele><time>2026-04-11T10:39:25.263Z</time></trkpt><trkpt lat="45.028455" lon="8.1383433"><ele>165.2</ele><time>2026-04-11T10:39:26.262Z</time></trkpt><trkpt lat="45.0284417" lon="8.1384483"><ele>165.4</ele><time>2026-04-11T10:39:27.262Z</time></trkpt><trkpt lat="45.0284167" lon="8.1386417"><ele>165.60000000000002</ele><time>2026-04-11T10:39:29.263Z</time></trkpt><trkpt lat="45.0284183" lon="8.138735"><ele>165.8</ele><time>2026-04-11T10:39:30.262Z</time></trkpt><trkpt lat="45.0284" lon="8.138875"><ele>166.0</ele><time>2026-04-11T10:39:32.263Z</time></trkpt><trkpt lat="45.028395" lon="8.138985"><ele>166.0</ele><time>2026-04-11T10:39:34.263Z</time></trkpt><trkpt lat="45.0283833" lon="8.1391133"><ele>166.0</ele><time>2026-04-11T10:39:36.262Z</time></trkpt><trkpt lat="45.0283667" lon="8.1392933"><ele>166.0</ele><time>2026-04-11T10:39:38.263Z</time></trkpt><trkpt lat="45.028355" lon="8.1393933"><ele>166.0</ele><time>2026-04-11T10:39:39.262Z</time></trkpt><trkpt lat="45.0283467" lon="8.1394983"><ele>166.0</ele><time>2026-04-11T10:39:40.262Z</time></trkpt><trkpt lat="45.02834" lon="8.1396117"><ele>166.0</ele><time>2026-04-11T10:39:41.262Z</time></trkpt><trkpt lat="45.0283267" lon="8.1397267"><ele>166.0</ele><time>2026-04-11T10:39:42.262Z</time></trkpt><trkpt lat="45.0283117" lon="8.139845"><ele>166.0</ele><time>2026-04-11T10:39:43.263Z</time></trkpt><trkpt lat="45.0283" lon="8.1399583"><ele>166.0</ele><time>2026-04-11T10:39:44.262Z</time></trkpt><trkpt lat="45.0282817" lon="8.140065"><ele>166.0</ele><time>2026-04-11T10:39:45.263Z</time></trkpt><trkpt lat="45.0282283" lon="8.1402867"><ele>166.0</ele><time>2026-04-11T10:39:47.262Z</time></trkpt><trkpt lat="45.0281933" lon="8.140395"><ele>165.5</ele><time>2026-04-11T10:39:48.262Z</time></trkpt><trkpt lat="45.028165" lon="8.1405033"><ele>165.0</ele><time>2026-04-11T10:39:49.262Z</time></trkpt><trkpt lat="45.02814" lon="8.1406183"><ele>164.5</ele><time>2026-04-11T10:39:50.262Z</time></trkpt><trkpt lat="45.02811" lon="8.1407333"><ele>164.0</ele><time>2026-04-11T10:39:51.262Z</time></trkpt><trkpt lat="45.0280833" lon="8.1408417"><ele>163.5</ele><time>2026-04-11T10:39:52.263Z</time></trkpt><trkpt lat="45.02806" lon="8.1409717"><ele>163.0</ele><time>2026-04-11T10:39:53.262Z</time></trkpt><trkpt lat="45.028035" lon="8.141105"><ele>163.2</ele><time>2026-04-11T10:39:54.262Z</time></trkpt><trkpt lat="45.0280117" lon="8.1412133"><ele>163.4</ele><time>2026-04-11T10:39:55.262Z</time></trkpt><trkpt lat="45.0279817" lon="8.1413783"><ele>163.6</ele><time>2026-04-11T10:39:57.262Z</time></trkpt><trkpt lat="45.0279617" lon="8.1415083"><ele>163.79999999999998</ele><time>2026-04-11T10:39:59.262Z</time></trkpt><trkpt lat="45.0279417" lon="8.1416217"><ele>164.0</ele><time>2026-04-11T10:40:01.262Z</time></trkpt><trkpt lat="45.02791" lon="8.141715"><ele>164.0</ele><time>2026-04-11T10:40:03.262Z</time></trkpt><trkpt lat="45.0278717" lon="8.1418533"><ele>164.0</ele><time>2026-04-11T10:40:05.262Z</time></trkpt><trkpt lat="45.027845" lon="8.14205"><ele>164.0</ele><time>2026-04-11T10:40:07.262Z</time></trkpt><trkpt lat="45.0278183" lon="8.14217"><ele>164.0</ele><time>2026-04-11T10:40:08.262Z</time></trkpt><trkpt lat="45.027805" lon="8.1423067"><ele>164.0</ele><time>2026-04-11T10:40:09.263Z</time></trkpt><trkpt lat="45.027785" lon="8.142445"><ele>164.79999999999998</ele><time>2026-04-11T10:40:10.262Z</time></trkpt><trkpt lat="45.0277617" lon="8.142595"><ele>165.6</ele><time>2026-04-11T10:40:11.262Z</time></trkpt><trkpt lat="45.027735" lon="8.1427533"><ele>166.4</ele><time>2026-04-11T10:40:12.263Z</time></trkpt><trkpt lat="45.027705" lon="8.1429017"><ele>167.2</ele><time>2026-04-11T10:40:13.263Z</time></trkpt><trkpt lat="45.027675" lon="8.143035"><ele>168.0</ele><time>2026-04-11T10:40:14.262Z</time></trkpt><trkpt lat="45.0276283" lon="8.14318"><ele>167.8</ele><time>2026-04-11T10:40:15.262Z</time></trkpt><trkpt lat="45.0275983" lon="8.14333"><ele>167.60000000000002</ele><time>2026-04-11T10:40:16.262Z</time></trkpt><trkpt lat="45.0275683" lon="8.1434683"><ele>167.39999999999998</ele><time>2026-04-11T10:40:17.263Z</time></trkpt><trkpt lat="45.02754" lon="8.1436117"><ele>167.2</ele><time>2026-04-11T10:40:18.263Z</time></trkpt><trkpt lat="45.0275117" lon="8.1437467"><ele>167.0</ele><time>2026-04-11T10:40:19.262Z</time></trkpt><trkpt lat="45.0274817" lon="8.143895"><ele>166.0</ele><time>2026-04-11T10:40:20.262Z</time></trkpt><trkpt lat="45.027465" lon="8.14405"><ele>165.0</ele><time>2026-04-11T10:40:21.262Z</time></trkpt><trkpt lat="45.027445" lon="8.1442017"><ele>164.0</ele><time>2026-04-11T10:40:22.262Z</time></trkpt><trkpt lat="45.0274267" lon="8.1443517"><ele>163.0</ele><time>2026-04-11T10:40:23.262Z</time></trkpt><trkpt lat="45.02741" lon="8.1445067"><ele>162.0</ele><time>2026-04-11T10:40:24.262Z</time></trkpt><trkpt lat="45.0273917" lon="8.1446633"><ele>162.0</ele><time>2026-04-11T10:40:25.262Z</time></trkpt><trkpt lat="45.027375" lon="8.144825"><ele>162.0</ele><time>2026-04-11T10:40:26.262Z</time></trkpt><trkpt lat="45.0273617" lon="8.1449867"><ele>162.0</ele><time>2026-04-11T10:40:27.262Z</time></trkpt><trkpt lat="45.0273317" lon="8.1451483"><ele>162.0</ele><time>2026-04-11T10:40:28.263Z</time></trkpt><trkpt lat="45.0273067" lon="8.145305"><ele>162.0</ele><time>2026-04-11T10:40:29.263Z</time></trkpt><trkpt lat="45.0272833" lon="8.14546"><ele>162.0</ele><time>2026-04-11T10:40:30.262Z</time></trkpt><trkpt lat="45.027265" lon="8.1456033"><ele>162.0</ele><time>2026-04-11T10:40:31.262Z</time></trkpt><trkpt lat="45.0272433" lon="8.1457383"><ele>162.0</ele><time>2026-04-11T10:40:32.262Z</time></trkpt><trkpt lat="45.0272267" lon="8.1458783"><ele>162.0</ele><time>2026-04-11T10:40:33.262Z</time></trkpt><trkpt lat="45.0272083" lon="8.1460183"><ele>161.8</ele><time>2026-04-11T10:40:34.263Z</time></trkpt><trkpt lat="45.0271917" lon="8.14615"><ele>161.6</ele><time>2026-04-11T10:40:35.262Z</time></trkpt><trkpt lat="45.027175" lon="8.1462833"><ele>161.4</ele><time>2026-04-11T10:40:36.262Z</time></trkpt><trkpt lat="45.027165" lon="8.1464183"><ele>161.20000000000002</ele><time>2026-04-11T10:40:37.263Z</time></trkpt><trkpt lat="45.0271783" lon="8.1465517"><ele>161.0</ele><time>2026-04-11T10:40:38.262Z</time></trkpt><trkpt lat="45.0271967" lon="8.1466967"><ele>161.0</ele><time>2026-04-11T10:40:39.263Z</time></trkpt><trkpt lat="45.0272167" lon="8.1468333"><ele>161.0</ele><time>2026-04-11T10:40:40.262Z</time></trkpt><trkpt lat="45.0272383" lon="8.1469717"><ele>161.0</ele><time>2026-04-11T10:40:41.262Z</time></trkpt><trkpt lat="45.0272667" lon="8.147095"><ele>161.0</ele><time>2026-04-11T10:40:42.262Z</time></trkpt><trkpt lat="45.027295" lon="8.1472033"><ele>161.0</ele><time>2026-04-11T10:40:43.262Z</time></trkpt><trkpt lat="45.0273267" lon="8.1473333"><ele>161.0</ele><time>2026-04-11T10:40:44.262Z</time></trkpt><trkpt lat="45.0273433" lon="8.1474683"><ele>161.0</ele><time>2026-04-11T10:40:45.261Z</time></trkpt><trkpt lat="45.02736" lon="8.1476067"><ele>161.0</ele><time>2026-04-11T10:40:46.262Z</time></trkpt><trkpt lat="45.027385" lon="8.1477467"><ele>161.0</ele><time>2026-04-11T10:40:47.261Z</time></trkpt><trkpt lat="45.02741" lon="8.1478867"><ele>161.0</ele><time>2026-04-11T10:40:48.261Z</time></trkpt><trkpt lat="45.0274367" lon="8.1480233"><ele>161.0</ele><time>2026-04-11T10:40:49.262Z</time></trkpt><trkpt lat="45.0274617" lon="8.1481667"><ele>161.0</ele><time>2026-04-11T10:40:50.261Z</time></trkpt><trkpt lat="45.027495" lon="8.1483217"><ele>161.0</ele><time>2026-04-11T10:40:51.261Z</time></trkpt><trkpt lat="45.0275167" lon="8.1484683"><ele>161.0</ele><time>2026-04-11T10:40:52.261Z</time></trkpt><trkpt lat="45.0275367" lon="8.1486283"><ele>161.0</ele><time>2026-04-11T10:40:53.261Z</time></trkpt><trkpt lat="45.0275533" lon="8.1487933"><ele>161.0</ele><time>2026-04-11T10:40:54.261Z</time></trkpt><trkpt lat="45.0275683" lon="8.148955"><ele>161.0</ele><time>2026-04-11T10:40:55.262Z</time></trkpt><trkpt lat="45.027575" lon="8.1491133"><ele>161.0</ele><time>2026-04-11T10:40:56.261Z</time></trkpt><trkpt lat="45.0275867" lon="8.149265"><ele>161.0</ele><time>2026-04-11T10:40:57.262Z</time></trkpt><trkpt lat="45.0275917" lon="8.1494333"><ele>161.0</ele><time>2026-04-11T10:40:58.261Z</time></trkpt><trkpt lat="45.027605" lon="8.149615"><ele>161.0</ele><time>2026-04-11T10:40:59.262Z</time></trkpt><trkpt lat="45.0276167" lon="8.1497933"><ele>161.0</ele><time>2026-04-11T10:41:00.262Z</time></trkpt><trkpt lat="45.02763" lon="8.149985"><ele>161.0</ele><time>2026-04-11T10:41:01.261Z</time></trkpt><trkpt lat="45.0276333" lon="8.1501683"><ele>161.0</ele><time>2026-04-11T10:41:02.261Z</time></trkpt><trkpt lat="45.0276267" lon="8.15036"><ele>161.0</ele><time>2026-04-11T10:41:03.261Z</time></trkpt><trkpt lat="45.0276267" lon="8.1505517"><ele>161.0</ele><time>2026-04-11T10:41:04.261Z</time></trkpt><trkpt lat="45.02764" lon="8.1507367"><ele>161.0</ele><time>2026-04-11T10:41:05.262Z</time></trkpt><trkpt lat="45.0276583" lon="8.1509183"><ele>161.0</ele><time>2026-04-11T10:41:06.262Z</time></trkpt><trkpt lat="45.0276817" lon="8.151105"><ele>161.0</ele><time>2026-04-11T10:41:07.261Z</time></trkpt><trkpt lat="45.0276967" lon="8.1512883"><ele>161.0</ele><time>2026-04-11T10:41:08.261Z</time></trkpt><trkpt lat="45.027715" lon="8.1514883"><ele>161.0</ele><time>2026-04-11T10:41:09.262Z</time></trkpt><trkpt lat="45.0277417" lon="8.1516717"><ele>161.20000000000002</ele><time>2026-04-11T10:41:10.261Z</time></trkpt><trkpt lat="45.0277583" lon="8.15185"><ele>161.4</ele><time>2026-04-11T10:41:11.261Z</time></trkpt><trkpt lat="45.0277717" lon="8.1520067"><ele>161.6</ele><time>2026-04-11T10:41:12.261Z</time></trkpt><trkpt lat="45.0277933" lon="8.1521233"><ele>161.8</ele><time>2026-04-11T10:41:13.261Z</time></trkpt><trkpt lat="45.0278267" lon="8.1522233"><ele>162.0</ele><time>2026-04-11T10:41:14.262Z</time></trkpt><trkpt lat="45.0279083" lon="8.1524133"><ele>162.0</ele><time>2026-04-11T10:41:16.261Z</time></trkpt><trkpt lat="45.0279417" lon="8.15251"><ele>162.0</ele><time>2026-04-11T10:41:17.261Z</time></trkpt><trkpt lat="45.02797" lon="8.1526367"><ele>162.0</ele><time>2026-04-11T10:41:18.261Z</time></trkpt><trkpt lat="45.0279867" lon="8.15279"><ele>162.0</ele><time>2026-04-11T10:41:19.261Z</time></trkpt><trkpt lat="45.027995" lon="8.1529367"><ele>162.0</ele><time>2026-04-11T10:41:20.261Z</time></trkpt><trkpt lat="45.0279967" lon="8.1530883"><ele>162.25</ele><time>2026-04-11T10:41:21.261Z</time></trkpt><trkpt lat="45.0279817" lon="8.1532633"><ele>162.5</ele><time>2026-04-11T10:41:22.262Z</time></trkpt><trkpt lat="45.0279483" lon="8.15345"><ele>162.75</ele><time>2026-04-11T10:41:23.261Z</time></trkpt><trkpt lat="45.0279033" lon="8.1536417"><ele>163.0</ele><time>2026-04-11T10:41:24.262Z</time></trkpt><trkpt lat="45.02783" lon="8.153825"><ele>163.0</ele><time>2026-04-11T10:41:25.261Z</time></trkpt><trkpt lat="45.0277567" lon="8.1539967"><ele>163.0</ele><time>2026-04-11T10:41:26.262Z</time></trkpt><trkpt lat="45.0276783" lon="8.15417"><ele>163.0</ele><time>2026-04-11T10:41:27.261Z</time></trkpt><trkpt lat="45.0276067" lon="8.1543317"><ele>163.0</ele><time>2026-04-11T10:41:28.261Z</time></trkpt><trkpt lat="45.0275267" lon="8.1545017"><ele>163.25</ele><time>2026-04-11T10:41:29.262Z</time></trkpt><trkpt lat="45.02746" lon="8.1546617"><ele>163.5</ele><time>2026-04-11T10:41:30.261Z</time></trkpt><trkpt lat="45.027395" lon="8.1548067"><ele>163.75</ele><time>2026-04-11T10:41:31.261Z</time></trkpt><trkpt lat="45.0273383" lon="8.154955"><ele>164.0</ele><time>2026-04-11T10:41:32.262Z</time></trkpt><trkpt lat="45.0272867" lon="8.155095"><ele>164.5</ele><time>2026-04-11T10:41:33.262Z</time></trkpt><trkpt lat="45.0272233" lon="8.15525"><ele>165.0</ele><time>2026-04-11T10:41:34.262Z</time></trkpt><trkpt lat="45.02715" lon="8.155405"><ele>165.5</ele><time>2026-04-11T10:41:35.261Z</time></trkpt><trkpt lat="45.02708" lon="8.1555683"><ele>166.0</ele><time>2026-04-11T10:41:36.262Z</time></trkpt><trkpt lat="45.027015" lon="8.1557483"><ele>166.0</ele><time>2026-04-11T10:41:37.261Z</time></trkpt><trkpt lat="45.0269517" lon="8.155935"><ele>166.0</ele><time>2026-04-11T10:41:38.261Z</time></trkpt><trkpt lat="45.026905" lon="8.1561033"><ele>166.0</ele><time>2026-04-11T10:41:39.261Z</time></trkpt><trkpt lat="45.0268583" lon="8.1562817"><ele>166.0</ele><time>2026-04-11T10:41:40.261Z</time></trkpt><trkpt lat="45.026835" lon="8.1564767"><ele>165.0</ele><time>2026-04-11T10:41:41.262Z</time></trkpt><trkpt lat="45.0268283" lon="8.15667"><ele>164.0</ele><time>2026-04-11T10:41:42.262Z</time></trkpt><trkpt lat="45.026835" lon="8.1568467"><ele>163.0</ele><time>2026-04-11T10:41:43.261Z</time></trkpt><trkpt lat="45.0268567" lon="8.1570183"><ele>162.0</ele><time>2026-04-11T10:41:44.261Z</time></trkpt><trkpt lat="45.0268867" lon="8.1571917"><ele>162.0</ele><time>2026-04-11T10:41:45.261Z</time></trkpt><trkpt lat="45.026925" lon="8.1573517"><ele>162.0</ele><time>2026-04-11T10:41:46.261Z</time></trkpt><trkpt lat="45.0269683" lon="8.1574917"><ele>162.0</ele><time>2026-04-11T10:41:47.261Z</time></trkpt><trkpt lat="45.02701" lon="8.157615"><ele>162.0</ele><time>2026-04-11T10:41:48.261Z</time></trkpt><trkpt lat="45.02705" lon="8.1577167"><ele>162.0</ele><time>2026-04-11T10:41:49.261Z</time></trkpt><trkpt lat="45.0270817" lon="8.1578167"><ele>162.0</ele><time>2026-04-11T10:41:50.261Z</time></trkpt><trkpt lat="45.0271" lon="8.157945"><ele>162.0</ele><time>2026-04-11T10:41:52.261Z</time></trkpt><trkpt lat="45.027085" lon="8.158145"><ele>162.0</ele><time>2026-04-11T10:43:33.261Z</time></trkpt><trkpt lat="45.027065" lon="8.1584033"><ele>162.0</ele><time>2026-04-11T10:43:36.261Z</time></trkpt><trkpt lat="45.0270933" lon="8.158585"><ele>161.66666666666666</ele><time>2026-04-11T10:43:38.261Z</time></trkpt><trkpt lat="45.0271467" lon="8.158675"><ele>161.33333333333334</ele><time>2026-04-11T10:43:39.261Z</time></trkpt><trkpt lat="45.0272167" lon="8.15877"><ele>161.0</ele><time>2026-04-11T10:43:40.262Z</time></trkpt><trkpt lat="45.02727" lon="8.1588683"><ele>160.66666666666669</ele><time>2026-04-11T10:43:41.261Z</time></trkpt><trkpt lat="45.0273017" lon="8.1589667"><ele>160.33333333333334</ele><time>2026-04-11T10:43:42.261Z</time></trkpt><trkpt lat="45.0273217" lon="8.1590667"><ele>160.0</ele><time>2026-04-11T10:43:43.262Z</time></trkpt><trkpt lat="45.0273333" lon="8.159155"><ele>159.6</ele><time>2026-04-11T10:43:44.261Z</time></trkpt><trkpt lat="45.027305" lon="8.15933"><ele>159.2</ele><time>2026-04-11T10:43:46.261Z</time></trkpt><trkpt lat="45.0272917" lon="8.15943"><ele>158.8</ele><time>2026-04-11T10:43:47.261Z</time></trkpt><trkpt lat="45.0272617" lon="8.1596717"><ele>158.4</ele><time>2026-04-11T10:43:50.261Z</time></trkpt><trkpt lat="45.0272467" lon="8.1597617"><ele>158.0</ele><time>2026-04-11T10:43:51.261Z</time></trkpt><trkpt lat="45.0272317" lon="8.1598533"><ele>157.85714285714286</ele><time>2026-04-11T10:43:52.261Z</time></trkpt><trkpt lat="45.0272117" lon="8.1599383"><ele>157.71428571428572</ele><time>2026-04-11T10:43:53.262Z</time></trkpt><trkpt lat="45.0272017" lon="8.1600267"><ele>157.57142857142856</ele><time>2026-04-11T10:43:54.262Z</time></trkpt><trkpt lat="45.027195" lon="8.1601167"><ele>157.42857142857144</ele><time>2026-04-11T10:43:55.261Z</time></trkpt><trkpt lat="45.0271833" lon="8.16022"><ele>157.28571428571428</ele><time>2026-04-11T10:43:56.262Z</time></trkpt><trkpt lat="45.02717" lon="8.1603283"><ele>157.14285714285714</ele><time>2026-04-11T10:43:57.261Z</time></trkpt><trkpt lat="45.027155" lon="8.1604383"><ele>157.0</ele><time>2026-04-11T10:43:58.261Z</time></trkpt><trkpt lat="45.027135" lon="8.1605483"><ele>157.0</ele><time>2026-04-11T10:43:59.261Z</time></trkpt><trkpt lat="45.0271217" lon="8.160655"><ele>157.0</ele><time>2026-04-11T10:44:00.261Z</time></trkpt><trkpt lat="45.02711" lon="8.16076"><ele>157.0</ele><time>2026-04-11T10:44:01.261Z</time></trkpt><trkpt lat="45.0271033" lon="8.1608633"><ele>157.0</ele><time>2026-04-11T10:44:02.262Z</time></trkpt><trkpt lat="45.02709" lon="8.1609783"><ele>157.0</ele><time>2026-04-11T10:44:03.261Z</time></trkpt><trkpt lat="45.027075" lon="8.1610983"><ele>157.0</ele><time>2026-04-11T10:44:04.261Z</time></trkpt><trkpt lat="45.0270617" lon="8.1612033"><ele>157.0</ele><time>2026-04-11T10:44:05.262Z</time></trkpt><trkpt lat="45.02705" lon="8.1613183"><ele>157.0</ele><time>2026-04-11T10:44:06.261Z</time></trkpt><trkpt lat="45.0270383" lon="8.1614417"><ele>157.0</ele><time>2026-04-11T10:44:07.261Z</time></trkpt><trkpt lat="45.0270267" lon="8.16157"><ele>157.0</ele><time>2026-04-11T10:44:08.261Z</time></trkpt><trkpt lat="45.0270183" lon="8.1616983"><ele>157.0</ele><time>2026-04-11T10:44:09.261Z</time></trkpt><trkpt lat="45.0270017" lon="8.1618317"><ele>157.0</ele><time>2026-04-11T10:44:10.262Z</time></trkpt><trkpt lat="45.02698" lon="8.1619683"><ele>157.0</ele><time>2026-04-11T10:44:11.261Z</time></trkpt><trkpt lat="45.0269617" lon="8.1621017"><ele>157.0</ele><time>2026-04-11T10:44:12.262Z</time></trkpt><trkpt lat="45.0269433" lon="8.162245"><ele>157.0</ele><time>2026-04-11T10:44:13.262Z</time></trkpt><trkpt lat="45.0269267" lon="8.162385"><ele>157.0</ele><time>2026-04-11T10:44:14.262Z</time></trkpt><trkpt lat="45.0269217" lon="8.162525"><ele>157.0</ele><time>2026-04-11T10:44:15.262Z</time></trkpt><trkpt lat="45.0269167" lon="8.1626583"><ele>157.0</ele><time>2026-04-11T10:44:16.261Z</time></trkpt><trkpt lat="45.0269067" lon="8.1628017"><ele>157.0</ele><time>2026-04-11T10:44:17.261Z</time></trkpt><trkpt lat="45.02691" lon="8.1629333"><ele>157.0</ele><time>2026-04-11T10:44:18.261Z</time></trkpt><trkpt lat="45.0269083" lon="8.16307"><ele>157.0</ele><time>2026-04-11T10:44:19.261Z</time></trkpt><trkpt lat="45.0269017" lon="8.1632133"><ele>157.0</ele><time>2026-04-11T10:44:20.261Z</time></trkpt><trkpt lat="45.0269" lon="8.163355"><ele>157.4</ele><time>2026-04-11T10:44:21.261Z</time></trkpt><trkpt lat="45.026905" lon="8.1635"><ele>157.79999999999998</ele><time>2026-04-11T10:44:22.262Z</time></trkpt><trkpt lat="45.0269117" lon="8.163645"><ele>158.2</ele><time>2026-04-11T10:44:23.261Z</time></trkpt><trkpt lat="45.0269233" lon="8.1637933"><ele>158.6</ele><time>2026-04-11T10:44:24.261Z</time></trkpt><trkpt lat="45.026945" lon="8.1639417"><ele>159.0</ele><time>2026-04-11T10:44:25.261Z</time></trkpt><trkpt lat="45.026965" lon="8.1641"><ele>160.0</ele><time>2026-04-11T10:44:26.26Z</time></trkpt><trkpt lat="45.0269783" lon="8.164275"><ele>161.0</ele><time>2026-04-11T10:44:27.259Z</time></trkpt><trkpt lat="45.0269883" lon="8.1644683"><ele>162.0</ele><time>2026-04-11T10:44:28.26Z</time></trkpt><trkpt lat="45.0269867" lon="8.16466"><ele>163.0</ele><time>2026-04-11T10:44:29.26Z</time></trkpt><trkpt lat="45.02698" lon="8.1648533"><ele>164.5</ele><time>2026-04-11T10:44:30.26Z</time></trkpt><trkpt lat="45.0269633" lon="8.1650583"><ele>166.0</ele><time>2026-04-11T10:44:31.261Z</time></trkpt><trkpt lat="45.0269433" lon="8.1652567"><ele>167.5</ele><time>2026-04-11T10:44:32.26Z</time></trkpt><trkpt lat="45.0269367" lon="8.165455"><ele>169.0</ele><time>2026-04-11T10:44:33.261Z</time></trkpt><trkpt lat="45.0269317" lon="8.1656433"><ele>171.0</ele><time>2026-04-11T10:44:34.26Z</time></trkpt><trkpt lat="45.0269233" lon="8.165845"><ele>173.0</ele><time>2026-04-11T10:44:35.26Z</time></trkpt><trkpt lat="45.0269217" lon="8.1660517"><ele>175.0</ele><time>2026-04-11T10:44:36.26Z</time></trkpt><trkpt lat="45.02693" lon="8.16625"><ele>177.0</ele><time>2026-04-11T10:44:37.26Z</time></trkpt><trkpt lat="45.026965" lon="8.16663"><ele>179.33333333333334</ele><time>2026-04-11T10:44:39.26Z</time></trkpt><trkpt lat="45.0269883" lon="8.167035"><ele>181.66666666666669</ele><time>2026-04-11T10:44:41.261Z</time></trkpt><trkpt lat="45.02699" lon="8.1672267"><ele>184.0</ele><time>2026-04-11T10:44:42.261Z</time></trkpt><trkpt lat="45.0269767" lon="8.167425"><ele>185.75</ele><time>2026-04-11T10:44:43.26Z</time></trkpt><trkpt lat="45.02696" lon="8.1676267"><ele>187.5</ele><time>2026-04-11T10:44:44.26Z</time></trkpt><trkpt lat="45.0269467" lon="8.1678333"><ele>189.25</ele><time>2026-04-11T10:44:45.26Z</time></trkpt><trkpt lat="45.026945" lon="8.1680333"><ele>191.0</ele><time>2026-04-11T10:44:46.26Z</time></trkpt><trkpt lat="45.026945" lon="8.1682333"><ele>193.0</ele><time>2026-04-11T10:44:47.261Z</time></trkpt><trkpt lat="45.0269483" lon="8.168425"><ele>195.0</ele><time>2026-04-11T10:44:48.26Z</time></trkpt><trkpt lat="45.0269417" lon="8.16861"><ele>197.0</ele><time>2026-04-11T10:44:49.261Z</time></trkpt><trkpt lat="45.0269267" lon="8.168785"><ele>199.0</ele><time>2026-04-11T10:44:50.26Z</time></trkpt><trkpt lat="45.0269067" lon="8.1689633"><ele>200.25</ele><time>2026-04-11T10:44:51.26Z</time></trkpt><trkpt lat="45.0268767" lon="8.16914"><ele>201.5</ele><time>2026-04-11T10:44:52.26Z</time></trkpt><trkpt lat="45.0268433" lon="8.169325"><ele>202.75</ele><time>2026-04-11T10:44:53.26Z</time></trkpt><trkpt lat="45.0268167" lon="8.1695167"><ele>204.0</ele><time>2026-04-11T10:44:54.261Z</time></trkpt><trkpt lat="45.02681" lon="8.16971"><ele>204.5</ele><time>2026-04-11T10:44:55.26Z</time></trkpt><trkpt lat="45.02681" lon="8.169905"><ele>205.0</ele><time>2026-04-11T10:44:56.26Z</time></trkpt><trkpt lat="45.0268333" lon="8.1700967"><ele>205.5</ele><time>2026-04-11T10:44:57.26Z</time></trkpt><trkpt lat="45.026875" lon="8.1702917"><ele>206.0</ele><time>2026-04-11T10:44:58.261Z</time></trkpt><trkpt lat="45.0269183" lon="8.170485"><ele>206.0</ele><time>2026-04-11T10:44:59.26Z</time></trkpt><trkpt lat="45.0269767" lon="8.1706533"><ele>206.0</ele><time>2026-04-11T10:45:00.26Z</time></trkpt><trkpt lat="45.027045" lon="8.170845"><ele>206.0</ele><time>2026-04-11T10:45:01.261Z</time></trkpt><trkpt lat="45.0271167" lon="8.1710367"><ele>206.0</ele><time>2026-04-11T10:45:02.26Z</time></trkpt><trkpt lat="45.027195" lon="8.1712217"><ele>208.0</ele><time>2026-04-11T10:45:03.26Z</time></trkpt><trkpt lat="45.02727" lon="8.1714217"><ele>210.0</ele><time>2026-04-11T10:45:04.261Z</time></trkpt><trkpt lat="45.0273467" lon="8.1716183"><ele>212.0</ele><time>2026-04-11T10:45:05.26Z</time></trkpt><trkpt lat="45.02742" lon="8.1718183"><ele>212.66666666666669</ele><time>2026-04-11T10:45:06.26Z</time></trkpt><trkpt lat="45.0274833" lon="8.172025"><ele>213.33333333333331</ele><time>2026-04-11T10:45:07.261Z</time></trkpt><trkpt lat="45.027545" lon="8.1722333"><ele>214.0</ele><time>2026-04-11T10:45:08.26Z</time></trkpt><trkpt lat="45.02761" lon="8.1724367"><ele>214.0</ele><time>2026-04-11T10:45:09.26Z</time></trkpt><trkpt lat="45.0276467" lon="8.172645"><ele>214.0</ele><time>2026-04-11T10:45:10.26Z</time></trkpt><trkpt lat="45.0276717" lon="8.1728583"><ele>214.0</ele><time>2026-04-11T10:45:11.26Z</time></trkpt><trkpt lat="45.02769" lon="8.1730667"><ele>214.75</ele><time>2026-04-11T10:45:12.26Z</time></trkpt><trkpt lat="45.02771" lon="8.1732617"><ele>215.5</ele><time>2026-04-11T10:45:13.26Z</time></trkpt><trkpt lat="45.0277317" lon="8.1734667"><ele>216.25</ele><time>2026-04-11T10:45:14.26Z</time></trkpt><trkpt lat="45.0277533" lon="8.1736783"><ele>217.0</ele><time>2026-04-11T10:45:15.26Z</time></trkpt><trkpt lat="45.0277733" lon="8.1738817"><ele>215.66666666666666</ele><time>2026-04-11T10:45:16.26Z</time></trkpt><trkpt lat="45.027795" lon="8.1741"><ele>214.33333333333331</ele><time>2026-04-11T10:45:17.26Z</time></trkpt><trkpt lat="45.02781" lon="8.1743083"><ele>213.0</ele><time>2026-04-11T10:45:18.261Z</time></trkpt><trkpt lat="45.0278267" lon="8.1745267"><ele>213.0</ele><time>2026-04-11T10:45:19.261Z</time></trkpt><trkpt lat="45.0278333" lon="8.1747383"><ele>213.0</ele><time>2026-04-11T10:45:20.26Z</time></trkpt><trkpt lat="45.0278333" lon="8.1749283"><ele>213.0</ele><time>2026-04-11T10:45:21.26Z</time></trkpt><trkpt lat="45.027835" lon="8.1751117"><ele>213.0</ele><time>2026-04-11T10:45:22.261Z</time></trkpt><trkpt lat="45.0278283" lon="8.1752917"><ele>212.75</ele><time>2026-04-11T10:45:23.26Z</time></trkpt><trkpt lat="45.02782" lon="8.1754683"><ele>212.5</ele><time>2026-04-11T10:45:24.26Z</time></trkpt><trkpt lat="45.02781" lon="8.1756367"><ele>212.25</ele><time>2026-04-11T10:45:25.26Z</time></trkpt><trkpt lat="45.0278017" lon="8.1758033"><ele>212.0</ele><time>2026-04-11T10:45:26.26Z</time></trkpt><trkpt lat="45.0277867" lon="8.1759717"><ele>213.2</ele><time>2026-04-11T10:45:27.26Z</time></trkpt><trkpt lat="45.027775" lon="8.1761267"><ele>214.39999999999998</ele><time>2026-04-11T10:45:28.26Z</time></trkpt><trkpt lat="45.0277567" lon="8.1762583"><ele>215.60000000000002</ele><time>2026-04-11T10:45:29.26Z</time></trkpt><trkpt lat="45.0277317" lon="8.1764867"><ele>216.8</ele><time>2026-04-11T10:45:31.26Z</time></trkpt><trkpt lat="45.0277117" lon="8.17659"><ele>218.0</ele><time>2026-04-11T10:45:32.26Z</time></trkpt><trkpt lat="45.02764" lon="8.1767017"><ele>218.2</ele><time>2026-04-11T10:45:34.26Z</time></trkpt><trkpt lat="45.027525" lon="8.1767183"><ele>218.4</ele><time>2026-04-11T10:45:36.26Z</time></trkpt><trkpt lat="45.0274417" lon="8.17671"><ele>218.59999999999997</ele><time>2026-04-11T10:45:37.26Z</time></trkpt><trkpt lat="45.0273517" lon="8.1766933"><ele>218.79999999999998</ele><time>2026-04-11T10:45:38.26Z</time></trkpt><trkpt lat="45.0272683" lon="8.1766583"><ele>219.0</ele><time>2026-04-11T10:45:39.261Z</time></trkpt><trkpt lat="45.02719" lon="8.1766117"><ele>219.0</ele><time>2026-04-11T10:45:40.26Z</time></trkpt><trkpt lat="45.0271167" lon="8.1765733"><ele>219.0</ele><time>2026-04-11T10:45:41.26Z</time></trkpt><trkpt lat="45.02705" lon="8.1765367"><ele>219.0</ele><time>2026-04-11T10:45:42.26Z</time></trkpt><trkpt lat="45.026995" lon="8.1764917"><ele>219.0</ele><time>2026-04-11T10:45:43.261Z</time></trkpt><trkpt lat="45.0269383" lon="8.176435"><ele>219.0</ele><time>2026-04-11T10:45:44.26Z</time></trkpt><trkpt lat="45.02688" lon="8.17638"><ele>219.0</ele><time>2026-04-11T10:45:45.261Z</time></trkpt><trkpt lat="45.0268217" lon="8.176335"><ele>219.0</ele><time>2026-04-11T10:45:46.26Z</time></trkpt><trkpt lat="45.0267567" lon="8.1763117"><ele>218.33333333333334</ele><time>2026-04-11T10:45:47.26Z</time></trkpt><trkpt lat="45.0266883" lon="8.1763017"><ele>217.66666666666669</ele><time>2026-04-11T10:45:48.261Z</time></trkpt><trkpt lat="45.0266033" lon="8.176315"><ele>217.0</ele><time>2026-04-11T10:45:49.26Z</time></trkpt><trkpt lat="45.0265167" lon="8.17637"><ele>216.33333333333334</ele><time>2026-04-11T10:45:50.26Z</time></trkpt><trkpt lat="45.02644" lon="8.1764383"><ele>215.66666666666669</ele><time>2026-04-11T10:45:51.26Z</time></trkpt><trkpt lat="45.0263617" lon="8.1765283"><ele>215.0</ele><time>2026-04-11T10:45:52.26Z</time></trkpt><trkpt lat="45.0262917" lon="8.1766183"><ele>215.00000000000003</ele><time>2026-04-11T10:45:53.26Z</time></trkpt><trkpt lat="45.026245" lon="8.176705"><ele>215.0</ele><time>2026-04-11T10:45:54.261Z</time></trkpt><trkpt lat="45.026205" lon="8.17679"><ele>215.0</ele><time>2026-04-11T10:45:55.26Z</time></trkpt><trkpt lat="45.0261883" lon="8.1768783"><ele>215.0</ele><time>2026-04-11T10:45:56.26Z</time></trkpt><trkpt lat="45.0261783" lon="8.17697"><ele>215.00000000000003</ele><time>2026-04-11T10:45:57.26Z</time></trkpt><trkpt lat="45.026155" lon="8.1770683"><ele>215.0</ele><time>2026-04-11T10:45:58.26Z</time></trkpt><trkpt lat="45.02608" lon="8.1772067"><ele>215.0</ele><time>2026-04-11T10:46:00.26Z</time></trkpt><trkpt lat="45.0259517" lon="8.1772767"><ele>215.0</ele><time>2026-04-11T10:46:02.26Z</time></trkpt><trkpt lat="45.02587" lon="8.1772933"><ele>215.0</ele><time>2026-04-11T10:46:03.26Z</time></trkpt><trkpt lat="45.02578" lon="8.1773183"><ele>215.0</ele><time>2026-04-11T10:46:04.26Z</time></trkpt><trkpt lat="45.025695" lon="8.1773483"><ele>215.0</ele><time>2026-04-11T10:46:05.26Z</time></trkpt><trkpt lat="45.0256083" lon="8.1773817"><ele>214.00000000000003</ele><time>2026-04-11T10:46:06.26Z</time></trkpt><trkpt lat="45.0255133" lon="8.1774283"><ele>213.0</ele><time>2026-04-11T10:46:07.26Z</time></trkpt><trkpt lat="45.0254233" lon="8.17745"><ele>212.0</ele><time>2026-04-11T10:46:08.26Z</time></trkpt><trkpt lat="45.025345" lon="8.1774733"><ele>211.0</ele><time>2026-04-11T10:46:09.26Z</time></trkpt><trkpt lat="45.0252717" lon="8.1774667"><ele>210.00000000000003</ele><time>2026-04-11T10:46:10.26Z</time></trkpt><trkpt lat="45.0251983" lon="8.1774583"><ele>209.0</ele><time>2026-04-11T10:46:11.26Z</time></trkpt><trkpt lat="45.0251133" lon="8.17744"><ele>209.0</ele><time>2026-04-11T10:46:12.261Z</time></trkpt><trkpt lat="45.0250217" lon="8.17742"><ele>209.0</ele><time>2026-04-11T10:46:13.26Z</time></trkpt><trkpt lat="45.0248383" lon="8.1773633"><ele>209.0</ele><time>2026-04-11T10:46:15.261Z</time></trkpt><trkpt lat="45.0247433" lon="8.1773217"><ele>209.0</ele><time>2026-04-11T10:46:16.26Z</time></trkpt><trkpt lat="45.0246367" lon="8.177275"><ele>208.2</ele><time>2026-04-11T10:46:17.26Z</time></trkpt><trkpt lat="45.024535" lon="8.17722"><ele>207.39999999999998</ele><time>2026-04-11T10:46:18.261Z</time></trkpt><trkpt lat="45.0244383" lon="8.1771717"><ele>206.6</ele><time>2026-04-11T10:46:19.26Z</time></trkpt><trkpt lat="45.0243433" lon="8.1771133"><ele>205.8</ele><time>2026-04-11T10:46:20.26Z</time></trkpt><trkpt lat="45.0242417" lon="8.177055"><ele>205.0</ele><time>2026-04-11T10:46:21.26Z</time></trkpt><trkpt lat="45.0241483" lon="8.1769967"><ele>204.6</ele><time>2026-04-11T10:46:22.26Z</time></trkpt><trkpt lat="45.02406" lon="8.1769317"><ele>204.2</ele><time>2026-04-11T10:46:23.26Z</time></trkpt><trkpt lat="45.0239833" lon="8.1768633"><ele>203.8</ele><time>2026-04-11T10:46:24.261Z</time></trkpt><trkpt lat="45.02391" lon="8.176785"><ele>203.4</ele><time>2026-04-11T10:46:25.26Z</time></trkpt><trkpt lat="45.0238533" lon="8.1766933"><ele>203.0</ele><time>2026-04-11T10:46:26.26Z</time></trkpt><trkpt lat="45.0238117" lon="8.1765933"><ele>202.83333333333334</ele><time>2026-04-11T10:46:27.26Z</time></trkpt><trkpt lat="45.023785" lon="8.17649"><ele>202.66666666666669</ele><time>2026-04-11T10:46:28.26Z</time></trkpt><trkpt lat="45.02377" lon="8.176395"><ele>202.5</ele><time>2026-04-11T10:46:29.26Z</time></trkpt><trkpt lat="45.0236967" lon="8.17623"><ele>202.33333333333331</ele><time>2026-04-11T10:46:31.26Z</time></trkpt><trkpt lat="45.0236417" lon="8.1761783"><ele>202.16666666666666</ele><time>2026-04-11T10:46:32.26Z</time></trkpt><trkpt lat="45.0235683" lon="8.17613"><ele>202.0</ele><time>2026-04-11T10:46:33.261Z</time></trkpt><trkpt lat="45.0234783" lon="8.1761"><ele>202.0</ele><time>2026-04-11T10:46:34.26Z</time></trkpt><trkpt lat="45.0233867" lon="8.17607"><ele>202.0</ele><time>2026-04-11T10:46:35.26Z</time></trkpt><trkpt lat="45.023285" lon="8.1760333"><ele>202.0</ele><time>2026-04-11T10:46:36.26Z</time></trkpt><trkpt lat="45.0231867" lon="8.1760067"><ele>202.0</ele><time>2026-04-11T10:46:37.26Z</time></trkpt><trkpt lat="45.0230833" lon="8.1759767"><ele>202.0</ele><time>2026-04-11T10:46:38.26Z</time></trkpt><trkpt lat="45.022985" lon="8.175955"><ele>202.6</ele><time>2026-04-11T10:46:39.261Z</time></trkpt><trkpt lat="45.0228833" lon="8.1759483"><ele>203.2</ele><time>2026-04-11T10:46:40.261Z</time></trkpt><trkpt lat="45.02278" lon="8.1759433"><ele>203.8</ele><time>2026-04-11T10:46:41.261Z</time></trkpt><trkpt lat="45.0226717" lon="8.1759233"><ele>204.4</ele><time>2026-04-11T10:46:42.26Z</time></trkpt><trkpt lat="45.0225633" lon="8.1758883"><ele>205.0</ele><time>2026-04-11T10:46:43.26Z</time></trkpt><trkpt lat="45.0224583" lon="8.17586"><ele>205.0</ele><time>2026-04-11T10:46:44.26Z</time></trkpt><trkpt lat="45.022355" lon="8.1758283"><ele>205.0</ele><time>2026-04-11T10:46:45.26Z</time></trkpt><trkpt lat="45.02225" lon="8.1757933"><ele>205.0</ele><time>2026-04-11T10:46:46.26Z</time></trkpt><trkpt lat="45.0221517" lon="8.175765"><ele>205.0</ele><time>2026-04-11T10:46:47.261Z</time></trkpt><trkpt lat="45.0220467" lon="8.1757317"><ele>205.0</ele><time>2026-04-11T10:46:48.26Z</time></trkpt><trkpt lat="45.0219317" lon="8.1756917"><ele>204.8</ele><time>2026-04-11T10:46:49.261Z</time></trkpt><trkpt lat="45.02182" lon="8.175645"><ele>204.6</ele><time>2026-04-11T10:46:50.26Z</time></trkpt><trkpt lat="45.0217133" lon="8.1756033"><ele>204.39999999999998</ele><time>2026-04-11T10:46:51.26Z</time></trkpt><trkpt lat="45.0216033" lon="8.1755617"><ele>204.2</ele><time>2026-04-11T10:46:52.26Z</time></trkpt><trkpt lat="45.0215" lon="8.17552"><ele>204.0</ele><time>2026-04-11T10:46:53.261Z</time></trkpt><trkpt lat="45.0213933" lon="8.175495"><ele>204.6</ele><time>2026-04-11T10:46:54.26Z</time></trkpt><trkpt lat="45.0212917" lon="8.1754583"><ele>205.2</ele><time>2026-04-11T10:46:55.26Z</time></trkpt><trkpt lat="45.0211917" lon="8.1754083"><ele>205.79999999999998</ele><time>2026-04-11T10:46:56.26Z</time></trkpt><trkpt lat="45.0210883" lon="8.175355"><ele>206.39999999999998</ele><time>2026-04-11T10:46:57.26Z</time></trkpt><trkpt lat="45.02098" lon="8.1753117"><ele>207.0</ele><time>2026-04-11T10:46:58.26Z</time></trkpt><trkpt lat="45.0208967" lon="8.175255"><ele>207.8</ele><time>2026-04-11T10:46:59.26Z</time></trkpt><trkpt lat="45.02081" lon="8.175205"><ele>208.6</ele><time>2026-04-11T10:47:00.26Z</time></trkpt><trkpt lat="45.02072" lon="8.1751367"><ele>209.4</ele><time>2026-04-11T10:47:01.26Z</time></trkpt><trkpt lat="45.0206233" lon="8.1750867"><ele>210.20000000000002</ele><time>2026-04-11T10:47:02.261Z</time></trkpt><trkpt lat="45.0205317" lon="8.1750333"><ele>211.0</ele><time>2026-04-11T10:47:03.26Z</time></trkpt><trkpt lat="45.0204433" lon="8.1749817"><ele>211.0</ele><time>2026-04-11T10:47:04.26Z</time></trkpt><trkpt lat="45.0203583" lon="8.1749217"><ele>211.0</ele><time>2026-04-11T10:47:05.26Z</time></trkpt><trkpt lat="45.0202733" lon="8.17486"><ele>211.0</ele><time>2026-04-11T10:47:06.26Z</time></trkpt><trkpt lat="45.0201783" lon="8.1747983"><ele>211.0</ele><time>2026-04-11T10:47:07.26Z</time></trkpt><trkpt lat="45.0200817" lon="8.1747233"><ele>211.0</ele><time>2026-04-11T10:47:08.26Z</time></trkpt><trkpt lat="45.0199917" lon="8.1746417"><ele>210.33333333333331</ele><time>2026-04-11T10:47:09.26Z</time></trkpt><trkpt lat="45.0199033" lon="8.174565"><ele>209.66666666666666</ele><time>2026-04-11T10:47:10.26Z</time></trkpt><trkpt lat="45.0198467" lon="8.1745067"><ele>209.0</ele><time>2026-04-11T10:47:11.26Z</time></trkpt><trkpt lat="45.01978" lon="8.1744417"><ele>208.33333333333331</ele><time>2026-04-11T10:47:12.26Z</time></trkpt><trkpt lat="45.0197183" lon="8.1743783"><ele>207.66666666666666</ele><time>2026-04-11T10:47:13.261Z</time></trkpt><trkpt lat="45.0196617" lon="8.17432"><ele>207.0</ele><time>2026-04-11T10:47:14.26Z</time></trkpt><trkpt lat="45.01961" lon="8.1742533"><ele>207.0</ele><time>2026-04-11T10:47:15.26Z</time></trkpt><trkpt lat="45.0195583" lon="8.1741717"><ele>207.0</ele><time>2026-04-11T10:47:16.261Z</time></trkpt><trkpt lat="45.0195067" lon="8.1740867"><ele>207.0</ele><time>2026-04-11T10:47:17.26Z</time></trkpt><trkpt lat="45.0194617" lon="8.17399"><ele>207.0</ele><time>2026-04-11T10:47:18.26Z</time></trkpt><trkpt lat="45.01941" lon="8.1738817"><ele>207.0</ele><time>2026-04-11T10:47:19.26Z</time></trkpt><trkpt lat="45.0193567" lon="8.1737617"><ele>207.0</ele><time>2026-04-11T10:47:20.261Z</time></trkpt><trkpt lat="45.0193017" lon="8.1736533"><ele>207.16666666666666</ele><time>2026-04-11T10:47:21.26Z</time></trkpt><trkpt lat="45.0192467" lon="8.1735283"><ele>207.33333333333331</ele><time>2026-04-11T10:47:22.261Z</time></trkpt><trkpt lat="45.0191917" lon="8.1734183"><ele>207.5</ele><time>2026-04-11T10:47:23.26Z</time></trkpt><trkpt lat="45.0191333" lon="8.1733233"><ele>207.66666666666666</ele><time>2026-04-11T10:47:24.26Z</time></trkpt><trkpt lat="45.0190867" lon="8.173225"><ele>207.83333333333331</ele><time>2026-04-11T10:47:25.26Z</time></trkpt><trkpt lat="45.019045" lon="8.1731383"><ele>208.0</ele><time>2026-04-11T10:47:26.26Z</time></trkpt><trkpt lat="45.0189867" lon="8.1730033"><ele>207.16666666666666</ele><time>2026-04-11T10:47:28.26Z</time></trkpt><trkpt lat="45.01894" lon="8.172915"><ele>206.33333333333331</ele><time>2026-04-11T10:47:30.26Z</time></trkpt><trkpt lat="45.01888" lon="8.1728317"><ele>205.5</ele><time>2026-04-11T10:47:33.26Z</time></trkpt><trkpt lat="45.0188033" lon="8.1728683"><ele>204.66666666666669</ele><time>2026-04-11T10:47:36.26Z</time></trkpt><trkpt lat="45.0187467" lon="8.17292"><ele>203.83333333333334</ele><time>2026-04-11T10:47:39.26Z</time></trkpt><trkpt lat="45.018685" lon="8.172975"><ele>203.0</ele><time>2026-04-11T10:47:44.261Z</time></trkpt><trkpt lat="45.018635" lon="8.1730617"><ele>203.00000000000003</ele><time>2026-04-11T10:47:47.26Z</time></trkpt><trkpt lat="45.01861" lon="8.1731817"><ele>203.0</ele><time>2026-04-11T10:47:50.26Z</time></trkpt><trkpt lat="45.0185517" lon="8.1732933"><ele>203.0</ele><time>2026-04-11T10:47:52.261Z</time></trkpt><trkpt lat="45.018495" lon="8.1733467"><ele>203.0</ele><time>2026-04-11T10:47:53.26Z</time></trkpt><trkpt lat="45.0184317" lon="8.17341"><ele>203.00000000000003</ele><time>2026-04-11T10:47:54.26Z</time></trkpt><trkpt lat="45.018365" lon="8.1734783"><ele>203.0</ele><time>2026-04-11T10:47:55.26Z</time></trkpt><trkpt lat="45.0183067" lon="8.1735533"><ele>200.71428571428572</ele><time>2026-04-11T10:47:56.26Z</time></trkpt><trkpt lat="45.0182517" lon="8.173635"><ele>198.42857142857144</ele><time>2026-04-11T10:47:57.26Z</time></trkpt><trkpt lat="45.0182" lon="8.1737033"><ele>196.14285714285714</ele><time>2026-04-11T10:47:58.26Z</time></trkpt><trkpt lat="45.0181483" lon="8.17377"><ele>193.85714285714286</ele><time>2026-04-11T10:47:59.26Z</time></trkpt><trkpt lat="45.0180983" lon="8.1738317"><ele>191.57142857142858</ele><time>2026-04-11T10:48:00.26Z</time></trkpt><trkpt lat="45.018045" lon="8.1738967"><ele>189.28571428571428</ele><time>2026-04-11T10:48:01.26Z</time></trkpt><trkpt lat="45.01799" lon="8.1739683"><ele>187.0</ele><time>2026-04-11T10:48:02.261Z</time></trkpt><trkpt lat="45.01794" lon="8.1740317"><ele>187.0</ele><time>2026-04-11T10:48:03.26Z</time></trkpt><trkpt lat="45.0178417" lon="8.1740817"><ele>187.0</ele><time>2026-04-11T10:48:05.26Z</time></trkpt><trkpt lat="45.0177533" lon="8.174"><ele>187.0</ele><time>2026-04-11T10:48:07.26Z</time></trkpt><trkpt lat="45.0176817" lon="8.1738517"><ele>187.0</ele><time>2026-04-11T10:48:09.261Z</time></trkpt><trkpt lat="45.0176367" lon="8.17377"><ele>187.0</ele><time>2026-04-11T10:48:10.259Z</time></trkpt><trkpt lat="45.0175983" lon="8.1736867"><ele>187.0</ele><time>2026-04-11T10:48:11.259Z</time></trkpt><trkpt lat="45.0175533" lon="8.1736033"><ele>187.0</ele><time>2026-04-11T10:48:12.259Z</time></trkpt><trkpt lat="45.0175017" lon="8.1735133"><ele>187.0</ele><time>2026-04-11T10:48:13.259Z</time></trkpt><trkpt lat="45.0174467" lon="8.17342"><ele>187.0</ele><time>2026-04-11T10:48:14.26Z</time></trkpt><trkpt lat="45.0173967" lon="8.1733317"><ele>187.0</ele><time>2026-04-11T10:48:15.259Z</time></trkpt><trkpt lat="45.0173333" lon="8.17324"><ele>187.0</ele><time>2026-04-11T10:48:16.259Z</time></trkpt><trkpt lat="45.0172783" lon="8.17314"><ele>186.5</ele><time>2026-04-11T10:48:17.259Z</time></trkpt><trkpt lat="45.01722" lon="8.1730383"><ele>186.0</ele><time>2026-04-11T10:48:18.259Z</time></trkpt><trkpt lat="45.017165" lon="8.1729483"><ele>185.5</ele><time>2026-04-11T10:48:19.26Z</time></trkpt><trkpt lat="45.017105" lon="8.1728683"><ele>185.0</ele><time>2026-04-11T10:48:20.259Z</time></trkpt><trkpt lat="45.0170467" lon="8.1728"><ele>184.5</ele><time>2026-04-11T10:48:21.259Z</time></trkpt><trkpt lat="45.01699" lon="8.17273"><ele>184.0</ele><time>2026-04-11T10:48:22.259Z</time></trkpt><trkpt lat="45.0169283" lon="8.1726883"><ele>184.0</ele><time>2026-04-11T10:48:23.259Z</time></trkpt><trkpt lat="45.0168617" lon="8.1726517"><ele>184.0</ele><time>2026-04-11T10:48:24.259Z</time></trkpt><trkpt lat="45.0167883" lon="8.1726217"><ele>184.0</ele><time>2026-04-11T10:48:25.259Z</time></trkpt><trkpt lat="45.0167117" lon="8.172595"><ele>184.0</ele><time>2026-04-11T10:48:26.259Z</time></trkpt><trkpt lat="45.016635" lon="8.1725517"><ele>184.0</ele><time>2026-04-11T10:48:27.26Z</time></trkpt><trkpt lat="45.0165583" lon="8.1725017"><ele>184.0</ele><time>2026-04-11T10:48:28.26Z</time></trkpt><trkpt lat="45.0164867" lon="8.1724533"><ele>182.5</ele><time>2026-04-11T10:48:29.259Z</time></trkpt><trkpt lat="45.0164217" lon="8.17241"><ele>181.0</ele><time>2026-04-11T10:48:30.259Z</time></trkpt><trkpt lat="45.0163483" lon="8.1723617"><ele>179.5</ele><time>2026-04-11T10:48:31.259Z</time></trkpt><trkpt lat="45.0162817" lon="8.1723217"><ele>178.0</ele><time>2026-04-11T10:48:32.259Z</time></trkpt><trkpt lat="45.0162183" lon="8.17229"><ele>176.5</ele><time>2026-04-11T10:48:33.26Z</time></trkpt><trkpt lat="45.0160883" lon="8.1722717"><ele>175.0</ele><time>2026-04-11T10:48:35.259Z</time></trkpt><trkpt lat="45.0159833" lon="8.1723633"><ele>175.0</ele><time>2026-04-11T10:48:37.259Z</time></trkpt><trkpt lat="45.0159483" lon="8.1724433"><ele>175.0</ele><time>2026-04-11T10:48:38.259Z</time></trkpt><trkpt lat="45.0159333" lon="8.172545"><ele>175.0</ele><time>2026-04-11T10:48:39.26Z</time></trkpt><trkpt lat="45.0159283" lon="8.1726633"><ele>175.0</ele><time>2026-04-11T10:48:40.26Z</time></trkpt><trkpt lat="45.0159217" lon="8.1727783"><ele>175.0</ele><time>2026-04-11T10:48:41.259Z</time></trkpt><trkpt lat="45.01591" lon="8.1728967"><ele>175.0</ele><time>2026-04-11T10:48:42.26Z</time></trkpt><trkpt lat="45.0158967" lon="8.17301"><ele>175.0</ele><time>2026-04-11T10:48:43.26Z</time></trkpt><trkpt lat="45.0158817" lon="8.1731283"><ele>175.0</ele><time>2026-04-11T10:48:44.259Z</time></trkpt><trkpt lat="45.0158733" lon="8.1732267"><ele>175.0</ele><time>2026-04-11T10:48:45.26Z</time></trkpt><trkpt lat="45.015875" lon="8.1733217"><ele>175.0</ele><time>2026-04-11T10:48:46.259Z</time></trkpt><trkpt lat="45.0158933" lon="8.17342"><ele>175.0</ele><time>2026-04-11T10:48:47.259Z</time></trkpt><trkpt lat="45.015915" lon="8.1735317"><ele>175.0</ele><time>2026-04-11T10:48:48.26Z</time></trkpt><trkpt lat="45.0159317" lon="8.1736317"><ele>175.0</ele><time>2026-04-11T10:48:49.259Z</time></trkpt><trkpt lat="45.01595" lon="8.1737317"><ele>175.0</ele><time>2026-04-11T10:48:50.259Z</time></trkpt><trkpt lat="45.0159617" lon="8.173835"><ele>175.0</ele><time>2026-04-11T10:48:51.26Z</time></trkpt><trkpt lat="45.0159533" lon="8.17394"><ele>175.0</ele><time>2026-04-11T10:48:52.259Z</time></trkpt><trkpt lat="45.0159333" lon="8.1740483"><ele>175.0</ele><time>2026-04-11T10:48:53.26Z</time></trkpt><trkpt lat="45.0158983" lon="8.1741483"><ele>175.0</ele><time>2026-04-11T10:48:54.259Z</time></trkpt><trkpt lat="45.015855" lon="8.1742567"><ele>175.0</ele><time>2026-04-11T10:48:55.259Z</time></trkpt><trkpt lat="45.0158167" lon="8.1743633"><ele>172.66666666666669</ele><time>2026-04-11T10:48:56.259Z</time></trkpt><trkpt lat="45.0157917" lon="8.1744717"><ele>170.33333333333334</ele><time>2026-04-11T10:48:57.259Z</time></trkpt><trkpt lat="45.015765" lon="8.17458"><ele>168.0</ele><time>2026-04-11T10:48:58.259Z</time></trkpt><trkpt lat="45.015735" lon="8.1746883"><ele>165.66666666666666</ele><time>2026-04-11T10:48:59.26Z</time></trkpt><trkpt lat="45.0157" lon="8.1748033"><ele>163.33333333333331</ele><time>2026-04-11T10:49:00.259Z</time></trkpt><trkpt lat="45.0156567" lon="8.1749233"><ele>161.0</ele><time>2026-04-11T10:49:01.259Z</time></trkpt><trkpt lat="45.015605" lon="8.1750433"><ele>160.5</ele><time>2026-04-11T10:49:02.259Z</time></trkpt><trkpt lat="45.0155567" lon="8.1751583"><ele>160.0</ele><time>2026-04-11T10:49:03.259Z</time></trkpt><trkpt lat="45.0154083" lon="8.17544"><ele>159.5</ele><time>2026-04-11T10:49:06.259Z</time></trkpt><trkpt lat="45.0153633" lon="8.1755333"><ele>159.0</ele><time>2026-04-11T10:49:07.259Z</time></trkpt><trkpt lat="45.0153117" lon="8.1756583"><ele>159.6</ele><time>2026-04-11T10:49:09.259Z</time></trkpt><trkpt lat="45.0153333" lon="8.1757667"><ele>160.2</ele><time>2026-04-11T10:49:11.259Z</time></trkpt><trkpt lat="45.015445" lon="8.1758467"><ele>160.79999999999998</ele><time>2026-04-11T10:49:13.26Z</time></trkpt><trkpt lat="45.01552" lon="8.175875"><ele>161.4</ele><time>2026-04-11T10:49:14.259Z</time></trkpt><trkpt lat="45.0156117" lon="8.1758983"><ele>162.0</ele><time>2026-04-11T10:49:15.259Z</time></trkpt><trkpt lat="45.0157117" lon="8.17592"><ele>162.0</ele><time>2026-04-11T10:49:16.259Z</time></trkpt><trkpt lat="45.015815" lon="8.175955"><ele>162.0</ele><time>2026-04-11T10:49:17.259Z</time></trkpt><trkpt lat="45.015925" lon="8.17599"><ele>162.0</ele><time>2026-04-11T10:49:18.26Z</time></trkpt><trkpt lat="45.016035" lon="8.1760317"><ele>162.0</ele><time>2026-04-11T10:49:19.259Z</time></trkpt><trkpt lat="45.016145" lon="8.1760733"><ele>162.0</ele><time>2026-04-11T10:49:20.259Z</time></trkpt><trkpt lat="45.0162433" lon="8.1761133"><ele>161.4</ele><time>2026-04-11T10:49:21.259Z</time></trkpt><trkpt lat="45.0163483" lon="8.17616"><ele>160.79999999999998</ele><time>2026-04-11T10:49:22.26Z</time></trkpt><trkpt lat="45.0164483" lon="8.1762033"><ele>160.2</ele><time>2026-04-11T10:49:23.259Z</time></trkpt><trkpt lat="45.016555" lon="8.1762533"><ele>159.6</ele><time>2026-04-11T10:49:24.259Z</time></trkpt><trkpt lat="45.0166567" lon="8.1763017"><ele>159.0</ele><time>2026-04-11T10:49:25.259Z</time></trkpt><trkpt lat="45.01676" lon="8.1763667"><ele>159.0</ele><time>2026-04-11T10:49:26.259Z</time></trkpt><trkpt lat="45.016855" lon="8.1764417"><ele>159.0</ele><time>2026-04-11T10:49:27.259Z</time></trkpt><trkpt lat="45.0169467" lon="8.1765433"><ele>159.0</ele><time>2026-04-11T10:49:28.259Z</time></trkpt><trkpt lat="45.0170367" lon="8.1766517"><ele>159.0</ele><time>2026-04-11T10:49:29.26Z</time></trkpt><trkpt lat="45.01713" lon="8.1767717"><ele>159.0</ele><time>2026-04-11T10:49:30.259Z</time></trkpt><trkpt lat="45.017215" lon="8.1769033"><ele>159.0</ele><time>2026-04-11T10:49:31.259Z</time></trkpt><trkpt lat="45.017285" lon="8.1770283"><ele>159.0</ele><time>2026-04-11T10:49:32.259Z</time></trkpt><trkpt lat="45.0173583" lon="8.177155"><ele>159.0</ele><time>2026-04-11T10:49:33.259Z</time></trkpt><trkpt lat="45.017425" lon="8.1772633"><ele>159.8</ele><time>2026-04-11T10:49:34.259Z</time></trkpt><trkpt lat="45.0175067" lon="8.1773667"><ele>160.60000000000002</ele><time>2026-04-11T10:49:35.259Z</time></trkpt><trkpt lat="45.0175833" lon="8.1774517"><ele>161.4</ele><time>2026-04-11T10:49:36.259Z</time></trkpt><trkpt lat="45.0176583" lon="8.177525"><ele>162.20000000000002</ele><time>2026-04-11T10:49:37.26Z</time></trkpt><trkpt lat="45.017725" lon="8.177595"><ele>163.0</ele><time>2026-04-11T10:49:38.259Z</time></trkpt><trkpt lat="45.01778" lon="8.177665"><ele>163.0</ele><time>2026-04-11T10:49:39.259Z</time></trkpt><trkpt lat="45.0178167" lon="8.177745"><ele>163.0</ele><time>2026-04-11T10:49:40.26Z</time></trkpt><trkpt lat="45.0178333" lon="8.17784"><ele>163.0</ele><time>2026-04-11T10:49:41.26Z</time></trkpt><trkpt lat="45.0178267" lon="8.1779567"><ele>163.0</ele><time>2026-04-11T10:49:42.26Z</time></trkpt><trkpt lat="45.0177933" lon="8.1780733"><ele>163.0</ele><time>2026-04-11T10:49:43.259Z</time></trkpt><trkpt lat="45.0177533" lon="8.1782017"><ele>163.0</ele><time>2026-04-11T10:49:44.26Z</time></trkpt><trkpt lat="45.0177267" lon="8.17831"><ele>163.16666666666669</ele><time>2026-04-11T10:49:45.259Z</time></trkpt><trkpt lat="45.0177233" lon="8.17842"><ele>163.33333333333334</ele><time>2026-04-11T10:49:46.259Z</time></trkpt><trkpt lat="45.0177483" lon="8.1785267"><ele>163.5</ele><time>2026-04-11T10:49:47.259Z</time></trkpt><trkpt lat="45.0178033" lon="8.17862"><ele>163.66666666666666</ele><time>2026-04-11T10:49:48.259Z</time></trkpt><trkpt lat="45.0178667" lon="8.1787233"><ele>163.83333333333331</ele><time>2026-04-11T10:49:49.259Z</time></trkpt><trkpt lat="45.0179367" lon="8.1788267"><ele>164.0</ele><time>2026-04-11T10:49:50.26Z</time></trkpt><trkpt lat="45.0180133" lon="8.1789317"><ele>165.66666666666666</ele><time>2026-04-11T10:49:51.259Z</time></trkpt><trkpt lat="45.0180817" lon="8.179035"><ele>167.33333333333331</ele><time>2026-04-11T10:49:52.259Z</time></trkpt><trkpt lat="45.0181433" lon="8.1791383"><ele>169.0</ele><time>2026-04-11T10:49:53.259Z</time></trkpt><trkpt lat="45.0181883" lon="8.1792283"><ele>170.66666666666666</ele><time>2026-04-11T10:49:54.26Z</time></trkpt><trkpt lat="45.0182233" lon="8.1793233"><ele>172.33333333333334</ele><time>2026-04-11T10:49:55.259Z</time></trkpt><trkpt lat="45.018235" lon="8.1794317"><ele>174.0</ele><time>2026-04-11T10:49:56.259Z</time></trkpt><trkpt lat="45.0182133" lon="8.1795433"><ele>174.0</ele><time>2026-04-11T10:49:57.259Z</time></trkpt><trkpt lat="45.01818" lon="8.17967"><ele>174.0</ele><time>2026-04-11T10:49:58.259Z</time></trkpt><trkpt lat="45.0181533" lon="8.1797867"><ele>174.0</ele><time>2026-04-11T10:49:59.259Z</time></trkpt><trkpt lat="45.01814" lon="8.179895"><ele>174.0</ele><time>2026-04-11T10:50:00.259Z</time></trkpt><trkpt lat="45.018135" lon="8.1800133"><ele>174.0</ele><time>2026-04-11T10:50:01.26Z</time></trkpt><trkpt lat="45.0181467" lon="8.1801283"><ele>174.0</ele><time>2026-04-11T10:50:02.259Z</time></trkpt><trkpt lat="45.0181683" lon="8.18025"><ele>176.2</ele><time>2026-04-11T10:50:03.259Z</time></trkpt><trkpt lat="45.0182083" lon="8.1803633"><ele>178.39999999999998</ele><time>2026-04-11T10:50:04.259Z</time></trkpt><trkpt lat="45.0182483" lon="8.1804817"><ele>180.6</ele><time>2026-04-11T10:50:05.26Z</time></trkpt><trkpt lat="45.0182883" lon="8.180595"><ele>182.8</ele><time>2026-04-11T10:50:06.259Z</time></trkpt><trkpt lat="45.0183517" lon="8.1806917"><ele>185.0</ele><time>2026-04-11T10:50:07.259Z</time></trkpt><trkpt lat="45.0184067" lon="8.1807883"><ele>185.8</ele><time>2026-04-11T10:50:08.259Z</time></trkpt><trkpt lat="45.018475" lon="8.1809017"><ele>186.6</ele><time>2026-04-11T10:50:09.259Z</time></trkpt><trkpt lat="45.01854" lon="8.1810117"><ele>187.39999999999998</ele><time>2026-04-11T10:50:10.259Z</time></trkpt><trkpt lat="45.01861" lon="8.181095"><ele>188.2</ele><time>2026-04-11T10:50:11.259Z</time></trkpt><trkpt lat="45.018685" lon="8.1811633"><ele>189.0</ele><time>2026-04-11T10:50:12.259Z</time></trkpt><trkpt lat="45.0187633" lon="8.181235"><ele>189.0</ele><time>2026-04-11T10:50:13.259Z</time></trkpt><trkpt lat="45.01885" lon="8.1812983"><ele>189.0</ele><time>2026-04-11T10:50:14.26Z</time></trkpt><trkpt lat="45.0189367" lon="8.1813417"><ele>189.0</ele><time>2026-04-11T10:50:15.259Z</time></trkpt><trkpt lat="45.0190267" lon="8.1813833"><ele>189.0</ele><time>2026-04-11T10:50:16.26Z</time></trkpt><trkpt lat="45.0191233" lon="8.1814117"><ele>189.0</ele><time>2026-04-11T10:50:17.259Z</time></trkpt><trkpt lat="45.019225" lon="8.18145"><ele>190.0</ele><time>2026-04-11T10:50:18.26Z</time></trkpt><trkpt lat="45.0193317" lon="8.1814867"><ele>191.0</ele><time>2026-04-11T10:50:19.26Z</time></trkpt><trkpt lat="45.0194317" lon="8.1815383"><ele>192.0</ele><time>2026-04-11T10:50:20.259Z</time></trkpt><trkpt lat="45.0195433" lon="8.1815783"><ele>193.0</ele><time>2026-04-11T10:50:21.259Z</time></trkpt><trkpt lat="45.0196533" lon="8.18161"><ele>194.0</ele><time>2026-04-11T10:50:22.259Z</time></trkpt><trkpt lat="45.0197717" lon="8.18164"><ele>194.0</ele><time>2026-04-11T10:50:23.26Z</time></trkpt><trkpt lat="45.0198867" lon="8.1816633"><ele>194.0</ele><time>2026-04-11T10:50:24.26Z</time></trkpt><trkpt lat="45.020005" lon="8.18169"><ele>194.0</ele><time>2026-04-11T10:50:25.26Z</time></trkpt><trkpt lat="45.020115" lon="8.1817083"><ele>194.0</ele><time>2026-04-11T10:50:26.26Z</time></trkpt><trkpt lat="45.0202133" lon="8.1817317"><ele>194.0</ele><time>2026-04-11T10:50:27.26Z</time></trkpt><trkpt lat="45.0203" lon="8.18176"><ele>194.16666666666669</ele><time>2026-04-11T10:50:28.259Z</time></trkpt><trkpt lat="45.02039" lon="8.18178"><ele>194.33333333333334</ele><time>2026-04-11T10:50:29.259Z</time></trkpt><trkpt lat="45.0204767" lon="8.1818167"><ele>194.5</ele><time>2026-04-11T10:50:30.259Z</time></trkpt><trkpt lat="45.0205467" lon="8.18187"><ele>194.66666666666669</ele><time>2026-04-11T10:50:31.259Z</time></trkpt><trkpt lat="45.0206283" lon="8.181925"><ele>194.83333333333334</ele><time>2026-04-11T10:50:32.259Z</time></trkpt><trkpt lat="45.0206917" lon="8.1819867"><ele>195.0</ele><time>2026-04-11T10:50:33.259Z</time></trkpt><trkpt lat="45.0207767" lon="8.182105"><ele>195.4</ele><time>2026-04-11T10:50:35.259Z</time></trkpt><trkpt lat="45.0208533" lon="8.182195"><ele>195.8</ele><time>2026-04-11T10:50:46.259Z</time></trkpt><trkpt lat="45.0209167" lon="8.1822883"><ele>196.2</ele><time>2026-04-11T10:50:48.259Z</time></trkpt><trkpt lat="45.020985" lon="8.1823533"><ele>196.6</ele><time>2026-04-11T10:50:50.26Z</time></trkpt><trkpt lat="45.0211033" lon="8.1824"><ele>197.0</ele><time>2026-04-11T10:50:52.259Z</time></trkpt><trkpt lat="45.0211883" lon="8.182425"><ele>197.39999999999998</ele><time>2026-04-11T10:50:53.259Z</time></trkpt><trkpt lat="45.0212783" lon="8.18245"><ele>197.79999999999998</ele><time>2026-04-11T10:50:54.259Z</time></trkpt><trkpt lat="45.0213733" lon="8.1824967"><ele>198.2</ele><time>2026-04-11T10:50:55.259Z</time></trkpt><trkpt lat="45.021465" lon="8.1825267"><ele>198.6</ele><time>2026-04-11T10:50:56.26Z</time></trkpt><trkpt lat="45.02156" lon="8.1825633"><ele>199.0</ele><time>2026-04-11T10:50:57.259Z</time></trkpt><trkpt lat="45.0216667" lon="8.1825983"><ele>200.2</ele><time>2026-04-11T10:50:58.259Z</time></trkpt><trkpt lat="45.0217667" lon="8.1826417"><ele>201.39999999999998</ele><time>2026-04-11T10:50:59.259Z</time></trkpt><trkpt lat="45.0218717" lon="8.182675"><ele>202.6</ele><time>2026-04-11T10:51:00.259Z</time></trkpt><trkpt lat="45.0219667" lon="8.1827083"><ele>203.8</ele><time>2026-04-11T10:51:01.259Z</time></trkpt><trkpt lat="45.02207" lon="8.18275"><ele>205.0</ele><time>2026-04-11T10:51:02.26Z</time></trkpt><trkpt lat="45.0221667" lon="8.1827767"><ele>205.0</ele><time>2026-04-11T10:51:03.259Z</time></trkpt><trkpt lat="45.0222667" lon="8.1828133"><ele>205.0</ele><time>2026-04-11T10:51:04.259Z</time></trkpt><trkpt lat="45.0223683" lon="8.1828483"><ele>205.0</ele><time>2026-04-11T10:51:05.26Z</time></trkpt><trkpt lat="45.0224767" lon="8.1828917"><ele>205.0</ele><time>2026-04-11T10:51:06.259Z</time></trkpt><trkpt lat="45.0225767" lon="8.182945"><ele>205.0</ele><time>2026-04-11T10:51:07.259Z</time></trkpt><trkpt lat="45.02268" lon="8.1830067"><ele>206.25</ele><time>2026-04-11T10:51:08.26Z</time></trkpt><trkpt lat="45.02278" lon="8.1830583"><ele>207.5</ele><time>2026-04-11T10:51:09.259Z</time></trkpt><trkpt lat="45.02288" lon="8.183135"><ele>208.75</ele><time>2026-04-11T10:51:10.26Z</time></trkpt><trkpt lat="45.0229783" lon="8.18323"><ele>210.0</ele><time>2026-04-11T10:51:11.259Z</time></trkpt><trkpt lat="45.0230667" lon="8.1833383"><ele>210.66666666666669</ele><time>2026-04-11T10:51:12.26Z</time></trkpt><trkpt lat="45.0231483" lon="8.1834833"><ele>211.33333333333334</ele><time>2026-04-11T10:51:13.259Z</time></trkpt><trkpt lat="45.02324" lon="8.1836217"><ele>212.0</ele><time>2026-04-11T10:51:14.26Z</time></trkpt><trkpt lat="45.0234133" lon="8.1838483"><ele>213.5</ele><time>2026-04-11T10:51:16.259Z</time></trkpt><trkpt lat="45.0235083" lon="8.1839633"><ele>215.0</ele><time>2026-04-11T10:51:17.259Z</time></trkpt><trkpt lat="45.0235883" lon="8.1840783"><ele>216.5</ele><time>2026-04-11T10:51:18.26Z</time></trkpt><trkpt lat="45.0236667" lon="8.1842033"><ele>218.0</ele><time>2026-04-11T10:51:19.26Z</time></trkpt><trkpt lat="45.023745" lon="8.1843333"><ele>218.2</ele><time>2026-04-11T10:51:20.26Z</time></trkpt><trkpt lat="45.023805" lon="8.1844567"><ele>218.4</ele><time>2026-04-11T10:51:21.26Z</time></trkpt><trkpt lat="45.023855" lon="8.184585"><ele>218.59999999999997</ele><time>2026-04-11T10:51:22.259Z</time></trkpt><trkpt lat="45.0239017" lon="8.1847233"><ele>218.79999999999998</ele><time>2026-04-11T10:51:23.26Z</time></trkpt><trkpt lat="45.023955" lon="8.1848683"><ele>219.0</ele><time>2026-04-11T10:51:24.259Z</time></trkpt><trkpt lat="45.0240017" lon="8.1850033"><ele>219.6</ele><time>2026-04-11T10:51:25.259Z</time></trkpt><trkpt lat="45.0240417" lon="8.1851467"><ele>220.2</ele><time>2026-04-11T10:51:26.259Z</time></trkpt><trkpt lat="45.0240483" lon="8.1852833"><ele>220.79999999999998</ele><time>2026-04-11T10:51:27.259Z</time></trkpt><trkpt lat="45.0240783" lon="8.1854417"><ele>221.39999999999998</ele><time>2026-04-11T10:51:28.259Z</time></trkpt><trkpt lat="45.0241167" lon="8.1856"><ele>222.0</ele><time>2026-04-11T10:51:29.26Z</time></trkpt><trkpt lat="45.0241733" lon="8.185735"><ele>223.66666666666666</ele><time>2026-04-11T10:51:30.259Z</time></trkpt><trkpt lat="45.0242283" lon="8.1858467"><ele>225.33333333333331</ele><time>2026-04-11T10:51:31.259Z</time></trkpt><trkpt lat="45.0242783" lon="8.1859433"><ele>227.0</ele><time>2026-04-11T10:51:32.259Z</time></trkpt><trkpt lat="45.024325" lon="8.1860283"><ele>228.66666666666666</ele><time>2026-04-11T10:51:33.259Z</time></trkpt><trkpt lat="45.0243667" lon="8.1861033"><ele>230.33333333333331</ele><time>2026-04-11T10:51:34.26Z</time></trkpt><trkpt lat="45.02441" lon="8.1861683"><ele>232.0</ele><time>2026-04-11T10:51:35.26Z</time></trkpt><trkpt lat="45.0244833" lon="8.1862817"><ele>232.0</ele><time>2026-04-11T10:51:37.259Z</time></trkpt><trkpt lat="45.0245383" lon="8.1864233"><ele>232.0</ele><time>2026-04-11T10:51:39.259Z</time></trkpt><trkpt lat="45.024545" lon="8.1865833"><ele>232.0</ele><time>2026-04-11T10:51:41.26Z</time></trkpt><trkpt lat="45.0244017" lon="8.1868483"><ele>232.5</ele><time>2026-04-11T10:51:44.259Z</time></trkpt><trkpt lat="45.0243233" lon="8.1869467"><ele>233.0</ele><time>2026-04-11T10:51:45.259Z</time></trkpt><trkpt lat="45.024235" lon="8.18703"><ele>233.5</ele><time>2026-04-11T10:51:46.259Z</time></trkpt><trkpt lat="45.0240567" lon="8.1871433"><ele>234.0</ele><time>2026-04-11T10:51:48.26Z</time></trkpt><trkpt lat="45.0239717" lon="8.18719"><ele>234.0</ele><time>2026-04-11T10:51:49.259Z</time></trkpt><trkpt lat="45.0238833" lon="8.1872267"><ele>234.0</ele><time>2026-04-11T10:51:50.259Z</time></trkpt><trkpt lat="45.0238017" lon="8.187265"><ele>234.0</ele><time>2026-04-11T10:51:51.259Z</time></trkpt><trkpt lat="45.0237167" lon="8.1872883"><ele>234.0</ele><time>2026-04-11T10:51:52.259Z</time></trkpt><trkpt lat="45.02363" lon="8.187315"><ele>234.0</ele><time>2026-04-11T10:51:53.26Z</time></trkpt><trkpt lat="45.02355" lon="8.1873367"><ele>234.0</ele><time>2026-04-11T10:51:54.26Z</time></trkpt><trkpt lat="45.0234717" lon="8.18735"><ele>236.16666666666666</ele><time>2026-04-11T10:51:55.259Z</time></trkpt><trkpt lat="45.02339" lon="8.1873617"><ele>238.33333333333331</ele><time>2026-04-11T10:51:56.26Z</time></trkpt><trkpt lat="45.0233167" lon="8.187385"><ele>240.5</ele><time>2026-04-11T10:51:57.258Z</time></trkpt><trkpt lat="45.0232333" lon="8.1874383"><ele>242.66666666666666</ele><time>2026-04-11T10:51:58.258Z</time></trkpt><trkpt lat="45.0231633" lon="8.1875133"><ele>244.83333333333331</ele><time>2026-04-11T10:51:59.258Z</time></trkpt><trkpt lat="45.023085" lon="8.187585"><ele>247.0</ele><time>2026-04-11T10:52:00.258Z</time></trkpt><trkpt lat="45.0230233" lon="8.1876767"><ele>247.0</ele><time>2026-04-11T10:52:01.258Z</time></trkpt><trkpt lat="45.0229733" lon="8.1877683"><ele>247.0</ele><time>2026-04-11T10:52:02.258Z</time></trkpt><trkpt lat="45.0229267" lon="8.1878567"><ele>247.0</ele><time>2026-04-11T10:52:03.258Z</time></trkpt><trkpt lat="45.022895" lon="8.1879517"><ele>247.0</ele><time>2026-04-11T10:52:04.258Z</time></trkpt><trkpt lat="45.0228633" lon="8.18805"><ele>247.0</ele><time>2026-04-11T10:52:05.258Z</time></trkpt><trkpt lat="45.0228367" lon="8.188145"><ele>247.0</ele><time>2026-04-11T10:52:06.258Z</time></trkpt><trkpt lat="45.0228083" lon="8.1882267"><ele>247.0</ele><time>2026-04-11T10:52:07.258Z</time></trkpt><trkpt lat="45.02279" lon="8.1883633"><ele>248.16666666666666</ele><time>2026-04-11T10:52:09.258Z</time></trkpt><trkpt lat="45.0227733" lon="8.1884567"><ele>249.33333333333331</ele><time>2026-04-11T10:52:11.259Z</time></trkpt><trkpt lat="45.022695" lon="8.1884833"><ele>250.5</ele><time>2026-04-11T10:52:14.259Z</time></trkpt><trkpt lat="45.0225933" lon="8.1884067"><ele>251.66666666666669</ele><time>2026-04-11T10:52:16.258Z</time></trkpt><trkpt lat="45.0225317" lon="8.1883783"><ele>252.83333333333334</ele><time>2026-04-11T10:52:17.258Z</time></trkpt><trkpt lat="45.0224683" lon="8.18835"><ele>254.0</ele><time>2026-04-11T10:52:18.259Z</time></trkpt><trkpt lat="45.022405" lon="8.1883133"><ele>254.66666666666669</ele><time>2026-04-11T10:52:19.258Z</time></trkpt><trkpt lat="45.02234" lon="8.1882833"><ele>255.33333333333334</ele><time>2026-04-11T10:52:20.258Z</time></trkpt><trkpt lat="45.022215" lon="8.1882333"><ele>256.0</ele><time>2026-04-11T10:52:22.258Z</time></trkpt><trkpt lat="45.022135" lon="8.1882017"><ele>256.6666666666667</ele><time>2026-04-11T10:52:23.258Z</time></trkpt><trkpt lat="45.0220617" lon="8.1881833"><ele>257.3333333333333</ele><time>2026-04-11T10:52:24.258Z</time></trkpt><trkpt lat="45.0219883" lon="8.1881733"><ele>258.0</ele><time>2026-04-11T10:52:25.258Z</time></trkpt><trkpt lat="45.021905" lon="8.1881667"><ele>258.0</ele><time>2026-04-11T10:52:26.259Z</time></trkpt><trkpt lat="45.0218167" lon="8.1881833"><ele>258.0</ele><time>2026-04-11T10:52:27.258Z</time></trkpt><trkpt lat="45.0217333" lon="8.188205"><ele>258.0</ele><time>2026-04-11T10:52:28.258Z</time></trkpt><trkpt lat="45.0216517" lon="8.1882283"><ele>258.0</ele><time>2026-04-11T10:52:29.258Z</time></trkpt><trkpt lat="45.02157" lon="8.18825"><ele>258.0</ele><time>2026-04-11T10:52:30.258Z</time></trkpt><trkpt lat="45.0214883" lon="8.1882917"><ele>258.0</ele><time>2026-04-11T10:52:31.259Z</time></trkpt><trkpt lat="45.021415" lon="8.188305"><ele>258.1428571428571</ele><time>2026-04-11T10:52:32.258Z</time></trkpt><trkpt lat="45.021345" lon="8.188325"><ele>258.2857142857143</ele><time>2026-04-11T10:52:33.258Z</time></trkpt><trkpt lat="45.0212783" lon="8.1883167"><ele>258.42857142857144</ele><time>2026-04-11T10:52:34.259Z</time></trkpt><trkpt lat="45.02121" lon="8.18832"><ele>258.57142857142856</ele><time>2026-04-11T10:52:35.259Z</time></trkpt><trkpt lat="45.0211417" lon="8.1883333"><ele>258.7142857142857</ele><time>2026-04-11T10:52:36.258Z</time></trkpt><trkpt lat="45.02107" lon="8.1883467"><ele>258.85714285714283</ele><time>2026-04-11T10:52:37.258Z</time></trkpt><trkpt lat="45.021" lon="8.1883433"><ele>259.0</ele><time>2026-04-11T10:52:38.258Z</time></trkpt><trkpt lat="45.0209333" lon="8.188345"><ele>259.0</ele><time>2026-04-11T10:52:39.258Z</time></trkpt><trkpt lat="45.0208667" lon="8.1883567"><ele>259.0</ele><time>2026-04-11T10:52:40.258Z</time></trkpt><trkpt lat="45.020765" lon="8.1883633"><ele>259.0</ele><time>2026-04-11T10:52:42.259Z</time></trkpt><trkpt lat="45.0206967" lon="8.1884033"><ele>259.0</ele><time>2026-04-11T10:52:45.259Z</time></trkpt><trkpt lat="45.020625" lon="8.18847"><ele>259.0</ele><time>2026-04-11T10:52:47.259Z</time></trkpt><trkpt lat="45.020545" lon="8.1885383"><ele>259.0</ele><time>2026-04-11T10:52:49.259Z</time></trkpt><trkpt lat="45.02046" lon="8.1885867"><ele>256.5</ele><time>2026-04-11T10:52:51.259Z</time></trkpt><trkpt lat="45.02039" lon="8.1886833"><ele>254.0</ele><time>2026-04-11T10:52:53.258Z</time></trkpt><trkpt lat="45.02032" lon="8.1887883"><ele>251.5</ele><time>2026-04-11T10:52:55.258Z</time></trkpt><trkpt lat="45.020275" lon="8.188855"><ele>249.0</ele><time>2026-04-11T10:52:56.258Z</time></trkpt><trkpt lat="45.0202183" lon="8.1889333"><ele>246.49999999999997</ele><time>2026-04-11T10:52:57.258Z</time></trkpt><trkpt lat="45.02015" lon="8.1890117"><ele>244.0</ele><time>2026-04-11T10:52:58.258Z</time></trkpt><trkpt lat="45.020085" lon="8.18909"><ele>243.99999999999997</ele><time>2026-04-11T10:52:59.258Z</time></trkpt><trkpt lat="45.02003" lon="8.1891733"><ele>244.0</ele><time>2026-04-11T10:53:00.259Z</time></trkpt><trkpt lat="45.0199667" lon="8.1892483"><ele>244.0</ele><time>2026-04-11T10:53:01.258Z</time></trkpt><trkpt lat="45.0199" lon="8.189315"><ele>244.0</ele><time>2026-04-11T10:53:02.258Z</time></trkpt><trkpt lat="45.019845" lon="8.1893933"><ele>243.99999999999997</ele><time>2026-04-11T10:53:03.258Z</time></trkpt><trkpt lat="45.0197883" lon="8.18947"><ele>244.0</ele><time>2026-04-11T10:53:04.258Z</time></trkpt><trkpt lat="45.019725" lon="8.18953"><ele>242.39999999999998</ele><time>2026-04-11T10:53:05.259Z</time></trkpt><trkpt lat="45.0195983" lon="8.18966"><ele>240.79999999999998</ele><time>2026-04-11T10:53:07.258Z</time></trkpt><trkpt lat="45.0195483" lon="8.189725"><ele>239.20000000000002</ele><time>2026-04-11T10:53:08.258Z</time></trkpt><trkpt lat="45.0195" lon="8.1898"><ele>237.60000000000002</ele><time>2026-04-11T10:53:09.258Z</time></trkpt><trkpt lat="45.0194133" lon="8.1899117"><ele>236.0</ele><time>2026-04-11T10:53:11.258Z</time></trkpt><trkpt lat="45.019355" lon="8.18996"><ele>236.00000000000003</ele><time>2026-04-11T10:53:12.259Z</time></trkpt><trkpt lat="45.0193" lon="8.1900183"><ele>236.0</ele><time>2026-04-11T10:53:13.258Z</time></trkpt><trkpt lat="45.01924" lon="8.1900817"><ele>236.0</ele><time>2026-04-11T10:53:14.258Z</time></trkpt><trkpt lat="45.0191767" lon="8.1901517"><ele>236.0</ele><time>2026-04-11T10:53:15.258Z</time></trkpt><trkpt lat="45.019115" lon="8.19023"><ele>236.00000000000003</ele><time>2026-04-11T10:53:16.259Z</time></trkpt><trkpt lat="45.0190533" lon="8.1903033"><ele>236.0</ele><time>2026-04-11T10:53:17.258Z</time></trkpt><trkpt lat="45.0189933" lon="8.1903717"><ele>235.33333333333334</ele><time>2026-04-11T10:53:18.259Z</time></trkpt><trkpt lat="45.0189283" lon="8.1904467"><ele>234.66666666666669</ele><time>2026-04-11T10:53:19.258Z</time></trkpt><trkpt lat="45.01886" lon="8.1905233"><ele>234.0</ele><time>2026-04-11T10:53:20.258Z</time></trkpt><trkpt lat="45.0187933" lon="8.1905967"><ele>233.33333333333331</ele><time>2026-04-11T10:53:21.258Z</time></trkpt><trkpt lat="45.0187283" lon="8.1906817"><ele>232.66666666666666</ele><time>2026-04-11T10:53:22.258Z</time></trkpt><trkpt lat="45.0186583" lon="8.1907617"><ele>232.0</ele><time>2026-04-11T10:53:23.258Z</time></trkpt><trkpt lat="45.018585" lon="8.1908333"><ele>231.99999999999997</ele><time>2026-04-11T10:53:24.258Z</time></trkpt><trkpt lat="45.0185183" lon="8.1909017"><ele>232.0</ele><time>2026-04-11T10:53:25.258Z</time></trkpt><trkpt lat="45.0184483" lon="8.19098"><ele>232.0</ele><time>2026-04-11T10:53:26.258Z</time></trkpt><trkpt lat="45.018385" lon="8.1910617"><ele>232.0</ele><time>2026-04-11T10:53:27.259Z</time></trkpt><trkpt lat="45.01833" lon="8.1911333"><ele>231.99999999999997</ele><time>2026-04-11T10:53:28.259Z</time></trkpt><trkpt lat="45.0182767" lon="8.1912"><ele>232.0</ele><time>2026-04-11T10:53:29.259Z</time></trkpt><trkpt lat="45.0181983" lon="8.1913"><ele>231.8</ele><time>2026-04-11T10:53:31.258Z</time></trkpt><trkpt lat="45.018115" lon="8.1914133"><ele>231.6</ele><time>2026-04-11T10:53:33.258Z</time></trkpt><trkpt lat="45.018035" lon="8.1915433"><ele>231.40000000000003</ele><time>2026-04-11T10:53:35.258Z</time></trkpt><trkpt lat="45.0179517" lon="8.1916533"><ele>231.20000000000002</ele><time>2026-04-11T10:53:37.258Z</time></trkpt><trkpt lat="45.0179033" lon="8.191715"><ele>231.0</ele><time>2026-04-11T10:53:38.258Z</time></trkpt><trkpt lat="45.0178283" lon="8.19183"><ele>231.0</ele><time>2026-04-11T10:53:40.258Z</time></trkpt><trkpt lat="45.0177533" lon="8.1919367"><ele>231.00000000000003</ele><time>2026-04-11T10:53:42.258Z</time></trkpt><trkpt lat="45.0176667" lon="8.192055"><ele>231.00000000000003</ele><time>2026-04-11T10:53:44.258Z</time></trkpt><trkpt lat="45.0176183" lon="8.1921183"><ele>231.0</ele><time>2026-04-11T10:53:45.258Z</time></trkpt><trkpt lat="45.0175683" lon="8.1921767"><ele>231.0</ele><time>2026-04-11T10:53:46.259Z</time></trkpt><trkpt lat="45.017465" lon="8.1922667"><ele>228.8</ele><time>2026-04-11T10:53:48.259Z</time></trkpt><trkpt lat="45.0174067" lon="8.1923033"><ele>226.60000000000002</ele><time>2026-04-11T10:53:49.258Z</time></trkpt><trkpt lat="45.0172983" lon="8.1923667"><ele>224.4</ele><time>2026-04-11T10:53:51.259Z</time></trkpt><trkpt lat="45.017195" lon="8.192445"><ele>222.2</ele><time>2026-04-11T10:53:53.258Z</time></trkpt><trkpt lat="45.017095" lon="8.192555"><ele>220.0</ele><time>2026-04-11T10:53:55.258Z</time></trkpt><trkpt lat="45.0170117" lon="8.1926667"><ele>219.2</ele><time>2026-04-11T10:53:57.259Z</time></trkpt><trkpt lat="45.016935" lon="8.1928083"><ele>218.4</ele><time>2026-04-11T10:53:59.259Z</time></trkpt><trkpt lat="45.0168967" lon="8.1928933"><ele>217.60000000000002</ele><time>2026-04-11T10:54:00.258Z</time></trkpt><trkpt lat="45.0168567" lon="8.19297"><ele>216.8</ele><time>2026-04-11T10:54:01.258Z</time></trkpt><trkpt lat="45.016745" lon="8.193045"><ele>216.0</ele><time>2026-04-11T10:54:03.258Z</time></trkpt><trkpt lat="45.01663" lon="8.1930417"><ele>214.33333333333334</ele><time>2026-04-11T10:54:05.258Z</time></trkpt><trkpt lat="45.0165317" lon="8.1930017"><ele>212.66666666666669</ele><time>2026-04-11T10:54:07.259Z</time></trkpt><trkpt lat="45.0164517" lon="8.1929583"><ele>211.0</ele><time>2026-04-11T10:54:09.259Z</time></trkpt><trkpt lat="45.0163717" lon="8.1929083"><ele>209.33333333333334</ele><time>2026-04-11T10:54:12.258Z</time></trkpt><trkpt lat="45.0163117" lon="8.1928767"><ele>207.66666666666669</ele><time>2026-04-11T10:55:47.258Z</time></trkpt><trkpt lat="45.0162383" lon="8.19285"><ele>206.0</ele><time>2026-04-11T10:55:49.257Z</time></trkpt><trkpt lat="45.01613" lon="8.1928017"><ele>206.0</ele><time>2026-04-11T10:55:51.257Z</time></trkpt><trkpt lat="45.0160633" lon="8.192765"><ele>206.0</ele><time>2026-04-11T10:55:52.257Z</time></trkpt><trkpt lat="45.0159667" lon="8.1927217"><ele>206.0</ele><time>2026-04-11T10:55:54.258Z</time></trkpt><trkpt lat="45.0158883" lon="8.1926983"><ele>206.0</ele><time>2026-04-11T10:55:57.257Z</time></trkpt><trkpt lat="45.0158017" lon="8.1928517"><ele>206.0</ele><time>2026-04-11T10:56:01.257Z</time></trkpt><trkpt lat="45.0157583" lon="8.1930033"><ele>204.0</ele><time>2026-04-11T10:56:03.258Z</time></trkpt><trkpt lat="45.0157067" lon="8.1931583"><ele>202.0</ele><time>2026-04-11T10:56:05.258Z</time></trkpt><trkpt lat="45.01564" lon="8.1932717"><ele>200.0</ele><time>2026-04-11T10:56:07.257Z</time></trkpt><trkpt lat="45.0155833" lon="8.1933833"><ele>198.0</ele><time>2026-04-11T10:56:09.257Z</time></trkpt><trkpt lat="45.0155383" lon="8.193505"><ele>196.0</ele><time>2026-04-11T10:56:11.257Z</time></trkpt><trkpt lat="45.01549" lon="8.1936533"><ele>196.0</ele><time>2026-04-11T10:56:13.257Z</time></trkpt><trkpt lat="45.0154533" lon="8.1938183"><ele>196.0</ele><time>2026-04-11T10:56:15.258Z</time></trkpt><trkpt lat="45.015435" lon="8.1939133"><ele>196.0</ele><time>2026-04-11T10:56:16.257Z</time></trkpt><trkpt lat="45.0154" lon="8.1941117"><ele>196.0</ele><time>2026-04-11T10:56:18.257Z</time></trkpt><trkpt lat="45.0153783" lon="8.1942117"><ele>196.0</ele><time>2026-04-11T10:56:19.257Z</time></trkpt><trkpt lat="45.015345" lon="8.194305"><ele>195.4</ele><time>2026-04-11T10:56:20.257Z</time></trkpt><trkpt lat="45.0153133" lon="8.1943967"><ele>194.8</ele><time>2026-04-11T10:56:21.258Z</time></trkpt><trkpt lat="45.0152833" lon="8.1944817"><ele>194.20000000000002</ele><time>2026-04-11T10:56:22.257Z</time></trkpt><trkpt lat="45.015215" lon="8.194605"><ele>193.60000000000002</ele><time>2026-04-11T10:56:24.257Z</time></trkpt><trkpt lat="45.01514" lon="8.1947283"><ele>193.0</ele><time>2026-04-11T10:56:26.257Z</time></trkpt><trkpt lat="45.01502" lon="8.1948667"><ele>191.83333333333331</ele><time>2026-04-11T10:56:28.257Z</time></trkpt><trkpt lat="45.01492" lon="8.194945"><ele>190.66666666666666</ele><time>2026-04-11T10:56:30.258Z</time></trkpt><trkpt lat="45.0148267" lon="8.1949933"><ele>189.5</ele><time>2026-04-11T10:56:32.257Z</time></trkpt><trkpt lat="45.01476" lon="8.194995"><ele>188.33333333333331</ele><time>2026-04-11T10:56:34.257Z</time></trkpt><trkpt lat="45.0146783" lon="8.1949883"><ele>187.16666666666666</ele><time>2026-04-11T10:56:37.257Z</time></trkpt><trkpt lat="45.0146" lon="8.1949983"><ele>186.0</ele><time>2026-04-11T10:56:41.257Z</time></trkpt><trkpt lat="45.0145083" lon="8.1949883"><ele>186.0</ele><time>2026-04-11T10:56:44.258Z</time></trkpt><trkpt lat="45.0144167" lon="8.194975"><ele>186.0</ele><time>2026-04-11T10:56:46.257Z</time></trkpt><trkpt lat="45.0142883" lon="8.194975"><ele>186.0</ele><time>2026-04-11T10:56:48.257Z</time></trkpt><trkpt lat="45.0142167" lon="8.1949733"><ele>186.0</ele><time>2026-04-11T10:56:49.257Z</time></trkpt><trkpt lat="45.0141433" lon="8.1949667"><ele>186.0</ele><time>2026-04-11T10:56:50.258Z</time></trkpt><trkpt lat="45.0140617" lon="8.19496"><ele>186.0</ele><time>2026-04-11T10:56:51.258Z</time></trkpt><trkpt lat="45.013975" lon="8.1949567"><ele>183.8</ele><time>2026-04-11T10:56:52.258Z</time></trkpt><trkpt lat="45.0138833" lon="8.194955"><ele>181.60000000000002</ele><time>2026-04-11T10:56:53.257Z</time></trkpt><trkpt lat="45.013785" lon="8.194955"><ele>179.4</ele><time>2026-04-11T10:56:54.257Z</time></trkpt><trkpt lat="45.0136933" lon="8.19495"><ele>177.2</ele><time>2026-04-11T10:56:55.258Z</time></trkpt><trkpt lat="45.01361" lon="8.1949483"><ele>175.0</ele><time>2026-04-11T10:56:56.257Z</time></trkpt><trkpt lat="45.0135183" lon="8.1949417"><ele>175.0</ele><time>2026-04-11T10:56:57.257Z</time></trkpt><trkpt lat="45.0134317" lon="8.1949383"><ele>175.0</ele><time>2026-04-11T10:56:58.258Z</time></trkpt><trkpt lat="45.01335" lon="8.194935"><ele>175.0</ele><time>2026-04-11T10:56:59.257Z</time></trkpt><trkpt lat="45.0132633" lon="8.1949233"><ele>175.0</ele><time>2026-04-11T10:57:00.258Z</time></trkpt><trkpt lat="45.0131667" lon="8.1949083"><ele>175.0</ele><time>2026-04-11T10:57:01.257Z</time></trkpt><trkpt lat="45.0130717" lon="8.1948833"><ele>175.0</ele><time>2026-04-11T10:57:02.257Z</time></trkpt><trkpt lat="45.0129717" lon="8.19485"><ele>174.0</ele><time>2026-04-11T10:57:03.257Z</time></trkpt><trkpt lat="45.01287" lon="8.1948217"><ele>173.0</ele><time>2026-04-11T10:57:04.257Z</time></trkpt><trkpt lat="45.0127717" lon="8.19479"><ele>172.0</ele><time>2026-04-11T10:57:05.257Z</time></trkpt><trkpt lat="45.0126717" lon="8.194735"><ele>171.0</ele><time>2026-04-11T10:57:06.257Z</time></trkpt><trkpt lat="45.0125717" lon="8.1946767"><ele>170.0</ele><time>2026-04-11T10:57:07.257Z</time></trkpt><trkpt lat="45.012475" lon="8.1946317"><ele>168.8</ele><time>2026-04-11T10:57:08.257Z</time></trkpt><trkpt lat="45.0123733" lon="8.1945767"><ele>167.6</ele><time>2026-04-11T10:57:09.257Z</time></trkpt><trkpt lat="45.0122783" lon="8.19453"><ele>166.39999999999998</ele><time>2026-04-11T10:57:10.257Z</time></trkpt><trkpt lat="45.0121767" lon="8.1944817"><ele>165.2</ele><time>2026-04-11T10:57:11.257Z</time></trkpt><trkpt lat="45.0120667" lon="8.194435"><ele>164.0</ele><time>2026-04-11T10:57:12.257Z</time></trkpt><trkpt lat="45.0119667" lon="8.1944017"><ele>164.0</ele><time>2026-04-11T10:57:13.257Z</time></trkpt><trkpt lat="45.01188" lon="8.1943617"><ele>164.0</ele><time>2026-04-11T10:57:14.257Z</time></trkpt><trkpt lat="45.01178" lon="8.19432"><ele>164.0</ele><time>2026-04-11T10:57:15.258Z</time></trkpt><trkpt lat="45.01168" lon="8.1942833"><ele>164.0</ele><time>2026-04-11T10:57:16.257Z</time></trkpt><trkpt lat="45.0115883" lon="8.19425"><ele>164.0</ele><time>2026-04-11T10:57:17.257Z</time></trkpt><trkpt lat="45.0115017" lon="8.1942233"><ele>164.16666666666666</ele><time>2026-04-11T10:57:18.257Z</time></trkpt><trkpt lat="45.0114283" lon="8.1942067"><ele>164.33333333333331</ele><time>2026-04-11T10:57:19.257Z</time></trkpt><trkpt lat="45.0113633" lon="8.1941883"><ele>164.5</ele><time>2026-04-11T10:57:20.258Z</time></trkpt><trkpt lat="45.0112567" lon="8.194165"><ele>164.66666666666666</ele><time>2026-04-11T10:57:22.258Z</time></trkpt><trkpt lat="45.0111867" lon="8.194095"><ele>164.83333333333334</ele><time>2026-04-11T10:57:24.257Z</time></trkpt><trkpt lat="45.0111933" lon="8.19394"><ele>165.0</ele><time>2026-04-11T10:57:26.257Z</time></trkpt><trkpt lat="45.0112017" lon="8.19384"><ele>165.6</ele><time>2026-04-11T10:57:27.257Z</time></trkpt><trkpt lat="45.011205" lon="8.193715"><ele>166.2</ele><time>2026-04-11T10:57:28.257Z</time></trkpt><trkpt lat="45.0112033" lon="8.19359"><ele>166.8</ele><time>2026-04-11T10:57:29.258Z</time></trkpt><trkpt lat="45.0111933" lon="8.1934633"><ele>167.4</ele><time>2026-04-11T10:57:30.257Z</time></trkpt><trkpt lat="45.0111833" lon="8.1933333"><ele>168.0</ele><time>2026-04-11T10:57:31.257Z</time></trkpt><trkpt lat="45.0111733" lon="8.1932"><ele>167.33333333333334</ele><time>2026-04-11T10:57:32.258Z</time></trkpt><trkpt lat="45.0111617" lon="8.19309"><ele>166.66666666666666</ele><time>2026-04-11T10:57:33.257Z</time></trkpt><trkpt lat="45.011155" lon="8.1929817"><ele>166.0</ele><time>2026-04-11T10:57:34.257Z</time></trkpt><trkpt lat="45.01114" lon="8.1928733"><ele>165.33333333333331</ele><time>2026-04-11T10:57:35.257Z</time></trkpt><trkpt lat="45.01112" lon="8.1927667"><ele>164.66666666666666</ele><time>2026-04-11T10:57:36.258Z</time></trkpt><trkpt lat="45.0111017" lon="8.19265"><ele>164.0</ele><time>2026-04-11T10:57:37.258Z</time></trkpt><trkpt lat="45.011085" lon="8.1925333"><ele>164.0</ele><time>2026-04-11T10:57:38.258Z</time></trkpt><trkpt lat="45.01107" lon="8.192415"><ele>164.0</ele><time>2026-04-11T10:57:39.257Z</time></trkpt><trkpt lat="45.01105" lon="8.19229"><ele>164.0</ele><time>2026-04-11T10:57:40.257Z</time></trkpt><trkpt lat="45.0110317" lon="8.19214"><ele>164.0</ele><time>2026-04-11T10:57:41.257Z</time></trkpt><trkpt lat="45.0110083" lon="8.19199"><ele>164.0</ele><time>2026-04-11T10:57:42.257Z</time></trkpt><trkpt lat="45.01098" lon="8.191845"><ele>162.79999999999998</ele><time>2026-04-11T10:57:43.257Z</time></trkpt><trkpt lat="45.0109433" lon="8.191695"><ele>161.6</ele><time>2026-04-11T10:57:44.257Z</time></trkpt><trkpt lat="45.010915" lon="8.19154"><ele>160.4</ele><time>2026-04-11T10:57:45.257Z</time></trkpt><trkpt lat="45.0108883" lon="8.1913917"><ele>159.2</ele><time>2026-04-11T10:57:46.257Z</time></trkpt><trkpt lat="45.0108583" lon="8.191245"><ele>158.0</ele><time>2026-04-11T10:57:47.257Z</time></trkpt><trkpt lat="45.0108317" lon="8.1911033"><ele>156.20000000000002</ele><time>2026-04-11T10:57:48.258Z</time></trkpt><trkpt lat="45.0108083" lon="8.1909583"><ele>154.4</ele><time>2026-04-11T10:57:49.257Z</time></trkpt><trkpt lat="45.010795" lon="8.1908117"><ele>152.60000000000002</ele><time>2026-04-11T10:57:50.258Z</time></trkpt><trkpt lat="45.0107867" lon="8.1906683"><ele>150.8</ele><time>2026-04-11T10:57:51.258Z</time></trkpt><trkpt lat="45.0107767" lon="8.190515"><ele>149.0</ele><time>2026-04-11T10:57:52.257Z</time></trkpt><trkpt lat="45.01076" lon="8.1903617"><ele>148.8</ele><time>2026-04-11T10:57:53.257Z</time></trkpt><trkpt lat="45.0107467" lon="8.1902083"><ele>148.60000000000002</ele><time>2026-04-11T10:57:54.257Z</time></trkpt><trkpt lat="45.0107283" lon="8.1900617"><ele>148.4</ele><time>2026-04-11T10:57:55.257Z</time></trkpt><trkpt lat="45.0107133" lon="8.1899133"><ele>148.20000000000002</ele><time>2026-04-11T10:57:56.257Z</time></trkpt><trkpt lat="45.0107033" lon="8.1897683"><ele>148.0</ele><time>2026-04-11T10:57:57.257Z</time></trkpt><trkpt lat="45.0106833" lon="8.18963"><ele>149.0</ele><time>2026-04-11T10:57:58.257Z</time></trkpt><trkpt lat="45.0106683" lon="8.1894867"><ele>150.0</ele><time>2026-04-11T10:57:59.257Z</time></trkpt><trkpt lat="45.0106617" lon="8.1893333"><ele>151.0</ele><time>2026-04-11T10:58:00.258Z</time></trkpt><trkpt lat="45.01067" lon="8.189015"><ele>152.0</ele><time>2026-04-11T10:58:02.257Z</time></trkpt><trkpt lat="45.0106817" lon="8.1888683"><ele>152.0</ele><time>2026-04-11T10:58:03.257Z</time></trkpt><trkpt lat="45.0106933" lon="8.1887317"><ele>152.0</ele><time>2026-04-11T10:58:04.257Z</time></trkpt><trkpt lat="45.0107083" lon="8.1886083"><ele>152.0</ele><time>2026-04-11T10:58:05.257Z</time></trkpt><trkpt lat="45.0107383" lon="8.1884833"><ele>152.0</ele><time>2026-04-11T10:58:06.258Z</time></trkpt><trkpt lat="45.0107783" lon="8.1883567"><ele>152.0</ele><time>2026-04-11T10:58:07.258Z</time></trkpt><trkpt lat="45.0108117" lon="8.1882283"><ele>151.79999999999998</ele><time>2026-04-11T10:58:08.257Z</time></trkpt><trkpt lat="45.0108467" lon="8.1880983"><ele>151.6</ele><time>2026-04-11T10:58:09.257Z</time></trkpt><trkpt lat="45.0108767" lon="8.18797"><ele>151.39999999999998</ele><time>2026-04-11T10:58:10.258Z</time></trkpt><trkpt lat="45.0108967" lon="8.1878333"><ele>151.2</ele><time>2026-04-11T10:58:11.257Z</time></trkpt><trkpt lat="45.0109017" lon="8.18769"><ele>151.0</ele><time>2026-04-11T10:58:12.257Z</time></trkpt><trkpt lat="45.0108933" lon="8.1875483"><ele>151.0</ele><time>2026-04-11T10:58:13.257Z</time></trkpt><trkpt lat="45.0108767" lon="8.1874083"><ele>151.0</ele><time>2026-04-11T10:58:14.257Z</time></trkpt><trkpt lat="45.0108667" lon="8.18727"><ele>151.0</ele><time>2026-04-11T10:58:15.258Z</time></trkpt><trkpt lat="45.01088" lon="8.1871233"><ele>151.0</ele><time>2026-04-11T10:58:16.257Z</time></trkpt><trkpt lat="45.010895" lon="8.1869733"><ele>151.0</ele><time>2026-04-11T10:58:17.257Z</time></trkpt><trkpt lat="45.01091" lon="8.1868167"><ele>151.8</ele><time>2026-04-11T10:58:18.258Z</time></trkpt><trkpt lat="45.0109283" lon="8.186665"><ele>152.6</ele><time>2026-04-11T10:58:19.257Z</time></trkpt><trkpt lat="45.0109383" lon="8.1865083"><ele>153.4</ele><time>2026-04-11T10:58:20.257Z</time></trkpt><trkpt lat="45.010935" lon="8.186355"><ele>154.2</ele><time>2026-04-11T10:58:21.257Z</time></trkpt><trkpt lat="45.010925" lon="8.186215"><ele>155.0</ele><time>2026-04-11T10:58:22.257Z</time></trkpt><trkpt lat="45.01093" lon="8.1860933"><ele>155.14285714285714</ele><time>2026-04-11T10:58:23.258Z</time></trkpt><trkpt lat="45.0109267" lon="8.1859883"><ele>155.28571428571428</ele><time>2026-04-11T10:58:24.257Z</time></trkpt><trkpt lat="45.0109267" lon="8.1858883"><ele>155.42857142857144</ele><time>2026-04-11T10:58:25.257Z</time></trkpt><trkpt lat="45.0108983" lon="8.1858"><ele>155.57142857142856</ele><time>2026-04-11T10:58:26.257Z</time></trkpt><trkpt lat="45.0108517" lon="8.1857233"><ele>155.7142857142857</ele><time>2026-04-11T10:58:27.257Z</time></trkpt><trkpt lat="45.010805" lon="8.1856617"><ele>155.85714285714286</ele><time>2026-04-11T10:58:28.258Z</time></trkpt><trkpt lat="45.0107283" lon="8.1856183"><ele>156.0</ele><time>2026-04-11T10:58:29.257Z</time></trkpt><trkpt lat="45.0106417" lon="8.185595"><ele>154.4</ele><time>2026-04-11T10:58:30.257Z</time></trkpt><trkpt lat="45.0105417" lon="8.185575"><ele>152.8</ele><time>2026-04-11T10:58:31.258Z</time></trkpt><trkpt lat="45.01044" lon="8.1855483"><ele>151.20000000000002</ele><time>2026-04-11T10:58:32.258Z</time></trkpt><trkpt lat="45.0103417" lon="8.1855217"><ele>149.6</ele><time>2026-04-11T10:58:33.257Z</time></trkpt><trkpt lat="45.0102533" lon="8.1854967"><ele>148.0</ele><time>2026-04-11T10:58:34.258Z</time></trkpt><trkpt lat="45.01018" lon="8.1854783"><ele>148.0</ele><time>2026-04-11T10:58:35.257Z</time></trkpt><trkpt lat="45.0100883" lon="8.1854133"><ele>148.0</ele><time>2026-04-11T10:58:37.257Z</time></trkpt><trkpt lat="45.0100967" lon="8.1852817"><ele>148.0</ele><time>2026-04-11T10:58:39.258Z</time></trkpt><trkpt lat="45.0101333" lon="8.1851917"><ele>148.0</ele><time>2026-04-11T10:58:40.257Z</time></trkpt><trkpt lat="45.0101833" lon="8.1850833"><ele>148.0</ele><time>2026-04-11T10:58:41.257Z</time></trkpt><trkpt lat="45.0102367" lon="8.18496"><ele>148.0</ele><time>2026-04-11T10:58:42.258Z</time></trkpt><trkpt lat="45.0102983" lon="8.18484"><ele>148.0</ele><time>2026-04-11T10:58:43.257Z</time></trkpt><trkpt lat="45.0103667" lon="8.1847433"><ele>148.0</ele><time>2026-04-11T10:58:44.257Z</time></trkpt><trkpt lat="45.0104333" lon="8.18468"><ele>148.0</ele><time>2026-04-11T10:58:45.257Z</time></trkpt><trkpt lat="45.0105117" lon="8.1846633"><ele>148.0</ele><time>2026-04-11T10:58:46.257Z</time></trkpt><trkpt lat="45.0105783" lon="8.1846533"><ele>148.0</ele><time>2026-04-11T10:58:47.257Z</time></trkpt><trkpt lat="45.010645" lon="8.184575"><ele>148.0</ele><time>2026-04-11T10:58:49.258Z</time></trkpt><trkpt lat="45.0106417" lon="8.1844433"><ele>148.0</ele><time>2026-04-11T10:58:51.257Z</time></trkpt><trkpt lat="45.01061" lon="8.1843567"><ele>148.0</ele><time>2026-04-11T10:58:52.257Z</time></trkpt><trkpt lat="45.01057" lon="8.184265"><ele>148.0</ele><time>2026-04-11T10:58:53.257Z</time></trkpt><trkpt lat="45.0105333" lon="8.184185"><ele>148.0</ele><time>2026-04-11T10:58:54.257Z</time></trkpt><trkpt lat="45.0104867" lon="8.1840617"><ele>148.0</ele><time>2026-04-11T10:58:56.258Z</time></trkpt><trkpt lat="45.01042" lon="8.183955"><ele>148.4</ele><time>2026-04-11T10:58:59.257Z</time></trkpt><trkpt lat="45.010305" lon="8.183865"><ele>148.8</ele><time>2026-04-11T10:59:01.257Z</time></trkpt><trkpt lat="45.0102233" lon="8.18383"><ele>149.2</ele><time>2026-04-11T10:59:02.257Z</time></trkpt><trkpt lat="45.0101267" lon="8.1838083"><ele>149.6</ele><time>2026-04-11T10:59:03.258Z</time></trkpt><trkpt lat="45.01003" lon="8.1837583"><ele>150.0</ele><time>2026-04-11T10:59:04.257Z</time></trkpt><trkpt lat="45.0099267" lon="8.1837083"><ele>150.0</ele><time>2026-04-11T10:59:05.257Z</time></trkpt><trkpt lat="45.0098317" lon="8.1836183"><ele>150.0</ele><time>2026-04-11T10:59:06.258Z</time></trkpt><trkpt lat="45.009745" lon="8.1835233"><ele>150.0</ele><time>2026-04-11T10:59:07.257Z</time></trkpt><trkpt lat="45.0096633" lon="8.183425"><ele>150.0</ele><time>2026-04-11T10:59:08.257Z</time></trkpt><trkpt lat="45.009575" lon="8.1833267"><ele>150.0</ele><time>2026-04-11T10:59:09.257Z</time></trkpt><trkpt lat="45.009495" lon="8.18324"><ele>150.0</ele><time>2026-04-11T10:59:10.258Z</time></trkpt><trkpt lat="45.0094283" lon="8.18316"><ele>150.0</ele><time>2026-04-11T10:59:11.257Z</time></trkpt><trkpt lat="45.00937" lon="8.1830983"><ele>150.0</ele><time>2026-04-11T10:59:12.257Z</time></trkpt><trkpt lat="45.0093017" lon="8.183035"><ele>150.0</ele><time>2026-04-11T10:59:13.257Z</time></trkpt><trkpt lat="45.0092333" lon="8.1829783"><ele>150.0</ele><time>2026-04-11T10:59:14.258Z</time></trkpt><trkpt lat="45.0091733" lon="8.182925"><ele>150.0</ele><time>2026-04-11T10:59:15.257Z</time></trkpt><trkpt lat="45.0091183" lon="8.1828717"><ele>150.0</ele><time>2026-04-11T10:59:16.258Z</time></trkpt><trkpt lat="45.0090317" lon="8.182765"><ele>150.0</ele><time>2026-04-11T10:59:18.257Z</time></trkpt><trkpt lat="45.00898" lon="8.1826433"><ele>150.0</ele><time>2026-04-11T10:59:20.257Z</time></trkpt><trkpt lat="45.00899" lon="8.1824883"><ele>150.0</ele><time>2026-04-11T10:59:22.257Z</time></trkpt><trkpt lat="45.00905" lon="8.18237"><ele>150.0</ele><time>2026-04-11T10:59:24.257Z</time></trkpt><trkpt lat="45.00908" lon="8.182285"><ele>151.0</ele><time>2026-04-11T10:59:47.257Z</time></trkpt><trkpt lat="45.0089783" lon="8.1823733"><ele>150.0</ele><time>2026-04-11T10:59:54.256Z</time></trkpt><trkpt lat="45.0089233" lon="8.1822683"><ele>151.0</ele><time>2026-04-11T11:01:32.256Z</time></trkpt></trkseg><trkseg><trkpt lat="45.0089991" lon="8.18235"><ele>150.14285714285714</ele><time>2026-04-11T11:53:46.301Z</time></trkpt><trkpt lat="45.0090675" lon="8.1822778"><ele>150.28571428571428</ele><time>2026-04-11T11:53:48.302Z</time></trkpt><trkpt lat="45.0091308" lon="8.1822661"><ele>150.42857142857144</ele><time>2026-04-11T11:53:50.301Z</time></trkpt><trkpt lat="45.0092052" lon="8.1822719"><ele>150.57142857142856</ele><time>2026-04-11T11:53:53.301Z</time></trkpt><trkpt lat="45.009205" lon="8.1821717"><ele>150.71428571428572</ele><time>2026-04-11T11:53:56.301Z</time></trkpt><trkpt lat="45.0091567" lon="8.1821117"><ele>150.85714285714286</ele><time>2026-04-11T11:54:00.301Z</time></trkpt><trkpt lat="45.00909" lon="8.1820867"><ele>151.0</ele><time>2026-04-11T11:54:57.301Z</time></trkpt><trkpt lat="45.00902" lon="8.1821417"><ele>151.0</ele><time>2026-04-11T11:55:01.302Z</time></trkpt><trkpt lat="45.0089733" lon="8.1822017"><ele>151.0</ele><time>2026-04-11T11:55:03.301Z</time></trkpt><trkpt lat="45.00893" lon="8.1822917"><ele>151.0</ele><time>2026-04-11T11:55:07.301Z</time></trkpt><trkpt lat="45.0089067" lon="8.1823967"><ele>151.0</ele><time>2026-04-11T11:55:11.301Z</time></trkpt><trkpt lat="45.0088433" lon="8.1824567"><ele>151.0</ele><time>2026-04-11T11:55:15.301Z</time></trkpt><trkpt lat="45.0087817" lon="8.1824133"><ele>151.0</ele><time>2026-04-11T11:55:20.301Z</time></trkpt><trkpt lat="45.0086567" lon="8.182415"><ele>151.0</ele><time>2026-04-11T11:57:00.3Z</time></trkpt><trkpt lat="45.0085217" lon="8.1822367"><ele>151.0</ele><time>2026-04-11T11:57:03.3Z</time></trkpt><trkpt lat="45.0084067" lon="8.1820967"><ele>151.0</ele><time>2026-04-11T11:57:05.3Z</time></trkpt><trkpt lat="45.00828" lon="8.181925"><ele>151.0</ele><time>2026-04-11T11:57:07.301Z</time></trkpt><trkpt lat="45.0081283" lon="8.18175"><ele>151.0</ele><time>2026-04-11T11:57:09.3Z</time></trkpt><trkpt lat="45.00805" lon="8.1816683"><ele>151.0</ele><time>2026-04-11T11:57:10.3Z</time></trkpt><trkpt lat="45.0079633" lon="8.1815783"><ele>151.0</ele><time>2026-04-11T11:57:11.3Z</time></trkpt><trkpt lat="45.0078683" lon="8.1814933"><ele>151.4</ele><time>2026-04-11T11:57:12.3Z</time></trkpt><trkpt lat="45.0077817" lon="8.1814117"><ele>151.8</ele><time>2026-04-11T11:57:13.3Z</time></trkpt><trkpt lat="45.0076983" lon="8.181325"><ele>152.20000000000002</ele><time>2026-04-11T11:57:14.3Z</time></trkpt><trkpt lat="45.00762" lon="8.1812283"><ele>152.6</ele><time>2026-04-11T11:57:15.3Z</time></trkpt><trkpt lat="45.007535" lon="8.1811267"><ele>153.0</ele><time>2026-04-11T11:57:16.3Z</time></trkpt><trkpt lat="45.007455" lon="8.1810233"><ele>153.0</ele><time>2026-04-11T11:57:17.3Z</time></trkpt><trkpt lat="45.007365" lon="8.1809183"><ele>153.0</ele><time>2026-04-11T11:57:18.3Z</time></trkpt><trkpt lat="45.0072717" lon="8.18081"><ele>153.0</ele><time>2026-04-11T11:57:19.3Z</time></trkpt><trkpt lat="45.00718" lon="8.1807033"><ele>153.0</ele><time>2026-04-11T11:57:20.3Z</time></trkpt><trkpt lat="45.007065" lon="8.1805867"><ele>153.0</ele><time>2026-04-11T11:57:21.3Z</time></trkpt><trkpt lat="45.006945" lon="8.1804633"><ele>153.0</ele><time>2026-04-11T11:57:22.301Z</time></trkpt><trkpt lat="45.0068283" lon="8.1803433"><ele>153.0</ele><time>2026-04-11T11:57:23.3Z</time></trkpt><trkpt lat="45.0067317" lon="8.180245"><ele>153.0</ele><time>2026-04-11T11:57:24.3Z</time></trkpt><trkpt lat="45.0066417" lon="8.18015"><ele>153.0</ele><time>2026-04-11T11:57:25.3Z</time></trkpt><trkpt lat="45.0064917" lon="8.1799667"><ele>153.0</ele><time>2026-04-11T11:57:27.3Z</time></trkpt><trkpt lat="45.00643" lon="8.1798883"><ele>153.0</ele><time>2026-04-11T11:57:28.3Z</time></trkpt><trkpt lat="45.0063733" lon="8.1798217"><ele>153.0</ele><time>2026-04-11T11:57:29.301Z</time></trkpt><trkpt lat="45.00631" lon="8.179785"><ele>153.0</ele><time>2026-04-11T11:57:30.3Z</time></trkpt><trkpt lat="45.0061883" lon="8.1798183"><ele>153.0</ele><time>2026-04-11T11:57:32.3Z</time></trkpt><trkpt lat="45.0061217" lon="8.1798733"><ele>153.0</ele><time>2026-04-11T11:57:33.3Z</time></trkpt><trkpt lat="45.0060433" lon="8.1799433"><ele>153.0</ele><time>2026-04-11T11:57:34.3Z</time></trkpt><trkpt lat="45.0059583" lon="8.1800167"><ele>153.0</ele><time>2026-04-11T11:57:35.3Z</time></trkpt><trkpt lat="45.005865" lon="8.180095"><ele>153.0</ele><time>2026-04-11T11:57:36.3Z</time></trkpt><trkpt lat="45.0057667" lon="8.180175"><ele>153.5</ele><time>2026-04-11T11:57:37.301Z</time></trkpt><trkpt lat="45.00567" lon="8.18026"><ele>154.0</ele><time>2026-04-11T11:57:38.3Z</time></trkpt><trkpt lat="45.0055633" lon="8.1803567"><ele>154.5</ele><time>2026-04-11T11:57:39.3Z</time></trkpt><trkpt lat="45.0054517" lon="8.1804483"><ele>155.0</ele><time>2026-04-11T11:57:40.301Z</time></trkpt><trkpt lat="45.0053533" lon="8.1805217"><ele>155.0</ele><time>2026-04-11T11:57:41.301Z</time></trkpt><trkpt lat="45.0052633" lon="8.1805983"><ele>155.0</ele><time>2026-04-11T11:57:42.3Z</time></trkpt><trkpt lat="45.0051983" lon="8.18069"><ele>155.0</ele><time>2026-04-11T11:57:43.301Z</time></trkpt><trkpt lat="45.0051617" lon="8.1808017"><ele>155.0</ele><time>2026-04-11T11:57:44.3Z</time></trkpt><trkpt lat="45.0051467" lon="8.1809167"><ele>155.0</ele><time>2026-04-11T11:57:45.3Z</time></trkpt><trkpt lat="45.0051517" lon="8.1810433"><ele>154.83333333333331</ele><time>2026-04-11T11:57:46.301Z</time></trkpt><trkpt lat="45.0051567" lon="8.181155"><ele>154.66666666666666</ele><time>2026-04-11T11:57:47.3Z</time></trkpt><trkpt lat="45.0051417" lon="8.1812633"><ele>154.5</ele><time>2026-04-11T11:57:48.301Z</time></trkpt><trkpt lat="45.0051083" lon="8.1813633"><ele>154.33333333333334</ele><time>2026-04-11T11:57:49.3Z</time></trkpt><trkpt lat="45.00504" lon="8.181445"><ele>154.16666666666669</ele><time>2026-04-11T11:57:50.3Z</time></trkpt><trkpt lat="45.004945" lon="8.1815033"><ele>154.0</ele><time>2026-04-11T11:57:51.301Z</time></trkpt><trkpt lat="45.0048383" lon="8.1815567"><ele>155.0</ele><time>2026-04-11T11:57:52.3Z</time></trkpt><trkpt lat="45.0047283" lon="8.1816183"><ele>156.0</ele><time>2026-04-11T11:57:53.301Z</time></trkpt><trkpt lat="45.004625" lon="8.18169"><ele>157.0</ele><time>2026-04-11T11:57:54.3Z</time></trkpt><trkpt lat="45.0045267" lon="8.1817717"><ele>158.0</ele><time>2026-04-11T11:57:55.3Z</time></trkpt><trkpt lat="45.0044367" lon="8.181875"><ele>158.0</ele><time>2026-04-11T11:57:56.301Z</time></trkpt><trkpt lat="45.00435" lon="8.1819833"><ele>158.0</ele><time>2026-04-11T11:57:57.3Z</time></trkpt><trkpt lat="45.00426" lon="8.18209"><ele>158.0</ele><time>2026-04-11T11:57:58.3Z</time></trkpt><trkpt lat="45.0041717" lon="8.1822083"><ele>158.0</ele><time>2026-04-11T11:57:59.3Z</time></trkpt><trkpt lat="45.0040817" lon="8.182315"><ele>160.0</ele><time>2026-04-11T11:58:00.3Z</time></trkpt><trkpt lat="45.0039717" lon="8.1824133"><ele>162.0</ele><time>2026-04-11T11:58:01.3Z</time></trkpt><trkpt lat="45.0038617" lon="8.1824867"><ele>164.0</ele><time>2026-04-11T11:58:02.3Z</time></trkpt><trkpt lat="45.003755" lon="8.182545"><ele>166.0</ele><time>2026-04-11T11:58:03.3Z</time></trkpt><trkpt lat="45.00364" lon="8.1825767"><ele>166.0</ele><time>2026-04-11T11:58:04.301Z</time></trkpt><trkpt lat="45.003525" lon="8.1825867"><ele>166.0</ele><time>2026-04-11T11:58:05.3Z</time></trkpt><trkpt lat="45.0034017" lon="8.182585"><ele>166.0</ele><time>2026-04-11T11:58:06.3Z</time></trkpt><trkpt lat="45.003285" lon="8.1825717"><ele>166.0</ele><time>2026-04-11T11:58:07.301Z</time></trkpt><trkpt lat="45.00317" lon="8.18257"><ele>167.5</ele><time>2026-04-11T11:58:08.3Z</time></trkpt><trkpt lat="45.003055" lon="8.1825883"><ele>169.0</ele><time>2026-04-11T11:58:09.301Z</time></trkpt><trkpt lat="45.0029467" lon="8.1826183"><ele>170.5</ele><time>2026-04-11T11:58:10.3Z</time></trkpt><trkpt lat="45.0028483" lon="8.1827033"><ele>172.0</ele><time>2026-04-11T11:58:11.3Z</time></trkpt><trkpt lat="45.0027567" lon="8.18281"><ele>172.0</ele><time>2026-04-11T11:58:12.3Z</time></trkpt><trkpt lat="45.002665" lon="8.18293"><ele>172.0</ele><time>2026-04-11T11:58:13.3Z</time></trkpt><trkpt lat="45.0025667" lon="8.18306"><ele>172.0</ele><time>2026-04-11T11:58:14.3Z</time></trkpt><trkpt lat="45.00247" lon="8.1831867"><ele>172.0</ele><time>2026-04-11T11:58:15.3Z</time></trkpt><trkpt lat="45.002365" lon="8.1833167"><ele>173.75</ele><time>2026-04-11T11:58:16.3Z</time></trkpt><trkpt lat="45.0022633" lon="8.183445"><ele>175.5</ele><time>2026-04-11T11:58:17.3Z</time></trkpt><trkpt lat="45.0021617" lon="8.183565"><ele>177.25</ele><time>2026-04-11T11:58:18.3Z</time></trkpt><trkpt lat="45.0020533" lon="8.1836833"><ele>179.0</ele><time>2026-04-11T11:58:19.3Z</time></trkpt><trkpt lat="45.0019583" lon="8.1838067"><ele>179.0</ele><time>2026-04-11T11:58:20.3Z</time></trkpt><trkpt lat="45.00187" lon="8.18393"><ele>179.0</ele><time>2026-04-11T11:58:21.3Z</time></trkpt><trkpt lat="45.0017833" lon="8.1840617"><ele>179.0</ele><time>2026-04-11T11:58:22.3Z</time></trkpt><trkpt lat="45.0016817" lon="8.1842033"><ele>179.0</ele><time>2026-04-11T11:58:23.3Z</time></trkpt><trkpt lat="45.0015717" lon="8.1843617"><ele>181.66666666666666</ele><time>2026-04-11T11:58:24.3Z</time></trkpt><trkpt lat="45.0014467" lon="8.1845083"><ele>184.33333333333334</ele><time>2026-04-11T11:58:25.3Z</time></trkpt><trkpt lat="45.00132" lon="8.1846767"><ele>187.0</ele><time>2026-04-11T11:58:26.3Z</time></trkpt><trkpt lat="45.0011817" lon="8.1848533"><ele>187.0</ele><time>2026-04-11T11:58:27.3Z</time></trkpt><trkpt lat="45.0010433" lon="8.1850183"><ele>187.0</ele><time>2026-04-11T11:58:28.3Z</time></trkpt><trkpt lat="45.0009167" lon="8.1851733"><ele>187.0</ele><time>2026-04-11T11:58:29.301Z</time></trkpt><trkpt lat="45.0007783" lon="8.1853117"><ele>195.0</ele><time>2026-04-11T11:58:30.3Z</time></trkpt><trkpt lat="45.000645" lon="8.1854267"><ele>203.0</ele><time>2026-04-11T11:58:31.301Z</time></trkpt><trkpt lat="45.0003417" lon="8.1855783"><ele>201.0</ele><time>2026-04-11T11:58:33.301Z</time></trkpt><trkpt lat="45.0000333" lon="8.1857167"><ele>199.0</ele><time>2026-04-11T11:58:35.301Z</time></trkpt><trkpt lat="44.9998883" lon="8.1857933"><ele>199.0</ele><time>2026-04-11T11:58:36.301Z</time></trkpt><trkpt lat="44.9997633" lon="8.1858683"><ele>199.0</ele><time>2026-04-11T11:58:37.3Z</time></trkpt><trkpt lat="44.99964" lon="8.185915"><ele>199.0</ele><time>2026-04-11T11:58:38.3Z</time></trkpt><trkpt lat="44.999525" lon="8.185975"><ele>199.0</ele><time>2026-04-11T11:58:39.301Z</time></trkpt><trkpt lat="44.9994317" lon="8.1860083"><ele>199.0</ele><time>2026-04-11T11:58:40.3Z</time></trkpt><trkpt lat="44.9993417" lon="8.186015"><ele>199.0</ele><time>2026-04-11T11:58:41.3Z</time></trkpt><trkpt lat="44.9992767" lon="8.186035"><ele>199.0</ele><time>2026-04-11T11:58:42.3Z</time></trkpt><trkpt lat="44.9992167" lon="8.18611"><ele>199.0</ele><time>2026-04-11T11:58:44.3Z</time></trkpt><trkpt lat="44.9992033" lon="8.186285"><ele>199.0</ele><time>2026-04-11T11:58:46.3Z</time></trkpt><trkpt lat="44.999185" lon="8.186515"><ele>199.39999999999998</ele><time>2026-04-11T11:58:48.3Z</time></trkpt><trkpt lat="44.9991767" lon="8.1866483"><ele>199.8</ele><time>2026-04-11T11:58:49.3Z</time></trkpt><trkpt lat="44.9991683" lon="8.1867817"><ele>200.2</ele><time>2026-04-11T11:58:50.3Z</time></trkpt><trkpt lat="44.9991333" lon="8.186895"><ele>200.60000000000002</ele><time>2026-04-11T11:58:51.3Z</time></trkpt><trkpt lat="44.99911" lon="8.18702"><ele>201.0</ele><time>2026-04-11T11:58:52.3Z</time></trkpt><trkpt lat="44.9990933" lon="8.1871583"><ele>203.60000000000002</ele><time>2026-04-11T11:58:53.3Z</time></trkpt><trkpt lat="44.9990817" lon="8.1872983"><ele>206.2</ele><time>2026-04-11T11:58:54.301Z</time></trkpt><trkpt lat="44.99907" lon="8.1874433"><ele>208.79999999999998</ele><time>2026-04-11T11:58:55.301Z</time></trkpt><trkpt lat="44.9990567" lon="8.187595"><ele>211.39999999999998</ele><time>2026-04-11T11:58:56.3Z</time></trkpt><trkpt lat="44.9990483" lon="8.1877367"><ele>214.0</ele><time>2026-04-11T11:58:57.3Z</time></trkpt><trkpt lat="44.999035" lon="8.1878633"><ele>213.6</ele><time>2026-04-11T11:58:58.301Z</time></trkpt><trkpt lat="44.9989983" lon="8.1879717"><ele>213.2</ele><time>2026-04-11T11:58:59.301Z</time></trkpt><trkpt lat="44.99895" lon="8.1880717"><ele>212.79999999999998</ele><time>2026-04-11T11:59:00.299Z</time></trkpt><trkpt lat="44.9988817" lon="8.1881883"><ele>212.39999999999998</ele><time>2026-04-11T11:59:01.3Z</time></trkpt><trkpt lat="44.998815" lon="8.1882933"><ele>212.0</ele><time>2026-04-11T11:59:02.301Z</time></trkpt><trkpt lat="44.998735" lon="8.188395"><ele>212.0</ele><time>2026-04-11T11:59:03.3Z</time></trkpt><trkpt lat="44.9986433" lon="8.18847"><ele>212.0</ele><time>2026-04-11T11:59:04.3Z</time></trkpt><trkpt lat="44.9985533" lon="8.188535"><ele>212.0</ele><time>2026-04-11T11:59:05.3Z</time></trkpt><trkpt lat="44.9984667" lon="8.1885917"><ele>212.0</ele><time>2026-04-11T11:59:06.301Z</time></trkpt><trkpt lat="44.9983867" lon="8.1886383"><ele>212.0</ele><time>2026-04-11T11:59:07.3Z</time></trkpt><trkpt lat="44.9983083" lon="8.188675"><ele>212.83333333333334</ele><time>2026-04-11T11:59:08.301Z</time></trkpt><trkpt lat="44.9982217" lon="8.1887167"><ele>213.66666666666669</ele><time>2026-04-11T11:59:09.301Z</time></trkpt><trkpt lat="44.99814" lon="8.1887583"><ele>214.5</ele><time>2026-04-11T11:59:10.3Z</time></trkpt><trkpt lat="44.9980567" lon="8.1887933"><ele>215.33333333333331</ele><time>2026-04-11T11:59:11.3Z</time></trkpt><trkpt lat="44.9979683" lon="8.1888333"><ele>216.16666666666666</ele><time>2026-04-11T11:59:12.301Z</time></trkpt><trkpt lat="44.9978817" lon="8.1888717"><ele>217.0</ele><time>2026-04-11T11:59:13.3Z</time></trkpt><trkpt lat="44.9978" lon="8.1889267"><ele>217.0</ele><time>2026-04-11T11:59:14.3Z</time></trkpt><trkpt lat="44.997715" lon="8.1889583"><ele>217.0</ele><time>2026-04-11T11:59:15.3Z</time></trkpt><trkpt lat="44.99762" lon="8.1890067"><ele>217.0</ele><time>2026-04-11T11:59:16.301Z</time></trkpt><trkpt lat="44.9975183" lon="8.189065"><ele>217.0</ele><time>2026-04-11T11:59:17.301Z</time></trkpt><trkpt lat="44.9974233" lon="8.1891217"><ele>217.0</ele><time>2026-04-11T11:59:18.3Z</time></trkpt><trkpt lat="44.99733" lon="8.189195"><ele>218.8</ele><time>2026-04-11T11:59:19.3Z</time></trkpt><trkpt lat="44.9972367" lon="8.1892717"><ele>220.6</ele><time>2026-04-11T11:59:20.301Z</time></trkpt><trkpt lat="44.99712" lon="8.189345"><ele>222.40000000000003</ele><time>2026-04-11T11:59:21.3Z</time></trkpt><trkpt lat="44.9970417" lon="8.1894383"><ele>224.20000000000002</ele><time>2026-04-11T11:59:22.301Z</time></trkpt><trkpt lat="44.9969517" lon="8.1895133"><ele>226.0</ele><time>2026-04-11T11:59:23.3Z</time></trkpt><trkpt lat="44.996905" lon="8.1896417"><ele>226.0</ele><time>2026-04-11T11:59:24.301Z</time></trkpt><trkpt lat="44.9968217" lon="8.18975"><ele>226.0</ele><time>2026-04-11T11:59:25.3Z</time></trkpt><trkpt lat="44.9966583" lon="8.1899367"><ele>226.0</ele><time>2026-04-11T11:59:27.3Z</time></trkpt><trkpt lat="44.9965817" lon="8.190035"><ele>226.0</ele><time>2026-04-11T11:59:28.3Z</time></trkpt><trkpt lat="44.9964983" lon="8.1901217"><ele>227.33333333333331</ele><time>2026-04-11T11:59:29.301Z</time></trkpt><trkpt lat="44.996425" lon="8.190185"><ele>228.66666666666666</ele><time>2026-04-11T11:59:30.301Z</time></trkpt><trkpt lat="44.9963583" lon="8.1902417"><ele>230.0</ele><time>2026-04-11T11:59:31.3Z</time></trkpt><trkpt lat="44.996285" lon="8.1902833"><ele>231.33333333333331</ele><time>2026-04-11T11:59:32.3Z</time></trkpt><trkpt lat="44.9962" lon="8.19031"><ele>232.66666666666666</ele><time>2026-04-11T11:59:33.3Z</time></trkpt><trkpt lat="44.99613" lon="8.1903517"><ele>234.0</ele><time>2026-04-11T11:59:34.3Z</time></trkpt><trkpt lat="44.9960533" lon="8.1903967"><ele>234.0</ele><time>2026-04-11T11:59:35.301Z</time></trkpt><trkpt lat="44.9959867" lon="8.19045"><ele>234.0</ele><time>2026-04-11T11:59:36.3Z</time></trkpt><trkpt lat="44.995925" lon="8.190515"><ele>234.0</ele><time>2026-04-11T11:59:37.3Z</time></trkpt><trkpt lat="44.9958617" lon="8.1905817"><ele>234.0</ele><time>2026-04-11T11:59:38.3Z</time></trkpt><trkpt lat="44.995805" lon="8.1906467"><ele>234.0</ele><time>2026-04-11T11:59:39.3Z</time></trkpt><trkpt lat="44.9957733" lon="8.190725"><ele>234.0</ele><time>2026-04-11T11:59:40.3Z</time></trkpt><trkpt lat="44.9957267" lon="8.19083"><ele>234.6</ele><time>2026-04-11T11:59:42.3Z</time></trkpt><trkpt lat="44.9957017" lon="8.1910033"><ele>235.2</ele><time>2026-04-11T11:59:44.301Z</time></trkpt><trkpt lat="44.9956617" lon="8.1911267"><ele>235.79999999999998</ele><time>2026-04-11T11:59:46.301Z</time></trkpt><trkpt lat="44.9956067" lon="8.1912233"><ele>236.39999999999998</ele><time>2026-04-11T11:59:48.3Z</time></trkpt><trkpt lat="44.9954817" lon="8.1912217"><ele>237.0</ele><time>2026-04-11T11:59:50.3Z</time></trkpt><trkpt lat="44.9954033" lon="8.1912117"><ele>237.0</ele><time>2026-04-11T11:59:51.299Z</time></trkpt><trkpt lat="44.9953267" lon="8.1912017"><ele>237.0</ele><time>2026-04-11T11:59:52.299Z</time></trkpt><trkpt lat="44.995255" lon="8.1911867"><ele>237.0</ele><time>2026-04-11T11:59:53.299Z</time></trkpt><trkpt lat="44.995185" lon="8.1911767"><ele>237.0</ele><time>2026-04-11T11:59:54.299Z</time></trkpt><trkpt lat="44.9950783" lon="8.19117"><ele>237.0</ele><time>2026-04-11T11:59:56.299Z</time></trkpt><trkpt lat="44.994985" lon="8.19116"><ele>237.0</ele><time>2026-04-11T11:59:58.3Z</time></trkpt><trkpt lat="44.9949067" lon="8.1911517"><ele>237.0</ele><time>2026-04-11T12:00:00.299Z</time></trkpt><trkpt lat="44.99483" lon="8.191135"><ele>237.0</ele><time>2026-04-11T12:00:02.299Z</time></trkpt><trkpt lat="44.99476" lon="8.1911383"><ele>237.0</ele><time>2026-04-11T12:00:04.299Z</time></trkpt><trkpt lat="44.9947183" lon="8.1912183"><ele>237.0</ele><time>2026-04-11T12:00:06.299Z</time></trkpt><trkpt lat="44.9946983" lon="8.1913117"><ele>237.0</ele><time>2026-04-11T12:00:08.3Z</time></trkpt><trkpt lat="44.9946517" lon="8.1914317"><ele>237.0</ele><time>2026-04-11T12:00:11.299Z</time></trkpt><trkpt lat="44.9945617" lon="8.1914917"><ele>237.0</ele><time>2026-04-11T12:00:13.3Z</time></trkpt><trkpt lat="44.9944633" lon="8.1914883"><ele>237.0</ele><time>2026-04-11T12:00:15.299Z</time></trkpt><trkpt lat="44.9943883" lon="8.19149"><ele>237.0</ele><time>2026-04-11T12:00:17.299Z</time></trkpt><trkpt lat="44.9943383" lon="8.1915533"><ele>237.0</ele><time>2026-04-11T12:00:19.299Z</time></trkpt><trkpt lat="44.994275" lon="8.1916383"><ele>237.0</ele><time>2026-04-11T12:00:21.3Z</time></trkpt><trkpt lat="44.994205" lon="8.1917333"><ele>237.0</ele><time>2026-04-11T12:00:23.299Z</time></trkpt><trkpt lat="44.9941517" lon="8.191815"><ele>236.0</ele><time>2026-04-11T12:00:25.299Z</time></trkpt><trkpt lat="44.9940933" lon="8.1918833"><ele>235.0</ele><time>2026-04-11T12:00:28.299Z</time></trkpt><trkpt lat="44.9940367" lon="8.1919233"><ele>234.0</ele><time>2026-04-11T12:00:32.299Z</time></trkpt><trkpt lat="44.9940117" lon="8.192005"><ele>233.0</ele><time>2026-04-11T12:00:35.299Z</time></trkpt><trkpt lat="44.9940667" lon="8.19209"><ele>232.0</ele><time>2026-04-11T12:00:38.299Z</time></trkpt><trkpt lat="44.9941417" lon="8.1921567"><ele>231.0</ele><time>2026-04-11T12:00:41.299Z</time></trkpt><trkpt lat="44.9942167" lon="8.1922017"><ele>231.0</ele><time>2026-04-11T12:00:44.299Z</time></trkpt><trkpt lat="44.9942867" lon="8.1921817"><ele>231.0</ele><time>2026-04-11T12:00:46.3Z</time></trkpt><trkpt lat="44.99437" lon="8.1921683"><ele>231.0</ele><time>2026-04-11T12:00:48.3Z</time></trkpt><trkpt lat="44.99447" lon="8.1921767"><ele>231.0</ele><time>2026-04-11T12:00:50.299Z</time></trkpt><trkpt lat="44.99459" lon="8.192165"><ele>231.0</ele><time>2026-04-11T12:00:52.299Z</time></trkpt><trkpt lat="44.99466" lon="8.1921567"><ele>231.0</ele><time>2026-04-11T12:00:53.299Z</time></trkpt><trkpt lat="44.9947267" lon="8.192145"><ele>231.0</ele><time>2026-04-11T12:00:54.299Z</time></trkpt><trkpt lat="44.994805" lon="8.19215"><ele>231.0</ele><time>2026-04-11T12:00:55.299Z</time></trkpt><trkpt lat="44.9948833" lon="8.1921533"><ele>231.0</ele><time>2026-04-11T12:00:56.299Z</time></trkpt><trkpt lat="44.994965" lon="8.19216"><ele>231.0</ele><time>2026-04-11T12:00:57.3Z</time></trkpt><trkpt lat="44.995045" lon="8.192165"><ele>231.0</ele><time>2026-04-11T12:00:58.299Z</time></trkpt><trkpt lat="44.995125" lon="8.1921683"><ele>231.0</ele><time>2026-04-11T12:00:59.299Z</time></trkpt><trkpt lat="44.9951967" lon="8.192175"><ele>230.66666666666666</ele><time>2026-04-11T12:01:00.299Z</time></trkpt><trkpt lat="44.9952667" lon="8.1922067"><ele>230.33333333333331</ele><time>2026-04-11T12:01:01.299Z</time></trkpt><trkpt lat="44.9953333" lon="8.1922417"><ele>230.0</ele><time>2026-04-11T12:01:02.3Z</time></trkpt><trkpt lat="44.9954017" lon="8.1922733"><ele>229.66666666666666</ele><time>2026-04-11T12:01:03.299Z</time></trkpt><trkpt lat="44.99547" lon="8.1923083"><ele>229.33333333333331</ele><time>2026-04-11T12:01:04.3Z</time></trkpt><trkpt lat="44.9955617" lon="8.192385"><ele>229.0</ele><time>2026-04-11T12:01:06.299Z</time></trkpt><trkpt lat="44.9956317" lon="8.192505"><ele>227.49999999999997</ele><time>2026-04-11T12:01:08.299Z</time></trkpt><trkpt lat="44.9956567" lon="8.19259"><ele>226.0</ele><time>2026-04-11T12:01:09.299Z</time></trkpt><trkpt lat="44.99571" lon="8.1927417"><ele>224.5</ele><time>2026-04-11T12:01:11.3Z</time></trkpt><trkpt lat="44.9957883" lon="8.1928417"><ele>223.0</ele><time>2026-04-11T12:01:13.299Z</time></trkpt><trkpt lat="44.9958517" lon="8.1928667"><ele>221.49999999999997</ele><time>2026-04-11T12:01:15.3Z</time></trkpt><trkpt lat="44.9959267" lon="8.192845"><ele>220.0</ele><time>2026-04-11T12:01:18.3Z</time></trkpt><trkpt lat="44.9960183" lon="8.1928033"><ele>216.0</ele><time>2026-04-11T12:01:21.3Z</time></trkpt><trkpt lat="44.9960917" lon="8.1928033"><ele>212.0</ele><time>2026-04-11T12:01:23.299Z</time></trkpt><trkpt lat="44.9961867" lon="8.1928383"><ele>208.0</ele><time>2026-04-11T12:01:25.299Z</time></trkpt><trkpt lat="44.996245" lon="8.1928983"><ele>204.0</ele><time>2026-04-11T12:01:26.299Z</time></trkpt><trkpt lat="44.996335" lon="8.19299"><ele>200.0</ele><time>2026-04-11T12:01:28.299Z</time></trkpt><trkpt lat="44.996405" lon="8.19312"><ele>200.16666666666669</ele><time>2026-04-11T12:01:30.299Z</time></trkpt><trkpt lat="44.99647" lon="8.1932817"><ele>200.33333333333334</ele><time>2026-04-11T12:01:32.299Z</time></trkpt><trkpt lat="44.9964983" lon="8.19337"><ele>200.5</ele><time>2026-04-11T12:01:33.299Z</time></trkpt><trkpt lat="44.9965117" lon="8.193475"><ele>200.66666666666669</ele><time>2026-04-11T12:01:34.299Z</time></trkpt><trkpt lat="44.9965233" lon="8.1935817"><ele>200.83333333333334</ele><time>2026-04-11T12:01:35.3Z</time></trkpt><trkpt lat="44.9965267" lon="8.1936917"><ele>201.0</ele><time>2026-04-11T12:01:36.3Z</time></trkpt><trkpt lat="44.9965383" lon="8.193785"><ele>201.0</ele><time>2026-04-11T12:01:37.299Z</time></trkpt><trkpt lat="44.9965567" lon="8.1938717"><ele>201.0</ele><time>2026-04-11T12:01:38.3Z</time></trkpt><trkpt lat="44.9966233" lon="8.1940433"><ele>201.0</ele><time>2026-04-11T12:01:40.299Z</time></trkpt><trkpt lat="44.9966617" lon="8.1941217"><ele>201.0</ele><time>2026-04-11T12:01:41.3Z</time></trkpt><trkpt lat="44.9967117" lon="8.1941967"><ele>201.0</ele><time>2026-04-11T12:01:42.3Z</time></trkpt><trkpt lat="44.9967617" lon="8.1942717"><ele>201.0</ele><time>2026-04-11T12:01:43.299Z</time></trkpt><trkpt lat="44.9968217" lon="8.194345"><ele>198.83333333333334</ele><time>2026-04-11T12:01:44.299Z</time></trkpt><trkpt lat="44.9968717" lon="8.1944033"><ele>196.66666666666666</ele><time>2026-04-11T12:01:45.299Z</time></trkpt><trkpt lat="44.9969433" lon="8.1944833"><ele>194.5</ele><time>2026-04-11T12:01:47.299Z</time></trkpt><trkpt lat="44.9970183" lon="8.19455"><ele>192.33333333333331</ele><time>2026-04-11T12:01:50.299Z</time></trkpt><trkpt lat="44.9970717" lon="8.1946067"><ele>190.16666666666666</ele><time>2026-04-11T12:01:52.3Z</time></trkpt><trkpt lat="44.99713" lon="8.1946617"><ele>188.0</ele><time>2026-04-11T12:01:54.299Z</time></trkpt><trkpt lat="44.9971917" lon="8.194725"><ele>188.0</ele><time>2026-04-11T12:01:56.3Z</time></trkpt><trkpt lat="44.9972333" lon="8.1948133"><ele>188.0</ele><time>2026-04-11T12:01:58.299Z</time></trkpt><trkpt lat="44.9972633" lon="8.1949183"><ele>188.0</ele><time>2026-04-11T12:02:00.3Z</time></trkpt><trkpt lat="44.997275" lon="8.1950283"><ele>188.0</ele><time>2026-04-11T12:02:02.3Z</time></trkpt><trkpt lat="44.9972783" lon="8.195135"><ele>188.0</ele><time>2026-04-11T12:02:04.3Z</time></trkpt><trkpt lat="44.9972933" lon="8.19524"><ele>188.0</ele><time>2026-04-11T12:02:06.299Z</time></trkpt><trkpt lat="44.997305" lon="8.1953417"><ele>188.16666666666666</ele><time>2026-04-11T12:02:08.299Z</time></trkpt><trkpt lat="44.9973033" lon="8.1954633"><ele>188.33333333333331</ele><time>2026-04-11T12:02:10.3Z</time></trkpt><trkpt lat="44.9973183" lon="8.1956117"><ele>188.5</ele><time>2026-04-11T12:02:12.299Z</time></trkpt><trkpt lat="44.9973317" lon="8.1957033"><ele>188.66666666666666</ele><time>2026-04-11T12:02:13.3Z</time></trkpt><trkpt lat="44.9973517" lon="8.1957883"><ele>188.83333333333334</ele><time>2026-04-11T12:02:14.3Z</time></trkpt><trkpt lat="44.9974083" lon="8.1959167"><ele>189.0</ele><time>2026-04-11T12:02:16.3Z</time></trkpt><trkpt lat="44.9974667" lon="8.195985"><ele>187.16666666666666</ele><time>2026-04-11T12:02:18.299Z</time></trkpt><trkpt lat="44.9975117" lon="8.1960633"><ele>185.33333333333334</ele><time>2026-04-11T12:02:22.3Z</time></trkpt><trkpt lat="44.99757" lon="8.1961333"><ele>183.5</ele><time>2026-04-11T12:02:25.299Z</time></trkpt><trkpt lat="44.99763" lon="8.1962"><ele>181.66666666666669</ele><time>2026-04-11T12:02:27.299Z</time></trkpt><trkpt lat="44.9976783" lon="8.19627"><ele>179.83333333333334</ele><time>2026-04-11T12:02:29.299Z</time></trkpt><trkpt lat="44.9977417" lon="8.1963333"><ele>178.0</ele><time>2026-04-11T12:02:31.299Z</time></trkpt><trkpt lat="44.99782" lon="8.1963917"><ele>178.0</ele><time>2026-04-11T12:02:33.299Z</time></trkpt><trkpt lat="44.99792" lon="8.1964617"><ele>178.0</ele><time>2026-04-11T12:02:35.299Z</time></trkpt><trkpt lat="44.9980083" lon="8.1965483"><ele>178.0</ele><time>2026-04-11T12:02:37.299Z</time></trkpt><trkpt lat="44.9980917" lon="8.19666"><ele>178.0</ele><time>2026-04-11T12:02:39.299Z</time></trkpt><trkpt lat="44.9981533" lon="8.1967233"><ele>178.0</ele><time>2026-04-11T12:02:40.3Z</time></trkpt><trkpt lat="44.998235" lon="8.1967783"><ele>177.4</ele><time>2026-04-11T12:02:41.299Z</time></trkpt><trkpt lat="44.9983233" lon="8.1968533"><ele>176.8</ele><time>2026-04-11T12:02:42.299Z</time></trkpt><trkpt lat="44.9984083" lon="8.1969217"><ele>176.2</ele><time>2026-04-11T12:02:43.3Z</time></trkpt><trkpt lat="44.9984883" lon="8.19698"><ele>175.6</ele><time>2026-04-11T12:02:44.299Z</time></trkpt><trkpt lat="44.998575" lon="8.19704"><ele>175.0</ele><time>2026-04-11T12:02:45.3Z</time></trkpt><trkpt lat="44.9986617" lon="8.1970867"><ele>173.4</ele><time>2026-04-11T12:02:46.299Z</time></trkpt><trkpt lat="44.99875" lon="8.1971333"><ele>171.8</ele><time>2026-04-11T12:02:47.299Z</time></trkpt><trkpt lat="44.99884" lon="8.1971817"><ele>170.2</ele><time>2026-04-11T12:02:48.299Z</time></trkpt><trkpt lat="44.9989317" lon="8.19722"><ele>168.6</ele><time>2026-04-11T12:02:49.299Z</time></trkpt><trkpt lat="44.9990217" lon="8.1972633"><ele>167.0</ele><time>2026-04-11T12:02:50.3Z</time></trkpt><trkpt lat="44.99911" lon="8.1973"><ele>163.83333333333331</ele><time>2026-04-11T12:02:51.299Z</time></trkpt><trkpt lat="44.9992" lon="8.1973533"><ele>160.66666666666666</ele><time>2026-04-11T12:02:52.299Z</time></trkpt><trkpt lat="44.9992883" lon="8.1974033"><ele>157.5</ele><time>2026-04-11T12:02:53.299Z</time></trkpt><trkpt lat="44.99937" lon="8.197445"><ele>154.33333333333334</ele><time>2026-04-11T12:02:54.299Z</time></trkpt><trkpt lat="44.99945" lon="8.19749"><ele>151.16666666666669</ele><time>2026-04-11T12:02:55.3Z</time></trkpt><trkpt lat="44.9995283" lon="8.1975183"><ele>148.0</ele><time>2026-04-11T12:02:56.3Z</time></trkpt><trkpt lat="44.99961" lon="8.1975433"><ele>148.0</ele><time>2026-04-11T12:02:57.3Z</time></trkpt><trkpt lat="44.9996817" lon="8.1975583"><ele>148.0</ele><time>2026-04-11T12:02:58.299Z</time></trkpt><trkpt lat="44.9997533" lon="8.1975567"><ele>148.0</ele><time>2026-04-11T12:02:59.3Z</time></trkpt><trkpt lat="44.999825" lon="8.1975617"><ele>148.0</ele><time>2026-04-11T12:03:00.3Z</time></trkpt><trkpt lat="44.999895" lon="8.1975633"><ele>148.0</ele><time>2026-04-11T12:03:01.3Z</time></trkpt><trkpt lat="44.99996" lon="8.1975583"><ele>148.0</ele><time>2026-04-11T12:03:02.299Z</time></trkpt><trkpt lat="45.000025" lon="8.1975667"><ele>148.0</ele><time>2026-04-11T12:03:03.3Z</time></trkpt><trkpt lat="45.0001333" lon="8.1975817"><ele>148.0</ele><time>2026-04-11T12:03:05.3Z</time></trkpt><trkpt lat="45.0002067" lon="8.1976167"><ele>148.0</ele><time>2026-04-11T12:03:07.299Z</time></trkpt><trkpt lat="45.000285" lon="8.197645"><ele>148.0</ele><time>2026-04-11T12:03:10.299Z</time></trkpt><trkpt lat="45.0003667" lon="8.1976817"><ele>148.0</ele><time>2026-04-11T12:03:13.299Z</time></trkpt><trkpt lat="45.0003933" lon="8.1978033"><ele>148.0</ele><time>2026-04-11T12:03:16.299Z</time></trkpt><trkpt lat="45.00035" lon="8.197945"><ele>148.0</ele><time>2026-04-11T12:03:18.3Z</time></trkpt><trkpt lat="45.00032" lon="8.1980283"><ele>148.0</ele><time>2026-04-11T12:03:19.299Z</time></trkpt><trkpt lat="45.000295" lon="8.19812"><ele>148.0</ele><time>2026-04-11T12:03:20.299Z</time></trkpt><trkpt lat="45.0002717" lon="8.198215"><ele>148.0</ele><time>2026-04-11T12:03:21.3Z</time></trkpt><trkpt lat="45.00025" lon="8.198305"><ele>148.0</ele><time>2026-04-11T12:03:22.299Z</time></trkpt><trkpt lat="45.00022" lon="8.1984033"><ele>148.0</ele><time>2026-04-11T12:03:23.299Z</time></trkpt><trkpt lat="45.000185" lon="8.1985083"><ele>148.0</ele><time>2026-04-11T12:03:24.299Z</time></trkpt><trkpt lat="45.0001583" lon="8.1986083"><ele>148.0</ele><time>2026-04-11T12:03:25.299Z</time></trkpt><trkpt lat="45.00013" lon="8.1987167"><ele>148.0</ele><time>2026-04-11T12:03:26.299Z</time></trkpt><trkpt lat="45.0000967" lon="8.19883"><ele>148.0</ele><time>2026-04-11T12:03:27.299Z</time></trkpt><trkpt lat="45.0000733" lon="8.1989483"><ele>148.0</ele><time>2026-04-11T12:03:28.299Z</time></trkpt><trkpt lat="45.0000517" lon="8.19907"><ele>148.0</ele><time>2026-04-11T12:03:29.299Z</time></trkpt><trkpt lat="45.00003" lon="8.1991783"><ele>148.0</ele><time>2026-04-11T12:03:30.3Z</time></trkpt><trkpt lat="45.0000083" lon="8.1992833"><ele>148.0</ele><time>2026-04-11T12:03:31.299Z</time></trkpt><trkpt lat="44.9999883" lon="8.199385"><ele>148.0</ele><time>2026-04-11T12:03:32.299Z</time></trkpt><trkpt lat="44.999965" lon="8.1994883"><ele>148.0</ele><time>2026-04-11T12:03:33.3Z</time></trkpt><trkpt lat="44.9999383" lon="8.1995917"><ele>148.0</ele><time>2026-04-11T12:03:34.3Z</time></trkpt><trkpt lat="44.99991" lon="8.1996983"><ele>148.0</ele><time>2026-04-11T12:03:35.299Z</time></trkpt><trkpt lat="44.9998717" lon="8.1998083"><ele>148.0</ele><time>2026-04-11T12:03:36.299Z</time></trkpt><trkpt lat="44.9998383" lon="8.1999233"><ele>148.0</ele><time>2026-04-11T12:03:37.299Z</time></trkpt><trkpt lat="44.9998" lon="8.2000467"><ele>148.0</ele><time>2026-04-11T12:03:38.299Z</time></trkpt><trkpt lat="44.9997583" lon="8.20017"><ele>148.0</ele><time>2026-04-11T12:03:39.3Z</time></trkpt><trkpt lat="44.9997183" lon="8.2002833"><ele>148.0</ele><time>2026-04-11T12:03:40.3Z</time></trkpt><trkpt lat="44.9996833" lon="8.200405"><ele>148.0</ele><time>2026-04-11T12:03:41.299Z</time></trkpt><trkpt lat="44.9996467" lon="8.200525"><ele>148.0</ele><time>2026-04-11T12:03:42.299Z</time></trkpt><trkpt lat="44.99961" lon="8.2006383"><ele>147.8</ele><time>2026-04-11T12:03:43.3Z</time></trkpt><trkpt lat="44.99957" lon="8.2007567"><ele>147.60000000000002</ele><time>2026-04-11T12:03:44.299Z</time></trkpt><trkpt lat="44.9995317" lon="8.20088"><ele>147.39999999999998</ele><time>2026-04-11T12:03:45.299Z</time></trkpt><trkpt lat="44.999495" lon="8.201005"><ele>147.2</ele><time>2026-04-11T12:03:46.299Z</time></trkpt><trkpt lat="44.9994567" lon="8.201135"><ele>147.0</ele><time>2026-04-11T12:03:47.3Z</time></trkpt><trkpt lat="44.9994167" lon="8.2012583"><ele>147.0</ele><time>2026-04-11T12:03:48.299Z</time></trkpt><trkpt lat="44.9993733" lon="8.2013817"><ele>147.0</ele><time>2026-04-11T12:03:49.299Z</time></trkpt><trkpt lat="44.9993233" lon="8.20151"><ele>147.0</ele><time>2026-04-11T12:03:50.299Z</time></trkpt><trkpt lat="44.99928" lon="8.2016383"><ele>147.0</ele><time>2026-04-11T12:03:51.298Z</time></trkpt><trkpt lat="44.9992283" lon="8.2017733"><ele>147.0</ele><time>2026-04-11T12:03:52.298Z</time></trkpt><trkpt lat="44.999175" lon="8.201885"><ele>147.4</ele><time>2026-04-11T12:03:53.298Z</time></trkpt><trkpt lat="44.99913" lon="8.202"><ele>147.79999999999998</ele><time>2026-04-11T12:03:54.299Z</time></trkpt><trkpt lat="44.9990767" lon="8.2021117"><ele>148.2</ele><time>2026-04-11T12:03:55.298Z</time></trkpt><trkpt lat="44.9990217" lon="8.2022317"><ele>148.6</ele><time>2026-04-11T12:03:56.298Z</time></trkpt><trkpt lat="44.9989667" lon="8.2023517"><ele>149.0</ele><time>2026-04-11T12:03:57.298Z</time></trkpt><trkpt lat="44.99891" lon="8.2024783"><ele>149.0</ele><time>2026-04-11T12:03:58.298Z</time></trkpt><trkpt lat="44.9988467" lon="8.20262"><ele>149.0</ele><time>2026-04-11T12:03:59.299Z</time></trkpt><trkpt lat="44.99878" lon="8.2027567"><ele>149.0</ele><time>2026-04-11T12:04:00.299Z</time></trkpt><trkpt lat="44.9987183" lon="8.2029067"><ele>149.0</ele><time>2026-04-11T12:04:01.299Z</time></trkpt><trkpt lat="44.9986633" lon="8.203065"><ele>148.25</ele><time>2026-04-11T12:04:02.298Z</time></trkpt><trkpt lat="44.9986133" lon="8.2032133"><ele>147.5</ele><time>2026-04-11T12:04:03.298Z</time></trkpt><trkpt lat="44.99857" lon="8.203375"><ele>146.75</ele><time>2026-04-11T12:04:04.299Z</time></trkpt><trkpt lat="44.99853" lon="8.20353"><ele>146.0</ele><time>2026-04-11T12:04:05.298Z</time></trkpt><trkpt lat="44.9985033" lon="8.2036867"><ele>146.0</ele><time>2026-04-11T12:04:06.298Z</time></trkpt><trkpt lat="44.99848" lon="8.2038417"><ele>146.0</ele><time>2026-04-11T12:04:07.298Z</time></trkpt><trkpt lat="44.998455" lon="8.2039967"><ele>146.0</ele><time>2026-04-11T12:04:08.298Z</time></trkpt><trkpt lat="44.9984367" lon="8.2041483"><ele>146.0</ele><time>2026-04-11T12:04:09.298Z</time></trkpt><trkpt lat="44.998425" lon="8.2043"><ele>146.0</ele><time>2026-04-11T12:04:10.298Z</time></trkpt><trkpt lat="44.9984217" lon="8.2044567"><ele>145.8</ele><time>2026-04-11T12:04:11.298Z</time></trkpt><trkpt lat="44.998415" lon="8.20462"><ele>145.6</ele><time>2026-04-11T12:04:12.298Z</time></trkpt><trkpt lat="44.9984167" lon="8.2047767"><ele>145.4</ele><time>2026-04-11T12:04:13.298Z</time></trkpt><trkpt lat="44.998405" lon="8.204905"><ele>145.2</ele><time>2026-04-11T12:04:14.299Z</time></trkpt><trkpt lat="44.9984133" lon="8.205045"><ele>145.0</ele><time>2026-04-11T12:04:15.298Z</time></trkpt><trkpt lat="44.9984183" lon="8.2051967"><ele>145.0</ele><time>2026-04-11T12:04:16.299Z</time></trkpt><trkpt lat="44.9984067" lon="8.2053383"><ele>145.0</ele><time>2026-04-11T12:04:17.298Z</time></trkpt><trkpt lat="44.998385" lon="8.2054717"><ele>145.0</ele><time>2026-04-11T12:04:18.298Z</time></trkpt><trkpt lat="44.998345" lon="8.205605"><ele>145.0</ele><time>2026-04-11T12:04:19.298Z</time></trkpt><trkpt lat="44.9982867" lon="8.2057183"><ele>145.0</ele><time>2026-04-11T12:04:20.299Z</time></trkpt><trkpt lat="44.99822" lon="8.20582"><ele>145.6</ele><time>2026-04-11T12:04:21.298Z</time></trkpt><trkpt lat="44.9981517" lon="8.2059267"><ele>146.2</ele><time>2026-04-11T12:04:22.298Z</time></trkpt><trkpt lat="44.99809" lon="8.2060433"><ele>146.8</ele><time>2026-04-11T12:04:23.299Z</time></trkpt><trkpt lat="44.9980267" lon="8.206165"><ele>147.4</ele><time>2026-04-11T12:04:24.298Z</time></trkpt><trkpt lat="44.997965" lon="8.206295"><ele>148.0</ele><time>2026-04-11T12:04:25.298Z</time></trkpt><trkpt lat="44.997905" lon="8.2064267"><ele>147.25</ele><time>2026-04-11T12:04:26.299Z</time></trkpt><trkpt lat="44.9978483" lon="8.2065633"><ele>146.5</ele><time>2026-04-11T12:04:27.298Z</time></trkpt><trkpt lat="44.9977867" lon="8.2067"><ele>145.75</ele><time>2026-04-11T12:04:28.298Z</time></trkpt><trkpt lat="44.997725" lon="8.2068317"><ele>145.0</ele><time>2026-04-11T12:04:29.299Z</time></trkpt><trkpt lat="44.9976633" lon="8.2069667"><ele>145.0</ele><time>2026-04-11T12:04:30.299Z</time></trkpt><trkpt lat="44.997605" lon="8.207105"><ele>145.0</ele><time>2026-04-11T12:04:31.298Z</time></trkpt><trkpt lat="44.9975417" lon="8.2072283"><ele>145.0</ele><time>2026-04-11T12:04:32.298Z</time></trkpt><trkpt lat="44.9974833" lon="8.2073617"><ele>145.0</ele><time>2026-04-11T12:04:33.298Z</time></trkpt><trkpt lat="44.997415" lon="8.2075017"><ele>145.25</ele><time>2026-04-11T12:04:34.298Z</time></trkpt><trkpt lat="44.997345" lon="8.2076333"><ele>145.5</ele><time>2026-04-11T12:04:35.299Z</time></trkpt><trkpt lat="44.9972767" lon="8.2077617"><ele>145.75</ele><time>2026-04-11T12:04:36.298Z</time></trkpt><trkpt lat="44.9972" lon="8.2078767"><ele>146.0</ele><time>2026-04-11T12:04:37.298Z</time></trkpt><trkpt lat="44.9971133" lon="8.2079883"><ele>146.0</ele><time>2026-04-11T12:04:38.298Z</time></trkpt><trkpt lat="44.997025" lon="8.2081067"><ele>146.0</ele><time>2026-04-11T12:04:39.299Z</time></trkpt><trkpt lat="44.9969567" lon="8.2082167"><ele>146.0</ele><time>2026-04-11T12:04:40.298Z</time></trkpt><trkpt lat="44.9968867" lon="8.2083217"><ele>146.0</ele><time>2026-04-11T12:04:41.299Z</time></trkpt><trkpt lat="44.9968133" lon="8.20843"><ele>146.0</ele><time>2026-04-11T12:04:42.298Z</time></trkpt><trkpt lat="44.9967417" lon="8.2085317"><ele>145.8</ele><time>2026-04-11T12:04:43.298Z</time></trkpt><trkpt lat="44.996665" lon="8.20864"><ele>145.6</ele><time>2026-04-11T12:04:44.299Z</time></trkpt><trkpt lat="44.9965917" lon="8.208745"><ele>145.4</ele><time>2026-04-11T12:04:45.298Z</time></trkpt><trkpt lat="44.996525" lon="8.2088383"><ele>145.2</ele><time>2026-04-11T12:04:46.298Z</time></trkpt><trkpt lat="44.99645" lon="8.2089267"><ele>145.0</ele><time>2026-04-11T12:04:47.298Z</time></trkpt><trkpt lat="44.9963717" lon="8.2090267"><ele>145.0</ele><time>2026-04-11T12:04:48.298Z</time></trkpt><trkpt lat="44.9963033" lon="8.2091067"><ele>145.0</ele><time>2026-04-11T12:04:49.298Z</time></trkpt><trkpt lat="44.9962283" lon="8.2092083"><ele>145.0</ele><time>2026-04-11T12:04:50.299Z</time></trkpt><trkpt lat="44.996155" lon="8.2093"><ele>145.0</ele><time>2026-04-11T12:04:51.298Z</time></trkpt><trkpt lat="44.996075" lon="8.2093867"><ele>145.0</ele><time>2026-04-11T12:04:52.298Z</time></trkpt><trkpt lat="44.9960033" lon="8.2094733"><ele>145.0</ele><time>2026-04-11T12:04:53.298Z</time></trkpt><trkpt lat="44.9959233" lon="8.2095433"><ele>145.0</ele><time>2026-04-11T12:04:54.299Z</time></trkpt><trkpt lat="44.9958567" lon="8.2096133"><ele>145.0</ele><time>2026-04-11T12:04:55.299Z</time></trkpt><trkpt lat="44.9958133" lon="8.209685"><ele>145.0</ele><time>2026-04-11T12:04:56.298Z</time></trkpt><trkpt lat="44.9957317" lon="8.2098233"><ele>145.0</ele><time>2026-04-11T12:04:58.298Z</time></trkpt><trkpt lat="44.9956767" lon="8.20991"><ele>144.83333333333334</ele><time>2026-04-11T12:04:59.299Z</time></trkpt><trkpt lat="44.995615" lon="8.21001"><ele>144.66666666666669</ele><time>2026-04-11T12:05:00.298Z</time></trkpt><trkpt lat="44.9955517" lon="8.2101183"><ele>144.5</ele><time>2026-04-11T12:05:01.298Z</time></trkpt><trkpt lat="44.9954867" lon="8.2102133"><ele>144.33333333333334</ele><time>2026-04-11T12:05:02.298Z</time></trkpt><trkpt lat="44.99544" lon="8.2102883"><ele>144.16666666666666</ele><time>2026-04-11T12:05:03.299Z</time></trkpt><trkpt lat="44.9953967" lon="8.2103783"><ele>144.0</ele><time>2026-04-11T12:05:04.298Z</time></trkpt><trkpt lat="44.9953517" lon="8.21047"><ele>144.0</ele><time>2026-04-11T12:05:05.299Z</time></trkpt><trkpt lat="44.9952967" lon="8.21056"><ele>144.0</ele><time>2026-04-11T12:05:06.298Z</time></trkpt><trkpt lat="44.9952283" lon="8.210655"><ele>144.0</ele><time>2026-04-11T12:05:07.299Z</time></trkpt><trkpt lat="44.995165" lon="8.210745"><ele>144.0</ele><time>2026-04-11T12:05:08.299Z</time></trkpt><trkpt lat="44.9950967" lon="8.21084"><ele>144.0</ele><time>2026-04-11T12:05:09.298Z</time></trkpt><trkpt lat="44.9950233" lon="8.2109333"><ele>144.2</ele><time>2026-04-11T12:05:10.298Z</time></trkpt><trkpt lat="44.994955" lon="8.21104"><ele>144.4</ele><time>2026-04-11T12:05:11.298Z</time></trkpt><trkpt lat="44.99489" lon="8.2111433"><ele>144.6</ele><time>2026-04-11T12:05:12.299Z</time></trkpt><trkpt lat="44.994825" lon="8.2112533"><ele>144.8</ele><time>2026-04-11T12:05:13.298Z</time></trkpt><trkpt lat="44.9947567" lon="8.2113583"><ele>145.0</ele><time>2026-04-11T12:05:14.298Z</time></trkpt><trkpt lat="44.9946917" lon="8.211475"><ele>144.8</ele><time>2026-04-11T12:05:15.299Z</time></trkpt><trkpt lat="44.99462" lon="8.2115917"><ele>144.6</ele><time>2026-04-11T12:05:16.298Z</time></trkpt><trkpt lat="44.99455" lon="8.2117133"><ele>144.4</ele><time>2026-04-11T12:05:17.299Z</time></trkpt><trkpt lat="44.9944817" lon="8.21182"><ele>144.2</ele><time>2026-04-11T12:05:18.298Z</time></trkpt><trkpt lat="44.994405" lon="8.2119267"><ele>144.0</ele><time>2026-04-11T12:05:19.298Z</time></trkpt><trkpt lat="44.9942533" lon="8.2120933"><ele>144.0</ele><time>2026-04-11T12:05:21.299Z</time></trkpt><trkpt lat="44.9941767" lon="8.2121633"><ele>144.0</ele><time>2026-04-11T12:05:22.298Z</time></trkpt><trkpt lat="44.9941033" lon="8.21225"><ele>144.0</ele><time>2026-04-11T12:05:23.299Z</time></trkpt><trkpt lat="44.9940283" lon="8.21233"><ele>144.0</ele><time>2026-04-11T12:05:24.299Z</time></trkpt><trkpt lat="44.9939567" lon="8.212425"><ele>144.0</ele><time>2026-04-11T12:05:25.298Z</time></trkpt><trkpt lat="44.9938933" lon="8.2125117"><ele>144.0</ele><time>2026-04-11T12:05:26.298Z</time></trkpt><trkpt lat="44.993835" lon="8.21259"><ele>144.0</ele><time>2026-04-11T12:05:27.298Z</time></trkpt><trkpt lat="44.993775" lon="8.2126667"><ele>144.0</ele><time>2026-04-11T12:05:28.299Z</time></trkpt><trkpt lat="44.9937267" lon="8.2127517"><ele>144.0</ele><time>2026-04-11T12:05:29.298Z</time></trkpt><trkpt lat="44.9936683" lon="8.2128317"><ele>144.0</ele><time>2026-04-11T12:05:30.299Z</time></trkpt><trkpt lat="44.9936133" lon="8.2129117"><ele>144.0</ele><time>2026-04-11T12:05:31.298Z</time></trkpt><trkpt lat="44.9935433" lon="8.2130117"><ele>144.0</ele><time>2026-04-11T12:05:32.298Z</time></trkpt><trkpt lat="44.9934733" lon="8.2131"><ele>144.0</ele><time>2026-04-11T12:05:33.299Z</time></trkpt><trkpt lat="44.9934117" lon="8.21318"><ele>144.0</ele><time>2026-04-11T12:05:34.298Z</time></trkpt><trkpt lat="44.9933517" lon="8.2132583"><ele>144.0</ele><time>2026-04-11T12:05:35.298Z</time></trkpt><trkpt lat="44.9932867" lon="8.2133367"><ele>144.0</ele><time>2026-04-11T12:05:36.298Z</time></trkpt><trkpt lat="44.9932183" lon="8.2134233"><ele>144.0</ele><time>2026-04-11T12:05:37.298Z</time></trkpt><trkpt lat="44.9931567" lon="8.2135033"><ele>144.0</ele><time>2026-04-11T12:05:38.298Z</time></trkpt><trkpt lat="44.9930933" lon="8.2135933"><ele>144.0</ele><time>2026-04-11T12:05:39.298Z</time></trkpt><trkpt lat="44.9930267" lon="8.2136783"><ele>144.0</ele><time>2026-04-11T12:05:40.298Z</time></trkpt><trkpt lat="44.9929567" lon="8.2137483"><ele>144.0</ele><time>2026-04-11T12:05:41.298Z</time></trkpt><trkpt lat="44.992885" lon="8.2138233"><ele>144.0</ele><time>2026-04-11T12:05:42.298Z</time></trkpt><trkpt lat="44.992815" lon="8.2139083"><ele>144.0</ele><time>2026-04-11T12:05:43.298Z</time></trkpt><trkpt lat="44.9927433" lon="8.21399"><ele>143.8</ele><time>2026-04-11T12:05:44.298Z</time></trkpt><trkpt lat="44.9926783" lon="8.21408"><ele>143.60000000000002</ele><time>2026-04-11T12:05:45.298Z</time></trkpt><trkpt lat="44.9926117" lon="8.214165"><ele>143.4</ele><time>2026-04-11T12:05:46.299Z</time></trkpt><trkpt lat="44.9925383" lon="8.214245"><ele>143.20000000000002</ele><time>2026-04-11T12:05:47.298Z</time></trkpt><trkpt lat="44.9924733" lon="8.2143233"><ele>143.0</ele><time>2026-04-11T12:05:48.298Z</time></trkpt><trkpt lat="44.992405" lon="8.2144183"><ele>143.0</ele><time>2026-04-11T12:05:49.298Z</time></trkpt><trkpt lat="44.9923317" lon="8.2145117"><ele>143.0</ele><time>2026-04-11T12:05:50.299Z</time></trkpt><trkpt lat="44.99225" lon="8.2146183"><ele>143.0</ele><time>2026-04-11T12:05:51.298Z</time></trkpt><trkpt lat="44.9921617" lon="8.2147317"><ele>143.0</ele><time>2026-04-11T12:05:52.299Z</time></trkpt><trkpt lat="44.9920667" lon="8.214835"><ele>143.0</ele><time>2026-04-11T12:05:53.298Z</time></trkpt><trkpt lat="44.99197" lon="8.2149417"><ele>143.0</ele><time>2026-04-11T12:05:54.299Z</time></trkpt><trkpt lat="44.9918717" lon="8.2150433"><ele>143.0</ele><time>2026-04-11T12:05:55.299Z</time></trkpt><trkpt lat="44.991775" lon="8.2151383"><ele>143.0</ele><time>2026-04-11T12:05:56.298Z</time></trkpt><trkpt lat="44.9916867" lon="8.2152367"><ele>143.0</ele><time>2026-04-11T12:05:57.298Z</time></trkpt><trkpt lat="44.991595" lon="8.21533"><ele>143.0</ele><time>2026-04-11T12:05:58.298Z</time></trkpt><trkpt lat="44.9915167" lon="8.2154383"><ele>143.0</ele><time>2026-04-11T12:05:59.298Z</time></trkpt><trkpt lat="44.9914367" lon="8.2155633"><ele>143.0</ele><time>2026-04-11T12:06:00.298Z</time></trkpt><trkpt lat="44.99137" lon="8.2157"><ele>143.0</ele><time>2026-04-11T12:06:01.298Z</time></trkpt><trkpt lat="44.9913083" lon="8.2158383"><ele>142.75</ele><time>2026-04-11T12:06:02.298Z</time></trkpt><trkpt lat="44.9912483" lon="8.2159783"><ele>142.5</ele><time>2026-04-11T12:06:03.299Z</time></trkpt><trkpt lat="44.9911833" lon="8.216115"><ele>142.25</ele><time>2026-04-11T12:06:04.299Z</time></trkpt><trkpt lat="44.9911183" lon="8.216255"><ele>142.0</ele><time>2026-04-11T12:06:05.298Z</time></trkpt><trkpt lat="44.9910533" lon="8.2164067"><ele>141.75</ele><time>2026-04-11T12:06:06.298Z</time></trkpt><trkpt lat="44.9909767" lon="8.2165617"><ele>141.5</ele><time>2026-04-11T12:06:07.298Z</time></trkpt><trkpt lat="44.9909" lon="8.21671"><ele>141.25</ele><time>2026-04-11T12:06:08.298Z</time></trkpt><trkpt lat="44.9908217" lon="8.216865"><ele>141.0</ele><time>2026-04-11T12:06:09.298Z</time></trkpt><trkpt lat="44.99074" lon="8.2170267"><ele>141.5</ele><time>2026-04-11T12:06:10.298Z</time></trkpt><trkpt lat="44.9906567" lon="8.217175"><ele>142.0</ele><time>2026-04-11T12:06:11.299Z</time></trkpt><trkpt lat="44.9905533" lon="8.217305"><ele>142.5</ele><time>2026-04-11T12:06:12.298Z</time></trkpt><trkpt lat="44.9904417" lon="8.2174217"><ele>143.0</ele><time>2026-04-11T12:06:13.299Z</time></trkpt><trkpt lat="44.9903167" lon="8.2175083"><ele>143.0</ele><time>2026-04-11T12:06:14.299Z</time></trkpt><trkpt lat="44.9901867" lon="8.217565"><ele>143.0</ele><time>2026-04-11T12:06:15.299Z</time></trkpt><trkpt lat="44.9900533" lon="8.2176133"><ele>143.0</ele><time>2026-04-11T12:06:16.298Z</time></trkpt><trkpt lat="44.9899167" lon="8.217645"><ele>143.0</ele><time>2026-04-11T12:06:17.298Z</time></trkpt><trkpt lat="44.989775" lon="8.2176767"><ele>142.5</ele><time>2026-04-11T12:06:18.298Z</time></trkpt><trkpt lat="44.98964" lon="8.2177033"><ele>142.0</ele><time>2026-04-11T12:06:19.299Z</time></trkpt><trkpt lat="44.9895017" lon="8.2177517"><ele>141.5</ele><time>2026-04-11T12:06:20.298Z</time></trkpt><trkpt lat="44.9893733" lon="8.2178233"><ele>141.0</ele><time>2026-04-11T12:06:21.299Z</time></trkpt><trkpt lat="44.9892467" lon="8.217925"><ele>141.25</ele><time>2026-04-11T12:06:22.299Z</time></trkpt><trkpt lat="44.989125" lon="8.2180183"><ele>141.5</ele><time>2026-04-11T12:06:23.298Z</time></trkpt><trkpt lat="44.989005" lon="8.218105"><ele>141.75</ele><time>2026-04-11T12:06:24.298Z</time></trkpt><trkpt lat="44.9888883" lon="8.2182083"><ele>142.0</ele><time>2026-04-11T12:06:25.298Z</time></trkpt><trkpt lat="44.9887717" lon="8.2183033"><ele>141.5</ele><time>2026-04-11T12:06:26.298Z</time></trkpt><trkpt lat="44.9886533" lon="8.21841"><ele>141.0</ele><time>2026-04-11T12:06:27.299Z</time></trkpt><trkpt lat="44.9885467" lon="8.2185033"><ele>140.5</ele><time>2026-04-11T12:06:28.298Z</time></trkpt><trkpt lat="44.9884417" lon="8.21859"><ele>140.0</ele><time>2026-04-11T12:06:29.298Z</time></trkpt><trkpt lat="44.9883367" lon="8.218675"><ele>140.5</ele><time>2026-04-11T12:06:30.298Z</time></trkpt><trkpt lat="44.988235" lon="8.21877"><ele>141.0</ele><time>2026-04-11T12:06:31.299Z</time></trkpt><trkpt lat="44.9881283" lon="8.218865"><ele>141.5</ele><time>2026-04-11T12:06:32.298Z</time></trkpt><trkpt lat="44.988025" lon="8.2189617"><ele>142.0</ele><time>2026-04-11T12:06:33.299Z</time></trkpt><trkpt lat="44.9879217" lon="8.2190583"><ele>142.0</ele><time>2026-04-11T12:06:34.298Z</time></trkpt><trkpt lat="44.9878183" lon="8.2191567"><ele>142.0</ele><time>2026-04-11T12:06:35.298Z</time></trkpt><trkpt lat="44.9877" lon="8.2192433"><ele>142.0</ele><time>2026-04-11T12:06:36.298Z</time></trkpt><trkpt lat="44.9875883" lon="8.21933"><ele>142.0</ele><time>2026-04-11T12:06:37.298Z</time></trkpt><trkpt lat="44.9874717" lon="8.219415"><ele>142.75</ele><time>2026-04-11T12:06:38.298Z</time></trkpt><trkpt lat="44.987365" lon="8.2195"><ele>143.5</ele><time>2026-04-11T12:06:39.298Z</time></trkpt><trkpt lat="44.9872633" lon="8.2195733"><ele>144.25</ele><time>2026-04-11T12:06:40.298Z</time></trkpt><trkpt lat="44.987165" lon="8.219645"><ele>145.0</ele><time>2026-04-11T12:06:41.298Z</time></trkpt><trkpt lat="44.9870717" lon="8.2197233"><ele>145.0</ele><time>2026-04-11T12:06:42.298Z</time></trkpt><trkpt lat="44.9869733" lon="8.2197833"><ele>145.0</ele><time>2026-04-11T12:06:43.298Z</time></trkpt><trkpt lat="44.9868833" lon="8.2198417"><ele>145.0</ele><time>2026-04-11T12:06:44.298Z</time></trkpt><trkpt lat="44.9867933" lon="8.219905"><ele>145.0</ele><time>2026-04-11T12:06:45.298Z</time></trkpt><trkpt lat="44.9866983" lon="8.2199633"><ele>145.0</ele><time>2026-04-11T12:06:46.298Z</time></trkpt><trkpt lat="44.9866117" lon="8.220005"><ele>144.66666666666669</ele><time>2026-04-11T12:06:47.298Z</time></trkpt><trkpt lat="44.9865267" lon="8.2200383"><ele>144.33333333333334</ele><time>2026-04-11T12:06:48.299Z</time></trkpt><trkpt lat="44.9864583" lon="8.22007"><ele>144.0</ele><time>2026-04-11T12:06:49.299Z</time></trkpt><trkpt lat="44.98635" lon="8.2200783"><ele>143.66666666666666</ele><time>2026-04-11T12:06:51.299Z</time></trkpt><trkpt lat="44.9862717" lon="8.2201067"><ele>143.33333333333331</ele><time>2026-04-11T12:06:54.298Z</time></trkpt><trkpt lat="44.986205" lon="8.22016"><ele>143.0</ele><time>2026-04-11T12:07:08.299Z</time></trkpt><trkpt lat="44.9861367" lon="8.220215"><ele>143.0</ele><time>2026-04-11T12:07:12.298Z</time></trkpt><trkpt lat="44.9861117" lon="8.2203617"><ele>143.0</ele><time>2026-04-11T12:07:16.298Z</time></trkpt><trkpt lat="44.98613" lon="8.2204483"><ele>143.0</ele><time>2026-04-11T12:07:17.298Z</time></trkpt><trkpt lat="44.9861533" lon="8.2205617"><ele>143.0</ele><time>2026-04-11T12:07:18.299Z</time></trkpt><trkpt lat="44.9861867" lon="8.2207"><ele>143.0</ele><time>2026-04-11T12:07:19.298Z</time></trkpt><trkpt lat="44.9862267" lon="8.2208267"><ele>142.6</ele><time>2026-04-11T12:07:20.299Z</time></trkpt><trkpt lat="44.9862683" lon="8.220955"><ele>142.20000000000002</ele><time>2026-04-11T12:07:21.299Z</time></trkpt><trkpt lat="44.9863033" lon="8.2211017"><ele>141.8</ele><time>2026-04-11T12:07:22.298Z</time></trkpt><trkpt lat="44.98633" lon="8.2212617"><ele>141.4</ele><time>2026-04-11T12:07:23.299Z</time></trkpt><trkpt lat="44.9863633" lon="8.2214283"><ele>141.0</ele><time>2026-04-11T12:07:24.298Z</time></trkpt><trkpt lat="44.9864" lon="8.2215833"><ele>141.0</ele><time>2026-04-11T12:07:25.299Z</time></trkpt><trkpt lat="44.9864367" lon="8.2217417"><ele>141.0</ele><time>2026-04-11T12:07:26.298Z</time></trkpt><trkpt lat="44.9864717" lon="8.221895"><ele>141.0</ele><time>2026-04-11T12:07:27.298Z</time></trkpt><trkpt lat="44.9865117" lon="8.2220583"><ele>141.0</ele><time>2026-04-11T12:07:28.299Z</time></trkpt><trkpt lat="44.98656" lon="8.2222017"><ele>141.0</ele><time>2026-04-11T12:07:29.298Z</time></trkpt><trkpt lat="44.9865917" lon="8.2223533"><ele>141.0</ele><time>2026-04-11T12:07:30.298Z</time></trkpt><trkpt lat="44.986625" lon="8.2225067"><ele>141.0</ele><time>2026-04-11T12:07:31.298Z</time></trkpt><trkpt lat="44.9866717" lon="8.2226517"><ele>141.0</ele><time>2026-04-11T12:07:32.298Z</time></trkpt><trkpt lat="44.9867083" lon="8.2227967"><ele>141.0</ele><time>2026-04-11T12:07:33.298Z</time></trkpt><trkpt lat="44.9867383" lon="8.2229517"><ele>140.8</ele><time>2026-04-11T12:07:34.298Z</time></trkpt><trkpt lat="44.98678" lon="8.22309"><ele>140.6</ele><time>2026-04-11T12:07:35.299Z</time></trkpt><trkpt lat="44.9868233" lon="8.22322"><ele>140.4</ele><time>2026-04-11T12:07:36.299Z</time></trkpt><trkpt lat="44.98686" lon="8.2233483"><ele>140.2</ele><time>2026-04-11T12:07:37.299Z</time></trkpt><trkpt lat="44.98689" lon="8.2234767"><ele>140.0</ele><time>2026-04-11T12:07:38.299Z</time></trkpt><trkpt lat="44.9869217" lon="8.2235967"><ele>140.0</ele><time>2026-04-11T12:07:39.299Z</time></trkpt><trkpt lat="44.98695" lon="8.2237033"><ele>140.0</ele><time>2026-04-11T12:07:40.298Z</time></trkpt><trkpt lat="44.986995" lon="8.2238333"><ele>140.0</ele><time>2026-04-11T12:07:42.299Z</time></trkpt><trkpt lat="44.9870133" lon="8.2239217"><ele>140.0</ele><time>2026-04-11T12:07:45.298Z</time></trkpt><trkpt lat="44.987045" lon="8.2240233"><ele>140.0</ele><time>2026-04-11T12:07:50.298Z</time></trkpt><trkpt lat="44.9871067" lon="8.224095"><ele>140.0</ele><time>2026-04-11T12:07:54.298Z</time></trkpt><trkpt lat="44.9872267" lon="8.2240683"><ele>140.2</ele><time>2026-04-11T12:07:56.297Z</time></trkpt><trkpt lat="44.9873067" lon="8.2240567"><ele>140.4</ele><time>2026-04-11T12:07:57.297Z</time></trkpt><trkpt lat="44.9873883" lon="8.224025"><ele>140.6</ele><time>2026-04-11T12:07:58.297Z</time></trkpt><trkpt lat="44.987485" lon="8.2240067"><ele>140.8</ele><time>2026-04-11T12:07:59.298Z</time></trkpt><trkpt lat="44.9875917" lon="8.22402"><ele>141.0</ele><time>2026-04-11T12:08:00.297Z</time></trkpt><trkpt lat="44.987705" lon="8.2240383"><ele>141.2</ele><time>2026-04-11T12:08:01.297Z</time></trkpt><trkpt lat="44.9878067" lon="8.224055"><ele>141.39999999999998</ele><time>2026-04-11T12:08:02.297Z</time></trkpt><trkpt lat="44.98791" lon="8.2240667"><ele>141.6</ele><time>2026-04-11T12:08:03.297Z</time></trkpt><trkpt lat="44.9880017" lon="8.224085"><ele>141.79999999999998</ele><time>2026-04-11T12:08:04.297Z</time></trkpt><trkpt lat="44.9881083" lon="8.2241133"><ele>142.0</ele><time>2026-04-11T12:08:05.297Z</time></trkpt><trkpt lat="44.9882117" lon="8.2241617"><ele>142.0</ele><time>2026-04-11T12:08:06.297Z</time></trkpt><trkpt lat="44.9883117" lon="8.22422"><ele>142.0</ele><time>2026-04-11T12:08:07.297Z</time></trkpt><trkpt lat="44.9884067" lon="8.224285"><ele>142.0</ele><time>2026-04-11T12:08:08.297Z</time></trkpt><trkpt lat="44.9885067" lon="8.22437"><ele>142.0</ele><time>2026-04-11T12:08:09.297Z</time></trkpt><trkpt lat="44.9886" lon="8.2244533"><ele>142.0</ele><time>2026-04-11T12:08:10.298Z</time></trkpt><trkpt lat="44.98869" lon="8.224515"><ele>141.5</ele><time>2026-04-11T12:08:11.297Z</time></trkpt><trkpt lat="44.9887683" lon="8.224585"><ele>141.0</ele><time>2026-04-11T12:08:12.297Z</time></trkpt><trkpt lat="44.988845" lon="8.22466"><ele>140.5</ele><time>2026-04-11T12:08:13.297Z</time></trkpt><trkpt lat="44.9889067" lon="8.2247333"><ele>140.0</ele><time>2026-04-11T12:08:14.297Z</time></trkpt><trkpt lat="44.98896" lon="8.2248"><ele>139.5</ele><time>2026-04-11T12:08:15.297Z</time></trkpt><trkpt lat="44.98904" lon="8.2249067"><ele>139.0</ele><time>2026-04-11T12:08:17.298Z</time></trkpt><trkpt lat="44.98908" lon="8.2249833"><ele>139.0</ele><time>2026-04-11T12:08:19.297Z</time></trkpt><trkpt lat="44.9890117" lon="8.22509"><ele>139.0</ele><time>2026-04-11T12:08:22.297Z</time></trkpt><trkpt lat="44.98893" lon="8.2252"><ele>139.0</ele><time>2026-04-11T12:08:24.297Z</time></trkpt><trkpt lat="44.9888833" lon="8.2252733"><ele>139.0</ele><time>2026-04-11T12:08:25.297Z</time></trkpt><trkpt lat="44.9888367" lon="8.225385"><ele>139.0</ele><time>2026-04-11T12:08:26.297Z</time></trkpt><trkpt lat="44.9887817" lon="8.225505"><ele>139.0</ele><time>2026-04-11T12:08:27.297Z</time></trkpt><trkpt lat="44.9887117" lon="8.225635"><ele>139.0</ele><time>2026-04-11T12:08:28.297Z</time></trkpt><trkpt lat="44.9886383" lon="8.2257683"><ele>139.0</ele><time>2026-04-11T12:08:29.297Z</time></trkpt><trkpt lat="44.9885717" lon="8.22591"><ele>139.0</ele><time>2026-04-11T12:08:30.297Z</time></trkpt><trkpt lat="44.9885033" lon="8.2260683"><ele>139.0</ele><time>2026-04-11T12:08:31.297Z</time></trkpt><trkpt lat="44.988435" lon="8.226225"><ele>139.0</ele><time>2026-04-11T12:08:32.298Z</time></trkpt><trkpt lat="44.9883683" lon="8.2263833"><ele>139.0</ele><time>2026-04-11T12:08:33.297Z</time></trkpt><trkpt lat="44.988305" lon="8.2265417"><ele>139.0</ele><time>2026-04-11T12:08:34.297Z</time></trkpt><trkpt lat="44.9882367" lon="8.2266983"><ele>139.25</ele><time>2026-04-11T12:08:35.297Z</time></trkpt><trkpt lat="44.9881667" lon="8.2268617"><ele>139.5</ele><time>2026-04-11T12:08:36.297Z</time></trkpt><trkpt lat="44.9880933" lon="8.2270233"><ele>139.75</ele><time>2026-04-11T12:08:37.297Z</time></trkpt><trkpt lat="44.98802" lon="8.227185"><ele>140.0</ele><time>2026-04-11T12:08:38.297Z</time></trkpt><trkpt lat="44.9879467" lon="8.2273417"><ele>141.25</ele><time>2026-04-11T12:08:39.297Z</time></trkpt><trkpt lat="44.98787" lon="8.2274967"><ele>142.5</ele><time>2026-04-11T12:08:40.298Z</time></trkpt><trkpt lat="44.9878017" lon="8.22765"><ele>143.75</ele><time>2026-04-11T12:08:41.297Z</time></trkpt><trkpt lat="44.98773" lon="8.227815"><ele>145.0</ele><time>2026-04-11T12:08:42.297Z</time></trkpt><trkpt lat="44.987655" lon="8.227975"><ele>145.0</ele><time>2026-04-11T12:08:43.298Z</time></trkpt><trkpt lat="44.987585" lon="8.228135"><ele>145.0</ele><time>2026-04-11T12:08:44.297Z</time></trkpt><trkpt lat="44.9875067" lon="8.2283033"><ele>145.0</ele><time>2026-04-11T12:08:45.298Z</time></trkpt><trkpt lat="44.9874183" lon="8.2284683"><ele>145.0</ele><time>2026-04-11T12:08:46.297Z</time></trkpt><trkpt lat="44.9873367" lon="8.2286117"><ele>144.5</ele><time>2026-04-11T12:08:47.298Z</time></trkpt><trkpt lat="44.9872367" lon="8.2287433"><ele>144.0</ele><time>2026-04-11T12:08:48.297Z</time></trkpt><trkpt lat="44.9871283" lon="8.2288633"><ele>143.5</ele><time>2026-04-11T12:08:49.298Z</time></trkpt><trkpt lat="44.9870117" lon="8.2289817"><ele>143.0</ele><time>2026-04-11T12:08:50.297Z</time></trkpt><trkpt lat="44.986885" lon="8.2290833"><ele>142.33333333333331</ele><time>2026-04-11T12:08:51.297Z</time></trkpt><trkpt lat="44.986765" lon="8.229165"><ele>141.66666666666666</ele><time>2026-04-11T12:08:52.298Z</time></trkpt><trkpt lat="44.9866383" lon="8.2292367"><ele>141.0</ele><time>2026-04-11T12:08:53.297Z</time></trkpt><trkpt lat="44.986375" lon="8.2293883"><ele>141.0</ele><time>2026-04-11T12:08:55.297Z</time></trkpt><trkpt lat="44.9861367" lon="8.22952"><ele>141.0</ele><time>2026-04-11T12:08:57.298Z</time></trkpt><trkpt lat="44.98603" lon="8.2295317"><ele>141.0</ele><time>2026-04-11T12:08:58.297Z</time></trkpt><trkpt lat="44.98593" lon="8.2295467"><ele>141.8</ele><time>2026-04-11T12:08:59.297Z</time></trkpt><trkpt lat="44.98584" lon="8.2295717"><ele>142.6</ele><time>2026-04-11T12:09:00.297Z</time></trkpt><trkpt lat="44.98575" lon="8.2296333"><ele>143.4</ele><time>2026-04-11T12:09:01.297Z</time></trkpt><trkpt lat="44.985665" lon="8.229735"><ele>144.2</ele><time>2026-04-11T12:09:02.298Z</time></trkpt><trkpt lat="44.985585" lon="8.2298617"><ele>145.0</ele><time>2026-04-11T12:09:03.297Z</time></trkpt><trkpt lat="44.9855167" lon="8.2299933"><ele>146.5</ele><time>2026-04-11T12:09:04.297Z</time></trkpt><trkpt lat="44.9854517" lon="8.2301367"><ele>148.0</ele><time>2026-04-11T12:09:05.298Z</time></trkpt><trkpt lat="44.98538" lon="8.23028"><ele>149.5</ele><time>2026-04-11T12:09:06.297Z</time></trkpt><trkpt lat="44.9853033" lon="8.23043"><ele>151.0</ele><time>2026-04-11T12:09:07.297Z</time></trkpt><trkpt lat="44.9852417" lon="8.2305617"><ele>152.25</ele><time>2026-04-11T12:09:08.298Z</time></trkpt><trkpt lat="44.9851717" lon="8.2307017"><ele>153.5</ele><time>2026-04-11T12:09:09.297Z</time></trkpt><trkpt lat="44.9851" lon="8.2308383"><ele>154.75</ele><time>2026-04-11T12:09:10.297Z</time></trkpt><trkpt lat="44.985035" lon="8.2309917"><ele>156.0</ele><time>2026-04-11T12:09:11.297Z</time></trkpt><trkpt lat="44.9849783" lon="8.2311567"><ele>156.25</ele><time>2026-04-11T12:09:12.297Z</time></trkpt><trkpt lat="44.984925" lon="8.2313233"><ele>156.5</ele><time>2026-04-11T12:09:13.298Z</time></trkpt><trkpt lat="44.9848717" lon="8.2314917"><ele>156.75</ele><time>2026-04-11T12:09:14.297Z</time></trkpt><trkpt lat="44.9848183" lon="8.23167"><ele>157.0</ele><time>2026-04-11T12:09:15.297Z</time></trkpt><trkpt lat="44.9847617" lon="8.23185"><ele>158.25</ele><time>2026-04-11T12:09:16.298Z</time></trkpt><trkpt lat="44.98471" lon="8.2320367"><ele>159.5</ele><time>2026-04-11T12:09:17.297Z</time></trkpt><trkpt lat="44.9846517" lon="8.2322233"><ele>160.75</ele><time>2026-04-11T12:09:18.298Z</time></trkpt><trkpt lat="44.98459" lon="8.232395"><ele>162.0</ele><time>2026-04-11T12:09:19.297Z</time></trkpt><trkpt lat="44.98451" lon="8.2325583"><ele>163.5</ele><time>2026-04-11T12:09:20.297Z</time></trkpt><trkpt lat="44.9844217" lon="8.2326883"><ele>165.0</ele><time>2026-04-11T12:09:21.297Z</time></trkpt><trkpt lat="44.9843433" lon="8.2328133"><ele>166.5</ele><time>2026-04-11T12:09:22.297Z</time></trkpt><trkpt lat="44.9842683" lon="8.2329317"><ele>168.0</ele><time>2026-04-11T12:09:23.297Z</time></trkpt><trkpt lat="44.9842067" lon="8.233035"><ele>168.16666666666666</ele><time>2026-04-11T12:09:24.298Z</time></trkpt><trkpt lat="44.984155" lon="8.2331333"><ele>168.33333333333334</ele><time>2026-04-11T12:09:25.298Z</time></trkpt><trkpt lat="44.984115" lon="8.23323"><ele>168.5</ele><time>2026-04-11T12:09:26.297Z</time></trkpt><trkpt lat="44.9840833" lon="8.2333217"><ele>168.66666666666669</ele><time>2026-04-11T12:09:27.297Z</time></trkpt><trkpt lat="44.9840567" lon="8.23346"><ele>168.83333333333334</ele><time>2026-04-11T12:09:29.297Z</time></trkpt><trkpt lat="44.9840483" lon="8.23356"><ele>169.0</ele><time>2026-04-11T12:09:31.298Z</time></trkpt><trkpt lat="44.984055" lon="8.2336883"><ele>169.0</ele><time>2026-04-11T12:09:33.297Z</time></trkpt><trkpt lat="44.9841233" lon="8.2338167"><ele>169.0</ele><time>2026-04-11T12:09:35.297Z</time></trkpt><trkpt lat="44.9841783" lon="8.2338667"><ele>169.0</ele><time>2026-04-11T12:09:36.297Z</time></trkpt><trkpt lat="44.9842333" lon="8.2339183"><ele>169.0</ele><time>2026-04-11T12:09:37.297Z</time></trkpt><trkpt lat="44.9842917" lon="8.23398"><ele>169.0</ele><time>2026-04-11T12:09:38.297Z</time></trkpt><trkpt lat="44.9843467" lon="8.2340417"><ele>169.0</ele><time>2026-04-11T12:09:39.297Z</time></trkpt><trkpt lat="44.98446" lon="8.2341783"><ele>171.6</ele><time>2026-04-11T12:09:41.297Z</time></trkpt><trkpt lat="44.9845083" lon="8.23425"><ele>174.2</ele><time>2026-04-11T12:09:42.297Z</time></trkpt><trkpt lat="44.9845967" lon="8.2343517"><ele>176.79999999999998</ele><time>2026-04-11T12:09:44.297Z</time></trkpt><trkpt lat="44.98466" lon="8.2344517"><ele>179.39999999999998</ele><time>2026-04-11T12:09:46.297Z</time></trkpt><trkpt lat="44.9847417" lon="8.2345483"><ele>182.0</ele><time>2026-04-11T12:09:48.298Z</time></trkpt><trkpt lat="44.984845" lon="8.2346517"><ele>182.0</ele><time>2026-04-11T12:09:50.297Z</time></trkpt><trkpt lat="44.9849017" lon="8.2347133"><ele>182.0</ele><time>2026-04-11T12:09:51.297Z</time></trkpt><trkpt lat="44.9849533" lon="8.2347883"><ele>182.0</ele><time>2026-04-11T12:09:52.297Z</time></trkpt><trkpt lat="44.9850083" lon="8.2348567"><ele>182.0</ele><time>2026-04-11T12:09:53.298Z</time></trkpt><trkpt lat="44.9850633" lon="8.234935"><ele>182.0</ele><time>2026-04-11T12:09:54.297Z</time></trkpt><trkpt lat="44.9851267" lon="8.235005"><ele>182.0</ele><time>2026-04-11T12:09:55.297Z</time></trkpt><trkpt lat="44.9851883" lon="8.2350683"><ele>182.16666666666666</ele><time>2026-04-11T12:09:56.297Z</time></trkpt><trkpt lat="44.985255" lon="8.2351383"><ele>182.33333333333331</ele><time>2026-04-11T12:09:57.297Z</time></trkpt><trkpt lat="44.9853333" lon="8.23521"><ele>182.5</ele><time>2026-04-11T12:09:58.298Z</time></trkpt><trkpt lat="44.9854083" lon="8.2352933"><ele>182.66666666666666</ele><time>2026-04-11T12:09:59.297Z</time></trkpt><trkpt lat="44.98548" lon="8.2353667"><ele>182.83333333333334</ele><time>2026-04-11T12:10:00.297Z</time></trkpt><trkpt lat="44.9855433" lon="8.23545"><ele>183.0</ele><time>2026-04-11T12:10:01.298Z</time></trkpt><trkpt lat="44.9855967" lon="8.2355383"><ele>183.0</ele><time>2026-04-11T12:10:02.298Z</time></trkpt><trkpt lat="44.98565" lon="8.2356183"><ele>183.0</ele><time>2026-04-11T12:10:03.297Z</time></trkpt><trkpt lat="44.9856833" lon="8.235695"><ele>183.0</ele><time>2026-04-11T12:10:04.297Z</time></trkpt><trkpt lat="44.9857" lon="8.235785"><ele>183.0</ele><time>2026-04-11T12:10:06.297Z</time></trkpt><trkpt lat="44.9857167" lon="8.23588"><ele>183.0</ele><time>2026-04-11T12:10:09.298Z</time></trkpt><trkpt lat="44.9857133" lon="8.23599"><ele>183.0</ele><time>2026-04-11T12:10:12.297Z</time></trkpt><trkpt lat="44.98569" lon="8.2360833"><ele>183.0</ele><time>2026-04-11T12:10:14.298Z</time></trkpt><trkpt lat="44.98566" lon="8.23619"><ele>183.83333333333334</ele><time>2026-04-11T12:10:16.297Z</time></trkpt><trkpt lat="44.9856067" lon="8.2363383"><ele>184.66666666666666</ele><time>2026-04-11T12:10:18.297Z</time></trkpt><trkpt lat="44.9855733" lon="8.23642"><ele>185.5</ele><time>2026-04-11T12:10:19.298Z</time></trkpt><trkpt lat="44.98554" lon="8.2365067"><ele>186.33333333333331</ele><time>2026-04-11T12:10:20.298Z</time></trkpt><trkpt lat="44.985505" lon="8.2365983"><ele>187.16666666666666</ele><time>2026-04-11T12:10:21.297Z</time></trkpt><trkpt lat="44.98547" lon="8.2366967"><ele>188.0</ele><time>2026-04-11T12:10:22.297Z</time></trkpt><trkpt lat="44.9854317" lon="8.2367983"><ele>188.0</ele><time>2026-04-11T12:10:23.297Z</time></trkpt><trkpt lat="44.985405" lon="8.2368833"><ele>188.0</ele><time>2026-04-11T12:10:24.297Z</time></trkpt><trkpt lat="44.9853833" lon="8.23698"><ele>188.0</ele><time>2026-04-11T12:10:25.298Z</time></trkpt><trkpt lat="44.9853667" lon="8.2370817"><ele>188.0</ele><time>2026-04-11T12:10:26.298Z</time></trkpt><trkpt lat="44.9853517" lon="8.2371817"><ele>188.0</ele><time>2026-04-11T12:10:27.297Z</time></trkpt><trkpt lat="44.9853383" lon="8.237275"><ele>188.0</ele><time>2026-04-11T12:10:28.297Z</time></trkpt><trkpt lat="44.985335" lon="8.2373817"><ele>188.0</ele><time>2026-04-11T12:10:29.297Z</time></trkpt><trkpt lat="44.9853317" lon="8.2374883"><ele>187.57142857142856</ele><time>2026-04-11T12:10:30.297Z</time></trkpt><trkpt lat="44.98533" lon="8.2375833"><ele>187.14285714285714</ele><time>2026-04-11T12:10:31.298Z</time></trkpt><trkpt lat="44.9853267" lon="8.23769"><ele>186.71428571428572</ele><time>2026-04-11T12:10:32.297Z</time></trkpt><trkpt lat="44.985325" lon="8.2377983"><ele>186.28571428571428</ele><time>2026-04-11T12:10:33.297Z</time></trkpt><trkpt lat="44.9853233" lon="8.2379067"><ele>185.85714285714286</ele><time>2026-04-11T12:10:34.297Z</time></trkpt><trkpt lat="44.985325" lon="8.2380067"><ele>185.42857142857142</ele><time>2026-04-11T12:10:35.298Z</time></trkpt><trkpt lat="44.9853283" lon="8.2381067"><ele>185.0</ele><time>2026-04-11T12:10:36.298Z</time></trkpt><trkpt lat="44.98533" lon="8.2382167"><ele>184.5</ele><time>2026-04-11T12:10:37.297Z</time></trkpt><trkpt lat="44.985345" lon="8.2383133"><ele>184.0</ele><time>2026-04-11T12:10:38.297Z</time></trkpt><trkpt lat="44.985365" lon="8.2384167"><ele>183.5</ele><time>2026-04-11T12:10:39.297Z</time></trkpt><trkpt lat="44.9853717" lon="8.2385267"><ele>183.0</ele><time>2026-04-11T12:10:40.297Z</time></trkpt><trkpt lat="44.9853833" lon="8.2386367"><ele>182.5</ele><time>2026-04-11T12:10:41.297Z</time></trkpt><trkpt lat="44.9853933" lon="8.238755"><ele>182.0</ele><time>2026-04-11T12:10:42.297Z</time></trkpt><trkpt lat="44.9854117" lon="8.2388683"><ele>182.66666666666666</ele><time>2026-04-11T12:10:43.297Z</time></trkpt><trkpt lat="44.9854283" lon="8.2389717"><ele>183.33333333333331</ele><time>2026-04-11T12:10:44.297Z</time></trkpt><trkpt lat="44.9854417" lon="8.2390767"><ele>184.0</ele><time>2026-04-11T12:10:45.297Z</time></trkpt><trkpt lat="44.985455" lon="8.2391817"><ele>184.66666666666666</ele><time>2026-04-11T12:10:46.298Z</time></trkpt><trkpt lat="44.985475" lon="8.2392883"><ele>185.33333333333334</ele><time>2026-04-11T12:10:47.297Z</time></trkpt><trkpt lat="44.9854917" lon="8.2394"><ele>186.0</ele><time>2026-04-11T12:10:48.297Z</time></trkpt><trkpt lat="44.9855067" lon="8.2395167"><ele>186.0</ele><time>2026-04-11T12:10:49.297Z</time></trkpt><trkpt lat="44.9855217" lon="8.23963"><ele>186.0</ele><time>2026-04-11T12:10:50.297Z</time></trkpt><trkpt lat="44.9855317" lon="8.2397433"><ele>186.0</ele><time>2026-04-11T12:10:51.298Z</time></trkpt><trkpt lat="44.9855533" lon="8.2398533"><ele>186.0</ele><time>2026-04-11T12:10:52.297Z</time></trkpt><trkpt lat="44.98557" lon="8.2399633"><ele>186.0</ele><time>2026-04-11T12:10:53.297Z</time></trkpt><trkpt lat="44.9856017" lon="8.2400767"><ele>186.0</ele><time>2026-04-11T12:10:54.297Z</time></trkpt><trkpt lat="44.9856267" lon="8.2401817"><ele>186.85714285714286</ele><time>2026-04-11T12:10:55.297Z</time></trkpt><trkpt lat="44.98565" lon="8.2402817"><ele>187.71428571428572</ele><time>2026-04-11T12:10:56.297Z</time></trkpt><trkpt lat="44.9856867" lon="8.24038"><ele>188.57142857142856</ele><time>2026-04-11T12:10:57.297Z</time></trkpt><trkpt lat="44.985715" lon="8.240475"><ele>189.42857142857144</ele><time>2026-04-11T12:10:58.297Z</time></trkpt><trkpt lat="44.98574" lon="8.2405717"><ele>190.28571428571428</ele><time>2026-04-11T12:10:59.297Z</time></trkpt><trkpt lat="44.9857583" lon="8.240665"><ele>191.14285714285714</ele><time>2026-04-11T12:11:00.297Z</time></trkpt><trkpt lat="44.9857767" lon="8.2407517"><ele>192.0</ele><time>2026-04-11T12:11:01.297Z</time></trkpt><trkpt lat="44.9857883" lon="8.2409"><ele>192.2</ele><time>2026-04-11T12:11:03.297Z</time></trkpt><trkpt lat="44.9857267" lon="8.2409717"><ele>192.39999999999998</ele><time>2026-04-11T12:11:05.297Z</time></trkpt><trkpt lat="44.9856417" lon="8.2409717"><ele>192.60000000000002</ele><time>2026-04-11T12:11:07.297Z</time></trkpt><trkpt lat="44.9856983" lon="8.241045"><ele>192.8</ele><time>2026-04-11T12:11:17.297Z</time></trkpt><trkpt lat="44.9858117" lon="8.2410933"><ele>193.0</ele><time>2026-04-11T12:11:18.298Z</time></trkpt><trkpt lat="44.9859367" lon="8.2411617"><ele>193.0</ele><time>2026-04-11T12:11:19.297Z</time></trkpt><trkpt lat="44.9860667" lon="8.2412433"><ele>193.0</ele><time>2026-04-11T12:11:20.297Z</time></trkpt><trkpt lat="44.9861967" lon="8.2413217"><ele>193.0</ele><time>2026-04-11T12:11:21.297Z</time></trkpt><trkpt lat="44.9863317" lon="8.241405"><ele>193.0</ele><time>2026-04-11T12:11:22.298Z</time></trkpt><trkpt lat="44.98662" lon="8.2416017"><ele>197.33333333333331</ele><time>2026-04-11T12:11:24.297Z</time></trkpt><trkpt lat="44.9867567" lon="8.2416867"><ele>201.66666666666669</ele><time>2026-04-11T12:11:25.298Z</time></trkpt><trkpt lat="44.9869067" lon="8.2417467"><ele>206.0</ele><time>2026-04-11T12:11:26.297Z</time></trkpt><trkpt lat="44.987065" lon="8.2417883"><ele>206.0</ele><time>2026-04-11T12:11:27.297Z</time></trkpt><trkpt lat="44.987235" lon="8.2418033"><ele>206.0</ele><time>2026-04-11T12:11:28.298Z</time></trkpt><trkpt lat="44.9874083" lon="8.24181"><ele>206.0</ele><time>2026-04-11T12:11:29.297Z</time></trkpt><trkpt lat="44.9875733" lon="8.24181"><ele>206.75</ele><time>2026-04-11T12:11:30.297Z</time></trkpt><trkpt lat="44.9877167" lon="8.2418167"><ele>207.5</ele><time>2026-04-11T12:11:31.297Z</time></trkpt><trkpt lat="44.9878383" lon="8.2418283"><ele>208.25</ele><time>2026-04-11T12:11:32.297Z</time></trkpt><trkpt lat="44.98796" lon="8.2418617"><ele>209.0</ele><time>2026-04-11T12:11:33.298Z</time></trkpt><trkpt lat="44.988175" lon="8.24195"><ele>209.0</ele><time>2026-04-11T12:11:35.297Z</time></trkpt><trkpt lat="44.98827" lon="8.2420067"><ele>209.0</ele><time>2026-04-11T12:11:36.297Z</time></trkpt><trkpt lat="44.988365" lon="8.2420983"><ele>209.0</ele><time>2026-04-11T12:11:37.298Z</time></trkpt><trkpt lat="44.9884633" lon="8.242205"><ele>209.0</ele><time>2026-04-11T12:11:38.298Z</time></trkpt><trkpt lat="44.988555" lon="8.2423417"><ele>208.25</ele><time>2026-04-11T12:11:39.297Z</time></trkpt><trkpt lat="44.988645" lon="8.2424867"><ele>207.5</ele><time>2026-04-11T12:11:40.297Z</time></trkpt><trkpt lat="44.9887217" lon="8.2426517"><ele>206.75</ele><time>2026-04-11T12:11:41.297Z</time></trkpt><trkpt lat="44.9887983" lon="8.2428183"><ele>206.0</ele><time>2026-04-11T12:11:42.297Z</time></trkpt><trkpt lat="44.9888833" lon="8.2429817"><ele>206.0</ele><time>2026-04-11T12:11:43.297Z</time></trkpt><trkpt lat="44.9889617" lon="8.24313"><ele>206.0</ele><time>2026-04-11T12:11:44.297Z</time></trkpt><trkpt lat="44.9890417" lon="8.2432867"><ele>206.0</ele><time>2026-04-11T12:11:45.297Z</time></trkpt><trkpt lat="44.98913" lon="8.243435"><ele>206.0</ele><time>2026-04-11T12:11:46.298Z</time></trkpt><trkpt lat="44.9892167" lon="8.2435833"><ele>205.25</ele><time>2026-04-11T12:11:47.297Z</time></trkpt><trkpt lat="44.9893117" lon="8.2437367"><ele>204.5</ele><time>2026-04-11T12:11:48.297Z</time></trkpt><trkpt lat="44.9894133" lon="8.2438933"><ele>203.75</ele><time>2026-04-11T12:11:49.297Z</time></trkpt><trkpt lat="44.9895317" lon="8.2440333"><ele>203.0</ele><time>2026-04-11T12:11:50.297Z</time></trkpt><trkpt lat="44.9896567" lon="8.2441467"><ele>205.0</ele><time>2026-04-11T12:11:51.297Z</time></trkpt><trkpt lat="44.9897867" lon="8.244245"><ele>207.0</ele><time>2026-04-11T12:11:52.296Z</time></trkpt><trkpt lat="44.9899183" lon="8.2443367"><ele>209.0</ele><time>2026-04-11T12:11:53.296Z</time></trkpt><trkpt lat="44.9900433" lon="8.2444"><ele>211.0</ele><time>2026-04-11T12:11:54.297Z</time></trkpt><trkpt lat="44.9901717" lon="8.2444417"><ele>211.20000000000002</ele><time>2026-04-11T12:11:55.296Z</time></trkpt><trkpt lat="44.9902917" lon="8.244475"><ele>211.4</ele><time>2026-04-11T12:11:56.296Z</time></trkpt><trkpt lat="44.9904017" lon="8.2445067"><ele>211.6</ele><time>2026-04-11T12:11:57.296Z</time></trkpt><trkpt lat="44.9905017" lon="8.2445383"><ele>211.8</ele><time>2026-04-11T12:11:58.297Z</time></trkpt><trkpt lat="44.9905933" lon="8.2445667"><ele>212.0</ele><time>2026-04-11T12:11:59.296Z</time></trkpt><trkpt lat="44.990675" lon="8.2445783"><ele>212.0</ele><time>2026-04-11T12:12:00.296Z</time></trkpt><trkpt lat="44.9907533" lon="8.2445817"><ele>212.0</ele><time>2026-04-11T12:12:01.296Z</time></trkpt><trkpt lat="44.9908367" lon="8.2445783"><ele>212.0</ele><time>2026-04-11T12:12:02.296Z</time></trkpt><trkpt lat="44.990925" lon="8.2445767"><ele>212.0</ele><time>2026-04-11T12:12:03.296Z</time></trkpt><trkpt lat="44.9910283" lon="8.2445717"><ele>212.0</ele><time>2026-04-11T12:12:04.296Z</time></trkpt><trkpt lat="44.991135" lon="8.2445583"><ele>213.25</ele><time>2026-04-11T12:12:05.296Z</time></trkpt><trkpt lat="44.9912517" lon="8.2445233"><ele>214.5</ele><time>2026-04-11T12:12:06.296Z</time></trkpt><trkpt lat="44.9913683" lon="8.2444633"><ele>215.75</ele><time>2026-04-11T12:12:07.296Z</time></trkpt><trkpt lat="44.99148" lon="8.2444017"><ele>217.0</ele><time>2026-04-11T12:12:08.296Z</time></trkpt><trkpt lat="44.9915817" lon="8.2443483"><ele>218.39999999999998</ele><time>2026-04-11T12:12:09.296Z</time></trkpt><trkpt lat="44.9916833" lon="8.244315"><ele>219.79999999999998</ele><time>2026-04-11T12:12:10.296Z</time></trkpt><trkpt lat="44.9917833" lon="8.2443067"><ele>221.2</ele><time>2026-04-11T12:12:11.296Z</time></trkpt><trkpt lat="44.99189" lon="8.2443283"><ele>222.6</ele><time>2026-04-11T12:12:12.296Z</time></trkpt><trkpt lat="44.9919983" lon="8.2443717"><ele>224.0</ele><time>2026-04-11T12:12:13.296Z</time></trkpt><trkpt lat="44.99211" lon="8.2444333"><ele>224.0</ele><time>2026-04-11T12:12:14.297Z</time></trkpt><trkpt lat="44.9922133" lon="8.2444983"><ele>223.99999999999997</ele><time>2026-04-11T12:12:15.296Z</time></trkpt><trkpt lat="44.99231" lon="8.2445617"><ele>223.99999999999997</ele><time>2026-04-11T12:12:16.296Z</time></trkpt><trkpt lat="44.9924" lon="8.2446217"><ele>224.0</ele><time>2026-04-11T12:12:17.297Z</time></trkpt><trkpt lat="44.9924833" lon="8.2446783"><ele>224.0</ele><time>2026-04-11T12:12:18.297Z</time></trkpt><trkpt lat="44.992565" lon="8.2447317"><ele>222.6</ele><time>2026-04-11T12:12:19.296Z</time></trkpt><trkpt lat="44.9926533" lon="8.2447883"><ele>221.2</ele><time>2026-04-11T12:12:20.296Z</time></trkpt><trkpt lat="44.99274" lon="8.2448517"><ele>219.79999999999998</ele><time>2026-04-11T12:12:21.297Z</time></trkpt><trkpt lat="44.9928267" lon="8.24491"><ele>218.39999999999998</ele><time>2026-04-11T12:12:22.296Z</time></trkpt><trkpt lat="44.9929117" lon="8.2449767"><ele>217.0</ele><time>2026-04-11T12:12:23.296Z</time></trkpt><trkpt lat="44.992995" lon="8.2450583"><ele>217.0</ele><time>2026-04-11T12:12:24.296Z</time></trkpt><trkpt lat="44.99307" lon="8.245165"><ele>217.0</ele><time>2026-04-11T12:12:25.297Z</time></trkpt><trkpt lat="44.9932267" lon="8.24538"><ele>217.0</ele><time>2026-04-11T12:12:27.296Z</time></trkpt><trkpt lat="44.9933" lon="8.245515"><ele>217.0</ele><time>2026-04-11T12:12:28.296Z</time></trkpt><trkpt lat="44.9933783" lon="8.24564"><ele>216.5</ele><time>2026-04-11T12:12:29.296Z</time></trkpt><trkpt lat="44.993455" lon="8.2457583"><ele>216.0</ele><time>2026-04-11T12:12:30.296Z</time></trkpt><trkpt lat="44.9935383" lon="8.24588"><ele>215.5</ele><time>2026-04-11T12:12:31.296Z</time></trkpt><trkpt lat="44.9936233" lon="8.2459917"><ele>215.0</ele><time>2026-04-11T12:12:32.296Z</time></trkpt><trkpt lat="44.9936967" lon="8.246125"><ele>215.0</ele><time>2026-04-11T12:12:33.296Z</time></trkpt><trkpt lat="44.9937583" lon="8.2462767"><ele>215.0</ele><time>2026-04-11T12:12:34.296Z</time></trkpt><trkpt lat="44.9938083" lon="8.2464217"><ele>215.0</ele><time>2026-04-11T12:12:35.297Z</time></trkpt><trkpt lat="44.993855" lon="8.2465583"><ele>215.0</ele><time>2026-04-11T12:12:36.297Z</time></trkpt><trkpt lat="44.9938983" lon="8.2466783"><ele>215.0</ele><time>2026-04-11T12:12:37.297Z</time></trkpt><trkpt lat="44.9939433" lon="8.2467983"><ele>215.6</ele><time>2026-04-11T12:12:38.296Z</time></trkpt><trkpt lat="44.99399" lon="8.2469117"><ele>216.2</ele><time>2026-04-11T12:12:39.297Z</time></trkpt><trkpt lat="44.9940317" lon="8.2470233"><ele>216.8</ele><time>2026-04-11T12:12:40.296Z</time></trkpt><trkpt lat="44.9940717" lon="8.2471467"><ele>217.4</ele><time>2026-04-11T12:12:41.297Z</time></trkpt><trkpt lat="44.9941133" lon="8.2472683"><ele>218.0</ele><time>2026-04-11T12:12:42.296Z</time></trkpt><trkpt lat="44.9941483" lon="8.2474083"><ele>216.5</ele><time>2026-04-11T12:12:43.297Z</time></trkpt><trkpt lat="44.9941833" lon="8.2475583"><ele>215.0</ele><time>2026-04-11T12:12:44.296Z</time></trkpt><trkpt lat="44.9942067" lon="8.2477217"><ele>213.5</ele><time>2026-04-11T12:12:45.297Z</time></trkpt><trkpt lat="44.9942267" lon="8.2478717"><ele>212.0</ele><time>2026-04-11T12:12:46.296Z</time></trkpt><trkpt lat="44.9942483" lon="8.2480283"><ele>211.8</ele><time>2026-04-11T12:12:47.296Z</time></trkpt><trkpt lat="44.99427" lon="8.2481667"><ele>211.6</ele><time>2026-04-11T12:12:48.296Z</time></trkpt><trkpt lat="44.9942867" lon="8.2482883"><ele>211.4</ele><time>2026-04-11T12:12:49.297Z</time></trkpt><trkpt lat="44.9942967" lon="8.248405"><ele>211.20000000000002</ele><time>2026-04-11T12:12:50.296Z</time></trkpt><trkpt lat="44.994305" lon="8.2484967"><ele>211.0</ele><time>2026-04-11T12:12:51.296Z</time></trkpt><trkpt lat="44.9942967" lon="8.2486567"><ele>210.99999999999997</ele><time>2026-04-11T12:12:53.296Z</time></trkpt><trkpt lat="44.9942517" lon="8.2488083"><ele>211.0</ele><time>2026-04-11T12:12:55.296Z</time></trkpt><trkpt lat="44.9942233" lon="8.2488933"><ele>211.0</ele><time>2026-04-11T12:12:56.296Z</time></trkpt><trkpt lat="44.9941817" lon="8.2489783"><ele>211.0</ele><time>2026-04-11T12:12:57.296Z</time></trkpt><trkpt lat="44.9941267" lon="8.24907"><ele>210.99999999999997</ele><time>2026-04-11T12:12:58.297Z</time></trkpt><trkpt lat="44.9940733" lon="8.2491617"><ele>211.0</ele><time>2026-04-11T12:12:59.296Z</time></trkpt><trkpt lat="44.994025" lon="8.249245"><ele>212.33333333333331</ele><time>2026-04-11T12:13:00.297Z</time></trkpt><trkpt lat="44.9939733" lon="8.2493283"><ele>213.66666666666666</ele><time>2026-04-11T12:13:01.296Z</time></trkpt><trkpt lat="44.9939217" lon="8.2494083"><ele>215.0</ele><time>2026-04-11T12:13:02.296Z</time></trkpt><trkpt lat="44.9938733" lon="8.2494917"><ele>216.33333333333331</ele><time>2026-04-11T12:13:03.297Z</time></trkpt><trkpt lat="44.993825" lon="8.2495817"><ele>217.66666666666666</ele><time>2026-04-11T12:13:04.296Z</time></trkpt><trkpt lat="44.9937767" lon="8.249675"><ele>219.0</ele><time>2026-04-11T12:13:05.296Z</time></trkpt><trkpt lat="44.9937233" lon="8.24977"><ele>220.16666666666666</ele><time>2026-04-11T12:13:06.296Z</time></trkpt><trkpt lat="44.99367" lon="8.24987"><ele>221.33333333333331</ele><time>2026-04-11T12:13:07.297Z</time></trkpt><trkpt lat="44.9936217" lon="8.2499683"><ele>222.5</ele><time>2026-04-11T12:13:08.297Z</time></trkpt><trkpt lat="44.9935733" lon="8.25007"><ele>223.66666666666666</ele><time>2026-04-11T12:13:09.297Z</time></trkpt><trkpt lat="44.993535" lon="8.25017"><ele>224.83333333333331</ele><time>2026-04-11T12:13:10.296Z</time></trkpt><trkpt lat="44.9934917" lon="8.2502733"><ele>226.0</ele><time>2026-04-11T12:13:11.296Z</time></trkpt><trkpt lat="44.9934483" lon="8.25039"><ele>226.0</ele><time>2026-04-11T12:13:12.297Z</time></trkpt><trkpt lat="44.9934033" lon="8.2505033"><ele>226.00000000000003</ele><time>2026-04-11T12:13:13.296Z</time></trkpt><trkpt lat="44.9933533" lon="8.2506217"><ele>226.00000000000003</ele><time>2026-04-11T12:13:14.296Z</time></trkpt><trkpt lat="44.9933117" lon="8.2507467"><ele>226.0</ele><time>2026-04-11T12:13:15.296Z</time></trkpt><trkpt lat="44.9932633" lon="8.2508733"><ele>226.0</ele><time>2026-04-11T12:13:16.296Z</time></trkpt><trkpt lat="44.9932167" lon="8.2510033"><ele>225.8</ele><time>2026-04-11T12:13:17.296Z</time></trkpt><trkpt lat="44.9931633" lon="8.2511133"><ele>225.60000000000002</ele><time>2026-04-11T12:13:18.296Z</time></trkpt><trkpt lat="44.9931067" lon="8.251235"><ele>225.4</ele><time>2026-04-11T12:13:19.297Z</time></trkpt><trkpt lat="44.9930483" lon="8.2513533"><ele>225.2</ele><time>2026-04-11T12:13:20.297Z</time></trkpt><trkpt lat="44.993" lon="8.2514533"><ele>225.0</ele><time>2026-04-11T12:13:21.296Z</time></trkpt><trkpt lat="44.9929617" lon="8.2515433"><ele>225.5</ele><time>2026-04-11T12:13:22.296Z</time></trkpt><trkpt lat="44.9929233" lon="8.2516317"><ele>226.0</ele><time>2026-04-11T12:13:23.296Z</time></trkpt><trkpt lat="44.99288" lon="8.2517267"><ele>226.5</ele><time>2026-04-11T12:13:24.296Z</time></trkpt><trkpt lat="44.9928383" lon="8.2518167"><ele>227.0</ele><time>2026-04-11T12:13:25.296Z</time></trkpt><trkpt lat="44.992785" lon="8.2519"><ele>227.5</ele><time>2026-04-11T12:13:26.296Z</time></trkpt><trkpt lat="44.99272" lon="8.2519617"><ele>228.0</ele><time>2026-04-11T12:13:27.296Z</time></trkpt><trkpt lat="44.992645" lon="8.2520233"><ele>228.0</ele><time>2026-04-11T12:13:28.297Z</time></trkpt><trkpt lat="44.9925567" lon="8.252095"><ele>228.0</ele><time>2026-04-11T12:13:29.296Z</time></trkpt><trkpt lat="44.99246" lon="8.2521617"><ele>228.0</ele><time>2026-04-11T12:13:30.296Z</time></trkpt><trkpt lat="44.9923633" lon="8.2522283"><ele>228.0</ele><time>2026-04-11T12:13:31.296Z</time></trkpt><trkpt lat="44.99226" lon="8.2522883"><ele>228.0</ele><time>2026-04-11T12:13:32.296Z</time></trkpt><trkpt lat="44.99216" lon="8.25235"><ele>226.0</ele><time>2026-04-11T12:13:33.296Z</time></trkpt><trkpt lat="44.99199" lon="8.25247"><ele>224.0</ele><time>2026-04-11T12:13:35.296Z</time></trkpt><trkpt lat="44.99191" lon="8.25252"><ele>222.0</ele><time>2026-04-11T12:13:36.296Z</time></trkpt><trkpt lat="44.9918333" lon="8.2525683"><ele>220.0</ele><time>2026-04-11T12:13:37.296Z</time></trkpt><trkpt lat="44.9917583" lon="8.2526167"><ele>218.0</ele><time>2026-04-11T12:13:38.296Z</time></trkpt><trkpt lat="44.99168" lon="8.2526617"><ele>217.33333333333334</ele><time>2026-04-11T12:13:39.297Z</time></trkpt><trkpt lat="44.9916" lon="8.2527083"><ele>216.66666666666669</ele><time>2026-04-11T12:13:40.296Z</time></trkpt><trkpt lat="44.9915167" lon="8.2527417"><ele>216.0</ele><time>2026-04-11T12:13:41.296Z</time></trkpt><trkpt lat="44.9914333" lon="8.2527767"><ele>215.33333333333331</ele><time>2026-04-11T12:13:42.296Z</time></trkpt><trkpt lat="44.9913467" lon="8.2528083"><ele>214.66666666666666</ele><time>2026-04-11T12:13:43.296Z</time></trkpt><trkpt lat="44.9912533" lon="8.2528267"><ele>214.0</ele><time>2026-04-11T12:13:44.296Z</time></trkpt><trkpt lat="44.9911517" lon="8.2528367"><ele>214.0</ele><time>2026-04-11T12:13:45.296Z</time></trkpt><trkpt lat="44.9910533" lon="8.2528333"><ele>213.99999999999997</ele><time>2026-04-11T12:13:46.297Z</time></trkpt><trkpt lat="44.990955" lon="8.2528333"><ele>213.99999999999997</ele><time>2026-04-11T12:13:47.296Z</time></trkpt><trkpt lat="44.9908583" lon="8.2528383"><ele>214.0</ele><time>2026-04-11T12:13:48.296Z</time></trkpt><trkpt lat="44.9907617" lon="8.252845"><ele>214.0</ele><time>2026-04-11T12:13:49.296Z</time></trkpt><trkpt lat="44.9906717" lon="8.25284"><ele>213.79999999999998</ele><time>2026-04-11T12:13:50.297Z</time></trkpt><trkpt lat="44.9905883" lon="8.252835"><ele>213.59999999999997</ele><time>2026-04-11T12:13:51.296Z</time></trkpt><trkpt lat="44.9904933" lon="8.2528233"><ele>213.4</ele><time>2026-04-11T12:13:52.296Z</time></trkpt><trkpt lat="44.9903917" lon="8.252825"><ele>213.2</ele><time>2026-04-11T12:13:53.296Z</time></trkpt><trkpt lat="44.99029" lon="8.2528333"><ele>213.0</ele><time>2026-04-11T12:13:54.296Z</time></trkpt><trkpt lat="44.9901883" lon="8.2528367"><ele>213.0</ele><time>2026-04-11T12:13:55.296Z</time></trkpt><trkpt lat="44.9900883" lon="8.2528417"><ele>213.0</ele><time>2026-04-11T12:13:56.297Z</time></trkpt><trkpt lat="44.9899833" lon="8.2528483"><ele>213.0</ele><time>2026-04-11T12:13:57.296Z</time></trkpt><trkpt lat="44.9898767" lon="8.2528483"><ele>213.0</ele><time>2026-04-11T12:13:58.297Z</time></trkpt><trkpt lat="44.989775" lon="8.252835"><ele>213.0</ele><time>2026-04-11T12:13:59.297Z</time></trkpt><trkpt lat="44.9896733" lon="8.25283"><ele>212.60000000000002</ele><time>2026-04-11T12:14:00.297Z</time></trkpt><trkpt lat="44.9895783" lon="8.2528167"><ele>212.20000000000002</ele><time>2026-04-11T12:14:01.296Z</time></trkpt><trkpt lat="44.98948" lon="8.2527917"><ele>211.8</ele><time>2026-04-11T12:14:02.296Z</time></trkpt><trkpt lat="44.9893883" lon="8.25275"><ele>211.4</ele><time>2026-04-11T12:14:03.297Z</time></trkpt><trkpt lat="44.989295" lon="8.2527167"><ele>211.0</ele><time>2026-04-11T12:14:04.297Z</time></trkpt><trkpt lat="44.9891983" lon="8.2526983"><ele>211.20000000000002</ele><time>2026-04-11T12:14:05.296Z</time></trkpt><trkpt lat="44.9891" lon="8.252695"><ele>211.4</ele><time>2026-04-11T12:14:06.296Z</time></trkpt><trkpt lat="44.9889983" lon="8.2526933"><ele>211.6</ele><time>2026-04-11T12:14:07.296Z</time></trkpt><trkpt lat="44.988895" lon="8.2527117"><ele>211.8</ele><time>2026-04-11T12:14:08.296Z</time></trkpt><trkpt lat="44.9887933" lon="8.2527267"><ele>212.0</ele><time>2026-04-11T12:14:09.297Z</time></trkpt><trkpt lat="44.988685" lon="8.25273"><ele>212.0</ele><time>2026-04-11T12:14:10.297Z</time></trkpt><trkpt lat="44.9885883" lon="8.2527283"><ele>212.0</ele><time>2026-04-11T12:14:11.296Z</time></trkpt><trkpt lat="44.988485" lon="8.2527267"><ele>212.0</ele><time>2026-04-11T12:14:12.296Z</time></trkpt><trkpt lat="44.988385" lon="8.25272"><ele>212.0</ele><time>2026-04-11T12:14:13.296Z</time></trkpt><trkpt lat="44.9882817" lon="8.2527183"><ele>212.0</ele><time>2026-04-11T12:14:14.297Z</time></trkpt><trkpt lat="44.9881783" lon="8.252715"><ele>212.2</ele><time>2026-04-11T12:14:15.296Z</time></trkpt><trkpt lat="44.98808" lon="8.2527133"><ele>212.39999999999998</ele><time>2026-04-11T12:14:16.297Z</time></trkpt><trkpt lat="44.9879817" lon="8.2527183"><ele>212.60000000000002</ele><time>2026-04-11T12:14:17.296Z</time></trkpt><trkpt lat="44.9878917" lon="8.2527267"><ele>212.8</ele><time>2026-04-11T12:14:18.296Z</time></trkpt><trkpt lat="44.9878033" lon="8.2527117"><ele>213.0</ele><time>2026-04-11T12:14:19.296Z</time></trkpt><trkpt lat="44.9877083" lon="8.2526867"><ele>213.0</ele><time>2026-04-11T12:14:20.296Z</time></trkpt><trkpt lat="44.9876033" lon="8.25264"><ele>213.0</ele><time>2026-04-11T12:14:21.296Z</time></trkpt><trkpt lat="44.9874983" lon="8.2525883"><ele>213.0</ele><time>2026-04-11T12:14:22.296Z</time></trkpt><trkpt lat="44.9873967" lon="8.2525383"><ele>213.0</ele><time>2026-04-11T12:14:23.297Z</time></trkpt><trkpt lat="44.9872883" lon="8.252495"><ele>213.0</ele><time>2026-04-11T12:14:24.296Z</time></trkpt><trkpt lat="44.9871817" lon="8.2524617"><ele>212.4</ele><time>2026-04-11T12:14:25.296Z</time></trkpt><trkpt lat="44.9870717" lon="8.252425"><ele>211.8</ele><time>2026-04-11T12:14:26.296Z</time></trkpt><trkpt lat="44.9869617" lon="8.2523833"><ele>211.2</ele><time>2026-04-11T12:14:27.296Z</time></trkpt><trkpt lat="44.9868583" lon="8.252335"><ele>210.6</ele><time>2026-04-11T12:14:28.297Z</time></trkpt><trkpt lat="44.9867617" lon="8.2522667"><ele>210.0</ele><time>2026-04-11T12:14:29.296Z</time></trkpt><trkpt lat="44.98667" lon="8.252205"><ele>208.4</ele><time>2026-04-11T12:14:30.297Z</time></trkpt><trkpt lat="44.9865917" lon="8.2521467"><ele>206.8</ele><time>2026-04-11T12:14:31.296Z</time></trkpt><trkpt lat="44.9865117" lon="8.2520717"><ele>205.2</ele><time>2026-04-11T12:14:32.296Z</time></trkpt><trkpt lat="44.9864283" lon="8.2519933"><ele>203.6</ele><time>2026-04-11T12:14:33.296Z</time></trkpt><trkpt lat="44.986345" lon="8.2519017"><ele>202.0</ele><time>2026-04-11T12:14:34.296Z</time></trkpt><trkpt lat="44.9862617" lon="8.2518117"><ele>202.0</ele><time>2026-04-11T12:14:35.296Z</time></trkpt><trkpt lat="44.986185" lon="8.2517217"><ele>202.0</ele><time>2026-04-11T12:14:36.296Z</time></trkpt><trkpt lat="44.9861" lon="8.2516383"><ele>202.0</ele><time>2026-04-11T12:14:37.296Z</time></trkpt><trkpt lat="44.98602" lon="8.2515733"><ele>202.0</ele><time>2026-04-11T12:14:38.297Z</time></trkpt><trkpt lat="44.9859367" lon="8.251535"><ele>202.0</ele><time>2026-04-11T12:14:39.297Z</time></trkpt><trkpt lat="44.9858417" lon="8.25152"><ele>203.0</ele><time>2026-04-11T12:14:40.296Z</time></trkpt><trkpt lat="44.9857433" lon="8.2515217"><ele>204.0</ele><time>2026-04-11T12:14:41.296Z</time></trkpt><trkpt lat="44.985645" lon="8.2515383"><ele>205.0</ele><time>2026-04-11T12:14:42.296Z</time></trkpt><trkpt lat="44.98554" lon="8.251545"><ele>206.0</ele><time>2026-04-11T12:14:43.297Z</time></trkpt><trkpt lat="44.9854367" lon="8.2515567"><ele>207.0</ele><time>2026-04-11T12:14:44.296Z</time></trkpt><trkpt lat="44.9853367" lon="8.2515617"><ele>207.0</ele><time>2026-04-11T12:14:45.296Z</time></trkpt><trkpt lat="44.9852417" lon="8.2515333"><ele>207.0</ele><time>2026-04-11T12:14:46.296Z</time></trkpt><trkpt lat="44.9851433" lon="8.2514933"><ele>207.0</ele><time>2026-04-11T12:14:47.296Z</time></trkpt><trkpt lat="44.985065" lon="8.2514267"><ele>207.0</ele><time>2026-04-11T12:14:48.296Z</time></trkpt><trkpt lat="44.98499" lon="8.25137"><ele>207.0</ele><time>2026-04-11T12:14:49.297Z</time></trkpt><trkpt lat="44.98493" lon="8.2513133"><ele>207.0</ele><time>2026-04-11T12:14:50.296Z</time></trkpt><trkpt lat="44.9848667" lon="8.2512567"><ele>205.2</ele><time>2026-04-11T12:14:51.296Z</time></trkpt><trkpt lat="44.98476" lon="8.2511767"><ele>203.39999999999998</ele><time>2026-04-11T12:14:53.296Z</time></trkpt><trkpt lat="44.9846617" lon="8.2511033"><ele>201.60000000000002</ele><time>2026-04-11T12:14:55.296Z</time></trkpt><trkpt lat="44.9846" lon="8.2510683"><ele>199.8</ele><time>2026-04-11T12:14:56.297Z</time></trkpt><trkpt lat="44.9845233" lon="8.2510317"><ele>198.0</ele><time>2026-04-11T12:14:57.296Z</time></trkpt><trkpt lat="44.9844367" lon="8.2509983"><ele>198.0</ele><time>2026-04-11T12:14:58.296Z</time></trkpt><trkpt lat="44.984345" lon="8.250965"><ele>198.0</ele><time>2026-04-11T12:14:59.296Z</time></trkpt><trkpt lat="44.9842533" lon="8.2509533"><ele>198.0</ele><time>2026-04-11T12:15:00.296Z</time></trkpt><trkpt lat="44.9841533" lon="8.2509517"><ele>198.0</ele><time>2026-04-11T12:15:01.297Z</time></trkpt><trkpt lat="44.9840483" lon="8.25096"><ele>198.0</ele><time>2026-04-11T12:15:02.296Z</time></trkpt><trkpt lat="44.9839517" lon="8.2509683"><ele>197.8</ele><time>2026-04-11T12:15:03.296Z</time></trkpt><trkpt lat="44.9838583" lon="8.25098"><ele>197.60000000000002</ele><time>2026-04-11T12:15:04.296Z</time></trkpt><trkpt lat="44.9837633" lon="8.2510067"><ele>197.39999999999998</ele><time>2026-04-11T12:15:05.297Z</time></trkpt><trkpt lat="44.9836733" lon="8.2510417"><ele>197.2</ele><time>2026-04-11T12:15:06.296Z</time></trkpt><trkpt lat="44.9835733" lon="8.251065"><ele>197.0</ele><time>2026-04-11T12:15:07.297Z</time></trkpt><trkpt lat="44.9834717" lon="8.25109"><ele>197.0</ele><time>2026-04-11T12:15:08.296Z</time></trkpt><trkpt lat="44.9833667" lon="8.2511217"><ele>197.0</ele><time>2026-04-11T12:15:09.296Z</time></trkpt><trkpt lat="44.9832617" lon="8.2511433"><ele>197.0</ele><time>2026-04-11T12:15:10.297Z</time></trkpt><trkpt lat="44.9831633" lon="8.2511583"><ele>197.0</ele><time>2026-04-11T12:15:11.296Z</time></trkpt><trkpt lat="44.9830617" lon="8.25118"><ele>197.0</ele><time>2026-04-11T12:15:12.296Z</time></trkpt><trkpt lat="44.9829683" lon="8.251235"><ele>196.25</ele><time>2026-04-11T12:15:13.296Z</time></trkpt><trkpt lat="44.9828767" lon="8.2513133"><ele>195.5</ele><time>2026-04-11T12:15:14.296Z</time></trkpt><trkpt lat="44.9827933" lon="8.2514017"><ele>194.75</ele><time>2026-04-11T12:15:15.297Z</time></trkpt><trkpt lat="44.9827083" lon="8.2515033"><ele>194.0</ele><time>2026-04-11T12:15:16.297Z</time></trkpt><trkpt lat="44.9825467" lon="8.2516833"><ele>194.66666666666669</ele><time>2026-04-11T12:15:18.296Z</time></trkpt><trkpt lat="44.9824667" lon="8.2517583"><ele>195.33333333333334</ele><time>2026-04-11T12:15:19.296Z</time></trkpt><trkpt lat="44.9823933" lon="8.2518167"><ele>196.0</ele><time>2026-04-11T12:15:20.296Z</time></trkpt><trkpt lat="44.9823233" lon="8.2518617"><ele>196.66666666666669</ele><time>2026-04-11T12:15:21.297Z</time></trkpt><trkpt lat="44.9822617" lon="8.25189"><ele>197.33333333333334</ele><time>2026-04-11T12:15:22.297Z</time></trkpt><trkpt lat="44.9821683" lon="8.2519317"><ele>198.0</ele><time>2026-04-11T12:15:24.297Z</time></trkpt><trkpt lat="44.9821417" lon="8.2520683"><ele>198.0</ele><time>2026-04-11T12:15:26.297Z</time></trkpt><trkpt lat="44.98213" lon="8.2521767"><ele>198.0</ele><time>2026-04-11T12:15:27.297Z</time></trkpt><trkpt lat="44.9821117" lon="8.2522983"><ele>198.0</ele><time>2026-04-11T12:15:28.296Z</time></trkpt><trkpt lat="44.98209" lon="8.2524217"><ele>198.0</ele><time>2026-04-11T12:15:29.296Z</time></trkpt><trkpt lat="44.9820633" lon="8.2525433"><ele>198.0</ele><time>2026-04-11T12:15:30.296Z</time></trkpt><trkpt lat="44.982035" lon="8.2526667"><ele>198.0</ele><time>2026-04-11T12:15:31.297Z</time></trkpt><trkpt lat="44.982005" lon="8.2528167"><ele>196.2</ele><time>2026-04-11T12:15:32.296Z</time></trkpt><trkpt lat="44.9819733" lon="8.25297"><ele>194.4</ele><time>2026-04-11T12:15:33.296Z</time></trkpt><trkpt lat="44.98194" lon="8.2531167"><ele>192.6</ele><time>2026-04-11T12:15:34.296Z</time></trkpt><trkpt lat="44.981915" lon="8.2532633"><ele>190.79999999999998</ele><time>2026-04-11T12:15:35.296Z</time></trkpt><trkpt lat="44.981885" lon="8.25341"><ele>189.0</ele><time>2026-04-11T12:15:36.297Z</time></trkpt><trkpt lat="44.9818633" lon="8.25354"><ele>188.79999999999998</ele><time>2026-04-11T12:15:37.296Z</time></trkpt><trkpt lat="44.9818333" lon="8.2536517"><ele>188.6</ele><time>2026-04-11T12:15:38.296Z</time></trkpt><trkpt lat="44.9817867" lon="8.2537383"><ele>188.4</ele><time>2026-04-11T12:15:39.297Z</time></trkpt><trkpt lat="44.9816933" lon="8.2537983"><ele>188.2</ele><time>2026-04-11T12:15:40.296Z</time></trkpt><trkpt lat="44.9815767" lon="8.2538483"><ele>188.0</ele><time>2026-04-11T12:15:41.297Z</time></trkpt><trkpt lat="44.9814483" lon="8.2538883"><ele>188.0</ele><time>2026-04-11T12:15:42.297Z</time></trkpt><trkpt lat="44.9813033" lon="8.25393"><ele>188.0</ele><time>2026-04-11T12:15:43.296Z</time></trkpt><trkpt lat="44.9811517" lon="8.25396"><ele>188.0</ele><time>2026-04-11T12:15:44.296Z</time></trkpt><trkpt lat="44.9810033" lon="8.254"><ele>187.0</ele><time>2026-04-11T12:15:45.296Z</time></trkpt><trkpt lat="44.9808517" lon="8.2540267"><ele>186.0</ele><time>2026-04-11T12:15:46.297Z</time></trkpt><trkpt lat="44.9807067" lon="8.2540683"><ele>185.0</ele><time>2026-04-11T12:15:47.296Z</time></trkpt><trkpt lat="44.9805567" lon="8.2541083"><ele>182.5</ele><time>2026-04-11T12:15:48.296Z</time></trkpt><trkpt lat="44.9804133" lon="8.2541433"><ele>180.0</ele><time>2026-04-11T12:15:49.296Z</time></trkpt><trkpt lat="44.980275" lon="8.254185"><ele>177.5</ele><time>2026-04-11T12:15:50.295Z</time></trkpt><trkpt lat="44.9801317" lon="8.2542283"><ele>175.0</ele><time>2026-04-11T12:15:51.295Z</time></trkpt><trkpt lat="44.9799917" lon="8.2542733"><ele>170.66666666666669</ele><time>2026-04-11T12:15:52.295Z</time></trkpt><trkpt lat="44.9798517" lon="8.2543183"><ele>166.33333333333334</ele><time>2026-04-11T12:15:53.296Z</time></trkpt><trkpt lat="44.9796083" lon="8.25442"><ele>162.0</ele><time>2026-04-11T12:15:55.296Z</time></trkpt><trkpt lat="44.9794983" lon="8.2544733"><ele>162.0</ele><time>2026-04-11T12:15:56.295Z</time></trkpt><trkpt lat="44.9793883" lon="8.2545267"><ele>162.0</ele><time>2026-04-11T12:15:57.295Z</time></trkpt><trkpt lat="44.9792783" lon="8.2545767"><ele>162.0</ele><time>2026-04-11T12:15:58.295Z</time></trkpt><trkpt lat="44.9791767" lon="8.2546133"><ele>162.0</ele><time>2026-04-11T12:15:59.295Z</time></trkpt><trkpt lat="44.9790833" lon="8.25463"><ele>162.0</ele><time>2026-04-11T12:16:00.296Z</time></trkpt><trkpt lat="44.9790067" lon="8.2546267"><ele>160.5</ele><time>2026-04-11T12:16:01.295Z</time></trkpt><trkpt lat="44.978945" lon="8.2546033"><ele>159.0</ele><time>2026-04-11T12:16:02.295Z</time></trkpt><trkpt lat="44.97887" lon="8.2545733"><ele>157.5</ele><time>2026-04-11T12:16:04.296Z</time></trkpt><trkpt lat="44.97886" lon="8.254675"><ele>156.0</ele><time>2026-04-11T12:16:07.295Z</time></trkpt><trkpt lat="44.9789283" lon="8.254815"><ele>154.5</ele><time>2026-04-11T12:16:09.296Z</time></trkpt><trkpt lat="44.9789833" lon="8.254885"><ele>153.0</ele><time>2026-04-11T12:16:10.295Z</time></trkpt><trkpt lat="44.9790317" lon="8.254955"><ele>152.83333333333334</ele><time>2026-04-11T12:16:11.296Z</time></trkpt><trkpt lat="44.97909" lon="8.2550183"><ele>152.66666666666666</ele><time>2026-04-11T12:16:12.295Z</time></trkpt><trkpt lat="44.9791517" lon="8.2550817"><ele>152.5</ele><time>2026-04-11T12:16:13.295Z</time></trkpt><trkpt lat="44.979215" lon="8.25514"><ele>152.33333333333331</ele><time>2026-04-11T12:16:14.295Z</time></trkpt><trkpt lat="44.97928" lon="8.2552033"><ele>152.16666666666666</ele><time>2026-04-11T12:16:15.295Z</time></trkpt><trkpt lat="44.97935" lon="8.25527"><ele>152.0</ele><time>2026-04-11T12:16:16.295Z</time></trkpt><trkpt lat="44.979425" lon="8.25534"><ele>151.75</ele><time>2026-04-11T12:16:17.295Z</time></trkpt><trkpt lat="44.9794983" lon="8.25541"><ele>151.5</ele><time>2026-04-11T12:16:18.295Z</time></trkpt><trkpt lat="44.9796783" lon="8.2555467"><ele>151.25</ele><time>2026-04-11T12:16:20.295Z</time></trkpt><trkpt lat="44.9797617" lon="8.25561"><ele>151.0</ele><time>2026-04-11T12:16:21.295Z</time></trkpt><trkpt lat="44.9798383" lon="8.2556783"><ele>151.0</ele><time>2026-04-11T12:16:22.295Z</time></trkpt><trkpt lat="44.9799233" lon="8.2557483"><ele>151.0</ele><time>2026-04-11T12:16:23.295Z</time></trkpt><trkpt lat="44.9800017" lon="8.2558133"><ele>151.0</ele><time>2026-04-11T12:16:24.295Z</time></trkpt><trkpt lat="44.9800833" lon="8.2558867"><ele>151.0</ele><time>2026-04-11T12:16:25.295Z</time></trkpt><trkpt lat="44.9801633" lon="8.255955"><ele>151.0</ele><time>2026-04-11T12:16:26.295Z</time></trkpt><trkpt lat="44.980245" lon="8.25602"><ele>152.6</ele><time>2026-04-11T12:16:27.296Z</time></trkpt><trkpt lat="44.9803283" lon="8.2560717"><ele>154.2</ele><time>2026-04-11T12:16:28.295Z</time></trkpt><trkpt lat="44.9804217" lon="8.256125"><ele>155.8</ele><time>2026-04-11T12:16:29.295Z</time></trkpt><trkpt lat="44.980505" lon="8.2561783"><ele>157.4</ele><time>2026-04-11T12:16:30.296Z</time></trkpt><trkpt lat="44.9805817" lon="8.2562317"><ele>159.0</ele><time>2026-04-11T12:16:31.295Z</time></trkpt><trkpt lat="44.9806567" lon="8.256285"><ele>159.0</ele><time>2026-04-11T12:16:32.295Z</time></trkpt><trkpt lat="44.9807267" lon="8.2563467"><ele>159.0</ele><time>2026-04-11T12:16:33.295Z</time></trkpt><trkpt lat="44.9807833" lon="8.25641"><ele>159.0</ele><time>2026-04-11T12:16:34.295Z</time></trkpt><trkpt lat="44.9808417" lon="8.25647"><ele>159.0</ele><time>2026-04-11T12:16:35.295Z</time></trkpt><trkpt lat="44.9809067" lon="8.2565233"><ele>159.0</ele><time>2026-04-11T12:16:36.295Z</time></trkpt><trkpt lat="44.9809717" lon="8.2565717"><ele>159.0</ele><time>2026-04-11T12:16:37.295Z</time></trkpt><trkpt lat="44.9810317" lon="8.256605"><ele>159.0</ele><time>2026-04-11T12:16:38.295Z</time></trkpt><trkpt lat="44.9811533" lon="8.2566517"><ele>158.0</ele><time>2026-04-11T12:16:40.295Z</time></trkpt><trkpt lat="44.9812333" lon="8.25667"><ele>157.0</ele><time>2026-04-11T12:16:41.296Z</time></trkpt><trkpt lat="44.9813183" lon="8.2566833"><ele>156.0</ele><time>2026-04-11T12:16:42.295Z</time></trkpt><trkpt lat="44.9814733" lon="8.2567017"><ele>155.0</ele><time>2026-04-11T12:16:44.296Z</time></trkpt><trkpt lat="44.981545" lon="8.256715"><ele>154.0</ele><time>2026-04-11T12:16:45.295Z</time></trkpt><trkpt lat="44.9816167" lon="8.2567383"><ele>154.33333333333334</ele><time>2026-04-11T12:16:46.296Z</time></trkpt><trkpt lat="44.9816983" lon="8.2567633"><ele>154.66666666666669</ele><time>2026-04-11T12:16:47.295Z</time></trkpt><trkpt lat="44.9817867" lon="8.256785"><ele>155.0</ele><time>2026-04-11T12:16:48.295Z</time></trkpt><trkpt lat="44.9818717" lon="8.25681"><ele>155.33333333333334</ele><time>2026-04-11T12:16:49.295Z</time></trkpt><trkpt lat="44.981955" lon="8.25683"><ele>155.66666666666666</ele><time>2026-04-11T12:16:50.295Z</time></trkpt><trkpt lat="44.9820283" lon="8.2568433"><ele>156.0</ele><time>2026-04-11T12:16:51.296Z</time></trkpt><trkpt lat="44.9821483" lon="8.2568517"><ele>156.0</ele><time>2026-04-11T12:16:53.295Z</time></trkpt><trkpt lat="44.9822567" lon="8.256805"><ele>156.0</ele><time>2026-04-11T12:16:55.295Z</time></trkpt><trkpt lat="44.98232" lon="8.2568333"><ele>156.0</ele><time>2026-04-11T12:16:57.295Z</time></trkpt><trkpt lat="44.982335" lon="8.256955"><ele>156.0</ele><time>2026-04-11T12:16:59.295Z</time></trkpt><trkpt lat="44.9823083" lon="8.257065"><ele>156.0</ele><time>2026-04-11T12:17:00.296Z</time></trkpt><trkpt lat="44.9822717" lon="8.2571867"><ele>156.0</ele><time>2026-04-11T12:17:01.295Z</time></trkpt><trkpt lat="44.9822367" lon="8.25741"><ele>155.83333333333334</ele><time>2026-04-11T12:17:03.295Z</time></trkpt><trkpt lat="44.9822267" lon="8.2575033"><ele>155.66666666666666</ele><time>2026-04-11T12:17:04.295Z</time></trkpt><trkpt lat="44.98221" lon="8.257595"><ele>155.5</ele><time>2026-04-11T12:17:05.296Z</time></trkpt><trkpt lat="44.9821717" lon="8.2577567"><ele>155.33333333333331</ele><time>2026-04-11T12:17:07.295Z</time></trkpt><trkpt lat="44.982165" lon="8.2578467"><ele>155.16666666666666</ele><time>2026-04-11T12:17:08.296Z</time></trkpt><trkpt lat="44.9821733" lon="8.2579583"><ele>155.0</ele><time>2026-04-11T12:17:09.295Z</time></trkpt><trkpt lat="44.9821817" lon="8.2580683"><ele>155.0</ele><time>2026-04-11T12:17:10.296Z</time></trkpt><trkpt lat="44.9821967" lon="8.2581767"><ele>155.0</ele><time>2026-04-11T12:17:11.295Z</time></trkpt><trkpt lat="44.982215" lon="8.25829"><ele>155.0</ele><time>2026-04-11T12:17:12.295Z</time></trkpt><trkpt lat="44.9822283" lon="8.2584117"><ele>155.0</ele><time>2026-04-11T12:17:13.296Z</time></trkpt><trkpt lat="44.9822333" lon="8.2585467"><ele>155.0</ele><time>2026-04-11T12:17:14.295Z</time></trkpt><trkpt lat="44.9822383" lon="8.25867"><ele>155.0</ele><time>2026-04-11T12:17:15.295Z</time></trkpt><trkpt lat="44.9822433" lon="8.2587967"><ele>155.0</ele><time>2026-04-11T12:17:16.295Z</time></trkpt><trkpt lat="44.982255" lon="8.2589233"><ele>155.0</ele><time>2026-04-11T12:17:17.296Z</time></trkpt><trkpt lat="44.9822717" lon="8.2590317"><ele>155.0</ele><time>2026-04-11T12:17:18.295Z</time></trkpt><trkpt lat="44.9822817" lon="8.2591217"><ele>155.0</ele><time>2026-04-11T12:17:19.295Z</time></trkpt><trkpt lat="44.9822717" lon="8.2592717"><ele>155.0</ele><time>2026-04-11T12:17:21.295Z</time></trkpt><trkpt lat="44.9821917" lon="8.2593967"><ele>154.6</ele><time>2026-04-11T12:17:23.295Z</time></trkpt><trkpt lat="44.9821317" lon="8.259465"><ele>154.2</ele><time>2026-04-11T12:17:24.295Z</time></trkpt><trkpt lat="44.9820733" lon="8.25955"><ele>153.8</ele><time>2026-04-11T12:17:25.295Z</time></trkpt><trkpt lat="44.9820333" lon="8.2596633"><ele>153.4</ele><time>2026-04-11T12:17:26.295Z</time></trkpt><trkpt lat="44.9819933" lon="8.259795"><ele>153.0</ele><time>2026-04-11T12:17:27.295Z</time></trkpt><trkpt lat="44.981955" lon="8.2599383"><ele>153.6</ele><time>2026-04-11T12:17:28.296Z</time></trkpt><trkpt lat="44.981895" lon="8.2600633"><ele>154.20000000000002</ele><time>2026-04-11T12:17:29.295Z</time></trkpt><trkpt lat="44.9818233" lon="8.2601733"><ele>154.8</ele><time>2026-04-11T12:17:30.296Z</time></trkpt><trkpt lat="44.9817517" lon="8.2602817"><ele>155.4</ele><time>2026-04-11T12:17:31.295Z</time></trkpt><trkpt lat="44.9816883" lon="8.2603883"><ele>156.0</ele><time>2026-04-11T12:17:32.295Z</time></trkpt><trkpt lat="44.9816417" lon="8.2604983"><ele>156.0</ele><time>2026-04-11T12:17:33.296Z</time></trkpt><trkpt lat="44.981615" lon="8.2605867"><ele>156.0</ele><time>2026-04-11T12:17:34.295Z</time></trkpt><trkpt lat="44.981585" lon="8.2606733"><ele>156.0</ele><time>2026-04-11T12:17:35.296Z</time></trkpt><trkpt lat="44.9815383" lon="8.260755"><ele>156.0</ele><time>2026-04-11T12:17:36.295Z</time></trkpt><trkpt lat="44.9814783" lon="8.2608133"><ele>156.0</ele><time>2026-04-11T12:17:37.295Z</time></trkpt><trkpt lat="44.9813917" lon="8.2608333"><ele>156.0</ele><time>2026-04-11T12:17:38.295Z</time></trkpt><trkpt lat="44.981285" lon="8.2607967"><ele>156.0</ele><time>2026-04-11T12:17:39.295Z</time></trkpt><trkpt lat="44.981175" lon="8.2607283"><ele>156.0</ele><time>2026-04-11T12:17:40.296Z</time></trkpt><trkpt lat="44.9810533" lon="8.2606567"><ele>156.0</ele><time>2026-04-11T12:17:41.296Z</time></trkpt><trkpt lat="44.9809217" lon="8.2605783"><ele>156.0</ele><time>2026-04-11T12:17:42.296Z</time></trkpt><trkpt lat="44.9807867" lon="8.2605017"><ele>154.5</ele><time>2026-04-11T12:17:43.295Z</time></trkpt><trkpt lat="44.9806483" lon="8.2604283"><ele>153.0</ele><time>2026-04-11T12:17:44.295Z</time></trkpt><trkpt lat="44.980525" lon="8.26037"><ele>151.5</ele><time>2026-04-11T12:17:45.295Z</time></trkpt><trkpt lat="44.9804033" lon="8.2602967"><ele>150.0</ele><time>2026-04-11T12:17:46.295Z</time></trkpt><trkpt lat="44.9802867" lon="8.2602"><ele>150.0</ele><time>2026-04-11T12:17:47.296Z</time></trkpt><trkpt lat="44.980185" lon="8.26009"><ele>150.0</ele><time>2026-04-11T12:17:48.295Z</time></trkpt><trkpt lat="44.9800983" lon="8.2599833"><ele>150.0</ele><time>2026-04-11T12:17:49.295Z</time></trkpt><trkpt lat="44.9800067" lon="8.2598717"><ele>150.0</ele><time>2026-04-11T12:17:50.295Z</time></trkpt><trkpt lat="44.97993" lon="8.25977"><ele>150.16666666666666</ele><time>2026-04-11T12:17:51.296Z</time></trkpt><trkpt lat="44.9798617" lon="8.25969"><ele>150.33333333333334</ele><time>2026-04-11T12:17:52.295Z</time></trkpt><trkpt lat="44.9798083" lon="8.2596167"><ele>150.5</ele><time>2026-04-11T12:17:53.295Z</time></trkpt><trkpt lat="44.9797117" lon="8.2595733"><ele>150.66666666666669</ele><time>2026-04-11T12:17:55.296Z</time></trkpt><trkpt lat="44.9796533" lon="8.2596717"><ele>150.83333333333334</ele><time>2026-04-11T12:17:57.295Z</time></trkpt><trkpt lat="44.9796483" lon="8.25978"><ele>151.0</ele><time>2026-04-11T12:17:58.295Z</time></trkpt><trkpt lat="44.97965" lon="8.2599183"><ele>151.25</ele><time>2026-04-11T12:17:59.295Z</time></trkpt><trkpt lat="44.9796517" lon="8.260075"><ele>151.5</ele><time>2026-04-11T12:18:00.295Z</time></trkpt><trkpt lat="44.9796483" lon="8.26024"><ele>151.75</ele><time>2026-04-11T12:18:01.295Z</time></trkpt><trkpt lat="44.9796383" lon="8.2604167"><ele>152.0</ele><time>2026-04-11T12:18:02.295Z</time></trkpt><trkpt lat="44.97963" lon="8.2605983"><ele>152.0</ele><time>2026-04-11T12:18:03.295Z</time></trkpt><trkpt lat="44.979615" lon="8.2607817"><ele>152.0</ele><time>2026-04-11T12:18:04.296Z</time></trkpt><trkpt lat="44.9796" lon="8.260955"><ele>152.0</ele><time>2026-04-11T12:18:05.296Z</time></trkpt><trkpt lat="44.9795767" lon="8.2611033"><ele>152.0</ele><time>2026-04-11T12:18:06.295Z</time></trkpt><trkpt lat="44.9795433" lon="8.261225"><ele>152.0</ele><time>2026-04-11T12:18:07.295Z</time></trkpt><trkpt lat="44.9795117" lon="8.2613283"><ele>152.0</ele><time>2026-04-11T12:18:08.295Z</time></trkpt><trkpt lat="44.9794833" lon="8.261415"><ele>152.0</ele><time>2026-04-11T12:18:09.295Z</time></trkpt><trkpt lat="44.9794667" lon="8.2615133"><ele>152.0</ele><time>2026-04-11T12:18:10.296Z</time></trkpt><trkpt lat="44.9794567" lon="8.2616167"><ele>152.0</ele><time>2026-04-11T12:18:11.295Z</time></trkpt><trkpt lat="44.9794433" lon="8.26172"><ele>152.0</ele><time>2026-04-11T12:18:12.296Z</time></trkpt><trkpt lat="44.9794233" lon="8.2618183"><ele>152.0</ele><time>2026-04-11T12:18:13.295Z</time></trkpt><trkpt lat="44.9794" lon="8.2619083"><ele>152.6</ele><time>2026-04-11T12:18:14.296Z</time></trkpt><trkpt lat="44.97937" lon="8.2620667"><ele>153.2</ele><time>2026-04-11T12:18:16.295Z</time></trkpt><trkpt lat="44.9793483" lon="8.2622467"><ele>153.8</ele><time>2026-04-11T12:18:18.296Z</time></trkpt><trkpt lat="44.9793383" lon="8.262345"><ele>154.4</ele><time>2026-04-11T12:18:19.296Z</time></trkpt><trkpt lat="44.9793217" lon="8.26244"><ele>155.0</ele><time>2026-04-11T12:18:20.296Z</time></trkpt><trkpt lat="44.9793" lon="8.262595"><ele>155.0</ele><time>2026-04-11T12:18:22.295Z</time></trkpt><trkpt lat="44.9792767" lon="8.2627083"><ele>155.0</ele><time>2026-04-11T12:18:24.296Z</time></trkpt><trkpt lat="44.9792683" lon="8.2628583"><ele>155.0</ele><time>2026-04-11T12:18:26.296Z</time></trkpt><trkpt lat="44.9792617" lon="8.2629583"><ele>155.0</ele><time>2026-04-11T12:18:27.296Z</time></trkpt><trkpt lat="44.9792483" lon="8.26305"><ele>155.0</ele><time>2026-04-11T12:18:28.295Z</time></trkpt><trkpt lat="44.9792333" lon="8.2631417"><ele>155.0</ele><time>2026-04-11T12:18:29.295Z</time></trkpt><trkpt lat="44.9792133" lon="8.263235"><ele>155.0</ele><time>2026-04-11T12:18:30.295Z</time></trkpt><trkpt lat="44.9791933" lon="8.263325"><ele>155.0</ele><time>2026-04-11T12:18:31.295Z</time></trkpt><trkpt lat="44.9791783" lon="8.2634217"><ele>155.0</ele><time>2026-04-11T12:18:32.295Z</time></trkpt><trkpt lat="44.97916" lon="8.2635217"><ele>155.0</ele><time>2026-04-11T12:18:33.295Z</time></trkpt><trkpt lat="44.97914" lon="8.263625"><ele>155.0</ele><time>2026-04-11T12:18:34.296Z</time></trkpt><trkpt lat="44.97913" lon="8.2637333"><ele>155.0</ele><time>2026-04-11T12:18:35.295Z</time></trkpt><trkpt lat="44.9791217" lon="8.2638433"><ele>155.0</ele><time>2026-04-11T12:18:36.295Z</time></trkpt><trkpt lat="44.9791133" lon="8.263955"><ele>155.33333333333331</ele><time>2026-04-11T12:18:37.295Z</time></trkpt><trkpt lat="44.979105" lon="8.2640683"><ele>155.66666666666666</ele><time>2026-04-11T12:18:38.295Z</time></trkpt><trkpt lat="44.9790983" lon="8.2641733"><ele>156.0</ele><time>2026-04-11T12:18:39.295Z</time></trkpt><trkpt lat="44.979095" lon="8.2642917"><ele>156.33333333333334</ele><time>2026-04-11T12:18:40.296Z</time></trkpt><trkpt lat="44.9790917" lon="8.2644133"><ele>156.66666666666669</ele><time>2026-04-11T12:18:41.295Z</time></trkpt><trkpt lat="44.9790833" lon="8.264535"><ele>157.0</ele><time>2026-04-11T12:18:42.296Z</time></trkpt><trkpt lat="44.9790717" lon="8.2646683"><ele>157.2</ele><time>2026-04-11T12:18:43.295Z</time></trkpt><trkpt lat="44.9790617" lon="8.2648"><ele>157.39999999999998</ele><time>2026-04-11T12:18:44.295Z</time></trkpt><trkpt lat="44.9790517" lon="8.2649367"><ele>157.60000000000002</ele><time>2026-04-11T12:18:45.296Z</time></trkpt><trkpt lat="44.9790383" lon="8.2650733"><ele>157.8</ele><time>2026-04-11T12:18:46.296Z</time></trkpt><trkpt lat="44.9790217" lon="8.2652033"><ele>158.0</ele><time>2026-04-11T12:18:47.295Z</time></trkpt><trkpt lat="44.9790033" lon="8.2653383"><ele>158.0</ele><time>2026-04-11T12:18:48.295Z</time></trkpt><trkpt lat="44.9789883" lon="8.26547"><ele>158.0</ele><time>2026-04-11T12:18:49.295Z</time></trkpt><trkpt lat="44.9789667" lon="8.2656"><ele>158.0</ele><time>2026-04-11T12:18:50.296Z</time></trkpt><trkpt lat="44.9789467" lon="8.2657283"><ele>158.0</ele><time>2026-04-11T12:18:51.296Z</time></trkpt><trkpt lat="44.978925" lon="8.2658583"><ele>158.0</ele><time>2026-04-11T12:18:52.295Z</time></trkpt><trkpt lat="44.9789017" lon="8.2659933"><ele>158.0</ele><time>2026-04-11T12:18:53.295Z</time></trkpt><trkpt lat="44.9788767" lon="8.2661183"><ele>158.0</ele><time>2026-04-11T12:18:54.295Z</time></trkpt><trkpt lat="44.9788567" lon="8.266235"><ele>158.0</ele><time>2026-04-11T12:18:55.295Z</time></trkpt><trkpt lat="44.9788383" lon="8.2663417"><ele>158.0</ele><time>2026-04-11T12:18:56.295Z</time></trkpt><trkpt lat="44.9788233" lon="8.2664517"><ele>158.0</ele><time>2026-04-11T12:18:57.295Z</time></trkpt><trkpt lat="44.9787967" lon="8.266575"><ele>158.0</ele><time>2026-04-11T12:18:58.296Z</time></trkpt><trkpt lat="44.97877" lon="8.2667033"><ele>158.0</ele><time>2026-04-11T12:18:59.295Z</time></trkpt><trkpt lat="44.9787417" lon="8.26684"><ele>158.0</ele><time>2026-04-11T12:19:00.296Z</time></trkpt><trkpt lat="44.9787267" lon="8.2669667"><ele>158.0</ele><time>2026-04-11T12:19:01.296Z</time></trkpt><trkpt lat="44.97872" lon="8.2670933"><ele>158.0</ele><time>2026-04-11T12:19:02.295Z</time></trkpt><trkpt lat="44.9787233" lon="8.26723"><ele>158.0</ele><time>2026-04-11T12:19:03.296Z</time></trkpt><trkpt lat="44.9787283" lon="8.2673733"><ele>158.25</ele><time>2026-04-11T12:19:04.295Z</time></trkpt><trkpt lat="44.9787467" lon="8.2676567"><ele>158.5</ele><time>2026-04-11T12:19:06.295Z</time></trkpt><trkpt lat="44.9787517" lon="8.2677917"><ele>158.75</ele><time>2026-04-11T12:19:07.296Z</time></trkpt><trkpt lat="44.97876" lon="8.2679233"><ele>159.0</ele><time>2026-04-11T12:19:08.295Z</time></trkpt><trkpt lat="44.978775" lon="8.26806"><ele>159.5</ele><time>2026-04-11T12:19:09.295Z</time></trkpt><trkpt lat="44.9787783" lon="8.2681767"><ele>160.0</ele><time>2026-04-11T12:19:10.295Z</time></trkpt><trkpt lat="44.97878" lon="8.26828"><ele>160.5</ele><time>2026-04-11T12:19:11.295Z</time></trkpt><trkpt lat="44.978795" lon="8.2683883"><ele>161.0</ele><time>2026-04-11T12:19:12.296Z</time></trkpt><trkpt lat="44.9788067" lon="8.2685017"><ele>161.5</ele><time>2026-04-11T12:19:13.295Z</time></trkpt><trkpt lat="44.9788267" lon="8.2686067"><ele>162.0</ele><time>2026-04-11T12:19:14.295Z</time></trkpt><trkpt lat="44.9788467" lon="8.2687033"><ele>162.0</ele><time>2026-04-11T12:19:15.295Z</time></trkpt><trkpt lat="44.9788567" lon="8.2688"><ele>162.0</ele><time>2026-04-11T12:19:16.295Z</time></trkpt><trkpt lat="44.9788883" lon="8.2689667"><ele>162.0</ele><time>2026-04-11T12:19:18.296Z</time></trkpt><trkpt lat="44.978915" lon="8.269125"><ele>162.0</ele><time>2026-04-11T12:19:20.296Z</time></trkpt><trkpt lat="44.9789283" lon="8.26925"><ele>162.0</ele><time>2026-04-11T12:19:22.295Z</time></trkpt><trkpt lat="44.9789417" lon="8.26936"><ele>163.0</ele><time>2026-04-11T12:19:25.295Z</time></trkpt><trkpt lat="44.9789517" lon="8.2696817"><ele>164.0</ele><time>2026-04-11T12:19:28.295Z</time></trkpt><trkpt lat="44.9789517" lon="8.2698167"><ele>165.0</ele><time>2026-04-11T12:19:29.295Z</time></trkpt><trkpt lat="44.978945" lon="8.2699333"><ele>166.0</ele><time>2026-04-11T12:19:30.295Z</time></trkpt><trkpt lat="44.9789283" lon="8.2700467"><ele>166.60000000000002</ele><time>2026-04-11T12:19:31.295Z</time></trkpt><trkpt lat="44.9789167" lon="8.2701533"><ele>167.2</ele><time>2026-04-11T12:19:32.295Z</time></trkpt><trkpt lat="44.9788883" lon="8.2703"><ele>167.8</ele><time>2026-04-11T12:19:34.296Z</time></trkpt><trkpt lat="44.9788567" lon="8.27042"><ele>168.39999999999998</ele><time>2026-04-11T12:19:36.296Z</time></trkpt><trkpt lat="44.97883" lon="8.2705467"><ele>169.0</ele><time>2026-04-11T12:19:38.295Z</time></trkpt><trkpt lat="44.9787933" lon="8.2706583"><ele>169.39999999999998</ele><time>2026-04-11T12:19:40.295Z</time></trkpt><trkpt lat="44.9787483" lon="8.2707617"><ele>169.8</ele><time>2026-04-11T12:19:42.295Z</time></trkpt><trkpt lat="44.9787" lon="8.270875"><ele>170.2</ele><time>2026-04-11T12:21:01.295Z</time></trkpt><trkpt lat="44.9786467" lon="8.270985"><ele>170.60000000000002</ele><time>2026-04-11T12:21:03.295Z</time></trkpt><trkpt lat="44.9785867" lon="8.2711017"><ele>171.0</ele><time>2026-04-11T12:21:05.294Z</time></trkpt><trkpt lat="44.9785383" lon="8.2712083"><ele>171.0</ele><time>2026-04-11T12:21:07.294Z</time></trkpt><trkpt lat="44.9784967" lon="8.2713"><ele>171.0</ele><time>2026-04-11T12:21:09.295Z</time></trkpt><trkpt lat="44.97845" lon="8.2713967"><ele>171.0</ele><time>2026-04-11T12:21:11.295Z</time></trkpt><trkpt lat="44.9784117" lon="8.27148"><ele>171.0</ele><time>2026-04-11T12:21:14.294Z</time></trkpt><trkpt lat="44.9783833" lon="8.27156"><ele>171.0</ele><time>2026-04-11T12:21:17.295Z</time></trkpt><trkpt lat="44.97834" lon="8.2716717"><ele>171.0</ele><time>2026-04-11T12:21:20.295Z</time></trkpt><trkpt lat="44.9782833" lon="8.2718133"><ele>173.16666666666666</ele><time>2026-04-11T12:21:22.294Z</time></trkpt><trkpt lat="44.9782467" lon="8.271905"><ele>175.33333333333334</ele><time>2026-04-11T12:21:23.294Z</time></trkpt><trkpt lat="44.9782083" lon="8.2719983"><ele>177.5</ele><time>2026-04-11T12:21:24.295Z</time></trkpt><trkpt lat="44.97818" lon="8.27208"><ele>179.66666666666669</ele><time>2026-04-11T12:21:25.295Z</time></trkpt><trkpt lat="44.978135" lon="8.2722033"><ele>181.83333333333334</ele><time>2026-04-11T12:21:27.295Z</time></trkpt><trkpt lat="44.97811" lon="8.2722917"><ele>184.0</ele><time>2026-04-11T12:21:29.294Z</time></trkpt><trkpt lat="44.97809" lon="8.2723917"><ele>185.66666666666669</ele><time>2026-04-11T12:21:32.294Z</time></trkpt><trkpt lat="44.9780583" lon="8.2725233"><ele>187.33333333333334</ele><time>2026-04-11T12:21:34.294Z</time></trkpt><trkpt lat="44.9779917" lon="8.2726667"><ele>189.0</ele><time>2026-04-11T12:21:36.294Z</time></trkpt><trkpt lat="44.97795" lon="8.2727483"><ele>190.66666666666669</ele><time>2026-04-11T12:21:37.294Z</time></trkpt><trkpt lat="44.9779067" lon="8.27284"><ele>192.33333333333334</ele><time>2026-04-11T12:21:38.294Z</time></trkpt><trkpt lat="44.9778583" lon="8.2729283"><ele>194.0</ele><time>2026-04-11T12:21:39.295Z</time></trkpt><trkpt lat="44.9778083" lon="8.2730283"><ele>194.66666666666669</ele><time>2026-04-11T12:21:40.294Z</time></trkpt><trkpt lat="44.97776" lon="8.27314"><ele>195.33333333333334</ele><time>2026-04-11T12:21:41.294Z</time></trkpt><trkpt lat="44.9777167" lon="8.2732517"><ele>196.0</ele><time>2026-04-11T12:21:42.294Z</time></trkpt><trkpt lat="44.9776767" lon="8.2733583"><ele>196.66666666666669</ele><time>2026-04-11T12:21:43.294Z</time></trkpt><trkpt lat="44.9776333" lon="8.273465"><ele>197.33333333333334</ele><time>2026-04-11T12:21:44.294Z</time></trkpt><trkpt lat="44.9775867" lon="8.27356"><ele>198.0</ele><time>2026-04-11T12:21:45.294Z</time></trkpt><trkpt lat="44.9775367" lon="8.2736617"><ele>199.5</ele><time>2026-04-11T12:21:46.294Z</time></trkpt><trkpt lat="44.9774867" lon="8.2737717"><ele>201.0</ele><time>2026-04-11T12:21:47.295Z</time></trkpt><trkpt lat="44.9774517" lon="8.2738833"><ele>202.5</ele><time>2026-04-11T12:21:48.294Z</time></trkpt><trkpt lat="44.97743" lon="8.2739933"><ele>204.0</ele><time>2026-04-11T12:21:49.294Z</time></trkpt><trkpt lat="44.9774133" lon="8.2741067"><ele>205.5</ele><time>2026-04-11T12:21:50.294Z</time></trkpt><trkpt lat="44.9773967" lon="8.274225"><ele>207.0</ele><time>2026-04-11T12:21:51.294Z</time></trkpt><trkpt lat="44.9773783" lon="8.27435"><ele>207.0</ele><time>2026-04-11T12:21:52.295Z</time></trkpt><trkpt lat="44.9773633" lon="8.27448"><ele>207.0</ele><time>2026-04-11T12:21:53.294Z</time></trkpt><trkpt lat="44.9773583" lon="8.2746"><ele>207.0</ele><time>2026-04-11T12:21:54.294Z</time></trkpt><trkpt lat="44.977355" lon="8.2747267"><ele>207.0</ele><time>2026-04-11T12:21:55.294Z</time></trkpt><trkpt lat="44.9773533" lon="8.2748433"><ele>207.0</ele><time>2026-04-11T12:21:56.294Z</time></trkpt><trkpt lat="44.9773583" lon="8.2749617"><ele>207.0</ele><time>2026-04-11T12:21:57.294Z</time></trkpt><trkpt lat="44.9773667" lon="8.27508"><ele>207.16666666666666</ele><time>2026-04-11T12:21:58.294Z</time></trkpt><trkpt lat="44.9773683" lon="8.2751933"><ele>207.33333333333331</ele><time>2026-04-11T12:21:59.294Z</time></trkpt><trkpt lat="44.9773683" lon="8.2753483"><ele>207.5</ele><time>2026-04-11T12:22:01.294Z</time></trkpt><trkpt lat="44.9773767" lon="8.2754983"><ele>207.66666666666666</ele><time>2026-04-11T12:22:56.294Z</time></trkpt><trkpt lat="44.9773833" lon="8.2755967"><ele>207.83333333333331</ele><time>2026-04-11T12:22:57.294Z</time></trkpt><trkpt lat="44.977395" lon="8.2757"><ele>208.0</ele><time>2026-04-11T12:22:58.294Z</time></trkpt><trkpt lat="44.9774067" lon="8.2758"><ele>209.33333333333331</ele><time>2026-04-11T12:22:59.294Z</time></trkpt><trkpt lat="44.9774217" lon="8.275935"><ele>210.66666666666666</ele><time>2026-04-11T12:23:01.294Z</time></trkpt><trkpt lat="44.9773717" lon="8.276015"><ele>212.0</ele><time>2026-04-11T12:23:03.295Z</time></trkpt><trkpt lat="44.9772533" lon="8.27608"><ele>213.33333333333331</ele><time>2026-04-11T12:23:05.294Z</time></trkpt><trkpt lat="44.97719" lon="8.2761167"><ele>214.66666666666666</ele><time>2026-04-11T12:23:06.294Z</time></trkpt><trkpt lat="44.9771283" lon="8.27616"><ele>216.0</ele><time>2026-04-11T12:23:07.294Z</time></trkpt><trkpt lat="44.97707" lon="8.27621"><ele>216.0</ele><time>2026-04-11T12:23:08.294Z</time></trkpt><trkpt lat="44.977015" lon="8.2762583"><ele>216.0</ele><time>2026-04-11T12:23:09.294Z</time></trkpt><trkpt lat="44.976945" lon="8.276305"><ele>216.0</ele><time>2026-04-11T12:23:11.294Z</time></trkpt><trkpt lat="44.9768783" lon="8.27635"><ele>216.0</ele><time>2026-04-11T12:23:22.294Z</time></trkpt><trkpt lat="44.9768317" lon="8.2764383"><ele>216.0</ele><time>2026-04-11T12:23:24.294Z</time></trkpt><trkpt lat="44.9767883" lon="8.2765217"><ele>216.0</ele><time>2026-04-11T12:23:27.294Z</time></trkpt><trkpt lat="44.9767667" lon="8.2766417"><ele>217.8</ele><time>2026-04-11T12:23:30.295Z</time></trkpt><trkpt lat="44.9767533" lon="8.27678"><ele>219.60000000000002</ele><time>2026-04-11T12:23:32.294Z</time></trkpt><trkpt lat="44.9767083" lon="8.276965"><ele>221.4</ele><time>2026-04-11T12:23:34.294Z</time></trkpt><trkpt lat="44.97668" lon="8.27708"><ele>223.2</ele><time>2026-04-11T12:23:35.294Z</time></trkpt><trkpt lat="44.97665" lon="8.2772"><ele>225.0</ele><time>2026-04-11T12:23:36.294Z</time></trkpt><trkpt lat="44.9766217" lon="8.2773383"><ele>225.2</ele><time>2026-04-11T12:23:37.294Z</time></trkpt><trkpt lat="44.9766033" lon="8.2774933"><ele>225.4</ele><time>2026-04-11T12:23:38.294Z</time></trkpt><trkpt lat="44.976585" lon="8.2776483"><ele>225.60000000000002</ele><time>2026-04-11T12:23:39.294Z</time></trkpt><trkpt lat="44.97658" lon="8.2778067"><ele>225.8</ele><time>2026-04-11T12:23:40.293Z</time></trkpt><trkpt lat="44.9765817" lon="8.2779633"><ele>226.0</ele><time>2026-04-11T12:23:41.293Z</time></trkpt><trkpt lat="44.97658" lon="8.2781117"><ele>226.4</ele><time>2026-04-11T12:23:42.293Z</time></trkpt><trkpt lat="44.97658" lon="8.2782583"><ele>226.8</ele><time>2026-04-11T12:23:43.293Z</time></trkpt><trkpt lat="44.976585" lon="8.2784033"><ele>227.20000000000002</ele><time>2026-04-11T12:23:44.294Z</time></trkpt><trkpt lat="44.97659" lon="8.2785483"><ele>227.60000000000002</ele><time>2026-04-11T12:23:45.293Z</time></trkpt><trkpt lat="44.9765933" lon="8.2786983"><ele>228.0</ele><time>2026-04-11T12:23:46.294Z</time></trkpt><trkpt lat="44.9765983" lon="8.278855"><ele>227.75</ele><time>2026-04-11T12:23:47.293Z</time></trkpt><trkpt lat="44.9766" lon="8.2790183"><ele>227.5</ele><time>2026-04-11T12:23:48.293Z</time></trkpt><trkpt lat="44.976595" lon="8.2791767"><ele>227.25</ele><time>2026-04-11T12:23:49.293Z</time></trkpt><trkpt lat="44.97658" lon="8.279335"><ele>227.0</ele><time>2026-04-11T12:23:50.294Z</time></trkpt><trkpt lat="44.97656" lon="8.27949"><ele>227.0</ele><time>2026-04-11T12:23:51.294Z</time></trkpt><trkpt lat="44.97654" lon="8.2796417"><ele>227.0</ele><time>2026-04-11T12:23:52.293Z</time></trkpt><trkpt lat="44.9765217" lon="8.2798033"><ele>227.0</ele><time>2026-04-11T12:23:53.293Z</time></trkpt><trkpt lat="44.9765033" lon="8.2799583"><ele>227.0</ele><time>2026-04-11T12:23:54.293Z</time></trkpt><trkpt lat="44.9764817" lon="8.2800967"><ele>227.0</ele><time>2026-04-11T12:23:55.293Z</time></trkpt><trkpt lat="44.976465" lon="8.280235"><ele>226.39999999999998</ele><time>2026-04-11T12:23:56.293Z</time></trkpt><trkpt lat="44.976445" lon="8.2803683"><ele>225.79999999999998</ele><time>2026-04-11T12:23:57.293Z</time></trkpt><trkpt lat="44.9764217" lon="8.2805033"><ele>225.2</ele><time>2026-04-11T12:23:58.293Z</time></trkpt><trkpt lat="44.9764" lon="8.2806417"><ele>224.6</ele><time>2026-04-11T12:23:59.293Z</time></trkpt><trkpt lat="44.9763833" lon="8.2807817"><ele>224.0</ele><time>2026-04-11T12:24:00.293Z</time></trkpt><trkpt lat="44.97636" lon="8.2809233"><ele>223.6</ele><time>2026-04-11T12:24:01.293Z</time></trkpt><trkpt lat="44.9763483" lon="8.28105"><ele>223.2</ele><time>2026-04-11T12:24:02.294Z</time></trkpt><trkpt lat="44.97633" lon="8.2811783"><ele>222.79999999999998</ele><time>2026-04-11T12:24:03.293Z</time></trkpt><trkpt lat="44.9763117" lon="8.2813067"><ele>222.39999999999998</ele><time>2026-04-11T12:24:04.293Z</time></trkpt><trkpt lat="44.9762933" lon="8.2814417"><ele>222.0</ele><time>2026-04-11T12:24:05.293Z</time></trkpt><trkpt lat="44.9762783" lon="8.28157"><ele>222.0</ele><time>2026-04-11T12:24:06.293Z</time></trkpt><trkpt lat="44.9762533" lon="8.2816933"><ele>222.0</ele><time>2026-04-11T12:24:07.293Z</time></trkpt><trkpt lat="44.9762367" lon="8.2817983"><ele>222.0</ele><time>2026-04-11T12:24:08.293Z</time></trkpt><trkpt lat="44.97622" lon="8.2818867"><ele>222.0</ele><time>2026-04-11T12:24:09.294Z</time></trkpt><trkpt lat="44.9761983" lon="8.2820267"><ele>222.0</ele><time>2026-04-11T12:24:11.294Z</time></trkpt><trkpt lat="44.9761833" lon="8.282125"><ele>222.0</ele><time>2026-04-11T12:24:14.293Z</time></trkpt><trkpt lat="44.9763867" lon="8.2822133"><ele>222.0</ele><time>2026-04-11T12:24:26.293Z</time></trkpt><trkpt lat="44.976515" lon="8.2822217"><ele>222.0</ele><time>2026-04-11T12:24:27.293Z</time></trkpt><trkpt lat="44.97664" lon="8.2822283"><ele>222.0</ele><time>2026-04-11T12:24:28.293Z</time></trkpt><trkpt lat="44.976865" lon="8.2822767"><ele>222.2</ele><time>2026-04-11T12:24:30.293Z</time></trkpt><trkpt lat="44.9769633" lon="8.28232"><ele>222.39999999999998</ele><time>2026-04-11T12:24:31.293Z</time></trkpt><trkpt lat="44.9770467" lon="8.28237"><ele>222.60000000000002</ele><time>2026-04-11T12:24:32.294Z</time></trkpt><trkpt lat="44.9771117" lon="8.2824567"><ele>222.8</ele><time>2026-04-11T12:24:33.293Z</time></trkpt><trkpt lat="44.9771583" lon="8.2825633"><ele>223.0</ele><time>2026-04-11T12:24:34.293Z</time></trkpt><trkpt lat="44.9771983" lon="8.2827067"><ele>223.0</ele><time>2026-04-11T12:24:35.293Z</time></trkpt><trkpt lat="44.9772633" lon="8.283025"><ele>223.0</ele><time>2026-04-11T12:24:37.294Z</time></trkpt><trkpt lat="44.9772867" lon="8.2831917"><ele>223.0</ele><time>2026-04-11T12:24:38.293Z</time></trkpt><trkpt lat="44.97729" lon="8.283375"><ele>221.33333333333331</ele><time>2026-04-11T12:24:39.293Z</time></trkpt><trkpt lat="44.97727" lon="8.2835583"><ele>219.66666666666669</ele><time>2026-04-11T12:24:40.294Z</time></trkpt><trkpt lat="44.9772117" lon="8.28392"><ele>218.0</ele><time>2026-04-11T12:24:42.293Z</time></trkpt><trkpt lat="44.97719" lon="8.284095"><ele>216.5</ele><time>2026-04-11T12:24:43.293Z</time></trkpt><trkpt lat="44.9771717" lon="8.284275"><ele>215.0</ele><time>2026-04-11T12:24:44.294Z</time></trkpt><trkpt lat="44.97716" lon="8.2844467"><ele>213.5</ele><time>2026-04-11T12:24:45.293Z</time></trkpt><trkpt lat="44.9771617" lon="8.2846083"><ele>212.0</ele><time>2026-04-11T12:24:46.294Z</time></trkpt><trkpt lat="44.9771867" lon="8.2847483"><ele>209.66666666666669</ele><time>2026-04-11T12:24:47.294Z</time></trkpt><trkpt lat="44.9772217" lon="8.28489"><ele>207.33333333333331</ele><time>2026-04-11T12:24:48.294Z</time></trkpt><trkpt lat="44.9773583" lon="8.2852233"><ele>205.0</ele><time>2026-04-11T12:24:51.293Z</time></trkpt><trkpt lat="44.9774183" lon="8.2852967"><ele>205.0</ele><time>2026-04-11T12:24:52.293Z</time></trkpt><trkpt lat="44.9774917" lon="8.285345"><ele>205.0</ele><time>2026-04-11T12:24:53.293Z</time></trkpt><trkpt lat="44.977575" lon="8.2854033"><ele>205.0</ele><time>2026-04-11T12:24:54.294Z</time></trkpt><trkpt lat="44.977665" lon="8.2854667"><ele>205.0</ele><time>2026-04-11T12:24:55.293Z</time></trkpt><trkpt lat="44.9777617" lon="8.2855233"><ele>205.0</ele><time>2026-04-11T12:24:56.293Z</time></trkpt><trkpt lat="44.9778567" lon="8.2855783"><ele>205.2</ele><time>2026-04-11T12:24:57.294Z</time></trkpt><trkpt lat="44.9779433" lon="8.28563"><ele>205.4</ele><time>2026-04-11T12:24:58.294Z</time></trkpt><trkpt lat="44.9780267" lon="8.285695"><ele>205.60000000000002</ele><time>2026-04-11T12:24:59.293Z</time></trkpt><trkpt lat="44.9781117" lon="8.2857567"><ele>205.8</ele><time>2026-04-11T12:25:00.294Z</time></trkpt><trkpt lat="44.9781933" lon="8.2858217"><ele>206.0</ele><time>2026-04-11T12:25:01.293Z</time></trkpt><trkpt lat="44.9782733" lon="8.285895"><ele>206.00000000000003</ele><time>2026-04-11T12:25:02.293Z</time></trkpt><trkpt lat="44.9783483" lon="8.2859683"><ele>206.0</ele><time>2026-04-11T12:25:03.293Z</time></trkpt><trkpt lat="44.97841" lon="8.2860683"><ele>206.0</ele><time>2026-04-11T12:25:04.293Z</time></trkpt><trkpt lat="44.9784667" lon="8.2861733"><ele>206.0</ele><time>2026-04-11T12:25:05.293Z</time></trkpt><trkpt lat="44.97852" lon="8.2862733"><ele>206.00000000000003</ele><time>2026-04-11T12:25:06.293Z</time></trkpt><trkpt lat="44.978565" lon="8.28636"><ele>206.0</ele><time>2026-04-11T12:25:07.293Z</time></trkpt><trkpt lat="44.9785967" lon="8.2864533"><ele>207.00000000000003</ele><time>2026-04-11T12:25:08.294Z</time></trkpt><trkpt lat="44.978595" lon="8.2865517"><ele>208.0</ele><time>2026-04-11T12:25:09.294Z</time></trkpt><trkpt lat="44.9785733" lon="8.2866533"><ele>209.0</ele><time>2026-04-11T12:25:10.293Z</time></trkpt><trkpt lat="44.978535" lon="8.2867717"><ele>210.0</ele><time>2026-04-11T12:25:11.293Z</time></trkpt><trkpt lat="44.97849" lon="8.2868867"><ele>211.00000000000003</ele><time>2026-04-11T12:25:12.294Z</time></trkpt><trkpt lat="44.9784383" lon="8.2869917"><ele>212.0</ele><time>2026-04-11T12:25:13.293Z</time></trkpt><trkpt lat="44.9783683" lon="8.28707"><ele>211.6</ele><time>2026-04-11T12:25:14.294Z</time></trkpt><trkpt lat="44.9782817" lon="8.2871283"><ele>211.2</ele><time>2026-04-11T12:25:15.294Z</time></trkpt><trkpt lat="44.9781917" lon="8.2871683"><ele>210.8</ele><time>2026-04-11T12:25:16.293Z</time></trkpt><trkpt lat="44.9780917" lon="8.2872083"><ele>210.4</ele><time>2026-04-11T12:25:17.294Z</time></trkpt><trkpt lat="44.977995" lon="8.2872517"><ele>210.0</ele><time>2026-04-11T12:25:18.293Z</time></trkpt><trkpt lat="44.9779017" lon="8.2873017"><ele>210.0</ele><time>2026-04-11T12:25:19.293Z</time></trkpt><trkpt lat="44.97781" lon="8.2873533"><ele>210.0</ele><time>2026-04-11T12:25:20.293Z</time></trkpt><trkpt lat="44.9777167" lon="8.2873917"><ele>210.0</ele><time>2026-04-11T12:25:21.293Z</time></trkpt><trkpt lat="44.9776333" lon="8.2874233"><ele>210.0</ele><time>2026-04-11T12:25:22.293Z</time></trkpt><trkpt lat="44.977545" lon="8.287445"><ele>210.0</ele><time>2026-04-11T12:25:23.293Z</time></trkpt><trkpt lat="44.9774533" lon="8.28745"><ele>209.8</ele><time>2026-04-11T12:25:24.294Z</time></trkpt><trkpt lat="44.9773583" lon="8.28746"><ele>209.6</ele><time>2026-04-11T12:25:25.293Z</time></trkpt><trkpt lat="44.9772567" lon="8.287485"><ele>209.39999999999998</ele><time>2026-04-11T12:25:26.294Z</time></trkpt><trkpt lat="44.9771633" lon="8.2875033"><ele>209.2</ele><time>2026-04-11T12:25:27.293Z</time></trkpt><trkpt lat="44.9770717" lon="8.2875333"><ele>209.0</ele><time>2026-04-11T12:25:28.293Z</time></trkpt><trkpt lat="44.97699" lon="8.287575"><ele>209.00000000000003</ele><time>2026-04-11T12:25:29.293Z</time></trkpt><trkpt lat="44.976915" lon="8.2876317"><ele>209.0</ele><time>2026-04-11T12:25:30.293Z</time></trkpt><trkpt lat="44.9768467" lon="8.2877067"><ele>209.0</ele><time>2026-04-11T12:25:31.293Z</time></trkpt><trkpt lat="44.9767833" lon="8.2877967"><ele>209.0</ele><time>2026-04-11T12:25:32.293Z</time></trkpt><trkpt lat="44.9767167" lon="8.2878883"><ele>209.00000000000003</ele><time>2026-04-11T12:25:33.293Z</time></trkpt><trkpt lat="44.9766433" lon="8.28796"><ele>209.0</ele><time>2026-04-11T12:25:34.293Z</time></trkpt><trkpt lat="44.976565" lon="8.2880183"><ele>208.66666666666669</ele><time>2026-04-11T12:25:35.293Z</time></trkpt><trkpt lat="44.9764917" lon="8.28808"><ele>208.33333333333334</ele><time>2026-04-11T12:25:36.294Z</time></trkpt><trkpt lat="44.9764217" lon="8.28815"><ele>208.0</ele><time>2026-04-11T12:25:37.293Z</time></trkpt><trkpt lat="44.97636" lon="8.2882233"><ele>207.66666666666669</ele><time>2026-04-11T12:25:38.294Z</time></trkpt><trkpt lat="44.9763133" lon="8.2883167"><ele>207.33333333333334</ele><time>2026-04-11T12:25:39.293Z</time></trkpt><trkpt lat="44.9762667" lon="8.288405"><ele>207.0</ele><time>2026-04-11T12:25:40.293Z</time></trkpt><trkpt lat="44.9762117" lon="8.2884833"><ele>208.33333333333334</ele><time>2026-04-11T12:25:41.293Z</time></trkpt><trkpt lat="44.97615" lon="8.288545"><ele>209.66666666666669</ele><time>2026-04-11T12:25:42.293Z</time></trkpt><trkpt lat="44.97607" lon="8.2885817"><ele>211.0</ele><time>2026-04-11T12:25:43.294Z</time></trkpt><trkpt lat="44.9759833" lon="8.2885983"><ele>212.33333333333334</ele><time>2026-04-11T12:25:44.293Z</time></trkpt><trkpt lat="44.9758833" lon="8.2886267"><ele>213.66666666666669</ele><time>2026-04-11T12:25:45.294Z</time></trkpt><trkpt lat="44.9757867" lon="8.288655"><ele>215.0</ele><time>2026-04-11T12:25:46.293Z</time></trkpt><trkpt lat="44.9757" lon="8.2886883"><ele>215.16666666666669</ele><time>2026-04-11T12:25:47.293Z</time></trkpt><trkpt lat="44.9756217" lon="8.2887183"><ele>215.33333333333334</ele><time>2026-04-11T12:25:48.293Z</time></trkpt><trkpt lat="44.9755483" lon="8.2887517"><ele>215.5</ele><time>2026-04-11T12:25:49.293Z</time></trkpt><trkpt lat="44.975485" lon="8.2887633"><ele>215.66666666666669</ele><time>2026-04-11T12:25:50.293Z</time></trkpt><trkpt lat="44.975405" lon="8.2887783"><ele>215.83333333333334</ele><time>2026-04-11T12:25:51.293Z</time></trkpt><trkpt lat="44.9753267" lon="8.288795"><ele>216.0</ele><time>2026-04-11T12:25:52.293Z</time></trkpt><trkpt lat="44.9752483" lon="8.2888117"><ele>216.0</ele><time>2026-04-11T12:25:53.294Z</time></trkpt><trkpt lat="44.97517" lon="8.2888333"><ele>216.0</ele><time>2026-04-11T12:25:54.293Z</time></trkpt><trkpt lat="44.9750833" lon="8.2888567"><ele>216.0</ele><time>2026-04-11T12:25:55.293Z</time></trkpt><trkpt lat="44.9749967" lon="8.2888817"><ele>216.0</ele><time>2026-04-11T12:25:56.293Z</time></trkpt><trkpt lat="44.97491" lon="8.2889083"><ele>216.0</ele><time>2026-04-11T12:25:57.294Z</time></trkpt><trkpt lat="44.9748283" lon="8.28893"><ele>216.0</ele><time>2026-04-11T12:25:58.294Z</time></trkpt><trkpt lat="44.97474" lon="8.2889533"><ele>219.33333333333334</ele><time>2026-04-11T12:25:59.293Z</time></trkpt><trkpt lat="44.9746517" lon="8.2889667"><ele>222.66666666666669</ele><time>2026-04-11T12:26:00.293Z</time></trkpt><trkpt lat="44.9745683" lon="8.2889767"><ele>226.0</ele><time>2026-04-11T12:26:01.293Z</time></trkpt><trkpt lat="44.9744867" lon="8.28898"><ele>229.33333333333334</ele><time>2026-04-11T12:26:02.293Z</time></trkpt><trkpt lat="44.9744067" lon="8.288975"><ele>232.66666666666669</ele><time>2026-04-11T12:26:03.294Z</time></trkpt><trkpt lat="44.974335" lon="8.28896"><ele>236.0</ele><time>2026-04-11T12:26:04.294Z</time></trkpt><trkpt lat="44.9742717" lon="8.2889533"><ele>236.0</ele><time>2026-04-11T12:26:05.293Z</time></trkpt><trkpt lat="44.9741633" lon="8.288935"><ele>236.00000000000003</ele><time>2026-04-11T12:26:07.293Z</time></trkpt><trkpt lat="44.9740767" lon="8.2888833"><ele>236.00000000000003</ele><time>2026-04-11T12:26:09.293Z</time></trkpt><trkpt lat="44.9740067" lon="8.2888333"><ele>236.0</ele><time>2026-04-11T12:26:11.293Z</time></trkpt><trkpt lat="44.9739217" lon="8.2887933"><ele>236.0</ele><time>2026-04-11T12:26:14.293Z</time></trkpt><trkpt lat="44.9738467" lon="8.2887567"><ele>235.4</ele><time>2026-04-11T12:26:17.293Z</time></trkpt><trkpt lat="44.97376" lon="8.2887383"><ele>234.8</ele><time>2026-04-11T12:26:20.293Z</time></trkpt><trkpt lat="44.9736567" lon="8.2887033"><ele>234.20000000000002</ele><time>2026-04-11T12:26:42.294Z</time></trkpt><trkpt lat="44.9735133" lon="8.28865"><ele>233.60000000000002</ele><time>2026-04-11T12:26:44.293Z</time></trkpt><trkpt lat="44.9734333" lon="8.2886167"><ele>233.0</ele><time>2026-04-11T12:26:45.293Z</time></trkpt><trkpt lat="44.97334" lon="8.288575"><ele>233.0</ele><time>2026-04-11T12:26:46.293Z</time></trkpt><trkpt lat="44.9732483" lon="8.288545"><ele>233.0</ele><time>2026-04-11T12:26:47.293Z</time></trkpt><trkpt lat="44.9731567" lon="8.288515"><ele>233.0</ele><time>2026-04-11T12:26:48.294Z</time></trkpt><trkpt lat="44.9730633" lon="8.2884967"><ele>233.0</ele><time>2026-04-11T12:26:49.293Z</time></trkpt><trkpt lat="44.97296" lon="8.28847"><ele>233.0</ele><time>2026-04-11T12:26:50.293Z</time></trkpt><trkpt lat="44.9728483" lon="8.2884433"><ele>233.0</ele><time>2026-04-11T12:26:51.293Z</time></trkpt><trkpt lat="44.972735" lon="8.2884167"><ele>233.0</ele><time>2026-04-11T12:26:52.294Z</time></trkpt><trkpt lat="44.9726183" lon="8.2884017"><ele>233.0</ele><time>2026-04-11T12:26:53.293Z</time></trkpt><trkpt lat="44.972495" lon="8.2884083"><ele>233.0</ele><time>2026-04-11T12:26:54.293Z</time></trkpt><trkpt lat="44.9723817" lon="8.2884267"><ele>233.25</ele><time>2026-04-11T12:26:55.293Z</time></trkpt><trkpt lat="44.97226" lon="8.2884517"><ele>233.5</ele><time>2026-04-11T12:26:56.293Z</time></trkpt><trkpt lat="44.9721417" lon="8.2884933"><ele>233.75</ele><time>2026-04-11T12:26:57.294Z</time></trkpt><trkpt lat="44.9720133" lon="8.2885383"><ele>234.0</ele><time>2026-04-11T12:26:58.293Z</time></trkpt><trkpt lat="44.971885" lon="8.2885817"><ele>234.0</ele><time>2026-04-11T12:26:59.294Z</time></trkpt><trkpt lat="44.9717633" lon="8.2886233"><ele>234.0</ele><time>2026-04-11T12:27:00.293Z</time></trkpt><trkpt lat="44.971645" lon="8.2886667"><ele>234.0</ele><time>2026-04-11T12:27:01.293Z</time></trkpt><trkpt lat="44.9715367" lon="8.2887117"><ele>234.0</ele><time>2026-04-11T12:27:02.293Z</time></trkpt><trkpt lat="44.971435" lon="8.288755"><ele>234.0</ele><time>2026-04-11T12:27:03.293Z</time></trkpt><trkpt lat="44.9713383" lon="8.2888017"><ele>233.99999999999997</ele><time>2026-04-11T12:27:04.293Z</time></trkpt><trkpt lat="44.971245" lon="8.28884"><ele>233.99999999999997</ele><time>2026-04-11T12:27:05.293Z</time></trkpt><trkpt lat="44.9711633" lon="8.28889"><ele>234.0</ele><time>2026-04-11T12:27:06.293Z</time></trkpt><trkpt lat="44.97108" lon="8.2889467"><ele>234.0</ele><time>2026-04-11T12:27:07.293Z</time></trkpt><trkpt lat="44.971005" lon="8.2889983"><ele>234.0</ele><time>2026-04-11T12:27:08.294Z</time></trkpt><trkpt lat="44.970935" lon="8.28906"><ele>233.99999999999997</ele><time>2026-04-11T12:27:09.294Z</time></trkpt><trkpt lat="44.97086" lon="8.2891183"><ele>233.99999999999997</ele><time>2026-04-11T12:27:10.293Z</time></trkpt><trkpt lat="44.9707817" lon="8.2891883"><ele>234.0</ele><time>2026-04-11T12:27:11.293Z</time></trkpt><trkpt lat="44.9706983" lon="8.2892533"><ele>234.0</ele><time>2026-04-11T12:27:12.293Z</time></trkpt><trkpt lat="44.9706067" lon="8.2893233"><ele>236.2</ele><time>2026-04-11T12:27:13.293Z</time></trkpt><trkpt lat="44.970515" lon="8.2893883"><ele>238.39999999999998</ele><time>2026-04-11T12:27:14.293Z</time></trkpt><trkpt lat="44.9704217" lon="8.2894517"><ele>240.6</ele><time>2026-04-11T12:27:15.293Z</time></trkpt><trkpt lat="44.9703467" lon="8.2895017"><ele>242.8</ele><time>2026-04-11T12:27:16.293Z</time></trkpt><trkpt lat="44.9702467" lon="8.2895567"><ele>245.0</ele><time>2026-04-11T12:27:18.293Z</time></trkpt><trkpt lat="44.9701817" lon="8.28953"><ele>245.0</ele><time>2026-04-11T12:27:21.293Z</time></trkpt><trkpt lat="44.9701433" lon="8.2894483"><ele>245.0</ele><time>2026-04-11T12:31:44.292Z</time></trkpt><trkpt lat="44.97005" lon="8.2893717"><ele>245.0</ele><time>2026-04-11T12:31:47.291Z</time></trkpt><trkpt lat="44.96997" lon="8.28929"><ele>245.0</ele><time>2026-04-11T12:31:49.292Z</time></trkpt><trkpt lat="44.9699" lon="8.289205"><ele>245.0</ele><time>2026-04-11T12:31:51.291Z</time></trkpt><trkpt lat="44.96983" lon="8.2891133"><ele>244.66666666666669</ele><time>2026-04-11T12:31:53.292Z</time></trkpt><trkpt lat="44.9697583" lon="8.2890167"><ele>244.33333333333334</ele><time>2026-04-11T12:31:55.291Z</time></trkpt><trkpt lat="44.9696767" lon="8.288925"><ele>244.0</ele><time>2026-04-11T12:31:57.292Z</time></trkpt><trkpt lat="44.969595" lon="8.288825"><ele>243.66666666666669</ele><time>2026-04-11T12:31:59.291Z</time></trkpt><trkpt lat="44.9695433" lon="8.288765"><ele>243.33333333333334</ele><time>2026-04-11T12:32:00.291Z</time></trkpt><trkpt lat="44.969485" lon="8.2887233"><ele>243.0</ele><time>2026-04-11T12:32:01.291Z</time></trkpt><trkpt lat="44.9694167" lon="8.288685"><ele>240.83333333333334</ele><time>2026-04-11T12:32:02.291Z</time></trkpt><trkpt lat="44.9693533" lon="8.2886567"><ele>238.66666666666669</ele><time>2026-04-11T12:32:03.291Z</time></trkpt><trkpt lat="44.969285" lon="8.2886333"><ele>236.5</ele><time>2026-04-11T12:32:04.291Z</time></trkpt><trkpt lat="44.9691567" lon="8.2885833"><ele>234.33333333333334</ele><time>2026-04-11T12:32:06.291Z</time></trkpt><trkpt lat="44.969085" lon="8.2885583"><ele>232.16666666666669</ele><time>2026-04-11T12:32:07.292Z</time></trkpt><trkpt lat="44.9690133" lon="8.28853"><ele>230.0</ele><time>2026-04-11T12:32:08.291Z</time></trkpt><trkpt lat="44.96895" lon="8.2885"><ele>229.0</ele><time>2026-04-11T12:32:09.291Z</time></trkpt><trkpt lat="44.96883" lon="8.2884383"><ele>228.0</ele><time>2026-04-11T12:32:11.291Z</time></trkpt><trkpt lat="44.968715" lon="8.28836"><ele>227.0</ele><time>2026-04-11T12:32:13.292Z</time></trkpt><trkpt lat="44.9686533" lon="8.2882983"><ele>226.0</ele><time>2026-04-11T12:32:14.291Z</time></trkpt><trkpt lat="44.9685917" lon="8.2882283"><ele>225.0</ele><time>2026-04-11T12:32:15.292Z</time></trkpt><trkpt lat="44.9685283" lon="8.2881467"><ele>223.6</ele><time>2026-04-11T12:32:16.291Z</time></trkpt><trkpt lat="44.96846" lon="8.28807"><ele>222.2</ele><time>2026-04-11T12:32:17.292Z</time></trkpt><trkpt lat="44.968335" lon="8.287895"><ele>220.8</ele><time>2026-04-11T12:32:19.291Z</time></trkpt><trkpt lat="44.968275" lon="8.2878"><ele>219.4</ele><time>2026-04-11T12:32:20.291Z</time></trkpt><trkpt lat="44.9682233" lon="8.2876983"><ele>218.0</ele><time>2026-04-11T12:32:21.292Z</time></trkpt><trkpt lat="44.9681767" lon="8.2876183"><ele>218.00000000000003</ele><time>2026-04-11T12:32:22.291Z</time></trkpt><trkpt lat="44.9681183" lon="8.2875567"><ele>218.0</ele><time>2026-04-11T12:32:23.291Z</time></trkpt><trkpt lat="44.9680567" lon="8.28751"><ele>218.0</ele><time>2026-04-11T12:32:24.291Z</time></trkpt><trkpt lat="44.967985" lon="8.2874733"><ele>218.0</ele><time>2026-04-11T12:32:25.291Z</time></trkpt><trkpt lat="44.9679033" lon="8.2874417"><ele>218.00000000000003</ele><time>2026-04-11T12:32:26.291Z</time></trkpt><trkpt lat="44.9678217" lon="8.287405"><ele>218.0</ele><time>2026-04-11T12:32:27.291Z</time></trkpt><trkpt lat="44.9677367" lon="8.2873517"><ele>218.00000000000003</ele><time>2026-04-11T12:32:28.292Z</time></trkpt><trkpt lat="44.9676533" lon="8.2872983"><ele>218.0</ele><time>2026-04-11T12:32:29.291Z</time></trkpt><trkpt lat="44.9675633" lon="8.287255"><ele>218.0</ele><time>2026-04-11T12:32:30.291Z</time></trkpt><trkpt lat="44.9674867" lon="8.287225"><ele>218.0</ele><time>2026-04-11T12:32:31.291Z</time></trkpt><trkpt lat="44.96741" lon="8.2871983"><ele>218.00000000000003</ele><time>2026-04-11T12:32:32.291Z</time></trkpt><trkpt lat="44.9673317" lon="8.28718"><ele>218.0</ele><time>2026-04-11T12:32:33.292Z</time></trkpt><trkpt lat="44.9672517" lon="8.2871517"><ele>214.16666666666669</ele><time>2026-04-11T12:32:34.291Z</time></trkpt><trkpt lat="44.9671717" lon="8.2871183"><ele>210.33333333333334</ele><time>2026-04-11T12:32:35.291Z</time></trkpt><trkpt lat="44.9670983" lon="8.287095"><ele>206.5</ele><time>2026-04-11T12:32:36.292Z</time></trkpt><trkpt lat="44.96702" lon="8.2870683"><ele>202.66666666666669</ele><time>2026-04-11T12:32:37.291Z</time></trkpt><trkpt lat="44.96694" lon="8.287045"><ele>198.83333333333334</ele><time>2026-04-11T12:32:38.291Z</time></trkpt><trkpt lat="44.9668617" lon="8.28702"><ele>195.0</ele><time>2026-04-11T12:32:39.291Z</time></trkpt><trkpt lat="44.9667833" lon="8.2870017"><ele>195.0</ele><time>2026-04-11T12:32:40.292Z</time></trkpt><trkpt lat="44.9667033" lon="8.28698"><ele>195.0</ele><time>2026-04-11T12:32:41.291Z</time></trkpt><trkpt lat="44.9666317" lon="8.28696"><ele>195.0</ele><time>2026-04-11T12:32:42.291Z</time></trkpt><trkpt lat="44.9665667" lon="8.2869383"><ele>195.0</ele><time>2026-04-11T12:32:43.291Z</time></trkpt><trkpt lat="44.9664933" lon="8.2869167"><ele>195.0</ele><time>2026-04-11T12:32:44.291Z</time></trkpt><trkpt lat="44.9664133" lon="8.2868967"><ele>195.0</ele><time>2026-04-11T12:32:45.291Z</time></trkpt><trkpt lat="44.9662633" lon="8.2868733"><ele>194.16666666666666</ele><time>2026-04-11T12:32:47.291Z</time></trkpt><trkpt lat="44.966185" lon="8.286865"><ele>193.33333333333334</ele><time>2026-04-11T12:32:48.292Z</time></trkpt><trkpt lat="44.9661" lon="8.2868617"><ele>192.5</ele><time>2026-04-11T12:32:49.291Z</time></trkpt><trkpt lat="44.96602" lon="8.286845"><ele>191.66666666666669</ele><time>2026-04-11T12:32:50.291Z</time></trkpt><trkpt lat="44.96594" lon="8.2868233"><ele>190.83333333333334</ele><time>2026-04-11T12:32:51.291Z</time></trkpt><trkpt lat="44.9658583" lon="8.286815"><ele>190.0</ele><time>2026-04-11T12:32:52.291Z</time></trkpt><trkpt lat="44.965775" lon="8.2867933"><ele>189.66666666666669</ele><time>2026-04-11T12:32:53.292Z</time></trkpt><trkpt lat="44.9656917" lon="8.286775"><ele>189.33333333333334</ele><time>2026-04-11T12:32:54.291Z</time></trkpt><trkpt lat="44.9656033" lon="8.2867467"><ele>189.0</ele><time>2026-04-11T12:32:55.292Z</time></trkpt><trkpt lat="44.96552" lon="8.286715"><ele>188.66666666666666</ele><time>2026-04-11T12:32:56.291Z</time></trkpt><trkpt lat="44.9654417" lon="8.286675"><ele>188.33333333333331</ele><time>2026-04-11T12:32:57.291Z</time></trkpt><trkpt lat="44.9653683" lon="8.2866333"><ele>188.0</ele><time>2026-04-11T12:32:58.291Z</time></trkpt><trkpt lat="44.965305" lon="8.2865933"><ele>188.0</ele><time>2026-04-11T12:32:59.291Z</time></trkpt><trkpt lat="44.9652317" lon="8.28656"><ele>188.0</ele><time>2026-04-11T12:33:00.292Z</time></trkpt><trkpt lat="44.96516" lon="8.286525"><ele>188.0</ele><time>2026-04-11T12:33:01.292Z</time></trkpt><trkpt lat="44.9650917" lon="8.286495"><ele>188.0</ele><time>2026-04-11T12:33:02.292Z</time></trkpt><trkpt lat="44.965025" lon="8.2864733"><ele>188.0</ele><time>2026-04-11T12:33:03.292Z</time></trkpt><trkpt lat="44.9649617" lon="8.28646"><ele>188.0</ele><time>2026-04-11T12:33:04.291Z</time></trkpt><trkpt lat="44.9648967" lon="8.2864517"><ele>188.0</ele><time>2026-04-11T12:33:05.291Z</time></trkpt><trkpt lat="44.96479" lon="8.2864467"><ele>187.0</ele><time>2026-04-11T12:33:07.291Z</time></trkpt><trkpt lat="44.96467" lon="8.2864283"><ele>186.0</ele><time>2026-04-11T12:33:09.291Z</time></trkpt><trkpt lat="44.9646" lon="8.2864333"><ele>185.0</ele><time>2026-04-11T12:33:10.291Z</time></trkpt><trkpt lat="44.9645333" lon="8.286445"><ele>184.0</ele><time>2026-04-11T12:33:11.292Z</time></trkpt><trkpt lat="44.9644667" lon="8.286455"><ele>183.0</ele><time>2026-04-11T12:33:12.291Z</time></trkpt><trkpt lat="44.9644017" lon="8.2864667"><ele>182.0</ele><time>2026-04-11T12:33:13.291Z</time></trkpt><trkpt lat="44.96432" lon="8.2864767"><ele>182.0</ele><time>2026-04-11T12:33:14.291Z</time></trkpt><trkpt lat="44.9642383" lon="8.2864883"><ele>182.0</ele><time>2026-04-11T12:33:15.291Z</time></trkpt><trkpt lat="44.9641533" lon="8.2864967"><ele>182.0</ele><time>2026-04-11T12:33:16.291Z</time></trkpt><trkpt lat="44.9640583" lon="8.28651"><ele>182.0</ele><time>2026-04-11T12:33:17.291Z</time></trkpt><trkpt lat="44.9639683" lon="8.28652"><ele>182.0</ele><time>2026-04-11T12:33:18.292Z</time></trkpt><trkpt lat="44.9638817" lon="8.2865267"><ele>182.0</ele><time>2026-04-11T12:33:19.291Z</time></trkpt><trkpt lat="44.963795" lon="8.286515"><ele>180.2</ele><time>2026-04-11T12:33:20.292Z</time></trkpt><trkpt lat="44.9637067" lon="8.2864917"><ele>178.39999999999998</ele><time>2026-04-11T12:33:21.291Z</time></trkpt><trkpt lat="44.9636217" lon="8.2864667"><ele>176.60000000000002</ele><time>2026-04-11T12:33:22.291Z</time></trkpt><trkpt lat="44.9635367" lon="8.28644"><ele>174.8</ele><time>2026-04-11T12:33:23.291Z</time></trkpt><trkpt lat="44.9633817" lon="8.2863733"><ele>173.0</ele><time>2026-04-11T12:33:25.291Z</time></trkpt><trkpt lat="44.9633133" lon="8.2863433"><ele>171.16666666666666</ele><time>2026-04-11T12:33:26.291Z</time></trkpt><trkpt lat="44.9632433" lon="8.2863133"><ele>169.33333333333331</ele><time>2026-04-11T12:33:27.291Z</time></trkpt><trkpt lat="44.9631767" lon="8.2862917"><ele>167.5</ele><time>2026-04-11T12:33:28.291Z</time></trkpt><trkpt lat="44.9630783" lon="8.2862633"><ele>165.66666666666666</ele><time>2026-04-11T12:33:30.292Z</time></trkpt><trkpt lat="44.9630167" lon="8.2862267"><ele>163.83333333333334</ele><time>2026-04-11T12:33:32.291Z</time></trkpt><trkpt lat="44.963015" lon="8.286125"><ele>162.0</ele><time>2026-04-11T12:33:35.292Z</time></trkpt><trkpt lat="44.9630817" lon="8.28604"><ele>162.0</ele><time>2026-04-11T12:33:37.292Z</time></trkpt><trkpt lat="44.9631367" lon="8.2859867"><ele>162.0</ele><time>2026-04-11T12:33:38.291Z</time></trkpt><trkpt lat="44.963205" lon="8.2859417"><ele>162.0</ele><time>2026-04-11T12:33:39.291Z</time></trkpt><trkpt lat="44.9632833" lon="8.2858967"><ele>162.0</ele><time>2026-04-11T12:33:40.291Z</time></trkpt><trkpt lat="44.9633767" lon="8.28585"><ele>162.0</ele><time>2026-04-11T12:33:41.291Z</time></trkpt><trkpt lat="44.9634867" lon="8.2858017"><ele>162.0</ele><time>2026-04-11T12:33:42.292Z</time></trkpt><trkpt lat="44.9636" lon="8.2857533"><ele>162.5</ele><time>2026-04-11T12:33:43.291Z</time></trkpt><trkpt lat="44.9637183" lon="8.2856883"><ele>163.0</ele><time>2026-04-11T12:33:44.291Z</time></trkpt><trkpt lat="44.963835" lon="8.2856467"><ele>163.5</ele><time>2026-04-11T12:33:45.291Z</time></trkpt><trkpt lat="44.9639517" lon="8.2856117"><ele>164.0</ele><time>2026-04-11T12:33:46.291Z</time></trkpt><trkpt lat="44.9640783" lon="8.2855617"><ele>164.0</ele><time>2026-04-11T12:33:47.291Z</time></trkpt><trkpt lat="44.9641933" lon="8.28552"><ele>164.0</ele><time>2026-04-11T12:33:48.291Z</time></trkpt><trkpt lat="44.9643217" lon="8.2854933"><ele>164.0</ele><time>2026-04-11T12:33:49.292Z</time></trkpt><trkpt lat="44.9644567" lon="8.2854667"><ele>164.0</ele><time>2026-04-11T12:33:50.291Z</time></trkpt><trkpt lat="44.964595" lon="8.28545"><ele>164.0</ele><time>2026-04-11T12:33:51.291Z</time></trkpt><trkpt lat="44.9647283" lon="8.2854067"><ele>164.0</ele><time>2026-04-11T12:33:52.291Z</time></trkpt><trkpt lat="44.964865" lon="8.285375"><ele>164.0</ele><time>2026-04-11T12:33:53.291Z</time></trkpt><trkpt lat="44.9650167" lon="8.2853667"><ele>164.0</ele><time>2026-04-11T12:33:54.291Z</time></trkpt><trkpt lat="44.9651717" lon="8.2853333"><ele>165.0</ele><time>2026-04-11T12:33:55.291Z</time></trkpt><trkpt lat="44.9653183" lon="8.2852967"><ele>166.0</ele><time>2026-04-11T12:33:56.291Z</time></trkpt><trkpt lat="44.965475" lon="8.2852767"><ele>167.0</ele><time>2026-04-11T12:33:57.291Z</time></trkpt><trkpt lat="44.9656183" lon="8.2852517"><ele>167.0</ele><time>2026-04-11T12:33:58.291Z</time></trkpt><trkpt lat="44.9657683" lon="8.285225"><ele>167.0</ele><time>2026-04-11T12:33:59.292Z</time></trkpt><trkpt lat="44.96593" lon="8.28519"><ele>167.0</ele><time>2026-04-11T12:34:00.291Z</time></trkpt><trkpt lat="44.9660733" lon="8.2851617"><ele>167.33333333333331</ele><time>2026-04-11T12:34:01.291Z</time></trkpt><trkpt lat="44.96622" lon="8.28514"><ele>167.66666666666666</ele><time>2026-04-11T12:34:02.291Z</time></trkpt><trkpt lat="44.9664867" lon="8.2850933"><ele>168.0</ele><time>2026-04-11T12:34:04.291Z</time></trkpt><trkpt lat="44.9666117" lon="8.2850567"><ele>168.75</ele><time>2026-04-11T12:34:05.291Z</time></trkpt><trkpt lat="44.9667333" lon="8.2850367"><ele>169.5</ele><time>2026-04-11T12:34:06.291Z</time></trkpt><trkpt lat="44.9668533" lon="8.2849967"><ele>170.25</ele><time>2026-04-11T12:34:07.291Z</time></trkpt><trkpt lat="44.9669683" lon="8.28497"><ele>171.0</ele><time>2026-04-11T12:34:08.291Z</time></trkpt><trkpt lat="44.9670833" lon="8.28495"><ele>171.0</ele><time>2026-04-11T12:34:09.291Z</time></trkpt><trkpt lat="44.9672067" lon="8.284945"><ele>171.0</ele><time>2026-04-11T12:34:10.292Z</time></trkpt><trkpt lat="44.9673167" lon="8.2849433"><ele>171.0</ele><time>2026-04-11T12:34:11.291Z</time></trkpt><trkpt lat="44.9674083" lon="8.2849433"><ele>171.0</ele><time>2026-04-11T12:34:12.291Z</time></trkpt><trkpt lat="44.9674917" lon="8.2849367"><ele>171.0</ele><time>2026-04-11T12:34:13.291Z</time></trkpt><trkpt lat="44.9675617" lon="8.2849217"><ele>171.33333333333334</ele><time>2026-04-11T12:34:14.291Z</time></trkpt><trkpt lat="44.96763" lon="8.2848867"><ele>171.66666666666666</ele><time>2026-04-11T12:34:15.291Z</time></trkpt><trkpt lat="44.96769" lon="8.2848283"><ele>172.0</ele><time>2026-04-11T12:34:16.292Z</time></trkpt><trkpt lat="44.96773" lon="8.2847267"><ele>172.33333333333331</ele><time>2026-04-11T12:34:17.291Z</time></trkpt><trkpt lat="44.96774" lon="8.28462"><ele>172.66666666666666</ele><time>2026-04-11T12:34:18.291Z</time></trkpt><trkpt lat="44.9677433" lon="8.2844983"><ele>173.0</ele><time>2026-04-11T12:34:19.292Z</time></trkpt><trkpt lat="44.9677283" lon="8.2843667"><ele>173.0</ele><time>2026-04-11T12:34:20.291Z</time></trkpt><trkpt lat="44.967715" lon="8.2842367"><ele>173.0</ele><time>2026-04-11T12:34:21.291Z</time></trkpt><trkpt lat="44.967705" lon="8.2841233"><ele>173.0</ele><time>2026-04-11T12:34:22.291Z</time></trkpt><trkpt lat="44.9677067" lon="8.2840267"><ele>173.0</ele><time>2026-04-11T12:34:23.291Z</time></trkpt><trkpt lat="44.967735" lon="8.2838933"><ele>173.0</ele><time>2026-04-11T12:34:25.291Z</time></trkpt><trkpt lat="44.96783" lon="8.283795"><ele>173.8</ele><time>2026-04-11T12:34:27.292Z</time></trkpt><trkpt lat="44.9679" lon="8.2837733"><ele>174.60000000000002</ele><time>2026-04-11T12:34:28.291Z</time></trkpt><trkpt lat="44.967985" lon="8.2837717"><ele>175.39999999999998</ele><time>2026-04-11T12:34:29.291Z</time></trkpt><trkpt lat="44.9680817" lon="8.2837767"><ele>176.2</ele><time>2026-04-11T12:34:30.291Z</time></trkpt><trkpt lat="44.9681783" lon="8.2837783"><ele>177.0</ele><time>2026-04-11T12:34:31.291Z</time></trkpt><trkpt lat="44.9682833" lon="8.283765"><ele>176.6</ele><time>2026-04-11T12:34:32.291Z</time></trkpt><trkpt lat="44.968385" lon="8.2837467"><ele>176.2</ele><time>2026-04-11T12:34:33.291Z</time></trkpt><trkpt lat="44.9684917" lon="8.28371"><ele>175.8</ele><time>2026-04-11T12:34:34.291Z</time></trkpt><trkpt lat="44.9686033" lon="8.2836517"><ele>175.4</ele><time>2026-04-11T12:34:35.291Z</time></trkpt><trkpt lat="44.968705" lon="8.28359"><ele>175.0</ele><time>2026-04-11T12:34:36.291Z</time></trkpt><trkpt lat="44.9688133" lon="8.28354"><ele>175.0</ele><time>2026-04-11T12:34:37.291Z</time></trkpt><trkpt lat="44.9689233" lon="8.2834883"><ele>175.0</ele><time>2026-04-11T12:34:38.291Z</time></trkpt><trkpt lat="44.96904" lon="8.2834533"><ele>175.0</ele><time>2026-04-11T12:34:39.291Z</time></trkpt><trkpt lat="44.9691483" lon="8.2834283"><ele>175.0</ele><time>2026-04-11T12:34:40.291Z</time></trkpt><trkpt lat="44.9692633" lon="8.283415"><ele>175.25</ele><time>2026-04-11T12:34:41.292Z</time></trkpt><trkpt lat="44.96938" lon="8.28341"><ele>175.5</ele><time>2026-04-11T12:34:42.291Z</time></trkpt><trkpt lat="44.9694983" lon="8.2834117"><ele>175.75</ele><time>2026-04-11T12:34:43.291Z</time></trkpt><trkpt lat="44.9696183" lon="8.2834033"><ele>176.0</ele><time>2026-04-11T12:34:44.291Z</time></trkpt><trkpt lat="44.96974" lon="8.2833933"><ele>176.0</ele><time>2026-04-11T12:34:45.291Z</time></trkpt><trkpt lat="44.969855" lon="8.283385"><ele>176.0</ele><time>2026-04-11T12:34:46.291Z</time></trkpt><trkpt lat="44.96996" lon="8.2833783"><ele>176.0</ele><time>2026-04-11T12:34:47.291Z</time></trkpt><trkpt lat="44.9700567" lon="8.2833817"><ele>176.0</ele><time>2026-04-11T12:34:48.291Z</time></trkpt><trkpt lat="44.9701267" lon="8.2833867"><ele>176.0</ele><time>2026-04-11T12:34:49.291Z</time></trkpt><trkpt lat="44.970245" lon="8.283395"><ele>176.60000000000002</ele><time>2026-04-11T12:34:51.291Z</time></trkpt><trkpt lat="44.9703417" lon="8.2833683"><ele>177.2</ele><time>2026-04-11T12:34:53.292Z</time></trkpt><trkpt lat="44.9704017" lon="8.2832867"><ele>177.8</ele><time>2026-04-11T12:34:55.291Z</time></trkpt><trkpt lat="44.9704167" lon="8.2831567"><ele>178.39999999999998</ele><time>2026-04-11T12:34:57.291Z</time></trkpt><trkpt lat="44.9704083" lon="8.2829933"><ele>179.0</ele><time>2026-04-11T12:34:59.291Z</time></trkpt><trkpt lat="44.97039" lon="8.28287"><ele>180.16666666666666</ele><time>2026-04-11T12:35:01.291Z</time></trkpt><trkpt lat="44.9703417" lon="8.2827217"><ele>181.33333333333331</ele><time>2026-04-11T12:35:03.291Z</time></trkpt><trkpt lat="44.9702983" lon="8.2826367"><ele>182.5</ele><time>2026-04-11T12:35:04.29Z</time></trkpt><trkpt lat="44.970245" lon="8.2825517"><ele>183.66666666666666</ele><time>2026-04-11T12:35:05.29Z</time></trkpt><trkpt lat="44.9701817" lon="8.2824783"><ele>184.83333333333334</ele><time>2026-04-11T12:35:06.29Z</time></trkpt><trkpt lat="44.97011" lon="8.2824117"><ele>186.0</ele><time>2026-04-11T12:35:07.29Z</time></trkpt><trkpt lat="44.9700317" lon="8.2823267"><ele>187.4</ele><time>2026-04-11T12:35:08.29Z</time></trkpt><trkpt lat="44.969955" lon="8.282235"><ele>188.8</ele><time>2026-04-11T12:35:09.291Z</time></trkpt><trkpt lat="44.9698733" lon="8.2821283"><ele>190.20000000000002</ele><time>2026-04-11T12:35:10.29Z</time></trkpt><trkpt lat="44.9698017" lon="8.2820083"><ele>191.60000000000002</ele><time>2026-04-11T12:35:11.29Z</time></trkpt><trkpt lat="44.9697317" lon="8.2819133"><ele>193.0</ele><time>2026-04-11T12:35:12.29Z</time></trkpt><trkpt lat="44.969665" lon="8.2818583"><ele>193.0</ele><time>2026-04-11T12:35:13.29Z</time></trkpt><trkpt lat="44.969585" lon="8.281815"><ele>193.0</ele><time>2026-04-11T12:35:14.29Z</time></trkpt><trkpt lat="44.969495" lon="8.2817933"><ele>193.0</ele><time>2026-04-11T12:35:15.29Z</time></trkpt><trkpt lat="44.969385" lon="8.2817783"><ele>193.0</ele><time>2026-04-11T12:35:16.291Z</time></trkpt><trkpt lat="44.9692617" lon="8.2817583"><ele>193.0</ele><time>2026-04-11T12:35:17.291Z</time></trkpt><trkpt lat="44.969155" lon="8.2817183"><ele>193.8</ele><time>2026-04-11T12:35:18.29Z</time></trkpt><trkpt lat="44.9690517" lon="8.2816967"><ele>194.60000000000002</ele><time>2026-04-11T12:35:19.29Z</time></trkpt><trkpt lat="44.9689433" lon="8.281685"><ele>195.39999999999998</ele><time>2026-04-11T12:35:20.29Z</time></trkpt><trkpt lat="44.96884" lon="8.2817017"><ele>196.2</ele><time>2026-04-11T12:35:21.29Z</time></trkpt><trkpt lat="44.9687317" lon="8.2817317"><ele>197.0</ele><time>2026-04-11T12:35:22.29Z</time></trkpt><trkpt lat="44.96863" lon="8.281785"><ele>197.0</ele><time>2026-04-11T12:35:23.29Z</time></trkpt><trkpt lat="44.9685233" lon="8.2818283"><ele>197.0</ele><time>2026-04-11T12:35:24.29Z</time></trkpt><trkpt lat="44.968395" lon="8.2818933"><ele>197.0</ele><time>2026-04-11T12:35:25.29Z</time></trkpt><trkpt lat="44.9682683" lon="8.2819567"><ele>197.0</ele><time>2026-04-11T12:35:26.29Z</time></trkpt><trkpt lat="44.96814" lon="8.28202"><ele>198.0</ele><time>2026-04-11T12:35:27.291Z</time></trkpt><trkpt lat="44.9680267" lon="8.2820867"><ele>199.0</ele><time>2026-04-11T12:35:28.29Z</time></trkpt><trkpt lat="44.9679217" lon="8.28215"><ele>200.0</ele><time>2026-04-11T12:35:29.29Z</time></trkpt><trkpt lat="44.96783" lon="8.2822083"><ele>201.0</ele><time>2026-04-11T12:35:30.29Z</time></trkpt><trkpt lat="44.96775" lon="8.2822467"><ele>202.0</ele><time>2026-04-11T12:35:31.29Z</time></trkpt><trkpt lat="44.967675" lon="8.2822683"><ele>202.99999999999997</ele><time>2026-04-11T12:35:32.291Z</time></trkpt><trkpt lat="44.9675867" lon="8.2822667"><ele>204.0</ele><time>2026-04-11T12:35:33.291Z</time></trkpt><trkpt lat="44.967495" lon="8.282255"><ele>205.0</ele><time>2026-04-11T12:35:34.291Z</time></trkpt><trkpt lat="44.9674067" lon="8.2822017"><ele>206.0</ele><time>2026-04-11T12:35:35.29Z</time></trkpt><trkpt lat="44.96733" lon="8.2821533"><ele>206.99999999999997</ele><time>2026-04-11T12:35:36.29Z</time></trkpt><trkpt lat="44.967265" lon="8.282095"><ele>208.0</ele><time>2026-04-11T12:35:37.29Z</time></trkpt><trkpt lat="44.9672083" lon="8.2820383"><ele>208.0</ele><time>2026-04-11T12:35:38.29Z</time></trkpt><trkpt lat="44.9672717" lon="8.28178"><ele>208.0</ele><time>2026-04-11T12:35:41.29Z</time></trkpt><trkpt lat="44.967335" lon="8.281685"><ele>208.0</ele><time>2026-04-11T12:35:42.291Z</time></trkpt><trkpt lat="44.9674067" lon="8.2815967"><ele>208.0</ele><time>2026-04-11T12:35:43.29Z</time></trkpt><trkpt lat="44.967475" lon="8.28153"><ele>207.14285714285714</ele><time>2026-04-11T12:35:44.29Z</time></trkpt><trkpt lat="44.9675383" lon="8.2814617"><ele>206.2857142857143</ele><time>2026-04-11T12:35:45.291Z</time></trkpt><trkpt lat="44.9676033" lon="8.281395"><ele>205.42857142857144</ele><time>2026-04-11T12:35:46.29Z</time></trkpt><trkpt lat="44.96767" lon="8.2813333"><ele>204.57142857142856</ele><time>2026-04-11T12:35:47.291Z</time></trkpt><trkpt lat="44.96773" lon="8.2812817"><ele>203.71428571428572</ele><time>2026-04-11T12:35:48.29Z</time></trkpt><trkpt lat="44.9677817" lon="8.2812167"><ele>202.85714285714286</ele><time>2026-04-11T12:35:49.29Z</time></trkpt><trkpt lat="44.9678367" lon="8.2811717"><ele>202.0</ele><time>2026-04-11T12:35:50.291Z</time></trkpt><trkpt lat="44.9679233" lon="8.281085"><ele>205.2</ele><time>2026-04-11T12:35:52.29Z</time></trkpt><trkpt lat="44.967995" lon="8.2810033"><ele>208.39999999999998</ele><time>2026-04-11T12:35:54.29Z</time></trkpt><trkpt lat="44.9680717" lon="8.2809233"><ele>211.60000000000002</ele><time>2026-04-11T12:35:56.29Z</time></trkpt><trkpt lat="44.9681783" lon="8.280815"><ele>214.8</ele><time>2026-04-11T12:35:58.291Z</time></trkpt><trkpt lat="44.968245" lon="8.2807567"><ele>218.0</ele><time>2026-04-11T12:35:59.29Z</time></trkpt><trkpt lat="44.96831" lon="8.280675"><ele>219.4</ele><time>2026-04-11T12:36:00.29Z</time></trkpt><trkpt lat="44.9683767" lon="8.2805783"><ele>220.8</ele><time>2026-04-11T12:36:01.291Z</time></trkpt><trkpt lat="44.9684333" lon="8.280465"><ele>222.2</ele><time>2026-04-11T12:36:02.29Z</time></trkpt><trkpt lat="44.9684767" lon="8.2803217"><ele>223.6</ele><time>2026-04-11T12:36:03.291Z</time></trkpt><trkpt lat="44.9685117" lon="8.2801683"><ele>225.0</ele><time>2026-04-11T12:36:04.29Z</time></trkpt><trkpt lat="44.96854" lon="8.2799933"><ele>225.0</ele><time>2026-04-11T12:36:05.291Z</time></trkpt><trkpt lat="44.9685617" lon="8.279795"><ele>225.0</ele><time>2026-04-11T12:36:06.29Z</time></trkpt><trkpt lat="44.9685883" lon="8.2796133"><ele>225.0</ele><time>2026-04-11T12:36:07.29Z</time></trkpt><trkpt lat="44.9686133" lon="8.2794567"><ele>225.0</ele><time>2026-04-11T12:36:08.29Z</time></trkpt><trkpt lat="44.9686383" lon="8.2793333"><ele>228.4</ele><time>2026-04-11T12:36:09.29Z</time></trkpt><trkpt lat="44.9686717" lon="8.2792183"><ele>231.8</ele><time>2026-04-11T12:36:10.29Z</time></trkpt><trkpt lat="44.9687067" lon="8.2790983"><ele>235.2</ele><time>2026-04-11T12:36:11.29Z</time></trkpt><trkpt lat="44.9687533" lon="8.27897"><ele>238.6</ele><time>2026-04-11T12:36:12.29Z</time></trkpt><trkpt lat="44.968795" lon="8.2788283"><ele>242.0</ele><time>2026-04-11T12:36:13.29Z</time></trkpt><trkpt lat="44.9688367" lon="8.2786917"><ele>242.0</ele><time>2026-04-11T12:36:14.29Z</time></trkpt><trkpt lat="44.9688667" lon="8.2785617"><ele>242.0</ele><time>2026-04-11T12:36:15.29Z</time></trkpt><trkpt lat="44.9688933" lon="8.2784233"><ele>242.0</ele><time>2026-04-11T12:36:16.291Z</time></trkpt><trkpt lat="44.9689117" lon="8.2782833"><ele>242.0</ele><time>2026-04-11T12:36:17.29Z</time></trkpt><trkpt lat="44.9689183" lon="8.2781567"><ele>242.0</ele><time>2026-04-11T12:36:18.291Z</time></trkpt><trkpt lat="44.9689183" lon="8.27805"><ele>242.00000000000003</ele><time>2026-04-11T12:36:19.291Z</time></trkpt><trkpt lat="44.9688933" lon="8.2779417"><ele>242.0</ele><time>2026-04-11T12:36:20.29Z</time></trkpt><trkpt lat="44.96885" lon="8.2778633"><ele>242.0</ele><time>2026-04-11T12:36:21.291Z</time></trkpt><trkpt lat="44.9687967" lon="8.27781"><ele>242.0</ele><time>2026-04-11T12:36:22.291Z</time></trkpt><trkpt lat="44.9687233" lon="8.2777133"><ele>242.00000000000003</ele><time>2026-04-11T12:36:24.29Z</time></trkpt><trkpt lat="44.968675" lon="8.2776267"><ele>242.0</ele><time>2026-04-11T12:36:28.291Z</time></trkpt><trkpt lat="44.9686" lon="8.277585"><ele>242.0</ele><time>2026-04-11T12:36:31.29Z</time></trkpt><trkpt lat="44.96853" lon="8.2775567"><ele>242.0</ele><time>2026-04-11T12:36:34.291Z</time></trkpt><trkpt lat="44.96846" lon="8.2775617"><ele>242.0</ele><time>2026-04-11T12:36:47.291Z</time></trkpt><trkpt lat="44.96835" lon="8.2775267"><ele>242.0</ele><time>2026-04-11T12:36:49.29Z</time></trkpt><trkpt lat="44.968215" lon="8.277455"><ele>242.0</ele><time>2026-04-11T12:36:51.29Z</time></trkpt><trkpt lat="44.968055" lon="8.277395"><ele>242.28571428571428</ele><time>2026-04-11T12:36:53.29Z</time></trkpt><trkpt lat="44.9679833" lon="8.27739"><ele>242.57142857142856</ele><time>2026-04-11T12:36:54.291Z</time></trkpt><trkpt lat="44.9679117" lon="8.27739"><ele>242.85714285714283</ele><time>2026-04-11T12:36:55.29Z</time></trkpt><trkpt lat="44.9678433" lon="8.277395"><ele>243.1428571428571</ele><time>2026-04-11T12:36:56.291Z</time></trkpt><trkpt lat="44.96777" lon="8.2774017"><ele>243.42857142857142</ele><time>2026-04-11T12:36:57.291Z</time></trkpt><trkpt lat="44.9677017" lon="8.2774083"><ele>243.71428571428567</ele><time>2026-04-11T12:36:58.29Z</time></trkpt><trkpt lat="44.9676267" lon="8.277395"><ele>243.99999999999997</ele><time>2026-04-11T12:36:59.291Z</time></trkpt><trkpt lat="44.9675467" lon="8.2773833"><ele>244.16666666666666</ele><time>2026-04-11T12:37:00.291Z</time></trkpt><trkpt lat="44.9674683" lon="8.2773683"><ele>244.33333333333331</ele><time>2026-04-11T12:37:01.291Z</time></trkpt><trkpt lat="44.9673817" lon="8.2773717"><ele>244.5</ele><time>2026-04-11T12:37:02.29Z</time></trkpt><trkpt lat="44.9672917" lon="8.2774167"><ele>244.66666666666669</ele><time>2026-04-11T12:37:03.29Z</time></trkpt><trkpt lat="44.9672117" lon="8.2774833"><ele>244.83333333333334</ele><time>2026-04-11T12:37:04.291Z</time></trkpt><trkpt lat="44.9671317" lon="8.277555"><ele>245.0</ele><time>2026-04-11T12:37:05.29Z</time></trkpt><trkpt lat="44.9670633" lon="8.27764"><ele>245.0</ele><time>2026-04-11T12:37:06.29Z</time></trkpt><trkpt lat="44.9669317" lon="8.2777767"><ele>245.0</ele><time>2026-04-11T12:37:08.29Z</time></trkpt><trkpt lat="44.966855" lon="8.2778367"><ele>245.0</ele><time>2026-04-11T12:37:09.29Z</time></trkpt><trkpt lat="44.9667833" lon="8.2778933"><ele>245.0</ele><time>2026-04-11T12:37:10.29Z</time></trkpt><trkpt lat="44.9667233" lon="8.2779433"><ele>245.0</ele><time>2026-04-11T12:37:11.291Z</time></trkpt><trkpt lat="44.9666583" lon="8.2779917"><ele>244.66666666666669</ele><time>2026-04-11T12:37:12.291Z</time></trkpt><trkpt lat="44.9665917" lon="8.2780283"><ele>244.33333333333334</ele><time>2026-04-11T12:37:13.29Z</time></trkpt><trkpt lat="44.96652" lon="8.2780517"><ele>244.0</ele><time>2026-04-11T12:37:14.291Z</time></trkpt><trkpt lat="44.9664367" lon="8.2781017"><ele>243.66666666666669</ele><time>2026-04-11T12:37:15.291Z</time></trkpt><trkpt lat="44.966355" lon="8.2781583"><ele>243.33333333333334</ele><time>2026-04-11T12:37:16.29Z</time></trkpt><trkpt lat="44.9662617" lon="8.2782133"><ele>243.0</ele><time>2026-04-11T12:37:17.29Z</time></trkpt><trkpt lat="44.9661683" lon="8.2782733"><ele>242.5</ele><time>2026-04-11T12:37:18.29Z</time></trkpt><trkpt lat="44.9660833" lon="8.27834"><ele>242.0</ele><time>2026-04-11T12:37:19.291Z</time></trkpt><trkpt lat="44.966" lon="8.2784083"><ele>241.5</ele><time>2026-04-11T12:37:20.291Z</time></trkpt><trkpt lat="44.9659217" lon="8.2784867"><ele>241.0</ele><time>2026-04-11T12:37:21.291Z</time></trkpt><trkpt lat="44.9657683" lon="8.2786083"><ele>241.0</ele><time>2026-04-11T12:37:23.291Z</time></trkpt><trkpt lat="44.96569" lon="8.2786817"><ele>241.00000000000003</ele><time>2026-04-11T12:37:24.291Z</time></trkpt><trkpt lat="44.9656183" lon="8.27877"><ele>241.00000000000003</ele><time>2026-04-11T12:37:25.291Z</time></trkpt><trkpt lat="44.9655567" lon="8.2788683"><ele>241.0</ele><time>2026-04-11T12:37:26.291Z</time></trkpt><trkpt lat="44.9654933" lon="8.2789667"><ele>241.0</ele><time>2026-04-11T12:37:27.29Z</time></trkpt><trkpt lat="44.965415" lon="8.2790617"><ele>239.4</ele><time>2026-04-11T12:37:28.291Z</time></trkpt><trkpt lat="44.9653367" lon="8.2791483"><ele>237.8</ele><time>2026-04-11T12:37:29.29Z</time></trkpt><trkpt lat="44.96525" lon="8.2792183"><ele>236.20000000000002</ele><time>2026-04-11T12:37:30.29Z</time></trkpt><trkpt lat="44.9651533" lon="8.2792817"><ele>234.60000000000002</ele><time>2026-04-11T12:37:31.29Z</time></trkpt><trkpt lat="44.9650533" lon="8.2793283"><ele>233.0</ele><time>2026-04-11T12:37:32.29Z</time></trkpt><trkpt lat="44.9649433" lon="8.27937"><ele>233.0</ele><time>2026-04-11T12:37:33.291Z</time></trkpt><trkpt lat="44.9648417" lon="8.279395"><ele>233.0</ele><time>2026-04-11T12:37:34.29Z</time></trkpt><trkpt lat="44.9647383" lon="8.2794367"><ele>233.0</ele><time>2026-04-11T12:37:35.291Z</time></trkpt><trkpt lat="44.964635" lon="8.279475"><ele>233.0</ele><time>2026-04-11T12:37:36.29Z</time></trkpt><trkpt lat="44.9645367" lon="8.2795033"><ele>233.0</ele><time>2026-04-11T12:37:37.29Z</time></trkpt><trkpt lat="44.9644433" lon="8.2795217"><ele>233.0</ele><time>2026-04-11T12:37:38.291Z</time></trkpt><trkpt lat="44.964355" lon="8.2795117"><ele>233.0</ele><time>2026-04-11T12:37:39.291Z</time></trkpt><trkpt lat="44.9642683" lon="8.2794967"><ele>233.0</ele><time>2026-04-11T12:37:40.29Z</time></trkpt><trkpt lat="44.9641817" lon="8.2794617"><ele>233.0</ele><time>2026-04-11T12:37:41.291Z</time></trkpt><trkpt lat="44.9640933" lon="8.2793983"><ele>233.0</ele><time>2026-04-11T12:37:42.29Z</time></trkpt><trkpt lat="44.9639933" lon="8.279365"><ele>233.2</ele><time>2026-04-11T12:37:43.29Z</time></trkpt><trkpt lat="44.9638967" lon="8.27931"><ele>233.4</ele><time>2026-04-11T12:37:44.29Z</time></trkpt><trkpt lat="44.9637883" lon="8.2792717"><ele>233.59999999999997</ele><time>2026-04-11T12:37:45.291Z</time></trkpt><trkpt lat="44.9636817" lon="8.279235"><ele>233.79999999999998</ele><time>2026-04-11T12:37:46.29Z</time></trkpt><trkpt lat="44.9635717" lon="8.2791983"><ele>234.0</ele><time>2026-04-11T12:37:47.291Z</time></trkpt><trkpt lat="44.9634633" lon="8.2791567"><ele>234.0</ele><time>2026-04-11T12:37:48.29Z</time></trkpt><trkpt lat="44.9633467" lon="8.2791"><ele>234.0</ele><time>2026-04-11T12:37:49.29Z</time></trkpt><trkpt lat="44.9632467" lon="8.2790517"><ele>234.0</ele><time>2026-04-11T12:37:50.29Z</time></trkpt><trkpt lat="44.96314" lon="8.278985"><ele>234.0</ele><time>2026-04-11T12:37:51.29Z</time></trkpt><trkpt lat="44.9630333" lon="8.2789133"><ele>231.75</ele><time>2026-04-11T12:37:52.29Z</time></trkpt><trkpt lat="44.9629133" lon="8.278855"><ele>229.5</ele><time>2026-04-11T12:37:53.29Z</time></trkpt><trkpt lat="44.9628033" lon="8.278805"><ele>227.25</ele><time>2026-04-11T12:37:54.29Z</time></trkpt><trkpt lat="44.9626833" lon="8.2787617"><ele>225.0</ele><time>2026-04-11T12:37:55.291Z</time></trkpt><trkpt lat="44.96256" lon="8.2787517"><ele>226.5</ele><time>2026-04-11T12:37:56.29Z</time></trkpt><trkpt lat="44.96244" lon="8.2787533"><ele>228.0</ele><time>2026-04-11T12:37:57.29Z</time></trkpt><trkpt lat="44.9623167" lon="8.2787933"><ele>229.5</ele><time>2026-04-11T12:37:58.29Z</time></trkpt><trkpt lat="44.962215" lon="8.278825"><ele>231.0</ele><time>2026-04-11T12:37:59.29Z</time></trkpt><trkpt lat="44.9621217" lon="8.2788733"><ele>231.0</ele><time>2026-04-11T12:38:00.291Z</time></trkpt><trkpt lat="44.96202" lon="8.2789317"><ele>231.00000000000003</ele><time>2026-04-11T12:38:01.29Z</time></trkpt><trkpt lat="44.9619133" lon="8.27896"><ele>231.00000000000003</ele><time>2026-04-11T12:38:02.29Z</time></trkpt><trkpt lat="44.96182" lon="8.2789717"><ele>231.0</ele><time>2026-04-11T12:38:03.29Z</time></trkpt><trkpt lat="44.9617133" lon="8.2789667"><ele>231.0</ele><time>2026-04-11T12:38:04.29Z</time></trkpt><trkpt lat="44.9615883" lon="8.2789483"><ele>230.5</ele><time>2026-04-11T12:38:05.291Z</time></trkpt><trkpt lat="44.9614517" lon="8.2789417"><ele>230.0</ele><time>2026-04-11T12:38:06.29Z</time></trkpt><trkpt lat="44.9613283" lon="8.2789133"><ele>229.5</ele><time>2026-04-11T12:38:07.291Z</time></trkpt><trkpt lat="44.9612" lon="8.2789"><ele>229.0</ele><time>2026-04-11T12:38:08.29Z</time></trkpt><trkpt lat="44.9610617" lon="8.2789033"><ele>229.0</ele><time>2026-04-11T12:38:09.291Z</time></trkpt><trkpt lat="44.9609183" lon="8.2788867"><ele>229.0</ele><time>2026-04-11T12:38:10.29Z</time></trkpt><trkpt lat="44.960785" lon="8.2788767"><ele>229.0</ele><time>2026-04-11T12:38:11.291Z</time></trkpt><trkpt lat="44.960645" lon="8.278865"><ele>229.0</ele><time>2026-04-11T12:38:12.29Z</time></trkpt><trkpt lat="44.9605117" lon="8.2788667"><ele>229.0</ele><time>2026-04-11T12:38:13.29Z</time></trkpt><trkpt lat="44.9603783" lon="8.278875"><ele>229.0</ele><time>2026-04-11T12:38:14.29Z</time></trkpt><trkpt lat="44.9602517" lon="8.27891"><ele>229.0</ele><time>2026-04-11T12:38:15.291Z</time></trkpt><trkpt lat="44.9601117" lon="8.2789617"><ele>229.0</ele><time>2026-04-11T12:38:16.291Z</time></trkpt><trkpt lat="44.959995" lon="8.2789933"><ele>229.25</ele><time>2026-04-11T12:38:17.29Z</time></trkpt><trkpt lat="44.959875" lon="8.2790367"><ele>229.5</ele><time>2026-04-11T12:38:18.29Z</time></trkpt><trkpt lat="44.9597683" lon="8.27907"><ele>229.75</ele><time>2026-04-11T12:38:19.29Z</time></trkpt><trkpt lat="44.9596467" lon="8.2790933"><ele>230.0</ele><time>2026-04-11T12:38:20.29Z</time></trkpt><trkpt lat="44.9595233" lon="8.2791183"><ele>230.0</ele><time>2026-04-11T12:38:21.291Z</time></trkpt><trkpt lat="44.9594017" lon="8.279155"><ele>230.0</ele><time>2026-04-11T12:38:22.291Z</time></trkpt><trkpt lat="44.9593" lon="8.27919"><ele>230.0</ele><time>2026-04-11T12:38:23.29Z</time></trkpt><trkpt lat="44.9591967" lon="8.2792117"><ele>230.0</ele><time>2026-04-11T12:38:24.29Z</time></trkpt><trkpt lat="44.9591017" lon="8.2791983"><ele>230.0</ele><time>2026-04-11T12:38:25.29Z</time></trkpt><trkpt lat="44.959" lon="8.279205"><ele>229.0</ele><time>2026-04-11T12:38:26.29Z</time></trkpt><trkpt lat="44.9589033" lon="8.2792083"><ele>228.0</ele><time>2026-04-11T12:38:27.29Z</time></trkpt><trkpt lat="44.9588033" lon="8.2792233"><ele>227.0</ele><time>2026-04-11T12:38:28.29Z</time></trkpt><trkpt lat="44.9587067" lon="8.27927"><ele>226.0</ele><time>2026-04-11T12:38:29.29Z</time></trkpt><trkpt lat="44.9586117" lon="8.27934"><ele>225.0</ele><time>2026-04-11T12:38:30.29Z</time></trkpt><trkpt lat="44.95852" lon="8.2794383"><ele>225.0</ele><time>2026-04-11T12:38:31.29Z</time></trkpt><trkpt lat="44.9584233" lon="8.279535"><ele>225.0</ele><time>2026-04-11T12:38:32.29Z</time></trkpt><trkpt lat="44.9583383" lon="8.279635"><ele>225.0</ele><time>2026-04-11T12:38:33.29Z</time></trkpt><trkpt lat="44.95826" lon="8.27972"><ele>225.0</ele><time>2026-04-11T12:38:34.29Z</time></trkpt><trkpt lat="44.9581717" lon="8.279765"><ele>225.0</ele><time>2026-04-11T12:38:35.291Z</time></trkpt><trkpt lat="44.9580767" lon="8.2797767"><ele>223.66666666666666</ele><time>2026-04-11T12:38:36.291Z</time></trkpt><trkpt lat="44.9579833" lon="8.2797717"><ele>222.33333333333331</ele><time>2026-04-11T12:38:37.29Z</time></trkpt><trkpt lat="44.9578933" lon="8.2797483"><ele>221.0</ele><time>2026-04-11T12:38:38.29Z</time></trkpt><trkpt lat="44.95782" lon="8.2797183"><ele>219.66666666666666</ele><time>2026-04-11T12:38:39.29Z</time></trkpt><trkpt lat="44.95776" lon="8.2796767"><ele>218.33333333333331</ele><time>2026-04-11T12:38:40.291Z</time></trkpt><trkpt lat="44.9577533" lon="8.2795467"><ele>217.0</ele><time>2026-04-11T12:38:42.29Z</time></trkpt><trkpt lat="44.9578633" lon="8.27944"><ele>216.99999999999997</ele><time>2026-04-11T12:38:44.29Z</time></trkpt><trkpt lat="44.957945" lon="8.2794083"><ele>217.0</ele><time>2026-04-11T12:38:45.29Z</time></trkpt><trkpt lat="44.9580217" lon="8.2793767"><ele>217.0</ele><time>2026-04-11T12:38:46.29Z</time></trkpt><trkpt lat="44.9581017" lon="8.27935"><ele>217.0</ele><time>2026-04-11T12:38:47.29Z</time></trkpt><trkpt lat="44.9581767" lon="8.2793133"><ele>216.99999999999997</ele><time>2026-04-11T12:38:48.291Z</time></trkpt><trkpt lat="44.95822" lon="8.2792483"><ele>217.0</ele><time>2026-04-11T12:38:49.291Z</time></trkpt><trkpt lat="44.958235" lon="8.2791533"><ele>217.0</ele><time>2026-04-11T12:38:50.289Z</time></trkpt><trkpt lat="44.958145" lon="8.2790567"><ele>217.0</ele><time>2026-04-11T12:38:52.289Z</time></trkpt><trkpt lat="44.9580517" lon="8.2790533"><ele>217.0</ele><time>2026-04-11T12:38:53.289Z</time></trkpt><trkpt lat="44.957945" lon="8.2790667"><ele>217.0</ele><time>2026-04-11T12:38:54.29Z</time></trkpt><trkpt lat="44.9578417" lon="8.279075"><ele>217.0</ele><time>2026-04-11T12:38:55.289Z</time></trkpt><trkpt lat="44.9577383" lon="8.27908"><ele>217.0</ele><time>2026-04-11T12:38:56.289Z</time></trkpt><trkpt lat="44.9576417" lon="8.2790933"><ele>217.0</ele><time>2026-04-11T12:38:57.29Z</time></trkpt><trkpt lat="44.9575467" lon="8.2791267"><ele>217.0</ele><time>2026-04-11T12:38:58.289Z</time></trkpt><trkpt lat="44.9574533" lon="8.2791833"><ele>217.0</ele><time>2026-04-11T12:38:59.289Z</time></trkpt><trkpt lat="44.957375" lon="8.279255"><ele>217.0</ele><time>2026-04-11T12:39:00.289Z</time></trkpt><trkpt lat="44.95732" lon="8.2793617"><ele>214.39999999999998</ele><time>2026-04-11T12:39:01.289Z</time></trkpt><trkpt lat="44.9572917" lon="8.279495"><ele>211.79999999999998</ele><time>2026-04-11T12:39:02.289Z</time></trkpt><trkpt lat="44.9572883" lon="8.27965"><ele>209.2</ele><time>2026-04-11T12:39:03.289Z</time></trkpt><trkpt lat="44.95732" lon="8.279785"><ele>206.6</ele><time>2026-04-11T12:39:04.289Z</time></trkpt><trkpt lat="44.957375" lon="8.2799183"><ele>204.0</ele><time>2026-04-11T12:39:05.289Z</time></trkpt><trkpt lat="44.957465" lon="8.28002"><ele>204.5</ele><time>2026-04-11T12:39:06.29Z</time></trkpt><trkpt lat="44.9575867" lon="8.2800917"><ele>205.0</ele><time>2026-04-11T12:39:07.289Z</time></trkpt><trkpt lat="44.9577083" lon="8.2801483"><ele>205.5</ele><time>2026-04-11T12:39:08.289Z</time></trkpt><trkpt lat="44.9578267" lon="8.280195"><ele>206.0</ele><time>2026-04-11T12:39:09.289Z</time></trkpt><trkpt lat="44.9579383" lon="8.28024"><ele>206.00000000000003</ele><time>2026-04-11T12:39:10.289Z</time></trkpt><trkpt lat="44.9580433" lon="8.28028"><ele>206.0</ele><time>2026-04-11T12:39:11.289Z</time></trkpt><trkpt lat="44.9581167" lon="8.2803167"><ele>206.0</ele><time>2026-04-11T12:39:12.289Z</time></trkpt><trkpt lat="44.958175" lon="8.2803883"><ele>206.0</ele><time>2026-04-11T12:39:13.289Z</time></trkpt><trkpt lat="44.9582217" lon="8.2805017"><ele>206.00000000000003</ele><time>2026-04-11T12:39:15.289Z</time></trkpt><trkpt lat="44.95814" lon="8.2805033"><ele>206.0</ele><time>2026-04-11T12:39:16.289Z</time></trkpt><trkpt lat="44.9580583" lon="8.2805117"><ele>206.0</ele><time>2026-04-11T12:39:17.289Z</time></trkpt><trkpt lat="44.9579617" lon="8.2804933"><ele>206.0</ele><time>2026-04-11T12:39:18.29Z</time></trkpt><trkpt lat="44.9578517" lon="8.2804633"><ele>206.0</ele><time>2026-04-11T12:39:19.289Z</time></trkpt><trkpt lat="44.957715" lon="8.2804167"><ele>206.0</ele><time>2026-04-11T12:39:20.289Z</time></trkpt><trkpt lat="44.9575683" lon="8.280375"><ele>204.33333333333334</ele><time>2026-04-11T12:39:21.29Z</time></trkpt><trkpt lat="44.9574083" lon="8.2803383"><ele>202.66666666666669</ele><time>2026-04-11T12:39:22.289Z</time></trkpt><trkpt lat="44.95726" lon="8.280295"><ele>201.0</ele><time>2026-04-11T12:39:23.29Z</time></trkpt><trkpt lat="44.9571283" lon="8.2802433"><ele>201.0</ele><time>2026-04-11T12:39:24.29Z</time></trkpt><trkpt lat="44.9570033" lon="8.2802033"><ele>201.0</ele><time>2026-04-11T12:39:25.29Z</time></trkpt><trkpt lat="44.9569067" lon="8.2801383"><ele>201.0</ele><time>2026-04-11T12:39:26.289Z</time></trkpt><trkpt lat="44.9568317" lon="8.280055"><ele>201.0</ele><time>2026-04-11T12:39:27.289Z</time></trkpt><trkpt lat="44.956785" lon="8.2799467"><ele>201.0</ele><time>2026-04-11T12:39:28.289Z</time></trkpt><trkpt lat="44.95677" lon="8.2797983"><ele>201.75</ele><time>2026-04-11T12:39:29.29Z</time></trkpt><trkpt lat="44.956775" lon="8.2796233"><ele>202.5</ele><time>2026-04-11T12:39:30.289Z</time></trkpt><trkpt lat="44.9567833" lon="8.2794333"><ele>203.25</ele><time>2026-04-11T12:39:31.289Z</time></trkpt><trkpt lat="44.9567933" lon="8.279235"><ele>204.0</ele><time>2026-04-11T12:39:32.289Z</time></trkpt><trkpt lat="44.956795" lon="8.2790617"><ele>200.79999999999998</ele><time>2026-04-11T12:39:33.289Z</time></trkpt><trkpt lat="44.9568017" lon="8.2788967"><ele>197.6</ele><time>2026-04-11T12:39:34.289Z</time></trkpt><trkpt lat="44.9568333" lon="8.2787517"><ele>194.4</ele><time>2026-04-11T12:39:35.289Z</time></trkpt><trkpt lat="44.9568917" lon="8.2786383"><ele>191.2</ele><time>2026-04-11T12:39:36.29Z</time></trkpt><trkpt lat="44.9569583" lon="8.2785317"><ele>188.0</ele><time>2026-04-11T12:39:37.289Z</time></trkpt><trkpt lat="44.957005" lon="8.27844"><ele>188.0</ele><time>2026-04-11T12:39:38.29Z</time></trkpt><trkpt lat="44.9570317" lon="8.2783433"><ele>188.0</ele><time>2026-04-11T12:39:39.29Z</time></trkpt><trkpt lat="44.95704" lon="8.2782433"><ele>188.0</ele><time>2026-04-11T12:39:40.289Z</time></trkpt><trkpt lat="44.9569533" lon="8.278155"><ele>188.0</ele><time>2026-04-11T12:39:42.289Z</time></trkpt><trkpt lat="44.9568833" lon="8.2781783"><ele>188.0</ele><time>2026-04-11T12:39:43.289Z</time></trkpt><trkpt lat="44.95679" lon="8.27825"><ele>188.0</ele><time>2026-04-11T12:39:44.29Z</time></trkpt><trkpt lat="44.9566583" lon="8.27846"><ele>186.0</ele><time>2026-04-11T12:39:45.29Z</time></trkpt><trkpt lat="44.9565667" lon="8.278645"><ele>184.0</ele><time>2026-04-11T12:39:46.289Z</time></trkpt><trkpt lat="44.9565067" lon="8.278835"><ele>182.0</ele><time>2026-04-11T12:39:47.29Z</time></trkpt><trkpt lat="44.9564717" lon="8.2790367"><ele>182.0</ele><time>2026-04-11T12:39:48.289Z</time></trkpt><trkpt lat="44.9564433" lon="8.2792433"><ele>182.0</ele><time>2026-04-11T12:39:49.289Z</time></trkpt><trkpt lat="44.9563883" lon="8.2794217"><ele>182.0</ele><time>2026-04-11T12:39:50.289Z</time></trkpt><trkpt lat="44.9563117" lon="8.2795883"><ele>182.0</ele><time>2026-04-11T12:39:51.289Z</time></trkpt><trkpt lat="44.9562117" lon="8.2797183"><ele>181.66666666666666</ele><time>2026-04-11T12:39:52.289Z</time></trkpt><trkpt lat="44.956095" lon="8.279825"><ele>181.33333333333334</ele><time>2026-04-11T12:39:53.29Z</time></trkpt><trkpt lat="44.955945" lon="8.27992"><ele>181.0</ele><time>2026-04-11T12:39:54.288Z</time></trkpt><trkpt lat="44.955795" lon="8.280025"><ele>175.0</ele><time>2026-04-11T12:39:55.289Z</time></trkpt><trkpt lat="44.9556417" lon="8.2801317"><ele>169.0</ele><time>2026-04-11T12:39:56.289Z</time></trkpt><trkpt lat="44.955495" lon="8.2802517"><ele>163.0</ele><time>2026-04-11T12:39:57.289Z</time></trkpt><trkpt lat="44.9553467" lon="8.2803667"><ele>163.0</ele><time>2026-04-11T12:39:58.29Z</time></trkpt><trkpt lat="44.9551933" lon="8.2805017"><ele>163.0</ele><time>2026-04-11T12:39:59.289Z</time></trkpt><trkpt lat="44.9550333" lon="8.2806233"><ele>163.0</ele><time>2026-04-11T12:40:00.289Z</time></trkpt><trkpt lat="44.95489" lon="8.2807533"><ele>159.0</ele><time>2026-04-11T12:40:01.289Z</time></trkpt><trkpt lat="44.9547617" lon="8.280885"><ele>155.0</ele><time>2026-04-11T12:40:02.29Z</time></trkpt><trkpt lat="44.9545267" lon="8.28116"><ele>155.0</ele><time>2026-04-11T12:40:04.289Z</time></trkpt><trkpt lat="44.9544233" lon="8.2812867"><ele>155.0</ele><time>2026-04-11T12:40:05.289Z</time></trkpt><trkpt lat="44.9543267" lon="8.2814067"><ele>155.0</ele><time>2026-04-11T12:40:06.289Z</time></trkpt><trkpt lat="44.954245" lon="8.2815067"><ele>155.0</ele><time>2026-04-11T12:40:07.289Z</time></trkpt><trkpt lat="44.9541767" lon="8.281595"><ele>155.5</ele><time>2026-04-11T12:40:08.29Z</time></trkpt><trkpt lat="44.9541267" lon="8.281665"><ele>156.0</ele><time>2026-04-11T12:40:09.289Z</time></trkpt><trkpt lat="44.9540783" lon="8.2817317"><ele>156.5</ele><time>2026-04-11T12:40:10.289Z</time></trkpt><trkpt lat="44.9540283" lon="8.2818083"><ele>157.0</ele><time>2026-04-11T12:40:11.289Z</time></trkpt><trkpt lat="44.9539983" lon="8.2819083"><ele>157.5</ele><time>2026-04-11T12:40:12.29Z</time></trkpt><trkpt lat="44.9539717" lon="8.282015"><ele>158.0</ele><time>2026-04-11T12:40:13.289Z</time></trkpt><trkpt lat="44.9539483" lon="8.2821583"><ele>159.0</ele><time>2026-04-11T12:40:14.289Z</time></trkpt><trkpt lat="44.9539333" lon="8.2823167"><ele>160.0</ele><time>2026-04-11T12:40:15.289Z</time></trkpt><trkpt lat="44.953905" lon="8.282495"><ele>161.0</ele><time>2026-04-11T12:40:16.289Z</time></trkpt><trkpt lat="44.9538567" lon="8.282865"><ele>161.0</ele><time>2026-04-11T12:40:18.289Z</time></trkpt><trkpt lat="44.953835" lon="8.2830567"><ele>161.0</ele><time>2026-04-11T12:40:19.289Z</time></trkpt><trkpt lat="44.9538167" lon="8.283245"><ele>161.0</ele><time>2026-04-11T12:40:20.29Z</time></trkpt><trkpt lat="44.9538017" lon="8.2834217"><ele>161.0</ele><time>2026-04-11T12:40:21.289Z</time></trkpt><trkpt lat="44.9537783" lon="8.2836017"><ele>162.25</ele><time>2026-04-11T12:40:22.29Z</time></trkpt><trkpt lat="44.9537417" lon="8.2837767"><ele>163.5</ele><time>2026-04-11T12:40:23.289Z</time></trkpt><trkpt lat="44.9536833" lon="8.283935"><ele>164.75</ele><time>2026-04-11T12:40:24.289Z</time></trkpt><trkpt lat="44.9536" lon="8.2840783"><ele>166.0</ele><time>2026-04-11T12:40:25.289Z</time></trkpt><trkpt lat="44.9535133" lon="8.2842267"><ele>166.66666666666669</ele><time>2026-04-11T12:40:26.289Z</time></trkpt><trkpt lat="44.9533333" lon="8.28449"><ele>167.33333333333334</ele><time>2026-04-11T12:40:28.29Z</time></trkpt><trkpt lat="44.9532917" lon="8.2846267"><ele>168.0</ele><time>2026-04-11T12:40:29.29Z</time></trkpt><trkpt lat="44.9532683" lon="8.2847483"><ele>169.60000000000002</ele><time>2026-04-11T12:40:30.289Z</time></trkpt><trkpt lat="44.953285" lon="8.2848783"><ele>171.20000000000002</ele><time>2026-04-11T12:40:31.29Z</time></trkpt><trkpt lat="44.9533383" lon="8.2849967"><ele>172.8</ele><time>2026-04-11T12:40:32.29Z</time></trkpt><trkpt lat="44.95342" lon="8.2850967"><ele>174.4</ele><time>2026-04-11T12:40:33.289Z</time></trkpt><trkpt lat="44.9535133" lon="8.2851917"><ele>176.0</ele><time>2026-04-11T12:40:34.289Z</time></trkpt><trkpt lat="44.9535967" lon="8.2853017"><ele>178.5</ele><time>2026-04-11T12:40:35.289Z</time></trkpt><trkpt lat="44.9536383" lon="8.2854033"><ele>181.0</ele><time>2026-04-11T12:40:36.289Z</time></trkpt><trkpt lat="44.9536" lon="8.2855967"><ele>183.5</ele><time>2026-04-11T12:40:38.289Z</time></trkpt><trkpt lat="44.9534167" lon="8.2856367"><ele>186.0</ele><time>2026-04-11T12:40:40.289Z</time></trkpt><trkpt lat="44.9533133" lon="8.2856383"><ele>186.0</ele><time>2026-04-11T12:40:41.289Z</time></trkpt><trkpt lat="44.953205" lon="8.2856583"><ele>186.0</ele><time>2026-04-11T12:40:42.289Z</time></trkpt><trkpt lat="44.9531217" lon="8.2857167"><ele>186.0</ele><time>2026-04-11T12:40:43.289Z</time></trkpt><trkpt lat="44.9530567" lon="8.2858267"><ele>186.0</ele><time>2026-04-11T12:40:44.29Z</time></trkpt><trkpt lat="44.95302" lon="8.285955"><ele>186.0</ele><time>2026-04-11T12:40:45.29Z</time></trkpt><trkpt lat="44.95302" lon="8.28626"><ele>187.75</ele><time>2026-04-11T12:40:47.289Z</time></trkpt><trkpt lat="44.9530717" lon="8.2864383"><ele>189.5</ele><time>2026-04-11T12:40:48.289Z</time></trkpt><trkpt lat="44.9531533" lon="8.286595"><ele>191.25</ele><time>2026-04-11T12:40:49.289Z</time></trkpt><trkpt lat="44.9532517" lon="8.2867167"><ele>193.0</ele><time>2026-04-11T12:40:50.29Z</time></trkpt><trkpt lat="44.95335" lon="8.2868133"><ele>193.0</ele><time>2026-04-11T12:40:51.29Z</time></trkpt><trkpt lat="44.9534267" lon="8.286895"><ele>193.0</ele><time>2026-04-11T12:40:52.289Z</time></trkpt><trkpt lat="44.9534833" lon="8.2869817"><ele>193.0</ele><time>2026-04-11T12:40:53.29Z</time></trkpt><trkpt lat="44.9534483" lon="8.287115"><ele>193.0</ele><time>2026-04-11T12:40:55.289Z</time></trkpt><trkpt lat="44.9533783" lon="8.2871517"><ele>193.0</ele><time>2026-04-11T12:40:56.289Z</time></trkpt><trkpt lat="44.953265" lon="8.287155"><ele>193.0</ele><time>2026-04-11T12:40:57.289Z</time></trkpt><trkpt lat="44.9531383" lon="8.2871417"><ele>193.0</ele><time>2026-04-11T12:40:58.289Z</time></trkpt><trkpt lat="44.9530017" lon="8.287125"><ele>193.0</ele><time>2026-04-11T12:40:59.289Z</time></trkpt><trkpt lat="44.9528667" lon="8.2871167"><ele>193.0</ele><time>2026-04-11T12:41:00.289Z</time></trkpt><trkpt lat="44.9527233" lon="8.287125"><ele>193.0</ele><time>2026-04-11T12:41:01.289Z</time></trkpt><trkpt lat="44.9525733" lon="8.28712"><ele>193.0</ele><time>2026-04-11T12:41:02.29Z</time></trkpt><trkpt lat="44.9524267" lon="8.2871367"><ele>193.0</ele><time>2026-04-11T12:41:03.289Z</time></trkpt><trkpt lat="44.9523017" lon="8.2871117"><ele>193.0</ele><time>2026-04-11T12:41:04.289Z</time></trkpt><trkpt lat="44.9521917" lon="8.2870933"><ele>193.0</ele><time>2026-04-11T12:41:05.29Z</time></trkpt><trkpt lat="44.95207" lon="8.2870733"><ele>193.0</ele><time>2026-04-11T12:41:06.29Z</time></trkpt><trkpt lat="44.95196" lon="8.2870433"><ele>193.0</ele><time>2026-04-11T12:41:07.289Z</time></trkpt><trkpt lat="44.951855" lon="8.287015"><ele>193.0</ele><time>2026-04-11T12:41:08.29Z</time></trkpt><trkpt lat="44.9517467" lon="8.2870017"><ele>193.49999999999997</ele><time>2026-04-11T12:41:09.29Z</time></trkpt><trkpt lat="44.95165" lon="8.28701"><ele>194.0</ele><time>2026-04-11T12:41:10.289Z</time></trkpt><trkpt lat="44.9515683" lon="8.2870017"><ele>194.5</ele><time>2026-04-11T12:41:11.29Z</time></trkpt><trkpt lat="44.9515017" lon="8.28704"><ele>195.0</ele><time>2026-04-11T12:41:12.29Z</time></trkpt><trkpt lat="44.9514567" lon="8.2871333"><ele>195.49999999999997</ele><time>2026-04-11T12:41:13.289Z</time></trkpt><trkpt lat="44.9514417" lon="8.2872567"><ele>196.0</ele><time>2026-04-11T12:41:14.289Z</time></trkpt><trkpt lat="44.9514733" lon="8.2873983"><ele>196.0</ele><time>2026-04-11T12:41:15.289Z</time></trkpt><trkpt lat="44.951585" lon="8.28758"><ele>196.0</ele><time>2026-04-11T12:41:16.29Z</time></trkpt><trkpt lat="44.951655" lon="8.28776"><ele>196.0</ele><time>2026-04-11T12:41:17.289Z</time></trkpt><trkpt lat="44.95171" lon="8.2879467"><ele>193.75</ele><time>2026-04-11T12:41:18.289Z</time></trkpt><trkpt lat="44.9517333" lon="8.2881217"><ele>191.5</ele><time>2026-04-11T12:41:19.289Z</time></trkpt><trkpt lat="44.9517283" lon="8.2882983"><ele>189.25</ele><time>2026-04-11T12:41:20.29Z</time></trkpt><trkpt lat="44.95169" lon="8.2884717"><ele>187.0</ele><time>2026-04-11T12:41:21.29Z</time></trkpt><trkpt lat="44.9516417" lon="8.2886167"><ele>186.0</ele><time>2026-04-11T12:41:22.289Z</time></trkpt><trkpt lat="44.9515633" lon="8.2887383"><ele>185.0</ele><time>2026-04-11T12:41:23.29Z</time></trkpt><trkpt lat="44.9514533" lon="8.2888267"><ele>184.0</ele><time>2026-04-11T12:41:24.29Z</time></trkpt><trkpt lat="44.951305" lon="8.2888917"><ele>183.0</ele><time>2026-04-11T12:41:25.289Z</time></trkpt><trkpt lat="44.9511517" lon="8.2889667"><ele>180.66666666666666</ele><time>2026-04-11T12:41:26.289Z</time></trkpt><trkpt lat="44.950995" lon="8.2890533"><ele>178.33333333333331</ele><time>2026-04-11T12:41:27.289Z</time></trkpt><trkpt lat="44.9508433" lon="8.2891367"><ele>176.0</ele><time>2026-04-11T12:41:28.29Z</time></trkpt><trkpt lat="44.9506883" lon="8.2892117"><ele>176.0</ele><time>2026-04-11T12:41:29.289Z</time></trkpt><trkpt lat="44.9505333" lon="8.2892833"><ele>176.0</ele><time>2026-04-11T12:41:30.289Z</time></trkpt><trkpt lat="44.9503817" lon="8.289365"><ele>176.0</ele><time>2026-04-11T12:41:31.29Z</time></trkpt><trkpt lat="44.95024" lon="8.28945"><ele>176.0</ele><time>2026-04-11T12:41:32.29Z</time></trkpt><trkpt lat="44.9501017" lon="8.2895233"><ele>176.0</ele><time>2026-04-11T12:41:33.29Z</time></trkpt><trkpt lat="44.9499183" lon="8.2896033"><ele>176.0</ele><time>2026-04-11T12:41:34.289Z</time></trkpt><trkpt lat="44.9497833" lon="8.28968"><ele>177.25</ele><time>2026-04-11T12:41:35.289Z</time></trkpt><trkpt lat="44.9496617" lon="8.2897517"><ele>178.5</ele><time>2026-04-11T12:41:36.29Z</time></trkpt><trkpt lat="44.9495433" lon="8.289825"><ele>179.75</ele><time>2026-04-11T12:41:37.289Z</time></trkpt><trkpt lat="44.9494383" lon="8.289875"><ele>181.0</ele><time>2026-04-11T12:41:38.29Z</time></trkpt><trkpt lat="44.9493583" lon="8.289955"><ele>178.4</ele><time>2026-04-11T12:41:39.29Z</time></trkpt><trkpt lat="44.94932" lon="8.2900717"><ele>175.8</ele><time>2026-04-11T12:41:40.29Z</time></trkpt><trkpt lat="44.9493017" lon="8.2901917"><ele>173.20000000000002</ele><time>2026-04-11T12:41:41.289Z</time></trkpt><trkpt lat="44.94931" lon="8.2903317"><ele>170.60000000000002</ele><time>2026-04-11T12:41:42.29Z</time></trkpt><trkpt lat="44.949335" lon="8.29048"><ele>168.0</ele><time>2026-04-11T12:41:43.289Z</time></trkpt><trkpt lat="44.949365" lon="8.2906283"><ele>168.0</ele><time>2026-04-11T12:41:44.29Z</time></trkpt><trkpt lat="44.949375" lon="8.2909067"><ele>168.0</ele><time>2026-04-11T12:41:46.289Z</time></trkpt><trkpt lat="44.9493467" lon="8.291035"><ele>168.0</ele><time>2026-04-11T12:41:47.289Z</time></trkpt><trkpt lat="44.9492867" lon="8.2911333"><ele>168.0</ele><time>2026-04-11T12:41:48.289Z</time></trkpt><trkpt lat="44.94921" lon="8.2911983"><ele>167.8</ele><time>2026-04-11T12:41:49.29Z</time></trkpt><trkpt lat="44.9491283" lon="8.29127"><ele>167.60000000000002</ele><time>2026-04-11T12:41:50.289Z</time></trkpt><trkpt lat="44.94904" lon="8.291345"><ele>167.39999999999998</ele><time>2026-04-11T12:41:51.289Z</time></trkpt><trkpt lat="44.9489517" lon="8.29142"><ele>167.2</ele><time>2026-04-11T12:41:52.29Z</time></trkpt><trkpt lat="44.948875" lon="8.29149"><ele>167.0</ele><time>2026-04-11T12:41:53.289Z</time></trkpt><trkpt lat="44.9488117" lon="8.291545"><ele>167.0</ele><time>2026-04-11T12:41:54.289Z</time></trkpt><trkpt lat="44.9487367" lon="8.2916133"><ele>167.0</ele><time>2026-04-11T12:41:56.289Z</time></trkpt><trkpt lat="44.948625" lon="8.2915883"><ele>167.0</ele><time>2026-04-11T12:41:59.289Z</time></trkpt><trkpt lat="44.948555" lon="8.2915367"><ele>167.0</ele><time>2026-04-11T12:42:00.289Z</time></trkpt><trkpt lat="44.9484633" lon="8.2914867"><ele>167.0</ele><time>2026-04-11T12:42:01.289Z</time></trkpt><trkpt lat="44.9483517" lon="8.2914467"><ele>166.25</ele><time>2026-04-11T12:42:02.29Z</time></trkpt><trkpt lat="44.9482283" lon="8.291415"><ele>165.5</ele><time>2026-04-11T12:42:03.289Z</time></trkpt><trkpt lat="44.9480967" lon="8.2913883"><ele>164.75</ele><time>2026-04-11T12:42:04.289Z</time></trkpt><trkpt lat="44.9479483" lon="8.2913683"><ele>164.0</ele><time>2026-04-11T12:42:05.29Z</time></trkpt><trkpt lat="44.9477933" lon="8.291345"><ele>164.0</ele><time>2026-04-11T12:42:06.29Z</time></trkpt><trkpt lat="44.947625" lon="8.2913033"><ele>164.0</ele><time>2026-04-11T12:42:07.289Z</time></trkpt><trkpt lat="44.9474433" lon="8.2912783"><ele>164.0</ele><time>2026-04-11T12:42:08.29Z</time></trkpt><trkpt lat="44.9472633" lon="8.29125"><ele>164.33333333333331</ele><time>2026-04-11T12:42:09.289Z</time></trkpt><trkpt lat="44.947075" lon="8.2912167"><ele>164.66666666666666</ele><time>2026-04-11T12:42:10.289Z</time></trkpt><trkpt lat="44.9468717" lon="8.2911817"><ele>165.0</ele><time>2026-04-11T12:42:11.289Z</time></trkpt><trkpt lat="44.9466617" lon="8.291145"><ele>165.0</ele><time>2026-04-11T12:42:12.289Z</time></trkpt><trkpt lat="44.94645" lon="8.2911067"><ele>165.0</ele><time>2026-04-11T12:42:13.289Z</time></trkpt><trkpt lat="44.9462433" lon="8.2910533"><ele>165.0</ele><time>2026-04-11T12:42:14.289Z</time></trkpt><trkpt lat="44.9460483" lon="8.2910067"><ele>164.66666666666666</ele><time>2026-04-11T12:42:15.289Z</time></trkpt><trkpt lat="44.9458533" lon="8.2909783"><ele>164.33333333333331</ele><time>2026-04-11T12:42:16.289Z</time></trkpt><trkpt lat="44.945665" lon="8.2909633"><ele>164.0</ele><time>2026-04-11T12:42:17.29Z</time></trkpt><trkpt lat="44.9454667" lon="8.29094"><ele>164.0</ele><time>2026-04-11T12:42:18.29Z</time></trkpt><trkpt lat="44.94527" lon="8.2909167"><ele>164.0</ele><time>2026-04-11T12:42:19.289Z</time></trkpt><trkpt lat="44.9450717" lon="8.2908933"><ele>164.0</ele><time>2026-04-11T12:42:20.289Z</time></trkpt><trkpt lat="44.9448817" lon="8.2908667"><ele>162.66666666666666</ele><time>2026-04-11T12:42:21.289Z</time></trkpt><trkpt lat="44.944685" lon="8.2908233"><ele>161.33333333333334</ele><time>2026-04-11T12:42:22.289Z</time></trkpt><trkpt lat="44.9444767" lon="8.2907767"><ele>160.0</ele><time>2026-04-11T12:42:23.29Z</time></trkpt><trkpt lat="44.9442833" lon="8.2907483"><ele>161.0</ele><time>2026-04-11T12:42:24.289Z</time></trkpt><trkpt lat="44.9440867" lon="8.2907117"><ele>162.0</ele><time>2026-04-11T12:42:25.289Z</time></trkpt><trkpt lat="44.9438967" lon="8.2906717"><ele>163.0</ele><time>2026-04-11T12:42:26.29Z</time></trkpt><trkpt lat="44.9437167" lon="8.29065"><ele>163.0</ele><time>2026-04-11T12:42:27.289Z</time></trkpt><trkpt lat="44.9435267" lon="8.2906133"><ele>163.0</ele><time>2026-04-11T12:42:28.29Z</time></trkpt><trkpt lat="44.943345" lon="8.2905717"><ele>163.0</ele><time>2026-04-11T12:42:29.29Z</time></trkpt><trkpt lat="44.9431783" lon="8.2905433"><ele>162.0</ele><time>2026-04-11T12:42:30.29Z</time></trkpt><trkpt lat="44.9429983" lon="8.2905167"><ele>161.0</ele><time>2026-04-11T12:42:31.289Z</time></trkpt><trkpt lat="44.94281" lon="8.2904883"><ele>160.0</ele><time>2026-04-11T12:42:32.29Z</time></trkpt><trkpt lat="44.942625" lon="8.29047"><ele>159.66666666666669</ele><time>2026-04-11T12:42:33.29Z</time></trkpt><trkpt lat="44.942455" lon="8.2904433"><ele>159.33333333333334</ele><time>2026-04-11T12:42:34.289Z</time></trkpt><trkpt lat="44.9422867" lon="8.2904117"><ele>159.0</ele><time>2026-04-11T12:42:35.289Z</time></trkpt><trkpt lat="44.94212" lon="8.29038"><ele>159.0</ele><time>2026-04-11T12:42:36.289Z</time></trkpt><trkpt lat="44.94193" lon="8.2903517"><ele>159.0</ele><time>2026-04-11T12:42:37.29Z</time></trkpt><trkpt lat="44.9417467" lon="8.2903233"><ele>159.0</ele><time>2026-04-11T12:42:38.289Z</time></trkpt><trkpt lat="44.941575" lon="8.2903167"><ele>158.33333333333334</ele><time>2026-04-11T12:42:39.289Z</time></trkpt><trkpt lat="44.941395" lon="8.2903233"><ele>157.66666666666669</ele><time>2026-04-11T12:42:40.288Z</time></trkpt><trkpt lat="44.941215" lon="8.2903467"><ele>157.0</ele><time>2026-04-11T12:42:41.288Z</time></trkpt><trkpt lat="44.9410317" lon="8.2904"><ele>157.0</ele><time>2026-04-11T12:42:42.289Z</time></trkpt><trkpt lat="44.9408517" lon="8.290455"><ele>157.0</ele><time>2026-04-11T12:42:43.288Z</time></trkpt><trkpt lat="44.9406733" lon="8.29051"><ele>157.0</ele><time>2026-04-11T12:42:44.288Z</time></trkpt><trkpt lat="44.9404883" lon="8.2905767"><ele>158.0</ele><time>2026-04-11T12:42:45.288Z</time></trkpt><trkpt lat="44.940315" lon="8.2906433"><ele>159.0</ele><time>2026-04-11T12:42:46.288Z</time></trkpt><trkpt lat="44.9401383" lon="8.2906983"><ele>160.0</ele><time>2026-04-11T12:42:47.288Z</time></trkpt><trkpt lat="44.939965" lon="8.2907683"><ele>160.0</ele><time>2026-04-11T12:42:48.288Z</time></trkpt><trkpt lat="44.939795" lon="8.2908317"><ele>160.0</ele><time>2026-04-11T12:42:49.289Z</time></trkpt><trkpt lat="44.9396217" lon="8.2909033"><ele>160.0</ele><time>2026-04-11T12:42:50.288Z</time></trkpt><trkpt lat="44.9394433" lon="8.290975"><ele>160.0</ele><time>2026-04-11T12:42:51.288Z</time></trkpt><trkpt lat="44.939275" lon="8.2910467"><ele>160.0</ele><time>2026-04-11T12:42:52.288Z</time></trkpt><trkpt lat="44.9391083" lon="8.2911"><ele>160.0</ele><time>2026-04-11T12:42:53.288Z</time></trkpt><trkpt lat="44.9389317" lon="8.2911667"><ele>158.66666666666669</ele><time>2026-04-11T12:42:54.288Z</time></trkpt><trkpt lat="44.9387617" lon="8.2912383"><ele>157.33333333333334</ele><time>2026-04-11T12:42:55.289Z</time></trkpt><trkpt lat="44.9385967" lon="8.291305"><ele>156.0</ele><time>2026-04-11T12:42:56.288Z</time></trkpt><trkpt lat="44.9384283" lon="8.29137"><ele>155.66666666666666</ele><time>2026-04-11T12:42:57.289Z</time></trkpt><trkpt lat="44.938265" lon="8.29143"><ele>155.33333333333331</ele><time>2026-04-11T12:42:58.288Z</time></trkpt><trkpt lat="44.9380983" lon="8.291495"><ele>155.0</ele><time>2026-04-11T12:42:59.289Z</time></trkpt><trkpt lat="44.937915" lon="8.29156"><ele>155.0</ele><time>2026-04-11T12:43:00.288Z</time></trkpt><trkpt lat="44.937735" lon="8.2916117"><ele>155.0</ele><time>2026-04-11T12:43:01.289Z</time></trkpt><trkpt lat="44.93756" lon="8.291675"><ele>155.0</ele><time>2026-04-11T12:43:02.289Z</time></trkpt><trkpt lat="44.9373867" lon="8.2917383"><ele>154.66666666666666</ele><time>2026-04-11T12:43:03.289Z</time></trkpt><trkpt lat="44.93721" lon="8.2918033"><ele>154.33333333333334</ele><time>2026-04-11T12:43:04.289Z</time></trkpt><trkpt lat="44.9370417" lon="8.291865"><ele>154.0</ele><time>2026-04-11T12:43:05.288Z</time></trkpt><trkpt lat="44.9368683" lon="8.2919317"><ele>153.33333333333334</ele><time>2026-04-11T12:43:06.288Z</time></trkpt><trkpt lat="44.93671" lon="8.292"><ele>152.66666666666666</ele><time>2026-04-11T12:43:07.289Z</time></trkpt><trkpt lat="44.936545" lon="8.2920533"><ele>152.0</ele><time>2026-04-11T12:43:08.288Z</time></trkpt><trkpt lat="44.9363867" lon="8.2921233"><ele>152.0</ele><time>2026-04-11T12:43:09.289Z</time></trkpt><trkpt lat="44.93622" lon="8.2921867"><ele>152.0</ele><time>2026-04-11T12:43:10.288Z</time></trkpt><trkpt lat="44.936055" lon="8.292245"><ele>152.0</ele><time>2026-04-11T12:43:11.288Z</time></trkpt><trkpt lat="44.935895" lon="8.292305"><ele>152.66666666666666</ele><time>2026-04-11T12:43:12.288Z</time></trkpt><trkpt lat="44.9357233" lon="8.2923683"><ele>153.33333333333334</ele><time>2026-04-11T12:43:13.289Z</time></trkpt><trkpt lat="44.93555" lon="8.2924333"><ele>154.0</ele><time>2026-04-11T12:43:14.288Z</time></trkpt><trkpt lat="44.93538" lon="8.2924933"><ele>154.0</ele><time>2026-04-11T12:43:15.289Z</time></trkpt><trkpt lat="44.93521" lon="8.2925533"><ele>154.0</ele><time>2026-04-11T12:43:16.288Z</time></trkpt><trkpt lat="44.9350433" lon="8.29262"><ele>154.0</ele><time>2026-04-11T12:43:17.288Z</time></trkpt><trkpt lat="44.9348833" lon="8.2926933"><ele>152.66666666666669</ele><time>2026-04-11T12:43:18.288Z</time></trkpt><trkpt lat="44.9347133" lon="8.2927567"><ele>151.33333333333334</ele><time>2026-04-11T12:43:19.288Z</time></trkpt><trkpt lat="44.9345583" lon="8.29281"><ele>150.0</ele><time>2026-04-11T12:43:20.288Z</time></trkpt><trkpt lat="44.9343967" lon="8.2928933"><ele>150.0</ele><time>2026-04-11T12:43:21.288Z</time></trkpt><trkpt lat="44.934225" lon="8.2929717"><ele>150.0</ele><time>2026-04-11T12:43:22.288Z</time></trkpt><trkpt lat="44.9340633" lon="8.293055"><ele>150.0</ele><time>2026-04-11T12:43:23.288Z</time></trkpt><trkpt lat="44.9339083" lon="8.2931533"><ele>152.66666666666666</ele><time>2026-04-11T12:43:24.288Z</time></trkpt><trkpt lat="44.9337417" lon="8.29324"><ele>155.33333333333331</ele><time>2026-04-11T12:43:25.288Z</time></trkpt><trkpt lat="44.9335717" lon="8.2933283"><ele>158.0</ele><time>2026-04-11T12:43:26.288Z</time></trkpt><trkpt lat="44.9334017" lon="8.29343"><ele>155.0</ele><time>2026-04-11T12:43:27.289Z</time></trkpt><trkpt lat="44.9332283" lon="8.2935433"><ele>152.0</ele><time>2026-04-11T12:43:28.288Z</time></trkpt><trkpt lat="44.933065" lon="8.293645"><ele>149.0</ele><time>2026-04-11T12:43:29.288Z</time></trkpt><trkpt lat="44.932915" lon="8.29375"><ele>149.0</ele><time>2026-04-11T12:43:30.288Z</time></trkpt><trkpt lat="44.932775" lon="8.2938533"><ele>149.0</ele><time>2026-04-11T12:43:31.288Z</time></trkpt><trkpt lat="44.9326283" lon="8.2939433"><ele>149.0</ele><time>2026-04-11T12:43:32.288Z</time></trkpt><trkpt lat="44.9324833" lon="8.2940233"><ele>149.33333333333331</ele><time>2026-04-11T12:43:33.289Z</time></trkpt><trkpt lat="44.9323333" lon="8.2941183"><ele>149.66666666666666</ele><time>2026-04-11T12:43:34.288Z</time></trkpt><trkpt lat="44.93218" lon="8.2942217"><ele>150.0</ele><time>2026-04-11T12:43:35.289Z</time></trkpt><trkpt lat="44.9320367" lon="8.2943117"><ele>150.0</ele><time>2026-04-11T12:43:36.288Z</time></trkpt><trkpt lat="44.9318917" lon="8.2944083"><ele>150.0</ele><time>2026-04-11T12:43:37.288Z</time></trkpt><trkpt lat="44.931735" lon="8.2945017"><ele>150.0</ele><time>2026-04-11T12:43:38.288Z</time></trkpt><trkpt lat="44.931585" lon="8.294585"><ele>149.33333333333334</ele><time>2026-04-11T12:43:39.289Z</time></trkpt><trkpt lat="44.9314267" lon="8.2946767"><ele>148.66666666666669</ele><time>2026-04-11T12:43:40.288Z</time></trkpt><trkpt lat="44.93129" lon="8.294765"><ele>148.0</ele><time>2026-04-11T12:43:41.289Z</time></trkpt><trkpt lat="44.9311567" lon="8.29486"><ele>148.0</ele><time>2026-04-11T12:43:42.288Z</time></trkpt><trkpt lat="44.9310017" lon="8.294955"><ele>148.0</ele><time>2026-04-11T12:43:43.289Z</time></trkpt><trkpt lat="44.9308667" lon="8.2950433"><ele>148.0</ele><time>2026-04-11T12:43:44.288Z</time></trkpt><trkpt lat="44.93072" lon="8.2951317"><ele>148.0</ele><time>2026-04-11T12:43:45.289Z</time></trkpt><trkpt lat="44.9305833" lon="8.29523"><ele>148.0</ele><time>2026-04-11T12:43:46.288Z</time></trkpt><trkpt lat="44.9304367" lon="8.2953067"><ele>148.0</ele><time>2026-04-11T12:43:47.288Z</time></trkpt><trkpt lat="44.93028" lon="8.2953867"><ele>148.0</ele><time>2026-04-11T12:43:48.289Z</time></trkpt><trkpt lat="44.93013" lon="8.2954683"><ele>148.0</ele><time>2026-04-11T12:43:49.288Z</time></trkpt><trkpt lat="44.929985" lon="8.2955617"><ele>148.0</ele><time>2026-04-11T12:43:50.288Z</time></trkpt><trkpt lat="44.929845" lon="8.2956617"><ele>146.66666666666669</ele><time>2026-04-11T12:43:51.289Z</time></trkpt><trkpt lat="44.9296983" lon="8.2957667"><ele>145.33333333333334</ele><time>2026-04-11T12:43:52.288Z</time></trkpt><trkpt lat="44.92955" lon="8.2958533"><ele>144.0</ele><time>2026-04-11T12:43:53.289Z</time></trkpt><trkpt lat="44.9294017" lon="8.2959383"><ele>144.0</ele><time>2026-04-11T12:43:54.288Z</time></trkpt><trkpt lat="44.929255" lon="8.2960333"><ele>144.0</ele><time>2026-04-11T12:43:55.289Z</time></trkpt><trkpt lat="44.9291133" lon="8.2961133"><ele>144.0</ele><time>2026-04-11T12:43:56.288Z</time></trkpt><trkpt lat="44.9289767" lon="8.2961983"><ele>144.33333333333334</ele><time>2026-04-11T12:43:57.288Z</time></trkpt><trkpt lat="44.92883" lon="8.29628"><ele>144.66666666666669</ele><time>2026-04-11T12:43:58.289Z</time></trkpt><trkpt lat="44.9286717" lon="8.29636"><ele>145.0</ele><time>2026-04-11T12:43:59.288Z</time></trkpt><trkpt lat="44.9285183" lon="8.29646"><ele>144.33333333333334</ele><time>2026-04-11T12:44:00.288Z</time></trkpt><trkpt lat="44.9283833" lon="8.2965517"><ele>143.66666666666666</ele><time>2026-04-11T12:44:01.288Z</time></trkpt><trkpt lat="44.928235" lon="8.2966417"><ele>143.0</ele><time>2026-04-11T12:44:02.289Z</time></trkpt><trkpt lat="44.92808" lon="8.296735"><ele>143.0</ele><time>2026-04-11T12:44:03.288Z</time></trkpt><trkpt lat="44.927915" lon="8.2968283"><ele>143.0</ele><time>2026-04-11T12:44:04.288Z</time></trkpt><trkpt lat="44.9277533" lon="8.296925"><ele>143.0</ele><time>2026-04-11T12:44:05.288Z</time></trkpt><trkpt lat="44.9275933" lon="8.297025"><ele>143.0</ele><time>2026-04-11T12:44:06.289Z</time></trkpt><trkpt lat="44.9272533" lon="8.2972033"><ele>143.0</ele><time>2026-04-11T12:44:08.288Z</time></trkpt><trkpt lat="44.92709" lon="8.2972933"><ele>143.0</ele><time>2026-04-11T12:44:09.288Z</time></trkpt><trkpt lat="44.926935" lon="8.29738"><ele>143.0</ele><time>2026-04-11T12:44:10.288Z</time></trkpt><trkpt lat="44.9267733" lon="8.2974633"><ele>143.0</ele><time>2026-04-11T12:44:11.288Z</time></trkpt><trkpt lat="44.926615" lon="8.2975533"><ele>144.0</ele><time>2026-04-11T12:44:12.288Z</time></trkpt><trkpt lat="44.9264467" lon="8.29765"><ele>145.0</ele><time>2026-04-11T12:44:13.288Z</time></trkpt><trkpt lat="44.9262917" lon="8.297735"><ele>146.0</ele><time>2026-04-11T12:44:14.288Z</time></trkpt><trkpt lat="44.92612" lon="8.2978183"><ele>146.0</ele><time>2026-04-11T12:44:15.288Z</time></trkpt><trkpt lat="44.9259583" lon="8.2979133"><ele>146.0</ele><time>2026-04-11T12:44:16.288Z</time></trkpt><trkpt lat="44.92579" lon="8.298005"><ele>146.0</ele><time>2026-04-11T12:44:17.288Z</time></trkpt><trkpt lat="44.92563" lon="8.2980733"><ele>144.33333333333331</ele><time>2026-04-11T12:44:18.288Z</time></trkpt><trkpt lat="44.9254667" lon="8.298115"><ele>142.66666666666666</ele><time>2026-04-11T12:44:19.289Z</time></trkpt><trkpt lat="44.9252933" lon="8.29816"><ele>141.0</ele><time>2026-04-11T12:44:20.289Z</time></trkpt><trkpt lat="44.9251333" lon="8.2981967"><ele>141.33333333333334</ele><time>2026-04-11T12:44:21.288Z</time></trkpt><trkpt lat="44.924965" lon="8.2982267"><ele>141.66666666666669</ele><time>2026-04-11T12:44:22.289Z</time></trkpt><trkpt lat="44.9248017" lon="8.29827"><ele>142.0</ele><time>2026-04-11T12:44:23.289Z</time></trkpt><trkpt lat="44.9246383" lon="8.2983167"><ele>142.0</ele><time>2026-04-11T12:44:24.288Z</time></trkpt><trkpt lat="44.9244683" lon="8.2983467"><ele>142.0</ele><time>2026-04-11T12:44:25.288Z</time></trkpt><trkpt lat="44.924305" lon="8.2983917"><ele>142.0</ele><time>2026-04-11T12:44:26.289Z</time></trkpt><trkpt lat="44.924145" lon="8.2984333"><ele>141.75</ele><time>2026-04-11T12:44:27.288Z</time></trkpt><trkpt lat="44.9239917" lon="8.2984733"><ele>141.5</ele><time>2026-04-11T12:44:28.289Z</time></trkpt><trkpt lat="44.9238533" lon="8.2985017"><ele>141.25</ele><time>2026-04-11T12:44:29.288Z</time></trkpt><trkpt lat="44.9237183" lon="8.2985133"><ele>141.0</ele><time>2026-04-11T12:44:30.289Z</time></trkpt><trkpt lat="44.923595" lon="8.2985467"><ele>141.0</ele><time>2026-04-11T12:44:31.289Z</time></trkpt><trkpt lat="44.923465" lon="8.29859"><ele>141.0</ele><time>2026-04-11T12:44:32.288Z</time></trkpt><trkpt lat="44.9233217" lon="8.2986167"><ele>141.0</ele><time>2026-04-11T12:44:33.288Z</time></trkpt><trkpt lat="44.9231883" lon="8.29865"><ele>141.0</ele><time>2026-04-11T12:44:34.288Z</time></trkpt><trkpt lat="44.9230617" lon="8.2986783"><ele>141.0</ele><time>2026-04-11T12:44:35.288Z</time></trkpt><trkpt lat="44.922935" lon="8.2987083"><ele>141.0</ele><time>2026-04-11T12:44:36.289Z</time></trkpt><trkpt lat="44.9227983" lon="8.2987433"><ele>141.0</ele><time>2026-04-11T12:44:37.288Z</time></trkpt><trkpt lat="44.92266" lon="8.29878"><ele>141.0</ele><time>2026-04-11T12:44:38.288Z</time></trkpt><trkpt lat="44.9225217" lon="8.2988083"><ele>141.75</ele><time>2026-04-11T12:44:39.288Z</time></trkpt><trkpt lat="44.9223833" lon="8.2988317"><ele>142.5</ele><time>2026-04-11T12:44:40.288Z</time></trkpt><trkpt lat="44.922245" lon="8.298865"><ele>143.25</ele><time>2026-04-11T12:44:41.288Z</time></trkpt><trkpt lat="44.9221" lon="8.2988967"><ele>144.0</ele><time>2026-04-11T12:44:42.288Z</time></trkpt><trkpt lat="44.9219583" lon="8.2989217"><ele>142.5</ele><time>2026-04-11T12:44:43.289Z</time></trkpt><trkpt lat="44.9218117" lon="8.2989567"><ele>141.0</ele><time>2026-04-11T12:44:44.288Z</time></trkpt><trkpt lat="44.9216683" lon="8.298985"><ele>139.5</ele><time>2026-04-11T12:44:45.289Z</time></trkpt><trkpt lat="44.9215167" lon="8.29902"><ele>138.0</ele><time>2026-04-11T12:44:46.288Z</time></trkpt><trkpt lat="44.92136" lon="8.2990483"><ele>138.25</ele><time>2026-04-11T12:44:47.288Z</time></trkpt><trkpt lat="44.9212133" lon="8.2990833"><ele>138.5</ele><time>2026-04-11T12:44:48.289Z</time></trkpt><trkpt lat="44.9210633" lon="8.2991233"><ele>138.75</ele><time>2026-04-11T12:44:49.289Z</time></trkpt><trkpt lat="44.9209183" lon="8.2991567"><ele>139.0</ele><time>2026-04-11T12:44:50.288Z</time></trkpt><trkpt lat="44.9207683" lon="8.299185"><ele>139.0</ele><time>2026-04-11T12:44:51.289Z</time></trkpt><trkpt lat="44.920625" lon="8.2992183"><ele>139.0</ele><time>2026-04-11T12:44:52.288Z</time></trkpt><trkpt lat="44.92049" lon="8.29923"><ele>139.0</ele><time>2026-04-11T12:44:53.288Z</time></trkpt><trkpt lat="44.9203483" lon="8.299245"><ele>139.0</ele><time>2026-04-11T12:44:54.289Z</time></trkpt><trkpt lat="44.9202" lon="8.2992467"><ele>139.0</ele><time>2026-04-11T12:44:55.288Z</time></trkpt><trkpt lat="44.920055" lon="8.2992483"><ele>139.0</ele><time>2026-04-11T12:44:56.288Z</time></trkpt><trkpt lat="44.9199217" lon="8.2991817"><ele>139.0</ele><time>2026-04-11T12:44:57.288Z</time></trkpt><trkpt lat="44.91978" lon="8.2991217"><ele>139.0</ele><time>2026-04-11T12:44:58.288Z</time></trkpt><trkpt lat="44.9196417" lon="8.2990667"><ele>139.0</ele><time>2026-04-11T12:44:59.288Z</time></trkpt><trkpt lat="44.9194933" lon="8.2990233"><ele>139.0</ele><time>2026-04-11T12:45:00.288Z</time></trkpt><trkpt lat="44.9193483" lon="8.2989617"><ele>139.0</ele><time>2026-04-11T12:45:01.289Z</time></trkpt><trkpt lat="44.9192033" lon="8.2988867"><ele>142.33333333333334</ele><time>2026-04-11T12:45:02.288Z</time></trkpt><trkpt lat="44.9190583" lon="8.2988233"><ele>145.66666666666666</ele><time>2026-04-11T12:45:03.288Z</time></trkpt><trkpt lat="44.9188983" lon="8.2987767"><ele>149.0</ele><time>2026-04-11T12:45:04.288Z</time></trkpt><trkpt lat="44.9187467" lon="8.2987117"><ele>149.0</ele><time>2026-04-11T12:45:05.289Z</time></trkpt><trkpt lat="44.918595" lon="8.2986483"><ele>149.0</ele><time>2026-04-11T12:45:06.288Z</time></trkpt><trkpt lat="44.9184483" lon="8.2985883"><ele>149.0</ele><time>2026-04-11T12:45:07.288Z</time></trkpt><trkpt lat="44.9183033" lon="8.298535"><ele>146.33333333333331</ele><time>2026-04-11T12:45:08.288Z</time></trkpt><trkpt lat="44.918145" lon="8.2984767"><ele>143.66666666666666</ele><time>2026-04-11T12:45:09.289Z</time></trkpt><trkpt lat="44.91799" lon="8.298425"><ele>141.0</ele><time>2026-04-11T12:45:10.288Z</time></trkpt><trkpt lat="44.91783" lon="8.2983683"><ele>141.0</ele><time>2026-04-11T12:45:11.288Z</time></trkpt><trkpt lat="44.917665" lon="8.2983117"><ele>141.0</ele><time>2026-04-11T12:45:12.288Z</time></trkpt><trkpt lat="44.9175017" lon="8.298255"><ele>141.0</ele><time>2026-04-11T12:45:13.288Z</time></trkpt><trkpt lat="44.9173433" lon="8.29819"><ele>142.0</ele><time>2026-04-11T12:45:14.288Z</time></trkpt><trkpt lat="44.9171833" lon="8.2981233"><ele>143.0</ele><time>2026-04-11T12:45:15.288Z</time></trkpt><trkpt lat="44.917015" lon="8.2980533"><ele>144.0</ele><time>2026-04-11T12:45:16.288Z</time></trkpt><trkpt lat="44.916845" lon="8.2979883"><ele>143.0</ele><time>2026-04-11T12:45:17.288Z</time></trkpt><trkpt lat="44.9166733" lon="8.297935"><ele>142.0</ele><time>2026-04-11T12:45:18.289Z</time></trkpt><trkpt lat="44.916515" lon="8.2978733"><ele>141.0</ele><time>2026-04-11T12:45:19.288Z</time></trkpt><trkpt lat="44.91635" lon="8.29781"><ele>141.0</ele><time>2026-04-11T12:45:20.288Z</time></trkpt><trkpt lat="44.9161867" lon="8.29773"><ele>141.0</ele><time>2026-04-11T12:45:21.288Z</time></trkpt><trkpt lat="44.9160283" lon="8.2976617"><ele>141.0</ele><time>2026-04-11T12:45:22.288Z</time></trkpt><trkpt lat="44.9158733" lon="8.29759"><ele>141.33333333333334</ele><time>2026-04-11T12:45:23.288Z</time></trkpt><trkpt lat="44.9157267" lon="8.2974983"><ele>141.66666666666669</ele><time>2026-04-11T12:45:24.288Z</time></trkpt><trkpt lat="44.9155967" lon="8.2973633"><ele>142.0</ele><time>2026-04-11T12:45:25.288Z</time></trkpt><trkpt lat="44.9154733" lon="8.29721"><ele>142.0</ele><time>2026-04-11T12:45:26.288Z</time></trkpt><trkpt lat="44.9153583" lon="8.297055"><ele>142.0</ele><time>2026-04-11T12:45:27.289Z</time></trkpt><trkpt lat="44.9152433" lon="8.29689"><ele>142.0</ele><time>2026-04-11T12:45:28.288Z</time></trkpt><trkpt lat="44.9151317" lon="8.2966983"><ele>140.66666666666669</ele><time>2026-04-11T12:45:29.288Z</time></trkpt><trkpt lat="44.9150183" lon="8.2965217"><ele>139.33333333333334</ele><time>2026-04-11T12:45:30.288Z</time></trkpt><trkpt lat="44.9149" lon="8.296345"><ele>138.0</ele><time>2026-04-11T12:45:31.288Z</time></trkpt><trkpt lat="44.9147983" lon="8.2961567"><ele>138.0</ele><time>2026-04-11T12:45:32.289Z</time></trkpt><trkpt lat="44.9146917" lon="8.2959683"><ele>138.0</ele><time>2026-04-11T12:45:33.289Z</time></trkpt><trkpt lat="44.9145883" lon="8.2957717"><ele>138.0</ele><time>2026-04-11T12:45:34.289Z</time></trkpt><trkpt lat="44.9144733" lon="8.29558"><ele>138.66666666666666</ele><time>2026-04-11T12:45:35.288Z</time></trkpt><trkpt lat="44.91436" lon="8.2953767"><ele>139.33333333333331</ele><time>2026-04-11T12:45:36.288Z</time></trkpt><trkpt lat="44.914245" lon="8.2951917"><ele>140.0</ele><time>2026-04-11T12:45:37.288Z</time></trkpt><trkpt lat="44.9141267" lon="8.2950067"><ele>138.0</ele><time>2026-04-11T12:45:38.288Z</time></trkpt><trkpt lat="44.91401" lon="8.2948067"><ele>136.0</ele><time>2026-04-11T12:45:39.288Z</time></trkpt><trkpt lat="44.9138933" lon="8.2946067"><ele>134.0</ele><time>2026-04-11T12:45:40.289Z</time></trkpt><trkpt lat="44.91377" lon="8.2944"><ele>134.0</ele><time>2026-04-11T12:45:41.288Z</time></trkpt><trkpt lat="44.913655" lon="8.2942017"><ele>134.0</ele><time>2026-04-11T12:45:42.288Z</time></trkpt><trkpt lat="44.913545" lon="8.2940083"><ele>134.0</ele><time>2026-04-11T12:45:43.288Z</time></trkpt><trkpt lat="44.913435" lon="8.2938117"><ele>132.33333333333331</ele><time>2026-04-11T12:45:44.289Z</time></trkpt><trkpt lat="44.9133283" lon="8.2936233"><ele>130.66666666666666</ele><time>2026-04-11T12:45:45.289Z</time></trkpt><trkpt lat="44.9132133" lon="8.2934367"><ele>129.0</ele><time>2026-04-11T12:45:46.288Z</time></trkpt><trkpt lat="44.9131017" lon="8.29326"><ele>128.66666666666666</ele><time>2026-04-11T12:45:47.288Z</time></trkpt><trkpt lat="44.9129867" lon="8.2930817"><ele>128.33333333333331</ele><time>2026-04-11T12:45:48.288Z</time></trkpt><trkpt lat="44.912885" lon="8.2929017"><ele>128.0</ele><time>2026-04-11T12:45:49.288Z</time></trkpt><trkpt lat="44.9127733" lon="8.292725"><ele>128.0</ele><time>2026-04-11T12:45:50.289Z</time></trkpt><trkpt lat="44.9126667" lon="8.292545"><ele>128.0</ele><time>2026-04-11T12:45:51.288Z</time></trkpt><trkpt lat="44.9125533" lon="8.2923617"><ele>128.0</ele><time>2026-04-11T12:45:52.288Z</time></trkpt><trkpt lat="44.912445" lon="8.2921883"><ele>127.66666666666666</ele><time>2026-04-11T12:45:53.288Z</time></trkpt><trkpt lat="44.9123467" lon="8.292005"><ele>127.33333333333334</ele><time>2026-04-11T12:45:54.288Z</time></trkpt><trkpt lat="44.9122333" lon="8.29181"><ele>127.0</ele><time>2026-04-11T12:45:55.288Z</time></trkpt><trkpt lat="44.91212" lon="8.291625"><ele>127.0</ele><time>2026-04-11T12:45:56.288Z</time></trkpt><trkpt lat="44.9120183" lon="8.291445"><ele>127.0</ele><time>2026-04-11T12:45:57.288Z</time></trkpt><trkpt lat="44.9119217" lon="8.2912733"><ele>127.0</ele><time>2026-04-11T12:45:58.288Z</time></trkpt><trkpt lat="44.91183" lon="8.291115"><ele>127.0</ele><time>2026-04-11T12:45:59.288Z</time></trkpt><trkpt lat="44.9117417" lon="8.2909767"><ele>127.0</ele><time>2026-04-11T12:46:00.289Z</time></trkpt><trkpt lat="44.9116567" lon="8.2908483"><ele>127.0</ele><time>2026-04-11T12:46:01.288Z</time></trkpt><trkpt lat="44.9115717" lon="8.29072"><ele>127.0</ele><time>2026-04-11T12:46:02.288Z</time></trkpt><trkpt lat="44.9114933" lon="8.2905933"><ele>127.8</ele><time>2026-04-11T12:46:03.289Z</time></trkpt><trkpt lat="44.9114267" lon="8.2904683"><ele>128.6</ele><time>2026-04-11T12:46:04.288Z</time></trkpt><trkpt lat="44.9113617" lon="8.2903367"><ele>129.39999999999998</ele><time>2026-04-11T12:46:05.289Z</time></trkpt><trkpt lat="44.9112883" lon="8.29022"><ele>130.2</ele><time>2026-04-11T12:46:06.288Z</time></trkpt><trkpt lat="44.9112117" lon="8.2901017"><ele>131.0</ele><time>2026-04-11T12:46:07.289Z</time></trkpt><trkpt lat="44.91114" lon="8.289975"><ele>131.0</ele><time>2026-04-11T12:46:08.288Z</time></trkpt><trkpt lat="44.9110717" lon="8.2898383"><ele>131.0</ele><time>2026-04-11T12:46:09.289Z</time></trkpt><trkpt lat="44.9110067" lon="8.2897117"><ele>131.0</ele><time>2026-04-11T12:46:10.289Z</time></trkpt><trkpt lat="44.9109333" lon="8.2895783"><ele>131.0</ele><time>2026-04-11T12:46:11.289Z</time></trkpt><trkpt lat="44.9108517" lon="8.2894533"><ele>130.75</ele><time>2026-04-11T12:46:12.288Z</time></trkpt><trkpt lat="44.9107733" lon="8.289325"><ele>130.5</ele><time>2026-04-11T12:46:13.289Z</time></trkpt><trkpt lat="44.9106983" lon="8.2891967"><ele>130.25</ele><time>2026-04-11T12:46:14.288Z</time></trkpt><trkpt lat="44.9106133" lon="8.2890683"><ele>130.0</ele><time>2026-04-11T12:46:15.289Z</time></trkpt><trkpt lat="44.9105383" lon="8.2889383"><ele>130.0</ele><time>2026-04-11T12:46:16.289Z</time></trkpt><trkpt lat="44.9104417" lon="8.2887867"><ele>130.0</ele><time>2026-04-11T12:46:17.288Z</time></trkpt><trkpt lat="44.9103483" lon="8.2886233"><ele>130.0</ele><time>2026-04-11T12:46:18.289Z</time></trkpt><trkpt lat="44.910275" lon="8.2884767"><ele>130.0</ele><time>2026-04-11T12:46:19.288Z</time></trkpt><trkpt lat="44.9101733" lon="8.28832"><ele>130.0</ele><time>2026-04-11T12:46:20.288Z</time></trkpt><trkpt lat="44.9100817" lon="8.288165"><ele>130.0</ele><time>2026-04-11T12:46:21.288Z</time></trkpt><trkpt lat="44.9099967" lon="8.28803"><ele>130.0</ele><time>2026-04-11T12:46:22.289Z</time></trkpt><trkpt lat="44.9099183" lon="8.2879"><ele>130.0</ele><time>2026-04-11T12:46:23.288Z</time></trkpt><trkpt lat="44.90983" lon="8.2877667"><ele>130.0</ele><time>2026-04-11T12:46:24.288Z</time></trkpt><trkpt lat="44.909745" lon="8.2876183"><ele>130.0</ele><time>2026-04-11T12:46:25.289Z</time></trkpt><trkpt lat="44.9096533" lon="8.2874733"><ele>130.0</ele><time>2026-04-11T12:46:26.289Z</time></trkpt><trkpt lat="44.9095633" lon="8.2873217"><ele>130.0</ele><time>2026-04-11T12:46:27.288Z</time></trkpt><trkpt lat="44.9095033" lon="8.2871183"><ele>130.5</ele><time>2026-04-11T12:46:28.288Z</time></trkpt><trkpt lat="44.9094133" lon="8.286975"><ele>131.0</ele><time>2026-04-11T12:46:29.288Z</time></trkpt><trkpt lat="44.9093183" lon="8.2868333"><ele>131.5</ele><time>2026-04-11T12:46:30.288Z</time></trkpt><trkpt lat="44.9092283" lon="8.2866867"><ele>132.0</ele><time>2026-04-11T12:46:31.287Z</time></trkpt><trkpt lat="44.9091417" lon="8.286535"><ele>129.66666666666666</ele><time>2026-04-11T12:46:32.287Z</time></trkpt><trkpt lat="44.9090567" lon="8.2864"><ele>127.33333333333333</ele><time>2026-04-11T12:46:33.287Z</time></trkpt><trkpt lat="44.9089683" lon="8.2862633"><ele>125.0</ele><time>2026-04-11T12:46:34.288Z</time></trkpt><trkpt lat="44.9088017" lon="8.286005"><ele>125.0</ele><time>2026-04-11T12:46:36.287Z</time></trkpt><trkpt lat="44.9087233" lon="8.2858833"><ele>125.0</ele><time>2026-04-11T12:46:37.287Z</time></trkpt><trkpt lat="44.9086483" lon="8.2857817"><ele>125.0</ele><time>2026-04-11T12:46:38.287Z</time></trkpt><trkpt lat="44.9085783" lon="8.28567"><ele>125.0</ele><time>2026-04-11T12:46:39.287Z</time></trkpt><trkpt lat="44.9085067" lon="8.2855567"><ele>125.0</ele><time>2026-04-11T12:46:40.287Z</time></trkpt><trkpt lat="44.9084367" lon="8.28544"><ele>124.75</ele><time>2026-04-11T12:46:41.287Z</time></trkpt><trkpt lat="44.9083617" lon="8.2853117"><ele>124.5</ele><time>2026-04-11T12:46:42.287Z</time></trkpt><trkpt lat="44.90828" lon="8.2852067"><ele>124.25</ele><time>2026-04-11T12:46:43.288Z</time></trkpt><trkpt lat="44.90819" lon="8.2851033"><ele>124.0</ele><time>2026-04-11T12:46:44.287Z</time></trkpt><trkpt lat="44.9080917" lon="8.2849983"><ele>124.0</ele><time>2026-04-11T12:46:45.287Z</time></trkpt><trkpt lat="44.90799" lon="8.2848983"><ele>124.0</ele><time>2026-04-11T12:46:46.288Z</time></trkpt><trkpt lat="44.9078883" lon="8.2848117"><ele>124.0</ele><time>2026-04-11T12:46:47.288Z</time></trkpt><trkpt lat="44.907805" lon="8.284725"><ele>124.0</ele><time>2026-04-11T12:46:48.288Z</time></trkpt><trkpt lat="44.9077217" lon="8.284645"><ele>124.0</ele><time>2026-04-11T12:46:49.288Z</time></trkpt><trkpt lat="44.9076433" lon="8.2845717"><ele>123.80000000000001</ele><time>2026-04-11T12:46:50.288Z</time></trkpt><trkpt lat="44.90758" lon="8.2844983"><ele>123.60000000000001</ele><time>2026-04-11T12:46:51.287Z</time></trkpt><trkpt lat="44.9074367" lon="8.284375"><ele>123.4</ele><time>2026-04-11T12:46:53.287Z</time></trkpt><trkpt lat="44.9073767" lon="8.2843"><ele>123.2</ele><time>2026-04-11T12:46:54.287Z</time></trkpt><trkpt lat="44.9073417" lon="8.2842083"><ele>123.0</ele><time>2026-04-11T12:46:55.287Z</time></trkpt><trkpt lat="44.907335" lon="8.28409"><ele>123.0</ele><time>2026-04-11T12:46:56.287Z</time></trkpt><trkpt lat="44.907325" lon="8.2839767"><ele>123.00000000000001</ele><time>2026-04-11T12:46:57.287Z</time></trkpt><trkpt lat="44.9073333" lon="8.283845"><ele>123.00000000000001</ele><time>2026-04-11T12:46:58.287Z</time></trkpt><trkpt lat="44.9073517" lon="8.2837183"><ele>123.0</ele><time>2026-04-11T12:46:59.287Z</time></trkpt><trkpt lat="44.90738" lon="8.28348"><ele>123.0</ele><time>2026-04-11T12:47:01.287Z</time></trkpt><trkpt lat="44.9073767" lon="8.2833617"><ele>122.80000000000001</ele><time>2026-04-11T12:47:02.288Z</time></trkpt><trkpt lat="44.9073817" lon="8.2832233"><ele>122.60000000000001</ele><time>2026-04-11T12:47:03.287Z</time></trkpt><trkpt lat="44.9073917" lon="8.2830733"><ele>122.39999999999999</ele><time>2026-04-11T12:47:04.287Z</time></trkpt><trkpt lat="44.9074017" lon="8.2829183"><ele>122.19999999999999</ele><time>2026-04-11T12:47:05.287Z</time></trkpt><trkpt lat="44.907405" lon="8.2827583"><ele>122.0</ele><time>2026-04-11T12:47:06.287Z</time></trkpt><trkpt lat="44.9074033" lon="8.2825983"><ele>122.0</ele><time>2026-04-11T12:47:07.287Z</time></trkpt><trkpt lat="44.9073917" lon="8.2824317"><ele>121.99999999999999</ele><time>2026-04-11T12:47:08.287Z</time></trkpt><trkpt lat="44.907385" lon="8.2822817"><ele>121.99999999999999</ele><time>2026-04-11T12:47:09.287Z</time></trkpt><trkpt lat="44.9073783" lon="8.2821433"><ele>122.0</ele><time>2026-04-11T12:47:10.287Z</time></trkpt><trkpt lat="44.90737" lon="8.2820133"><ele>122.0</ele><time>2026-04-11T12:47:11.287Z</time></trkpt><trkpt lat="44.9073583" lon="8.2818917"><ele>121.66666666666666</ele><time>2026-04-11T12:47:12.287Z</time></trkpt><trkpt lat="44.9073683" lon="8.2817617"><ele>121.33333333333333</ele><time>2026-04-11T12:47:13.287Z</time></trkpt><trkpt lat="44.9073667" lon="8.281665"><ele>121.0</ele><time>2026-04-11T12:47:14.287Z</time></trkpt><trkpt lat="44.9073783" lon="8.281525"><ele>120.66666666666666</ele><time>2026-04-11T12:47:16.287Z</time></trkpt><trkpt lat="44.9074" lon="8.2814267"><ele>120.33333333333333</ele><time>2026-04-11T12:47:18.288Z</time></trkpt><trkpt lat="44.9074317" lon="8.2813383"><ele>120.0</ele><time>2026-04-11T12:47:20.287Z</time></trkpt><trkpt lat="44.9074483" lon="8.28123"><ele>119.83333333333333</ele><time>2026-04-11T12:47:23.288Z</time></trkpt><trkpt lat="44.9074483" lon="8.28114"><ele>119.66666666666666</ele><time>2026-04-11T12:48:21.287Z</time></trkpt><trkpt lat="44.90748" lon="8.2810383"><ele>119.5</ele><time>2026-04-11T12:48:24.288Z</time></trkpt><trkpt lat="44.907465" lon="8.2809433"><ele>119.33333333333333</ele><time>2026-04-11T12:57:00.286Z</time></trkpt><trkpt lat="44.90739" lon="8.2809117"><ele>119.16666666666666</ele><time>2026-04-11T12:57:04.286Z</time></trkpt><trkpt lat="44.90734" lon="8.2810383"><ele>119.0</ele><time>2026-04-11T12:57:12.285Z</time></trkpt><trkpt lat="44.907325" lon="8.281145"><ele>119.0</ele><time>2026-04-11T12:57:13.285Z</time></trkpt><trkpt lat="44.9073183" lon="8.2813683"><ele>119.0</ele><time>2026-04-11T12:57:15.285Z</time></trkpt><trkpt lat="44.9073117" lon="8.2815033"><ele>119.0</ele><time>2026-04-11T12:57:16.286Z</time></trkpt><trkpt lat="44.90731" lon="8.281645"><ele>119.0</ele><time>2026-04-11T12:57:17.285Z</time></trkpt><trkpt lat="44.907315" lon="8.2818017"><ele>119.25</ele><time>2026-04-11T12:57:18.285Z</time></trkpt><trkpt lat="44.9073217" lon="8.28197"><ele>119.5</ele><time>2026-04-11T12:57:19.286Z</time></trkpt><trkpt lat="44.907325" lon="8.282145"><ele>119.75</ele><time>2026-04-11T12:57:20.286Z</time></trkpt><trkpt lat="44.90733" lon="8.2823117"><ele>120.0</ele><time>2026-04-11T12:57:21.285Z</time></trkpt><trkpt lat="44.9073333" lon="8.28248"><ele>120.5</ele><time>2026-04-11T12:57:22.285Z</time></trkpt><trkpt lat="44.9073333" lon="8.28265"><ele>121.0</ele><time>2026-04-11T12:57:23.285Z</time></trkpt><trkpt lat="44.9073367" lon="8.2828183"><ele>121.5</ele><time>2026-04-11T12:57:24.286Z</time></trkpt><trkpt lat="44.907335" lon="8.2829767"><ele>122.0</ele><time>2026-04-11T12:57:25.286Z</time></trkpt><trkpt lat="44.9073317" lon="8.283135"><ele>121.99999999999999</ele><time>2026-04-11T12:57:26.285Z</time></trkpt><trkpt lat="44.9073233" lon="8.2832767"><ele>122.0</ele><time>2026-04-11T12:57:27.286Z</time></trkpt><trkpt lat="44.9073067" lon="8.2833833"><ele>122.0</ele><time>2026-04-11T12:57:28.285Z</time></trkpt><trkpt lat="44.907285" lon="8.2835017"><ele>122.0</ele><time>2026-04-11T12:57:30.286Z</time></trkpt><trkpt lat="44.9072533" lon="8.2835933"><ele>121.99999999999999</ele><time>2026-04-11T12:57:35.285Z</time></trkpt><trkpt lat="44.9072667" lon="8.2837"><ele>122.0</ele><time>2026-04-11T12:57:37.285Z</time></trkpt><trkpt lat="44.9072983" lon="8.2837783"><ele>122.0</ele><time>2026-04-11T12:57:38.285Z</time></trkpt><trkpt lat="44.9073283" lon="8.2838767"><ele>121.99999999999999</ele><time>2026-04-11T12:57:39.285Z</time></trkpt><trkpt lat="44.9073433" lon="8.28401"><ele>121.99999999999999</ele><time>2026-04-11T12:57:40.285Z</time></trkpt><trkpt lat="44.9073533" lon="8.28415"><ele>122.0</ele><time>2026-04-11T12:57:41.285Z</time></trkpt><trkpt lat="44.907375" lon="8.284275"><ele>122.0</ele><time>2026-04-11T12:57:42.285Z</time></trkpt><trkpt lat="44.9073983" lon="8.2844017"><ele>122.19999999999999</ele><time>2026-04-11T12:57:43.285Z</time></trkpt><trkpt lat="44.90747" lon="8.2845017"><ele>122.39999999999999</ele><time>2026-04-11T12:57:44.285Z</time></trkpt><trkpt lat="44.9075517" lon="8.2845967"><ele>122.60000000000001</ele><time>2026-04-11T12:57:45.286Z</time></trkpt><trkpt lat="44.90765" lon="8.2846883"><ele>122.80000000000001</ele><time>2026-04-11T12:57:46.285Z</time></trkpt><trkpt lat="44.907755" lon="8.2847817"><ele>123.0</ele><time>2026-04-11T12:57:47.285Z</time></trkpt><trkpt lat="44.9078617" lon="8.2848867"><ele>123.25</ele><time>2026-04-11T12:57:48.286Z</time></trkpt><trkpt lat="44.9079717" lon="8.2849833"><ele>123.5</ele><time>2026-04-11T12:57:49.285Z</time></trkpt><trkpt lat="44.9080817" lon="8.2850917"><ele>123.75</ele><time>2026-04-11T12:57:50.285Z</time></trkpt><trkpt lat="44.9082" lon="8.285205"><ele>124.0</ele><time>2026-04-11T12:57:51.285Z</time></trkpt><trkpt lat="44.908315" lon="8.28533"><ele>124.0</ele><time>2026-04-11T12:57:52.286Z</time></trkpt><trkpt lat="44.908405" lon="8.2854733"><ele>124.0</ele><time>2026-04-11T12:57:53.286Z</time></trkpt><trkpt lat="44.908505" lon="8.285615"><ele>124.0</ele><time>2026-04-11T12:57:54.286Z</time></trkpt><trkpt lat="44.9085983" lon="8.2857417"><ele>124.0</ele><time>2026-04-11T12:57:55.285Z</time></trkpt><trkpt lat="44.9086783" lon="8.2858683"><ele>124.0</ele><time>2026-04-11T12:57:56.285Z</time></trkpt><trkpt lat="44.9087633" lon="8.285995"><ele>124.0</ele><time>2026-04-11T12:57:57.285Z</time></trkpt><trkpt lat="44.90886" lon="8.2861333"><ele>124.0</ele><time>2026-04-11T12:57:58.285Z</time></trkpt><trkpt lat="44.9089633" lon="8.2862867"><ele>124.0</ele><time>2026-04-11T12:57:59.286Z</time></trkpt><trkpt lat="44.9090467" lon="8.2864783"><ele>124.0</ele><time>2026-04-11T12:58:00.285Z</time></trkpt><trkpt lat="44.9091317" lon="8.2866617"><ele>124.0</ele><time>2026-04-11T12:58:01.286Z</time></trkpt><trkpt lat="44.9092267" lon="8.2868333"><ele>124.0</ele><time>2026-04-11T12:58:02.285Z</time></trkpt><trkpt lat="44.909325" lon="8.28701"><ele>126.0</ele><time>2026-04-11T12:58:03.285Z</time></trkpt><trkpt lat="44.9094383" lon="8.28718"><ele>128.0</ele><time>2026-04-11T12:58:04.286Z</time></trkpt><trkpt lat="44.9095383" lon="8.287355"><ele>130.0</ele><time>2026-04-11T12:58:05.285Z</time></trkpt><trkpt lat="44.90964" lon="8.287525"><ele>130.0</ele><time>2026-04-11T12:58:06.286Z</time></trkpt><trkpt lat="44.9097367" lon="8.28769"><ele>130.0</ele><time>2026-04-11T12:58:07.285Z</time></trkpt><trkpt lat="44.909835" lon="8.2878467"><ele>130.0</ele><time>2026-04-11T12:58:08.286Z</time></trkpt><trkpt lat="44.9099433" lon="8.2880067"><ele>130.0</ele><time>2026-04-11T12:58:09.285Z</time></trkpt><trkpt lat="44.9100467" lon="8.288175"><ele>130.0</ele><time>2026-04-11T12:58:10.285Z</time></trkpt><trkpt lat="44.910145" lon="8.2883567"><ele>130.0</ele><time>2026-04-11T12:58:11.286Z</time></trkpt><trkpt lat="44.910245" lon="8.2885367"><ele>130.0</ele><time>2026-04-11T12:58:12.285Z</time></trkpt><trkpt lat="44.91034" lon="8.2887167"><ele>130.0</ele><time>2026-04-11T12:58:13.286Z</time></trkpt><trkpt lat="44.9104517" lon="8.288885"><ele>130.0</ele><time>2026-04-11T12:58:14.285Z</time></trkpt><trkpt lat="44.9105633" lon="8.2890667"><ele>130.0</ele><time>2026-04-11T12:58:15.285Z</time></trkpt><trkpt lat="44.9107033" lon="8.2892567"><ele>130.0</ele><time>2026-04-11T12:58:16.285Z</time></trkpt><trkpt lat="44.9108183" lon="8.2894683"><ele>130.0</ele><time>2026-04-11T12:58:17.285Z</time></trkpt><trkpt lat="44.91092" lon="8.28967"><ele>130.33333333333334</ele><time>2026-04-11T12:58:18.285Z</time></trkpt><trkpt lat="44.9110183" lon="8.2898533"><ele>130.66666666666666</ele><time>2026-04-11T12:58:19.286Z</time></trkpt><trkpt lat="44.911125" lon="8.2900417"><ele>131.0</ele><time>2026-04-11T12:58:20.285Z</time></trkpt><trkpt lat="44.9112367" lon="8.2902317"><ele>131.0</ele><time>2026-04-11T12:58:21.285Z</time></trkpt><trkpt lat="44.911335" lon="8.2904217"><ele>131.0</ele><time>2026-04-11T12:58:22.285Z</time></trkpt><trkpt lat="44.91145" lon="8.2905967"><ele>131.0</ele><time>2026-04-11T12:58:23.285Z</time></trkpt><trkpt lat="44.91156" lon="8.2907733"><ele>131.0</ele><time>2026-04-11T12:58:24.286Z</time></trkpt><trkpt lat="44.9116617" lon="8.2909333"><ele>131.0</ele><time>2026-04-11T12:58:25.285Z</time></trkpt><trkpt lat="44.9117683" lon="8.2910983"><ele>131.0</ele><time>2026-04-11T12:58:26.284Z</time></trkpt><trkpt lat="44.9118633" lon="8.2912767"><ele>129.66666666666666</ele><time>2026-04-11T12:58:27.285Z</time></trkpt><trkpt lat="44.9119633" lon="8.291445"><ele>128.33333333333334</ele><time>2026-04-11T12:58:28.285Z</time></trkpt><trkpt lat="44.9120583" lon="8.291605"><ele>127.0</ele><time>2026-04-11T12:58:29.285Z</time></trkpt><trkpt lat="44.9121617" lon="8.2917667"><ele>127.0</ele><time>2026-04-11T12:58:30.284Z</time></trkpt><trkpt lat="44.9122583" lon="8.2919383"><ele>127.0</ele><time>2026-04-11T12:58:31.285Z</time></trkpt><trkpt lat="44.91235" lon="8.2921067"><ele>127.0</ele><time>2026-04-11T12:58:32.285Z</time></trkpt><trkpt lat="44.91244" lon="8.29227"><ele>127.33333333333334</ele><time>2026-04-11T12:58:33.284Z</time></trkpt><trkpt lat="44.9125383" lon="8.2924383"><ele>127.66666666666666</ele><time>2026-04-11T12:58:34.285Z</time></trkpt><trkpt lat="44.9126433" lon="8.2925983"><ele>128.0</ele><time>2026-04-11T12:58:35.284Z</time></trkpt><trkpt lat="44.9127417" lon="8.29276"><ele>128.0</ele><time>2026-04-11T12:58:36.284Z</time></trkpt><trkpt lat="44.9128383" lon="8.2929183"><ele>128.0</ele><time>2026-04-11T12:58:37.284Z</time></trkpt><trkpt lat="44.9129417" lon="8.2930767"><ele>128.0</ele><time>2026-04-11T12:58:38.285Z</time></trkpt><trkpt lat="44.913045" lon="8.2932417"><ele>128.33333333333331</ele><time>2026-04-11T12:58:39.285Z</time></trkpt><trkpt lat="44.9131383" lon="8.2934117"><ele>128.66666666666666</ele><time>2026-04-11T12:58:40.284Z</time></trkpt><trkpt lat="44.9132467" lon="8.2935833"><ele>129.0</ele><time>2026-04-11T12:58:41.284Z</time></trkpt><trkpt lat="44.9133583" lon="8.2937683"><ele>130.66666666666666</ele><time>2026-04-11T12:58:42.284Z</time></trkpt><trkpt lat="44.913465" lon="8.29396"><ele>132.33333333333331</ele><time>2026-04-11T12:58:43.284Z</time></trkpt><trkpt lat="44.91358" lon="8.2941467"><ele>134.0</ele><time>2026-04-11T12:58:44.285Z</time></trkpt><trkpt lat="44.913705" lon="8.2943267"><ele>134.0</ele><time>2026-04-11T12:58:45.284Z</time></trkpt><trkpt lat="44.9138233" lon="8.294525"><ele>134.0</ele><time>2026-04-11T12:58:46.284Z</time></trkpt><trkpt lat="44.9139333" lon="8.2947283"><ele>134.0</ele><time>2026-04-11T12:58:47.284Z</time></trkpt><trkpt lat="44.9140417" lon="8.2949283"><ele>133.33333333333331</ele><time>2026-04-11T12:58:48.284Z</time></trkpt><trkpt lat="44.914175" lon="8.2951233"><ele>132.66666666666666</ele><time>2026-04-11T12:58:49.285Z</time></trkpt><trkpt lat="44.9142867" lon="8.2953233"><ele>132.0</ele><time>2026-04-11T12:58:50.284Z</time></trkpt><trkpt lat="44.9144017" lon="8.295515"><ele>134.0</ele><time>2026-04-11T12:58:51.285Z</time></trkpt><trkpt lat="44.9145167" lon="8.2957117"><ele>136.0</ele><time>2026-04-11T12:58:52.284Z</time></trkpt><trkpt lat="44.9146167" lon="8.29591"><ele>138.0</ele><time>2026-04-11T12:58:53.284Z</time></trkpt><trkpt lat="44.9148567" lon="8.2962917"><ele>137.0</ele><time>2026-04-11T12:58:55.284Z</time></trkpt><trkpt lat="44.9149717" lon="8.296485"><ele>136.0</ele><time>2026-04-11T12:58:56.285Z</time></trkpt><trkpt lat="44.9150867" lon="8.29667"><ele>135.0</ele><time>2026-04-11T12:58:57.285Z</time></trkpt><trkpt lat="44.9152033" lon="8.2968667"><ele>136.33333333333334</ele><time>2026-04-11T12:58:58.284Z</time></trkpt><trkpt lat="44.9153183" lon="8.29705"><ele>137.66666666666669</ele><time>2026-04-11T12:58:59.284Z</time></trkpt><trkpt lat="44.9154417" lon="8.2972267"><ele>139.0</ele><time>2026-04-11T12:59:00.284Z</time></trkpt><trkpt lat="44.915575" lon="8.2973883"><ele>139.0</ele><time>2026-04-11T12:59:01.285Z</time></trkpt><trkpt lat="44.9157217" lon="8.2975283"><ele>139.0</ele><time>2026-04-11T12:59:02.285Z</time></trkpt><trkpt lat="44.915875" lon="8.2976383"><ele>139.0</ele><time>2026-04-11T12:59:03.284Z</time></trkpt><trkpt lat="44.9160367" lon="8.297725"><ele>139.66666666666669</ele><time>2026-04-11T12:59:04.284Z</time></trkpt><trkpt lat="44.916205" lon="8.2978"><ele>140.33333333333334</ele><time>2026-04-11T12:59:05.284Z</time></trkpt><trkpt lat="44.9163867" lon="8.29786"><ele>141.0</ele><time>2026-04-11T12:59:06.285Z</time></trkpt><trkpt lat="44.916575" lon="8.2979183"><ele>142.0</ele><time>2026-04-11T12:59:07.284Z</time></trkpt><trkpt lat="44.9167633" lon="8.2979867"><ele>143.0</ele><time>2026-04-11T12:59:08.284Z</time></trkpt><trkpt lat="44.9169567" lon="8.2980533"><ele>144.0</ele><time>2026-04-11T12:59:09.284Z</time></trkpt><trkpt lat="44.9171383" lon="8.2981267"><ele>143.0</ele><time>2026-04-11T12:59:10.285Z</time></trkpt><trkpt lat="44.9173117" lon="8.2981983"><ele>142.0</ele><time>2026-04-11T12:59:11.284Z</time></trkpt><trkpt lat="44.9174933" lon="8.29827"><ele>141.0</ele><time>2026-04-11T12:59:12.284Z</time></trkpt><trkpt lat="44.917675" lon="8.2983317"><ele>141.0</ele><time>2026-04-11T12:59:13.284Z</time></trkpt><trkpt lat="44.9178617" lon="8.2983967"><ele>141.0</ele><time>2026-04-11T12:59:14.284Z</time></trkpt><trkpt lat="44.9180417" lon="8.2984717"><ele>141.0</ele><time>2026-04-11T12:59:15.284Z</time></trkpt><trkpt lat="44.9182267" lon="8.298535"><ele>143.66666666666666</ele><time>2026-04-11T12:59:16.285Z</time></trkpt><trkpt lat="44.918405" lon="8.298605"><ele>146.33333333333331</ele><time>2026-04-11T12:59:17.285Z</time></trkpt><trkpt lat="44.9185733" lon="8.298675"><ele>149.0</ele><time>2026-04-11T12:59:18.284Z</time></trkpt><trkpt lat="44.91874" lon="8.2987567"><ele>149.0</ele><time>2026-04-11T12:59:19.284Z</time></trkpt><trkpt lat="44.9189" lon="8.298835"><ele>149.0</ele><time>2026-04-11T12:59:20.285Z</time></trkpt><trkpt lat="44.9190433" lon="8.2988967"><ele>149.0</ele><time>2026-04-11T12:59:21.284Z</time></trkpt><trkpt lat="44.91919" lon="8.298945"><ele>145.66666666666666</ele><time>2026-04-11T12:59:22.284Z</time></trkpt><trkpt lat="44.9193383" lon="8.298985"><ele>142.33333333333334</ele><time>2026-04-11T12:59:23.284Z</time></trkpt><trkpt lat="44.919485" lon="8.299025"><ele>139.0</ele><time>2026-04-11T12:59:24.284Z</time></trkpt><trkpt lat="44.91963" lon="8.2990817"><ele>139.0</ele><time>2026-04-11T12:59:25.284Z</time></trkpt><trkpt lat="44.9197667" lon="8.299155"><ele>139.0</ele><time>2026-04-11T12:59:26.285Z</time></trkpt><trkpt lat="44.9199083" lon="8.2992183"><ele>139.0</ele><time>2026-04-11T12:59:27.284Z</time></trkpt><trkpt lat="44.9200467" lon="8.29927"><ele>139.0</ele><time>2026-04-11T12:59:28.285Z</time></trkpt><trkpt lat="44.9201833" lon="8.2993133"><ele>139.0</ele><time>2026-04-11T12:59:29.285Z</time></trkpt><trkpt lat="44.9203283" lon="8.2993333"><ele>139.0</ele><time>2026-04-11T12:59:30.284Z</time></trkpt><trkpt lat="44.92049" lon="8.2993183"><ele>139.0</ele><time>2026-04-11T12:59:31.285Z</time></trkpt><trkpt lat="44.9206517" lon="8.2992633"><ele>139.0</ele><time>2026-04-11T12:59:32.285Z</time></trkpt><trkpt lat="44.9208067" lon="8.29924"><ele>139.0</ele><time>2026-04-11T12:59:33.284Z</time></trkpt><trkpt lat="44.9209833" lon="8.2992067"><ele>139.0</ele><time>2026-04-11T12:59:34.284Z</time></trkpt><trkpt lat="44.921155" lon="8.2991783"><ele>137.66666666666669</ele><time>2026-04-11T12:59:35.285Z</time></trkpt><trkpt lat="44.92131" lon="8.29914"><ele>136.33333333333334</ele><time>2026-04-11T12:59:36.284Z</time></trkpt><trkpt lat="44.9214767" lon="8.2991033"><ele>135.0</ele><time>2026-04-11T12:59:37.284Z</time></trkpt><trkpt lat="44.9216333" lon="8.29906"><ele>136.0</ele><time>2026-04-11T12:59:38.284Z</time></trkpt><trkpt lat="44.9217933" lon="8.2990167"><ele>137.0</ele><time>2026-04-11T12:59:39.284Z</time></trkpt><trkpt lat="44.921955" lon="8.2989717"><ele>138.0</ele><time>2026-04-11T12:59:40.284Z</time></trkpt><trkpt lat="44.9221117" lon="8.2989467"><ele>139.0</ele><time>2026-04-11T12:59:41.284Z</time></trkpt><trkpt lat="44.922275" lon="8.2989167"><ele>140.0</ele><time>2026-04-11T12:59:42.284Z</time></trkpt><trkpt lat="44.922445" lon="8.2988867"><ele>141.0</ele><time>2026-04-11T12:59:43.284Z</time></trkpt><trkpt lat="44.9226083" lon="8.2988567"><ele>141.0</ele><time>2026-04-11T12:59:44.285Z</time></trkpt><trkpt lat="44.922775" lon="8.2988183"><ele>141.0</ele><time>2026-04-11T12:59:45.284Z</time></trkpt><trkpt lat="44.922935" lon="8.2987717"><ele>141.0</ele><time>2026-04-11T12:59:46.284Z</time></trkpt><trkpt lat="44.9230983" lon="8.2987233"><ele>141.0</ele><time>2026-04-11T12:59:47.284Z</time></trkpt><trkpt lat="44.9232517" lon="8.29869"><ele>141.0</ele><time>2026-04-11T12:59:48.284Z</time></trkpt><trkpt lat="44.92342" lon="8.2986367"><ele>141.0</ele><time>2026-04-11T12:59:49.284Z</time></trkpt><trkpt lat="44.9235833" lon="8.2986067"><ele>141.0</ele><time>2026-04-11T12:59:50.284Z</time></trkpt><trkpt lat="44.9237367" lon="8.2985583"><ele>141.0</ele><time>2026-04-11T12:59:51.285Z</time></trkpt><trkpt lat="44.9238867" lon="8.2985383"><ele>141.0</ele><time>2026-04-11T12:59:52.284Z</time></trkpt><trkpt lat="44.9240417" lon="8.2984833"><ele>141.0</ele><time>2026-04-11T12:59:53.284Z</time></trkpt><trkpt lat="44.9242067" lon="8.29845"><ele>141.0</ele><time>2026-04-11T12:59:54.284Z</time></trkpt><trkpt lat="44.9243667" lon="8.298415"><ele>141.0</ele><time>2026-04-11T12:59:55.284Z</time></trkpt><trkpt lat="44.9245183" lon="8.2983983"><ele>141.33333333333334</ele><time>2026-04-11T12:59:56.284Z</time></trkpt><trkpt lat="44.92468" lon="8.29836"><ele>141.66666666666669</ele><time>2026-04-11T12:59:57.284Z</time></trkpt><trkpt lat="44.924835" lon="8.2983317"><ele>142.0</ele><time>2026-04-11T12:59:58.284Z</time></trkpt><trkpt lat="44.9249883" lon="8.2982983"><ele>141.66666666666669</ele><time>2026-04-11T12:59:59.284Z</time></trkpt><trkpt lat="44.9251533" lon="8.2982683"><ele>141.33333333333334</ele><time>2026-04-11T13:00:00.285Z</time></trkpt><trkpt lat="44.92531" lon="8.2982317"><ele>141.0</ele><time>2026-04-11T13:00:01.284Z</time></trkpt><trkpt lat="44.9254783" lon="8.298185"><ele>141.0</ele><time>2026-04-11T13:00:02.284Z</time></trkpt><trkpt lat="44.9256433" lon="8.2981367"><ele>141.0</ele><time>2026-04-11T13:00:03.285Z</time></trkpt><trkpt lat="44.9257967" lon="8.29809"><ele>141.0</ele><time>2026-04-11T13:00:04.284Z</time></trkpt><trkpt lat="44.9259617" lon="8.29803"><ele>142.66666666666666</ele><time>2026-04-11T13:00:05.285Z</time></trkpt><trkpt lat="44.92612" lon="8.2979567"><ele>144.33333333333331</ele><time>2026-04-11T13:00:06.285Z</time></trkpt><trkpt lat="44.92627" lon="8.2978617"><ele>146.0</ele><time>2026-04-11T13:00:07.284Z</time></trkpt><trkpt lat="44.92658" lon="8.2976767"><ele>145.0</ele><time>2026-04-11T13:00:09.284Z</time></trkpt><trkpt lat="44.9267383" lon="8.2975767"><ele>144.0</ele><time>2026-04-11T13:00:10.285Z</time></trkpt><trkpt lat="44.9269" lon="8.2974933"><ele>143.0</ele><time>2026-04-11T13:00:11.284Z</time></trkpt><trkpt lat="44.9270483" lon="8.2974117"><ele>143.0</ele><time>2026-04-11T13:00:12.284Z</time></trkpt><trkpt lat="44.927205" lon="8.29732"><ele>143.0</ele><time>2026-04-11T13:00:13.284Z</time></trkpt><trkpt lat="44.92737" lon="8.29722"><ele>143.0</ele><time>2026-04-11T13:00:14.284Z</time></trkpt><trkpt lat="44.9275383" lon="8.2971167"><ele>143.0</ele><time>2026-04-11T13:00:15.284Z</time></trkpt><trkpt lat="44.927705" lon="8.297025"><ele>143.0</ele><time>2026-04-11T13:00:16.284Z</time></trkpt><trkpt lat="44.927875" lon="8.2969217"><ele>143.0</ele><time>2026-04-11T13:00:17.284Z</time></trkpt><trkpt lat="44.9280483" lon="8.2968217"><ele>143.0</ele><time>2026-04-11T13:00:18.284Z</time></trkpt><trkpt lat="44.9282267" lon="8.29672"><ele>143.0</ele><time>2026-04-11T13:00:19.284Z</time></trkpt><trkpt lat="44.9284083" lon="8.2966133"><ele>143.0</ele><time>2026-04-11T13:00:20.284Z</time></trkpt><trkpt lat="44.9285833" lon="8.2965083"><ele>143.66666666666666</ele><time>2026-04-11T13:00:21.285Z</time></trkpt><trkpt lat="44.9287483" lon="8.2964167"><ele>144.33333333333334</ele><time>2026-04-11T13:00:22.285Z</time></trkpt><trkpt lat="44.928925" lon="8.296315"><ele>145.0</ele><time>2026-04-11T13:00:23.285Z</time></trkpt><trkpt lat="44.9290833" lon="8.2962133"><ele>144.66666666666669</ele><time>2026-04-11T13:00:24.284Z</time></trkpt><trkpt lat="44.929245" lon="8.2961133"><ele>144.33333333333334</ele><time>2026-04-11T13:00:25.284Z</time></trkpt><trkpt lat="44.9294033" lon="8.2960167"><ele>144.0</ele><time>2026-04-11T13:00:26.284Z</time></trkpt><trkpt lat="44.9295717" lon="8.2959167"><ele>144.0</ele><time>2026-04-11T13:00:27.284Z</time></trkpt><trkpt lat="44.9297383" lon="8.295815"><ele>144.0</ele><time>2026-04-11T13:00:28.284Z</time></trkpt><trkpt lat="44.92991" lon="8.29571"><ele>144.0</ele><time>2026-04-11T13:00:29.284Z</time></trkpt><trkpt lat="44.93007" lon="8.2956133"><ele>145.33333333333334</ele><time>2026-04-11T13:00:30.285Z</time></trkpt><trkpt lat="44.9302417" lon="8.295505"><ele>146.66666666666669</ele><time>2026-04-11T13:00:31.284Z</time></trkpt><trkpt lat="44.93041" lon="8.2954117"><ele>148.0</ele><time>2026-04-11T13:00:32.284Z</time></trkpt><trkpt lat="44.9305717" lon="8.2953133"><ele>148.0</ele><time>2026-04-11T13:00:33.284Z</time></trkpt><trkpt lat="44.930725" lon="8.295205"><ele>148.0</ele><time>2026-04-11T13:00:34.285Z</time></trkpt><trkpt lat="44.9308833" lon="8.2950933"><ele>148.0</ele><time>2026-04-11T13:00:35.284Z</time></trkpt><trkpt lat="44.9310517" lon="8.294985"><ele>148.0</ele><time>2026-04-11T13:00:36.285Z</time></trkpt><trkpt lat="44.9312183" lon="8.2948717"><ele>148.0</ele><time>2026-04-11T13:00:37.285Z</time></trkpt><trkpt lat="44.9313833" lon="8.2947667"><ele>148.0</ele><time>2026-04-11T13:00:38.285Z</time></trkpt><trkpt lat="44.9315517" lon="8.2946733"><ele>147.66666666666669</ele><time>2026-04-11T13:00:39.284Z</time></trkpt><trkpt lat="44.9317167" lon="8.294575"><ele>147.33333333333334</ele><time>2026-04-11T13:00:40.284Z</time></trkpt><trkpt lat="44.93188" lon="8.2944767"><ele>147.0</ele><time>2026-04-11T13:00:41.284Z</time></trkpt><trkpt lat="44.9320383" lon="8.294365"><ele>148.0</ele><time>2026-04-11T13:00:42.284Z</time></trkpt><trkpt lat="44.9321917" lon="8.2942583"><ele>149.0</ele><time>2026-04-11T13:00:43.284Z</time></trkpt><trkpt lat="44.9323617" lon="8.2941533"><ele>150.0</ele><time>2026-04-11T13:00:44.285Z</time></trkpt><trkpt lat="44.932545" lon="8.29403"><ele>149.66666666666666</ele><time>2026-04-11T13:00:45.284Z</time></trkpt><trkpt lat="44.932715" lon="8.2939383"><ele>149.33333333333331</ele><time>2026-04-11T13:00:46.284Z</time></trkpt><trkpt lat="44.9328733" lon="8.2938417"><ele>149.0</ele><time>2026-04-11T13:00:47.284Z</time></trkpt><trkpt lat="44.9330483" lon="8.2937383"><ele>149.0</ele><time>2026-04-11T13:00:48.284Z</time></trkpt><trkpt lat="44.9332167" lon="8.29363"><ele>149.0</ele><time>2026-04-11T13:00:49.285Z</time></trkpt><trkpt lat="44.9333817" lon="8.29352"><ele>149.0</ele><time>2026-04-11T13:00:50.284Z</time></trkpt><trkpt lat="44.9335533" lon="8.2934167"><ele>152.0</ele><time>2026-04-11T13:00:51.284Z</time></trkpt><trkpt lat="44.933715" lon="8.2933183"><ele>155.0</ele><time>2026-04-11T13:00:52.285Z</time></trkpt><trkpt lat="44.9338983" lon="8.2932217"><ele>158.0</ele><time>2026-04-11T13:00:53.284Z</time></trkpt><trkpt lat="44.9340617" lon="8.29313"><ele>155.33333333333331</ele><time>2026-04-11T13:00:54.285Z</time></trkpt><trkpt lat="44.934225" lon="8.2930317"><ele>152.66666666666666</ele><time>2026-04-11T13:00:55.284Z</time></trkpt><trkpt lat="44.9343767" lon="8.292945"><ele>150.0</ele><time>2026-04-11T13:00:56.284Z</time></trkpt><trkpt lat="44.934545" lon="8.29286"><ele>150.0</ele><time>2026-04-11T13:00:57.284Z</time></trkpt><trkpt lat="44.9347233" lon="8.292785"><ele>150.0</ele><time>2026-04-11T13:00:58.285Z</time></trkpt><trkpt lat="44.934905" lon="8.2927283"><ele>150.0</ele><time>2026-04-11T13:00:59.284Z</time></trkpt><trkpt lat="44.935095" lon="8.2926733"><ele>151.33333333333334</ele><time>2026-04-11T13:01:00.285Z</time></trkpt><trkpt lat="44.935265" lon="8.2926233"><ele>152.66666666666669</ele><time>2026-04-11T13:01:01.285Z</time></trkpt><trkpt lat="44.9354367" lon="8.2925567"><ele>154.0</ele><time>2026-04-11T13:01:02.285Z</time></trkpt><trkpt lat="44.9356083" lon="8.2924917"><ele>154.0</ele><time>2026-04-11T13:01:03.284Z</time></trkpt><trkpt lat="44.93577" lon="8.2924417"><ele>154.0</ele><time>2026-04-11T13:01:04.284Z</time></trkpt><trkpt lat="44.9359333" lon="8.29238"><ele>154.0</ele><time>2026-04-11T13:01:05.284Z</time></trkpt><trkpt lat="44.936095" lon="8.2923133"><ele>153.33333333333334</ele><time>2026-04-11T13:01:06.284Z</time></trkpt><trkpt lat="44.9362567" lon="8.292245"><ele>152.66666666666666</ele><time>2026-04-11T13:01:07.284Z</time></trkpt><trkpt lat="44.936425" lon="8.29218"><ele>152.0</ele><time>2026-04-11T13:01:08.285Z</time></trkpt><trkpt lat="44.9366" lon="8.2921167"><ele>152.66666666666666</ele><time>2026-04-11T13:01:09.285Z</time></trkpt><trkpt lat="44.93677" lon="8.29206"><ele>153.33333333333334</ele><time>2026-04-11T13:01:10.285Z</time></trkpt><trkpt lat="44.9369383" lon="8.292005"><ele>154.0</ele><time>2026-04-11T13:01:11.284Z</time></trkpt><trkpt lat="44.937095" lon="8.2919367"><ele>154.0</ele><time>2026-04-11T13:01:12.284Z</time></trkpt><trkpt lat="44.9372633" lon="8.29189"><ele>154.0</ele><time>2026-04-11T13:01:13.284Z</time></trkpt><trkpt lat="44.9374317" lon="8.291835"><ele>154.0</ele><time>2026-04-11T13:01:14.284Z</time></trkpt><trkpt lat="44.9375967" lon="8.2917833"><ele>154.33333333333334</ele><time>2026-04-11T13:01:15.285Z</time></trkpt><trkpt lat="44.937755" lon="8.2917283"><ele>154.66666666666666</ele><time>2026-04-11T13:01:16.285Z</time></trkpt><trkpt lat="44.937925" lon="8.2916617"><ele>155.0</ele><time>2026-04-11T13:01:17.284Z</time></trkpt><trkpt lat="44.938095" lon="8.291595"><ele>155.0</ele><time>2026-04-11T13:01:18.285Z</time></trkpt><trkpt lat="44.9382583" lon="8.291515"><ele>155.0</ele><time>2026-04-11T13:01:19.284Z</time></trkpt><trkpt lat="44.938425" lon="8.2914617"><ele>155.0</ele><time>2026-04-11T13:01:20.284Z</time></trkpt><trkpt lat="44.9385933" lon="8.2914033"><ele>155.33333333333331</ele><time>2026-04-11T13:01:21.285Z</time></trkpt><trkpt lat="44.9387467" lon="8.291345"><ele>155.66666666666666</ele><time>2026-04-11T13:01:22.284Z</time></trkpt><trkpt lat="44.938905" lon="8.29128"><ele>156.0</ele><time>2026-04-11T13:01:23.284Z</time></trkpt><trkpt lat="44.939065" lon="8.2912067"><ele>157.33333333333334</ele><time>2026-04-11T13:01:24.284Z</time></trkpt><trkpt lat="44.93924" lon="8.291125"><ele>158.66666666666669</ele><time>2026-04-11T13:01:25.284Z</time></trkpt><trkpt lat="44.9394117" lon="8.2910583"><ele>160.0</ele><time>2026-04-11T13:01:26.285Z</time></trkpt><trkpt lat="44.9395833" lon="8.291"><ele>160.0</ele><time>2026-04-11T13:01:27.284Z</time></trkpt><trkpt lat="44.9397533" lon="8.2909333"><ele>160.0</ele><time>2026-04-11T13:01:28.284Z</time></trkpt><trkpt lat="44.9399233" lon="8.29087"><ele>160.0</ele><time>2026-04-11T13:01:29.285Z</time></trkpt><trkpt lat="44.9400883" lon="8.2908017"><ele>162.33333333333334</ele><time>2026-04-11T13:01:30.284Z</time></trkpt><trkpt lat="44.9402417" lon="8.2907367"><ele>164.66666666666666</ele><time>2026-04-11T13:01:31.285Z</time></trkpt><trkpt lat="44.940395" lon="8.2906733"><ele>167.0</ele><time>2026-04-11T13:01:32.284Z</time></trkpt><trkpt lat="44.940545" lon="8.290625"><ele>163.66666666666666</ele><time>2026-04-11T13:01:33.284Z</time></trkpt><trkpt lat="44.9407067" lon="8.29056"><ele>160.33333333333334</ele><time>2026-04-11T13:01:34.284Z</time></trkpt><trkpt lat="44.9408717" lon="8.2905067"><ele>157.0</ele><time>2026-04-11T13:01:35.285Z</time></trkpt><trkpt lat="44.9410383" lon="8.2904283"><ele>157.0</ele><time>2026-04-11T13:01:36.284Z</time></trkpt><trkpt lat="44.941215" lon="8.29038"><ele>157.0</ele><time>2026-04-11T13:01:37.284Z</time></trkpt><trkpt lat="44.9413983" lon="8.290345"><ele>157.0</ele><time>2026-04-11T13:01:38.284Z</time></trkpt><trkpt lat="44.9415783" lon="8.2903267"><ele>157.66666666666669</ele><time>2026-04-11T13:01:39.284Z</time></trkpt><trkpt lat="44.9417583" lon="8.2903283"><ele>158.33333333333334</ele><time>2026-04-11T13:01:40.285Z</time></trkpt><trkpt lat="44.9419333" lon="8.2903417"><ele>159.0</ele><time>2026-04-11T13:01:41.284Z</time></trkpt><trkpt lat="44.9421067" lon="8.2903783"><ele>159.0</ele><time>2026-04-11T13:01:42.284Z</time></trkpt><trkpt lat="44.942285" lon="8.2904283"><ele>159.0</ele><time>2026-04-11T13:01:43.284Z</time></trkpt><trkpt lat="44.9424583" lon="8.290475"><ele>159.0</ele><time>2026-04-11T13:01:44.284Z</time></trkpt><trkpt lat="44.9426383" lon="8.2905083"><ele>159.33333333333334</ele><time>2026-04-11T13:01:45.285Z</time></trkpt><trkpt lat="44.942815" lon="8.2905433"><ele>159.66666666666669</ele><time>2026-04-11T13:01:46.284Z</time></trkpt><trkpt lat="44.9429933" lon="8.2905733"><ele>160.0</ele><time>2026-04-11T13:01:47.284Z</time></trkpt><trkpt lat="44.9431617" lon="8.2906133"><ele>161.0</ele><time>2026-04-11T13:01:48.284Z</time></trkpt><trkpt lat="44.9433417" lon="8.2906633"><ele>162.0</ele><time>2026-04-11T13:01:49.285Z</time></trkpt><trkpt lat="44.9435167" lon="8.2907017"><ele>163.0</ele><time>2026-04-11T13:01:50.285Z</time></trkpt><trkpt lat="44.9436917" lon="8.2907333"><ele>163.0</ele><time>2026-04-11T13:01:51.284Z</time></trkpt><trkpt lat="44.9438717" lon="8.29076"><ele>163.0</ele><time>2026-04-11T13:01:52.284Z</time></trkpt><trkpt lat="44.9440533" lon="8.2907933"><ele>163.0</ele><time>2026-04-11T13:01:53.284Z</time></trkpt><trkpt lat="44.9442267" lon="8.2908067"><ele>162.0</ele><time>2026-04-11T13:01:54.284Z</time></trkpt><trkpt lat="44.9443883" lon="8.2908267"><ele>161.0</ele><time>2026-04-11T13:01:55.284Z</time></trkpt><trkpt lat="44.944555" lon="8.2908417"><ele>160.0</ele><time>2026-04-11T13:01:56.284Z</time></trkpt><trkpt lat="44.9447117" lon="8.2908667"><ele>160.0</ele><time>2026-04-11T13:01:57.284Z</time></trkpt><trkpt lat="44.9448717" lon="8.2908833"><ele>160.0</ele><time>2026-04-11T13:01:58.284Z</time></trkpt><trkpt lat="44.94503" lon="8.2909083"><ele>160.0</ele><time>2026-04-11T13:01:59.284Z</time></trkpt><trkpt lat="44.945185" lon="8.2909383"><ele>161.33333333333334</ele><time>2026-04-11T13:02:00.284Z</time></trkpt><trkpt lat="44.9453433" lon="8.2909633"><ele>162.66666666666666</ele><time>2026-04-11T13:02:01.284Z</time></trkpt><trkpt lat="44.9455" lon="8.2909933"><ele>164.0</ele><time>2026-04-11T13:02:02.284Z</time></trkpt><trkpt lat="44.9456533" lon="8.2910283"><ele>164.0</ele><time>2026-04-11T13:02:03.284Z</time></trkpt><trkpt lat="44.9458167" lon="8.2910567"><ele>164.0</ele><time>2026-04-11T13:02:04.284Z</time></trkpt><trkpt lat="44.9459833" lon="8.2910833"><ele>164.0</ele><time>2026-04-11T13:02:05.284Z</time></trkpt><trkpt lat="44.9461467" lon="8.2911067"><ele>164.33333333333331</ele><time>2026-04-11T13:02:06.284Z</time></trkpt><trkpt lat="44.94631" lon="8.2911267"><ele>164.66666666666666</ele><time>2026-04-11T13:02:07.284Z</time></trkpt><trkpt lat="44.94647" lon="8.2911483"><ele>165.0</ele><time>2026-04-11T13:02:08.284Z</time></trkpt><trkpt lat="44.9466267" lon="8.2911733"><ele>165.0</ele><time>2026-04-11T13:02:09.284Z</time></trkpt><trkpt lat="44.9467817" lon="8.2912033"><ele>165.0</ele><time>2026-04-11T13:02:10.284Z</time></trkpt><trkpt lat="44.94694" lon="8.2912367"><ele>165.0</ele><time>2026-04-11T13:02:11.284Z</time></trkpt><trkpt lat="44.9471017" lon="8.291265"><ele>165.0</ele><time>2026-04-11T13:02:12.284Z</time></trkpt><trkpt lat="44.9472617" lon="8.291295"><ele>165.0</ele><time>2026-04-11T13:02:13.284Z</time></trkpt><trkpt lat="44.94742" lon="8.29132"><ele>165.0</ele><time>2026-04-11T13:02:14.285Z</time></trkpt><trkpt lat="44.94758" lon="8.2913383"><ele>164.66666666666666</ele><time>2026-04-11T13:02:15.285Z</time></trkpt><trkpt lat="44.9477467" lon="8.2913617"><ele>164.33333333333331</ele><time>2026-04-11T13:02:16.285Z</time></trkpt><trkpt lat="44.9478933" lon="8.2913883"><ele>164.0</ele><time>2026-04-11T13:02:17.284Z</time></trkpt><trkpt lat="44.9480383" lon="8.2914117"><ele>164.2</ele><time>2026-04-11T13:02:18.285Z</time></trkpt><trkpt lat="44.948165" lon="8.291425"><ele>164.39999999999998</ele><time>2026-04-11T13:02:19.283Z</time></trkpt><trkpt lat="44.94828" lon="8.2914433"><ele>164.6</ele><time>2026-04-11T13:02:20.283Z</time></trkpt><trkpt lat="44.9483867" lon="8.29145"><ele>164.8</ele><time>2026-04-11T13:02:21.283Z</time></trkpt><trkpt lat="44.9484767" lon="8.2914767"><ele>165.0</ele><time>2026-04-11T13:02:22.283Z</time></trkpt><trkpt lat="44.94855" lon="8.2915333"><ele>165.4</ele><time>2026-04-11T13:02:23.283Z</time></trkpt><trkpt lat="44.948625" lon="8.2915817"><ele>165.8</ele><time>2026-04-11T13:02:24.283Z</time></trkpt><trkpt lat="44.9486883" lon="8.291635"><ele>166.2</ele><time>2026-04-11T13:02:25.283Z</time></trkpt><trkpt lat="44.9488083" lon="8.2916267"><ele>166.6</ele><time>2026-04-11T13:02:27.284Z</time></trkpt><trkpt lat="44.9489283" lon="8.2915333"><ele>167.0</ele><time>2026-04-11T13:02:29.284Z</time></trkpt><trkpt lat="44.9490067" lon="8.291445"><ele>166.75</ele><time>2026-04-11T13:02:30.283Z</time></trkpt><trkpt lat="44.9490833" lon="8.29136"><ele>166.5</ele><time>2026-04-11T13:02:31.283Z</time></trkpt><trkpt lat="44.9491767" lon="8.2912767"><ele>166.25</ele><time>2026-04-11T13:02:32.283Z</time></trkpt><trkpt lat="44.9492733" lon="8.2911967"><ele>166.0</ele><time>2026-04-11T13:02:33.284Z</time></trkpt><trkpt lat="44.9493917" lon="8.29108"><ele>166.4</ele><time>2026-04-11T13:02:34.284Z</time></trkpt><trkpt lat="44.9494283" lon="8.290945"><ele>166.8</ele><time>2026-04-11T13:02:35.284Z</time></trkpt><trkpt lat="44.9494517" lon="8.29081"><ele>167.20000000000002</ele><time>2026-04-11T13:02:36.283Z</time></trkpt><trkpt lat="44.949435" lon="8.2906683"><ele>167.60000000000002</ele><time>2026-04-11T13:02:37.283Z</time></trkpt><trkpt lat="44.9494167" lon="8.2905117"><ele>168.0</ele><time>2026-04-11T13:02:38.283Z</time></trkpt><trkpt lat="44.949395" lon="8.2903483"><ele>168.0</ele><time>2026-04-11T13:02:39.284Z</time></trkpt><trkpt lat="44.94939" lon="8.2901917"><ele>168.0</ele><time>2026-04-11T13:02:40.283Z</time></trkpt><trkpt lat="44.94941" lon="8.2900633"><ele>168.0</ele><time>2026-04-11T13:02:41.284Z</time></trkpt><trkpt lat="44.9494417" lon="8.2899583"><ele>168.0</ele><time>2026-04-11T13:02:42.283Z</time></trkpt><trkpt lat="44.9495017" lon="8.289875"><ele>168.0</ele><time>2026-04-11T13:02:43.283Z</time></trkpt><trkpt lat="44.9496033" lon="8.289805"><ele>170.0</ele><time>2026-04-11T13:02:44.284Z</time></trkpt><trkpt lat="44.9497167" lon="8.2897417"><ele>172.0</ele><time>2026-04-11T13:02:45.283Z</time></trkpt><trkpt lat="44.9498283" lon="8.2896817"><ele>174.0</ele><time>2026-04-11T13:02:46.283Z</time></trkpt><trkpt lat="44.94997" lon="8.2896133"><ele>176.0</ele><time>2026-04-11T13:02:47.283Z</time></trkpt><trkpt lat="44.9501067" lon="8.28954"><ele>176.0</ele><time>2026-04-11T13:02:48.284Z</time></trkpt><trkpt lat="44.950255" lon="8.2894633"><ele>176.0</ele><time>2026-04-11T13:02:49.283Z</time></trkpt><trkpt lat="44.9503967" lon="8.2893783"><ele>176.0</ele><time>2026-04-11T13:02:50.283Z</time></trkpt><trkpt lat="44.9505417" lon="8.2893067"><ele>176.0</ele><time>2026-04-11T13:02:51.283Z</time></trkpt><trkpt lat="44.9506917" lon="8.2892267"><ele>176.0</ele><time>2026-04-11T13:02:52.283Z</time></trkpt><trkpt lat="44.9508233" lon="8.2891533"><ele>176.0</ele><time>2026-04-11T13:02:53.283Z</time></trkpt><trkpt lat="44.9509583" lon="8.2890817"><ele>176.0</ele><time>2026-04-11T13:02:54.284Z</time></trkpt><trkpt lat="44.9510967" lon="8.2890167"><ele>174.75</ele><time>2026-04-11T13:02:55.283Z</time></trkpt><trkpt lat="44.9512417" lon="8.288945"><ele>173.5</ele><time>2026-04-11T13:02:56.283Z</time></trkpt><trkpt lat="44.9513717" lon="8.2888717"><ele>172.25</ele><time>2026-04-11T13:02:57.284Z</time></trkpt><trkpt lat="44.9514917" lon="8.2887967"><ele>171.0</ele><time>2026-04-11T13:02:58.283Z</time></trkpt><trkpt lat="44.9515983" lon="8.288715"><ele>174.0</ele><time>2026-04-11T13:02:59.283Z</time></trkpt><trkpt lat="44.95169" lon="8.2886"><ele>177.0</ele><time>2026-04-11T13:03:00.284Z</time></trkpt><trkpt lat="44.95175" lon="8.2884517"><ele>180.0</ele><time>2026-04-11T13:03:01.283Z</time></trkpt><trkpt lat="44.9517883" lon="8.2882883"><ele>183.0</ele><time>2026-04-11T13:03:02.283Z</time></trkpt><trkpt lat="44.9518167" lon="8.2881183"><ele>186.0</ele><time>2026-04-11T13:03:03.283Z</time></trkpt><trkpt lat="44.9518" lon="8.2879583"><ele>189.0</ele><time>2026-04-11T13:03:04.284Z</time></trkpt><trkpt lat="44.9517433" lon="8.2877767"><ele>192.0</ele><time>2026-04-11T13:03:05.283Z</time></trkpt><trkpt lat="44.95171" lon="8.28762"><ele>195.0</ele><time>2026-04-11T13:03:06.283Z</time></trkpt><trkpt lat="44.95167" lon="8.2874717"><ele>195.16666666666666</ele><time>2026-04-11T13:03:07.284Z</time></trkpt><trkpt lat="44.9516433" lon="8.2873567"><ele>195.33333333333331</ele><time>2026-04-11T13:03:08.283Z</time></trkpt><trkpt lat="44.9516167" lon="8.2872517"><ele>195.5</ele><time>2026-04-11T13:03:09.283Z</time></trkpt><trkpt lat="44.9516083" lon="8.2871417"><ele>195.66666666666666</ele><time>2026-04-11T13:03:10.283Z</time></trkpt><trkpt lat="44.9516217" lon="8.2870517"><ele>195.83333333333331</ele><time>2026-04-11T13:03:11.283Z</time></trkpt><trkpt lat="44.9516917" lon="8.2869683"><ele>196.0</ele><time>2026-04-11T13:03:13.283Z</time></trkpt><trkpt lat="44.9517683" lon="8.2869483"><ele>195.49999999999997</ele><time>2026-04-11T13:03:14.283Z</time></trkpt><trkpt lat="44.95184" lon="8.2869717"><ele>195.0</ele><time>2026-04-11T13:03:15.283Z</time></trkpt><trkpt lat="44.9519333" lon="8.2870183"><ele>194.5</ele><time>2026-04-11T13:03:16.283Z</time></trkpt><trkpt lat="44.9520167" lon="8.2870667"><ele>194.0</ele><time>2026-04-11T13:03:17.283Z</time></trkpt><trkpt lat="44.9520733" lon="8.2871067"><ele>193.49999999999997</ele><time>2026-04-11T13:03:18.283Z</time></trkpt><trkpt lat="44.95217" lon="8.2871317"><ele>193.0</ele><time>2026-04-11T13:03:20.283Z</time></trkpt><trkpt lat="44.9522367" lon="8.28715"><ele>193.0</ele><time>2026-04-11T13:03:22.284Z</time></trkpt><trkpt lat="44.952315" lon="8.2871883"><ele>193.0</ele><time>2026-04-11T13:03:44.283Z</time></trkpt><trkpt lat="44.9524067" lon="8.28721"><ele>193.0</ele><time>2026-04-11T13:03:46.284Z</time></trkpt><trkpt lat="44.952475" lon="8.2874083"><ele>193.0</ele><time>2026-04-11T13:03:49.283Z</time></trkpt><trkpt lat="44.9525283" lon="8.2875167"><ele>193.0</ele><time>2026-04-11T13:03:52.284Z</time></trkpt><trkpt lat="44.952505" lon="8.28741"><ele>193.4</ele><time>2026-04-11T13:04:39.283Z</time></trkpt><trkpt lat="44.9524883" lon="8.2872983"><ele>193.8</ele><time>2026-04-11T13:05:37.283Z</time></trkpt><trkpt lat="44.9526033" lon="8.287345"><ele>194.2</ele><time>2026-04-11T13:05:42.283Z</time></trkpt><trkpt lat="44.9526633" lon="8.2874417"><ele>194.6</ele><time>2026-04-11T13:05:44.283Z</time></trkpt><trkpt lat="44.952735" lon="8.287545"><ele>195.0</ele><time>2026-04-11T13:05:46.283Z</time></trkpt><trkpt lat="44.9528233" lon="8.287625"><ele>196.4</ele><time>2026-04-11T13:05:48.283Z</time></trkpt><trkpt lat="44.9529633" lon="8.2877167"><ele>197.8</ele><time>2026-04-11T13:05:50.284Z</time></trkpt><trkpt lat="44.953055" lon="8.2877717"><ele>199.2</ele><time>2026-04-11T13:05:51.283Z</time></trkpt><trkpt lat="44.9531433" lon="8.2878167"><ele>200.6</ele><time>2026-04-11T13:05:52.283Z</time></trkpt><trkpt lat="44.9532283" lon="8.2878517"><ele>202.0</ele><time>2026-04-11T13:05:53.283Z</time></trkpt><trkpt lat="44.95333" lon="8.2878883"><ele>204.2</ele><time>2026-04-11T13:05:54.283Z</time></trkpt><trkpt lat="44.9534383" lon="8.287925"><ele>206.39999999999998</ele><time>2026-04-11T13:05:55.283Z</time></trkpt><trkpt lat="44.95354" lon="8.2879467"><ele>208.60000000000002</ele><time>2026-04-11T13:05:56.283Z</time></trkpt><trkpt lat="44.9536417" lon="8.2879733"><ele>210.8</ele><time>2026-04-11T13:05:57.283Z</time></trkpt><trkpt lat="44.9537467" lon="8.2879867"><ele>213.0</ele><time>2026-04-11T13:05:58.283Z</time></trkpt><trkpt lat="44.9538467" lon="8.287985"><ele>213.0</ele><time>2026-04-11T13:05:59.284Z</time></trkpt><trkpt lat="44.9539533" lon="8.2879883"><ele>213.0</ele><time>2026-04-11T13:06:00.284Z</time></trkpt><trkpt lat="44.9540717" lon="8.2879817"><ele>213.0</ele><time>2026-04-11T13:06:01.284Z</time></trkpt><trkpt lat="44.95419" lon="8.28798"><ele>213.0</ele><time>2026-04-11T13:06:02.283Z</time></trkpt><trkpt lat="44.9543067" lon="8.28797"><ele>216.75</ele><time>2026-04-11T13:06:03.282Z</time></trkpt><trkpt lat="44.9544183" lon="8.2879633"><ele>220.5</ele><time>2026-04-11T13:06:04.282Z</time></trkpt><trkpt lat="44.9545433" lon="8.2879617"><ele>224.25</ele><time>2026-04-11T13:06:05.282Z</time></trkpt><trkpt lat="44.9546583" lon="8.28796"><ele>228.0</ele><time>2026-04-11T13:06:06.282Z</time></trkpt><trkpt lat="44.9547683" lon="8.287965"><ele>228.0</ele><time>2026-04-11T13:06:07.283Z</time></trkpt><trkpt lat="44.95487" lon="8.2879533"><ele>228.0</ele><time>2026-04-11T13:06:08.283Z</time></trkpt><trkpt lat="44.9549667" lon="8.287945"><ele>228.0</ele><time>2026-04-11T13:06:09.282Z</time></trkpt><trkpt lat="44.9550533" lon="8.2879467"><ele>228.0</ele><time>2026-04-11T13:06:10.282Z</time></trkpt><trkpt lat="44.95513" lon="8.2879433"><ele>228.0</ele><time>2026-04-11T13:06:11.282Z</time></trkpt><trkpt lat="44.955205" lon="8.2879017"><ele>228.0</ele><time>2026-04-11T13:06:12.282Z</time></trkpt><trkpt lat="44.955275" lon="8.2878383"><ele>227.57142857142856</ele><time>2026-04-11T13:06:13.282Z</time></trkpt><trkpt lat="44.95532" lon="8.2877517"><ele>227.1428571428571</ele><time>2026-04-11T13:06:14.283Z</time></trkpt><trkpt lat="44.9553567" lon="8.287665"><ele>226.71428571428572</ele><time>2026-04-11T13:06:15.282Z</time></trkpt><trkpt lat="44.9553867" lon="8.2875817"><ele>226.28571428571428</ele><time>2026-04-11T13:06:16.283Z</time></trkpt><trkpt lat="44.9554133" lon="8.287485"><ele>225.85714285714286</ele><time>2026-04-11T13:06:17.282Z</time></trkpt><trkpt lat="44.9554417" lon="8.2873933"><ele>225.42857142857144</ele><time>2026-04-11T13:06:18.282Z</time></trkpt><trkpt lat="44.9554617" lon="8.2872917"><ele>225.00000000000003</ele><time>2026-04-11T13:06:19.282Z</time></trkpt><trkpt lat="44.9554767" lon="8.2871883"><ele>225.0</ele><time>2026-04-11T13:06:20.282Z</time></trkpt><trkpt lat="44.9554867" lon="8.2870833"><ele>225.0</ele><time>2026-04-11T13:06:21.282Z</time></trkpt><trkpt lat="44.955505" lon="8.2869717"><ele>225.0</ele><time>2026-04-11T13:06:22.282Z</time></trkpt><trkpt lat="44.9555267" lon="8.286865"><ele>225.0</ele><time>2026-04-11T13:06:23.282Z</time></trkpt><trkpt lat="44.9555367" lon="8.2867517"><ele>225.0</ele><time>2026-04-11T13:06:24.282Z</time></trkpt><trkpt lat="44.9555583" lon="8.2866417"><ele>225.0</ele><time>2026-04-11T13:06:25.282Z</time></trkpt><trkpt lat="44.9555817" lon="8.28653"><ele>225.6</ele><time>2026-04-11T13:06:26.283Z</time></trkpt><trkpt lat="44.9556067" lon="8.286415"><ele>226.2</ele><time>2026-04-11T13:06:27.283Z</time></trkpt><trkpt lat="44.9556417" lon="8.2863083"><ele>226.8</ele><time>2026-04-11T13:06:28.282Z</time></trkpt><trkpt lat="44.9556817" lon="8.2862283"><ele>227.4</ele><time>2026-04-11T13:06:29.283Z</time></trkpt><trkpt lat="44.9557567" lon="8.286105"><ele>228.0</ele><time>2026-04-11T13:06:31.282Z</time></trkpt><trkpt lat="44.9558467" lon="8.2860033"><ele>227.5</ele><time>2026-04-11T13:06:33.283Z</time></trkpt><trkpt lat="44.955915" lon="8.28596"><ele>227.0</ele><time>2026-04-11T13:06:34.282Z</time></trkpt><trkpt lat="44.95599" lon="8.285915"><ele>226.5</ele><time>2026-04-11T13:06:35.282Z</time></trkpt><trkpt lat="44.9560667" lon="8.2858867"><ele>226.0</ele><time>2026-04-11T13:06:36.282Z</time></trkpt><trkpt lat="44.9561533" lon="8.2858617"><ele>225.5</ele><time>2026-04-11T13:06:37.283Z</time></trkpt><trkpt lat="44.956235" lon="8.2858383"><ele>225.0</ele><time>2026-04-11T13:06:38.282Z</time></trkpt><trkpt lat="44.9563217" lon="8.2858217"><ele>225.0</ele><time>2026-04-11T13:06:39.283Z</time></trkpt><trkpt lat="44.9564067" lon="8.285825"><ele>225.0</ele><time>2026-04-11T13:06:40.282Z</time></trkpt><trkpt lat="44.9565883" lon="8.28588"><ele>225.0</ele><time>2026-04-11T13:06:42.282Z</time></trkpt><trkpt lat="44.9566733" lon="8.28593"><ele>225.0</ele><time>2026-04-11T13:06:43.282Z</time></trkpt><trkpt lat="44.9567533" lon="8.28601"><ele>224.2857142857143</ele><time>2026-04-11T13:06:44.282Z</time></trkpt><trkpt lat="44.9568083" lon="8.2860967"><ele>223.57142857142858</ele><time>2026-04-11T13:06:45.283Z</time></trkpt><trkpt lat="44.956875" lon="8.286165"><ele>222.85714285714286</ele><time>2026-04-11T13:06:46.282Z</time></trkpt><trkpt lat="44.9569283" lon="8.28622"><ele>222.14285714285717</ele><time>2026-04-11T13:06:47.283Z</time></trkpt><trkpt lat="44.9569783" lon="8.2862767"><ele>221.42857142857144</ele><time>2026-04-11T13:06:48.282Z</time></trkpt><trkpt lat="44.9570283" lon="8.2863383"><ele>220.7142857142857</ele><time>2026-04-11T13:06:49.282Z</time></trkpt><trkpt lat="44.9570917" lon="8.2863767"><ele>220.0</ele><time>2026-04-11T13:06:50.283Z</time></trkpt><trkpt lat="44.95716" lon="8.2863933"><ele>219.99999999999997</ele><time>2026-04-11T13:06:51.282Z</time></trkpt><trkpt lat="44.9572317" lon="8.2864017"><ele>220.0</ele><time>2026-04-11T13:06:52.282Z</time></trkpt><trkpt lat="44.9573067" lon="8.28641"><ele>220.0</ele><time>2026-04-11T13:06:53.282Z</time></trkpt><trkpt lat="44.9573817" lon="8.2864133"><ele>220.0</ele><time>2026-04-11T13:06:54.282Z</time></trkpt><trkpt lat="44.9574683" lon="8.286425"><ele>219.99999999999997</ele><time>2026-04-11T13:06:55.282Z</time></trkpt><trkpt lat="44.9575467" lon="8.2864483"><ele>220.0</ele><time>2026-04-11T13:06:56.282Z</time></trkpt><trkpt lat="44.9576283" lon="8.2864633"><ele>218.83333333333331</ele><time>2026-04-11T13:06:57.283Z</time></trkpt><trkpt lat="44.9577133" lon="8.2864883"><ele>217.66666666666666</ele><time>2026-04-11T13:06:58.282Z</time></trkpt><trkpt lat="44.9577917" lon="8.2865367"><ele>216.5</ele><time>2026-04-11T13:06:59.282Z</time></trkpt><trkpt lat="44.9578767" lon="8.2865933"><ele>215.33333333333331</ele><time>2026-04-11T13:07:00.282Z</time></trkpt><trkpt lat="44.9579533" lon="8.2866533"><ele>214.16666666666666</ele><time>2026-04-11T13:07:01.283Z</time></trkpt><trkpt lat="44.9580383" lon="8.2867033"><ele>213.0</ele><time>2026-04-11T13:07:02.282Z</time></trkpt><trkpt lat="44.9581233" lon="8.286765"><ele>213.0</ele><time>2026-04-11T13:07:03.283Z</time></trkpt><trkpt lat="44.95821" lon="8.286815"><ele>213.0</ele><time>2026-04-11T13:07:04.282Z</time></trkpt><trkpt lat="44.9582967" lon="8.2868517"><ele>213.0</ele><time>2026-04-11T13:07:05.283Z</time></trkpt><trkpt lat="44.9583883" lon="8.2868883"><ele>213.0</ele><time>2026-04-11T13:07:06.282Z</time></trkpt><trkpt lat="44.9584833" lon="8.286925"><ele>213.0</ele><time>2026-04-11T13:07:07.283Z</time></trkpt><trkpt lat="44.9585717" lon="8.2869783"><ele>212.16666666666666</ele><time>2026-04-11T13:07:08.282Z</time></trkpt><trkpt lat="44.9586567" lon="8.2870333"><ele>211.33333333333331</ele><time>2026-04-11T13:07:09.283Z</time></trkpt><trkpt lat="44.9587317" lon="8.2871033"><ele>210.5</ele><time>2026-04-11T13:07:10.283Z</time></trkpt><trkpt lat="44.9588033" lon="8.2871733"><ele>209.66666666666666</ele><time>2026-04-11T13:07:11.282Z</time></trkpt><trkpt lat="44.9588567" lon="8.2872617"><ele>208.83333333333331</ele><time>2026-04-11T13:07:12.282Z</time></trkpt><trkpt lat="44.9589067" lon="8.2873633"><ele>208.0</ele><time>2026-04-11T13:07:13.282Z</time></trkpt><trkpt lat="44.9589417" lon="8.2874683"><ele>210.83333333333331</ele><time>2026-04-11T13:07:14.282Z</time></trkpt><trkpt lat="44.958975" lon="8.28758"><ele>213.66666666666666</ele><time>2026-04-11T13:07:15.282Z</time></trkpt><trkpt lat="44.959" lon="8.2876867"><ele>216.5</ele><time>2026-04-11T13:07:16.282Z</time></trkpt><trkpt lat="44.9590283" lon="8.287795"><ele>219.33333333333331</ele><time>2026-04-11T13:07:17.283Z</time></trkpt><trkpt lat="44.9590567" lon="8.2879033"><ele>222.16666666666666</ele><time>2026-04-11T13:07:18.282Z</time></trkpt><trkpt lat="44.9590717" lon="8.2879933"><ele>225.0</ele><time>2026-04-11T13:07:19.282Z</time></trkpt><trkpt lat="44.9590867" lon="8.288085"><ele>225.0</ele><time>2026-04-11T13:07:20.282Z</time></trkpt><trkpt lat="44.959105" lon="8.28818"><ele>225.0</ele><time>2026-04-11T13:07:21.282Z</time></trkpt><trkpt lat="44.9591267" lon="8.2882867"><ele>225.0</ele><time>2026-04-11T13:07:22.282Z</time></trkpt><trkpt lat="44.9591317" lon="8.2883867"><ele>225.0</ele><time>2026-04-11T13:07:23.282Z</time></trkpt><trkpt lat="44.9591283" lon="8.2884817"><ele>225.0</ele><time>2026-04-11T13:07:24.282Z</time></trkpt><trkpt lat="44.9591633" lon="8.2886417"><ele>225.0</ele><time>2026-04-11T13:07:26.282Z</time></trkpt><trkpt lat="44.9592483" lon="8.2887783"><ele>226.0</ele><time>2026-04-11T13:07:28.282Z</time></trkpt><trkpt lat="44.9593167" lon="8.2888467"><ele>227.0</ele><time>2026-04-11T13:07:29.282Z</time></trkpt><trkpt lat="44.9593917" lon="8.288885"><ele>228.0</ele><time>2026-04-11T13:07:30.283Z</time></trkpt><trkpt lat="44.95948" lon="8.2889"><ele>229.0</ele><time>2026-04-11T13:07:31.282Z</time></trkpt><trkpt lat="44.9595733" lon="8.28889"><ele>230.0</ele><time>2026-04-11T13:07:32.282Z</time></trkpt><trkpt lat="44.9596767" lon="8.2888633"><ele>230.0</ele><time>2026-04-11T13:07:33.283Z</time></trkpt><trkpt lat="44.9597867" lon="8.288825"><ele>230.0</ele><time>2026-04-11T13:07:34.282Z</time></trkpt><trkpt lat="44.9598867" lon="8.2887883"><ele>230.0</ele><time>2026-04-11T13:07:35.282Z</time></trkpt><trkpt lat="44.95998" lon="8.28877"><ele>230.0</ele><time>2026-04-11T13:07:36.282Z</time></trkpt><trkpt lat="44.960065" lon="8.2887583"><ele>230.0</ele><time>2026-04-11T13:07:37.282Z</time></trkpt><trkpt lat="44.9601467" lon="8.288765"><ele>227.66666666666669</ele><time>2026-04-11T13:07:38.283Z</time></trkpt><trkpt lat="44.9602233" lon="8.2887833"><ele>225.33333333333334</ele><time>2026-04-11T13:07:39.282Z</time></trkpt><trkpt lat="44.9603017" lon="8.2888067"><ele>223.0</ele><time>2026-04-11T13:07:40.283Z</time></trkpt><trkpt lat="44.960365" lon="8.2888417"><ele>220.66666666666669</ele><time>2026-04-11T13:07:41.283Z</time></trkpt><trkpt lat="44.960455" lon="8.288955"><ele>218.33333333333334</ele><time>2026-04-11T13:07:43.282Z</time></trkpt><trkpt lat="44.9604933" lon="8.289045"><ele>216.0</ele><time>2026-04-11T13:07:44.282Z</time></trkpt><trkpt lat="44.96053" lon="8.2891583"><ele>216.0</ele><time>2026-04-11T13:07:45.283Z</time></trkpt><trkpt lat="44.9606033" lon="8.2894017"><ele>216.00000000000003</ele><time>2026-04-11T13:07:47.282Z</time></trkpt><trkpt lat="44.9606417" lon="8.2895167"><ele>216.00000000000003</ele><time>2026-04-11T13:07:48.282Z</time></trkpt><trkpt lat="44.9606767" lon="8.2896267"><ele>216.0</ele><time>2026-04-11T13:07:49.282Z</time></trkpt><trkpt lat="44.96071" lon="8.2897317"><ele>216.0</ele><time>2026-04-11T13:07:50.283Z</time></trkpt><trkpt lat="44.9607467" lon="8.2898317"><ele>216.5</ele><time>2026-04-11T13:07:51.282Z</time></trkpt><trkpt lat="44.960795" lon="8.2899217"><ele>217.0</ele><time>2026-04-11T13:07:52.282Z</time></trkpt><trkpt lat="44.960845" lon="8.2900067"><ele>217.5</ele><time>2026-04-11T13:07:53.282Z</time></trkpt><trkpt lat="44.9609033" lon="8.2900783"><ele>218.0</ele><time>2026-04-11T13:07:54.282Z</time></trkpt><trkpt lat="44.9609617" lon="8.2901467"><ele>218.5</ele><time>2026-04-11T13:07:55.282Z</time></trkpt><trkpt lat="44.96103" lon="8.2902117"><ele>219.0</ele><time>2026-04-11T13:07:56.282Z</time></trkpt><trkpt lat="44.9611017" lon="8.29026"><ele>219.0</ele><time>2026-04-11T13:07:57.282Z</time></trkpt><trkpt lat="44.9611767" lon="8.2903083"><ele>219.0</ele><time>2026-04-11T13:07:58.282Z</time></trkpt><trkpt lat="44.96125" lon="8.2903467"><ele>219.0</ele><time>2026-04-11T13:07:59.282Z</time></trkpt><trkpt lat="44.961335" lon="8.29037"><ele>219.0</ele><time>2026-04-11T13:08:00.282Z</time></trkpt><trkpt lat="44.961415" lon="8.2903983"><ele>219.0</ele><time>2026-04-11T13:08:01.282Z</time></trkpt><trkpt lat="44.9614917" lon="8.2904167"><ele>219.0</ele><time>2026-04-11T13:08:02.282Z</time></trkpt><trkpt lat="44.9615683" lon="8.2904333"><ele>219.0</ele><time>2026-04-11T13:08:03.283Z</time></trkpt><trkpt lat="44.9616433" lon="8.2904617"><ele>219.0</ele><time>2026-04-11T13:08:04.283Z</time></trkpt><trkpt lat="44.9617233" lon="8.2904983"><ele>219.0</ele><time>2026-04-11T13:08:05.282Z</time></trkpt><trkpt lat="44.961805" lon="8.29057"><ele>219.0</ele><time>2026-04-11T13:08:06.283Z</time></trkpt><trkpt lat="44.961855" lon="8.2906633"><ele>219.0</ele><time>2026-04-11T13:08:07.282Z</time></trkpt><trkpt lat="44.9619" lon="8.2907633"><ele>219.0</ele><time>2026-04-11T13:08:08.282Z</time></trkpt><trkpt lat="44.961935" lon="8.2908567"><ele>217.66666666666666</ele><time>2026-04-11T13:08:09.283Z</time></trkpt><trkpt lat="44.96196" lon="8.29095"><ele>216.33333333333331</ele><time>2026-04-11T13:08:10.282Z</time></trkpt><trkpt lat="44.9619967" lon="8.2910583"><ele>215.0</ele><time>2026-04-11T13:08:11.282Z</time></trkpt><trkpt lat="44.9620267" lon="8.29115"><ele>213.66666666666666</ele><time>2026-04-11T13:08:12.282Z</time></trkpt><trkpt lat="44.962055" lon="8.2912383"><ele>212.33333333333331</ele><time>2026-04-11T13:08:13.282Z</time></trkpt><trkpt lat="44.9620917" lon="8.2913267"><ele>211.0</ele><time>2026-04-11T13:08:14.282Z</time></trkpt><trkpt lat="44.9621533" lon="8.291415"><ele>212.8</ele><time>2026-04-11T13:08:15.282Z</time></trkpt><trkpt lat="44.9622183" lon="8.2915"><ele>214.60000000000002</ele><time>2026-04-11T13:08:16.282Z</time></trkpt><trkpt lat="44.962285" lon="8.2915867"><ele>216.4</ele><time>2026-04-11T13:08:17.283Z</time></trkpt><trkpt lat="44.96236" lon="8.291665"><ele>218.2</ele><time>2026-04-11T13:08:18.282Z</time></trkpt><trkpt lat="44.9624567" lon="8.29173"><ele>220.0</ele><time>2026-04-11T13:08:19.283Z</time></trkpt><trkpt lat="44.9625583" lon="8.2917717"><ele>220.0</ele><time>2026-04-11T13:08:20.283Z</time></trkpt><trkpt lat="44.9626683" lon="8.2917967"><ele>220.0</ele><time>2026-04-11T13:08:21.282Z</time></trkpt><trkpt lat="44.962785" lon="8.2918117"><ele>220.0</ele><time>2026-04-11T13:08:22.282Z</time></trkpt><trkpt lat="44.9629067" lon="8.2918017"><ele>220.0</ele><time>2026-04-11T13:08:23.282Z</time></trkpt><trkpt lat="44.9630283" lon="8.2918"><ele>220.0</ele><time>2026-04-11T13:08:24.282Z</time></trkpt><trkpt lat="44.9631333" lon="8.2917917"><ele>220.0</ele><time>2026-04-11T13:08:25.283Z</time></trkpt><trkpt lat="44.9632417" lon="8.291785"><ele>220.0</ele><time>2026-04-11T13:08:26.282Z</time></trkpt><trkpt lat="44.9633517" lon="8.2917783"><ele>220.0</ele><time>2026-04-11T13:08:27.283Z</time></trkpt><trkpt lat="44.9634567" lon="8.29177"><ele>220.0</ele><time>2026-04-11T13:08:28.283Z</time></trkpt><trkpt lat="44.9635517" lon="8.29176"><ele>220.0</ele><time>2026-04-11T13:08:29.282Z</time></trkpt><trkpt lat="44.9636533" lon="8.2917267"><ele>220.0</ele><time>2026-04-11T13:08:30.283Z</time></trkpt><trkpt lat="44.9637483" lon="8.29168"><ele>220.0</ele><time>2026-04-11T13:08:31.283Z</time></trkpt><trkpt lat="44.9638483" lon="8.29163"><ele>220.0</ele><time>2026-04-11T13:08:32.282Z</time></trkpt><trkpt lat="44.96394" lon="8.29156"><ele>220.0</ele><time>2026-04-11T13:08:33.282Z</time></trkpt><trkpt lat="44.96403" lon="8.2914967"><ele>220.4</ele><time>2026-04-11T13:08:34.283Z</time></trkpt><trkpt lat="44.9641183" lon="8.29142"><ele>220.8</ele><time>2026-04-11T13:08:35.282Z</time></trkpt><trkpt lat="44.9642017" lon="8.2913367"><ele>221.2</ele><time>2026-04-11T13:08:36.282Z</time></trkpt><trkpt lat="44.96428" lon="8.29125"><ele>221.6</ele><time>2026-04-11T13:08:37.282Z</time></trkpt><trkpt lat="44.9643583" lon="8.29117"><ele>222.0</ele><time>2026-04-11T13:08:38.282Z</time></trkpt><trkpt lat="44.9644333" lon="8.291105"><ele>222.66666666666666</ele><time>2026-04-11T13:08:39.283Z</time></trkpt><trkpt lat="44.9645" lon="8.2910317"><ele>223.33333333333331</ele><time>2026-04-11T13:08:40.283Z</time></trkpt><trkpt lat="44.9645767" lon="8.2909683"><ele>224.0</ele><time>2026-04-11T13:08:41.282Z</time></trkpt><trkpt lat="44.9646467" lon="8.290915"><ele>224.66666666666666</ele><time>2026-04-11T13:08:42.282Z</time></trkpt><trkpt lat="44.9647217" lon="8.290865"><ele>225.33333333333331</ele><time>2026-04-11T13:08:43.282Z</time></trkpt><trkpt lat="44.9647883" lon="8.2908317"><ele>226.0</ele><time>2026-04-11T13:08:44.282Z</time></trkpt><trkpt lat="44.9648533" lon="8.2908383"><ele>226.0</ele><time>2026-04-11T13:08:45.282Z</time></trkpt><trkpt lat="44.964925" lon="8.2908733"><ele>226.0</ele><time>2026-04-11T13:08:46.283Z</time></trkpt><trkpt lat="44.964995" lon="8.2909167"><ele>226.0</ele><time>2026-04-11T13:08:47.282Z</time></trkpt><trkpt lat="44.9650633" lon="8.2909633"><ele>226.0</ele><time>2026-04-11T13:08:48.283Z</time></trkpt><trkpt lat="44.9651267" lon="8.2910117"><ele>226.0</ele><time>2026-04-11T13:08:49.282Z</time></trkpt><trkpt lat="44.9651883" lon="8.2910633"><ele>226.0</ele><time>2026-04-11T13:08:50.282Z</time></trkpt><trkpt lat="44.965245" lon="8.29112"><ele>226.0</ele><time>2026-04-11T13:08:51.283Z</time></trkpt><trkpt lat="44.9652933" lon="8.2911917"><ele>225.66666666666666</ele><time>2026-04-11T13:08:52.283Z</time></trkpt><trkpt lat="44.9653317" lon="8.2912833"><ele>225.33333333333331</ele><time>2026-04-11T13:08:53.282Z</time></trkpt><trkpt lat="44.9653567" lon="8.291375"><ele>225.0</ele><time>2026-04-11T13:08:54.282Z</time></trkpt><trkpt lat="44.9654" lon="8.29154"><ele>224.66666666666669</ele><time>2026-04-11T13:08:56.282Z</time></trkpt><trkpt lat="44.965425" lon="8.2916317"><ele>224.33333333333334</ele><time>2026-04-11T13:08:57.283Z</time></trkpt><trkpt lat="44.9654567" lon="8.29172"><ele>224.0</ele><time>2026-04-11T13:08:58.282Z</time></trkpt><trkpt lat="44.9654967" lon="8.291805"><ele>224.00000000000003</ele><time>2026-04-11T13:08:59.283Z</time></trkpt><trkpt lat="44.9655367" lon="8.291875"><ele>224.0</ele><time>2026-04-11T13:09:00.282Z</time></trkpt><trkpt lat="44.9655833" lon="8.2919483"><ele>224.0</ele><time>2026-04-11T13:09:01.282Z</time></trkpt><trkpt lat="44.9656433" lon="8.2920317"><ele>224.0</ele><time>2026-04-11T13:09:02.282Z</time></trkpt><trkpt lat="44.9657117" lon="8.2921017"><ele>224.00000000000003</ele><time>2026-04-11T13:09:03.282Z</time></trkpt><trkpt lat="44.9657817" lon="8.2921817"><ele>224.0</ele><time>2026-04-11T13:09:04.283Z</time></trkpt><trkpt lat="44.965855" lon="8.2922383"><ele>220.66666666666669</ele><time>2026-04-11T13:09:05.282Z</time></trkpt><trkpt lat="44.965935" lon="8.2922733"><ele>217.33333333333334</ele><time>2026-04-11T13:09:06.283Z</time></trkpt><trkpt lat="44.9660233" lon="8.2922917"><ele>214.0</ele><time>2026-04-11T13:09:07.282Z</time></trkpt><trkpt lat="44.9661167" lon="8.29231"><ele>210.66666666666669</ele><time>2026-04-11T13:09:08.282Z</time></trkpt><trkpt lat="44.9662033" lon="8.2923367"><ele>207.33333333333334</ele><time>2026-04-11T13:09:09.282Z</time></trkpt><trkpt lat="44.9662783" lon="8.2924017"><ele>204.0</ele><time>2026-04-11T13:09:10.282Z</time></trkpt><trkpt lat="44.966345" lon="8.29248"><ele>204.0</ele><time>2026-04-11T13:09:11.282Z</time></trkpt><trkpt lat="44.9664117" lon="8.292565"><ele>204.0</ele><time>2026-04-11T13:09:12.283Z</time></trkpt><trkpt lat="44.9664833" lon="8.2926517"><ele>204.0</ele><time>2026-04-11T13:09:13.282Z</time></trkpt><trkpt lat="44.9665433" lon="8.2927433"><ele>204.0</ele><time>2026-04-11T13:09:14.282Z</time></trkpt><trkpt lat="44.9666033" lon="8.29284"><ele>204.0</ele><time>2026-04-11T13:09:15.282Z</time></trkpt><trkpt lat="44.9666667" lon="8.2929283"><ele>204.5</ele><time>2026-04-11T13:09:16.282Z</time></trkpt><trkpt lat="44.9667317" lon="8.2930067"><ele>205.0</ele><time>2026-04-11T13:09:17.282Z</time></trkpt><trkpt lat="44.9667933" lon="8.2930883"><ele>205.5</ele><time>2026-04-11T13:09:18.282Z</time></trkpt><trkpt lat="44.9668333" lon="8.2931867"><ele>206.0</ele><time>2026-04-11T13:09:19.283Z</time></trkpt><trkpt lat="44.9668583" lon="8.2932867"><ele>206.5</ele><time>2026-04-11T13:09:20.282Z</time></trkpt><trkpt lat="44.9668767" lon="8.293385"><ele>207.0</ele><time>2026-04-11T13:09:21.282Z</time></trkpt><trkpt lat="44.9668783" lon="8.2935083"><ele>205.33333333333334</ele><time>2026-04-11T13:09:22.283Z</time></trkpt><trkpt lat="44.96687" lon="8.293635"><ele>203.66666666666669</ele><time>2026-04-11T13:09:23.283Z</time></trkpt><trkpt lat="44.9668533" lon="8.29375"><ele>202.0</ele><time>2026-04-11T13:09:24.282Z</time></trkpt><trkpt lat="44.9668283" lon="8.29386"><ele>200.33333333333334</ele><time>2026-04-11T13:09:25.282Z</time></trkpt><trkpt lat="44.9668133" lon="8.293965"><ele>198.66666666666669</ele><time>2026-04-11T13:09:26.282Z</time></trkpt><trkpt lat="44.966795" lon="8.29406"><ele>197.0</ele><time>2026-04-11T13:09:27.283Z</time></trkpt><trkpt lat="44.9667733" lon="8.2941583"><ele>196.66666666666669</ele><time>2026-04-11T13:09:28.282Z</time></trkpt><trkpt lat="44.9667583" lon="8.294265"><ele>196.33333333333334</ele><time>2026-04-11T13:09:29.282Z</time></trkpt><trkpt lat="44.9667417" lon="8.2943717"><ele>196.0</ele><time>2026-04-11T13:09:30.282Z</time></trkpt><trkpt lat="44.9667333" lon="8.29448"><ele>195.66666666666669</ele><time>2026-04-11T13:09:31.282Z</time></trkpt><trkpt lat="44.9667183" lon="8.2945883"><ele>195.33333333333334</ele><time>2026-04-11T13:09:32.282Z</time></trkpt><trkpt lat="44.9666967" lon="8.2946933"><ele>195.0</ele><time>2026-04-11T13:09:33.282Z</time></trkpt><trkpt lat="44.9666633" lon="8.294795"><ele>195.0</ele><time>2026-04-11T13:09:34.282Z</time></trkpt><trkpt lat="44.966625" lon="8.2948833"><ele>195.0</ele><time>2026-04-11T13:09:35.282Z</time></trkpt><trkpt lat="44.966565" lon="8.2949567"><ele>195.0</ele><time>2026-04-11T13:09:36.282Z</time></trkpt><trkpt lat="44.966495" lon="8.29501"><ele>195.0</ele><time>2026-04-11T13:09:37.282Z</time></trkpt><trkpt lat="44.96641" lon="8.2950583"><ele>195.0</ele><time>2026-04-11T13:09:38.282Z</time></trkpt><trkpt lat="44.9663233" lon="8.2951"><ele>195.0</ele><time>2026-04-11T13:09:39.283Z</time></trkpt><trkpt lat="44.96623" lon="8.29517"><ele>195.0</ele><time>2026-04-11T13:09:40.282Z</time></trkpt><trkpt lat="44.9661483" lon="8.2952683"><ele>195.0</ele><time>2026-04-11T13:09:41.282Z</time></trkpt><trkpt lat="44.9660683" lon="8.2953667"><ele>195.0</ele><time>2026-04-11T13:09:42.282Z</time></trkpt><trkpt lat="44.96602" lon="8.2954617"><ele>195.0</ele><time>2026-04-11T13:09:43.283Z</time></trkpt><trkpt lat="44.9659617" lon="8.2955583"><ele>195.0</ele><time>2026-04-11T13:09:44.282Z</time></trkpt><trkpt lat="44.9659183" lon="8.2956683"><ele>195.0</ele><time>2026-04-11T13:09:45.282Z</time></trkpt><trkpt lat="44.965865" lon="8.2957933"><ele>195.0</ele><time>2026-04-11T13:09:46.282Z</time></trkpt><trkpt lat="44.9658067" lon="8.2959083"><ele>195.0</ele><time>2026-04-11T13:09:47.282Z</time></trkpt><trkpt lat="44.9657633" lon="8.296015"><ele>195.0</ele><time>2026-04-11T13:09:48.282Z</time></trkpt><trkpt lat="44.9657383" lon="8.2961317"><ele>195.0</ele><time>2026-04-11T13:09:49.283Z</time></trkpt><trkpt lat="44.96573" lon="8.2962483"><ele>195.0</ele><time>2026-04-11T13:09:50.281Z</time></trkpt><trkpt lat="44.9657483" lon="8.29636"><ele>195.0</ele><time>2026-04-11T13:09:51.281Z</time></trkpt><trkpt lat="44.9657717" lon="8.2964833"><ele>195.0</ele><time>2026-04-11T13:09:52.281Z</time></trkpt><trkpt lat="44.96581" lon="8.2966117"><ele>195.0</ele><time>2026-04-11T13:09:53.281Z</time></trkpt><trkpt lat="44.9658567" lon="8.2967233"><ele>195.0</ele><time>2026-04-11T13:09:54.281Z</time></trkpt><trkpt lat="44.9658883" lon="8.2968283"><ele>195.0</ele><time>2026-04-11T13:09:55.281Z</time></trkpt><trkpt lat="44.96593" lon="8.2969333"><ele>198.33333333333334</ele><time>2026-04-11T13:09:56.281Z</time></trkpt><trkpt lat="44.9659583" lon="8.2970333"><ele>201.66666666666669</ele><time>2026-04-11T13:09:57.281Z</time></trkpt><trkpt lat="44.9659817" lon="8.2971483"><ele>205.0</ele><time>2026-04-11T13:09:58.281Z</time></trkpt><trkpt lat="44.965995" lon="8.2972633"><ele>208.33333333333334</ele><time>2026-04-11T13:09:59.281Z</time></trkpt><trkpt lat="44.9660083" lon="8.2973617"><ele>211.66666666666669</ele><time>2026-04-11T13:10:00.281Z</time></trkpt><trkpt lat="44.96601" lon="8.2974617"><ele>215.0</ele><time>2026-04-11T13:10:01.282Z</time></trkpt><trkpt lat="44.9660017" lon="8.29757"><ele>215.4</ele><time>2026-04-11T13:10:02.281Z</time></trkpt><trkpt lat="44.96598" lon="8.2976783"><ele>215.8</ele><time>2026-04-11T13:10:03.281Z</time></trkpt><trkpt lat="44.9659567" lon="8.2977917"><ele>216.2</ele><time>2026-04-11T13:10:04.281Z</time></trkpt><trkpt lat="44.965915" lon="8.2978967"><ele>216.6</ele><time>2026-04-11T13:10:05.282Z</time></trkpt><trkpt lat="44.965875" lon="8.2980217"><ele>217.0</ele><time>2026-04-11T13:10:06.281Z</time></trkpt><trkpt lat="44.9658217" lon="8.2981583"><ele>216.2</ele><time>2026-04-11T13:10:07.281Z</time></trkpt><trkpt lat="44.96578" lon="8.2982883"><ele>215.39999999999998</ele><time>2026-04-11T13:10:08.281Z</time></trkpt><trkpt lat="44.9657367" lon="8.2984333"><ele>214.60000000000002</ele><time>2026-04-11T13:10:09.282Z</time></trkpt><trkpt lat="44.9656883" lon="8.298565"><ele>213.8</ele><time>2026-04-11T13:10:10.281Z</time></trkpt><trkpt lat="44.9656283" lon="8.2986933"><ele>213.0</ele><time>2026-04-11T13:10:11.282Z</time></trkpt><trkpt lat="44.96556" lon="8.2988"><ele>213.0</ele><time>2026-04-11T13:10:12.282Z</time></trkpt><trkpt lat="44.965515" lon="8.2988933"><ele>213.0</ele><time>2026-04-11T13:10:13.282Z</time></trkpt><trkpt lat="44.9654733" lon="8.298985"><ele>213.0</ele><time>2026-04-11T13:10:14.282Z</time></trkpt><trkpt lat="44.96545" lon="8.29908"><ele>213.0</ele><time>2026-04-11T13:10:15.281Z</time></trkpt><trkpt lat="44.9654567" lon="8.2992517"><ele>213.0</ele><time>2026-04-11T13:10:17.281Z</time></trkpt><trkpt lat="44.9654883" lon="8.2993517"><ele>213.0</ele><time>2026-04-11T13:10:18.281Z</time></trkpt><trkpt lat="44.9655367" lon="8.2994583"><ele>215.0</ele><time>2026-04-11T13:10:19.282Z</time></trkpt><trkpt lat="44.965595" lon="8.2995717"><ele>217.0</ele><time>2026-04-11T13:10:20.282Z</time></trkpt><trkpt lat="44.965655" lon="8.2996933"><ele>219.0</ele><time>2026-04-11T13:10:21.281Z</time></trkpt><trkpt lat="44.96569" lon="8.2997933"><ele>221.0</ele><time>2026-04-11T13:10:22.282Z</time></trkpt><trkpt lat="44.965715" lon="8.2999083"><ele>223.0</ele><time>2026-04-11T13:10:24.281Z</time></trkpt><trkpt lat="44.965725" lon="8.3000017"><ele>225.0</ele><time>2026-04-11T13:10:51.282Z</time></trkpt><trkpt lat="44.96568" lon="8.3001217"><ele>225.0</ele><time>2026-04-11T13:10:53.281Z</time></trkpt><trkpt lat="44.9656267" lon="8.3001933"><ele>225.0</ele><time>2026-04-11T13:10:54.282Z</time></trkpt><trkpt lat="44.9655733" lon="8.3002733"><ele>225.0</ele><time>2026-04-11T13:10:55.282Z</time></trkpt><trkpt lat="44.96552" lon="8.3003583"><ele>225.0</ele><time>2026-04-11T13:10:56.281Z</time></trkpt><trkpt lat="44.96547" lon="8.30045"><ele>225.0</ele><time>2026-04-11T13:10:57.281Z</time></trkpt><trkpt lat="44.9654217" lon="8.3005383"><ele>225.0</ele><time>2026-04-11T13:10:58.281Z</time></trkpt><trkpt lat="44.9653733" lon="8.300625"><ele>222.75</ele><time>2026-04-11T13:10:59.282Z</time></trkpt><trkpt lat="44.9652733" lon="8.3008317"><ele>220.5</ele><time>2026-04-11T13:11:01.281Z</time></trkpt><trkpt lat="44.9652183" lon="8.3009417"><ele>218.25</ele><time>2026-04-11T13:11:02.281Z</time></trkpt><trkpt lat="44.9651583" lon="8.3010467"><ele>216.0</ele><time>2026-04-11T13:11:03.282Z</time></trkpt><trkpt lat="44.9650933" lon="8.3011733"><ele>216.0</ele><time>2026-04-11T13:11:04.281Z</time></trkpt><trkpt lat="44.9650433" lon="8.3012917"><ele>216.00000000000003</ele><time>2026-04-11T13:11:05.282Z</time></trkpt><trkpt lat="44.9649833" lon="8.3014067"><ele>216.00000000000003</ele><time>2026-04-11T13:11:06.281Z</time></trkpt><trkpt lat="44.964925" lon="8.30152"><ele>216.0</ele><time>2026-04-11T13:11:07.281Z</time></trkpt><trkpt lat="44.964855" lon="8.3016233"><ele>216.0</ele><time>2026-04-11T13:11:08.282Z</time></trkpt><trkpt lat="44.964795" lon="8.3017367"><ele>218.20000000000002</ele><time>2026-04-11T13:11:09.281Z</time></trkpt><trkpt lat="44.9647367" lon="8.301855"><ele>220.40000000000003</ele><time>2026-04-11T13:11:10.281Z</time></trkpt><trkpt lat="44.96467" lon="8.3019833"><ele>222.6</ele><time>2026-04-11T13:11:11.282Z</time></trkpt><trkpt lat="44.9645983" lon="8.3021"><ele>224.8</ele><time>2026-04-11T13:11:12.281Z</time></trkpt><trkpt lat="44.9645233" lon="8.3022183"><ele>227.0</ele><time>2026-04-11T13:11:13.281Z</time></trkpt><trkpt lat="44.9644467" lon="8.3023233"><ele>227.0</ele><time>2026-04-11T13:11:14.282Z</time></trkpt><trkpt lat="44.9643683" lon="8.3024333"><ele>227.0</ele><time>2026-04-11T13:11:15.281Z</time></trkpt><trkpt lat="44.9642933" lon="8.30253"><ele>227.0</ele><time>2026-04-11T13:11:16.281Z</time></trkpt><trkpt lat="44.964205" lon="8.3026233"><ele>227.0</ele><time>2026-04-11T13:11:17.281Z</time></trkpt><trkpt lat="44.96413" lon="8.3027133"><ele>227.0</ele><time>2026-04-11T13:11:18.281Z</time></trkpt><trkpt lat="44.9640567" lon="8.3028183"><ele>228.5</ele><time>2026-04-11T13:11:19.281Z</time></trkpt><trkpt lat="44.9639033" lon="8.30304"><ele>230.0</ele><time>2026-04-11T13:11:21.281Z</time></trkpt><trkpt lat="44.9638333" lon="8.3031533"><ele>231.5</ele><time>2026-04-11T13:11:22.281Z</time></trkpt><trkpt lat="44.9637683" lon="8.30327"><ele>233.0</ele><time>2026-04-11T13:11:23.281Z</time></trkpt><trkpt lat="44.963695" lon="8.303385"><ele>233.0</ele><time>2026-04-11T13:11:24.281Z</time></trkpt><trkpt lat="44.9636117" lon="8.3034917"><ele>233.0</ele><time>2026-04-11T13:11:25.281Z</time></trkpt><trkpt lat="44.9635333" lon="8.3035983"><ele>233.0</ele><time>2026-04-11T13:11:26.281Z</time></trkpt><trkpt lat="44.9634533" lon="8.3036983"><ele>233.0</ele><time>2026-04-11T13:11:27.282Z</time></trkpt><trkpt lat="44.9633717" lon="8.3037917"><ele>233.0</ele><time>2026-04-11T13:11:28.281Z</time></trkpt><trkpt lat="44.96328" lon="8.3038833"><ele>232.0</ele><time>2026-04-11T13:11:29.281Z</time></trkpt><trkpt lat="44.9631883" lon="8.3039667"><ele>231.0</ele><time>2026-04-11T13:11:30.282Z</time></trkpt><trkpt lat="44.9630967" lon="8.3040417"><ele>230.0</ele><time>2026-04-11T13:11:31.281Z</time></trkpt><trkpt lat="44.9630167" lon="8.3041317"><ele>229.0</ele><time>2026-04-11T13:11:32.282Z</time></trkpt><trkpt lat="44.962925" lon="8.3042083"><ele>228.0</ele><time>2026-04-11T13:11:33.282Z</time></trkpt><trkpt lat="44.962835" lon="8.3042533"><ele>228.0</ele><time>2026-04-11T13:11:34.281Z</time></trkpt><trkpt lat="44.96276" lon="8.3043217"><ele>228.0</ele><time>2026-04-11T13:11:35.281Z</time></trkpt><trkpt lat="44.9626833" lon="8.3044067"><ele>228.0</ele><time>2026-04-11T13:11:36.281Z</time></trkpt><trkpt lat="44.962625" lon="8.3044883"><ele>228.0</ele><time>2026-04-11T13:11:37.282Z</time></trkpt><trkpt lat="44.9625733" lon="8.304545"><ele>228.0</ele><time>2026-04-11T13:11:38.281Z</time></trkpt><trkpt lat="44.9625217" lon="8.304605"><ele>228.0</ele><time>2026-04-11T13:11:39.282Z</time></trkpt><trkpt lat="44.9624417" lon="8.3047083"><ele>228.0</ele><time>2026-04-11T13:11:41.282Z</time></trkpt><trkpt lat="44.96238" lon="8.304775"><ele>228.0</ele><time>2026-04-11T13:11:43.282Z</time></trkpt><trkpt lat="44.9622933" lon="8.3047917"><ele>228.0</ele><time>2026-04-11T13:11:45.281Z</time></trkpt><trkpt lat="44.9621717" lon="8.3047217"><ele>228.0</ele><time>2026-04-11T13:11:47.281Z</time></trkpt><trkpt lat="44.9620167" lon="8.304635"><ele>228.2</ele><time>2026-04-11T13:11:49.281Z</time></trkpt><trkpt lat="44.96193" lon="8.3045883"><ele>228.4</ele><time>2026-04-11T13:11:50.281Z</time></trkpt><trkpt lat="44.9618333" lon="8.3045467"><ele>228.59999999999997</ele><time>2026-04-11T13:11:51.281Z</time></trkpt><trkpt lat="44.961735" lon="8.3045283"><ele>228.79999999999998</ele><time>2026-04-11T13:11:52.281Z</time></trkpt><trkpt lat="44.9616333" lon="8.3045167"><ele>229.0</ele><time>2026-04-11T13:11:53.281Z</time></trkpt><trkpt lat="44.9615317" lon="8.30451"><ele>229.0</ele><time>2026-04-11T13:11:54.281Z</time></trkpt><trkpt lat="44.9614317" lon="8.3045017"><ele>228.99999999999997</ele><time>2026-04-11T13:11:55.282Z</time></trkpt><trkpt lat="44.9613317" lon="8.3045117"><ele>228.99999999999997</ele><time>2026-04-11T13:11:56.281Z</time></trkpt><trkpt lat="44.961235" lon="8.3045167"><ele>229.0</ele><time>2026-04-11T13:11:57.281Z</time></trkpt><trkpt lat="44.9611317" lon="8.304525"><ele>229.0</ele><time>2026-04-11T13:11:58.281Z</time></trkpt><trkpt lat="44.9610333" lon="8.3045383"><ele>229.0</ele><time>2026-04-11T13:11:59.281Z</time></trkpt><trkpt lat="44.9609367" lon="8.3045417"><ele>229.0</ele><time>2026-04-11T13:12:00.282Z</time></trkpt><trkpt lat="44.9608367" lon="8.304555"><ele>229.0</ele><time>2026-04-11T13:12:01.281Z</time></trkpt><trkpt lat="44.9606383" lon="8.304555"><ele>229.0</ele><time>2026-04-11T13:12:03.281Z</time></trkpt><trkpt lat="44.9605517" lon="8.3045233"><ele>231.2</ele><time>2026-04-11T13:12:04.282Z</time></trkpt><trkpt lat="44.96047" lon="8.30447"><ele>233.39999999999998</ele><time>2026-04-11T13:12:05.282Z</time></trkpt><trkpt lat="44.9603783" lon="8.3044483"><ele>235.6</ele><time>2026-04-11T13:12:06.282Z</time></trkpt><trkpt lat="44.960275" lon="8.3044633"><ele>237.8</ele><time>2026-04-11T13:12:07.281Z</time></trkpt><trkpt lat="44.9601667" lon="8.304495"><ele>240.0</ele><time>2026-04-11T13:12:08.282Z</time></trkpt><trkpt lat="44.960065" lon="8.30451"><ele>239.6</ele><time>2026-04-11T13:12:09.281Z</time></trkpt><trkpt lat="44.9599617" lon="8.3045233"><ele>239.2</ele><time>2026-04-11T13:12:10.281Z</time></trkpt><trkpt lat="44.9598583" lon="8.3045433"><ele>238.8</ele><time>2026-04-11T13:12:11.281Z</time></trkpt><trkpt lat="44.9597483" lon="8.30456"><ele>238.4</ele><time>2026-04-11T13:12:12.281Z</time></trkpt><trkpt lat="44.959645" lon="8.3045467"><ele>238.0</ele><time>2026-04-11T13:12:13.281Z</time></trkpt><trkpt lat="44.9595467" lon="8.3045283"><ele>238.0</ele><time>2026-04-11T13:12:14.282Z</time></trkpt><trkpt lat="44.9594567" lon="8.30451"><ele>238.0</ele><time>2026-04-11T13:12:15.281Z</time></trkpt><trkpt lat="44.9593633" lon="8.30449"><ele>238.0</ele><time>2026-04-11T13:12:16.281Z</time></trkpt><trkpt lat="44.959275" lon="8.304465"><ele>238.0</ele><time>2026-04-11T13:12:17.282Z</time></trkpt><trkpt lat="44.9591933" lon="8.3044583"><ele>238.0</ele><time>2026-04-11T13:12:18.281Z</time></trkpt><trkpt lat="44.9590917" lon="8.30448"><ele>237.8</ele><time>2026-04-11T13:12:19.281Z</time></trkpt><trkpt lat="44.9589883" lon="8.3045133"><ele>237.60000000000002</ele><time>2026-04-11T13:12:20.282Z</time></trkpt><trkpt lat="44.958865" lon="8.3045667"><ele>237.39999999999998</ele><time>2026-04-11T13:12:21.281Z</time></trkpt><trkpt lat="44.9587567" lon="8.3046083"><ele>237.2</ele><time>2026-04-11T13:12:22.281Z</time></trkpt><trkpt lat="44.95867" lon="8.3046233"><ele>237.0</ele><time>2026-04-11T13:12:23.281Z</time></trkpt><trkpt lat="44.9585633" lon="8.304655"><ele>237.0</ele><time>2026-04-11T13:12:24.281Z</time></trkpt><trkpt lat="44.95847" lon="8.3046667"><ele>237.0</ele><time>2026-04-11T13:12:25.282Z</time></trkpt><trkpt lat="44.9583867" lon="8.304665"><ele>237.0</ele><time>2026-04-11T13:12:26.281Z</time></trkpt><trkpt lat="44.9583083" lon="8.3046517"><ele>237.0</ele><time>2026-04-11T13:12:27.281Z</time></trkpt><trkpt lat="44.9582183" lon="8.3046417"><ele>237.0</ele><time>2026-04-11T13:12:28.282Z</time></trkpt><trkpt lat="44.9581417" lon="8.3045767"><ele>237.0</ele><time>2026-04-11T13:12:29.281Z</time></trkpt><trkpt lat="44.958065" lon="8.3045067"><ele>237.8</ele><time>2026-04-11T13:12:30.281Z</time></trkpt><trkpt lat="44.9579833" lon="8.30443"><ele>238.6</ele><time>2026-04-11T13:12:31.281Z</time></trkpt><trkpt lat="44.9578983" lon="8.3043267"><ele>239.40000000000003</ele><time>2026-04-11T13:12:32.282Z</time></trkpt><trkpt lat="44.9578133" lon="8.3042383"><ele>240.20000000000002</ele><time>2026-04-11T13:12:33.281Z</time></trkpt><trkpt lat="44.957725" lon="8.3041467"><ele>241.0</ele><time>2026-04-11T13:12:34.282Z</time></trkpt><trkpt lat="44.9576417" lon="8.304075"><ele>241.0</ele><time>2026-04-11T13:12:35.281Z</time></trkpt><trkpt lat="44.957555" lon="8.3039817"><ele>241.00000000000003</ele><time>2026-04-11T13:12:36.281Z</time></trkpt><trkpt lat="44.957465" lon="8.303895"><ele>241.00000000000003</ele><time>2026-04-11T13:12:37.281Z</time></trkpt><trkpt lat="44.9573733" lon="8.3038183"><ele>241.0</ele><time>2026-04-11T13:12:38.281Z</time></trkpt><trkpt lat="44.9572867" lon="8.30374"><ele>241.0</ele><time>2026-04-11T13:12:39.282Z</time></trkpt><trkpt lat="44.9571983" lon="8.3036567"><ele>238.75</ele><time>2026-04-11T13:12:40.281Z</time></trkpt><trkpt lat="44.9570967" lon="8.30358"><ele>236.5</ele><time>2026-04-11T13:12:41.281Z</time></trkpt><trkpt lat="44.9569933" lon="8.3035117"><ele>234.25</ele><time>2026-04-11T13:12:42.281Z</time></trkpt><trkpt lat="44.95689" lon="8.3034333"><ele>232.0</ele><time>2026-04-11T13:12:43.281Z</time></trkpt><trkpt lat="44.95679" lon="8.303345"><ele>233.25</ele><time>2026-04-11T13:12:44.282Z</time></trkpt><trkpt lat="44.9566883" lon="8.30327"><ele>234.5</ele><time>2026-04-11T13:12:45.281Z</time></trkpt><trkpt lat="44.9565783" lon="8.303185"><ele>235.75</ele><time>2026-04-11T13:12:46.281Z</time></trkpt><trkpt lat="44.9564633" lon="8.3030983"><ele>237.0</ele><time>2026-04-11T13:12:47.282Z</time></trkpt><trkpt lat="44.95635" lon="8.3030117"><ele>237.0</ele><time>2026-04-11T13:12:48.282Z</time></trkpt><trkpt lat="44.9562367" lon="8.3029133"><ele>237.0</ele><time>2026-04-11T13:12:49.281Z</time></trkpt><trkpt lat="44.956125" lon="8.30282"><ele>237.0</ele><time>2026-04-11T13:12:50.281Z</time></trkpt><trkpt lat="44.9560017" lon="8.3027617"><ele>237.0</ele><time>2026-04-11T13:12:51.281Z</time></trkpt><trkpt lat="44.9558683" lon="8.3027167"><ele>238.0</ele><time>2026-04-11T13:12:52.281Z</time></trkpt><trkpt lat="44.9557317" lon="8.3026817"><ele>239.0</ele><time>2026-04-11T13:12:53.282Z</time></trkpt><trkpt lat="44.955595" lon="8.3026633"><ele>240.0</ele><time>2026-04-11T13:12:54.281Z</time></trkpt><trkpt lat="44.9554683" lon="8.302655"><ele>241.0</ele><time>2026-04-11T13:12:55.281Z</time></trkpt><trkpt lat="44.9553533" lon="8.3026517"><ele>241.0</ele><time>2026-04-11T13:12:56.281Z</time></trkpt><trkpt lat="44.955235" lon="8.3026433"><ele>241.0</ele><time>2026-04-11T13:12:57.281Z</time></trkpt><trkpt lat="44.955115" lon="8.302615"><ele>241.0</ele><time>2026-04-11T13:12:58.282Z</time></trkpt><trkpt lat="44.9549867" lon="8.3025983"><ele>241.0</ele><time>2026-04-11T13:12:59.282Z</time></trkpt><trkpt lat="44.9548733" lon="8.3025867"><ele>240.5</ele><time>2026-04-11T13:13:00.281Z</time></trkpt><trkpt lat="44.9547433" lon="8.30257"><ele>240.0</ele><time>2026-04-11T13:13:01.281Z</time></trkpt><trkpt lat="44.9546167" lon="8.3025467"><ele>239.5</ele><time>2026-04-11T13:13:02.282Z</time></trkpt><trkpt lat="44.9544867" lon="8.3025083"><ele>239.0</ele><time>2026-04-11T13:13:03.281Z</time></trkpt><trkpt lat="44.954365" lon="8.3024733"><ele>239.00000000000003</ele><time>2026-04-11T13:13:04.281Z</time></trkpt><trkpt lat="44.9542517" lon="8.3024367"><ele>239.0</ele><time>2026-04-11T13:13:05.281Z</time></trkpt><trkpt lat="44.9541533" lon="8.30239"><ele>239.0</ele><time>2026-04-11T13:13:06.282Z</time></trkpt><trkpt lat="44.954075" lon="8.3023333"><ele>239.0</ele><time>2026-04-11T13:13:07.281Z</time></trkpt><trkpt lat="44.95401" lon="8.3022883"><ele>239.00000000000003</ele><time>2026-04-11T13:13:08.281Z</time></trkpt><trkpt lat="44.9539483" lon="8.3022483"><ele>239.0</ele><time>2026-04-11T13:13:09.281Z</time></trkpt><trkpt lat="44.9538933" lon="8.3021933"><ele>237.83333333333334</ele><time>2026-04-11T13:13:10.281Z</time></trkpt><trkpt lat="44.9537767" lon="8.302135"><ele>236.66666666666669</ele><time>2026-04-11T13:13:12.281Z</time></trkpt><trkpt lat="44.9536983" lon="8.302125"><ele>235.5</ele><time>2026-04-11T13:13:13.281Z</time></trkpt><trkpt lat="44.95363" lon="8.3021167"><ele>234.33333333333331</ele><time>2026-04-11T13:13:14.281Z</time></trkpt><trkpt lat="44.9535567" lon="8.3021067"><ele>233.16666666666666</ele><time>2026-04-11T13:13:15.281Z</time></trkpt><trkpt lat="44.9534833" lon="8.3021183"><ele>232.0</ele><time>2026-04-11T13:13:16.281Z</time></trkpt><trkpt lat="44.9534167" lon="8.3021583"><ele>232.2</ele><time>2026-04-11T13:13:17.281Z</time></trkpt><trkpt lat="44.9532983" lon="8.3022583"><ele>232.39999999999998</ele><time>2026-04-11T13:13:19.281Z</time></trkpt><trkpt lat="44.9532233" lon="8.30232"><ele>232.60000000000002</ele><time>2026-04-11T13:13:20.282Z</time></trkpt><trkpt lat="44.953145" lon="8.3023883"><ele>232.8</ele><time>2026-04-11T13:13:21.281Z</time></trkpt><trkpt lat="44.9530783" lon="8.3024617"><ele>233.0</ele><time>2026-04-11T13:13:22.281Z</time></trkpt><trkpt lat="44.953005" lon="8.30254"><ele>233.0</ele><time>2026-04-11T13:13:23.281Z</time></trkpt><trkpt lat="44.9528417" lon="8.3026583"><ele>233.0</ele><time>2026-04-11T13:13:25.281Z</time></trkpt><trkpt lat="44.9527767" lon="8.30275"><ele>233.0</ele><time>2026-04-11T13:13:26.281Z</time></trkpt><trkpt lat="44.9527083" lon="8.3028017"><ele>233.0</ele><time>2026-04-11T13:13:27.282Z</time></trkpt><trkpt lat="44.95264" lon="8.302845"><ele>233.0</ele><time>2026-04-11T13:13:28.282Z</time></trkpt><trkpt lat="44.9525683" lon="8.3028733"><ele>232.33333333333334</ele><time>2026-04-11T13:13:29.282Z</time></trkpt><trkpt lat="44.952495" lon="8.3029083"><ele>231.66666666666669</ele><time>2026-04-11T13:13:30.281Z</time></trkpt><trkpt lat="44.952415" lon="8.3029283"><ele>231.0</ele><time>2026-04-11T13:13:31.282Z</time></trkpt><trkpt lat="44.952325" lon="8.3029317"><ele>230.33333333333331</ele><time>2026-04-11T13:13:32.281Z</time></trkpt><trkpt lat="44.95224" lon="8.3029083"><ele>229.66666666666666</ele><time>2026-04-11T13:13:33.281Z</time></trkpt><trkpt lat="44.9521467" lon="8.30287"><ele>229.0</ele><time>2026-04-11T13:13:34.281Z</time></trkpt><trkpt lat="44.9520517" lon="8.3028083"><ele>228.99999999999997</ele><time>2026-04-11T13:13:35.281Z</time></trkpt><trkpt lat="44.9519717" lon="8.3027367"><ele>229.0</ele><time>2026-04-11T13:13:36.281Z</time></trkpt><trkpt lat="44.9519117" lon="8.30266"><ele>229.0</ele><time>2026-04-11T13:13:37.281Z</time></trkpt><trkpt lat="44.951865" lon="8.3025833"><ele>229.0</ele><time>2026-04-11T13:13:38.281Z</time></trkpt><trkpt lat="44.9518233" lon="8.3025"><ele>228.99999999999997</ele><time>2026-04-11T13:13:39.281Z</time></trkpt><trkpt lat="44.9517817" lon="8.3024067"><ele>229.0</ele><time>2026-04-11T13:13:40.28Z</time></trkpt><trkpt lat="44.9517383" lon="8.3022967"><ele>227.39999999999998</ele><time>2026-04-11T13:13:41.28Z</time></trkpt><trkpt lat="44.9516883" lon="8.302175"><ele>225.79999999999998</ele><time>2026-04-11T13:13:42.28Z</time></trkpt><trkpt lat="44.9516333" lon="8.3020583"><ele>224.20000000000002</ele><time>2026-04-11T13:13:43.281Z</time></trkpt><trkpt lat="44.951575" lon="8.30194"><ele>222.60000000000002</ele><time>2026-04-11T13:13:44.281Z</time></trkpt><trkpt lat="44.9515" lon="8.30183"><ele>221.0</ele><time>2026-04-11T13:13:45.28Z</time></trkpt><trkpt lat="44.9514067" lon="8.3017283"><ele>221.0</ele><time>2026-04-11T13:13:46.28Z</time></trkpt><trkpt lat="44.9513017" lon="8.3016467"><ele>221.0</ele><time>2026-04-11T13:13:47.281Z</time></trkpt><trkpt lat="44.95119" lon="8.30156"><ele>221.0</ele><time>2026-04-11T13:13:48.28Z</time></trkpt><trkpt lat="44.9510667" lon="8.3014767"><ele>221.0</ele><time>2026-04-11T13:13:49.28Z</time></trkpt><trkpt lat="44.9509433" lon="8.3013883"><ele>220.25</ele><time>2026-04-11T13:13:50.281Z</time></trkpt><trkpt lat="44.9508183" lon="8.3013033"><ele>219.5</ele><time>2026-04-11T13:13:51.28Z</time></trkpt><trkpt lat="44.9507" lon="8.3012117"><ele>218.75</ele><time>2026-04-11T13:13:52.28Z</time></trkpt><trkpt lat="44.95059" lon="8.301115"><ele>218.0</ele><time>2026-04-11T13:13:53.28Z</time></trkpt><trkpt lat="44.9504817" lon="8.3010133"><ele>218.0</ele><time>2026-04-11T13:13:54.28Z</time></trkpt><trkpt lat="44.950385" lon="8.3008933"><ele>218.0</ele><time>2026-04-11T13:13:55.28Z</time></trkpt><trkpt lat="44.9503" lon="8.3007517"><ele>218.0</ele><time>2026-04-11T13:13:56.281Z</time></trkpt><trkpt lat="44.95023" lon="8.300615"><ele>218.0</ele><time>2026-04-11T13:13:57.281Z</time></trkpt><trkpt lat="44.950135" lon="8.3005017"><ele>219.8</ele><time>2026-04-11T13:13:58.28Z</time></trkpt><trkpt lat="44.950035" lon="8.3004067"><ele>221.60000000000002</ele><time>2026-04-11T13:13:59.281Z</time></trkpt><trkpt lat="44.9499333" lon="8.30034"><ele>223.39999999999998</ele><time>2026-04-11T13:14:00.281Z</time></trkpt><trkpt lat="44.9498333" lon="8.300305"><ele>225.2</ele><time>2026-04-11T13:14:01.28Z</time></trkpt><trkpt lat="44.9497267" lon="8.30028"><ele>227.0</ele><time>2026-04-11T13:14:02.28Z</time></trkpt><trkpt lat="44.9496217" lon="8.3002667"><ele>227.0</ele><time>2026-04-11T13:14:03.28Z</time></trkpt><trkpt lat="44.949515" lon="8.3002383"><ele>227.0</ele><time>2026-04-11T13:14:04.281Z</time></trkpt><trkpt lat="44.9494" lon="8.30022"><ele>227.0</ele><time>2026-04-11T13:14:05.28Z</time></trkpt><trkpt lat="44.949285" lon="8.3001933"><ele>227.0</ele><time>2026-04-11T13:14:06.28Z</time></trkpt><trkpt lat="44.949165" lon="8.3001667"><ele>227.25</ele><time>2026-04-11T13:14:07.281Z</time></trkpt><trkpt lat="44.9490483" lon="8.3001117"><ele>227.5</ele><time>2026-04-11T13:14:08.281Z</time></trkpt><trkpt lat="44.9489333" lon="8.3000617"><ele>227.75</ele><time>2026-04-11T13:14:09.28Z</time></trkpt><trkpt lat="44.948825" lon="8.2999917"><ele>228.0</ele><time>2026-04-11T13:14:10.28Z</time></trkpt><trkpt lat="44.9487233" lon="8.2999233"><ele>228.0</ele><time>2026-04-11T13:14:11.281Z</time></trkpt><trkpt lat="44.9486183" lon="8.2998583"><ele>228.0</ele><time>2026-04-11T13:14:12.281Z</time></trkpt><trkpt lat="44.94852" lon="8.2998033"><ele>228.0</ele><time>2026-04-11T13:14:13.28Z</time></trkpt><trkpt lat="44.948415" lon="8.299755"><ele>228.0</ele><time>2026-04-11T13:14:14.28Z</time></trkpt><trkpt lat="44.9483133" lon="8.2997217"><ele>228.0</ele><time>2026-04-11T13:14:15.28Z</time></trkpt><trkpt lat="44.94821" lon="8.299715"><ele>227.25</ele><time>2026-04-11T13:14:16.28Z</time></trkpt><trkpt lat="44.9480983" lon="8.299735"><ele>226.5</ele><time>2026-04-11T13:14:17.281Z</time></trkpt><trkpt lat="44.9479783" lon="8.29978"><ele>225.75</ele><time>2026-04-11T13:14:18.281Z</time></trkpt><trkpt lat="44.9478567" lon="8.2998467"><ele>225.0</ele><time>2026-04-11T13:14:19.281Z</time></trkpt><trkpt lat="44.9476083" lon="8.3000117"><ele>223.25</ele><time>2026-04-11T13:14:21.28Z</time></trkpt><trkpt lat="44.9474867" lon="8.300085"><ele>221.5</ele><time>2026-04-11T13:14:22.28Z</time></trkpt><trkpt lat="44.9473733" lon="8.30016"><ele>219.75</ele><time>2026-04-11T13:14:23.281Z</time></trkpt><trkpt lat="44.94726" lon="8.3002117"><ele>218.0</ele><time>2026-04-11T13:14:24.28Z</time></trkpt><trkpt lat="44.94715" lon="8.3002533"><ele>218.0</ele><time>2026-04-11T13:14:25.28Z</time></trkpt><trkpt lat="44.94703" lon="8.3002933"><ele>218.0</ele><time>2026-04-11T13:14:26.28Z</time></trkpt><trkpt lat="44.9469117" lon="8.3003133"><ele>218.0</ele><time>2026-04-11T13:14:27.281Z</time></trkpt><trkpt lat="44.9468033" lon="8.300335"><ele>218.0</ele><time>2026-04-11T13:14:28.28Z</time></trkpt><trkpt lat="44.9467" lon="8.3003467"><ele>216.60000000000002</ele><time>2026-04-11T13:14:29.281Z</time></trkpt><trkpt lat="44.9465917" lon="8.3003733"><ele>215.20000000000002</ele><time>2026-04-11T13:14:30.28Z</time></trkpt><trkpt lat="44.946485" lon="8.3003883"><ele>213.8</ele><time>2026-04-11T13:14:31.28Z</time></trkpt><trkpt lat="44.9463783" lon="8.3003967"><ele>212.4</ele><time>2026-04-11T13:14:32.281Z</time></trkpt><trkpt lat="44.9462833" lon="8.3004067"><ele>211.0</ele><time>2026-04-11T13:14:33.28Z</time></trkpt><trkpt lat="44.9461833" lon="8.3004133"><ele>211.0</ele><time>2026-04-11T13:14:34.28Z</time></trkpt><trkpt lat="44.94609" lon="8.3004017"><ele>211.0</ele><time>2026-04-11T13:14:35.281Z</time></trkpt><trkpt lat="44.946" lon="8.3003883"><ele>211.0</ele><time>2026-04-11T13:14:36.28Z</time></trkpt><trkpt lat="44.9458983" lon="8.3003767"><ele>211.0</ele><time>2026-04-11T13:14:37.28Z</time></trkpt><trkpt lat="44.9458017" lon="8.3003767"><ele>211.0</ele><time>2026-04-11T13:14:38.28Z</time></trkpt><trkpt lat="44.94571" lon="8.3003733"><ele>213.0</ele><time>2026-04-11T13:14:39.28Z</time></trkpt><trkpt lat="44.9456217" lon="8.3003767"><ele>215.0</ele><time>2026-04-11T13:14:40.28Z</time></trkpt><trkpt lat="44.9455517" lon="8.3003767"><ele>217.00000000000003</ele><time>2026-04-11T13:14:41.28Z</time></trkpt><trkpt lat="44.9454233" lon="8.300405"><ele>219.0</ele><time>2026-04-11T13:14:43.28Z</time></trkpt><trkpt lat="44.9453583" lon="8.3004233"><ele>221.0</ele><time>2026-04-11T13:14:44.281Z</time></trkpt><trkpt lat="44.9452533" lon="8.3004833"><ele>221.0</ele><time>2026-04-11T13:14:46.281Z</time></trkpt><trkpt lat="44.94515" lon="8.30057"><ele>221.00000000000003</ele><time>2026-04-11T13:14:48.28Z</time></trkpt><trkpt lat="44.9450467" lon="8.3006833"><ele>221.00000000000003</ele><time>2026-04-11T13:14:50.28Z</time></trkpt><trkpt lat="44.9449767" lon="8.30076"><ele>221.0</ele><time>2026-04-11T13:14:51.28Z</time></trkpt><trkpt lat="44.9449" lon="8.3008367"><ele>221.0</ele><time>2026-04-11T13:14:52.28Z</time></trkpt><trkpt lat="44.9448283" lon="8.3009133"><ele>221.33333333333334</ele><time>2026-04-11T13:14:53.28Z</time></trkpt><trkpt lat="44.944765" lon="8.3009967"><ele>221.66666666666669</ele><time>2026-04-11T13:14:54.28Z</time></trkpt><trkpt lat="44.944705" lon="8.3010733"><ele>222.0</ele><time>2026-04-11T13:14:55.281Z</time></trkpt><trkpt lat="44.9446533" lon="8.30115"><ele>222.33333333333331</ele><time>2026-04-11T13:14:56.28Z</time></trkpt><trkpt lat="44.94461" lon="8.3012283"><ele>222.66666666666666</ele><time>2026-04-11T13:14:57.281Z</time></trkpt><trkpt lat="44.944565" lon="8.3013183"><ele>223.0</ele><time>2026-04-11T13:14:58.28Z</time></trkpt><trkpt lat="44.944525" lon="8.30141"><ele>221.33333333333331</ele><time>2026-04-11T13:14:59.28Z</time></trkpt><trkpt lat="44.9444917" lon="8.3015033"><ele>219.66666666666666</ele><time>2026-04-11T13:15:00.28Z</time></trkpt><trkpt lat="44.9444667" lon="8.3016"><ele>218.0</ele><time>2026-04-11T13:15:01.28Z</time></trkpt><trkpt lat="44.9444517" lon="8.3016983"><ele>216.33333333333331</ele><time>2026-04-11T13:15:02.281Z</time></trkpt><trkpt lat="44.944435" lon="8.301795"><ele>214.66666666666666</ele><time>2026-04-11T13:15:03.28Z</time></trkpt><trkpt lat="44.944405" lon="8.301915"><ele>213.0</ele><time>2026-04-11T13:15:04.28Z</time></trkpt><trkpt lat="44.944375" lon="8.3020167"><ele>213.0</ele><time>2026-04-11T13:15:05.28Z</time></trkpt><trkpt lat="44.944335" lon="8.3021317"><ele>213.0</ele><time>2026-04-11T13:15:06.281Z</time></trkpt><trkpt lat="44.9442967" lon="8.3022417"><ele>213.0</ele><time>2026-04-11T13:15:07.28Z</time></trkpt><trkpt lat="44.9442517" lon="8.3023483"><ele>213.0</ele><time>2026-04-11T13:15:08.28Z</time></trkpt><trkpt lat="44.9442067" lon="8.3024517"><ele>213.0</ele><time>2026-04-11T13:15:09.28Z</time></trkpt><trkpt lat="44.94415" lon="8.30255"><ele>213.0</ele><time>2026-04-11T13:15:10.28Z</time></trkpt><trkpt lat="44.9440833" lon="8.30265"><ele>214.83333333333334</ele><time>2026-04-11T13:15:11.28Z</time></trkpt><trkpt lat="44.944015" lon="8.3027333"><ele>216.66666666666669</ele><time>2026-04-11T13:15:12.28Z</time></trkpt><trkpt lat="44.9439583" lon="8.30281"><ele>218.5</ele><time>2026-04-11T13:15:13.28Z</time></trkpt><trkpt lat="44.9438883" lon="8.302875"><ele>220.33333333333334</ele><time>2026-04-11T13:15:14.28Z</time></trkpt><trkpt lat="44.943815" lon="8.3029383"><ele>222.16666666666669</ele><time>2026-04-11T13:15:15.281Z</time></trkpt><trkpt lat="44.9437383" lon="8.3029917"><ele>224.0</ele><time>2026-04-11T13:15:16.28Z</time></trkpt><trkpt lat="44.9436583" lon="8.303055"><ele>223.50000000000003</ele><time>2026-04-11T13:15:17.28Z</time></trkpt><trkpt lat="44.94357" lon="8.3031133"><ele>223.0</ele><time>2026-04-11T13:15:18.281Z</time></trkpt><trkpt lat="44.9434883" lon="8.3031433"><ele>222.5</ele><time>2026-04-11T13:15:19.28Z</time></trkpt><trkpt lat="44.943405" lon="8.3031583"><ele>222.0</ele><time>2026-04-11T13:15:20.28Z</time></trkpt><trkpt lat="44.9433333" lon="8.303175"><ele>221.50000000000003</ele><time>2026-04-11T13:15:21.28Z</time></trkpt><trkpt lat="44.9432583" lon="8.3032"><ele>221.0</ele><time>2026-04-11T13:15:22.28Z</time></trkpt><trkpt lat="44.943195" lon="8.3032333"><ele>221.00000000000003</ele><time>2026-04-11T13:15:23.281Z</time></trkpt><trkpt lat="44.9431283" lon="8.303275"><ele>221.0</ele><time>2026-04-11T13:15:24.28Z</time></trkpt><trkpt lat="44.9430583" lon="8.3033217"><ele>221.0</ele><time>2026-04-11T13:15:25.281Z</time></trkpt><trkpt lat="44.942995" lon="8.3033917"><ele>221.0</ele><time>2026-04-11T13:15:26.281Z</time></trkpt><trkpt lat="44.9429317" lon="8.3034667"><ele>221.00000000000003</ele><time>2026-04-11T13:15:27.281Z</time></trkpt><trkpt lat="44.9428533" lon="8.3035483"><ele>221.0</ele><time>2026-04-11T13:15:28.281Z</time></trkpt><trkpt lat="44.9427767" lon="8.3036117"><ele>221.0</ele><time>2026-04-11T13:15:29.28Z</time></trkpt><trkpt lat="44.9426933" lon="8.3036633"><ele>221.00000000000003</ele><time>2026-04-11T13:15:30.281Z</time></trkpt><trkpt lat="44.94262" lon="8.3037017"><ele>221.00000000000003</ele><time>2026-04-11T13:15:31.28Z</time></trkpt><trkpt lat="44.9424983" lon="8.3037333"><ele>221.0</ele><time>2026-04-11T13:15:33.28Z</time></trkpt><trkpt lat="44.942415" lon="8.3037533"><ele>221.0</ele><time>2026-04-11T13:15:35.28Z</time></trkpt><trkpt lat="44.942325" lon="8.3038017"><ele>220.60000000000002</ele><time>2026-04-11T13:15:41.28Z</time></trkpt><trkpt lat="44.9422583" lon="8.3038667"><ele>220.20000000000002</ele><time>2026-04-11T13:15:43.28Z</time></trkpt><trkpt lat="44.9421817" lon="8.3039683"><ele>219.79999999999998</ele><time>2026-04-11T13:15:45.28Z</time></trkpt><trkpt lat="44.9421" lon="8.3040817"><ele>219.39999999999998</ele><time>2026-04-11T13:15:47.281Z</time></trkpt><trkpt lat="44.9420133" lon="8.3041833"><ele>219.0</ele><time>2026-04-11T13:15:49.28Z</time></trkpt><trkpt lat="44.94192" lon="8.3042767"><ele>218.85714285714286</ele><time>2026-04-11T13:15:51.28Z</time></trkpt><trkpt lat="44.94186" lon="8.304325"><ele>218.7142857142857</ele><time>2026-04-11T13:15:52.281Z</time></trkpt><trkpt lat="44.9418067" lon="8.304375"><ele>218.57142857142856</ele><time>2026-04-11T13:15:53.28Z</time></trkpt><trkpt lat="44.941755" lon="8.30443"><ele>218.42857142857144</ele><time>2026-04-11T13:15:54.28Z</time></trkpt><trkpt lat="44.9416983" lon="8.3044867"><ele>218.28571428571428</ele><time>2026-04-11T13:15:55.281Z</time></trkpt><trkpt lat="44.9416417" lon="8.304545"><ele>218.14285714285714</ele><time>2026-04-11T13:15:56.28Z</time></trkpt><trkpt lat="44.9415783" lon="8.3046"><ele>218.0</ele><time>2026-04-11T13:15:57.281Z</time></trkpt><trkpt lat="44.9415317" lon="8.3046633"><ele>218.8</ele><time>2026-04-11T13:15:58.281Z</time></trkpt><trkpt lat="44.9414483" lon="8.3048183"><ele>219.60000000000002</ele><time>2026-04-11T13:16:00.28Z</time></trkpt><trkpt lat="44.9414083" lon="8.3048933"><ele>220.39999999999998</ele><time>2026-04-11T13:16:01.28Z</time></trkpt><trkpt lat="44.9413783" lon="8.304975"><ele>221.2</ele><time>2026-04-11T13:16:02.28Z</time></trkpt><trkpt lat="44.9413183" lon="8.3051117"><ele>222.0</ele><time>2026-04-11T13:16:04.28Z</time></trkpt><trkpt lat="44.94127" lon="8.30525"><ele>222.0</ele><time>2026-04-11T13:16:06.281Z</time></trkpt><trkpt lat="44.941225" lon="8.3054133"><ele>222.0</ele><time>2026-04-11T13:16:08.28Z</time></trkpt><trkpt lat="44.9411533" lon="8.3055667"><ele>222.0</ele><time>2026-04-11T13:16:10.28Z</time></trkpt><trkpt lat="44.941115" lon="8.3056483"><ele>222.0</ele><time>2026-04-11T13:16:11.28Z</time></trkpt><trkpt lat="44.9410683" lon="8.3057283"><ele>222.0</ele><time>2026-04-11T13:16:12.28Z</time></trkpt><trkpt lat="44.9410167" lon="8.3057983"><ele>222.0</ele><time>2026-04-11T13:16:13.281Z</time></trkpt><trkpt lat="44.9409767" lon="8.3058717"><ele>222.0</ele><time>2026-04-11T13:16:14.281Z</time></trkpt><trkpt lat="44.9409283" lon="8.3059383"><ele>222.0</ele><time>2026-04-11T13:16:15.28Z</time></trkpt><trkpt lat="44.94087" lon="8.3059983"><ele>222.0</ele><time>2026-04-11T13:16:16.28Z</time></trkpt><trkpt lat="44.9408033" lon="8.3060483"><ele>222.0</ele><time>2026-04-11T13:16:17.281Z</time></trkpt><trkpt lat="44.9407283" lon="8.3061083"><ele>222.0</ele><time>2026-04-11T13:16:18.281Z</time></trkpt><trkpt lat="44.940645" lon="8.3061683"><ele>222.0</ele><time>2026-04-11T13:16:19.28Z</time></trkpt><trkpt lat="44.9405717" lon="8.3062167"><ele>222.0</ele><time>2026-04-11T13:16:20.28Z</time></trkpt><trkpt lat="44.9405033" lon="8.3062567"><ele>222.0</ele><time>2026-04-11T13:16:21.28Z</time></trkpt><trkpt lat="44.94043" lon="8.306305"><ele>222.0</ele><time>2026-04-11T13:16:22.28Z</time></trkpt><trkpt lat="44.940355" lon="8.3063467"><ele>222.0</ele><time>2026-04-11T13:16:23.28Z</time></trkpt><trkpt lat="44.940285" lon="8.3063817"><ele>222.0</ele><time>2026-04-11T13:16:24.28Z</time></trkpt><trkpt lat="44.9402017" lon="8.3064183"><ele>221.8</ele><time>2026-04-11T13:16:25.28Z</time></trkpt><trkpt lat="44.940115" lon="8.3064583"><ele>221.6</ele><time>2026-04-11T13:16:26.28Z</time></trkpt><trkpt lat="44.940015" lon="8.30648"><ele>221.40000000000003</ele><time>2026-04-11T13:16:27.28Z</time></trkpt><trkpt lat="44.9399217" lon="8.3064983"><ele>221.20000000000002</ele><time>2026-04-11T13:16:28.28Z</time></trkpt><trkpt lat="44.9398317" lon="8.30652"><ele>221.0</ele><time>2026-04-11T13:16:29.28Z</time></trkpt><trkpt lat="44.9397317" lon="8.3065617"><ele>221.00000000000003</ele><time>2026-04-11T13:16:30.28Z</time></trkpt><trkpt lat="44.939645" lon="8.3066017"><ele>221.0</ele><time>2026-04-11T13:16:31.28Z</time></trkpt><trkpt lat="44.9395517" lon="8.3066283"><ele>221.0</ele><time>2026-04-11T13:16:32.28Z</time></trkpt><trkpt lat="44.9394617" lon="8.3066383"><ele>221.0</ele><time>2026-04-11T13:16:33.28Z</time></trkpt><trkpt lat="44.939375" lon="8.30665"><ele>221.00000000000003</ele><time>2026-04-11T13:16:34.28Z</time></trkpt><trkpt lat="44.9392917" lon="8.3066667"><ele>221.0</ele><time>2026-04-11T13:16:35.28Z</time></trkpt><trkpt lat="44.9392067" lon="8.30668"><ele>220.83333333333334</ele><time>2026-04-11T13:16:36.281Z</time></trkpt><trkpt lat="44.9391367" lon="8.3066817"><ele>220.66666666666669</ele><time>2026-04-11T13:16:37.28Z</time></trkpt><trkpt lat="44.93906" lon="8.30668"><ele>220.5</ele><time>2026-04-11T13:16:38.28Z</time></trkpt><trkpt lat="44.9389833" lon="8.30668"><ele>220.33333333333331</ele><time>2026-04-11T13:16:39.28Z</time></trkpt><trkpt lat="44.93891" lon="8.3066833"><ele>220.16666666666666</ele><time>2026-04-11T13:16:40.28Z</time></trkpt><trkpt lat="44.938835" lon="8.3066917"><ele>220.0</ele><time>2026-04-11T13:16:41.28Z</time></trkpt><trkpt lat="44.938755" lon="8.306705"><ele>219.99999999999997</ele><time>2026-04-11T13:16:42.28Z</time></trkpt><trkpt lat="44.93868" lon="8.3067183"><ele>220.0</ele><time>2026-04-11T13:16:43.28Z</time></trkpt><trkpt lat="44.938605" lon="8.3067267"><ele>220.0</ele><time>2026-04-11T13:16:44.281Z</time></trkpt><trkpt lat="44.9385417" lon="8.3067383"><ele>220.0</ele><time>2026-04-11T13:16:45.281Z</time></trkpt><trkpt lat="44.93848" lon="8.3067617"><ele>219.99999999999997</ele><time>2026-04-11T13:16:46.28Z</time></trkpt><trkpt lat="44.93837" lon="8.3068433"><ele>220.0</ele><time>2026-04-11T13:16:48.28Z</time></trkpt><trkpt lat="44.9383133" lon="8.3068933"><ele>219.99999999999997</ele><time>2026-04-11T13:16:49.28Z</time></trkpt><trkpt lat="44.93826" lon="8.3069467"><ele>220.0</ele><time>2026-04-11T13:16:50.281Z</time></trkpt><trkpt lat="44.9381967" lon="8.307005"><ele>220.0</ele><time>2026-04-11T13:16:51.28Z</time></trkpt><trkpt lat="44.9381333" lon="8.3070767"><ele>220.0</ele><time>2026-04-11T13:16:52.281Z</time></trkpt><trkpt lat="44.9380833" lon="8.3071483"><ele>219.99999999999997</ele><time>2026-04-11T13:16:53.28Z</time></trkpt><trkpt lat="44.938035" lon="8.3072067"><ele>220.0</ele><time>2026-04-11T13:16:54.28Z</time></trkpt><trkpt lat="44.9379383" lon="8.3073017"><ele>219.16666666666666</ele><time>2026-04-11T13:16:56.28Z</time></trkpt><trkpt lat="44.93788" lon="8.30737"><ele>218.33333333333331</ele><time>2026-04-11T13:16:58.28Z</time></trkpt><trkpt lat="44.9378167" lon="8.3074"><ele>217.5</ele><time>2026-04-11T13:17:01.28Z</time></trkpt><trkpt lat="44.937745" lon="8.3075"><ele>216.66666666666669</ele><time>2026-04-11T13:17:03.281Z</time></trkpt><trkpt lat="44.9376967" lon="8.3075733"><ele>215.83333333333334</ele><time>2026-04-11T13:17:04.28Z</time></trkpt><trkpt lat="44.93761" lon="8.30772"><ele>215.0</ele><time>2026-04-11T13:17:06.28Z</time></trkpt><trkpt lat="44.937565" lon="8.3077833"><ele>215.14285714285714</ele><time>2026-04-11T13:17:07.281Z</time></trkpt><trkpt lat="44.937505" lon="8.30782"><ele>215.2857142857143</ele><time>2026-04-11T13:17:08.28Z</time></trkpt><trkpt lat="44.937435" lon="8.3078383"><ele>215.42857142857144</ele><time>2026-04-11T13:17:09.28Z</time></trkpt><trkpt lat="44.93736" lon="8.3078683"><ele>215.57142857142856</ele><time>2026-04-11T13:17:10.28Z</time></trkpt><trkpt lat="44.9372817" lon="8.3079067"><ele>215.71428571428572</ele><time>2026-04-11T13:17:11.28Z</time></trkpt><trkpt lat="44.9372117" lon="8.3079583"><ele>215.85714285714286</ele><time>2026-04-11T13:17:12.28Z</time></trkpt><trkpt lat="44.937145" lon="8.3079967"><ele>216.0</ele><time>2026-04-11T13:17:13.28Z</time></trkpt><trkpt lat="44.93708" lon="8.308"><ele>216.0</ele><time>2026-04-11T13:17:14.28Z</time></trkpt><trkpt lat="44.93701" lon="8.307985"><ele>216.0</ele><time>2026-04-11T13:17:15.28Z</time></trkpt><trkpt lat="44.9369467" lon="8.307955"><ele>216.0</ele><time>2026-04-11T13:17:16.28Z</time></trkpt><trkpt lat="44.9368767" lon="8.3079283"><ele>216.0</ele><time>2026-04-11T13:17:17.281Z</time></trkpt><trkpt lat="44.9368083" lon="8.3079167"><ele>216.0</ele><time>2026-04-11T13:17:18.28Z</time></trkpt><trkpt lat="44.9367383" lon="8.307925"><ele>216.0</ele><time>2026-04-11T13:17:19.28Z</time></trkpt><trkpt lat="44.936665" lon="8.3079367"><ele>216.0</ele><time>2026-04-11T13:17:20.28Z</time></trkpt><trkpt lat="44.9365867" lon="8.3079467"><ele>215.16666666666666</ele><time>2026-04-11T13:17:21.28Z</time></trkpt><trkpt lat="44.9365117" lon="8.30797"><ele>214.33333333333331</ele><time>2026-04-11T13:17:22.28Z</time></trkpt><trkpt lat="44.9364383" lon="8.3080017"><ele>213.5</ele><time>2026-04-11T13:17:23.28Z</time></trkpt><trkpt lat="44.9363633" lon="8.3080217"><ele>212.66666666666666</ele><time>2026-04-11T13:17:24.281Z</time></trkpt><trkpt lat="44.93625" lon="8.3080183"><ele>211.83333333333331</ele><time>2026-04-11T13:17:26.28Z</time></trkpt><trkpt lat="44.93617" lon="8.3080567"><ele>211.0</ele><time>2026-04-11T13:17:28.281Z</time></trkpt><trkpt lat="44.9361017" lon="8.3081517"><ele>211.0</ele><time>2026-04-11T13:17:30.28Z</time></trkpt><trkpt lat="44.9360583" lon="8.30822"><ele>211.0</ele><time>2026-04-11T13:17:31.28Z</time></trkpt><trkpt lat="44.9359783" lon="8.308315"><ele>211.0</ele><time>2026-04-11T13:17:33.279Z</time></trkpt><trkpt lat="44.9358867" lon="8.3083783"><ele>211.0</ele><time>2026-04-11T13:17:35.279Z</time></trkpt><trkpt lat="44.9357933" lon="8.3084233"><ele>211.0</ele><time>2026-04-11T13:17:37.28Z</time></trkpt><trkpt lat="44.9356917" lon="8.3085083"><ele>212.28571428571428</ele><time>2026-04-11T13:17:39.279Z</time></trkpt><trkpt lat="44.935645" lon="8.3085683"><ele>213.57142857142858</ele><time>2026-04-11T13:17:40.279Z</time></trkpt><trkpt lat="44.93558" lon="8.3086617"><ele>214.85714285714283</ele><time>2026-04-11T13:17:41.279Z</time></trkpt><trkpt lat="44.9355383" lon="8.3087533"><ele>216.14285714285714</ele><time>2026-04-11T13:17:42.279Z</time></trkpt><trkpt lat="44.9354983" lon="8.3088333"><ele>217.42857142857142</ele><time>2026-04-11T13:17:43.279Z</time></trkpt><trkpt lat="44.93546" lon="8.3089083"><ele>218.7142857142857</ele><time>2026-04-11T13:17:44.279Z</time></trkpt><trkpt lat="44.9354233" lon="8.3089833"><ele>220.0</ele><time>2026-04-11T13:17:45.279Z</time></trkpt><trkpt lat="44.9353867" lon="8.3090567"><ele>219.99999999999997</ele><time>2026-04-11T13:17:46.279Z</time></trkpt><trkpt lat="44.935315" lon="8.309195"><ele>220.0</ele><time>2026-04-11T13:17:48.279Z</time></trkpt><trkpt lat="44.9352667" lon="8.3092567"><ele>220.0</ele><time>2026-04-11T13:17:49.279Z</time></trkpt><trkpt lat="44.93521" lon="8.3093233"><ele>220.0</ele><time>2026-04-11T13:17:51.279Z</time></trkpt><trkpt lat="44.9351183" lon="8.3093133"><ele>219.99999999999997</ele><time>2026-04-11T13:17:54.28Z</time></trkpt><trkpt lat="44.9350367" lon="8.3092817"><ele>220.0</ele><time>2026-04-11T13:17:56.279Z</time></trkpt><trkpt lat="44.93493" lon="8.3092417"><ele>219.49999999999997</ele><time>2026-04-11T13:17:58.279Z</time></trkpt><trkpt lat="44.9348533" lon="8.3091983"><ele>219.0</ele><time>2026-04-11T13:18:00.28Z</time></trkpt><trkpt lat="44.93491" lon="8.3092717"><ele>218.5</ele><time>2026-04-11T13:18:34.279Z</time></trkpt><trkpt lat="44.9349633" lon="8.3093267"><ele>218.0</ele><time>2026-04-11T13:18:44.279Z</time></trkpt><trkpt lat="44.9349017" lon="8.3093"><ele>217.49999999999997</ele><time>2026-04-11T13:19:26.279Z</time></trkpt><trkpt lat="44.93482" lon="8.3092833"><ele>217.0</ele><time>2026-04-11T13:19:29.279Z</time></trkpt><trkpt lat="44.93473" lon="8.3093267"><ele>217.0</ele><time>2026-04-11T13:19:46.279Z</time></trkpt><trkpt lat="44.9346567" lon="8.3093267"><ele>217.0</ele><time>2026-04-11T13:19:47.279Z</time></trkpt><trkpt lat="44.9345567" lon="8.3092917"><ele>217.0</ele><time>2026-04-11T13:19:49.279Z</time></trkpt><trkpt lat="44.93448" lon="8.309245"><ele>217.0</ele><time>2026-04-11T13:19:51.28Z</time></trkpt><trkpt lat="44.9344183" lon="8.3091667"><ele>217.0</ele><time>2026-04-11T13:19:54.279Z</time></trkpt><trkpt lat="44.93436" lon="8.30904"><ele>217.0</ele><time>2026-04-11T13:21:29.279Z</time></trkpt><trkpt lat="44.9342867" lon="8.309015"><ele>217.0</ele><time>2026-04-11T13:21:31.278Z</time></trkpt><trkpt lat="44.9342067" lon="8.308995"><ele>217.0</ele><time>2026-04-11T13:21:33.278Z</time></trkpt><trkpt lat="44.934105" lon="8.3090083"><ele>217.0</ele><time>2026-04-11T13:21:35.278Z</time></trkpt><trkpt lat="44.9339383" lon="8.30903"><ele>217.0</ele><time>2026-04-11T13:21:38.278Z</time></trkpt><trkpt lat="44.933815" lon="8.3090567"><ele>215.99999999999997</ele><time>2026-04-11T13:21:40.278Z</time></trkpt><trkpt lat="44.9337" lon="8.309105"><ele>215.0</ele><time>2026-04-11T13:21:42.279Z</time></trkpt><trkpt lat="44.93363" lon="8.3091333"><ele>214.0</ele><time>2026-04-11T13:21:43.278Z</time></trkpt><trkpt lat="44.9335617" lon="8.3091533"><ele>213.0</ele><time>2026-04-11T13:21:44.278Z</time></trkpt><trkpt lat="44.93349" lon="8.3091717"><ele>211.99999999999997</ele><time>2026-04-11T13:21:45.279Z</time></trkpt><trkpt lat="44.9334117" lon="8.309185"><ele>211.0</ele><time>2026-04-11T13:21:46.279Z</time></trkpt><trkpt lat="44.9333217" lon="8.3092117"><ele>209.83333333333331</ele><time>2026-04-11T13:21:47.278Z</time></trkpt><trkpt lat="44.9332383" lon="8.3092483"><ele>208.66666666666666</ele><time>2026-04-11T13:21:48.279Z</time></trkpt><trkpt lat="44.9331583" lon="8.309285"><ele>207.5</ele><time>2026-04-11T13:21:49.278Z</time></trkpt><trkpt lat="44.9330817" lon="8.309315"><ele>206.33333333333331</ele><time>2026-04-11T13:21:50.278Z</time></trkpt><trkpt lat="44.933" lon="8.3093433"><ele>205.16666666666666</ele><time>2026-04-11T13:21:51.279Z</time></trkpt><trkpt lat="44.9329333" lon="8.3093717"><ele>204.0</ele><time>2026-04-11T13:21:52.278Z</time></trkpt><trkpt lat="44.9328567" lon="8.309405"><ele>204.0</ele><time>2026-04-11T13:21:53.279Z</time></trkpt><trkpt lat="44.9327833" lon="8.3094383"><ele>204.0</ele><time>2026-04-11T13:21:54.279Z</time></trkpt><trkpt lat="44.93271" lon="8.3094733"><ele>204.0</ele><time>2026-04-11T13:21:55.279Z</time></trkpt><trkpt lat="44.9326417" lon="8.309495"><ele>204.0</ele><time>2026-04-11T13:21:56.278Z</time></trkpt><trkpt lat="44.9325783" lon="8.3095417"><ele>204.0</ele><time>2026-04-11T13:21:57.278Z</time></trkpt><trkpt lat="44.9325217" lon="8.3095967"><ele>204.0</ele><time>2026-04-11T13:21:58.278Z</time></trkpt><trkpt lat="44.93247" lon="8.3096633"><ele>204.0</ele><time>2026-04-11T13:21:59.279Z</time></trkpt><trkpt lat="44.932425" lon="8.3097267"><ele>202.85714285714286</ele><time>2026-04-11T13:22:00.278Z</time></trkpt><trkpt lat="44.9323767" lon="8.309795"><ele>201.71428571428572</ele><time>2026-04-11T13:22:01.278Z</time></trkpt><trkpt lat="44.93233" lon="8.3098717"><ele>200.57142857142856</ele><time>2026-04-11T13:22:02.278Z</time></trkpt><trkpt lat="44.9322817" lon="8.309965"><ele>199.42857142857144</ele><time>2026-04-11T13:22:03.278Z</time></trkpt><trkpt lat="44.9322417" lon="8.3100567"><ele>198.28571428571428</ele><time>2026-04-11T13:22:04.279Z</time></trkpt><trkpt lat="44.93221" lon="8.3101517"><ele>197.14285714285714</ele><time>2026-04-11T13:22:05.279Z</time></trkpt><trkpt lat="44.9321783" lon="8.3102467"><ele>196.0</ele><time>2026-04-11T13:22:06.279Z</time></trkpt><trkpt lat="44.9321633" lon="8.3103433"><ele>195.99999999999997</ele><time>2026-04-11T13:22:07.278Z</time></trkpt><trkpt lat="44.932145" lon="8.310435"><ele>196.0</ele><time>2026-04-11T13:22:08.278Z</time></trkpt><trkpt lat="44.9321417" lon="8.3105467"><ele>196.0</ele><time>2026-04-11T13:22:09.279Z</time></trkpt><trkpt lat="44.93215" lon="8.3106567"><ele>196.0</ele><time>2026-04-11T13:22:10.279Z</time></trkpt><trkpt lat="44.9321617" lon="8.3107617"><ele>195.99999999999997</ele><time>2026-04-11T13:22:11.278Z</time></trkpt><trkpt lat="44.9321817" lon="8.3108667"><ele>196.0</ele><time>2026-04-11T13:22:12.279Z</time></trkpt><trkpt lat="44.9322233" lon="8.3110717"><ele>195.0</ele><time>2026-04-11T13:22:14.278Z</time></trkpt><trkpt lat="44.9322517" lon="8.3111767"><ele>194.0</ele><time>2026-04-11T13:22:15.278Z</time></trkpt><trkpt lat="44.9322767" lon="8.3113917"><ele>193.0</ele><time>2026-04-11T13:22:17.278Z</time></trkpt><trkpt lat="44.9322783" lon="8.31157"><ele>192.0</ele><time>2026-04-11T13:22:19.278Z</time></trkpt><trkpt lat="44.9322633" lon="8.31171"><ele>191.66666666666666</ele><time>2026-04-11T13:22:20.278Z</time></trkpt><trkpt lat="44.93224" lon="8.3118117"><ele>191.33333333333334</ele><time>2026-04-11T13:22:21.279Z</time></trkpt><trkpt lat="44.9322183" lon="8.3119033"><ele>191.0</ele><time>2026-04-11T13:22:22.278Z</time></trkpt><trkpt lat="44.9321717" lon="8.312025"><ele>190.66666666666669</ele><time>2026-04-11T13:22:23.278Z</time></trkpt><trkpt lat="44.9321267" lon="8.3121317"><ele>190.33333333333334</ele><time>2026-04-11T13:22:24.278Z</time></trkpt><trkpt lat="44.93209" lon="8.3122283"><ele>190.0</ele><time>2026-04-11T13:22:25.278Z</time></trkpt><trkpt lat="44.9320583" lon="8.3123217"><ele>190.66666666666669</ele><time>2026-04-11T13:22:26.278Z</time></trkpt><trkpt lat="44.932035" lon="8.3124183"><ele>191.33333333333334</ele><time>2026-04-11T13:22:27.278Z</time></trkpt><trkpt lat="44.93201" lon="8.31252"><ele>192.0</ele><time>2026-04-11T13:22:28.279Z</time></trkpt><trkpt lat="44.9319833" lon="8.3126217"><ele>192.66666666666669</ele><time>2026-04-11T13:22:29.279Z</time></trkpt><trkpt lat="44.93195" lon="8.31272"><ele>193.33333333333334</ele><time>2026-04-11T13:22:30.278Z</time></trkpt><trkpt lat="44.9319183" lon="8.3128133"><ele>194.0</ele><time>2026-04-11T13:22:31.278Z</time></trkpt><trkpt lat="44.9319017" lon="8.3129183"><ele>194.00000000000003</ele><time>2026-04-11T13:22:32.278Z</time></trkpt><trkpt lat="44.931895" lon="8.313045"><ele>194.0</ele><time>2026-04-11T13:22:33.278Z</time></trkpt><trkpt lat="44.9318833" lon="8.3131783"><ele>194.0</ele><time>2026-04-11T13:22:34.278Z</time></trkpt><trkpt lat="44.93188" lon="8.3133067"><ele>194.0</ele><time>2026-04-11T13:22:35.278Z</time></trkpt><trkpt lat="44.9318667" lon="8.3134217"><ele>194.00000000000003</ele><time>2026-04-11T13:22:36.278Z</time></trkpt><trkpt lat="44.9318467" lon="8.3135467"><ele>194.0</ele><time>2026-04-11T13:22:37.278Z</time></trkpt><trkpt lat="44.9318283" lon="8.3136633"><ele>194.33333333333334</ele><time>2026-04-11T13:22:38.279Z</time></trkpt><trkpt lat="44.9318183" lon="8.3137867"><ele>194.66666666666669</ele><time>2026-04-11T13:22:39.278Z</time></trkpt><trkpt lat="44.9318067" lon="8.313905"><ele>195.0</ele><time>2026-04-11T13:22:40.278Z</time></trkpt><trkpt lat="44.9317983" lon="8.3139983"><ele>195.33333333333331</ele><time>2026-04-11T13:22:41.278Z</time></trkpt><trkpt lat="44.9317817" lon="8.314095"><ele>195.66666666666666</ele><time>2026-04-11T13:22:42.278Z</time></trkpt><trkpt lat="44.9317233" lon="8.3142283"><ele>196.0</ele><time>2026-04-11T13:22:44.278Z</time></trkpt><trkpt lat="44.9316583" lon="8.31437"><ele>194.49999999999997</ele><time>2026-04-11T13:22:46.279Z</time></trkpt><trkpt lat="44.931645" lon="8.3145017"><ele>193.0</ele><time>2026-04-11T13:22:48.278Z</time></trkpt><trkpt lat="44.9316617" lon="8.31461"><ele>191.5</ele><time>2026-04-11T13:22:50.278Z</time></trkpt><trkpt lat="44.93171" lon="8.3146817"><ele>190.0</ele><time>2026-04-11T13:22:52.278Z</time></trkpt><trkpt lat="44.93176" lon="8.3147783"><ele>188.5</ele><time>2026-04-11T13:22:55.278Z</time></trkpt><trkpt lat="44.9317483" lon="8.31488"><ele>187.0</ele><time>2026-04-11T13:23:20.279Z</time></trkpt><trkpt lat="44.931765" lon="8.3149683"><ele>187.0</ele><time>2026-04-11T13:23:22.278Z</time></trkpt><trkpt lat="44.9317917" lon="8.3151483"><ele>187.0</ele><time>2026-04-11T13:23:24.278Z</time></trkpt><trkpt lat="44.9318017" lon="8.3152583"><ele>187.0</ele><time>2026-04-11T13:23:25.279Z</time></trkpt><trkpt lat="44.9318233" lon="8.3153633"><ele>187.0</ele><time>2026-04-11T13:23:26.278Z</time></trkpt><trkpt lat="44.9318383" lon="8.3154667"><ele>187.0</ele><time>2026-04-11T13:23:27.279Z</time></trkpt><trkpt lat="44.93186" lon="8.3155717"><ele>187.0</ele><time>2026-04-11T13:23:28.278Z</time></trkpt><trkpt lat="44.931875" lon="8.3156933"><ele>186.0</ele><time>2026-04-11T13:23:29.279Z</time></trkpt><trkpt lat="44.93189" lon="8.3158117"><ele>185.0</ele><time>2026-04-11T13:23:30.279Z</time></trkpt><trkpt lat="44.93191" lon="8.3159317"><ele>184.0</ele><time>2026-04-11T13:23:31.278Z</time></trkpt><trkpt lat="44.9319383" lon="8.3160383"><ele>183.0</ele><time>2026-04-11T13:23:32.278Z</time></trkpt><trkpt lat="44.9319683" lon="8.3161483"><ele>182.0</ele><time>2026-04-11T13:23:33.278Z</time></trkpt><trkpt lat="44.932" lon="8.31626"><ele>181.0</ele><time>2026-04-11T13:23:34.279Z</time></trkpt><trkpt lat="44.9320367" lon="8.3163683"><ele>180.33333333333334</ele><time>2026-04-11T13:23:35.279Z</time></trkpt><trkpt lat="44.93207" lon="8.316485"><ele>179.66666666666669</ele><time>2026-04-11T13:23:36.279Z</time></trkpt><trkpt lat="44.9321" lon="8.3166067"><ele>179.0</ele><time>2026-04-11T13:23:37.278Z</time></trkpt><trkpt lat="44.932125" lon="8.3167317"><ele>178.33333333333334</ele><time>2026-04-11T13:23:38.278Z</time></trkpt><trkpt lat="44.9321517" lon="8.3168483"><ele>177.66666666666666</ele><time>2026-04-11T13:23:39.278Z</time></trkpt><trkpt lat="44.9321817" lon="8.316965"><ele>177.0</ele><time>2026-04-11T13:23:40.278Z</time></trkpt><trkpt lat="44.9322117" lon="8.31708"><ele>177.0</ele><time>2026-04-11T13:23:41.278Z</time></trkpt><trkpt lat="44.9322467" lon="8.3171933"><ele>177.0</ele><time>2026-04-11T13:23:42.279Z</time></trkpt><trkpt lat="44.9322717" lon="8.317315"><ele>177.0</ele><time>2026-04-11T13:23:43.278Z</time></trkpt><trkpt lat="44.9322983" lon="8.317435"><ele>177.0</ele><time>2026-04-11T13:23:44.279Z</time></trkpt><trkpt lat="44.9323133" lon="8.3175583"><ele>177.0</ele><time>2026-04-11T13:23:45.278Z</time></trkpt><trkpt lat="44.9323317" lon="8.3176667"><ele>177.0</ele><time>2026-04-11T13:23:46.278Z</time></trkpt><trkpt lat="44.932355" lon="8.31778"><ele>176.39999999999998</ele><time>2026-04-11T13:23:47.278Z</time></trkpt><trkpt lat="44.93238" lon="8.31791"><ele>175.79999999999998</ele><time>2026-04-11T13:23:48.278Z</time></trkpt><trkpt lat="44.9323983" lon="8.3180417"><ele>175.2</ele><time>2026-04-11T13:23:49.278Z</time></trkpt><trkpt lat="44.93243" lon="8.3181883"><ele>174.6</ele><time>2026-04-11T13:23:50.279Z</time></trkpt><trkpt lat="44.9324567" lon="8.3183383"><ele>174.0</ele><time>2026-04-11T13:23:51.278Z</time></trkpt><trkpt lat="44.932485" lon="8.31848"><ele>173.6</ele><time>2026-04-11T13:23:52.278Z</time></trkpt><trkpt lat="44.9325183" lon="8.318615"><ele>173.2</ele><time>2026-04-11T13:23:53.278Z</time></trkpt><trkpt lat="44.9325567" lon="8.3187533"><ele>172.79999999999998</ele><time>2026-04-11T13:23:54.278Z</time></trkpt><trkpt lat="44.9325933" lon="8.3189017"><ele>172.39999999999998</ele><time>2026-04-11T13:23:55.278Z</time></trkpt><trkpt lat="44.93263" lon="8.3190467"><ele>172.0</ele><time>2026-04-11T13:23:56.278Z</time></trkpt><trkpt lat="44.9326617" lon="8.31919"><ele>171.6</ele><time>2026-04-11T13:23:57.279Z</time></trkpt><trkpt lat="44.9326683" lon="8.31933"><ele>171.2</ele><time>2026-04-11T13:23:58.279Z</time></trkpt><trkpt lat="44.9326933" lon="8.3194567"><ele>170.8</ele><time>2026-04-11T13:23:59.278Z</time></trkpt><trkpt lat="44.9327133" lon="8.3196133"><ele>170.4</ele><time>2026-04-11T13:24:00.278Z</time></trkpt><trkpt lat="44.9327567" lon="8.3197617"><ele>170.0</ele><time>2026-04-11T13:24:01.278Z</time></trkpt><trkpt lat="44.9327917" lon="8.3199083"><ele>170.0</ele><time>2026-04-11T13:24:02.278Z</time></trkpt><trkpt lat="44.93285" lon="8.3200467"><ele>170.0</ele><time>2026-04-11T13:24:03.278Z</time></trkpt><trkpt lat="44.9329067" lon="8.3201733"><ele>170.0</ele><time>2026-04-11T13:24:04.279Z</time></trkpt><trkpt lat="44.93297" lon="8.3202883"><ele>170.0</ele><time>2026-04-11T13:24:05.278Z</time></trkpt><trkpt lat="44.9330283" lon="8.3204033"><ele>170.0</ele><time>2026-04-11T13:24:06.278Z</time></trkpt><trkpt lat="44.93308" lon="8.3205283"><ele>169.83333333333331</ele><time>2026-04-11T13:24:07.278Z</time></trkpt><trkpt lat="44.9331233" lon="8.3206383"><ele>169.66666666666666</ele><time>2026-04-11T13:24:08.278Z</time></trkpt><trkpt lat="44.9331583" lon="8.32076"><ele>169.5</ele><time>2026-04-11T13:24:09.278Z</time></trkpt><trkpt lat="44.9331867" lon="8.3208583"><ele>169.33333333333334</ele><time>2026-04-11T13:24:10.279Z</time></trkpt><trkpt lat="44.9332083" lon="8.3209833"><ele>169.16666666666669</ele><time>2026-04-11T13:24:11.278Z</time></trkpt><trkpt lat="44.9332233" lon="8.3211167"><ele>169.0</ele><time>2026-04-11T13:24:12.278Z</time></trkpt><trkpt lat="44.9332383" lon="8.3212417"><ele>169.0</ele><time>2026-04-11T13:24:13.278Z</time></trkpt><trkpt lat="44.9332617" lon="8.3213333"><ele>169.0</ele><time>2026-04-11T13:24:14.278Z</time></trkpt><trkpt lat="44.93332" lon="8.3214683"><ele>169.0</ele><time>2026-04-11T13:24:16.278Z</time></trkpt><trkpt lat="44.9333933" lon="8.32157"><ele>169.0</ele><time>2026-04-11T13:24:18.278Z</time></trkpt><trkpt lat="44.9334483" lon="8.3216367"><ele>169.0</ele><time>2026-04-11T13:24:20.278Z</time></trkpt><trkpt lat="44.9334383" lon="8.3217533"><ele>169.0</ele><time>2026-04-11T13:24:23.278Z</time></trkpt><trkpt lat="44.9333733" lon="8.32179"><ele>168.39999999999998</ele><time>2026-04-11T13:24:25.279Z</time></trkpt><trkpt lat="44.93321" lon="8.32188"><ele>167.8</ele><time>2026-04-11T13:24:28.278Z</time></trkpt><trkpt lat="44.933145" lon="8.321915"><ele>167.2</ele><time>2026-04-11T13:24:29.279Z</time></trkpt><trkpt lat="44.9330783" lon="8.3219467"><ele>166.60000000000002</ele><time>2026-04-11T13:24:30.278Z</time></trkpt><trkpt lat="44.93301" lon="8.3219733"><ele>166.0</ele><time>2026-04-11T13:24:31.278Z</time></trkpt><trkpt lat="44.9329483" lon="8.3220017"><ele>166.0</ele><time>2026-04-11T13:24:32.279Z</time></trkpt><trkpt lat="44.9328867" lon="8.32203"><ele>166.0</ele><time>2026-04-11T13:24:33.279Z</time></trkpt><trkpt lat="44.93282" lon="8.3220633"><ele>166.0</ele><time>2026-04-11T13:24:34.278Z</time></trkpt><trkpt lat="44.9327033" lon="8.3221167"><ele>166.0</ele><time>2026-04-11T13:24:36.279Z</time></trkpt><trkpt lat="44.9326383" lon="8.32215"><ele>166.0</ele><time>2026-04-11T13:24:37.278Z</time></trkpt><trkpt lat="44.9325617" lon="8.3221817"><ele>166.0</ele><time>2026-04-11T13:24:38.278Z</time></trkpt><trkpt lat="44.9324833" lon="8.3222067"><ele>168.0</ele><time>2026-04-11T13:24:39.278Z</time></trkpt><trkpt lat="44.9324083" lon="8.3222367"><ele>170.0</ele><time>2026-04-11T13:24:40.278Z</time></trkpt><trkpt lat="44.9323267" lon="8.322265"><ele>172.0</ele><time>2026-04-11T13:24:41.279Z</time></trkpt><trkpt lat="44.9322383" lon="8.32231"><ele>174.0</ele><time>2026-04-11T13:24:42.278Z</time></trkpt><trkpt lat="44.932135" lon="8.3223383"><ele>176.0</ele><time>2026-04-11T13:24:43.278Z</time></trkpt><trkpt lat="44.93204" lon="8.3223483"><ele>176.0</ele><time>2026-04-11T13:24:44.278Z</time></trkpt><trkpt lat="44.9319483" lon="8.3223583"><ele>176.0</ele><time>2026-04-11T13:24:45.278Z</time></trkpt><trkpt lat="44.9318617" lon="8.322405"><ele>176.0</ele><time>2026-04-11T13:24:46.278Z</time></trkpt><trkpt lat="44.9317983" lon="8.3225033"><ele>176.0</ele><time>2026-04-11T13:24:47.278Z</time></trkpt><trkpt lat="44.9317417" lon="8.3226217"><ele>176.0</ele><time>2026-04-11T13:24:48.279Z</time></trkpt><trkpt lat="44.9316817" lon="8.3227017"><ele>177.16666666666666</ele><time>2026-04-11T13:24:49.278Z</time></trkpt><trkpt lat="44.9316167" lon="8.3227467"><ele>178.33333333333331</ele><time>2026-04-11T13:24:50.278Z</time></trkpt><trkpt lat="44.93153" lon="8.322745"><ele>179.5</ele><time>2026-04-11T13:24:51.278Z</time></trkpt><trkpt lat="44.931445" lon="8.3227317"><ele>180.66666666666666</ele><time>2026-04-11T13:24:52.278Z</time></trkpt><trkpt lat="44.93135" lon="8.322685"><ele>181.83333333333334</ele><time>2026-04-11T13:24:53.278Z</time></trkpt><trkpt lat="44.9312567" lon="8.3226317"><ele>183.0</ele><time>2026-04-11T13:24:54.278Z</time></trkpt><trkpt lat="44.9311667" lon="8.3225833"><ele>183.0</ele><time>2026-04-11T13:24:55.279Z</time></trkpt><trkpt lat="44.9310867" lon="8.3225517"><ele>183.0</ele><time>2026-04-11T13:24:56.278Z</time></trkpt><trkpt lat="44.9310233" lon="8.32254"><ele>183.0</ele><time>2026-04-11T13:24:57.278Z</time></trkpt><trkpt lat="44.9309267" lon="8.32254"><ele>183.0</ele><time>2026-04-11T13:24:59.278Z</time></trkpt><trkpt lat="44.9308617" lon="8.3225717"><ele>183.0</ele><time>2026-04-11T13:25:01.279Z</time></trkpt><trkpt lat="44.930775" lon="8.3226333"><ele>183.0</ele><time>2026-04-11T13:25:04.278Z</time></trkpt><trkpt lat="44.9306717" lon="8.322585"><ele>183.42857142857144</ele><time>2026-04-11T13:25:06.278Z</time></trkpt><trkpt lat="44.9306067" lon="8.3225467"><ele>183.85714285714286</ele><time>2026-04-11T13:25:07.278Z</time></trkpt><trkpt lat="44.9305417" lon="8.3224967"><ele>184.28571428571428</ele><time>2026-04-11T13:25:08.278Z</time></trkpt><trkpt lat="44.9304833" lon="8.32246"><ele>184.71428571428572</ele><time>2026-04-11T13:25:09.278Z</time></trkpt><trkpt lat="44.93042" lon="8.322415"><ele>185.14285714285714</ele><time>2026-04-11T13:25:10.279Z</time></trkpt><trkpt lat="44.93036" lon="8.3223617"><ele>185.57142857142858</ele><time>2026-04-11T13:25:11.278Z</time></trkpt><trkpt lat="44.93031" lon="8.3222933"><ele>186.0</ele><time>2026-04-11T13:25:12.279Z</time></trkpt><trkpt lat="44.93027" lon="8.3222233"><ele>186.0</ele><time>2026-04-11T13:25:13.278Z</time></trkpt><trkpt lat="44.9302233" lon="8.3221433"><ele>186.0</ele><time>2026-04-11T13:25:14.279Z</time></trkpt><trkpt lat="44.9301833" lon="8.3220367"><ele>186.0</ele><time>2026-04-11T13:25:15.278Z</time></trkpt><trkpt lat="44.9301433" lon="8.3219217"><ele>186.0</ele><time>2026-04-11T13:25:16.278Z</time></trkpt><trkpt lat="44.9301083" lon="8.3217983"><ele>186.0</ele><time>2026-04-11T13:25:17.277Z</time></trkpt><trkpt lat="44.93007" lon="8.3216867"><ele>186.0</ele><time>2026-04-11T13:25:18.277Z</time></trkpt><trkpt lat="44.930025" lon="8.32158"><ele>187.33333333333334</ele><time>2026-04-11T13:25:19.278Z</time></trkpt><trkpt lat="44.9299917" lon="8.3214633"><ele>188.66666666666669</ele><time>2026-04-11T13:25:20.278Z</time></trkpt><trkpt lat="44.929965" lon="8.32135"><ele>190.0</ele><time>2026-04-11T13:25:21.277Z</time></trkpt><trkpt lat="44.9299317" lon="8.321235"><ele>191.33333333333334</ele><time>2026-04-11T13:25:22.277Z</time></trkpt><trkpt lat="44.9298883" lon="8.32112"><ele>192.66666666666669</ele><time>2026-04-11T13:25:23.277Z</time></trkpt><trkpt lat="44.9298467" lon="8.321005"><ele>194.0</ele><time>2026-04-11T13:25:24.277Z</time></trkpt><trkpt lat="44.92981" lon="8.3208783"><ele>194.0</ele><time>2026-04-11T13:25:25.277Z</time></trkpt><trkpt lat="44.92978" lon="8.3207433"><ele>194.0</ele><time>2026-04-11T13:25:26.277Z</time></trkpt><trkpt lat="44.929745" lon="8.32061"><ele>194.0</ele><time>2026-04-11T13:25:27.277Z</time></trkpt><trkpt lat="44.929705" lon="8.32048"><ele>194.0</ele><time>2026-04-11T13:25:28.278Z</time></trkpt><trkpt lat="44.9296617" lon="8.320355"><ele>194.0</ele><time>2026-04-11T13:25:29.277Z</time></trkpt><trkpt lat="44.9296083" lon="8.3202417"><ele>193.79999999999998</ele><time>2026-04-11T13:25:30.277Z</time></trkpt><trkpt lat="44.9295533" lon="8.32012"><ele>193.6</ele><time>2026-04-11T13:25:31.277Z</time></trkpt><trkpt lat="44.9294867" lon="8.3200217"><ele>193.4</ele><time>2026-04-11T13:25:32.278Z</time></trkpt><trkpt lat="44.9294083" lon="8.319945"><ele>193.2</ele><time>2026-04-11T13:25:33.277Z</time></trkpt><trkpt lat="44.92932" lon="8.319895"><ele>193.0</ele><time>2026-04-11T13:25:34.278Z</time></trkpt><trkpt lat="44.9292283" lon="8.3198567"><ele>195.25</ele><time>2026-04-11T13:25:35.277Z</time></trkpt><trkpt lat="44.92912" lon="8.3198383"><ele>197.5</ele><time>2026-04-11T13:25:36.277Z</time></trkpt><trkpt lat="44.9290067" lon="8.3198133"><ele>199.75</ele><time>2026-04-11T13:25:37.278Z</time></trkpt><trkpt lat="44.9288883" lon="8.3197883"><ele>202.0</ele><time>2026-04-11T13:25:38.278Z</time></trkpt><trkpt lat="44.9287767" lon="8.31975"><ele>200.0</ele><time>2026-04-11T13:25:39.278Z</time></trkpt><trkpt lat="44.9286883" lon="8.31969"><ele>198.0</ele><time>2026-04-11T13:25:40.278Z</time></trkpt><trkpt lat="44.9286167" lon="8.3195817"><ele>196.0</ele><time>2026-04-11T13:25:41.278Z</time></trkpt><trkpt lat="44.928555" lon="8.3194433"><ele>194.0</ele><time>2026-04-11T13:25:42.277Z</time></trkpt><trkpt lat="44.9285" lon="8.3192917"><ele>192.0</ele><time>2026-04-11T13:25:43.278Z</time></trkpt><trkpt lat="44.92845" lon="8.3191183"><ele>192.0</ele><time>2026-04-11T13:25:44.277Z</time></trkpt><trkpt lat="44.928405" lon="8.3189383"><ele>192.0</ele><time>2026-04-11T13:25:45.278Z</time></trkpt><trkpt lat="44.9283617" lon="8.3187617"><ele>192.0</ele><time>2026-04-11T13:25:46.277Z</time></trkpt><trkpt lat="44.9283233" lon="8.3185817"><ele>192.0</ele><time>2026-04-11T13:25:47.277Z</time></trkpt><trkpt lat="44.9283" lon="8.3183883"><ele>194.75</ele><time>2026-04-11T13:25:48.277Z</time></trkpt><trkpt lat="44.928285" lon="8.3181983"><ele>197.5</ele><time>2026-04-11T13:25:49.277Z</time></trkpt><trkpt lat="44.928275" lon="8.3180183"><ele>200.25</ele><time>2026-04-11T13:25:50.277Z</time></trkpt><trkpt lat="44.92826" lon="8.317855"><ele>203.0</ele><time>2026-04-11T13:25:51.278Z</time></trkpt><trkpt lat="44.9282533" lon="8.3177183"><ele>203.00000000000003</ele><time>2026-04-11T13:25:52.278Z</time></trkpt><trkpt lat="44.92825" lon="8.3176117"><ele>203.0</ele><time>2026-04-11T13:25:53.278Z</time></trkpt><trkpt lat="44.9282383" lon="8.317455"><ele>203.0</ele><time>2026-04-11T13:25:55.277Z</time></trkpt><trkpt lat="44.9282267" lon="8.31735"><ele>203.0</ele><time>2026-04-11T13:25:57.278Z</time></trkpt><trkpt lat="44.9282183" lon="8.3172317"><ele>203.00000000000003</ele><time>2026-04-11T13:26:00.277Z</time></trkpt><trkpt lat="44.9282467" lon="8.3171067"><ele>203.0</ele><time>2026-04-11T13:26:03.278Z</time></trkpt><trkpt lat="44.92831" lon="8.3170117"><ele>203.75</ele><time>2026-04-11T13:30:03.277Z</time></trkpt><trkpt lat="44.9283433" lon="8.3169217"><ele>204.5</ele><time>2026-04-11T13:30:04.276Z</time></trkpt><trkpt lat="44.92838" lon="8.31683"><ele>205.25</ele><time>2026-04-11T13:30:05.277Z</time></trkpt><trkpt lat="44.9285233" lon="8.3165583"><ele>206.0</ele><time>2026-04-11T13:30:08.276Z</time></trkpt><trkpt lat="44.92858" lon="8.3164717"><ele>206.66666666666669</ele><time>2026-04-11T13:30:09.277Z</time></trkpt><trkpt lat="44.9286317" lon="8.3163933"><ele>207.33333333333334</ele><time>2026-04-11T13:30:10.276Z</time></trkpt><trkpt lat="44.9286933" lon="8.3163317"><ele>208.0</ele><time>2026-04-11T13:30:11.277Z</time></trkpt><trkpt lat="44.9287667" lon="8.316295"><ele>208.66666666666669</ele><time>2026-04-11T13:30:12.276Z</time></trkpt><trkpt lat="44.928855" lon="8.3162567"><ele>209.33333333333334</ele><time>2026-04-11T13:30:13.276Z</time></trkpt><trkpt lat="44.92893" lon="8.3162233"><ele>210.0</ele><time>2026-04-11T13:30:14.276Z</time></trkpt><trkpt lat="44.929005" lon="8.3161683"><ele>210.0</ele><time>2026-04-11T13:30:15.277Z</time></trkpt><trkpt lat="44.9290683" lon="8.316115"><ele>210.0</ele><time>2026-04-11T13:30:16.276Z</time></trkpt><trkpt lat="44.9291233" lon="8.3160533"><ele>210.0</ele><time>2026-04-11T13:30:17.276Z</time></trkpt><trkpt lat="44.9291733" lon="8.315985"><ele>210.0</ele><time>2026-04-11T13:30:18.276Z</time></trkpt><trkpt lat="44.929205" lon="8.3158517"><ele>210.0</ele><time>2026-04-11T13:30:20.276Z</time></trkpt><trkpt lat="44.9291683" lon="8.31562"><ele>209.71428571428572</ele><time>2026-04-11T13:30:23.276Z</time></trkpt><trkpt lat="44.929155" lon="8.3155233"><ele>209.42857142857144</ele><time>2026-04-11T13:30:24.277Z</time></trkpt><trkpt lat="44.9291333" lon="8.3154117"><ele>209.14285714285714</ele><time>2026-04-11T13:30:25.276Z</time></trkpt><trkpt lat="44.92908" lon="8.3153267"><ele>208.85714285714286</ele><time>2026-04-11T13:30:26.276Z</time></trkpt><trkpt lat="44.9290367" lon="8.3152533"><ele>208.57142857142858</ele><time>2026-04-11T13:30:27.276Z</time></trkpt><trkpt lat="44.9290017" lon="8.3151633"><ele>208.28571428571428</ele><time>2026-04-11T13:30:28.277Z</time></trkpt><trkpt lat="44.92896" lon="8.3150867"><ele>208.0</ele><time>2026-04-11T13:30:29.276Z</time></trkpt><trkpt lat="44.9289333" lon="8.3149983"><ele>208.0</ele><time>2026-04-11T13:30:30.276Z</time></trkpt><trkpt lat="44.9288967" lon="8.3149217"><ele>208.0</ele><time>2026-04-11T13:30:31.276Z</time></trkpt><trkpt lat="44.9288783" lon="8.314835"><ele>208.0</ele><time>2026-04-11T13:30:32.277Z</time></trkpt><trkpt lat="44.928855" lon="8.3147467"><ele>208.0</ele><time>2026-04-11T13:30:33.276Z</time></trkpt><trkpt lat="44.9288317" lon="8.3146483"><ele>208.0</ele><time>2026-04-11T13:30:34.276Z</time></trkpt><trkpt lat="44.9288033" lon="8.3145483"><ele>208.0</ele><time>2026-04-11T13:30:35.276Z</time></trkpt><trkpt lat="44.928785" lon="8.314425"><ele>208.0</ele><time>2026-04-11T13:30:36.276Z</time></trkpt><trkpt lat="44.928765" lon="8.314305"><ele>208.0</ele><time>2026-04-11T13:30:37.276Z</time></trkpt><trkpt lat="44.928755" lon="8.31418"><ele>208.0</ele><time>2026-04-11T13:30:38.277Z</time></trkpt><trkpt lat="44.9287533" lon="8.314055"><ele>208.0</ele><time>2026-04-11T13:30:39.276Z</time></trkpt><trkpt lat="44.9287617" lon="8.313935"><ele>208.0</ele><time>2026-04-11T13:30:40.276Z</time></trkpt><trkpt lat="44.9287867" lon="8.313795"><ele>208.0</ele><time>2026-04-11T13:30:41.277Z</time></trkpt><trkpt lat="44.9288167" lon="8.3136617"><ele>208.8</ele><time>2026-04-11T13:30:42.276Z</time></trkpt><trkpt lat="44.9288533" lon="8.3135317"><ele>209.60000000000002</ele><time>2026-04-11T13:30:43.276Z</time></trkpt><trkpt lat="44.9288917" lon="8.3133917"><ele>210.39999999999998</ele><time>2026-04-11T13:30:44.277Z</time></trkpt><trkpt lat="44.9289383" lon="8.31326"><ele>211.2</ele><time>2026-04-11T13:30:45.276Z</time></trkpt><trkpt lat="44.928985" lon="8.3131333"><ele>212.0</ele><time>2026-04-11T13:30:46.277Z</time></trkpt><trkpt lat="44.929025" lon="8.3130067"><ele>212.2</ele><time>2026-04-11T13:30:47.276Z</time></trkpt><trkpt lat="44.929065" lon="8.3128667"><ele>212.39999999999998</ele><time>2026-04-11T13:30:48.276Z</time></trkpt><trkpt lat="44.9291067" lon="8.3127283"><ele>212.60000000000002</ele><time>2026-04-11T13:30:49.276Z</time></trkpt><trkpt lat="44.929145" lon="8.3126"><ele>212.8</ele><time>2026-04-11T13:30:50.276Z</time></trkpt><trkpt lat="44.92919" lon="8.3124817"><ele>213.0</ele><time>2026-04-11T13:30:51.277Z</time></trkpt><trkpt lat="44.9292233" lon="8.3123933"><ele>213.0</ele><time>2026-04-11T13:30:52.276Z</time></trkpt><trkpt lat="44.929275" lon="8.312265"><ele>213.0</ele><time>2026-04-11T13:30:54.276Z</time></trkpt><trkpt lat="44.9292833" lon="8.3121433"><ele>213.0</ele><time>2026-04-11T13:30:56.276Z</time></trkpt><trkpt lat="44.9292483" lon="8.3120233"><ele>213.0</ele><time>2026-04-11T13:30:58.277Z</time></trkpt><trkpt lat="44.9292083" lon="8.3118717"><ele>213.0</ele><time>2026-04-11T13:31:00.277Z</time></trkpt><trkpt lat="44.9291683" lon="8.3117483"><ele>213.0</ele><time>2026-04-11T13:31:02.277Z</time></trkpt><trkpt lat="44.9290917" lon="8.3116517"><ele>213.0</ele><time>2026-04-11T13:31:04.277Z</time></trkpt><trkpt lat="44.9289217" lon="8.3115483"><ele>213.0</ele><time>2026-04-11T13:31:07.276Z</time></trkpt><trkpt lat="44.9288517" lon="8.3115133"><ele>213.0</ele><time>2026-04-11T13:31:08.277Z</time></trkpt><trkpt lat="44.9287867" lon="8.3114883"><ele>213.0</ele><time>2026-04-11T13:31:09.276Z</time></trkpt><trkpt lat="44.92872" lon="8.3114683"><ele>213.0</ele><time>2026-04-11T13:31:10.276Z</time></trkpt><trkpt lat="44.928655" lon="8.31145"><ele>213.0</ele><time>2026-04-11T13:31:11.276Z</time></trkpt><trkpt lat="44.9285333" lon="8.311395"><ele>213.0</ele><time>2026-04-11T13:31:13.276Z</time></trkpt><trkpt lat="44.928475" lon="8.3113567"><ele>213.0</ele><time>2026-04-11T13:31:14.277Z</time></trkpt><trkpt lat="44.9284167" lon="8.31132"><ele>213.0</ele><time>2026-04-11T13:31:15.276Z</time></trkpt><trkpt lat="44.9283667" lon="8.311255"><ele>213.0</ele><time>2026-04-11T13:31:16.277Z</time></trkpt><trkpt lat="44.928315" lon="8.3111833"><ele>212.7142857142857</ele><time>2026-04-11T13:31:17.276Z</time></trkpt><trkpt lat="44.9282633" lon="8.3111183"><ele>212.42857142857142</ele><time>2026-04-11T13:31:18.277Z</time></trkpt><trkpt lat="44.9282133" lon="8.3110533"><ele>212.14285714285714</ele><time>2026-04-11T13:31:19.276Z</time></trkpt><trkpt lat="44.9281567" lon="8.310985"><ele>211.85714285714283</ele><time>2026-04-11T13:31:20.276Z</time></trkpt><trkpt lat="44.928105" lon="8.3109217"><ele>211.57142857142858</ele><time>2026-04-11T13:31:21.276Z</time></trkpt><trkpt lat="44.9280467" lon="8.3108583"><ele>211.28571428571428</ele><time>2026-04-11T13:31:22.276Z</time></trkpt><trkpt lat="44.9279917" lon="8.31079"><ele>211.0</ele><time>2026-04-11T13:31:23.276Z</time></trkpt><trkpt lat="44.92793" lon="8.3107283"><ele>210.99999999999997</ele><time>2026-04-11T13:31:24.276Z</time></trkpt><trkpt lat="44.9278617" lon="8.3106817"><ele>211.0</ele><time>2026-04-11T13:31:25.277Z</time></trkpt><trkpt lat="44.9277933" lon="8.31064"><ele>211.0</ele><time>2026-04-11T13:31:26.277Z</time></trkpt><trkpt lat="44.927715" lon="8.310595"><ele>211.0</ele><time>2026-04-11T13:31:27.276Z</time></trkpt><trkpt lat="44.92765" lon="8.3105433"><ele>210.99999999999997</ele><time>2026-04-11T13:31:28.277Z</time></trkpt><trkpt lat="44.92758" lon="8.3104783"><ele>211.0</ele><time>2026-04-11T13:31:29.276Z</time></trkpt><trkpt lat="44.927515" lon="8.3104233"><ele>210.33333333333331</ele><time>2026-04-11T13:31:30.276Z</time></trkpt><trkpt lat="44.9274583" lon="8.3103633"><ele>209.66666666666666</ele><time>2026-04-11T13:31:31.276Z</time></trkpt><trkpt lat="44.9273967" lon="8.31031"><ele>209.0</ele><time>2026-04-11T13:31:32.277Z</time></trkpt><trkpt lat="44.9273217" lon="8.3102633"><ele>208.33333333333331</ele><time>2026-04-11T13:31:33.276Z</time></trkpt><trkpt lat="44.9272417" lon="8.3102233"><ele>207.66666666666666</ele><time>2026-04-11T13:31:34.276Z</time></trkpt><trkpt lat="44.9271633" lon="8.31019"><ele>207.0</ele><time>2026-04-11T13:31:35.277Z</time></trkpt><trkpt lat="44.9270817" lon="8.3101633"><ele>207.0</ele><time>2026-04-11T13:31:36.276Z</time></trkpt><trkpt lat="44.9270083" lon="8.310145"><ele>207.0</ele><time>2026-04-11T13:31:37.276Z</time></trkpt><trkpt lat="44.926885" lon="8.310125"><ele>207.0</ele><time>2026-04-11T13:31:39.276Z</time></trkpt><trkpt lat="44.9268217" lon="8.31012"><ele>207.0</ele><time>2026-04-11T13:31:40.276Z</time></trkpt><trkpt lat="44.9267483" lon="8.3101133"><ele>207.0</ele><time>2026-04-11T13:31:41.276Z</time></trkpt><trkpt lat="44.9266667" lon="8.3100933"><ele>207.0</ele><time>2026-04-11T13:31:42.276Z</time></trkpt><trkpt lat="44.9265867" lon="8.3100767"><ele>206.8</ele><time>2026-04-11T13:31:43.276Z</time></trkpt><trkpt lat="44.9265" lon="8.3100633"><ele>206.6</ele><time>2026-04-11T13:31:44.276Z</time></trkpt><trkpt lat="44.9264067" lon="8.3100467"><ele>206.4</ele><time>2026-04-11T13:31:45.277Z</time></trkpt><trkpt lat="44.9263017" lon="8.31003"><ele>206.20000000000002</ele><time>2026-04-11T13:31:46.276Z</time></trkpt><trkpt lat="44.9261983" lon="8.3100083"><ele>206.0</ele><time>2026-04-11T13:31:47.277Z</time></trkpt><trkpt lat="44.9261083" lon="8.31"><ele>206.0</ele><time>2026-04-11T13:31:48.277Z</time></trkpt><trkpt lat="44.9260233" lon="8.3099983"><ele>206.0</ele><time>2026-04-11T13:31:49.276Z</time></trkpt><trkpt lat="44.9259433" lon="8.3100133"><ele>206.0</ele><time>2026-04-11T13:31:50.276Z</time></trkpt><trkpt lat="44.925855" lon="8.3100367"><ele>206.0</ele><time>2026-04-11T13:31:51.277Z</time></trkpt><trkpt lat="44.9257633" lon="8.31006"><ele>206.0</ele><time>2026-04-11T13:31:52.276Z</time></trkpt><trkpt lat="44.9256633" lon="8.3100783"><ele>205.8</ele><time>2026-04-11T13:31:53.277Z</time></trkpt><trkpt lat="44.92556" lon="8.3100967"><ele>205.60000000000002</ele><time>2026-04-11T13:31:54.276Z</time></trkpt><trkpt lat="44.92546" lon="8.3101083"><ele>205.4</ele><time>2026-04-11T13:31:55.276Z</time></trkpt><trkpt lat="44.92535" lon="8.310125"><ele>205.2</ele><time>2026-04-11T13:31:56.277Z</time></trkpt><trkpt lat="44.92525" lon="8.3101583"><ele>205.0</ele><time>2026-04-11T13:31:57.276Z</time></trkpt><trkpt lat="44.92515" lon="8.3101983"><ele>204.99999999999997</ele><time>2026-04-11T13:31:58.277Z</time></trkpt><trkpt lat="44.925065" lon="8.3102433"><ele>205.0</ele><time>2026-04-11T13:31:59.277Z</time></trkpt><trkpt lat="44.9249817" lon="8.3102867"><ele>205.0</ele><time>2026-04-11T13:32:00.276Z</time></trkpt><trkpt lat="44.9249017" lon="8.3103233"><ele>205.0</ele><time>2026-04-11T13:32:01.276Z</time></trkpt><trkpt lat="44.924815" lon="8.310355"><ele>204.99999999999997</ele><time>2026-04-11T13:32:02.277Z</time></trkpt><trkpt lat="44.9247267" lon="8.310395"><ele>205.0</ele><time>2026-04-11T13:32:03.276Z</time></trkpt><trkpt lat="44.9246367" lon="8.31043"><ele>204.49999999999997</ele><time>2026-04-11T13:32:04.276Z</time></trkpt><trkpt lat="44.924555" lon="8.3104383"><ele>204.0</ele><time>2026-04-11T13:32:05.276Z</time></trkpt><trkpt lat="44.9244833" lon="8.31042"><ele>203.5</ele><time>2026-04-11T13:32:06.276Z</time></trkpt><trkpt lat="44.9244183" lon="8.3103867"><ele>203.0</ele><time>2026-04-11T13:32:07.277Z</time></trkpt><trkpt lat="44.9243267" lon="8.3103733"><ele>202.49999999999997</ele><time>2026-04-11T13:32:09.276Z</time></trkpt><trkpt lat="44.9242433" lon="8.3104167"><ele>202.0</ele><time>2026-04-11T13:32:12.276Z</time></trkpt><trkpt lat="44.9241517" lon="8.31043"><ele>201.99999999999997</ele><time>2026-04-11T13:32:17.277Z</time></trkpt><trkpt lat="44.92409" lon="8.31041"><ele>202.0</ele><time>2026-04-11T13:32:19.276Z</time></trkpt><trkpt lat="44.92401" lon="8.310375"><ele>202.0</ele><time>2026-04-11T13:32:21.276Z</time></trkpt><trkpt lat="44.9239233" lon="8.3103283"><ele>202.0</ele><time>2026-04-11T13:32:23.276Z</time></trkpt><trkpt lat="44.92384" lon="8.31031"><ele>201.99999999999997</ele><time>2026-04-11T13:32:25.277Z</time></trkpt><trkpt lat="44.9237333" lon="8.3103583"><ele>202.0</ele><time>2026-04-11T13:32:27.276Z</time></trkpt><trkpt lat="44.92368" lon="8.31041"><ele>202.0</ele><time>2026-04-11T13:32:28.276Z</time></trkpt><trkpt lat="44.923565" lon="8.3105"><ele>202.0</ele><time>2026-04-11T13:32:30.276Z</time></trkpt><trkpt lat="44.92349" lon="8.3105383"><ele>202.0</ele><time>2026-04-11T13:32:31.276Z</time></trkpt><trkpt lat="44.9234067" lon="8.310565"><ele>202.0</ele><time>2026-04-11T13:32:32.276Z</time></trkpt><trkpt lat="44.9233217" lon="8.3105733"><ele>202.0</ele><time>2026-04-11T13:32:33.276Z</time></trkpt><trkpt lat="44.9232283" lon="8.3105683"><ele>199.83333333333331</ele><time>2026-04-11T13:32:34.276Z</time></trkpt><trkpt lat="44.9231567" lon="8.31058"><ele>197.66666666666666</ele><time>2026-04-11T13:32:35.276Z</time></trkpt><trkpt lat="44.923085" lon="8.310605"><ele>195.5</ele><time>2026-04-11T13:32:36.276Z</time></trkpt><trkpt lat="44.9230167" lon="8.310655"><ele>193.33333333333331</ele><time>2026-04-11T13:32:37.276Z</time></trkpt><trkpt lat="44.9229833" lon="8.3107683"><ele>191.16666666666666</ele><time>2026-04-11T13:32:38.276Z</time></trkpt><trkpt lat="44.922965" lon="8.3109"><ele>189.0</ele><time>2026-04-11T13:32:39.276Z</time></trkpt><trkpt lat="44.9229583" lon="8.3110417"><ele>189.0</ele><time>2026-04-11T13:32:40.276Z</time></trkpt><trkpt lat="44.9229617" lon="8.3111817"><ele>189.0</ele><time>2026-04-11T13:32:41.276Z</time></trkpt><trkpt lat="44.92297" lon="8.311325"><ele>189.0</ele><time>2026-04-11T13:32:42.276Z</time></trkpt><trkpt lat="44.9229633" lon="8.311455"><ele>189.0</ele><time>2026-04-11T13:32:43.276Z</time></trkpt><trkpt lat="44.922965" lon="8.3115767"><ele>189.0</ele><time>2026-04-11T13:32:44.276Z</time></trkpt><trkpt lat="44.9229617" lon="8.31168"><ele>188.0</ele><time>2026-04-11T13:32:45.276Z</time></trkpt><trkpt lat="44.9229533" lon="8.31178"><ele>187.0</ele><time>2026-04-11T13:32:46.276Z</time></trkpt><trkpt lat="44.9229483" lon="8.3118967"><ele>186.0</ele><time>2026-04-11T13:32:48.276Z</time></trkpt><trkpt lat="44.9229083" lon="8.3119717"><ele>185.0</ele><time>2026-04-11T13:32:51.277Z</time></trkpt><trkpt lat="44.9228383" lon="8.311965"><ele>184.0</ele><time>2026-04-11T13:32:53.276Z</time></trkpt><trkpt lat="44.922755" lon="8.311945"><ele>183.0</ele><time>2026-04-11T13:32:56.275Z</time></trkpt><trkpt lat="44.92269" lon="8.3119367"><ele>182.0</ele><time>2026-04-11T13:32:58.276Z</time></trkpt><trkpt lat="44.9226233" lon="8.3119267"><ele>182.0</ele><time>2026-04-11T13:33:00.275Z</time></trkpt><trkpt lat="44.922545" lon="8.311915"><ele>182.0</ele><time>2026-04-11T13:33:02.275Z</time></trkpt><trkpt lat="44.9224633" lon="8.3119183"><ele>182.0</ele><time>2026-04-11T13:33:04.275Z</time></trkpt><trkpt lat="44.922385" lon="8.311915"><ele>182.0</ele><time>2026-04-11T13:33:06.276Z</time></trkpt><trkpt lat="44.9223133" lon="8.3119133"><ele>182.0</ele><time>2026-04-11T13:33:08.276Z</time></trkpt><trkpt lat="44.9222183" lon="8.3119283"><ele>182.0</ele><time>2026-04-11T13:33:10.275Z</time></trkpt><trkpt lat="44.9221033" lon="8.311935"><ele>182.0</ele><time>2026-04-11T13:33:12.276Z</time></trkpt><trkpt lat="44.9220033" lon="8.31193"><ele>182.0</ele><time>2026-04-11T13:33:14.276Z</time></trkpt><trkpt lat="44.9219083" lon="8.3119183"><ele>182.0</ele><time>2026-04-11T13:33:16.275Z</time></trkpt><trkpt lat="44.9218083" lon="8.3119133"><ele>182.0</ele><time>2026-04-11T13:33:18.275Z</time></trkpt><trkpt lat="44.9217217" lon="8.31191"><ele>182.0</ele><time>2026-04-11T13:33:20.275Z</time></trkpt><trkpt lat="44.92163" lon="8.3119"><ele>182.83333333333331</ele><time>2026-04-11T13:33:22.275Z</time></trkpt><trkpt lat="44.92155" lon="8.3118867"><ele>183.66666666666666</ele><time>2026-04-11T13:33:24.276Z</time></trkpt><trkpt lat="44.9214733" lon="8.311875"><ele>184.5</ele><time>2026-04-11T13:33:26.275Z</time></trkpt><trkpt lat="44.9213967" lon="8.3118567"><ele>185.33333333333334</ele><time>2026-04-11T13:33:28.275Z</time></trkpt><trkpt lat="44.9213283" lon="8.3118433"><ele>186.16666666666669</ele><time>2026-04-11T13:33:30.276Z</time></trkpt><trkpt lat="44.9212433" lon="8.311825"><ele>187.0</ele><time>2026-04-11T13:33:33.275Z</time></trkpt><trkpt lat="44.9211667" lon="8.3118033"><ele>187.0</ele><time>2026-04-11T13:33:36.275Z</time></trkpt><trkpt lat="44.9210933" lon="8.3118"><ele>187.0</ele><time>2026-04-11T13:33:39.275Z</time></trkpt><trkpt lat="44.9211" lon="8.311975"><ele>187.0</ele><time>2026-04-11T13:34:02.275Z</time></trkpt><trkpt lat="44.9211183" lon="8.312065"><ele>187.0</ele><time>2026-04-11T13:34:04.276Z</time></trkpt><trkpt lat="44.9211383" lon="8.3121817"><ele>187.0</ele><time>2026-04-11T13:34:07.276Z</time></trkpt><trkpt lat="44.9211567" lon="8.31228"><ele>187.0</ele><time>2026-04-11T13:34:09.275Z</time></trkpt><trkpt lat="44.9211683" lon="8.3123967"><ele>185.2</ele><time>2026-04-11T13:34:11.276Z</time></trkpt><trkpt lat="44.9211483" lon="8.3125583"><ele>183.39999999999998</ele><time>2026-04-11T13:34:13.276Z</time></trkpt><trkpt lat="44.9211" lon="8.3126333"><ele>181.60000000000002</ele><time>2026-04-11T13:34:15.275Z</time></trkpt><trkpt lat="44.921085" lon="8.3127583"><ele>179.8</ele><time>2026-04-11T13:34:19.275Z</time></trkpt><trkpt lat="44.9211717" lon="8.3126367"><ele>178.0</ele><time>2026-04-11T13:34:28.275Z</time></trkpt><trkpt lat="44.9211917" lon="8.312465"><ele>178.0</ele><time>2026-04-11T13:34:30.275Z</time></trkpt><trkpt lat="44.9211983" lon="8.3123633"><ele>178.0</ele><time>2026-04-11T13:34:31.275Z</time></trkpt><trkpt lat="44.921195" lon="8.3122567"><ele>178.0</ele><time>2026-04-11T13:34:32.275Z</time></trkpt><trkpt lat="44.9211733" lon="8.31216"><ele>178.0</ele><time>2026-04-11T13:34:33.276Z</time></trkpt><trkpt lat="44.9211317" lon="8.3120117"><ele>178.0</ele><time>2026-04-11T13:34:35.275Z</time></trkpt><trkpt lat="44.9210883" lon="8.3119167"><ele>178.0</ele><time>2026-04-11T13:34:38.275Z</time></trkpt><trkpt lat="44.921055" lon="8.31201"><ele>178.0</ele><time>2026-04-11T13:34:41.275Z</time></trkpt><trkpt lat="44.9210283" lon="8.3121167"><ele>178.0</ele><time>2026-04-11T13:34:42.275Z</time></trkpt><trkpt lat="44.9209817" lon="8.3122217"><ele>178.0</ele><time>2026-04-11T13:34:43.275Z</time></trkpt><trkpt lat="44.9209267" lon="8.312315"><ele>178.0</ele><time>2026-04-11T13:34:44.276Z</time></trkpt><trkpt lat="44.920885" lon="8.31239"><ele>178.0</ele><time>2026-04-11T13:34:45.275Z</time></trkpt><trkpt lat="44.920805" lon="8.3125083"><ele>178.0</ele><time>2026-04-11T13:34:47.275Z</time></trkpt><trkpt lat="44.9207417" lon="8.3125633"><ele>177.99999999999997</ele><time>2026-04-11T13:34:48.275Z</time></trkpt><trkpt lat="44.920675" lon="8.3126067"><ele>178.0</ele><time>2026-04-11T13:34:49.275Z</time></trkpt><trkpt lat="44.9206133" lon="8.312655"><ele>178.0</ele><time>2026-04-11T13:34:50.275Z</time></trkpt><trkpt lat="44.920545" lon="8.3127017"><ele>178.0</ele><time>2026-04-11T13:34:51.275Z</time></trkpt><trkpt lat="44.92048" lon="8.31274"><ele>178.0</ele><time>2026-04-11T13:34:52.275Z</time></trkpt><trkpt lat="44.920415" lon="8.3127617"><ele>177.99999999999997</ele><time>2026-04-11T13:34:53.276Z</time></trkpt><trkpt lat="44.92035" lon="8.3127967"><ele>178.0</ele><time>2026-04-11T13:34:54.275Z</time></trkpt><trkpt lat="44.9202867" lon="8.3128433"><ele>178.0</ele><time>2026-04-11T13:34:55.275Z</time></trkpt><trkpt lat="44.92021" lon="8.312875"><ele>178.0</ele><time>2026-04-11T13:34:56.276Z</time></trkpt><trkpt lat="44.9201333" lon="8.31292"><ele>178.0</ele><time>2026-04-11T13:34:57.275Z</time></trkpt><trkpt lat="44.9200633" lon="8.31297"><ele>178.0</ele><time>2026-04-11T13:34:58.275Z</time></trkpt><trkpt lat="44.91999" lon="8.3130267"><ele>178.0</ele><time>2026-04-11T13:34:59.275Z</time></trkpt><trkpt lat="44.9199217" lon="8.3130833"><ele>178.0</ele><time>2026-04-11T13:35:00.275Z</time></trkpt><trkpt lat="44.9198533" lon="8.3131317"><ele>177.7142857142857</ele><time>2026-04-11T13:35:01.275Z</time></trkpt><trkpt lat="44.91979" lon="8.3131717"><ele>177.42857142857142</ele><time>2026-04-11T13:35:02.275Z</time></trkpt><trkpt lat="44.9197283" lon="8.3132333"><ele>177.14285714285714</ele><time>2026-04-11T13:35:03.275Z</time></trkpt><trkpt lat="44.9196733" lon="8.31329"><ele>176.85714285714283</ele><time>2026-04-11T13:35:04.275Z</time></trkpt><trkpt lat="44.9196067" lon="8.3133267"><ele>176.57142857142856</ele><time>2026-04-11T13:35:05.275Z</time></trkpt><trkpt lat="44.9195417" lon="8.3133483"><ele>176.28571428571428</ele><time>2026-04-11T13:35:06.275Z</time></trkpt><trkpt lat="44.91947" lon="8.3133483"><ele>176.0</ele><time>2026-04-11T13:35:07.276Z</time></trkpt><trkpt lat="44.9193883" lon="8.31334"><ele>176.0</ele><time>2026-04-11T13:35:08.276Z</time></trkpt><trkpt lat="44.9193033" lon="8.3133283"><ele>176.0</ele><time>2026-04-11T13:35:09.275Z</time></trkpt><trkpt lat="44.9192233" lon="8.3133233"><ele>176.0</ele><time>2026-04-11T13:35:10.275Z</time></trkpt><trkpt lat="44.9191367" lon="8.3132983"><ele>176.0</ele><time>2026-04-11T13:35:11.275Z</time></trkpt><trkpt lat="44.919055" lon="8.31328"><ele>176.0</ele><time>2026-04-11T13:35:12.275Z</time></trkpt><trkpt lat="44.91897" lon="8.3132583"><ele>176.0</ele><time>2026-04-11T13:35:13.275Z</time></trkpt><trkpt lat="44.9188917" lon="8.3132383"><ele>177.85714285714286</ele><time>2026-04-11T13:35:14.275Z</time></trkpt><trkpt lat="44.9188183" lon="8.31323"><ele>179.71428571428572</ele><time>2026-04-11T13:35:15.275Z</time></trkpt><trkpt lat="44.9187467" lon="8.313235"><ele>181.57142857142856</ele><time>2026-04-11T13:35:16.275Z</time></trkpt><trkpt lat="44.9186783" lon="8.3132633"><ele>183.42857142857144</ele><time>2026-04-11T13:35:17.275Z</time></trkpt><trkpt lat="44.9186083" lon="8.313295"><ele>185.28571428571428</ele><time>2026-04-11T13:35:18.276Z</time></trkpt><trkpt lat="44.918535" lon="8.3133333"><ele>187.14285714285714</ele><time>2026-04-11T13:35:19.275Z</time></trkpt><trkpt lat="44.9184617" lon="8.31338"><ele>189.0</ele><time>2026-04-11T13:35:20.275Z</time></trkpt><trkpt lat="44.9183933" lon="8.3134317"><ele>190.16666666666666</ele><time>2026-04-11T13:35:21.275Z</time></trkpt><trkpt lat="44.9183183" lon="8.3134917"><ele>191.33333333333331</ele><time>2026-04-11T13:35:22.276Z</time></trkpt><trkpt lat="44.9182467" lon="8.3135583"><ele>192.5</ele><time>2026-04-11T13:35:23.275Z</time></trkpt><trkpt lat="44.9181767" lon="8.3136417"><ele>193.66666666666666</ele><time>2026-04-11T13:35:24.275Z</time></trkpt><trkpt lat="44.918105" lon="8.3137183"><ele>194.83333333333331</ele><time>2026-04-11T13:35:25.275Z</time></trkpt><trkpt lat="44.9180333" lon="8.313805"><ele>196.0</ele><time>2026-04-11T13:35:26.275Z</time></trkpt><trkpt lat="44.917965" lon="8.313905"><ele>195.8</ele><time>2026-04-11T13:35:27.275Z</time></trkpt><trkpt lat="44.9178933" lon="8.314005"><ele>195.60000000000002</ele><time>2026-04-11T13:35:28.275Z</time></trkpt><trkpt lat="44.9178267" lon="8.3141017"><ele>195.4</ele><time>2026-04-11T13:35:29.275Z</time></trkpt><trkpt lat="44.9177617" lon="8.3141983"><ele>195.2</ele><time>2026-04-11T13:35:30.275Z</time></trkpt><trkpt lat="44.9176983" lon="8.3142817"><ele>195.0</ele><time>2026-04-11T13:35:31.276Z</time></trkpt><trkpt lat="44.9176367" lon="8.3143817"><ele>195.0</ele><time>2026-04-11T13:35:32.276Z</time></trkpt><trkpt lat="44.917575" lon="8.3144883"><ele>195.0</ele><time>2026-04-11T13:35:33.275Z</time></trkpt><trkpt lat="44.9175183" lon="8.3145833"><ele>195.0</ele><time>2026-04-11T13:35:34.275Z</time></trkpt><trkpt lat="44.9174417" lon="8.31468"><ele>195.0</ele><time>2026-04-11T13:35:35.276Z</time></trkpt><trkpt lat="44.917365" lon="8.3147533"><ele>195.0</ele><time>2026-04-11T13:35:36.276Z</time></trkpt><trkpt lat="44.9172733" lon="8.3148017"><ele>195.2</ele><time>2026-04-11T13:35:37.275Z</time></trkpt><trkpt lat="44.91718" lon="8.31485"><ele>195.4</ele><time>2026-04-11T13:35:38.276Z</time></trkpt><trkpt lat="44.91709" lon="8.31491"><ele>195.60000000000002</ele><time>2026-04-11T13:35:39.275Z</time></trkpt><trkpt lat="44.9170067" lon="8.31499"><ele>195.8</ele><time>2026-04-11T13:35:40.275Z</time></trkpt><trkpt lat="44.9169267" lon="8.31508"><ele>196.0</ele><time>2026-04-11T13:35:41.275Z</time></trkpt><trkpt lat="44.9168517" lon="8.3151617"><ele>195.99999999999997</ele><time>2026-04-11T13:35:42.275Z</time></trkpt><trkpt lat="44.9167817" lon="8.315215"><ele>196.0</ele><time>2026-04-11T13:35:43.276Z</time></trkpt><trkpt lat="44.9167067" lon="8.3152467"><ele>196.0</ele><time>2026-04-11T13:35:44.276Z</time></trkpt><trkpt lat="44.9166433" lon="8.3152667"><ele>196.0</ele><time>2026-04-11T13:35:45.275Z</time></trkpt><trkpt lat="44.9165183" lon="8.3153067"><ele>195.99999999999997</ele><time>2026-04-11T13:35:47.275Z</time></trkpt><trkpt lat="44.9164383" lon="8.3153367"><ele>196.0</ele><time>2026-04-11T13:35:48.275Z</time></trkpt><trkpt lat="44.9163517" lon="8.3153617"><ele>196.20000000000002</ele><time>2026-04-11T13:35:49.276Z</time></trkpt><trkpt lat="44.9162567" lon="8.3154017"><ele>196.4</ele><time>2026-04-11T13:35:50.275Z</time></trkpt><trkpt lat="44.9161617" lon="8.3154383"><ele>196.6</ele><time>2026-04-11T13:35:51.275Z</time></trkpt><trkpt lat="44.916065" lon="8.3154783"><ele>196.8</ele><time>2026-04-11T13:35:52.275Z</time></trkpt><trkpt lat="44.91598" lon="8.31551"><ele>197.0</ele><time>2026-04-11T13:35:53.275Z</time></trkpt><trkpt lat="44.9158983" lon="8.3155467"><ele>197.33333333333334</ele><time>2026-04-11T13:35:54.275Z</time></trkpt><trkpt lat="44.9158217" lon="8.3155817"><ele>197.66666666666669</ele><time>2026-04-11T13:35:55.275Z</time></trkpt><trkpt lat="44.9157517" lon="8.3156233"><ele>198.0</ele><time>2026-04-11T13:35:56.275Z</time></trkpt><trkpt lat="44.91569" lon="8.3156467"><ele>198.33333333333331</ele><time>2026-04-11T13:35:57.276Z</time></trkpt><trkpt lat="44.9155983" lon="8.3156933"><ele>198.66666666666666</ele><time>2026-04-11T13:35:59.275Z</time></trkpt><trkpt lat="44.9155433" lon="8.3157717"><ele>199.0</ele><time>2026-04-11T13:36:01.276Z</time></trkpt><trkpt lat="44.915545" lon="8.315915"><ele>198.99999999999997</ele><time>2026-04-11T13:36:03.275Z</time></trkpt><trkpt lat="44.9155683" lon="8.316015"><ele>199.0</ele><time>2026-04-11T13:36:04.276Z</time></trkpt><trkpt lat="44.91559" lon="8.3161117"><ele>199.0</ele><time>2026-04-11T13:36:05.275Z</time></trkpt><trkpt lat="44.91563" lon="8.316285"><ele>199.0</ele><time>2026-04-11T13:36:07.275Z</time></trkpt><trkpt lat="44.9156533" lon="8.3164033"><ele>198.99999999999997</ele><time>2026-04-11T13:36:09.275Z</time></trkpt><trkpt lat="44.9156733" lon="8.31651"><ele>199.0</ele><time>2026-04-11T13:36:11.275Z</time></trkpt><trkpt lat="44.91571" lon="8.316615"><ele>198.79999999999998</ele><time>2026-04-11T13:36:13.275Z</time></trkpt><trkpt lat="44.9157517" lon="8.316775"><ele>198.6</ele><time>2026-04-11T13:36:15.276Z</time></trkpt><trkpt lat="44.9157933" lon="8.3169367"><ele>198.4</ele><time>2026-04-11T13:36:17.275Z</time></trkpt><trkpt lat="44.91581" lon="8.317025"><ele>198.2</ele><time>2026-04-11T13:36:18.275Z</time></trkpt><trkpt lat="44.91583" lon="8.3171883"><ele>198.0</ele><time>2026-04-11T13:36:20.275Z</time></trkpt><trkpt lat="44.915865" lon="8.317345"><ele>197.0</ele><time>2026-04-11T13:36:22.275Z</time></trkpt><trkpt lat="44.9159333" lon="8.31743"><ele>196.0</ele><time>2026-04-11T13:36:24.275Z</time></trkpt><trkpt lat="44.9160417" lon="8.3173917"><ele>195.0</ele><time>2026-04-11T13:36:26.275Z</time></trkpt><trkpt lat="44.9161033" lon="8.3173683"><ele>194.0</ele><time>2026-04-11T13:36:27.275Z</time></trkpt><trkpt lat="44.9161733" lon="8.317445"><ele>193.0</ele><time>2026-04-11T13:36:29.275Z</time></trkpt><trkpt lat="44.9162217" lon="8.3175683"><ele>193.0</ele><time>2026-04-11T13:36:31.275Z</time></trkpt><trkpt lat="44.91627" lon="8.3177467"><ele>193.0</ele><time>2026-04-11T13:36:33.275Z</time></trkpt><trkpt lat="44.9163033" lon="8.3178233"><ele>193.0</ele><time>2026-04-11T13:36:34.275Z</time></trkpt><trkpt lat="44.916335" lon="8.3179083"><ele>193.0</ele><time>2026-04-11T13:36:35.276Z</time></trkpt><trkpt lat="44.9163633" lon="8.3179933"><ele>193.0</ele><time>2026-04-11T13:36:36.275Z</time></trkpt><trkpt lat="44.9164233" lon="8.31816"><ele>193.66666666666666</ele><time>2026-04-11T13:36:38.276Z</time></trkpt><trkpt lat="44.9164533" lon="8.318255"><ele>194.33333333333331</ele><time>2026-04-11T13:36:39.275Z</time></trkpt><trkpt lat="44.916485" lon="8.31834"><ele>195.0</ele><time>2026-04-11T13:36:40.274Z</time></trkpt><trkpt lat="44.9165117" lon="8.31843"><ele>195.66666666666669</ele><time>2026-04-11T13:36:41.274Z</time></trkpt><trkpt lat="44.91653" lon="8.3185983"><ele>196.33333333333334</ele><time>2026-04-11T13:36:43.274Z</time></trkpt><trkpt lat="44.9165217" lon="8.318695"><ele>197.0</ele><time>2026-04-11T13:36:44.275Z</time></trkpt><trkpt lat="44.9165083" lon="8.3187967"><ele>196.66666666666669</ele><time>2026-04-11T13:36:45.274Z</time></trkpt><trkpt lat="44.9164783" lon="8.318905"><ele>196.33333333333334</ele><time>2026-04-11T13:36:46.274Z</time></trkpt><trkpt lat="44.9164483" lon="8.3190167"><ele>196.0</ele><time>2026-04-11T13:36:47.274Z</time></trkpt><trkpt lat="44.9164267" lon="8.31914"><ele>195.66666666666669</ele><time>2026-04-11T13:36:48.275Z</time></trkpt><trkpt lat="44.9164083" lon="8.31926"><ele>195.33333333333334</ele><time>2026-04-11T13:36:49.274Z</time></trkpt><trkpt lat="44.9163833" lon="8.3193783"><ele>195.0</ele><time>2026-04-11T13:36:50.274Z</time></trkpt><trkpt lat="44.9163717" lon="8.3194867"><ele>195.0</ele><time>2026-04-11T13:36:51.275Z</time></trkpt><trkpt lat="44.916365" lon="8.319605"><ele>195.0</ele><time>2026-04-11T13:36:52.274Z</time></trkpt><trkpt lat="44.9163683" lon="8.3197183"><ele>195.0</ele><time>2026-04-11T13:36:53.274Z</time></trkpt><trkpt lat="44.9163633" lon="8.3198417"><ele>195.0</ele><time>2026-04-11T13:36:54.275Z</time></trkpt><trkpt lat="44.91637" lon="8.3199583"><ele>195.0</ele><time>2026-04-11T13:36:55.274Z</time></trkpt><trkpt lat="44.916365" lon="8.3200767"><ele>195.0</ele><time>2026-04-11T13:36:56.274Z</time></trkpt><trkpt lat="44.9163667" lon="8.3202033"><ele>194.2</ele><time>2026-04-11T13:36:57.274Z</time></trkpt><trkpt lat="44.9163467" lon="8.3203317"><ele>193.4</ele><time>2026-04-11T13:36:58.274Z</time></trkpt><trkpt lat="44.91632" lon="8.3204667"><ele>192.60000000000002</ele><time>2026-04-11T13:36:59.274Z</time></trkpt><trkpt lat="44.9162917" lon="8.3206"><ele>191.8</ele><time>2026-04-11T13:37:00.274Z</time></trkpt><trkpt lat="44.9162617" lon="8.320735"><ele>191.0</ele><time>2026-04-11T13:37:01.274Z</time></trkpt><trkpt lat="44.916235" lon="8.3208583"><ele>190.33333333333331</ele><time>2026-04-11T13:37:02.274Z</time></trkpt><trkpt lat="44.9162217" lon="8.3209717"><ele>189.66666666666666</ele><time>2026-04-11T13:37:03.274Z</time></trkpt><trkpt lat="44.9161917" lon="8.3210533"><ele>189.0</ele><time>2026-04-11T13:37:04.274Z</time></trkpt><trkpt lat="44.91616" lon="8.32116"><ele>188.33333333333334</ele><time>2026-04-11T13:37:05.275Z</time></trkpt><trkpt lat="44.9161167" lon="8.3212717"><ele>187.66666666666669</ele><time>2026-04-11T13:37:06.275Z</time></trkpt><trkpt lat="44.9160733" lon="8.3213967"><ele>187.0</ele><time>2026-04-11T13:37:07.275Z</time></trkpt><trkpt lat="44.9160433" lon="8.3215183"><ele>186.16666666666669</ele><time>2026-04-11T13:37:08.274Z</time></trkpt><trkpt lat="44.9160183" lon="8.3216417"><ele>185.33333333333334</ele><time>2026-04-11T13:37:09.275Z</time></trkpt><trkpt lat="44.91599" lon="8.32175"><ele>184.5</ele><time>2026-04-11T13:37:10.274Z</time></trkpt><trkpt lat="44.91596" lon="8.3218467"><ele>183.66666666666666</ele><time>2026-04-11T13:37:11.274Z</time></trkpt><trkpt lat="44.9159267" lon="8.3219467"><ele>182.83333333333331</ele><time>2026-04-11T13:37:12.275Z</time></trkpt><trkpt lat="44.9158883" lon="8.3220483"><ele>182.0</ele><time>2026-04-11T13:37:13.275Z</time></trkpt><trkpt lat="44.91585" lon="8.32216"><ele>183.33333333333331</ele><time>2026-04-11T13:37:14.274Z</time></trkpt><trkpt lat="44.9158067" lon="8.3222817"><ele>184.66666666666666</ele><time>2026-04-11T13:37:15.274Z</time></trkpt><trkpt lat="44.9157667" lon="8.3223933"><ele>186.0</ele><time>2026-04-11T13:37:16.274Z</time></trkpt><trkpt lat="44.9157283" lon="8.3225083"><ele>187.33333333333334</ele><time>2026-04-11T13:37:17.274Z</time></trkpt><trkpt lat="44.9156833" lon="8.322605"><ele>188.66666666666669</ele><time>2026-04-11T13:37:18.274Z</time></trkpt><trkpt lat="44.9156533" lon="8.3227117"><ele>190.0</ele><time>2026-04-11T13:37:19.274Z</time></trkpt><trkpt lat="44.9156217" lon="8.322825"><ele>190.0</ele><time>2026-04-11T13:37:20.274Z</time></trkpt><trkpt lat="44.91559" lon="8.32293"><ele>190.0</ele><time>2026-04-11T13:37:21.275Z</time></trkpt><trkpt lat="44.9155583" lon="8.32304"><ele>190.0</ele><time>2026-04-11T13:37:22.275Z</time></trkpt><trkpt lat="44.91552" lon="8.3231467"><ele>190.0</ele><time>2026-04-11T13:37:23.274Z</time></trkpt><trkpt lat="44.9154817" lon="8.3232483"><ele>190.0</ele><time>2026-04-11T13:37:24.274Z</time></trkpt><trkpt lat="44.9154383" lon="8.3233517"><ele>190.0</ele><time>2026-04-11T13:37:25.274Z</time></trkpt><trkpt lat="44.9153933" lon="8.323465"><ele>190.0</ele><time>2026-04-11T13:37:26.274Z</time></trkpt><trkpt lat="44.9153467" lon="8.3235817"><ele>190.0</ele><time>2026-04-11T13:37:27.274Z</time></trkpt><trkpt lat="44.9152667" lon="8.323805"><ele>190.0</ele><time>2026-04-11T13:37:29.274Z</time></trkpt><trkpt lat="44.915215" lon="8.3239"><ele>190.0</ele><time>2026-04-11T13:37:30.275Z</time></trkpt><trkpt lat="44.915165" lon="8.3239833"><ele>190.0</ele><time>2026-04-11T13:37:32.275Z</time></trkpt><trkpt lat="44.9152033" lon="8.3240667"><ele>189.8</ele><time>2026-04-11T13:37:35.274Z</time></trkpt><trkpt lat="44.9153233" lon="8.3241567"><ele>189.6</ele><time>2026-04-11T13:37:37.274Z</time></trkpt><trkpt lat="44.9154183" lon="8.324215"><ele>189.39999999999998</ele><time>2026-04-11T13:37:38.275Z</time></trkpt><trkpt lat="44.9155117" lon="8.3242683"><ele>189.2</ele><time>2026-04-11T13:37:39.274Z</time></trkpt><trkpt lat="44.9155967" lon="8.3243217"><ele>189.0</ele><time>2026-04-11T13:37:40.274Z</time></trkpt><trkpt lat="44.9156817" lon="8.3243733"><ele>189.0</ele><time>2026-04-11T13:37:41.274Z</time></trkpt><trkpt lat="44.9157733" lon="8.32443"><ele>189.0</ele><time>2026-04-11T13:37:42.275Z</time></trkpt><trkpt lat="44.9158583" lon="8.32447"><ele>189.0</ele><time>2026-04-11T13:37:43.274Z</time></trkpt><trkpt lat="44.9159517" lon="8.3244967"><ele>189.0</ele><time>2026-04-11T13:37:44.275Z</time></trkpt><trkpt lat="44.9160433" lon="8.3245217"><ele>189.0</ele><time>2026-04-11T13:37:45.274Z</time></trkpt><trkpt lat="44.916125" lon="8.3245417"><ele>188.0</ele><time>2026-04-11T13:37:46.274Z</time></trkpt><trkpt lat="44.9162067" lon="8.3245633"><ele>187.0</ele><time>2026-04-11T13:37:47.274Z</time></trkpt><trkpt lat="44.916295" lon="8.3246017"><ele>186.0</ele><time>2026-04-11T13:37:48.274Z</time></trkpt><trkpt lat="44.916375" lon="8.324655"><ele>185.0</ele><time>2026-04-11T13:37:49.274Z</time></trkpt><trkpt lat="44.9164633" lon="8.3247233"><ele>184.0</ele><time>2026-04-11T13:37:50.274Z</time></trkpt><trkpt lat="44.9165533" lon="8.3247883"><ele>183.5</ele><time>2026-04-11T13:37:51.275Z</time></trkpt><trkpt lat="44.9166483" lon="8.32485"><ele>183.0</ele><time>2026-04-11T13:37:52.274Z</time></trkpt><trkpt lat="44.9167383" lon="8.3249167"><ele>182.5</ele><time>2026-04-11T13:37:53.274Z</time></trkpt><trkpt lat="44.916805" lon="8.3249833"><ele>182.0</ele><time>2026-04-11T13:37:54.274Z</time></trkpt><trkpt lat="44.916865" lon="8.32506"><ele>181.5</ele><time>2026-04-11T13:37:55.274Z</time></trkpt><trkpt lat="44.916915" lon="8.3251417"><ele>181.0</ele><time>2026-04-11T13:37:56.274Z</time></trkpt><trkpt lat="44.9169533" lon="8.3252367"><ele>180.0</ele><time>2026-04-11T13:37:57.274Z</time></trkpt><trkpt lat="44.9169817" lon="8.3253267"><ele>179.0</ele><time>2026-04-11T13:37:58.274Z</time></trkpt><trkpt lat="44.91701" lon="8.3254267"><ele>178.0</ele><time>2026-04-11T13:37:59.275Z</time></trkpt><trkpt lat="44.9170233" lon="8.3255333"><ele>177.0</ele><time>2026-04-11T13:38:00.274Z</time></trkpt><trkpt lat="44.9170417" lon="8.3256467"><ele>176.0</ele><time>2026-04-11T13:38:01.274Z</time></trkpt><trkpt lat="44.917075" lon="8.32575"><ele>175.0</ele><time>2026-04-11T13:38:02.275Z</time></trkpt><trkpt lat="44.917115" lon="8.32586"><ele>175.0</ele><time>2026-04-11T13:38:03.274Z</time></trkpt><trkpt lat="44.91715" lon="8.3259783"><ele>175.0</ele><time>2026-04-11T13:38:04.274Z</time></trkpt><trkpt lat="44.9171883" lon="8.32608"><ele>175.0</ele><time>2026-04-11T13:38:05.274Z</time></trkpt><trkpt lat="44.917225" lon="8.32618"><ele>175.0</ele><time>2026-04-11T13:38:06.275Z</time></trkpt><trkpt lat="44.9172533" lon="8.3263033"><ele>175.0</ele><time>2026-04-11T13:38:07.274Z</time></trkpt><trkpt lat="44.9172717" lon="8.3264133"><ele>175.0</ele><time>2026-04-11T13:38:08.274Z</time></trkpt><trkpt lat="44.9173017" lon="8.3265167"><ele>175.16666666666669</ele><time>2026-04-11T13:38:09.275Z</time></trkpt><trkpt lat="44.9173367" lon="8.3266233"><ele>175.33333333333334</ele><time>2026-04-11T13:38:10.275Z</time></trkpt><trkpt lat="44.9173783" lon="8.32673"><ele>175.5</ele><time>2026-04-11T13:38:11.274Z</time></trkpt><trkpt lat="44.9174217" lon="8.3268383"><ele>175.66666666666666</ele><time>2026-04-11T13:38:12.275Z</time></trkpt><trkpt lat="44.9174667" lon="8.326935"><ele>175.83333333333331</ele><time>2026-04-11T13:38:13.274Z</time></trkpt><trkpt lat="44.9175067" lon="8.32704"><ele>176.0</ele><time>2026-04-11T13:38:14.275Z</time></trkpt><trkpt lat="44.9175483" lon="8.3271367"><ele>174.83333333333331</ele><time>2026-04-11T13:38:15.275Z</time></trkpt><trkpt lat="44.91759" lon="8.3272283"><ele>173.66666666666666</ele><time>2026-04-11T13:38:16.274Z</time></trkpt><trkpt lat="44.9176417" lon="8.3272917"><ele>172.5</ele><time>2026-04-11T13:38:17.274Z</time></trkpt><trkpt lat="44.9176917" lon="8.3273517"><ele>171.33333333333334</ele><time>2026-04-11T13:38:18.274Z</time></trkpt><trkpt lat="44.9177383" lon="8.3274117"><ele>170.16666666666669</ele><time>2026-04-11T13:38:19.275Z</time></trkpt><trkpt lat="44.9178183" lon="8.32754"><ele>169.0</ele><time>2026-04-11T13:38:21.274Z</time></trkpt><trkpt lat="44.9178333" lon="8.3277267"><ele>169.0</ele><time>2026-04-11T13:38:23.274Z</time></trkpt><trkpt lat="44.9178233" lon="8.3278433"><ele>169.0</ele><time>2026-04-11T13:38:24.275Z</time></trkpt><trkpt lat="44.91781" lon="8.3279633"><ele>169.0</ele><time>2026-04-11T13:38:25.274Z</time></trkpt><trkpt lat="44.9177917" lon="8.3280917"><ele>169.0</ele><time>2026-04-11T13:38:26.274Z</time></trkpt><trkpt lat="44.9177833" lon="8.32821"><ele>169.0</ele><time>2026-04-11T13:38:27.274Z</time></trkpt><trkpt lat="44.9177767" lon="8.3283433"><ele>169.0</ele><time>2026-04-11T13:38:28.274Z</time></trkpt><trkpt lat="44.91776" lon="8.3284733"><ele>168.39999999999998</ele><time>2026-04-11T13:38:29.274Z</time></trkpt><trkpt lat="44.9177367" lon="8.3286217"><ele>167.8</ele><time>2026-04-11T13:38:30.275Z</time></trkpt><trkpt lat="44.917705" lon="8.3287617"><ele>167.2</ele><time>2026-04-11T13:38:31.275Z</time></trkpt><trkpt lat="44.91768" lon="8.3288967"><ele>166.60000000000002</ele><time>2026-04-11T13:38:32.274Z</time></trkpt><trkpt lat="44.9176583" lon="8.32902"><ele>166.0</ele><time>2026-04-11T13:38:33.274Z</time></trkpt><trkpt lat="44.917625" lon="8.32916"><ele>165.8</ele><time>2026-04-11T13:38:34.274Z</time></trkpt><trkpt lat="44.9176" lon="8.3293017"><ele>165.60000000000002</ele><time>2026-04-11T13:38:35.274Z</time></trkpt><trkpt lat="44.91757" lon="8.3294467"><ele>165.4</ele><time>2026-04-11T13:38:36.274Z</time></trkpt><trkpt lat="44.917545" lon="8.3295817"><ele>165.2</ele><time>2026-04-11T13:38:37.275Z</time></trkpt><trkpt lat="44.9175233" lon="8.3297117"><ele>165.0</ele><time>2026-04-11T13:38:38.275Z</time></trkpt><trkpt lat="44.91751" lon="8.329845"><ele>165.66666666666666</ele><time>2026-04-11T13:38:39.274Z</time></trkpt><trkpt lat="44.91749" lon="8.3299667"><ele>166.33333333333334</ele><time>2026-04-11T13:38:40.274Z</time></trkpt><trkpt lat="44.9174717" lon="8.330075"><ele>167.0</ele><time>2026-04-11T13:38:41.274Z</time></trkpt><trkpt lat="44.91746" lon="8.3301767"><ele>167.66666666666669</ele><time>2026-04-11T13:38:42.274Z</time></trkpt><trkpt lat="44.9174567" lon="8.33027"><ele>168.33333333333334</ele><time>2026-04-11T13:38:43.274Z</time></trkpt><trkpt lat="44.91747" lon="8.3304233"><ele>169.0</ele><time>2026-04-11T13:38:45.275Z</time></trkpt><trkpt lat="44.9175317" lon="8.330585"><ele>167.16666666666669</ele><time>2026-04-11T13:38:47.274Z</time></trkpt><trkpt lat="44.9175717" lon="8.3306817"><ele>165.33333333333334</ele><time>2026-04-11T13:38:48.275Z</time></trkpt><trkpt lat="44.9176267" lon="8.3307667"><ele>163.5</ele><time>2026-04-11T13:38:49.274Z</time></trkpt><trkpt lat="44.91769" lon="8.3308333"><ele>161.66666666666666</ele><time>2026-04-11T13:38:50.274Z</time></trkpt><trkpt lat="44.91776" lon="8.3308883"><ele>159.83333333333331</ele><time>2026-04-11T13:38:51.275Z</time></trkpt><trkpt lat="44.9178333" lon="8.330955"><ele>158.0</ele><time>2026-04-11T13:38:52.274Z</time></trkpt><trkpt lat="44.91791" lon="8.3310117"><ele>158.0</ele><time>2026-04-11T13:38:53.274Z</time></trkpt><trkpt lat="44.917985" lon="8.3310583"><ele>158.0</ele><time>2026-04-11T13:38:54.275Z</time></trkpt><trkpt lat="44.9180633" lon="8.331105"><ele>158.0</ele><time>2026-04-11T13:38:55.275Z</time></trkpt><trkpt lat="44.9181417" lon="8.3311517"><ele>158.0</ele><time>2026-04-11T13:38:56.274Z</time></trkpt><trkpt lat="44.9182167" lon="8.33121"><ele>158.0</ele><time>2026-04-11T13:38:57.274Z</time></trkpt><trkpt lat="44.9182933" lon="8.3312633"><ele>158.0</ele><time>2026-04-11T13:38:58.274Z</time></trkpt><trkpt lat="44.9183767" lon="8.3313183"><ele>157.20000000000002</ele><time>2026-04-11T13:38:59.274Z</time></trkpt><trkpt lat="44.9184717" lon="8.3313583"><ele>156.4</ele><time>2026-04-11T13:39:00.274Z</time></trkpt><trkpt lat="44.9185683" lon="8.3313983"><ele>155.60000000000002</ele><time>2026-04-11T13:39:01.274Z</time></trkpt><trkpt lat="44.918665" lon="8.3314217"><ele>154.8</ele><time>2026-04-11T13:39:02.274Z</time></trkpt><trkpt lat="44.9187417" lon="8.3314583"><ele>154.0</ele><time>2026-04-11T13:39:03.275Z</time></trkpt><trkpt lat="44.9188167" lon="8.3314867"><ele>154.0</ele><time>2026-04-11T13:39:04.274Z</time></trkpt><trkpt lat="44.9188767" lon="8.3315317"><ele>154.0</ele><time>2026-04-11T13:39:05.274Z</time></trkpt><trkpt lat="44.9189333" lon="8.3315833"><ele>154.0</ele><time>2026-04-11T13:39:06.274Z</time></trkpt><trkpt lat="44.918995" lon="8.3316283"><ele>154.0</ele><time>2026-04-11T13:39:07.274Z</time></trkpt><trkpt lat="44.91906" lon="8.3316733"><ele>154.0</ele><time>2026-04-11T13:39:08.274Z</time></trkpt><trkpt lat="44.9191567" lon="8.3317567"><ele>154.0</ele><time>2026-04-11T13:39:10.274Z</time></trkpt><trkpt lat="44.919225" lon="8.3318933"><ele>155.5</ele><time>2026-04-11T13:39:12.274Z</time></trkpt><trkpt lat="44.919245" lon="8.3319817"><ele>157.0</ele><time>2026-04-11T13:39:13.274Z</time></trkpt><trkpt lat="44.9192533" lon="8.3320817"><ele>158.5</ele><time>2026-04-11T13:39:14.274Z</time></trkpt><trkpt lat="44.9192483" lon="8.33218"><ele>160.0</ele><time>2026-04-11T13:39:15.274Z</time></trkpt><trkpt lat="44.9192483" lon="8.33227"><ele>161.5</ele><time>2026-04-11T13:39:16.274Z</time></trkpt><trkpt lat="44.91927" lon="8.33244"><ele>163.0</ele><time>2026-04-11T13:39:18.275Z</time></trkpt><trkpt lat="44.919285" lon="8.33254"><ele>163.0</ele><time>2026-04-11T13:39:19.274Z</time></trkpt><trkpt lat="44.9193033" lon="8.3326267"><ele>163.0</ele><time>2026-04-11T13:39:20.274Z</time></trkpt><trkpt lat="44.9193567" lon="8.3327817"><ele>163.0</ele><time>2026-04-11T13:39:22.274Z</time></trkpt><trkpt lat="44.919395" lon="8.3329033"><ele>163.0</ele><time>2026-04-11T13:39:24.274Z</time></trkpt><trkpt lat="44.9193233" lon="8.332995"><ele>163.0</ele><time>2026-04-11T13:39:28.275Z</time></trkpt><trkpt lat="44.919205" lon="8.3330017"><ele>163.16666666666669</ele><time>2026-04-11T13:39:30.274Z</time></trkpt><trkpt lat="44.9191333" lon="8.33301"><ele>163.33333333333334</ele><time>2026-04-11T13:39:31.275Z</time></trkpt><trkpt lat="44.9190517" lon="8.3330067"><ele>163.5</ele><time>2026-04-11T13:39:32.275Z</time></trkpt><trkpt lat="44.9189767" lon="8.3330133"><ele>163.66666666666666</ele><time>2026-04-11T13:39:33.274Z</time></trkpt><trkpt lat="44.9188983" lon="8.3330267"><ele>163.83333333333331</ele><time>2026-04-11T13:39:34.275Z</time></trkpt><trkpt lat="44.9188233" lon="8.3330433"><ele>164.0</ele><time>2026-04-11T13:39:35.274Z</time></trkpt><trkpt lat="44.91875" lon="8.33308"><ele>164.0</ele><time>2026-04-11T13:39:36.274Z</time></trkpt><trkpt lat="44.918685" lon="8.333135"><ele>164.0</ele><time>2026-04-11T13:39:37.275Z</time></trkpt><trkpt lat="44.9186333" lon="8.3331983"><ele>164.0</ele><time>2026-04-11T13:39:38.274Z</time></trkpt><trkpt lat="44.9185867" lon="8.3332633"><ele>164.0</ele><time>2026-04-11T13:39:39.274Z</time></trkpt><trkpt lat="44.91852" lon="8.333365"><ele>164.0</ele><time>2026-04-11T13:39:41.274Z</time></trkpt><trkpt lat="44.9184617" lon="8.33343"><ele>164.0</ele><time>2026-04-11T13:39:43.275Z</time></trkpt><trkpt lat="44.9183633" lon="8.3334267"><ele>162.0</ele><time>2026-04-11T13:39:45.275Z</time></trkpt><trkpt lat="44.91826" lon="8.3333583"><ele>160.0</ele><time>2026-04-11T13:39:47.274Z</time></trkpt><trkpt lat="44.9182083" lon="8.3333067"><ele>158.0</ele><time>2026-04-11T13:39:48.275Z</time></trkpt><trkpt lat="44.91813" lon="8.3332367"><ele>156.0</ele><time>2026-04-11T13:39:50.274Z</time></trkpt><trkpt lat="44.918025" lon="8.333215"><ele>154.0</ele><time>2026-04-11T13:39:52.274Z</time></trkpt><trkpt lat="44.9179083" lon="8.333235"><ele>154.0</ele><time>2026-04-11T13:39:54.274Z</time></trkpt><trkpt lat="44.9178" lon="8.3332683"><ele>154.0</ele><time>2026-04-11T13:39:56.274Z</time></trkpt><trkpt lat="44.9176867" lon="8.3333083"><ele>154.0</ele><time>2026-04-11T13:39:58.274Z</time></trkpt><trkpt lat="44.9175883" lon="8.3333467"><ele>154.0</ele><time>2026-04-11T13:40:00.274Z</time></trkpt><trkpt lat="44.9175017" lon="8.3333833"><ele>154.0</ele><time>2026-04-11T13:40:02.274Z</time></trkpt><trkpt lat="44.9174017" lon="8.3334"><ele>154.0</ele><time>2026-04-11T13:40:04.275Z</time></trkpt><trkpt lat="44.917335" lon="8.333405"><ele>154.0</ele><time>2026-04-11T13:40:05.275Z</time></trkpt><trkpt lat="44.917265" lon="8.33342"><ele>154.0</ele><time>2026-04-11T13:40:06.274Z</time></trkpt><trkpt lat="44.91719" lon="8.3334433"><ele>154.0</ele><time>2026-04-11T13:40:07.275Z</time></trkpt><trkpt lat="44.9171233" lon="8.3334733"><ele>154.0</ele><time>2026-04-11T13:40:08.274Z</time></trkpt><trkpt lat="44.9170583" lon="8.3334867"><ele>154.0</ele><time>2026-04-11T13:40:09.274Z</time></trkpt><trkpt lat="44.9169917" lon="8.3335083"><ele>154.0</ele><time>2026-04-11T13:40:10.275Z</time></trkpt><trkpt lat="44.9169283" lon="8.333545"><ele>154.0</ele><time>2026-04-11T13:40:11.274Z</time></trkpt><trkpt lat="44.9168617" lon="8.3335967"><ele>154.0</ele><time>2026-04-11T13:40:12.274Z</time></trkpt><trkpt lat="44.916805" lon="8.3336683"><ele>154.0</ele><time>2026-04-11T13:40:13.274Z</time></trkpt><trkpt lat="44.91675" lon="8.33374"><ele>154.0</ele><time>2026-04-11T13:40:14.274Z</time></trkpt><trkpt lat="44.9166883" lon="8.33382"><ele>154.0</ele><time>2026-04-11T13:40:15.274Z</time></trkpt><trkpt lat="44.9166233" lon="8.3338817"><ele>154.0</ele><time>2026-04-11T13:40:16.274Z</time></trkpt><trkpt lat="44.9165533" lon="8.333945"><ele>154.16666666666669</ele><time>2026-04-11T13:40:17.274Z</time></trkpt><trkpt lat="44.9164717" lon="8.3339983"><ele>154.33333333333334</ele><time>2026-04-11T13:40:18.274Z</time></trkpt><trkpt lat="44.9163967" lon="8.3340467"><ele>154.5</ele><time>2026-04-11T13:40:19.274Z</time></trkpt><trkpt lat="44.91632" lon="8.3340883"><ele>154.66666666666666</ele><time>2026-04-11T13:40:20.274Z</time></trkpt><trkpt lat="44.9162383" lon="8.3341083"><ele>154.83333333333331</ele><time>2026-04-11T13:40:21.274Z</time></trkpt><trkpt lat="44.9161517" lon="8.3341333"><ele>155.0</ele><time>2026-04-11T13:40:22.274Z</time></trkpt><trkpt lat="44.9160617" lon="8.334155"><ele>155.0</ele><time>2026-04-11T13:40:23.274Z</time></trkpt><trkpt lat="44.9159717" lon="8.3341883"><ele>155.0</ele><time>2026-04-11T13:40:24.275Z</time></trkpt><trkpt lat="44.91588" lon="8.3342283"><ele>155.0</ele><time>2026-04-11T13:40:25.274Z</time></trkpt><trkpt lat="44.9157933" lon="8.3342717"><ele>155.0</ele><time>2026-04-11T13:40:26.275Z</time></trkpt><trkpt lat="44.915705" lon="8.3343167"><ele>155.0</ele><time>2026-04-11T13:40:27.274Z</time></trkpt><trkpt lat="44.91563" lon="8.3343617"><ele>154.33333333333331</ele><time>2026-04-11T13:40:28.274Z</time></trkpt><trkpt lat="44.9155617" lon="8.3343933"><ele>153.66666666666666</ele><time>2026-04-11T13:40:29.273Z</time></trkpt><trkpt lat="44.91545" lon="8.3344467"><ele>153.0</ele><time>2026-04-11T13:40:31.273Z</time></trkpt><trkpt lat="44.91539" lon="8.3344817"><ele>152.33333333333334</ele><time>2026-04-11T13:40:32.273Z</time></trkpt><trkpt lat="44.9153267" lon="8.334505"><ele>151.66666666666669</ele><time>2026-04-11T13:40:33.274Z</time></trkpt><trkpt lat="44.9152633" lon="8.334525"><ele>151.0</ele><time>2026-04-11T13:40:34.273Z</time></trkpt><trkpt lat="44.915195" lon="8.33454"><ele>151.0</ele><time>2026-04-11T13:40:35.273Z</time></trkpt><trkpt lat="44.91513" lon="8.33455"><ele>151.0</ele><time>2026-04-11T13:40:36.273Z</time></trkpt><trkpt lat="44.9150617" lon="8.3345583"><ele>151.0</ele><time>2026-04-11T13:40:37.274Z</time></trkpt><trkpt lat="44.914965" lon="8.3345633"><ele>151.0</ele><time>2026-04-11T13:40:39.273Z</time></trkpt><trkpt lat="44.9148567" lon="8.33456"><ele>151.0</ele><time>2026-04-11T13:40:41.274Z</time></trkpt><trkpt lat="44.9147367" lon="8.3345617"><ele>150.66666666666669</ele><time>2026-04-11T13:40:43.273Z</time></trkpt><trkpt lat="44.9146717" lon="8.3345717"><ele>150.33333333333334</ele><time>2026-04-11T13:40:44.273Z</time></trkpt><trkpt lat="44.914605" lon="8.3345917"><ele>150.0</ele><time>2026-04-11T13:40:45.273Z</time></trkpt><trkpt lat="44.9145283" lon="8.3346167"><ele>149.66666666666666</ele><time>2026-04-11T13:40:46.274Z</time></trkpt><trkpt lat="44.914455" lon="8.33463"><ele>149.33333333333331</ele><time>2026-04-11T13:40:47.273Z</time></trkpt><trkpt lat="44.9143867" lon="8.3346417"><ele>149.0</ele><time>2026-04-11T13:40:48.273Z</time></trkpt><trkpt lat="44.91427" lon="8.3346667"><ele>149.0</ele><time>2026-04-11T13:40:50.274Z</time></trkpt><trkpt lat="44.914205" lon="8.334685"><ele>149.0</ele><time>2026-04-11T13:40:51.274Z</time></trkpt><trkpt lat="44.9141333" lon="8.334695"><ele>149.0</ele><time>2026-04-11T13:40:52.274Z</time></trkpt><trkpt lat="44.9140633" lon="8.334695"><ele>149.0</ele><time>2026-04-11T13:40:53.273Z</time></trkpt><trkpt lat="44.9139917" lon="8.3346917"><ele>149.0</ele><time>2026-04-11T13:40:54.273Z</time></trkpt><trkpt lat="44.9139167" lon="8.3346983"><ele>149.0</ele><time>2026-04-11T13:40:55.274Z</time></trkpt><trkpt lat="44.9138417" lon="8.3347117"><ele>149.0</ele><time>2026-04-11T13:40:56.273Z</time></trkpt><trkpt lat="44.9137767" lon="8.3347233"><ele>149.5</ele><time>2026-04-11T13:40:57.274Z</time></trkpt><trkpt lat="44.9136517" lon="8.3347517"><ele>150.0</ele><time>2026-04-11T13:40:59.274Z</time></trkpt><trkpt lat="44.9135817" lon="8.33478"><ele>150.5</ele><time>2026-04-11T13:41:00.273Z</time></trkpt><trkpt lat="44.913505" lon="8.334815"><ele>151.0</ele><time>2026-04-11T13:41:01.273Z</time></trkpt><trkpt lat="44.9134317" lon="8.3348533"><ele>151.5</ele><time>2026-04-11T13:41:02.273Z</time></trkpt><trkpt lat="44.9133717" lon="8.3348933"><ele>152.0</ele><time>2026-04-11T13:41:03.273Z</time></trkpt><trkpt lat="44.913315" lon="8.3349383"><ele>150.79999999999998</ele><time>2026-04-11T13:41:04.273Z</time></trkpt><trkpt lat="44.9132633" lon="8.3349967"><ele>149.6</ele><time>2026-04-11T13:41:05.273Z</time></trkpt><trkpt lat="44.91319" lon="8.335105"><ele>148.39999999999998</ele><time>2026-04-11T13:41:07.273Z</time></trkpt><trkpt lat="44.9131317" lon="8.3352017"><ele>147.2</ele><time>2026-04-11T13:41:09.274Z</time></trkpt><trkpt lat="44.91305" lon="8.335295"><ele>146.0</ele><time>2026-04-11T13:41:11.273Z</time></trkpt><trkpt lat="44.9129567" lon="8.3354017"><ele>146.0</ele><time>2026-04-11T13:41:13.274Z</time></trkpt><trkpt lat="44.9129067" lon="8.33546"><ele>146.0</ele><time>2026-04-11T13:41:14.274Z</time></trkpt><trkpt lat="44.912815" lon="8.3355767"><ele>146.0</ele><time>2026-04-11T13:41:16.273Z</time></trkpt><trkpt lat="44.91277" lon="8.33564"><ele>146.0</ele><time>2026-04-11T13:41:17.273Z</time></trkpt><trkpt lat="44.912735" lon="8.3357217"><ele>146.0</ele><time>2026-04-11T13:41:18.273Z</time></trkpt><trkpt lat="44.912685" lon="8.3357883"><ele>146.0</ele><time>2026-04-11T13:41:19.273Z</time></trkpt><trkpt lat="44.91264" lon="8.335855"><ele>146.2</ele><time>2026-04-11T13:41:20.273Z</time></trkpt><trkpt lat="44.91258" lon="8.33593"><ele>146.39999999999998</ele><time>2026-04-11T13:41:21.274Z</time></trkpt><trkpt lat="44.9125333" lon="8.3359917"><ele>146.6</ele><time>2026-04-11T13:41:22.273Z</time></trkpt><trkpt lat="44.912435" lon="8.336145"><ele>146.79999999999998</ele><time>2026-04-11T13:41:24.274Z</time></trkpt><trkpt lat="44.9123717" lon="8.3362367"><ele>147.0</ele><time>2026-04-11T13:41:25.273Z</time></trkpt><trkpt lat="44.9123133" lon="8.3363233"><ele>147.4</ele><time>2026-04-11T13:41:26.273Z</time></trkpt><trkpt lat="44.9122467" lon="8.3364017"><ele>147.79999999999998</ele><time>2026-04-11T13:41:27.273Z</time></trkpt><trkpt lat="44.91218" lon="8.3364983"><ele>148.2</ele><time>2026-04-11T13:41:28.273Z</time></trkpt><trkpt lat="44.9121167" lon="8.3366033"><ele>148.6</ele><time>2026-04-11T13:41:29.273Z</time></trkpt><trkpt lat="44.91206" lon="8.3367083"><ele>149.0</ele><time>2026-04-11T13:41:30.274Z</time></trkpt><trkpt lat="44.912015" lon="8.33681"><ele>149.0</ele><time>2026-04-11T13:41:31.273Z</time></trkpt><trkpt lat="44.9119867" lon="8.3369267"><ele>149.0</ele><time>2026-04-11T13:41:32.273Z</time></trkpt><trkpt lat="44.9119617" lon="8.3370383"><ele>149.0</ele><time>2026-04-11T13:41:33.274Z</time></trkpt><trkpt lat="44.91194" lon="8.3371433"><ele>149.0</ele><time>2026-04-11T13:41:34.273Z</time></trkpt><trkpt lat="44.9119117" lon="8.3372417"><ele>149.0</ele><time>2026-04-11T13:41:35.274Z</time></trkpt><trkpt lat="44.9118833" lon="8.3373267"><ele>149.0</ele><time>2026-04-11T13:41:36.273Z</time></trkpt><trkpt lat="44.9118117" lon="8.3374267"><ele>148.83333333333331</ele><time>2026-04-11T13:41:38.273Z</time></trkpt><trkpt lat="44.911745" lon="8.33749"><ele>148.66666666666666</ele><time>2026-04-11T13:41:40.273Z</time></trkpt><trkpt lat="44.9116733" lon="8.33757"><ele>148.5</ele><time>2026-04-11T13:42:06.273Z</time></trkpt><trkpt lat="44.9115917" lon="8.337655"><ele>148.33333333333334</ele><time>2026-04-11T13:42:23.273Z</time></trkpt><trkpt lat="44.91156" lon="8.3377417"><ele>148.16666666666669</ele><time>2026-04-11T13:44:47.272Z</time></trkpt><trkpt lat="44.9115" lon="8.3377983"><ele>148.0</ele><time>2026-04-11T13:44:50.272Z</time></trkpt><trkpt lat="44.9114617" lon="8.337945"><ele>148.0</ele><time>2026-04-11T13:45:15.272Z</time></trkpt><trkpt lat="44.91139" lon="8.3380033"><ele>148.0</ele><time>2026-04-11T13:47:11.273Z</time></trkpt><trkpt lat="44.9113067" lon="8.3381183"><ele>148.0</ele><time>2026-04-11T13:47:47.272Z</time></trkpt><trkpt lat="44.9112783" lon="8.338215"><ele>148.0</ele><time>2026-04-11T13:47:49.272Z</time></trkpt><trkpt lat="44.9112367" lon="8.3383033"><ele>148.0</ele><time>2026-04-11T13:47:51.273Z</time></trkpt><trkpt lat="44.9111317" lon="8.33842"><ele>147.8</ele><time>2026-04-11T13:49:09.271Z</time></trkpt><trkpt lat="44.911105" lon="8.3385233"><ele>147.60000000000002</ele><time>2026-04-11T13:49:13.271Z</time></trkpt><trkpt lat="44.9110567" lon="8.338635"><ele>147.39999999999998</ele><time>2026-04-11T13:49:21.271Z</time></trkpt><trkpt lat="44.9110467" lon="8.33883"><ele>147.2</ele><time>2026-04-11T13:49:24.271Z</time></trkpt><trkpt lat="44.9109783" lon="8.3389"><ele>147.0</ele><time>2026-04-11T13:49:26.271Z</time></trkpt><trkpt lat="44.9108883" lon="8.3389733"><ele>147.0</ele><time>2026-04-11T13:49:28.272Z</time></trkpt><trkpt lat="44.91079" lon="8.3390767"><ele>147.0</ele><time>2026-04-11T13:49:30.272Z</time></trkpt><trkpt lat="44.9106933" lon="8.3391717"><ele>147.0</ele><time>2026-04-11T13:49:32.271Z</time></trkpt><trkpt lat="44.910595" lon="8.3392117"><ele>147.0</ele><time>2026-04-11T13:49:34.271Z</time></trkpt><trkpt lat="44.9105283" lon="8.3391783"><ele>147.0</ele><time>2026-04-11T13:49:36.271Z</time></trkpt><trkpt lat="44.91046" lon="8.339135"><ele>147.0</ele><time>2026-04-11T13:49:39.271Z</time></trkpt><trkpt lat="44.9104083" lon="8.3390467"><ele>147.0</ele><time>2026-04-11T13:49:42.271Z</time></trkpt><trkpt lat="44.9103383" lon="8.3388983"><ele>147.0</ele><time>2026-04-11T13:50:05.271Z</time></trkpt><trkpt lat="44.9102417" lon="8.338805"><ele>147.0</ele><time>2026-04-11T13:50:09.271Z</time></trkpt><trkpt lat="44.91016" lon="8.3387583"><ele>147.0</ele><time>2026-04-11T13:50:11.271Z</time></trkpt><trkpt lat="44.91004" lon="8.3387433"><ele>147.0</ele><time>2026-04-11T13:50:15.271Z</time></trkpt><trkpt lat="44.9100733" lon="8.3388983"><ele>147.0</ele><time>2026-04-11T13:51:19.271Z</time></trkpt><trkpt lat="44.9101067" lon="8.338985"><ele>147.0</ele><time>2026-04-11T13:51:22.271Z</time></trkpt><trkpt lat="44.91011" lon="8.3390817"><ele>147.0</ele><time>2026-04-11T13:51:25.272Z</time></trkpt><trkpt lat="44.9100417" lon="8.3391467"><ele>147.0</ele><time>2026-04-11T13:51:29.271Z</time></trkpt><trkpt lat="44.9099617" lon="8.3392267"><ele>147.0</ele><time>2026-04-11T13:51:31.272Z</time></trkpt><trkpt lat="44.9098967" lon="8.339255"><ele>146.5</ele><time>2026-04-11T13:51:33.272Z</time></trkpt><trkpt lat="44.9098083" lon="8.3392967"><ele>146.0</ele><time>2026-04-11T13:51:36.271Z</time></trkpt><trkpt lat="44.909705" lon="8.339395"><ele>145.5</ele><time>2026-04-11T13:51:39.272Z</time></trkpt><trkpt lat="44.909655" lon="8.3394683"><ele>145.0</ele><time>2026-04-11T13:51:44.271Z</time></trkpt><trkpt lat="44.90955" lon="8.3396433"><ele>145.0</ele><time>2026-04-11T13:51:55.27Z</time></trkpt><trkpt lat="44.9094883" lon="8.3396767"><ele>145.0</ele><time>2026-04-11T13:51:57.27Z</time></trkpt><trkpt lat="44.9094683" lon="8.3398383"><ele>145.0</ele><time>2026-04-11T13:52:16.27Z</time></trkpt><trkpt lat="44.9094183" lon="8.339895"><ele>145.0</ele><time>2026-04-11T13:53:28.27Z</time></trkpt><trkpt lat="44.9093367" lon="8.33999"><ele>145.0</ele><time>2026-04-11T13:53:35.271Z</time></trkpt><trkpt lat="44.9092933" lon="8.3400933"><ele>145.0</ele><time>2026-04-11T13:53:37.271Z</time></trkpt><trkpt lat="44.9091967" lon="8.340205"><ele>145.6</ele><time>2026-04-11T13:53:39.27Z</time></trkpt><trkpt lat="44.9090967" lon="8.340305"><ele>146.2</ele><time>2026-04-11T13:53:41.27Z</time></trkpt><trkpt lat="44.9090417" lon="8.3403483"><ele>146.8</ele><time>2026-04-11T13:53:42.27Z</time></trkpt><trkpt lat="44.9089417" lon="8.3404117"><ele>147.4</ele><time>2026-04-11T13:53:44.27Z</time></trkpt><trkpt lat="44.9088633" lon="8.3404767"><ele>148.0</ele><time>2026-04-11T13:53:46.27Z</time></trkpt><trkpt lat="44.908795" lon="8.3405333"><ele>147.6</ele><time>2026-04-11T13:53:48.27Z</time></trkpt><trkpt lat="44.9087183" lon="8.3405617"><ele>147.20000000000002</ele><time>2026-04-11T13:53:51.271Z</time></trkpt><trkpt lat="44.9086483" lon="8.340605"><ele>146.8</ele><time>2026-04-11T13:53:54.27Z</time></trkpt><trkpt lat="44.908495" lon="8.3406967"><ele>146.4</ele><time>2026-04-11T13:54:16.27Z</time></trkpt><trkpt lat="44.9084" lon="8.340765"><ele>146.0</ele><time>2026-04-11T13:54:24.27Z</time></trkpt><trkpt lat="44.9083617" lon="8.3408533"><ele>146.0</ele><time>2026-04-11T13:54:28.27Z</time></trkpt><trkpt lat="44.90832" lon="8.340935"><ele>146.0</ele><time>2026-04-11T13:54:31.27Z</time></trkpt><trkpt lat="44.9082633" lon="8.3410167"><ele>146.0</ele><time>2026-04-11T13:54:34.271Z</time></trkpt><trkpt lat="44.9081867" lon="8.3411633"><ele>146.0</ele><time>2026-04-11T13:54:39.27Z</time></trkpt><trkpt lat="44.908195" lon="8.3412583"><ele>146.0</ele><time>2026-04-11T13:54:43.27Z</time></trkpt><trkpt lat="44.9081633" lon="8.3413367"><ele>146.0</ele><time>2026-04-11T13:54:46.27Z</time></trkpt><trkpt lat="44.9081217" lon="8.3414083"><ele>147.14285714285714</ele><time>2026-04-11T13:54:49.271Z</time></trkpt><trkpt lat="44.9080633" lon="8.3414917"><ele>148.28571428571428</ele><time>2026-04-11T13:54:52.271Z</time></trkpt><trkpt lat="44.90802" lon="8.3415617"><ele>149.42857142857144</ele><time>2026-04-11T13:54:54.27Z</time></trkpt><trkpt lat="44.9079767" lon="8.3416317"><ele>150.57142857142856</ele><time>2026-04-11T13:54:56.27Z</time></trkpt><trkpt lat="44.9079217" lon="8.3417233"><ele>151.71428571428572</ele><time>2026-04-11T13:54:58.27Z</time></trkpt><trkpt lat="44.9078617" lon="8.34179"><ele>152.85714285714286</ele><time>2026-04-11T13:55:02.27Z</time></trkpt><trkpt lat="44.9078133" lon="8.341855"><ele>154.0</ele><time>2026-04-11T13:55:05.27Z</time></trkpt><trkpt lat="44.9077767" lon="8.34196"><ele>154.0</ele><time>2026-04-11T13:55:09.27Z</time></trkpt><trkpt lat="44.9077233" lon="8.3420417"><ele>154.0</ele><time>2026-04-11T13:55:12.27Z</time></trkpt><trkpt lat="44.9076667" lon="8.3421083"><ele>154.0</ele><time>2026-04-11T13:55:15.27Z</time></trkpt><trkpt lat="44.907615" lon="8.34216"><ele>154.0</ele><time>2026-04-11T13:55:17.27Z</time></trkpt><trkpt lat="44.9075533" lon="8.34222"><ele>154.0</ele><time>2026-04-11T13:55:20.27Z</time></trkpt><trkpt lat="44.9075067" lon="8.3423067"><ele>154.0</ele><time>2026-04-11T13:55:24.27Z</time></trkpt><trkpt lat="44.907455" lon="8.3423733"><ele>154.0</ele><time>2026-04-11T13:55:28.27Z</time></trkpt><trkpt lat="44.9073917" lon="8.3424417"><ele>151.8</ele><time>2026-04-11T13:55:31.271Z</time></trkpt><trkpt lat="44.90731" lon="8.3425"><ele>149.60000000000002</ele><time>2026-04-11T13:55:34.27Z</time></trkpt><trkpt lat="44.9072483" lon="8.3425483"><ele>147.4</ele><time>2026-04-11T13:55:36.27Z</time></trkpt><trkpt lat="44.9071917" lon="8.3426183"><ele>145.20000000000002</ele><time>2026-04-11T13:55:38.27Z</time></trkpt><trkpt lat="44.907135" lon="8.342705"><ele>143.0</ele><time>2026-04-11T13:55:41.271Z</time></trkpt><trkpt lat="44.9070783" lon="8.3428833"><ele>143.0</ele><time>2026-04-11T13:55:44.271Z</time></trkpt><trkpt lat="44.9070483" lon="8.3430067"><ele>143.0</ele><time>2026-04-11T13:55:46.269Z</time></trkpt><trkpt lat="44.907025" lon="8.343105"><ele>143.0</ele><time>2026-04-11T13:55:48.269Z</time></trkpt><trkpt lat="44.9069967" lon="8.34321"><ele>143.0</ele><time>2026-04-11T13:55:50.269Z</time></trkpt><trkpt lat="44.90696" lon="8.3433017"><ele>143.0</ele><time>2026-04-11T13:55:52.27Z</time></trkpt><trkpt lat="44.9068967" lon="8.343405"><ele>143.0</ele><time>2026-04-11T13:55:54.27Z</time></trkpt><trkpt lat="44.90684" lon="8.343505"><ele>143.16666666666666</ele><time>2026-04-11T13:55:56.269Z</time></trkpt><trkpt lat="44.9067883" lon="8.3435817"><ele>143.33333333333331</ele><time>2026-04-11T13:55:58.269Z</time></trkpt><trkpt lat="44.906715" lon="8.3436833"><ele>143.5</ele><time>2026-04-11T13:56:01.27Z</time></trkpt><trkpt lat="44.906665" lon="8.3437767"><ele>143.66666666666666</ele><time>2026-04-11T13:56:04.27Z</time></trkpt><trkpt lat="44.90662" lon="8.3438617"><ele>143.83333333333334</ele><time>2026-04-11T13:56:06.269Z</time></trkpt><trkpt lat="44.9065567" lon="8.3439567"><ele>144.0</ele><time>2026-04-11T13:56:09.269Z</time></trkpt><trkpt lat="44.9065167" lon="8.3440333"><ele>144.0</ele><time>2026-04-11T13:56:11.269Z</time></trkpt><trkpt lat="44.9064783" lon="8.3441133"><ele>144.0</ele><time>2026-04-11T13:56:13.27Z</time></trkpt><trkpt lat="44.9064433" lon="8.3442117"><ele>144.0</ele><time>2026-04-11T13:56:16.27Z</time></trkpt><trkpt lat="44.9064067" lon="8.344295"><ele>144.0</ele><time>2026-04-11T13:56:18.27Z</time></trkpt><trkpt lat="44.90636" lon="8.3443883"><ele>144.0</ele><time>2026-04-11T13:56:20.27Z</time></trkpt><trkpt lat="44.9063067" lon="8.344485"><ele>144.0</ele><time>2026-04-11T13:56:22.269Z</time></trkpt><trkpt lat="44.9062667" lon="8.3445667"><ele>144.00000000000003</ele><time>2026-04-11T13:56:24.269Z</time></trkpt><trkpt lat="44.9062417" lon="8.3446633"><ele>144.0</ele><time>2026-04-11T13:56:27.269Z</time></trkpt><trkpt lat="44.9062183" lon="8.3447483"><ele>144.0</ele><time>2026-04-11T13:56:30.27Z</time></trkpt><trkpt lat="44.906205" lon="8.3448617"><ele>144.0</ele><time>2026-04-11T13:56:33.269Z</time></trkpt><trkpt lat="44.9061867" lon="8.3449517"><ele>144.0</ele><time>2026-04-11T13:56:35.269Z</time></trkpt><trkpt lat="44.9061833" lon="8.3450417"><ele>144.00000000000003</ele><time>2026-04-11T13:56:37.27Z</time></trkpt><trkpt lat="44.9061783" lon="8.3451317"><ele>144.0</ele><time>2026-04-11T13:56:39.27Z</time></trkpt><trkpt lat="44.9061767" lon="8.34525"><ele>144.00000000000003</ele><time>2026-04-11T13:56:42.27Z</time></trkpt><trkpt lat="44.9061567" lon="8.3453633"><ele>144.0</ele><time>2026-04-11T13:56:50.269Z</time></trkpt><trkpt lat="44.9061583" lon="8.3454567"><ele>144.0</ele><time>2026-04-11T13:56:52.27Z</time></trkpt><trkpt lat="44.9061583" lon="8.3455733"><ele>144.0</ele><time>2026-04-11T13:56:54.269Z</time></trkpt><trkpt lat="44.9061417" lon="8.3456783"><ele>144.0</ele><time>2026-04-11T13:56:57.269Z</time></trkpt><trkpt lat="44.9061283" lon="8.3457733"><ele>144.00000000000003</ele><time>2026-04-11T13:57:00.27Z</time></trkpt><trkpt lat="44.9061" lon="8.3458683"><ele>144.0</ele><time>2026-04-11T13:57:04.269Z</time></trkpt><trkpt lat="44.9060783" lon="8.34599"><ele>144.00000000000003</ele><time>2026-04-11T13:57:07.269Z</time></trkpt><trkpt lat="44.9060633" lon="8.3460783"><ele>144.0</ele><time>2026-04-11T13:57:09.269Z</time></trkpt><trkpt lat="44.9060367" lon="8.3461783"><ele>144.0</ele><time>2026-04-11T13:57:12.27Z</time></trkpt><trkpt lat="44.9060033" lon="8.34628"><ele>144.0</ele><time>2026-04-11T13:57:15.27Z</time></trkpt><trkpt lat="44.905995" lon="8.3463717"><ele>144.0</ele><time>2026-04-11T13:57:18.269Z</time></trkpt><trkpt lat="44.90596" lon="8.3464817"><ele>144.00000000000003</ele><time>2026-04-11T13:57:22.27Z</time></trkpt><trkpt lat="44.905925" lon="8.346575"><ele>144.0</ele><time>2026-04-11T13:57:25.269Z</time></trkpt><trkpt lat="44.9058667" lon="8.3466717"><ele>142.8</ele><time>2026-04-11T13:57:36.269Z</time></trkpt><trkpt lat="44.90577" lon="8.3467983"><ele>141.60000000000002</ele><time>2026-04-11T13:57:48.269Z</time></trkpt><trkpt lat="44.90572" lon="8.34687"><ele>140.4</ele><time>2026-04-11T13:57:50.269Z</time></trkpt><trkpt lat="44.905585" lon="8.3470033"><ele>139.20000000000002</ele><time>2026-04-11T13:58:03.27Z</time></trkpt><trkpt lat="44.9055383" lon="8.34709"><ele>138.0</ele><time>2026-04-11T13:58:07.27Z</time></trkpt><trkpt lat="44.90548" lon="8.347145"><ele>138.4</ele><time>2026-04-11T13:58:12.27Z</time></trkpt><trkpt lat="44.9054283" lon="8.3472233"><ele>138.8</ele><time>2026-04-11T13:58:17.269Z</time></trkpt><trkpt lat="44.9053983" lon="8.347315"><ele>139.2</ele><time>2026-04-11T13:58:22.27Z</time></trkpt><trkpt lat="44.9053167" lon="8.34752"><ele>139.6</ele><time>2026-04-11T13:58:31.269Z</time></trkpt><trkpt lat="44.9052617" lon="8.34759"><ele>140.0</ele><time>2026-04-11T13:58:39.27Z</time></trkpt><trkpt lat="44.9052067" lon="8.347655"><ele>140.0</ele><time>2026-04-11T13:58:46.269Z</time></trkpt><trkpt lat="44.9051433" lon="8.347715"><ele>140.0</ele><time>2026-04-11T13:58:53.269Z</time></trkpt><trkpt lat="44.905075" lon="8.3477833"><ele>140.0</ele><time>2026-04-11T13:59:04.269Z</time></trkpt><trkpt lat="44.9050067" lon="8.3478267"><ele>140.0</ele><time>2026-04-11T13:59:08.269Z</time></trkpt><trkpt lat="44.9049467" lon="8.3478917"><ele>140.0</ele><time>2026-04-11T13:59:12.269Z</time></trkpt><trkpt lat="44.9048933" lon="8.3479583"><ele>140.0</ele><time>2026-04-11T13:59:17.269Z</time></trkpt><trkpt lat="44.9048317" lon="8.348"><ele>139.5</ele><time>2026-04-11T13:59:20.269Z</time></trkpt><trkpt lat="44.904735" lon="8.34813"><ele>139.0</ele><time>2026-04-11T13:59:31.269Z</time></trkpt><trkpt lat="44.9046783" lon="8.3481917"><ele>138.5</ele><time>2026-04-11T13:59:34.268Z</time></trkpt><trkpt lat="44.9046317" lon="8.3482683"><ele>138.0</ele><time>2026-04-11T13:59:37.269Z</time></trkpt><trkpt lat="44.90455" lon="8.3483017"><ele>137.5</ele><time>2026-04-11T13:59:48.268Z</time></trkpt><trkpt lat="44.9044883" lon="8.34834"><ele>137.0</ele><time>2026-04-11T13:59:51.268Z</time></trkpt><trkpt lat="44.9043983" lon="8.3483383"><ele>137.0</ele><time>2026-04-11T13:59:55.269Z</time></trkpt><trkpt lat="44.904445" lon="8.34827"><ele>137.0</ele><time>2026-04-11T14:00:01.268Z</time></trkpt><trkpt lat="44.9045367" lon="8.3481517"><ele>137.0</ele><time>2026-04-11T14:00:03.268Z</time></trkpt><trkpt lat="44.9045917" lon="8.34804"><ele>137.0</ele><time>2026-04-11T14:00:04.269Z</time></trkpt><trkpt lat="44.9046633" lon="8.3479317"><ele>137.0</ele><time>2026-04-11T14:00:06.268Z</time></trkpt><trkpt lat="44.9047667" lon="8.3478083"><ele>136.33333333333331</ele><time>2026-04-11T14:00:08.268Z</time></trkpt><trkpt lat="44.9048583" lon="8.3477817"><ele>135.66666666666666</ele><time>2026-04-11T14:00:09.268Z</time></trkpt><trkpt lat="44.9050033" lon="8.34786"><ele>135.0</ele><time>2026-04-11T14:00:10.268Z</time></trkpt><trkpt lat="44.90518" lon="8.348075"><ele>136.25</ele><time>2026-04-11T14:00:11.268Z</time></trkpt><trkpt lat="44.905285" lon="8.34805"><ele>137.5</ele><time>2026-04-11T14:00:12.268Z</time></trkpt><trkpt lat="44.9053983" lon="8.3479983"><ele>138.75</ele><time>2026-04-11T14:00:13.268Z</time></trkpt><trkpt lat="44.9055167" lon="8.3479767"><ele>140.0</ele><time>2026-04-11T14:00:14.269Z</time></trkpt><trkpt lat="44.905645" lon="8.347955"><ele>140.0</ele><time>2026-04-11T14:00:15.269Z</time></trkpt><trkpt lat="44.90579" lon="8.347945"><ele>140.0</ele><time>2026-04-11T14:00:16.268Z</time></trkpt><trkpt lat="44.9059117" lon="8.3479217"><ele>140.0</ele><time>2026-04-11T14:00:17.268Z</time></trkpt><trkpt lat="44.906035" lon="8.347895"><ele>140.0</ele><time>2026-04-11T14:00:18.268Z</time></trkpt><trkpt lat="44.906165" lon="8.3478667"><ele>145.0</ele><time>2026-04-11T14:00:19.268Z</time></trkpt><trkpt lat="44.9062917" lon="8.347765"><ele>150.0</ele><time>2026-04-11T14:00:20.268Z</time></trkpt><trkpt lat="44.9057083" lon="8.3486317"><ele>134.0</ele><time>2026-04-11T14:00:30.309Z</time></trkpt><trkpt lat="44.903925" lon="8.3483417"><ele>134.0</ele><time>2026-04-11T14:01:07.303Z</time></trkpt><trkpt lat="44.9038533" lon="8.3482717"><ele>134.0</ele><time>2026-04-11T14:01:23.303Z</time></trkpt><trkpt lat="44.903785" lon="8.3483183"><ele>134.0</ele><time>2026-04-11T14:01:29.303Z</time></trkpt><trkpt lat="44.903725" lon="8.3483783"><ele>134.0</ele><time>2026-04-11T14:01:34.303Z</time></trkpt><trkpt lat="44.9037117" lon="8.348495"><ele>134.0</ele><time>2026-04-11T14:01:39.303Z</time></trkpt><trkpt lat="44.9037033" lon="8.3485833"><ele>134.0</ele><time>2026-04-11T14:01:42.304Z</time></trkpt><trkpt lat="44.9036767" lon="8.348695"><ele>134.0</ele><time>2026-04-11T14:01:47.303Z</time></trkpt><trkpt lat="44.903645" lon="8.3487817"><ele>134.0</ele><time>2026-04-11T14:01:51.303Z</time></trkpt><trkpt lat="44.9036" lon="8.3488733"><ele>134.0</ele><time>2026-04-11T14:01:55.303Z</time></trkpt><trkpt lat="44.90355" lon="8.3489533"><ele>134.0</ele><time>2026-04-11T14:02:01.303Z</time></trkpt><trkpt lat="44.9034717" lon="8.34899"><ele>134.0</ele><time>2026-04-11T14:02:05.304Z</time></trkpt><trkpt lat="44.9034067" lon="8.3490283"><ele>134.0</ele><time>2026-04-11T14:02:10.303Z</time></trkpt><trkpt lat="44.9033367" lon="8.3490417"><ele>134.0</ele><time>2026-04-11T14:02:14.303Z</time></trkpt><trkpt lat="44.90326" lon="8.3491017"><ele>133.85714285714286</ele><time>2026-04-11T14:02:18.303Z</time></trkpt><trkpt lat="44.9031883" lon="8.3491333"><ele>133.71428571428572</ele><time>2026-04-11T14:02:21.303Z</time></trkpt><trkpt lat="44.9031217" lon="8.3491733"><ele>133.57142857142856</ele><time>2026-04-11T14:02:25.303Z</time></trkpt><trkpt lat="44.903075" lon="8.349235"><ele>133.42857142857144</ele><time>2026-04-11T14:02:29.303Z</time></trkpt><trkpt lat="44.903085" lon="8.349365"><ele>133.28571428571428</ele><time>2026-04-11T14:02:38.303Z</time></trkpt><trkpt lat="44.9030983" lon="8.34946"><ele>133.14285714285714</ele><time>2026-04-11T14:26:00.298Z</time></trkpt><trkpt lat="44.9031" lon="8.349565"><ele>133.0</ele><time>2026-04-11T14:26:56.297Z</time></trkpt><trkpt lat="44.9030883" lon="8.34968"><ele>133.20000000000002</ele><time>2026-04-11T14:26:58.297Z</time></trkpt><trkpt lat="44.90308" lon="8.349845"><ele>133.4</ele><time>2026-04-11T14:27:00.297Z</time></trkpt><trkpt lat="44.9030933" lon="8.3499767"><ele>133.60000000000002</ele><time>2026-04-11T14:27:02.298Z</time></trkpt><trkpt lat="44.903115" lon="8.3501583"><ele>133.8</ele><time>2026-04-11T14:27:04.297Z</time></trkpt><trkpt lat="44.9031383" lon="8.3502583"><ele>134.0</ele><time>2026-04-11T14:27:05.297Z</time></trkpt><trkpt lat="44.90316" lon="8.35037"><ele>134.0</ele><time>2026-04-11T14:27:06.298Z</time></trkpt><trkpt lat="44.90317" lon="8.3504933"><ele>134.0</ele><time>2026-04-11T14:27:07.298Z</time></trkpt><trkpt lat="44.9031933" lon="8.3506067"><ele>134.0</ele><time>2026-04-11T14:27:08.297Z</time></trkpt><trkpt lat="44.90321" lon="8.3507183"><ele>134.0</ele><time>2026-04-11T14:27:09.297Z</time></trkpt><trkpt lat="44.903235" lon="8.3508283"><ele>134.0</ele><time>2026-04-11T14:27:10.297Z</time></trkpt><trkpt lat="44.9032517" lon="8.3509317"><ele>134.0</ele><time>2026-04-11T14:27:11.297Z</time></trkpt><trkpt lat="44.9032617" lon="8.351045"><ele>133.66666666666666</ele><time>2026-04-11T14:27:12.298Z</time></trkpt><trkpt lat="44.903275" lon="8.3511567"><ele>133.33333333333331</ele><time>2026-04-11T14:27:13.297Z</time></trkpt><trkpt lat="44.9032833" lon="8.3512717"><ele>133.0</ele><time>2026-04-11T14:27:14.298Z</time></trkpt><trkpt lat="44.903295" lon="8.3513733"><ele>132.66666666666666</ele><time>2026-04-11T14:27:15.298Z</time></trkpt><trkpt lat="44.9033117" lon="8.35146"><ele>132.33333333333334</ele><time>2026-04-11T14:27:16.297Z</time></trkpt><trkpt lat="44.9033283" lon="8.35156"><ele>132.0</ele><time>2026-04-11T14:27:17.297Z</time></trkpt><trkpt lat="44.9033467" lon="8.3517183"><ele>132.0</ele><time>2026-04-11T14:27:19.297Z</time></trkpt><trkpt lat="44.9033433" lon="8.351885"><ele>132.0</ele><time>2026-04-11T14:27:21.297Z</time></trkpt><trkpt lat="44.903335" lon="8.3519883"><ele>132.0</ele><time>2026-04-11T14:27:22.297Z</time></trkpt><trkpt lat="44.9033367" lon="8.3520967"><ele>132.0</ele><time>2026-04-11T14:27:23.297Z</time></trkpt><trkpt lat="44.9033433" lon="8.3522183"><ele>132.0</ele><time>2026-04-11T14:27:24.297Z</time></trkpt><trkpt lat="44.903355" lon="8.352345"><ele>132.0</ele><time>2026-04-11T14:27:25.298Z</time></trkpt><trkpt lat="44.903375" lon="8.3524833"><ele>132.2</ele><time>2026-04-11T14:27:26.297Z</time></trkpt><trkpt lat="44.90341" lon="8.352625"><ele>132.39999999999998</ele><time>2026-04-11T14:27:27.297Z</time></trkpt><trkpt lat="44.903445" lon="8.3527567"><ele>132.60000000000002</ele><time>2026-04-11T14:27:28.297Z</time></trkpt><trkpt lat="44.9034717" lon="8.3528783"><ele>132.8</ele><time>2026-04-11T14:27:29.297Z</time></trkpt><trkpt lat="44.903505" lon="8.3529933"><ele>133.0</ele><time>2026-04-11T14:27:30.297Z</time></trkpt><trkpt lat="44.9035317" lon="8.3531067"><ele>133.0</ele><time>2026-04-11T14:27:31.297Z</time></trkpt><trkpt lat="44.9035633" lon="8.3532233"><ele>133.0</ele><time>2026-04-11T14:27:32.297Z</time></trkpt><trkpt lat="44.9035867" lon="8.35333"><ele>133.0</ele><time>2026-04-11T14:27:33.297Z</time></trkpt><trkpt lat="44.90361" lon="8.3534433"><ele>133.0</ele><time>2026-04-11T14:27:34.297Z</time></trkpt><trkpt lat="44.9036217" lon="8.3535417"><ele>133.0</ele><time>2026-04-11T14:27:35.297Z</time></trkpt><trkpt lat="44.9036317" lon="8.353635"><ele>133.0</ele><time>2026-04-11T14:27:36.297Z</time></trkpt><trkpt lat="44.9036067" lon="8.353795"><ele>132.75</ele><time>2026-04-11T14:27:38.298Z</time></trkpt><trkpt lat="44.9035767" lon="8.3539633"><ele>132.5</ele><time>2026-04-11T14:27:40.297Z</time></trkpt><trkpt lat="44.9035767" lon="8.3541183"><ele>132.25</ele><time>2026-04-11T14:27:42.297Z</time></trkpt><trkpt lat="44.9035633" lon="8.354275"><ele>132.0</ele><time>2026-04-11T14:27:44.297Z</time></trkpt><trkpt lat="44.90351" lon="8.3544217"><ele>132.0</ele><time>2026-04-11T14:27:46.297Z</time></trkpt><trkpt lat="44.9034817" lon="8.3545133"><ele>132.0</ele><time>2026-04-11T14:27:47.297Z</time></trkpt><trkpt lat="44.9034517" lon="8.3546"><ele>132.0</ele><time>2026-04-11T14:27:48.297Z</time></trkpt><trkpt lat="44.903425" lon="8.35469"><ele>132.0</ele><time>2026-04-11T14:27:49.297Z</time></trkpt><trkpt lat="44.9034017" lon="8.35478"><ele>132.0</ele><time>2026-04-11T14:27:50.297Z</time></trkpt><trkpt lat="44.9033717" lon="8.354875"><ele>132.0</ele><time>2026-04-11T14:27:51.297Z</time></trkpt><trkpt lat="44.90334" lon="8.354965"><ele>132.0</ele><time>2026-04-11T14:27:52.297Z</time></trkpt><trkpt lat="44.9033117" lon="8.3550583"><ele>132.0</ele><time>2026-04-11T14:27:53.297Z</time></trkpt><trkpt lat="44.9032867" lon="8.35515"><ele>132.0</ele><time>2026-04-11T14:27:54.297Z</time></trkpt><trkpt lat="44.90327" lon="8.3552467"><ele>132.0</ele><time>2026-04-11T14:27:55.298Z</time></trkpt><trkpt lat="44.90324" lon="8.3553383"><ele>132.0</ele><time>2026-04-11T14:27:56.298Z</time></trkpt><trkpt lat="44.90322" lon="8.3554283"><ele>132.0</ele><time>2026-04-11T14:27:57.297Z</time></trkpt><trkpt lat="44.9031867" lon="8.3555133"><ele>132.0</ele><time>2026-04-11T14:27:58.297Z</time></trkpt><trkpt lat="44.90316" lon="8.3555983"><ele>132.0</ele><time>2026-04-11T14:27:59.297Z</time></trkpt><trkpt lat="44.90314" lon="8.35569"><ele>132.0</ele><time>2026-04-11T14:28:00.298Z</time></trkpt><trkpt lat="44.903105" lon="8.35577"><ele>132.0</ele><time>2026-04-11T14:28:01.298Z</time></trkpt><trkpt lat="44.9030733" lon="8.3558517"><ele>132.0</ele><time>2026-04-11T14:28:02.298Z</time></trkpt><trkpt lat="44.903025" lon="8.356"><ele>132.0</ele><time>2026-04-11T14:28:04.297Z</time></trkpt><trkpt lat="44.9029817" lon="8.3561633"><ele>132.0</ele><time>2026-04-11T14:28:06.298Z</time></trkpt><trkpt lat="44.9029417" lon="8.356245"><ele>132.0</ele><time>2026-04-11T14:28:07.297Z</time></trkpt><trkpt lat="44.9029033" lon="8.3563283"><ele>131.83333333333334</ele><time>2026-04-11T14:28:08.297Z</time></trkpt><trkpt lat="44.90288" lon="8.3564167"><ele>131.66666666666666</ele><time>2026-04-11T14:28:09.297Z</time></trkpt><trkpt lat="44.9028583" lon="8.3565117"><ele>131.5</ele><time>2026-04-11T14:28:10.297Z</time></trkpt><trkpt lat="44.9028267" lon="8.3566183"><ele>131.33333333333331</ele><time>2026-04-11T14:28:11.298Z</time></trkpt><trkpt lat="44.9028017" lon="8.3567217"><ele>131.16666666666666</ele><time>2026-04-11T14:28:12.298Z</time></trkpt><trkpt lat="44.9027817" lon="8.35683"><ele>131.0</ele><time>2026-04-11T14:28:13.297Z</time></trkpt><trkpt lat="44.9027633" lon="8.3569333"><ele>131.0</ele><time>2026-04-11T14:28:14.297Z</time></trkpt><trkpt lat="44.9027417" lon="8.3570383"><ele>131.0</ele><time>2026-04-11T14:28:15.297Z</time></trkpt><trkpt lat="44.90273" lon="8.357145"><ele>131.0</ele><time>2026-04-11T14:28:16.297Z</time></trkpt><trkpt lat="44.9027167" lon="8.3572567"><ele>131.0</ele><time>2026-04-11T14:28:17.298Z</time></trkpt><trkpt lat="44.902705" lon="8.3573683"><ele>131.0</ele><time>2026-04-11T14:28:18.297Z</time></trkpt><trkpt lat="44.90269" lon="8.35761"><ele>131.0</ele><time>2026-04-11T14:28:20.298Z</time></trkpt><trkpt lat="44.9027217" lon="8.3577383"><ele>131.0</ele><time>2026-04-11T14:28:21.297Z</time></trkpt><trkpt lat="44.9027433" lon="8.3578867"><ele>131.0</ele><time>2026-04-11T14:28:22.297Z</time></trkpt><trkpt lat="44.9027733" lon="8.3580267"><ele>131.0</ele><time>2026-04-11T14:28:23.298Z</time></trkpt><trkpt lat="44.9027933" lon="8.3581667"><ele>131.0</ele><time>2026-04-11T14:28:24.298Z</time></trkpt><trkpt lat="44.9027833" lon="8.3583067"><ele>131.0</ele><time>2026-04-11T14:28:25.298Z</time></trkpt><trkpt lat="44.9028083" lon="8.358435"><ele>131.0</ele><time>2026-04-11T14:28:26.298Z</time></trkpt><trkpt lat="44.902825" lon="8.35857"><ele>131.0</ele><time>2026-04-11T14:28:27.297Z</time></trkpt><trkpt lat="44.90284" lon="8.3587117"><ele>131.0</ele><time>2026-04-11T14:28:28.298Z</time></trkpt><trkpt lat="44.9028433" lon="8.3588433"><ele>131.0</ele><time>2026-04-11T14:28:29.297Z</time></trkpt><trkpt lat="44.9028467" lon="8.3589783"><ele>130.2</ele><time>2026-04-11T14:28:30.297Z</time></trkpt><trkpt lat="44.9028633" lon="8.3591233"><ele>129.39999999999998</ele><time>2026-04-11T14:28:31.297Z</time></trkpt><trkpt lat="44.9028833" lon="8.359275"><ele>128.6</ele><time>2026-04-11T14:28:32.297Z</time></trkpt><trkpt lat="44.9029067" lon="8.3594183"><ele>127.8</ele><time>2026-04-11T14:28:33.297Z</time></trkpt><trkpt lat="44.9029283" lon="8.3595533"><ele>127.0</ele><time>2026-04-11T14:28:34.297Z</time></trkpt><trkpt lat="44.9029483" lon="8.3596933"><ele>126.8</ele><time>2026-04-11T14:28:35.298Z</time></trkpt><trkpt lat="44.902955" lon="8.3598333"><ele>126.6</ele><time>2026-04-11T14:28:36.297Z</time></trkpt><trkpt lat="44.9029533" lon="8.3599733"><ele>126.39999999999999</ele><time>2026-04-11T14:28:37.297Z</time></trkpt><trkpt lat="44.9029533" lon="8.3601217"><ele>126.19999999999999</ele><time>2026-04-11T14:28:38.297Z</time></trkpt><trkpt lat="44.9029333" lon="8.360265"><ele>126.0</ele><time>2026-04-11T14:28:39.298Z</time></trkpt><trkpt lat="44.9029183" lon="8.360395"><ele>126.0</ele><time>2026-04-11T14:28:40.297Z</time></trkpt><trkpt lat="44.9029033" lon="8.3605333"><ele>126.0</ele><time>2026-04-11T14:28:41.297Z</time></trkpt><trkpt lat="44.9028917" lon="8.3606767"><ele>126.0</ele><time>2026-04-11T14:28:42.297Z</time></trkpt><trkpt lat="44.9028733" lon="8.3608217"><ele>126.0</ele><time>2026-04-11T14:28:43.297Z</time></trkpt><trkpt lat="44.9028533" lon="8.36098"><ele>126.0</ele><time>2026-04-11T14:28:44.297Z</time></trkpt><trkpt lat="44.9028167" lon="8.36114"><ele>126.0</ele><time>2026-04-11T14:28:45.297Z</time></trkpt><trkpt lat="44.90277" lon="8.3613083"><ele>126.0</ele><time>2026-04-11T14:28:46.297Z</time></trkpt><trkpt lat="44.9027167" lon="8.3614867"><ele>126.0</ele><time>2026-04-11T14:28:47.297Z</time></trkpt><trkpt lat="44.9026517" lon="8.3616567"><ele>126.0</ele><time>2026-04-11T14:28:48.297Z</time></trkpt><trkpt lat="44.9025833" lon="8.3618133"><ele>125.8</ele><time>2026-04-11T14:28:49.297Z</time></trkpt><trkpt lat="44.9025267" lon="8.3619683"><ele>125.6</ele><time>2026-04-11T14:28:50.297Z</time></trkpt><trkpt lat="44.90247" lon="8.362105"><ele>125.4</ele><time>2026-04-11T14:28:51.297Z</time></trkpt><trkpt lat="44.9024217" lon="8.36223"><ele>125.2</ele><time>2026-04-11T14:28:52.297Z</time></trkpt><trkpt lat="44.9023917" lon="8.36237"><ele>125.0</ele><time>2026-04-11T14:28:53.298Z</time></trkpt><trkpt lat="44.9023867" lon="8.3625167"><ele>125.75</ele><time>2026-04-11T14:28:54.297Z</time></trkpt><trkpt lat="44.9024067" lon="8.3626733"><ele>126.5</ele><time>2026-04-11T14:28:55.297Z</time></trkpt><trkpt lat="44.9024483" lon="8.3628383"><ele>127.25</ele><time>2026-04-11T14:28:56.298Z</time></trkpt><trkpt lat="44.9024917" lon="8.3630167"><ele>128.0</ele><time>2026-04-11T14:28:57.297Z</time></trkpt><trkpt lat="44.9025267" lon="8.3632033"><ele>128.0</ele><time>2026-04-11T14:28:58.297Z</time></trkpt><trkpt lat="44.902545" lon="8.3633867"><ele>128.0</ele><time>2026-04-11T14:28:59.296Z</time></trkpt><trkpt lat="44.9025367" lon="8.3635683"><ele>128.0</ele><time>2026-04-11T14:29:00.296Z</time></trkpt><trkpt lat="44.90252" lon="8.3637467"><ele>128.0</ele><time>2026-04-11T14:29:01.296Z</time></trkpt><trkpt lat="44.9024667" lon="8.363915"><ele>127.0</ele><time>2026-04-11T14:29:02.296Z</time></trkpt><trkpt lat="44.9024" lon="8.36409"><ele>126.0</ele><time>2026-04-11T14:29:03.296Z</time></trkpt><trkpt lat="44.90233" lon="8.3642667"><ele>125.0</ele><time>2026-04-11T14:29:04.297Z</time></trkpt><trkpt lat="44.9022483" lon="8.3644467"><ele>124.0</ele><time>2026-04-11T14:29:05.297Z</time></trkpt><trkpt lat="44.902175" lon="8.3646383"><ele>123.33333333333334</ele><time>2026-04-11T14:29:06.296Z</time></trkpt><trkpt lat="44.9020767" lon="8.3648283"><ele>122.66666666666666</ele><time>2026-04-11T14:29:07.297Z</time></trkpt><trkpt lat="44.9019817" lon="8.3650183"><ele>122.0</ele><time>2026-04-11T14:29:08.296Z</time></trkpt><trkpt lat="44.90191" lon="8.3652067"><ele>122.0</ele><time>2026-04-11T14:29:09.297Z</time></trkpt><trkpt lat="44.90183" lon="8.36539"><ele>122.0</ele><time>2026-04-11T14:29:10.296Z</time></trkpt><trkpt lat="44.90176" lon="8.3655783"><ele>122.0</ele><time>2026-04-11T14:29:11.296Z</time></trkpt><trkpt lat="44.9015383" lon="8.36606"><ele>122.25</ele><time>2026-04-11T14:29:14.296Z</time></trkpt><trkpt lat="44.90148" lon="8.3662"><ele>122.5</ele><time>2026-04-11T14:29:15.296Z</time></trkpt><trkpt lat="44.90138" lon="8.3664617"><ele>122.75</ele><time>2026-04-11T14:29:17.296Z</time></trkpt><trkpt lat="44.9013333" lon="8.3665817"><ele>123.0</ele><time>2026-04-11T14:29:18.297Z</time></trkpt><trkpt lat="44.9013067" lon="8.3666783"><ele>123.0</ele><time>2026-04-11T14:29:19.296Z</time></trkpt><trkpt lat="44.9012783" lon="8.3667717"><ele>123.0</ele><time>2026-04-11T14:29:20.297Z</time></trkpt><trkpt lat="44.9012533" lon="8.3668533"><ele>123.0</ele><time>2026-04-11T14:29:21.296Z</time></trkpt><trkpt lat="44.901205" lon="8.3669917"><ele>123.0</ele><time>2026-04-11T14:29:23.297Z</time></trkpt><trkpt lat="44.90118" lon="8.3670867"><ele>123.0</ele><time>2026-04-11T14:29:26.296Z</time></trkpt><trkpt lat="44.9012567" lon="8.3671567"><ele>123.0</ele><time>2026-04-11T14:29:30.296Z</time></trkpt><trkpt lat="44.9013667" lon="8.367175"><ele>123.0</ele><time>2026-04-11T14:29:32.297Z</time></trkpt><trkpt lat="44.9014833" lon="8.367165"><ele>123.0</ele><time>2026-04-11T14:29:33.296Z</time></trkpt><trkpt lat="44.9017383" lon="8.367145"><ele>123.0</ele><time>2026-04-11T14:29:35.296Z</time></trkpt><trkpt lat="44.9018633" lon="8.3671417"><ele>122.0</ele><time>2026-04-11T14:29:36.296Z</time></trkpt><trkpt lat="44.9020167" lon="8.3671233"><ele>121.0</ele><time>2026-04-11T14:29:37.297Z</time></trkpt><trkpt lat="44.90216" lon="8.36712"><ele>120.0</ele><time>2026-04-11T14:29:38.296Z</time></trkpt><trkpt lat="44.9023017" lon="8.3671083"><ele>119.0</ele><time>2026-04-11T14:29:39.296Z</time></trkpt><trkpt lat="44.9024467" lon="8.3671017"><ele>119.0</ele><time>2026-04-11T14:29:40.296Z</time></trkpt><trkpt lat="44.902575" lon="8.3670917"><ele>119.0</ele><time>2026-04-11T14:29:41.296Z</time></trkpt><trkpt lat="44.90271" lon="8.367085"><ele>119.0</ele><time>2026-04-11T14:29:42.296Z</time></trkpt><trkpt lat="44.9028433" lon="8.3670683"><ele>119.0</ele><time>2026-04-11T14:29:43.296Z</time></trkpt><trkpt lat="44.902975" lon="8.3670567"><ele>119.0</ele><time>2026-04-11T14:29:44.296Z</time></trkpt><trkpt lat="44.903095" lon="8.36705"><ele>119.0</ele><time>2026-04-11T14:29:45.297Z</time></trkpt><trkpt lat="44.9032167" lon="8.3670417"><ele>119.0</ele><time>2026-04-11T14:29:46.296Z</time></trkpt><trkpt lat="44.90335" lon="8.36703"><ele>119.0</ele><time>2026-04-11T14:29:47.296Z</time></trkpt><trkpt lat="44.903485" lon="8.3670167"><ele>119.5</ele><time>2026-04-11T14:29:48.296Z</time></trkpt><trkpt lat="44.9036133" lon="8.3670033"><ele>120.0</ele><time>2026-04-11T14:29:49.296Z</time></trkpt><trkpt lat="44.9037283" lon="8.3669917"><ele>120.5</ele><time>2026-04-11T14:29:50.296Z</time></trkpt><trkpt lat="44.903835" lon="8.3669883"><ele>121.0</ele><time>2026-04-11T14:29:51.297Z</time></trkpt><trkpt lat="44.9039517" lon="8.3669783"><ele>121.0</ele><time>2026-04-11T14:29:52.296Z</time></trkpt><trkpt lat="44.9040633" lon="8.3669717"><ele>121.0</ele><time>2026-04-11T14:29:53.296Z</time></trkpt><trkpt lat="44.904175" lon="8.3669617"><ele>121.0</ele><time>2026-04-11T14:29:54.296Z</time></trkpt><trkpt lat="44.9042833" lon="8.366955"><ele>121.0</ele><time>2026-04-11T14:29:55.296Z</time></trkpt><trkpt lat="44.90438" lon="8.366945"><ele>121.0</ele><time>2026-04-11T14:29:56.296Z</time></trkpt><trkpt lat="44.9044767" lon="8.36692"><ele>121.0</ele><time>2026-04-11T14:29:57.296Z</time></trkpt><trkpt lat="44.9045833" lon="8.3668683"><ele>121.0</ele><time>2026-04-11T14:29:58.297Z</time></trkpt><trkpt lat="44.904665" lon="8.3668567"><ele>121.0</ele><time>2026-04-11T14:29:59.297Z</time></trkpt><trkpt lat="44.9047433" lon="8.366825"><ele>121.0</ele><time>2026-04-11T14:30:00.296Z</time></trkpt><trkpt lat="44.9048233" lon="8.3669183"><ele>121.0</ele><time>2026-04-11T14:30:01.296Z</time></trkpt><trkpt lat="44.9048933" lon="8.36703"><ele>121.0</ele><time>2026-04-11T14:30:02.296Z</time></trkpt><trkpt lat="44.9049333" lon="8.367125"><ele>121.0</ele><time>2026-04-11T14:30:03.296Z</time></trkpt><trkpt lat="44.90499" lon="8.367235"><ele>121.0</ele><time>2026-04-11T14:30:04.296Z</time></trkpt><trkpt lat="44.9050517" lon="8.3673383"><ele>121.0</ele><time>2026-04-11T14:30:05.296Z</time></trkpt><trkpt lat="44.905105" lon="8.36749"><ele>121.0</ele><time>2026-04-11T14:30:06.297Z</time></trkpt><trkpt lat="44.9052367" lon="8.367765"><ele>120.75</ele><time>2026-04-11T14:30:08.296Z</time></trkpt><trkpt lat="44.9053167" lon="8.3678967"><ele>120.5</ele><time>2026-04-11T14:30:09.296Z</time></trkpt><trkpt lat="44.9054033" lon="8.3680067"><ele>120.25</ele><time>2026-04-11T14:30:10.296Z</time></trkpt><trkpt lat="44.9054917" lon="8.3681083"><ele>120.0</ele><time>2026-04-11T14:30:11.296Z</time></trkpt><trkpt lat="44.9055733" lon="8.3682033"><ele>120.0</ele><time>2026-04-11T14:30:12.297Z</time></trkpt><trkpt lat="44.9056583" lon="8.3682617"><ele>120.0</ele><time>2026-04-11T14:30:13.296Z</time></trkpt><trkpt lat="44.90575" lon="8.3683"><ele>120.0</ele><time>2026-04-11T14:30:14.297Z</time></trkpt><trkpt lat="44.90585" lon="8.3682967"><ele>120.0</ele><time>2026-04-11T14:30:15.296Z</time></trkpt><trkpt lat="44.9059517" lon="8.3682617"><ele>120.0</ele><time>2026-04-11T14:30:16.296Z</time></trkpt><trkpt lat="44.9060583" lon="8.3682467"><ele>120.2</ele><time>2026-04-11T14:30:17.296Z</time></trkpt><trkpt lat="44.906155" lon="8.368275"><ele>120.4</ele><time>2026-04-11T14:30:18.297Z</time></trkpt><trkpt lat="44.9062433" lon="8.3683483"><ele>120.6</ele><time>2026-04-11T14:30:19.296Z</time></trkpt><trkpt lat="44.90632" lon="8.3684483"><ele>120.8</ele><time>2026-04-11T14:30:20.297Z</time></trkpt><trkpt lat="44.9063933" lon="8.3685633"><ele>121.0</ele><time>2026-04-11T14:30:21.297Z</time></trkpt><trkpt lat="44.90647" lon="8.3686867"><ele>121.0</ele><time>2026-04-11T14:30:22.296Z</time></trkpt><trkpt lat="44.9065417" lon="8.3688117"><ele>121.0</ele><time>2026-04-11T14:30:23.296Z</time></trkpt><trkpt lat="44.9066183" lon="8.36894"><ele>121.0</ele><time>2026-04-11T14:30:24.296Z</time></trkpt><trkpt lat="44.9066983" lon="8.3690683"><ele>121.0</ele><time>2026-04-11T14:30:25.296Z</time></trkpt><trkpt lat="44.9067833" lon="8.369195"><ele>123.0</ele><time>2026-04-11T14:30:26.296Z</time></trkpt><trkpt lat="44.9068733" lon="8.3693083"><ele>125.0</ele><time>2026-04-11T14:30:27.296Z</time></trkpt><trkpt lat="44.9069567" lon="8.3694267"><ele>127.0</ele><time>2026-04-11T14:30:28.296Z</time></trkpt><trkpt lat="44.907025" lon="8.3695567"><ele>129.0</ele><time>2026-04-11T14:30:29.296Z</time></trkpt><trkpt lat="44.9070883" lon="8.36969"><ele>130.6</ele><time>2026-04-11T14:30:30.296Z</time></trkpt><trkpt lat="44.9071467" lon="8.3698233"><ele>132.2</ele><time>2026-04-11T14:30:31.296Z</time></trkpt><trkpt lat="44.9072033" lon="8.3699533"><ele>133.79999999999998</ele><time>2026-04-11T14:30:32.296Z</time></trkpt><trkpt lat="44.9072467" lon="8.3700867"><ele>135.4</ele><time>2026-04-11T14:30:33.296Z</time></trkpt><trkpt lat="44.9072933" lon="8.3702067"><ele>137.0</ele><time>2026-04-11T14:30:34.297Z</time></trkpt><trkpt lat="44.9073367" lon="8.37031"><ele>137.0</ele><time>2026-04-11T14:30:35.296Z</time></trkpt><trkpt lat="44.9073717" lon="8.370405"><ele>137.0</ele><time>2026-04-11T14:30:36.297Z</time></trkpt><trkpt lat="44.9073983" lon="8.37049"><ele>137.0</ele><time>2026-04-11T14:30:37.296Z</time></trkpt><trkpt lat="44.9074117" lon="8.370665"><ele>137.0</ele><time>2026-04-11T14:30:39.296Z</time></trkpt><trkpt lat="44.9073783" lon="8.370775"><ele>137.0</ele><time>2026-04-11T14:30:40.297Z</time></trkpt><trkpt lat="44.9073267" lon="8.3708867"><ele>137.0</ele><time>2026-04-11T14:30:41.296Z</time></trkpt><trkpt lat="44.9072817" lon="8.3709917"><ele>137.79999999999998</ele><time>2026-04-11T14:30:42.296Z</time></trkpt><trkpt lat="44.9072383" lon="8.3710933"><ele>138.6</ele><time>2026-04-11T14:30:43.297Z</time></trkpt><trkpt lat="44.90721" lon="8.3711933"><ele>139.39999999999998</ele><time>2026-04-11T14:30:44.296Z</time></trkpt><trkpt lat="44.9072483" lon="8.3713717"><ele>140.2</ele><time>2026-04-11T14:30:46.296Z</time></trkpt><trkpt lat="44.9073333" lon="8.3714367"><ele>141.0</ele><time>2026-04-11T14:30:47.296Z</time></trkpt><trkpt lat="44.9074317" lon="8.3714883"><ele>142.25</ele><time>2026-04-11T14:30:48.296Z</time></trkpt><trkpt lat="44.9075417" lon="8.3715333"><ele>143.5</ele><time>2026-04-11T14:30:49.296Z</time></trkpt><trkpt lat="44.907655" lon="8.3715667"><ele>144.75</ele><time>2026-04-11T14:30:50.296Z</time></trkpt><trkpt lat="44.9077667" lon="8.3716217"><ele>146.0</ele><time>2026-04-11T14:30:51.296Z</time></trkpt><trkpt lat="44.90786" lon="8.3717133"><ele>147.5</ele><time>2026-04-11T14:30:52.296Z</time></trkpt><trkpt lat="44.90795" lon="8.3718217"><ele>149.0</ele><time>2026-04-11T14:30:53.296Z</time></trkpt><trkpt lat="44.9080283" lon="8.3719367"><ele>150.5</ele><time>2026-04-11T14:30:54.296Z</time></trkpt><trkpt lat="44.9081117" lon="8.3720467"><ele>152.0</ele><time>2026-04-11T14:30:55.297Z</time></trkpt><trkpt lat="44.908185" lon="8.3721533"><ele>152.75</ele><time>2026-04-11T14:30:56.296Z</time></trkpt><trkpt lat="44.90826" lon="8.372265"><ele>153.5</ele><time>2026-04-11T14:30:57.296Z</time></trkpt><trkpt lat="44.9083517" lon="8.3723883"><ele>154.25</ele><time>2026-04-11T14:30:58.296Z</time></trkpt><trkpt lat="44.9084233" lon="8.3725217"><ele>155.0</ele><time>2026-04-11T14:30:59.296Z</time></trkpt><trkpt lat="44.908495" lon="8.372665"><ele>155.25</ele><time>2026-04-11T14:31:00.297Z</time></trkpt><trkpt lat="44.9085667" lon="8.3728183"><ele>155.5</ele><time>2026-04-11T14:31:01.297Z</time></trkpt><trkpt lat="44.908625" lon="8.37297"><ele>155.75</ele><time>2026-04-11T14:31:02.297Z</time></trkpt><trkpt lat="44.9086817" lon="8.3731033"><ele>156.0</ele><time>2026-04-11T14:31:03.297Z</time></trkpt><trkpt lat="44.9087333" lon="8.373225"><ele>156.33333333333334</ele><time>2026-04-11T14:31:04.297Z</time></trkpt><trkpt lat="44.9087833" lon="8.3733317"><ele>156.66666666666666</ele><time>2026-04-11T14:31:05.296Z</time></trkpt><trkpt lat="44.9088183" lon="8.373415"><ele>157.0</ele><time>2026-04-11T14:31:06.296Z</time></trkpt><trkpt lat="44.9088483" lon="8.373545"><ele>157.33333333333331</ele><time>2026-04-11T14:31:08.296Z</time></trkpt><trkpt lat="44.90888" lon="8.37367"><ele>157.66666666666666</ele><time>2026-04-11T14:31:10.296Z</time></trkpt><trkpt lat="44.908925" lon="8.3737633"><ele>158.0</ele><time>2026-04-11T14:31:12.297Z</time></trkpt><trkpt lat="44.90898" lon="8.3738133"><ele>158.0</ele><time>2026-04-11T14:31:15.297Z</time></trkpt><trkpt lat="44.9090433" lon="8.373815"><ele>158.0</ele><time>2026-04-11T14:31:17.297Z</time></trkpt><trkpt lat="44.90912" lon="8.373775"><ele>158.0</ele><time>2026-04-11T14:31:18.296Z</time></trkpt><trkpt lat="44.9092167" lon="8.373735"><ele>158.0</ele><time>2026-04-11T14:31:19.296Z</time></trkpt><trkpt lat="44.9093133" lon="8.3736783"><ele>158.0</ele><time>2026-04-11T14:31:20.296Z</time></trkpt><trkpt lat="44.9094167" lon="8.373615"><ele>158.0</ele><time>2026-04-11T14:31:21.296Z</time></trkpt><trkpt lat="44.9095283" lon="8.3735433"><ele>158.0</ele><time>2026-04-11T14:31:22.297Z</time></trkpt><trkpt lat="44.909645" lon="8.3734717"><ele>158.0</ele><time>2026-04-11T14:31:23.296Z</time></trkpt><trkpt lat="44.9097517" lon="8.373395"><ele>158.0</ele><time>2026-04-11T14:31:24.296Z</time></trkpt><trkpt lat="44.9098717" lon="8.3733417"><ele>158.0</ele><time>2026-04-11T14:31:25.297Z</time></trkpt><trkpt lat="44.9099933" lon="8.3732767"><ele>158.0</ele><time>2026-04-11T14:31:26.296Z</time></trkpt><trkpt lat="44.91011" lon="8.3732167"><ele>158.0</ele><time>2026-04-11T14:31:27.296Z</time></trkpt><trkpt lat="44.91023" lon="8.3731433"><ele>158.0</ele><time>2026-04-11T14:31:28.296Z</time></trkpt><trkpt lat="44.910345" lon="8.3730717"><ele>158.0</ele><time>2026-04-11T14:31:29.297Z</time></trkpt><trkpt lat="44.91046" lon="8.3730067"><ele>158.0</ele><time>2026-04-11T14:31:30.296Z</time></trkpt><trkpt lat="44.9105767" lon="8.3729217"><ele>158.0</ele><time>2026-04-11T14:31:31.296Z</time></trkpt><trkpt lat="44.91068" lon="8.3728317"><ele>158.0</ele><time>2026-04-11T14:31:32.297Z</time></trkpt><trkpt lat="44.9107833" lon="8.3727383"><ele>158.0</ele><time>2026-04-11T14:31:33.296Z</time></trkpt><trkpt lat="44.9108883" lon="8.3726483"><ele>158.0</ele><time>2026-04-11T14:31:34.297Z</time></trkpt><trkpt lat="44.910995" lon="8.3725417"><ele>158.0</ele><time>2026-04-11T14:31:35.296Z</time></trkpt><trkpt lat="44.911095" lon="8.37245"><ele>158.0</ele><time>2026-04-11T14:31:36.296Z</time></trkpt><trkpt lat="44.91118" lon="8.372375"><ele>157.75</ele><time>2026-04-11T14:31:37.296Z</time></trkpt><trkpt lat="44.9112717" lon="8.3722933"><ele>157.5</ele><time>2026-04-11T14:31:38.296Z</time></trkpt><trkpt lat="44.911375" lon="8.3722117"><ele>157.25</ele><time>2026-04-11T14:31:39.296Z</time></trkpt><trkpt lat="44.91148" lon="8.3721317"><ele>157.0</ele><time>2026-04-11T14:31:40.296Z</time></trkpt><trkpt lat="44.9115867" lon="8.3720617"><ele>157.0</ele><time>2026-04-11T14:31:41.296Z</time></trkpt><trkpt lat="44.9117017" lon="8.3719983"><ele>157.0</ele><time>2026-04-11T14:31:42.296Z</time></trkpt><trkpt lat="44.9118117" lon="8.37192"><ele>157.0</ele><time>2026-04-11T14:31:43.296Z</time></trkpt><trkpt lat="44.9119317" lon="8.37187"><ele>157.0</ele><time>2026-04-11T14:31:44.296Z</time></trkpt><trkpt lat="44.9120467" lon="8.371825"><ele>157.0</ele><time>2026-04-11T14:31:45.296Z</time></trkpt><trkpt lat="44.9121633" lon="8.3717717"><ele>157.0</ele><time>2026-04-11T14:31:46.296Z</time></trkpt><trkpt lat="44.9122917" lon="8.3717133"><ele>157.0</ele><time>2026-04-11T14:31:47.297Z</time></trkpt><trkpt lat="44.9124133" lon="8.3716533"><ele>157.0</ele><time>2026-04-11T14:31:48.296Z</time></trkpt><trkpt lat="44.912535" lon="8.3715833"><ele>156.75</ele><time>2026-04-11T14:31:49.296Z</time></trkpt><trkpt lat="44.91266" lon="8.3715167"><ele>156.5</ele><time>2026-04-11T14:31:50.296Z</time></trkpt><trkpt lat="44.9127833" lon="8.3714433"><ele>156.25</ele><time>2026-04-11T14:31:51.296Z</time></trkpt><trkpt lat="44.9129083" lon="8.3713683"><ele>156.0</ele><time>2026-04-11T14:31:52.296Z</time></trkpt><trkpt lat="44.9130267" lon="8.371295"><ele>156.0</ele><time>2026-04-11T14:31:53.297Z</time></trkpt><trkpt lat="44.91315" lon="8.371225"><ele>156.0</ele><time>2026-04-11T14:31:54.297Z</time></trkpt><trkpt lat="44.91327" lon="8.371165"><ele>156.0</ele><time>2026-04-11T14:31:55.296Z</time></trkpt><trkpt lat="44.9133967" lon="8.371105"><ele>156.0</ele><time>2026-04-11T14:31:56.296Z</time></trkpt><trkpt lat="44.9135233" lon="8.3710567"><ele>156.0</ele><time>2026-04-11T14:31:57.296Z</time></trkpt><trkpt lat="44.91366" lon="8.3710133"><ele>156.0</ele><time>2026-04-11T14:31:58.296Z</time></trkpt><trkpt lat="44.913795" lon="8.3709633"><ele>156.0</ele><time>2026-04-11T14:31:59.297Z</time></trkpt><trkpt lat="44.9139283" lon="8.370915"><ele>156.0</ele><time>2026-04-11T14:32:00.296Z</time></trkpt><trkpt lat="44.914055" lon="8.3708633"><ele>156.0</ele><time>2026-04-11T14:32:01.297Z</time></trkpt><trkpt lat="44.9141883" lon="8.370815"><ele>156.0</ele><time>2026-04-11T14:32:02.296Z</time></trkpt><trkpt lat="44.9143217" lon="8.3707633"><ele>156.0</ele><time>2026-04-11T14:32:03.296Z</time></trkpt><trkpt lat="44.914455" lon="8.370715"><ele>156.0</ele><time>2026-04-11T14:32:04.296Z</time></trkpt><trkpt lat="44.9145867" lon="8.3706517"><ele>156.5</ele><time>2026-04-11T14:32:05.296Z</time></trkpt><trkpt lat="44.914725" lon="8.37059"><ele>157.0</ele><time>2026-04-11T14:32:06.296Z</time></trkpt><trkpt lat="44.91487" lon="8.3705317"><ele>157.5</ele><time>2026-04-11T14:32:07.296Z</time></trkpt><trkpt lat="44.915015" lon="8.3704717"><ele>158.0</ele><time>2026-04-11T14:32:08.297Z</time></trkpt><trkpt lat="44.915405" lon="8.370285"><ele>158.5</ele><time>2026-04-11T14:32:11.296Z</time></trkpt><trkpt lat="44.915535" lon="8.3702317"><ele>159.0</ele><time>2026-04-11T14:32:12.297Z</time></trkpt><trkpt lat="44.915655" lon="8.3701517"><ele>159.5</ele><time>2026-04-11T14:32:13.297Z</time></trkpt><trkpt lat="44.9157667" lon="8.3700717"><ele>160.0</ele><time>2026-04-11T14:32:14.296Z</time></trkpt><trkpt lat="44.9158667" lon="8.36997"><ele>160.0</ele><time>2026-04-11T14:32:15.296Z</time></trkpt><trkpt lat="44.9159633" lon="8.3698617"><ele>160.0</ele><time>2026-04-11T14:32:16.296Z</time></trkpt><trkpt lat="44.9160483" lon="8.3697483"><ele>160.0</ele><time>2026-04-11T14:32:17.296Z</time></trkpt><trkpt lat="44.9161183" lon="8.3696433"><ele>160.0</ele><time>2026-04-11T14:32:18.297Z</time></trkpt><trkpt lat="44.9161783" lon="8.3695317"><ele>160.0</ele><time>2026-04-11T14:32:19.296Z</time></trkpt><trkpt lat="44.9162317" lon="8.3694267"><ele>160.0</ele><time>2026-04-11T14:32:20.296Z</time></trkpt><trkpt lat="44.91629" lon="8.36932"><ele>160.0</ele><time>2026-04-11T14:32:21.297Z</time></trkpt><trkpt lat="44.9163383" lon="8.3692217"><ele>160.0</ele><time>2026-04-11T14:32:22.296Z</time></trkpt><trkpt lat="44.9163967" lon="8.36912"><ele>160.0</ele><time>2026-04-11T14:32:23.297Z</time></trkpt><trkpt lat="44.916455" lon="8.36902"><ele>160.0</ele><time>2026-04-11T14:32:24.296Z</time></trkpt><trkpt lat="44.916515" lon="8.36893"><ele>159.66666666666669</ele><time>2026-04-11T14:32:25.296Z</time></trkpt><trkpt lat="44.9165717" lon="8.368845"><ele>159.33333333333334</ele><time>2026-04-11T14:32:26.296Z</time></trkpt><trkpt lat="44.916625" lon="8.36876"><ele>159.0</ele><time>2026-04-11T14:32:27.297Z</time></trkpt><trkpt lat="44.9166867" lon="8.36868"><ele>158.66666666666666</ele><time>2026-04-11T14:32:28.296Z</time></trkpt><trkpt lat="44.9167567" lon="8.3686017"><ele>158.33333333333331</ele><time>2026-04-11T14:32:29.297Z</time></trkpt><trkpt lat="44.916835" lon="8.368525"><ele>158.0</ele><time>2026-04-11T14:32:30.296Z</time></trkpt><trkpt lat="44.9169133" lon="8.368445"><ele>158.0</ele><time>2026-04-11T14:32:31.296Z</time></trkpt><trkpt lat="44.916985" lon="8.368365"><ele>158.0</ele><time>2026-04-11T14:32:32.296Z</time></trkpt><trkpt lat="44.9170533" lon="8.36829"><ele>158.0</ele><time>2026-04-11T14:32:33.296Z</time></trkpt><trkpt lat="44.9171183" lon="8.3682117"><ele>158.0</ele><time>2026-04-11T14:32:34.296Z</time></trkpt><trkpt lat="44.917185" lon="8.36812"><ele>158.0</ele><time>2026-04-11T14:32:35.297Z</time></trkpt><trkpt lat="44.9172433" lon="8.368025"><ele>158.0</ele><time>2026-04-11T14:32:36.296Z</time></trkpt><trkpt lat="44.9172967" lon="8.3679267"><ele>157.6</ele><time>2026-04-11T14:32:37.297Z</time></trkpt><trkpt lat="44.9173517" lon="8.367825"><ele>157.20000000000002</ele><time>2026-04-11T14:32:38.297Z</time></trkpt><trkpt lat="44.91741" lon="8.3677183"><ele>156.8</ele><time>2026-04-11T14:32:39.296Z</time></trkpt><trkpt lat="44.9174633" lon="8.3676133"><ele>156.4</ele><time>2026-04-11T14:32:40.296Z</time></trkpt><trkpt lat="44.9175183" lon="8.367505"><ele>156.0</ele><time>2026-04-11T14:32:41.296Z</time></trkpt><trkpt lat="44.9175633" lon="8.3673967"><ele>156.4</ele><time>2026-04-11T14:32:42.296Z</time></trkpt><trkpt lat="44.9176133" lon="8.36729"><ele>156.8</ele><time>2026-04-11T14:32:43.296Z</time></trkpt><trkpt lat="44.9176633" lon="8.3671817"><ele>157.20000000000002</ele><time>2026-04-11T14:32:44.297Z</time></trkpt><trkpt lat="44.9177117" lon="8.3670733"><ele>157.6</ele><time>2026-04-11T14:32:45.296Z</time></trkpt><trkpt lat="44.9177617" lon="8.3669567"><ele>158.0</ele><time>2026-04-11T14:32:46.296Z</time></trkpt><trkpt lat="44.917795" lon="8.3668367"><ele>158.20000000000002</ele><time>2026-04-11T14:32:47.296Z</time></trkpt><trkpt lat="44.9178283" lon="8.3667133"><ele>158.4</ele><time>2026-04-11T14:32:48.297Z</time></trkpt><trkpt lat="44.91786" lon="8.366585"><ele>158.60000000000002</ele><time>2026-04-11T14:32:49.297Z</time></trkpt><trkpt lat="44.91789" lon="8.3664567"><ele>158.8</ele><time>2026-04-11T14:32:50.296Z</time></trkpt><trkpt lat="44.9179267" lon="8.3663267"><ele>159.0</ele><time>2026-04-11T14:32:51.296Z</time></trkpt><trkpt lat="44.9179567" lon="8.3661933"><ele>159.2</ele><time>2026-04-11T14:32:52.297Z</time></trkpt><trkpt lat="44.91799" lon="8.3660633"><ele>159.4</ele><time>2026-04-11T14:32:53.296Z</time></trkpt><trkpt lat="44.9180217" lon="8.36594"><ele>159.6</ele><time>2026-04-11T14:32:54.296Z</time></trkpt><trkpt lat="44.9180517" lon="8.3658117"><ele>159.8</ele><time>2026-04-11T14:32:55.297Z</time></trkpt><trkpt lat="44.9180917" lon="8.3656867"><ele>160.0</ele><time>2026-04-11T14:32:56.297Z</time></trkpt><trkpt lat="44.9181333" lon="8.365565"><ele>160.0</ele><time>2026-04-11T14:32:57.297Z</time></trkpt><trkpt lat="44.9181733" lon="8.3654567"><ele>160.0</ele><time>2026-04-11T14:32:58.297Z</time></trkpt><trkpt lat="44.9182117" lon="8.3653517"><ele>160.0</ele><time>2026-04-11T14:32:59.296Z</time></trkpt><trkpt lat="44.9182517" lon="8.36524"><ele>160.0</ele><time>2026-04-11T14:33:00.297Z</time></trkpt><trkpt lat="44.9182967" lon="8.365125"><ele>160.0</ele><time>2026-04-11T14:33:01.296Z</time></trkpt><trkpt lat="44.9183383" lon="8.36501"><ele>160.0</ele><time>2026-04-11T14:33:02.296Z</time></trkpt><trkpt lat="44.9183733" lon="8.3648917"><ele>159.83333333333334</ele><time>2026-04-11T14:33:03.296Z</time></trkpt><trkpt lat="44.9184133" lon="8.364775"><ele>159.66666666666669</ele><time>2026-04-11T14:33:04.297Z</time></trkpt><trkpt lat="44.9184483" lon="8.36467"><ele>159.5</ele><time>2026-04-11T14:33:05.296Z</time></trkpt><trkpt lat="44.9184833" lon="8.3645617"><ele>159.33333333333334</ele><time>2026-04-11T14:33:06.297Z</time></trkpt><trkpt lat="44.9185183" lon="8.3644567"><ele>159.16666666666666</ele><time>2026-04-11T14:33:07.297Z</time></trkpt><trkpt lat="44.9185483" lon="8.3643567"><ele>159.0</ele><time>2026-04-11T14:33:08.296Z</time></trkpt><trkpt lat="44.9185783" lon="8.364255"><ele>159.33333333333334</ele><time>2026-04-11T14:33:09.297Z</time></trkpt><trkpt lat="44.918615" lon="8.3641567"><ele>159.66666666666666</ele><time>2026-04-11T14:33:10.297Z</time></trkpt><trkpt lat="44.918655" lon="8.3640667"><ele>160.0</ele><time>2026-04-11T14:33:11.296Z</time></trkpt><trkpt lat="44.9187067" lon="8.363975"><ele>160.33333333333331</ele><time>2026-04-11T14:33:12.296Z</time></trkpt><trkpt lat="44.91876" lon="8.363905"><ele>160.66666666666666</ele><time>2026-04-11T14:33:13.296Z</time></trkpt><trkpt lat="44.9188317" lon="8.3638483"><ele>161.0</ele><time>2026-04-11T14:33:14.297Z</time></trkpt><trkpt lat="44.9189117" lon="8.3638167"><ele>161.20000000000002</ele><time>2026-04-11T14:33:15.296Z</time></trkpt><trkpt lat="44.9190017" lon="8.3637967"><ele>161.4</ele><time>2026-04-11T14:33:16.296Z</time></trkpt><trkpt lat="44.9191017" lon="8.3637633"><ele>161.6</ele><time>2026-04-11T14:33:17.297Z</time></trkpt><trkpt lat="44.91921" lon="8.3637317"><ele>161.8</ele><time>2026-04-11T14:33:18.296Z</time></trkpt><trkpt lat="44.9193133" lon="8.36369"><ele>162.0</ele><time>2026-04-11T14:33:19.296Z</time></trkpt><trkpt lat="44.9194083" lon="8.3636417"><ele>162.5</ele><time>2026-04-11T14:33:20.297Z</time></trkpt><trkpt lat="44.919495" lon="8.3636"><ele>163.0</ele><time>2026-04-11T14:33:21.296Z</time></trkpt><trkpt lat="44.9195733" lon="8.3635683"><ele>163.5</ele><time>2026-04-11T14:33:22.296Z</time></trkpt><trkpt lat="44.91965" lon="8.363535"><ele>164.0</ele><time>2026-04-11T14:33:23.296Z</time></trkpt><trkpt lat="44.9197217" lon="8.3634983"><ele>164.5</ele><time>2026-04-11T14:33:24.296Z</time></trkpt><trkpt lat="44.9197917" lon="8.363465"><ele>165.0</ele><time>2026-04-11T14:33:25.296Z</time></trkpt><trkpt lat="44.9198517" lon="8.363435"><ele>165.0</ele><time>2026-04-11T14:33:26.296Z</time></trkpt><trkpt lat="44.919915" lon="8.363415"><ele>165.0</ele><time>2026-04-11T14:33:27.297Z</time></trkpt><trkpt lat="44.92003" lon="8.3634233"><ele>165.0</ele><time>2026-04-11T14:33:29.297Z</time></trkpt><trkpt lat="44.9201017" lon="8.3636367"><ele>165.0</ele><time>2026-04-11T14:33:32.296Z</time></trkpt><trkpt lat="44.9201033" lon="8.36374"><ele>165.0</ele><time>2026-04-11T14:33:33.297Z</time></trkpt><trkpt lat="44.920105" lon="8.3638567"><ele>165.0</ele><time>2026-04-11T14:33:34.296Z</time></trkpt><trkpt lat="44.9201217" lon="8.3639633"><ele>165.0</ele><time>2026-04-11T14:33:35.296Z</time></trkpt><trkpt lat="44.92015" lon="8.3640833"><ele>165.0</ele><time>2026-04-11T14:33:36.296Z</time></trkpt><trkpt lat="44.9201967" lon="8.3641983"><ele>165.0</ele><time>2026-04-11T14:33:37.296Z</time></trkpt><trkpt lat="44.92025" lon="8.3642883"><ele>165.0</ele><time>2026-04-11T14:33:38.296Z</time></trkpt><trkpt lat="44.9203067" lon="8.3643867"><ele>165.0</ele><time>2026-04-11T14:33:39.296Z</time></trkpt><trkpt lat="44.9203517" lon="8.364505"><ele>165.0</ele><time>2026-04-11T14:33:40.296Z</time></trkpt><trkpt lat="44.9204017" lon="8.36464"><ele>165.0</ele><time>2026-04-11T14:33:41.296Z</time></trkpt><trkpt lat="44.9204617" lon="8.3647733"><ele>165.0</ele><time>2026-04-11T14:33:42.297Z</time></trkpt><trkpt lat="44.92052" lon="8.3649117"><ele>165.0</ele><time>2026-04-11T14:33:43.296Z</time></trkpt><trkpt lat="44.9205717" lon="8.3650417"><ele>165.0</ele><time>2026-04-11T14:33:44.296Z</time></trkpt><trkpt lat="44.9206267" lon="8.365175"><ele>164.25</ele><time>2026-04-11T14:33:45.297Z</time></trkpt><trkpt lat="44.9206933" lon="8.36531"><ele>163.5</ele><time>2026-04-11T14:33:46.297Z</time></trkpt><trkpt lat="44.92076" lon="8.3654617"><ele>162.75</ele><time>2026-04-11T14:33:47.297Z</time></trkpt><trkpt lat="44.9208217" lon="8.3656117"><ele>162.0</ele><time>2026-04-11T14:33:48.296Z</time></trkpt><trkpt lat="44.920885" lon="8.3657533"><ele>161.2</ele><time>2026-04-11T14:33:49.297Z</time></trkpt><trkpt lat="44.9209467" lon="8.3658833"><ele>160.39999999999998</ele><time>2026-04-11T14:33:50.296Z</time></trkpt><trkpt lat="44.9209833" lon="8.3660067"><ele>159.60000000000002</ele><time>2026-04-11T14:33:51.297Z</time></trkpt><trkpt lat="44.9210317" lon="8.3661083"><ele>158.8</ele><time>2026-04-11T14:33:52.296Z</time></trkpt><trkpt lat="44.9210867" lon="8.3661917"><ele>158.0</ele><time>2026-04-11T14:33:53.296Z</time></trkpt><trkpt lat="44.921145" lon="8.3662667"><ele>158.0</ele><time>2026-04-11T14:33:54.296Z</time></trkpt><trkpt lat="44.921225" lon="8.366335"><ele>158.0</ele><time>2026-04-11T14:33:55.296Z</time></trkpt><trkpt lat="44.921325" lon="8.3663817"><ele>158.0</ele><time>2026-04-11T14:33:56.297Z</time></trkpt><trkpt lat="44.9214317" lon="8.3664183"><ele>158.0</ele><time>2026-04-11T14:33:57.296Z</time></trkpt><trkpt lat="44.921535" lon="8.3664533"><ele>158.0</ele><time>2026-04-11T14:33:58.297Z</time></trkpt><trkpt lat="44.9216317" lon="8.3664817"><ele>158.0</ele><time>2026-04-11T14:33:59.297Z</time></trkpt><trkpt lat="44.9217317" lon="8.3665067"><ele>158.0</ele><time>2026-04-11T14:34:00.296Z</time></trkpt><trkpt lat="44.9218383" lon="8.36655"><ele>158.0</ele><time>2026-04-11T14:34:01.296Z</time></trkpt><trkpt lat="44.9219533" lon="8.366595"><ele>158.0</ele><time>2026-04-11T14:34:02.296Z</time></trkpt><trkpt lat="44.9220583" lon="8.3666533"><ele>158.0</ele><time>2026-04-11T14:34:03.296Z</time></trkpt><trkpt lat="44.9221617" lon="8.3667267"><ele>158.25</ele><time>2026-04-11T14:34:04.296Z</time></trkpt><trkpt lat="44.92226" lon="8.3668117"><ele>158.5</ele><time>2026-04-11T14:34:05.296Z</time></trkpt><trkpt lat="44.922355" lon="8.36691"><ele>158.75</ele><time>2026-04-11T14:34:06.296Z</time></trkpt><trkpt lat="44.92244" lon="8.3670233"><ele>159.0</ele><time>2026-04-11T14:34:07.296Z</time></trkpt><trkpt lat="44.9225283" lon="8.3671317"><ele>159.4</ele><time>2026-04-11T14:34:08.296Z</time></trkpt><trkpt lat="44.9226033" lon="8.36724"><ele>159.8</ele><time>2026-04-11T14:34:09.296Z</time></trkpt><trkpt lat="44.9226667" lon="8.3673317"><ele>160.20000000000002</ele><time>2026-04-11T14:34:10.296Z</time></trkpt><trkpt lat="44.922705" lon="8.3674117"><ele>160.60000000000002</ele><time>2026-04-11T14:34:11.296Z</time></trkpt><trkpt lat="44.9227183" lon="8.36758"><ele>161.0</ele><time>2026-04-11T14:34:13.296Z</time></trkpt><trkpt lat="44.92269" lon="8.3676883"><ele>161.0</ele><time>2026-04-11T14:34:14.296Z</time></trkpt><trkpt lat="44.9226433" lon="8.36781"><ele>161.0</ele><time>2026-04-11T14:34:15.297Z</time></trkpt><trkpt lat="44.922595" lon="8.3679617"><ele>161.0</ele><time>2026-04-11T14:34:16.296Z</time></trkpt><trkpt lat="44.9225567" lon="8.3681267"><ele>161.0</ele><time>2026-04-11T14:34:17.296Z</time></trkpt><trkpt lat="44.9225133" lon="8.36828"><ele>160.25</ele><time>2026-04-11T14:34:18.297Z</time></trkpt><trkpt lat="44.922475" lon="8.3684283"><ele>159.5</ele><time>2026-04-11T14:34:19.296Z</time></trkpt><trkpt lat="44.9224367" lon="8.3685817"><ele>158.75</ele><time>2026-04-11T14:34:20.296Z</time></trkpt><trkpt lat="44.9223933" lon="8.3687383"><ele>158.0</ele><time>2026-04-11T14:34:21.297Z</time></trkpt><trkpt lat="44.92235" lon="8.3689033"><ele>158.0</ele><time>2026-04-11T14:34:22.297Z</time></trkpt><trkpt lat="44.9223133" lon="8.3690683"><ele>158.0</ele><time>2026-04-11T14:34:23.296Z</time></trkpt><trkpt lat="44.9222683" lon="8.36923"><ele>158.0</ele><time>2026-04-11T14:34:24.296Z</time></trkpt><trkpt lat="44.9222233" lon="8.369385"><ele>158.0</ele><time>2026-04-11T14:34:25.296Z</time></trkpt><trkpt lat="44.9221867" lon="8.369525"><ele>158.0</ele><time>2026-04-11T14:34:26.296Z</time></trkpt><trkpt lat="44.9221483" lon="8.369655"><ele>158.0</ele><time>2026-04-11T14:34:27.297Z</time></trkpt><trkpt lat="44.9221117" lon="8.3697717"><ele>158.0</ele><time>2026-04-11T14:34:28.296Z</time></trkpt><trkpt lat="44.9220733" lon="8.3698917"><ele>158.0</ele><time>2026-04-11T14:34:29.297Z</time></trkpt><trkpt lat="44.9220433" lon="8.3700233"><ele>158.0</ele><time>2026-04-11T14:34:30.296Z</time></trkpt><trkpt lat="44.9220183" lon="8.3701583"><ele>157.8</ele><time>2026-04-11T14:34:31.296Z</time></trkpt><trkpt lat="44.9219983" lon="8.3702883"><ele>157.60000000000002</ele><time>2026-04-11T14:34:32.297Z</time></trkpt><trkpt lat="44.9219917" lon="8.3704133"><ele>157.39999999999998</ele><time>2026-04-11T14:34:33.296Z</time></trkpt><trkpt lat="44.9219983" lon="8.3705367"><ele>157.2</ele><time>2026-04-11T14:34:34.297Z</time></trkpt><trkpt lat="44.9220033" lon="8.370665"><ele>157.0</ele><time>2026-04-11T14:34:35.296Z</time></trkpt><trkpt lat="44.921995" lon="8.370795"><ele>157.0</ele><time>2026-04-11T14:34:36.297Z</time></trkpt><trkpt lat="44.92197" lon="8.3709317"><ele>157.0</ele><time>2026-04-11T14:34:37.296Z</time></trkpt><trkpt lat="44.921945" lon="8.3710683"><ele>157.0</ele><time>2026-04-11T14:34:38.296Z</time></trkpt><trkpt lat="44.9219133" lon="8.3711983"><ele>157.0</ele><time>2026-04-11T14:34:39.296Z</time></trkpt><trkpt lat="44.9218783" lon="8.3713333"><ele>157.0</ele><time>2026-04-11T14:34:40.296Z</time></trkpt><trkpt lat="44.9218483" lon="8.3714667"><ele>157.0</ele><time>2026-04-11T14:34:41.297Z</time></trkpt><trkpt lat="44.92182" lon="8.3716083"><ele>157.0</ele><time>2026-04-11T14:34:42.296Z</time></trkpt><trkpt lat="44.9217967" lon="8.37176"><ele>157.0</ele><time>2026-04-11T14:34:43.297Z</time></trkpt><trkpt lat="44.921765" lon="8.371905"><ele>157.0</ele><time>2026-04-11T14:34:44.296Z</time></trkpt><trkpt lat="44.9217333" lon="8.3720467"><ele>157.0</ele><time>2026-04-11T14:34:45.296Z</time></trkpt><trkpt lat="44.921705" lon="8.372185"><ele>156.6</ele><time>2026-04-11T14:34:46.296Z</time></trkpt><trkpt lat="44.9216783" lon="8.372325"><ele>156.2</ele><time>2026-04-11T14:34:47.296Z</time></trkpt><trkpt lat="44.921655" lon="8.37246"><ele>155.8</ele><time>2026-04-11T14:34:48.296Z</time></trkpt><trkpt lat="44.9216333" lon="8.3726"><ele>155.4</ele><time>2026-04-11T14:34:49.296Z</time></trkpt><trkpt lat="44.9216167" lon="8.37274"><ele>155.0</ele><time>2026-04-11T14:34:50.296Z</time></trkpt><trkpt lat="44.9216067" lon="8.37287"><ele>155.0</ele><time>2026-04-11T14:34:51.296Z</time></trkpt><trkpt lat="44.9215817" lon="8.3729983"><ele>155.0</ele><time>2026-04-11T14:34:52.296Z</time></trkpt><trkpt lat="44.9215533" lon="8.373135"><ele>155.0</ele><time>2026-04-11T14:34:53.296Z</time></trkpt><trkpt lat="44.921535" lon="8.3732733"><ele>155.0</ele><time>2026-04-11T14:34:54.296Z</time></trkpt><trkpt lat="44.9215067" lon="8.3734267"><ele>155.0</ele><time>2026-04-11T14:34:55.296Z</time></trkpt><trkpt lat="44.92148" lon="8.3735717"><ele>155.2</ele><time>2026-04-11T14:34:56.297Z</time></trkpt><trkpt lat="44.9214517" lon="8.3737067"><ele>155.4</ele><time>2026-04-11T14:34:57.296Z</time></trkpt><trkpt lat="44.921425" lon="8.37384"><ele>155.6</ele><time>2026-04-11T14:34:58.297Z</time></trkpt><trkpt lat="44.9214" lon="8.3739767"><ele>155.8</ele><time>2026-04-11T14:34:59.296Z</time></trkpt><trkpt lat="44.9213767" lon="8.374115"><ele>156.0</ele><time>2026-04-11T14:35:00.296Z</time></trkpt><trkpt lat="44.9213517" lon="8.37425"><ele>156.2</ele><time>2026-04-11T14:35:01.297Z</time></trkpt><trkpt lat="44.9213367" lon="8.3743883"><ele>156.39999999999998</ele><time>2026-04-11T14:35:02.296Z</time></trkpt><trkpt lat="44.9213167" lon="8.3745317"><ele>156.6</ele><time>2026-04-11T14:35:03.296Z</time></trkpt><trkpt lat="44.9213" lon="8.3746833"><ele>156.79999999999998</ele><time>2026-04-11T14:35:04.297Z</time></trkpt><trkpt lat="44.9212767" lon="8.3748333"><ele>157.0</ele><time>2026-04-11T14:35:05.296Z</time></trkpt><trkpt lat="44.9212567" lon="8.374975"><ele>157.2</ele><time>2026-04-11T14:35:06.296Z</time></trkpt><trkpt lat="44.921225" lon="8.3751217"><ele>157.39999999999998</ele><time>2026-04-11T14:35:07.296Z</time></trkpt><trkpt lat="44.9211867" lon="8.37527"><ele>157.60000000000002</ele><time>2026-04-11T14:35:08.295Z</time></trkpt><trkpt lat="44.9211417" lon="8.3754167"><ele>157.8</ele><time>2026-04-11T14:35:09.296Z</time></trkpt><trkpt lat="44.9210983" lon="8.3755567"><ele>158.0</ele><time>2026-04-11T14:35:10.295Z</time></trkpt><trkpt lat="44.92105" lon="8.3756733"><ele>158.0</ele><time>2026-04-11T14:35:11.295Z</time></trkpt><trkpt lat="44.9209967" lon="8.375785"><ele>158.0</ele><time>2026-04-11T14:35:12.295Z</time></trkpt><trkpt lat="44.9209317" lon="8.3758967"><ele>158.0</ele><time>2026-04-11T14:35:13.295Z</time></trkpt><trkpt lat="44.920875" lon="8.3760183"><ele>158.0</ele><time>2026-04-11T14:35:14.296Z</time></trkpt><trkpt lat="44.9208317" lon="8.376145"><ele>158.0</ele><time>2026-04-11T14:35:15.296Z</time></trkpt><trkpt lat="44.9207983" lon="8.3762567"><ele>157.83333333333331</ele><time>2026-04-11T14:35:16.295Z</time></trkpt><trkpt lat="44.920775" lon="8.3763617"><ele>157.66666666666666</ele><time>2026-04-11T14:35:17.295Z</time></trkpt><trkpt lat="44.9207667" lon="8.3764667"><ele>157.5</ele><time>2026-04-11T14:35:18.295Z</time></trkpt><trkpt lat="44.9207717" lon="8.3765867"><ele>157.33333333333334</ele><time>2026-04-11T14:35:19.295Z</time></trkpt><trkpt lat="44.92079" lon="8.3767117"><ele>157.16666666666669</ele><time>2026-04-11T14:35:20.295Z</time></trkpt><trkpt lat="44.9208033" lon="8.3768567"><ele>157.0</ele><time>2026-04-11T14:35:21.295Z</time></trkpt><trkpt lat="44.920815" lon="8.3769917"><ele>157.0</ele><time>2026-04-11T14:35:22.295Z</time></trkpt><trkpt lat="44.9208167" lon="8.3771283"><ele>157.0</ele><time>2026-04-11T14:35:23.295Z</time></trkpt><trkpt lat="44.9208117" lon="8.377255"><ele>157.0</ele><time>2026-04-11T14:35:24.295Z</time></trkpt><trkpt lat="44.9208017" lon="8.3773783"><ele>157.0</ele><time>2026-04-11T14:35:25.296Z</time></trkpt><trkpt lat="44.9207917" lon="8.3775017"><ele>157.0</ele><time>2026-04-11T14:35:26.295Z</time></trkpt><trkpt lat="44.92078" lon="8.3776317"><ele>156.6</ele><time>2026-04-11T14:35:27.296Z</time></trkpt><trkpt lat="44.9207717" lon="8.3777583"><ele>156.2</ele><time>2026-04-11T14:35:28.296Z</time></trkpt><trkpt lat="44.92076" lon="8.377895"><ele>155.8</ele><time>2026-04-11T14:35:29.296Z</time></trkpt><trkpt lat="44.92076" lon="8.3780317"><ele>155.4</ele><time>2026-04-11T14:35:30.296Z</time></trkpt><trkpt lat="44.9207433" lon="8.3781733"><ele>155.0</ele><time>2026-04-11T14:35:31.296Z</time></trkpt><trkpt lat="44.9207233" lon="8.378325"><ele>154.8</ele><time>2026-04-11T14:35:32.295Z</time></trkpt><trkpt lat="44.92071" lon="8.37848"><ele>154.6</ele><time>2026-04-11T14:35:33.295Z</time></trkpt><trkpt lat="44.920695" lon="8.3786267"><ele>154.4</ele><time>2026-04-11T14:35:34.295Z</time></trkpt><trkpt lat="44.9206933" lon="8.3787733"><ele>154.2</ele><time>2026-04-11T14:35:35.295Z</time></trkpt><trkpt lat="44.92069" lon="8.378905"><ele>154.0</ele><time>2026-04-11T14:35:36.295Z</time></trkpt><trkpt lat="44.92069" lon="8.3790267"><ele>153.8</ele><time>2026-04-11T14:35:37.295Z</time></trkpt><trkpt lat="44.92069" lon="8.3791533"><ele>153.60000000000002</ele><time>2026-04-11T14:35:38.295Z</time></trkpt><trkpt lat="44.9206867" lon="8.3792883"><ele>153.4</ele><time>2026-04-11T14:35:39.295Z</time></trkpt><trkpt lat="44.9206867" lon="8.3794217"><ele>153.20000000000002</ele><time>2026-04-11T14:35:40.296Z</time></trkpt><trkpt lat="44.920685" lon="8.3795617"><ele>153.0</ele><time>2026-04-11T14:35:41.295Z</time></trkpt><trkpt lat="44.9206867" lon="8.379695"><ele>152.0</ele><time>2026-04-11T14:35:42.296Z</time></trkpt><trkpt lat="44.9206783" lon="8.3798367"><ele>151.0</ele><time>2026-04-11T14:35:43.296Z</time></trkpt><trkpt lat="44.9206683" lon="8.3799767"><ele>150.0</ele><time>2026-04-11T14:35:44.295Z</time></trkpt><trkpt lat="44.9206567" lon="8.3801167"><ele>149.0</ele><time>2026-04-11T14:35:45.295Z</time></trkpt><trkpt lat="44.9206417" lon="8.3802633"><ele>148.0</ele><time>2026-04-11T14:35:46.295Z</time></trkpt><trkpt lat="44.9206217" lon="8.3803917"><ele>148.0</ele><time>2026-04-11T14:35:47.295Z</time></trkpt><trkpt lat="44.920595" lon="8.38053"><ele>148.0</ele><time>2026-04-11T14:35:48.296Z</time></trkpt><trkpt lat="44.9205567" lon="8.3806633"><ele>148.0</ele><time>2026-04-11T14:35:49.295Z</time></trkpt><trkpt lat="44.9205117" lon="8.3808067"><ele>148.0</ele><time>2026-04-11T14:35:50.295Z</time></trkpt><trkpt lat="44.92047" lon="8.380955"><ele>148.0</ele><time>2026-04-11T14:35:51.295Z</time></trkpt><trkpt lat="44.92043" lon="8.38109"><ele>148.0</ele><time>2026-04-11T14:35:52.296Z</time></trkpt><trkpt lat="44.9203917" lon="8.3812283"><ele>148.0</ele><time>2026-04-11T14:35:53.295Z</time></trkpt><trkpt lat="44.9203583" lon="8.3813717"><ele>148.0</ele><time>2026-04-11T14:35:54.295Z</time></trkpt><trkpt lat="44.9203117" lon="8.3815117"><ele>148.0</ele><time>2026-04-11T14:35:55.295Z</time></trkpt><trkpt lat="44.92026" lon="8.3816567"><ele>148.0</ele><time>2026-04-11T14:35:56.295Z</time></trkpt><trkpt lat="44.9202117" lon="8.3818"><ele>148.0</ele><time>2026-04-11T14:35:57.295Z</time></trkpt><trkpt lat="44.92017" lon="8.3819433"><ele>148.0</ele><time>2026-04-11T14:35:58.295Z</time></trkpt><trkpt lat="44.9201217" lon="8.3820683"><ele>148.0</ele><time>2026-04-11T14:35:59.295Z</time></trkpt><trkpt lat="44.92007" lon="8.3821933"><ele>148.0</ele><time>2026-04-11T14:36:00.295Z</time></trkpt><trkpt lat="44.9200167" lon="8.3823083"><ele>148.0</ele><time>2026-04-11T14:36:01.295Z</time></trkpt><trkpt lat="44.9199583" lon="8.382415"><ele>148.0</ele><time>2026-04-11T14:36:02.296Z</time></trkpt><trkpt lat="44.9198983" lon="8.382515"><ele>148.0</ele><time>2026-04-11T14:36:03.295Z</time></trkpt><trkpt lat="44.9198517" lon="8.38261"><ele>148.0</ele><time>2026-04-11T14:36:04.296Z</time></trkpt><trkpt lat="44.91982" lon="8.38271"><ele>148.0</ele><time>2026-04-11T14:36:05.295Z</time></trkpt><trkpt lat="44.9197917" lon="8.3828267"><ele>148.0</ele><time>2026-04-11T14:36:06.296Z</time></trkpt><trkpt lat="44.919775" lon="8.38295"><ele>148.0</ele><time>2026-04-11T14:36:07.295Z</time></trkpt><trkpt lat="44.9197683" lon="8.383065"><ele>146.8</ele><time>2026-04-11T14:36:08.295Z</time></trkpt><trkpt lat="44.919785" lon="8.3832583"><ele>145.60000000000002</ele><time>2026-04-11T14:36:10.295Z</time></trkpt><trkpt lat="44.9198083" lon="8.3833517"><ele>144.39999999999998</ele><time>2026-04-11T14:36:11.295Z</time></trkpt><trkpt lat="44.9198683" lon="8.38343"><ele>143.2</ele><time>2026-04-11T14:36:12.296Z</time></trkpt><trkpt lat="44.91993" lon="8.3835067"><ele>142.0</ele><time>2026-04-11T14:36:13.295Z</time></trkpt><trkpt lat="44.919995" lon="8.3835867"><ele>140.79999999999998</ele><time>2026-04-11T14:36:14.295Z</time></trkpt><trkpt lat="44.9200683" lon="8.3836583"><ele>139.6</ele><time>2026-04-11T14:36:15.295Z</time></trkpt><trkpt lat="44.9201433" lon="8.3837367"><ele>138.39999999999998</ele><time>2026-04-11T14:36:16.296Z</time></trkpt><trkpt lat="44.9202183" lon="8.3838183"><ele>137.2</ele><time>2026-04-11T14:36:17.295Z</time></trkpt><trkpt lat="44.920295" lon="8.3838883"><ele>136.0</ele><time>2026-04-11T14:36:18.295Z</time></trkpt><trkpt lat="44.9203667" lon="8.38396"><ele>134.6</ele><time>2026-04-11T14:36:19.296Z</time></trkpt><trkpt lat="44.92044" lon="8.384025"><ele>133.2</ele><time>2026-04-11T14:36:20.295Z</time></trkpt><trkpt lat="44.92052" lon="8.3840783"><ele>131.8</ele><time>2026-04-11T14:36:21.295Z</time></trkpt><trkpt lat="44.9206033" lon="8.3841383"><ele>130.4</ele><time>2026-04-11T14:36:22.295Z</time></trkpt><trkpt lat="44.9206967" lon="8.3842033"><ele>129.0</ele><time>2026-04-11T14:36:23.296Z</time></trkpt><trkpt lat="44.9207867" lon="8.3842683"><ele>129.0</ele><time>2026-04-11T14:36:24.295Z</time></trkpt><trkpt lat="44.920865" lon="8.3843433"><ele>129.0</ele><time>2026-04-11T14:36:25.296Z</time></trkpt><trkpt lat="44.9209533" lon="8.3844067"><ele>129.0</ele><time>2026-04-11T14:36:26.295Z</time></trkpt><trkpt lat="44.9210467" lon="8.3844717"><ele>129.0</ele><time>2026-04-11T14:36:27.295Z</time></trkpt><trkpt lat="44.9211417" lon="8.3845333"><ele>129.0</ele><time>2026-04-11T14:36:28.295Z</time></trkpt><trkpt lat="44.9212333" lon="8.3845917"><ele>128.6</ele><time>2026-04-11T14:36:29.296Z</time></trkpt><trkpt lat="44.9213217" lon="8.3846583"><ele>128.2</ele><time>2026-04-11T14:36:30.295Z</time></trkpt><trkpt lat="44.921405" lon="8.38473"><ele>127.79999999999998</ele><time>2026-04-11T14:36:31.295Z</time></trkpt><trkpt lat="44.921485" lon="8.384805"><ele>127.39999999999999</ele><time>2026-04-11T14:36:32.295Z</time></trkpt><trkpt lat="44.92156" lon="8.3848883"><ele>127.0</ele><time>2026-04-11T14:36:33.295Z</time></trkpt><trkpt lat="44.9216383" lon="8.384985"><ele>126.8</ele><time>2026-04-11T14:36:34.295Z</time></trkpt><trkpt lat="44.92172" lon="8.38508"><ele>126.6</ele><time>2026-04-11T14:36:35.295Z</time></trkpt><trkpt lat="44.9218" lon="8.3851767"><ele>126.39999999999999</ele><time>2026-04-11T14:36:36.296Z</time></trkpt><trkpt lat="44.9218867" lon="8.38528"><ele>126.19999999999999</ele><time>2026-04-11T14:36:37.296Z</time></trkpt><trkpt lat="44.9219667" lon="8.3853717"><ele>126.0</ele><time>2026-04-11T14:36:38.295Z</time></trkpt><trkpt lat="44.922035" lon="8.385465"><ele>126.0</ele><time>2026-04-11T14:36:39.296Z</time></trkpt><trkpt lat="44.922105" lon="8.385555"><ele>126.0</ele><time>2026-04-11T14:36:40.295Z</time></trkpt><trkpt lat="44.9221783" lon="8.38565"><ele>126.0</ele><time>2026-04-11T14:36:41.296Z</time></trkpt><trkpt lat="44.9222467" lon="8.3857267"><ele>126.0</ele><time>2026-04-11T14:36:42.295Z</time></trkpt><trkpt lat="44.9223117" lon="8.3858"><ele>126.0</ele><time>2026-04-11T14:36:43.295Z</time></trkpt><trkpt lat="44.922365" lon="8.3858733"><ele>126.0</ele><time>2026-04-11T14:36:44.295Z</time></trkpt><trkpt lat="44.9224167" lon="8.3859317"><ele>126.0</ele><time>2026-04-11T14:36:45.296Z</time></trkpt><trkpt lat="44.9224967" lon="8.386025"><ele>126.0</ele><time>2026-04-11T14:36:47.295Z</time></trkpt><trkpt lat="44.9225417" lon="8.38611"><ele>126.0</ele><time>2026-04-11T14:36:49.296Z</time></trkpt><trkpt lat="44.9225" lon="8.3862317"><ele>126.0</ele><time>2026-04-11T14:36:51.295Z</time></trkpt><trkpt lat="44.92241" lon="8.3863617"><ele>126.0</ele><time>2026-04-11T14:36:53.296Z</time></trkpt><trkpt lat="44.9223567" lon="8.3864467"><ele>127.0</ele><time>2026-04-11T14:36:54.296Z</time></trkpt><trkpt lat="44.9222883" lon="8.386545"><ele>128.0</ele><time>2026-04-11T14:36:55.296Z</time></trkpt><trkpt lat="44.9222133" lon="8.3866683"><ele>129.0</ele><time>2026-04-11T14:36:56.296Z</time></trkpt><trkpt lat="44.922135" lon="8.386805"><ele>130.0</ele><time>2026-04-11T14:36:57.296Z</time></trkpt><trkpt lat="44.9220533" lon="8.3869367"><ele>130.0</ele><time>2026-04-11T14:36:58.295Z</time></trkpt><trkpt lat="44.9219733" lon="8.38707"><ele>130.0</ele><time>2026-04-11T14:36:59.295Z</time></trkpt><trkpt lat="44.9218917" lon="8.387215"><ele>130.0</ele><time>2026-04-11T14:37:00.295Z</time></trkpt><trkpt lat="44.9218" lon="8.3873783"><ele>130.0</ele><time>2026-04-11T14:37:01.295Z</time></trkpt><trkpt lat="44.92171" lon="8.3875317"><ele>129.5</ele><time>2026-04-11T14:37:02.295Z</time></trkpt><trkpt lat="44.921615" lon="8.3876767"><ele>129.0</ele><time>2026-04-11T14:37:03.295Z</time></trkpt><trkpt lat="44.921525" lon="8.3878267"><ele>128.5</ele><time>2026-04-11T14:37:04.296Z</time></trkpt><trkpt lat="44.9214367" lon="8.3879683"><ele>128.0</ele><time>2026-04-11T14:37:05.296Z</time></trkpt><trkpt lat="44.921345" lon="8.3881133"><ele>128.0</ele><time>2026-04-11T14:37:06.296Z</time></trkpt><trkpt lat="44.9211383" lon="8.3883817"><ele>128.0</ele><time>2026-04-11T14:37:08.295Z</time></trkpt><trkpt lat="44.921035" lon="8.388515"><ele>128.0</ele><time>2026-04-11T14:37:09.295Z</time></trkpt><trkpt lat="44.9209317" lon="8.388645"><ele>128.20000000000002</ele><time>2026-04-11T14:37:10.295Z</time></trkpt><trkpt lat="44.9208383" lon="8.3887667"><ele>128.4</ele><time>2026-04-11T14:37:11.296Z</time></trkpt><trkpt lat="44.9207567" lon="8.3888867"><ele>128.60000000000002</ele><time>2026-04-11T14:37:12.295Z</time></trkpt><trkpt lat="44.9206817" lon="8.388995"><ele>128.8</ele><time>2026-04-11T14:37:13.295Z</time></trkpt><trkpt lat="44.9206083" lon="8.389085"><ele>129.0</ele><time>2026-04-11T14:37:14.295Z</time></trkpt><trkpt lat="44.9205517" lon="8.3891633"><ele>129.0</ele><time>2026-04-11T14:37:15.295Z</time></trkpt><trkpt lat="44.9205" lon="8.3892333"><ele>129.0</ele><time>2026-04-11T14:37:16.295Z</time></trkpt><trkpt lat="44.9204217" lon="8.3893417"><ele>129.0</ele><time>2026-04-11T14:37:18.295Z</time></trkpt><trkpt lat="44.9204017" lon="8.3894383"><ele>129.0</ele><time>2026-04-11T14:37:20.295Z</time></trkpt><trkpt lat="44.9204433" lon="8.3895267"><ele>129.0</ele><time>2026-04-11T14:37:22.295Z</time></trkpt><trkpt lat="44.9205267" lon="8.3896267"><ele>129.0</ele><time>2026-04-11T14:37:24.296Z</time></trkpt><trkpt lat="44.9205817" lon="8.389695"><ele>129.42857142857142</ele><time>2026-04-11T14:37:26.296Z</time></trkpt><trkpt lat="44.9206367" lon="8.3897633"><ele>129.85714285714286</ele><time>2026-04-11T14:37:29.295Z</time></trkpt><trkpt lat="44.9206867" lon="8.3898383"><ele>130.28571428571428</ele><time>2026-04-11T14:37:31.295Z</time></trkpt><trkpt lat="44.9207283" lon="8.3899167"><ele>130.71428571428572</ele><time>2026-04-11T14:37:33.295Z</time></trkpt><trkpt lat="44.92078" lon="8.390005"><ele>131.14285714285714</ele><time>2026-04-11T14:37:36.296Z</time></trkpt><trkpt lat="44.920825" lon="8.3900767"><ele>131.57142857142856</ele><time>2026-04-11T14:37:39.295Z</time></trkpt><trkpt lat="44.920845" lon="8.3901817"><ele>132.0</ele><time>2026-04-11T14:38:37.295Z</time></trkpt><trkpt lat="44.920895" lon="8.3903017"><ele>132.79999999999998</ele><time>2026-04-11T14:38:39.295Z</time></trkpt><trkpt lat="44.9209683" lon="8.3904417"><ele>133.6</ele><time>2026-04-11T14:38:41.296Z</time></trkpt><trkpt lat="44.9210117" lon="8.3905133"><ele>134.39999999999998</ele><time>2026-04-11T14:38:42.296Z</time></trkpt><trkpt lat="44.9210517" lon="8.390595"><ele>135.2</ele><time>2026-04-11T14:38:43.295Z</time></trkpt><trkpt lat="44.921135" lon="8.39075"><ele>136.0</ele><time>2026-04-11T14:38:45.296Z</time></trkpt><trkpt lat="44.921185" lon="8.3908417"><ele>136.66666666666669</ele><time>2026-04-11T14:38:46.295Z</time></trkpt><trkpt lat="44.9212417" lon="8.3909283"><ele>137.33333333333334</ele><time>2026-04-11T14:38:47.295Z</time></trkpt><trkpt lat="44.9212983" lon="8.3910217"><ele>138.0</ele><time>2026-04-11T14:38:48.296Z</time></trkpt><trkpt lat="44.92135" lon="8.3911117"><ele>138.66666666666666</ele><time>2026-04-11T14:38:49.295Z</time></trkpt><trkpt lat="44.9214033" lon="8.3911967"><ele>139.33333333333331</ele><time>2026-04-11T14:38:50.295Z</time></trkpt><trkpt lat="44.9214417" lon="8.3912817"><ele>140.0</ele><time>2026-04-11T14:38:51.295Z</time></trkpt><trkpt lat="44.9214783" lon="8.3913717"><ele>140.83333333333331</ele><time>2026-04-11T14:38:52.296Z</time></trkpt><trkpt lat="44.9215217" lon="8.39146"><ele>141.66666666666666</ele><time>2026-04-11T14:38:53.296Z</time></trkpt><trkpt lat="44.921565" lon="8.391555"><ele>142.5</ele><time>2026-04-11T14:38:54.295Z</time></trkpt><trkpt lat="44.9216017" lon="8.3916567"><ele>143.33333333333334</ele><time>2026-04-11T14:38:55.295Z</time></trkpt><trkpt lat="44.92163" lon="8.3917417"><ele>144.16666666666669</ele><time>2026-04-11T14:38:56.295Z</time></trkpt><trkpt lat="44.9216533" lon="8.3918283"><ele>145.0</ele><time>2026-04-11T14:38:57.295Z</time></trkpt><trkpt lat="44.9217183" lon="8.3919483"><ele>145.0</ele><time>2026-04-11T14:38:59.295Z</time></trkpt><trkpt lat="44.92181" lon="8.39194"><ele>145.0</ele><time>2026-04-11T14:39:02.295Z</time></trkpt><trkpt lat="44.9218717" lon="8.3919"><ele>145.0</ele><time>2026-04-11T14:39:04.295Z</time></trkpt><trkpt lat="44.9219317" lon="8.39186"><ele>145.0</ele><time>2026-04-11T14:39:06.296Z</time></trkpt><trkpt lat="44.92199" lon="8.3918233"><ele>145.0</ele><time>2026-04-11T14:39:42.295Z</time></trkpt><trkpt lat="44.9220767" lon="8.3917767"><ele>145.0</ele><time>2026-04-11T14:39:44.295Z</time></trkpt><trkpt lat="44.9221767" lon="8.3917517"><ele>145.0</ele><time>2026-04-11T14:39:46.295Z</time></trkpt><trkpt lat="44.9222383" lon="8.3917317"><ele>145.0</ele><time>2026-04-11T14:39:47.296Z</time></trkpt><trkpt lat="44.9223217" lon="8.3916917"><ele>145.0</ele><time>2026-04-11T14:39:49.295Z</time></trkpt><trkpt lat="44.92241" lon="8.3916667"><ele>145.0</ele><time>2026-04-11T14:39:51.295Z</time></trkpt><trkpt lat="44.922505" lon="8.3916333"><ele>145.0</ele><time>2026-04-11T14:39:53.295Z</time></trkpt><trkpt lat="44.9226033" lon="8.3915833"><ele>145.0</ele><time>2026-04-11T14:39:55.295Z</time></trkpt><trkpt lat="44.9226617" lon="8.3915483"><ele>145.14285714285714</ele><time>2026-04-11T14:39:56.295Z</time></trkpt><trkpt lat="44.9227233" lon="8.3915"><ele>145.2857142857143</ele><time>2026-04-11T14:39:57.294Z</time></trkpt><trkpt lat="44.9227833" lon="8.3914483"><ele>145.42857142857144</ele><time>2026-04-11T14:39:58.294Z</time></trkpt><trkpt lat="44.922845" lon="8.3913917"><ele>145.57142857142858</ele><time>2026-04-11T14:39:59.294Z</time></trkpt><trkpt lat="44.9229033" lon="8.39133"><ele>145.71428571428572</ele><time>2026-04-11T14:40:00.294Z</time></trkpt><trkpt lat="44.9229583" lon="8.3912767"><ele>145.85714285714286</ele><time>2026-04-11T14:40:01.294Z</time></trkpt><trkpt lat="44.9230183" lon="8.39122"><ele>146.0</ele><time>2026-04-11T14:40:02.294Z</time></trkpt><trkpt lat="44.9230783" lon="8.3911617"><ele>146.0</ele><time>2026-04-11T14:40:03.295Z</time></trkpt><trkpt lat="44.92314" lon="8.391105"><ele>146.0</ele><time>2026-04-11T14:40:04.295Z</time></trkpt><trkpt lat="44.9232017" lon="8.391045"><ele>146.0</ele><time>2026-04-11T14:40:05.294Z</time></trkpt><trkpt lat="44.9232683" lon="8.390995"><ele>146.0</ele><time>2026-04-11T14:40:06.294Z</time></trkpt><trkpt lat="44.9233283" lon="8.3909317"><ele>146.0</ele><time>2026-04-11T14:40:07.294Z</time></trkpt><trkpt lat="44.9233883" lon="8.390875"><ele>146.0</ele><time>2026-04-11T14:40:08.295Z</time></trkpt><trkpt lat="44.923445" lon="8.390825"><ele>146.0</ele><time>2026-04-11T14:40:09.294Z</time></trkpt><trkpt lat="44.923505" lon="8.3907733"><ele>146.0</ele><time>2026-04-11T14:40:10.294Z</time></trkpt><trkpt lat="44.9235617" lon="8.3907133"><ele>146.0</ele><time>2026-04-11T14:40:11.294Z</time></trkpt><trkpt lat="44.9236217" lon="8.3906583"><ele>146.0</ele><time>2026-04-11T14:40:12.294Z</time></trkpt><trkpt lat="44.9236833" lon="8.3905967"><ele>146.0</ele><time>2026-04-11T14:40:13.294Z</time></trkpt><trkpt lat="44.9237417" lon="8.3905433"><ele>146.0</ele><time>2026-04-11T14:40:14.294Z</time></trkpt><trkpt lat="44.9238067" lon="8.3904883"><ele>146.0</ele><time>2026-04-11T14:40:15.295Z</time></trkpt><trkpt lat="44.9238767" lon="8.3904283"><ele>146.0</ele><time>2026-04-11T14:40:16.294Z</time></trkpt><trkpt lat="44.9239533" lon="8.3903533"><ele>146.0</ele><time>2026-04-11T14:40:17.294Z</time></trkpt><trkpt lat="44.92403" lon="8.3902833"><ele>146.0</ele><time>2026-04-11T14:40:18.294Z</time></trkpt><trkpt lat="44.9241067" lon="8.3902117"><ele>146.0</ele><time>2026-04-11T14:40:19.295Z</time></trkpt><trkpt lat="44.9241883" lon="8.3901333"><ele>146.0</ele><time>2026-04-11T14:40:20.294Z</time></trkpt><trkpt lat="44.9242733" lon="8.3900667"><ele>146.0</ele><time>2026-04-11T14:40:21.294Z</time></trkpt><trkpt lat="44.9243567" lon="8.3899933"><ele>146.0</ele><time>2026-04-11T14:40:22.295Z</time></trkpt><trkpt lat="44.9244333" lon="8.3899183"><ele>146.0</ele><time>2026-04-11T14:40:23.294Z</time></trkpt><trkpt lat="44.9245133" lon="8.38984"><ele>146.0</ele><time>2026-04-11T14:40:24.294Z</time></trkpt><trkpt lat="44.9246017" lon="8.38977"><ele>146.0</ele><time>2026-04-11T14:40:25.294Z</time></trkpt><trkpt lat="44.9246933" lon="8.3897017"><ele>146.0</ele><time>2026-04-11T14:40:26.294Z</time></trkpt><trkpt lat="44.92478" lon="8.3896383"><ele>146.0</ele><time>2026-04-11T14:40:27.294Z</time></trkpt><trkpt lat="44.924875" lon="8.3895767"><ele>146.0</ele><time>2026-04-11T14:40:28.294Z</time></trkpt><trkpt lat="44.9249583" lon="8.389495"><ele>146.0</ele><time>2026-04-11T14:40:29.294Z</time></trkpt><trkpt lat="44.925045" lon="8.3894017"><ele>146.0</ele><time>2026-04-11T14:40:30.294Z</time></trkpt><trkpt lat="44.9251183" lon="8.3893167"><ele>146.0</ele><time>2026-04-11T14:40:31.294Z</time></trkpt><trkpt lat="44.9251917" lon="8.38923"><ele>146.16666666666666</ele><time>2026-04-11T14:40:32.294Z</time></trkpt><trkpt lat="44.92526" lon="8.38915"><ele>146.33333333333331</ele><time>2026-04-11T14:40:33.294Z</time></trkpt><trkpt lat="44.92532" lon="8.3890683"><ele>146.5</ele><time>2026-04-11T14:40:34.294Z</time></trkpt><trkpt lat="44.9253833" lon="8.3889933"><ele>146.66666666666666</ele><time>2026-04-11T14:40:35.294Z</time></trkpt><trkpt lat="44.9254433" lon="8.3889133"><ele>146.83333333333334</ele><time>2026-04-11T14:40:36.294Z</time></trkpt><trkpt lat="44.92551" lon="8.3888283"><ele>147.0</ele><time>2026-04-11T14:40:37.295Z</time></trkpt><trkpt lat="44.9255817" lon="8.388735"><ele>147.0</ele><time>2026-04-11T14:40:38.294Z</time></trkpt><trkpt lat="44.9256433" lon="8.3886467"><ele>147.0</ele><time>2026-04-11T14:40:39.294Z</time></trkpt><trkpt lat="44.925705" lon="8.38856"><ele>147.0</ele><time>2026-04-11T14:40:40.294Z</time></trkpt><trkpt lat="44.9257683" lon="8.3884683"><ele>147.0</ele><time>2026-04-11T14:40:41.294Z</time></trkpt><trkpt lat="44.9258333" lon="8.3883833"><ele>147.0</ele><time>2026-04-11T14:40:42.295Z</time></trkpt><trkpt lat="44.9258917" lon="8.3883"><ele>147.0</ele><time>2026-04-11T14:40:43.294Z</time></trkpt><trkpt lat="44.92595" lon="8.3882117"><ele>147.0</ele><time>2026-04-11T14:40:44.295Z</time></trkpt><trkpt lat="44.926015" lon="8.38813"><ele>147.0</ele><time>2026-04-11T14:40:45.294Z</time></trkpt><trkpt lat="44.92609" lon="8.3880417"><ele>147.0</ele><time>2026-04-11T14:40:46.294Z</time></trkpt><trkpt lat="44.9261633" lon="8.387965"><ele>147.0</ele><time>2026-04-11T14:40:47.294Z</time></trkpt><trkpt lat="44.926245" lon="8.38789"><ele>147.0</ele><time>2026-04-11T14:40:48.295Z</time></trkpt><trkpt lat="44.92632" lon="8.38783"><ele>147.0</ele><time>2026-04-11T14:40:49.295Z</time></trkpt><trkpt lat="44.9263967" lon="8.387775"><ele>147.0</ele><time>2026-04-11T14:40:50.295Z</time></trkpt><trkpt lat="44.9264583" lon="8.3877217"><ele>147.0</ele><time>2026-04-11T14:40:51.294Z</time></trkpt><trkpt lat="44.926525" lon="8.3876767"><ele>147.0</ele><time>2026-04-11T14:40:52.295Z</time></trkpt><trkpt lat="44.926605" lon="8.387645"><ele>147.0</ele><time>2026-04-11T14:40:53.294Z</time></trkpt><trkpt lat="44.9266783" lon="8.3876167"><ele>147.0</ele><time>2026-04-11T14:40:54.294Z</time></trkpt><trkpt lat="44.9267483" lon="8.3875883"><ele>147.33333333333334</ele><time>2026-04-11T14:40:55.295Z</time></trkpt><trkpt lat="44.9268133" lon="8.3875533"><ele>147.66666666666666</ele><time>2026-04-11T14:40:56.294Z</time></trkpt><trkpt lat="44.9268767" lon="8.3875183"><ele>148.0</ele><time>2026-04-11T14:40:57.294Z</time></trkpt><trkpt lat="44.9269367" lon="8.38749"><ele>148.33333333333331</ele><time>2026-04-11T14:40:58.294Z</time></trkpt><trkpt lat="44.92703" lon="8.3874433"><ele>148.66666666666666</ele><time>2026-04-11T14:41:00.294Z</time></trkpt><trkpt lat="44.9271167" lon="8.3874333"><ele>149.0</ele><time>2026-04-11T14:41:02.295Z</time></trkpt><trkpt lat="44.9272067" lon="8.3875433"><ele>149.0</ele><time>2026-04-11T14:41:04.294Z</time></trkpt><trkpt lat="44.9272467" lon="8.3876517"><ele>149.0</ele><time>2026-04-11T14:41:05.294Z</time></trkpt><trkpt lat="44.9272933" lon="8.387785"><ele>149.0</ele><time>2026-04-11T14:41:06.294Z</time></trkpt><trkpt lat="44.92734" lon="8.3879133"><ele>149.0</ele><time>2026-04-11T14:41:07.295Z</time></trkpt><trkpt lat="44.9273767" lon="8.388055"><ele>149.0</ele><time>2026-04-11T14:41:08.294Z</time></trkpt><trkpt lat="44.9274617" lon="8.3883333"><ele>149.0</ele><time>2026-04-11T14:41:10.295Z</time></trkpt><trkpt lat="44.9274983" lon="8.3884683"><ele>149.0</ele><time>2026-04-11T14:41:11.294Z</time></trkpt><trkpt lat="44.927535" lon="8.3886"><ele>149.0</ele><time>2026-04-11T14:41:12.294Z</time></trkpt><trkpt lat="44.9275733" lon="8.3887283"><ele>149.0</ele><time>2026-04-11T14:41:13.295Z</time></trkpt><trkpt lat="44.9276167" lon="8.38885"><ele>149.0</ele><time>2026-04-11T14:41:14.294Z</time></trkpt><trkpt lat="44.9276383" lon="8.3889717"><ele>149.0</ele><time>2026-04-11T14:41:15.294Z</time></trkpt><trkpt lat="44.9276467" lon="8.389095"><ele>149.0</ele><time>2026-04-11T14:41:16.294Z</time></trkpt><trkpt lat="44.9276483" lon="8.3892183"><ele>149.0</ele><time>2026-04-11T14:41:17.294Z</time></trkpt><trkpt lat="44.92761" lon="8.389335"><ele>149.0</ele><time>2026-04-11T14:41:18.295Z</time></trkpt><trkpt lat="44.9275633" lon="8.389445"><ele>149.0</ele><time>2026-04-11T14:41:19.294Z</time></trkpt><trkpt lat="44.9275083" lon="8.389555"><ele>148.83333333333331</ele><time>2026-04-11T14:41:20.294Z</time></trkpt><trkpt lat="44.9274517" lon="8.3896667"><ele>148.66666666666666</ele><time>2026-04-11T14:41:21.294Z</time></trkpt><trkpt lat="44.9274" lon="8.389775"><ele>148.5</ele><time>2026-04-11T14:41:22.294Z</time></trkpt><trkpt lat="44.9273517" lon="8.389875"><ele>148.33333333333334</ele><time>2026-04-11T14:41:23.294Z</time></trkpt><trkpt lat="44.927305" lon="8.3899733"><ele>148.16666666666669</ele><time>2026-04-11T14:41:24.295Z</time></trkpt><trkpt lat="44.92726" lon="8.390075"><ele>148.0</ele><time>2026-04-11T14:41:25.294Z</time></trkpt><trkpt lat="44.92721" lon="8.390175"><ele>147.8</ele><time>2026-04-11T14:41:26.294Z</time></trkpt><trkpt lat="44.92716" lon="8.3902833"><ele>147.60000000000002</ele><time>2026-04-11T14:41:27.294Z</time></trkpt><trkpt lat="44.927115" lon="8.3903833"><ele>147.39999999999998</ele><time>2026-04-11T14:41:28.294Z</time></trkpt><trkpt lat="44.92707" lon="8.3904917"><ele>147.2</ele><time>2026-04-11T14:41:29.295Z</time></trkpt><trkpt lat="44.9270283" lon="8.3906067"><ele>147.0</ele><time>2026-04-11T14:41:30.294Z</time></trkpt><trkpt lat="44.926985" lon="8.3907267"><ele>147.0</ele><time>2026-04-11T14:41:31.294Z</time></trkpt><trkpt lat="44.9269383" lon="8.3908433"><ele>147.0</ele><time>2026-04-11T14:41:32.295Z</time></trkpt><trkpt lat="44.9268967" lon="8.390965"><ele>147.0</ele><time>2026-04-11T14:41:33.294Z</time></trkpt><trkpt lat="44.926855" lon="8.391085"><ele>147.0</ele><time>2026-04-11T14:41:34.294Z</time></trkpt><trkpt lat="44.9268117" lon="8.3911983"><ele>147.0</ele><time>2026-04-11T14:41:35.295Z</time></trkpt><trkpt lat="44.926775" lon="8.3913083"><ele>147.4</ele><time>2026-04-11T14:41:36.294Z</time></trkpt><trkpt lat="44.926745" lon="8.391425"><ele>147.79999999999998</ele><time>2026-04-11T14:41:37.294Z</time></trkpt><trkpt lat="44.92672" lon="8.39155"><ele>148.2</ele><time>2026-04-11T14:41:38.295Z</time></trkpt><trkpt lat="44.9266983" lon="8.3916783"><ele>148.6</ele><time>2026-04-11T14:41:39.294Z</time></trkpt><trkpt lat="44.9266717" lon="8.3918017"><ele>149.0</ele><time>2026-04-11T14:41:40.294Z</time></trkpt><trkpt lat="44.92664" lon="8.391915"><ele>149.0</ele><time>2026-04-11T14:41:41.294Z</time></trkpt><trkpt lat="44.92661" lon="8.3920317"><ele>149.0</ele><time>2026-04-11T14:41:42.294Z</time></trkpt><trkpt lat="44.92659" lon="8.3921617"><ele>149.0</ele><time>2026-04-11T14:41:43.294Z</time></trkpt><trkpt lat="44.9265883" lon="8.39229"><ele>149.0</ele><time>2026-04-11T14:41:44.294Z</time></trkpt><trkpt lat="44.9266" lon="8.3924133"><ele>149.0</ele><time>2026-04-11T14:41:45.295Z</time></trkpt><trkpt lat="44.9266217" lon="8.3925333"><ele>149.0</ele><time>2026-04-11T14:41:46.295Z</time></trkpt><trkpt lat="44.9266517" lon="8.3926567"><ele>149.0</ele><time>2026-04-11T14:41:47.295Z</time></trkpt><trkpt lat="44.9266683" lon="8.3927833"><ele>149.0</ele><time>2026-04-11T14:41:48.295Z</time></trkpt><trkpt lat="44.9266783" lon="8.39291"><ele>149.0</ele><time>2026-04-11T14:41:49.294Z</time></trkpt><trkpt lat="44.9266417" lon="8.3931733"><ele>149.0</ele><time>2026-04-11T14:41:51.294Z</time></trkpt><trkpt lat="44.9266233" lon="8.3933117"><ele>148.8</ele><time>2026-04-11T14:41:52.294Z</time></trkpt><trkpt lat="44.9266033" lon="8.3934617"><ele>148.60000000000002</ele><time>2026-04-11T14:41:53.294Z</time></trkpt><trkpt lat="44.9265817" lon="8.3936033"><ele>148.4</ele><time>2026-04-11T14:41:54.294Z</time></trkpt><trkpt lat="44.9265333" lon="8.393715"><ele>148.20000000000002</ele><time>2026-04-11T14:41:55.294Z</time></trkpt><trkpt lat="44.9264933" lon="8.3938467"><ele>148.0</ele><time>2026-04-11T14:41:56.295Z</time></trkpt><trkpt lat="44.9264617" lon="8.3939817"><ele>147.8</ele><time>2026-04-11T14:41:57.294Z</time></trkpt><trkpt lat="44.9264467" lon="8.3941283"><ele>147.60000000000002</ele><time>2026-04-11T14:41:58.294Z</time></trkpt><trkpt lat="44.92645" lon="8.3942733"><ele>147.39999999999998</ele><time>2026-04-11T14:41:59.295Z</time></trkpt><trkpt lat="44.92645" lon="8.3944217"><ele>147.2</ele><time>2026-04-11T14:42:00.294Z</time></trkpt><trkpt lat="44.92646" lon="8.3945667"><ele>147.0</ele><time>2026-04-11T14:42:01.294Z</time></trkpt><trkpt lat="44.9264733" lon="8.3947117"><ele>146.79999999999998</ele><time>2026-04-11T14:42:02.294Z</time></trkpt><trkpt lat="44.92648" lon="8.3948567"><ele>146.6</ele><time>2026-04-11T14:42:03.295Z</time></trkpt><trkpt lat="44.926475" lon="8.3949933"><ele>146.39999999999998</ele><time>2026-04-11T14:42:04.294Z</time></trkpt><trkpt lat="44.9264683" lon="8.3951383"><ele>146.2</ele><time>2026-04-11T14:42:05.294Z</time></trkpt><trkpt lat="44.9264567" lon="8.3952817"><ele>146.0</ele><time>2026-04-11T14:42:06.295Z</time></trkpt><trkpt lat="44.9264433" lon="8.3954217"><ele>145.8</ele><time>2026-04-11T14:42:07.295Z</time></trkpt><trkpt lat="44.926435" lon="8.3955767"><ele>145.6</ele><time>2026-04-11T14:42:08.295Z</time></trkpt><trkpt lat="44.9264267" lon="8.3957133"><ele>145.4</ele><time>2026-04-11T14:42:09.295Z</time></trkpt><trkpt lat="44.9264167" lon="8.3958483"><ele>145.2</ele><time>2026-04-11T14:42:10.294Z</time></trkpt><trkpt lat="44.92641" lon="8.395985"><ele>145.0</ele><time>2026-04-11T14:42:11.295Z</time></trkpt><trkpt lat="44.9264033" lon="8.3961017"><ele>145.0</ele><time>2026-04-11T14:42:12.294Z</time></trkpt><trkpt lat="44.926395" lon="8.396205"><ele>145.0</ele><time>2026-04-11T14:42:13.295Z</time></trkpt><trkpt lat="44.9263883" lon="8.3963133"><ele>145.0</ele><time>2026-04-11T14:42:14.295Z</time></trkpt><trkpt lat="44.926385" lon="8.3964183"><ele>145.0</ele><time>2026-04-11T14:42:15.294Z</time></trkpt><trkpt lat="44.92638" lon="8.3965283"><ele>145.0</ele><time>2026-04-11T14:42:16.294Z</time></trkpt><trkpt lat="44.9263817" lon="8.3966367"><ele>145.0</ele><time>2026-04-11T14:42:17.295Z</time></trkpt><trkpt lat="44.9263867" lon="8.3967517"><ele>144.6</ele><time>2026-04-11T14:42:18.295Z</time></trkpt><trkpt lat="44.926395" lon="8.3968583"><ele>144.2</ele><time>2026-04-11T14:42:19.294Z</time></trkpt><trkpt lat="44.9264" lon="8.39696"><ele>143.8</ele><time>2026-04-11T14:42:20.294Z</time></trkpt><trkpt lat="44.9264083" lon="8.39714"><ele>143.4</ele><time>2026-04-11T14:42:22.294Z</time></trkpt><trkpt lat="44.9263983" lon="8.3972367"><ele>143.0</ele><time>2026-04-11T14:42:23.294Z</time></trkpt><trkpt lat="44.9263917" lon="8.3974067"><ele>143.0</ele><time>2026-04-11T14:42:25.294Z</time></trkpt><trkpt lat="44.926365" lon="8.397575"><ele>143.0</ele><time>2026-04-11T14:42:27.294Z</time></trkpt><trkpt lat="44.92635" lon="8.397675"><ele>143.0</ele><time>2026-04-11T14:42:28.294Z</time></trkpt><trkpt lat="44.9263267" lon="8.3977867"><ele>143.0</ele><time>2026-04-11T14:42:29.294Z</time></trkpt><trkpt lat="44.9263033" lon="8.3979017"><ele>143.0</ele><time>2026-04-11T14:42:30.294Z</time></trkpt><trkpt lat="44.92628" lon="8.39803"><ele>143.0</ele><time>2026-04-11T14:42:31.294Z</time></trkpt><trkpt lat="44.9262567" lon="8.3981567"><ele>143.0</ele><time>2026-04-11T14:42:32.294Z</time></trkpt><trkpt lat="44.9262333" lon="8.3982883"><ele>143.0</ele><time>2026-04-11T14:42:33.294Z</time></trkpt><trkpt lat="44.9262117" lon="8.398425"><ele>143.0</ele><time>2026-04-11T14:42:34.294Z</time></trkpt><trkpt lat="44.926185" lon="8.3985717"><ele>143.0</ele><time>2026-04-11T14:42:35.294Z</time></trkpt><trkpt lat="44.9261517" lon="8.3987183"><ele>142.5</ele><time>2026-04-11T14:42:36.295Z</time></trkpt><trkpt lat="44.926125" lon="8.3988833"><ele>142.0</ele><time>2026-04-11T14:42:37.295Z</time></trkpt><trkpt lat="44.9260917" lon="8.3990517"><ele>141.5</ele><time>2026-04-11T14:42:38.294Z</time></trkpt><trkpt lat="44.9260617" lon="8.3992117"><ele>141.0</ele><time>2026-04-11T14:42:39.294Z</time></trkpt><trkpt lat="44.926045" lon="8.399385"><ele>141.0</ele><time>2026-04-11T14:42:40.294Z</time></trkpt><trkpt lat="44.9260183" lon="8.3995633"><ele>141.0</ele><time>2026-04-11T14:42:41.294Z</time></trkpt><trkpt lat="44.9259917" lon="8.3997433"><ele>141.0</ele><time>2026-04-11T14:42:42.294Z</time></trkpt><trkpt lat="44.9259717" lon="8.3999267"><ele>141.0</ele><time>2026-04-11T14:42:43.294Z</time></trkpt><trkpt lat="44.9259517" lon="8.4001"><ele>141.0</ele><time>2026-04-11T14:42:44.295Z</time></trkpt><trkpt lat="44.9259333" lon="8.400275"><ele>141.0</ele><time>2026-04-11T14:42:45.294Z</time></trkpt><trkpt lat="44.92592" lon="8.4004467"><ele>141.0</ele><time>2026-04-11T14:42:46.295Z</time></trkpt><trkpt lat="44.9259" lon="8.400625"><ele>141.0</ele><time>2026-04-11T14:42:47.294Z</time></trkpt><trkpt lat="44.9258783" lon="8.4008"><ele>140.75</ele><time>2026-04-11T14:42:48.295Z</time></trkpt><trkpt lat="44.9258533" lon="8.4009767"><ele>140.5</ele><time>2026-04-11T14:42:49.295Z</time></trkpt><trkpt lat="44.9258233" lon="8.4011567"><ele>140.25</ele><time>2026-04-11T14:42:50.294Z</time></trkpt><trkpt lat="44.9257933" lon="8.4013267"><ele>140.0</ele><time>2026-04-11T14:42:51.294Z</time></trkpt><trkpt lat="44.9257617" lon="8.4014933"><ele>139.75</ele><time>2026-04-11T14:42:52.295Z</time></trkpt><trkpt lat="44.9257133" lon="8.4016633"><ele>139.5</ele><time>2026-04-11T14:42:53.295Z</time></trkpt><trkpt lat="44.9256633" lon="8.40181"><ele>139.25</ele><time>2026-04-11T14:42:54.294Z</time></trkpt><trkpt lat="44.9256083" lon="8.4019583"><ele>139.0</ele><time>2026-04-11T14:42:55.294Z</time></trkpt><trkpt lat="44.9255533" lon="8.4021117"><ele>139.0</ele><time>2026-04-11T14:42:56.294Z</time></trkpt><trkpt lat="44.9254933" lon="8.4022683"><ele>139.0</ele><time>2026-04-11T14:42:57.294Z</time></trkpt><trkpt lat="44.925445" lon="8.402435"><ele>139.0</ele><time>2026-04-11T14:42:58.294Z</time></trkpt><trkpt lat="44.9254017" lon="8.40261"><ele>139.0</ele><time>2026-04-11T14:42:59.294Z</time></trkpt><trkpt lat="44.92535" lon="8.4027767"><ele>139.0</ele><time>2026-04-11T14:43:00.294Z</time></trkpt><trkpt lat="44.9253033" lon="8.402955"><ele>139.0</ele><time>2026-04-11T14:43:01.295Z</time></trkpt><trkpt lat="44.925255" lon="8.403145"><ele>139.0</ele><time>2026-04-11T14:43:02.294Z</time></trkpt><trkpt lat="44.9252033" lon="8.403365"><ele>139.0</ele><time>2026-04-11T14:43:03.294Z</time></trkpt><trkpt lat="44.9251483" lon="8.40361"><ele>139.0</ele><time>2026-04-11T14:43:04.295Z</time></trkpt><trkpt lat="44.9250917" lon="8.40385"><ele>139.0</ele><time>2026-04-11T14:43:05.294Z</time></trkpt><trkpt lat="44.9250317" lon="8.4040717"><ele>139.0</ele><time>2026-04-11T14:43:06.295Z</time></trkpt><trkpt lat="44.9249683" lon="8.4042783"><ele>139.0</ele><time>2026-04-11T14:43:07.294Z</time></trkpt><trkpt lat="44.9249117" lon="8.404475"><ele>139.0</ele><time>2026-04-11T14:43:08.295Z</time></trkpt><trkpt lat="44.9248517" lon="8.404675"><ele>139.0</ele><time>2026-04-11T14:43:09.294Z</time></trkpt><trkpt lat="44.924795" lon="8.40487"><ele>139.0</ele><time>2026-04-11T14:43:10.295Z</time></trkpt><trkpt lat="44.9247317" lon="8.4050633"><ele>139.0</ele><time>2026-04-11T14:43:11.294Z</time></trkpt><trkpt lat="44.9246717" lon="8.40526"><ele>139.0</ele><time>2026-04-11T14:43:12.294Z</time></trkpt><trkpt lat="44.92461" lon="8.4054483"><ele>139.0</ele><time>2026-04-11T14:43:13.294Z</time></trkpt><trkpt lat="44.9245" lon="8.4057983"><ele>138.5</ele><time>2026-04-11T14:43:15.294Z</time></trkpt><trkpt lat="44.9244383" lon="8.4059683"><ele>138.0</ele><time>2026-04-11T14:43:16.294Z</time></trkpt><trkpt lat="44.924385" lon="8.4061417"><ele>137.5</ele><time>2026-04-11T14:43:17.295Z</time></trkpt><trkpt lat="44.92432" lon="8.40631"><ele>137.0</ele><time>2026-04-11T14:43:18.294Z</time></trkpt><trkpt lat="44.92426" lon="8.4064883"><ele>136.75</ele><time>2026-04-11T14:43:19.294Z</time></trkpt><trkpt lat="44.924195" lon="8.406675"><ele>136.5</ele><time>2026-04-11T14:43:20.295Z</time></trkpt><trkpt lat="44.924135" lon="8.4068617"><ele>136.25</ele><time>2026-04-11T14:43:21.295Z</time></trkpt><trkpt lat="44.9240767" lon="8.4070417"><ele>136.0</ele><time>2026-04-11T14:43:22.294Z</time></trkpt><trkpt lat="44.9240183" lon="8.4071983"><ele>135.8</ele><time>2026-04-11T14:43:23.294Z</time></trkpt><trkpt lat="44.9239567" lon="8.4073467"><ele>135.6</ele><time>2026-04-11T14:43:24.294Z</time></trkpt><trkpt lat="44.923905" lon="8.40748"><ele>135.4</ele><time>2026-04-11T14:43:25.295Z</time></trkpt><trkpt lat="44.9238567" lon="8.4075983"><ele>135.2</ele><time>2026-04-11T14:43:26.294Z</time></trkpt><trkpt lat="44.9237983" lon="8.4077167"><ele>135.0</ele><time>2026-04-11T14:43:27.294Z</time></trkpt><trkpt lat="44.923755" lon="8.40782"><ele>135.0</ele><time>2026-04-11T14:43:28.294Z</time></trkpt><trkpt lat="44.9237167" lon="8.4079"><ele>135.0</ele><time>2026-04-11T14:43:29.294Z</time></trkpt><trkpt lat="44.9236783" lon="8.408025"><ele>135.0</ele><time>2026-04-11T14:43:31.294Z</time></trkpt><trkpt lat="44.9237083" lon="8.40814"><ele>135.0</ele><time>2026-04-11T14:43:33.294Z</time></trkpt><trkpt lat="44.9237683" lon="8.40817"><ele>135.0</ele><time>2026-04-11T14:43:34.294Z</time></trkpt><trkpt lat="44.9238467" lon="8.408185"><ele>135.0</ele><time>2026-04-11T14:43:35.295Z</time></trkpt><trkpt lat="44.9239317" lon="8.4081933"><ele>135.0</ele><time>2026-04-11T14:43:36.294Z</time></trkpt><trkpt lat="44.924045" lon="8.4082183"><ele>135.0</ele><time>2026-04-11T14:43:37.294Z</time></trkpt><trkpt lat="44.9241717" lon="8.4082417"><ele>135.0</ele><time>2026-04-11T14:43:38.294Z</time></trkpt><trkpt lat="44.9242967" lon="8.40826"><ele>135.0</ele><time>2026-04-11T14:43:39.294Z</time></trkpt><trkpt lat="44.9244083" lon="8.40828"><ele>135.0</ele><time>2026-04-11T14:43:40.294Z</time></trkpt><trkpt lat="44.924515" lon="8.4082967"><ele>135.0</ele><time>2026-04-11T14:43:41.294Z</time></trkpt><trkpt lat="44.9246167" lon="8.408295"><ele>135.0</ele><time>2026-04-11T14:43:42.295Z</time></trkpt><trkpt lat="44.92471" lon="8.4083167"><ele>135.0</ele><time>2026-04-11T14:43:43.294Z</time></trkpt><trkpt lat="44.924805" lon="8.4083467"><ele>135.0</ele><time>2026-04-11T14:43:44.295Z</time></trkpt><trkpt lat="44.9248967" lon="8.4083733"><ele>135.0</ele><time>2026-04-11T14:43:45.295Z</time></trkpt><trkpt lat="44.9249867" lon="8.4083983"><ele>135.0</ele><time>2026-04-11T14:43:46.294Z</time></trkpt><trkpt lat="44.9250783" lon="8.4084233"><ele>135.0</ele><time>2026-04-11T14:43:47.294Z</time></trkpt><trkpt lat="44.9251633" lon="8.4084517"><ele>135.0</ele><time>2026-04-11T14:43:48.295Z</time></trkpt><trkpt lat="44.9252483" lon="8.4084717"><ele>135.0</ele><time>2026-04-11T14:43:49.295Z</time></trkpt><trkpt lat="44.9253417" lon="8.408485"><ele>135.2</ele><time>2026-04-11T14:43:50.294Z</time></trkpt><trkpt lat="44.925435" lon="8.4085"><ele>135.4</ele><time>2026-04-11T14:43:51.294Z</time></trkpt><trkpt lat="44.925525" lon="8.4085167"><ele>135.6</ele><time>2026-04-11T14:43:52.294Z</time></trkpt><trkpt lat="44.9256217" lon="8.4085417"><ele>135.8</ele><time>2026-04-11T14:43:53.294Z</time></trkpt><trkpt lat="44.92572" lon="8.408565"><ele>136.0</ele><time>2026-04-11T14:43:54.295Z</time></trkpt><trkpt lat="44.9258317" lon="8.408595"><ele>135.8</ele><time>2026-04-11T14:43:55.294Z</time></trkpt><trkpt lat="44.925935" lon="8.408605"><ele>135.6</ele><time>2026-04-11T14:43:56.295Z</time></trkpt><trkpt lat="44.9260367" lon="8.40862"><ele>135.4</ele><time>2026-04-11T14:43:57.294Z</time></trkpt><trkpt lat="44.92613" lon="8.4086333"><ele>135.2</ele><time>2026-04-11T14:43:58.295Z</time></trkpt><trkpt lat="44.92623" lon="8.4086483"><ele>135.0</ele><time>2026-04-11T14:43:59.294Z</time></trkpt><trkpt lat="44.9263233" lon="8.4086533"><ele>135.0</ele><time>2026-04-11T14:44:00.294Z</time></trkpt><trkpt lat="44.9264117" lon="8.4086533"><ele>135.0</ele><time>2026-04-11T14:44:01.294Z</time></trkpt><trkpt lat="44.9264983" lon="8.4086583"><ele>135.0</ele><time>2026-04-11T14:44:02.294Z</time></trkpt><trkpt lat="44.9265867" lon="8.4086567"><ele>135.0</ele><time>2026-04-11T14:44:03.294Z</time></trkpt><trkpt lat="44.9266767" lon="8.4086533"><ele>135.0</ele><time>2026-04-11T14:44:04.295Z</time></trkpt><trkpt lat="44.9267717" lon="8.4086533"><ele>135.0</ele><time>2026-04-11T14:44:05.295Z</time></trkpt><trkpt lat="44.9268867" lon="8.4086517"><ele>134.25</ele><time>2026-04-11T14:44:06.294Z</time></trkpt><trkpt lat="44.9269983" lon="8.4086583"><ele>133.5</ele><time>2026-04-11T14:44:07.294Z</time></trkpt><trkpt lat="44.9271133" lon="8.4086667"><ele>132.75</ele><time>2026-04-11T14:44:08.294Z</time></trkpt><trkpt lat="44.9272267" lon="8.4086883"><ele>132.0</ele><time>2026-04-11T14:44:09.294Z</time></trkpt><trkpt lat="44.9273367" lon="8.4087067"><ele>132.0</ele><time>2026-04-11T14:44:10.295Z</time></trkpt><trkpt lat="44.9274467" lon="8.4087217"><ele>132.0</ele><time>2026-04-11T14:44:11.295Z</time></trkpt><trkpt lat="44.927555" lon="8.4087433"><ele>132.0</ele><time>2026-04-11T14:44:12.295Z</time></trkpt><trkpt lat="44.9276567" lon="8.4087633"><ele>132.0</ele><time>2026-04-11T14:44:13.294Z</time></trkpt><trkpt lat="44.927745" lon="8.4087767"><ele>132.0</ele><time>2026-04-11T14:44:14.294Z</time></trkpt><trkpt lat="44.927815" lon="8.4087917"><ele>131.16666666666666</ele><time>2026-04-11T14:44:15.294Z</time></trkpt><trkpt lat="44.927935" lon="8.408815"><ele>130.33333333333334</ele><time>2026-04-11T14:44:17.295Z</time></trkpt><trkpt lat="44.9279983" lon="8.4088217"><ele>129.5</ele><time>2026-04-11T14:44:18.294Z</time></trkpt><trkpt lat="44.92807" lon="8.4088183"><ele>128.66666666666669</ele><time>2026-04-11T14:44:19.295Z</time></trkpt><trkpt lat="44.9281467" lon="8.408815"><ele>127.83333333333334</ele><time>2026-04-11T14:44:20.294Z</time></trkpt><trkpt lat="44.9282133" lon="8.4088183"><ele>127.0</ele><time>2026-04-11T14:44:21.294Z</time></trkpt><trkpt lat="44.9283283" lon="8.4088283"><ele>126.6</ele><time>2026-04-11T14:44:23.295Z</time></trkpt><trkpt lat="44.9284117" lon="8.4088367"><ele>126.19999999999999</ele><time>2026-04-11T14:44:25.295Z</time></trkpt><trkpt lat="44.9285" lon="8.4088433"><ele>125.8</ele><time>2026-04-11T14:44:27.293Z</time></trkpt><trkpt lat="44.92859" lon="8.4088417"><ele>125.4</ele><time>2026-04-11T14:44:29.293Z</time></trkpt><trkpt lat="44.9286967" lon="8.408845"><ele>125.0</ele><time>2026-04-11T14:44:31.293Z</time></trkpt><trkpt lat="44.928805" lon="8.4088383"><ele>125.0</ele><time>2026-04-11T14:44:33.293Z</time></trkpt><trkpt lat="44.9288717" lon="8.4088367"><ele>125.0</ele><time>2026-04-11T14:44:34.293Z</time></trkpt><trkpt lat="44.92895" lon="8.4088417"><ele>125.0</ele><time>2026-04-11T14:44:35.293Z</time></trkpt><trkpt lat="44.9290467" lon="8.4088367"><ele>125.0</ele><time>2026-04-11T14:44:36.293Z</time></trkpt><trkpt lat="44.929155" lon="8.4088333"><ele>125.0</ele><time>2026-04-11T14:44:37.293Z</time></trkpt><trkpt lat="44.92927" lon="8.40883"><ele>126.5</ele><time>2026-04-11T14:44:38.294Z</time></trkpt><trkpt lat="44.9293967" lon="8.4088183"><ele>128.0</ele><time>2026-04-11T14:44:39.293Z</time></trkpt><trkpt lat="44.92952" lon="8.4088117"><ele>129.5</ele><time>2026-04-11T14:44:40.294Z</time></trkpt><trkpt lat="44.9296483" lon="8.40881"><ele>131.0</ele><time>2026-04-11T14:44:41.294Z</time></trkpt><trkpt lat="44.9297817" lon="8.408805"><ele>131.0</ele><time>2026-04-11T14:44:42.294Z</time></trkpt><trkpt lat="44.9299017" lon="8.4088083"><ele>131.0</ele><time>2026-04-11T14:44:43.293Z</time></trkpt><trkpt lat="44.9300217" lon="8.408825"><ele>131.0</ele><time>2026-04-11T14:44:44.293Z</time></trkpt><trkpt lat="44.930145" lon="8.4088433"><ele>131.0</ele><time>2026-04-11T14:44:45.294Z</time></trkpt><trkpt lat="44.9302633" lon="8.408875"><ele>132.0</ele><time>2026-04-11T14:44:46.293Z</time></trkpt><trkpt lat="44.930375" lon="8.4089033"><ele>133.0</ele><time>2026-04-11T14:44:47.293Z</time></trkpt><trkpt lat="44.9304667" lon="8.40893"><ele>134.0</ele><time>2026-04-11T14:44:48.294Z</time></trkpt><trkpt lat="44.9305367" lon="8.4089433"><ele>135.0</ele><time>2026-04-11T14:44:49.293Z</time></trkpt><trkpt lat="44.9306467" lon="8.4088933"><ele>136.0</ele><time>2026-04-11T14:44:51.294Z</time></trkpt><trkpt lat="44.9306867" lon="8.4088183"><ele>136.0</ele><time>2026-04-11T14:44:52.293Z</time></trkpt><trkpt lat="44.93072" lon="8.4087167"><ele>136.0</ele><time>2026-04-11T14:44:53.293Z</time></trkpt><trkpt lat="44.9307567" lon="8.4084783"><ele>136.0</ele><time>2026-04-11T14:44:55.294Z</time></trkpt><trkpt lat="44.9307967" lon="8.4083717"><ele>136.0</ele><time>2026-04-11T14:44:56.294Z</time></trkpt><trkpt lat="44.93086" lon="8.408285"><ele>136.0</ele><time>2026-04-11T14:44:57.293Z</time></trkpt><trkpt lat="44.9309383" lon="8.408245"><ele>136.0</ele><time>2026-04-11T14:44:58.294Z</time></trkpt><trkpt lat="44.931035" lon="8.408225"><ele>136.0</ele><time>2026-04-11T14:44:59.294Z</time></trkpt><trkpt lat="44.9311583" lon="8.4082183"><ele>136.0</ele><time>2026-04-11T14:45:00.293Z</time></trkpt><trkpt lat="44.931305" lon="8.4082017"><ele>136.0</ele><time>2026-04-11T14:45:01.293Z</time></trkpt><trkpt lat="44.9314533" lon="8.408185"><ele>136.0</ele><time>2026-04-11T14:45:02.293Z</time></trkpt><trkpt lat="44.9316067" lon="8.4081717"><ele>136.0</ele><time>2026-04-11T14:45:03.293Z</time></trkpt><trkpt lat="44.9317517" lon="8.40816"><ele>136.0</ele><time>2026-04-11T14:45:04.293Z</time></trkpt><trkpt lat="44.93188" lon="8.408145"><ele>136.0</ele><time>2026-04-11T14:45:05.293Z</time></trkpt><trkpt lat="44.932" lon="8.408135"><ele>136.0</ele><time>2026-04-11T14:45:06.294Z</time></trkpt><trkpt lat="44.9321117" lon="8.408135"><ele>136.0</ele><time>2026-04-11T14:45:07.293Z</time></trkpt><trkpt lat="44.9322117" lon="8.4081467"><ele>136.0</ele><time>2026-04-11T14:45:08.294Z</time></trkpt><trkpt lat="44.93231" lon="8.4081533"><ele>136.0</ele><time>2026-04-11T14:45:09.294Z</time></trkpt><trkpt lat="44.9323917" lon="8.4081617"><ele>136.0</ele><time>2026-04-11T14:45:10.293Z</time></trkpt><trkpt lat="44.9324633" lon="8.40817"><ele>136.0</ele><time>2026-04-11T14:45:11.293Z</time></trkpt><trkpt lat="44.9325267" lon="8.4081783"><ele>136.0</ele><time>2026-04-11T14:45:12.293Z</time></trkpt><trkpt lat="44.932645" lon="8.40818"><ele>136.0</ele><time>2026-04-11T14:45:14.293Z</time></trkpt><trkpt lat="44.9327333" lon="8.4081483"><ele>136.0</ele><time>2026-04-11T14:45:16.294Z</time></trkpt><trkpt lat="44.9327883" lon="8.4080667"><ele>136.0</ele><time>2026-04-11T14:45:18.293Z</time></trkpt><trkpt lat="44.9328267" lon="8.4079917"><ele>136.0</ele><time>2026-04-11T14:45:19.293Z</time></trkpt><trkpt lat="44.93289" lon="8.4079167"><ele>136.6</ele><time>2026-04-11T14:45:20.293Z</time></trkpt><trkpt lat="44.932945" lon="8.4078517"><ele>137.2</ele><time>2026-04-11T14:45:21.293Z</time></trkpt><trkpt lat="44.9330533" lon="8.4077533"><ele>137.8</ele><time>2026-04-11T14:45:23.293Z</time></trkpt><trkpt lat="44.9331017" lon="8.4076933"><ele>138.4</ele><time>2026-04-11T14:45:24.293Z</time></trkpt><trkpt lat="44.933185" lon="8.40757"><ele>139.0</ele><time>2026-04-11T14:45:26.293Z</time></trkpt><trkpt lat="44.93327" lon="8.4074667"><ele>139.0</ele><time>2026-04-11T14:45:28.293Z</time></trkpt><trkpt lat="44.933355" lon="8.407355"><ele>139.0</ele><time>2026-04-11T14:45:30.293Z</time></trkpt><trkpt lat="44.9334433" lon="8.4072467"><ele>139.0</ele><time>2026-04-11T14:45:32.293Z</time></trkpt><trkpt lat="44.9335317" lon="8.4071217"><ele>139.0</ele><time>2026-04-11T14:45:34.293Z</time></trkpt><trkpt lat="44.9335833" lon="8.4070567"><ele>139.0</ele><time>2026-04-11T14:45:35.293Z</time></trkpt><trkpt lat="44.9336467" lon="8.406975"><ele>139.6</ele><time>2026-04-11T14:45:36.293Z</time></trkpt><trkpt lat="44.9337133" lon="8.40689"><ele>140.2</ele><time>2026-04-11T14:45:37.293Z</time></trkpt><trkpt lat="44.9337783" lon="8.4068"><ele>140.79999999999998</ele><time>2026-04-11T14:45:38.293Z</time></trkpt><trkpt lat="44.9338517" lon="8.4067"><ele>141.4</ele><time>2026-04-11T14:45:39.293Z</time></trkpt><trkpt lat="44.9339217" lon="8.4065967"><ele>142.0</ele><time>2026-04-11T14:45:40.293Z</time></trkpt><trkpt lat="44.9339867" lon="8.4064967"><ele>142.0</ele><time>2026-04-11T14:45:41.294Z</time></trkpt><trkpt lat="44.9340567" lon="8.4063933"><ele>142.0</ele><time>2026-04-11T14:45:42.293Z</time></trkpt><trkpt lat="44.934125" lon="8.4062867"><ele>142.0</ele><time>2026-04-11T14:45:43.293Z</time></trkpt><trkpt lat="44.9342033" lon="8.4061817"><ele>142.0</ele><time>2026-04-11T14:45:44.294Z</time></trkpt><trkpt lat="44.9342683" lon="8.406085"><ele>142.0</ele><time>2026-04-11T14:45:45.293Z</time></trkpt><trkpt lat="44.9343417" lon="8.4059833"><ele>142.0</ele><time>2026-04-11T14:45:46.293Z</time></trkpt><trkpt lat="44.93441" lon="8.405875"><ele>142.0</ele><time>2026-04-11T14:45:47.293Z</time></trkpt><trkpt lat="44.9344867" lon="8.4057683"><ele>142.0</ele><time>2026-04-11T14:45:48.293Z</time></trkpt><trkpt lat="44.9345583" lon="8.40566"><ele>142.0</ele><time>2026-04-11T14:45:49.294Z</time></trkpt><trkpt lat="44.934635" lon="8.40555"><ele>142.0</ele><time>2026-04-11T14:45:50.294Z</time></trkpt><trkpt lat="44.9347133" lon="8.405435"><ele>142.5</ele><time>2026-04-11T14:45:51.293Z</time></trkpt><trkpt lat="44.9347983" lon="8.4053217"><ele>143.0</ele><time>2026-04-11T14:45:52.293Z</time></trkpt><trkpt lat="44.93488" lon="8.4052067"><ele>143.5</ele><time>2026-04-11T14:45:53.294Z</time></trkpt><trkpt lat="44.934965" lon="8.4050867"><ele>144.0</ele><time>2026-04-11T14:45:54.294Z</time></trkpt><trkpt lat="44.9350517" lon="8.4049617"><ele>144.0</ele><time>2026-04-11T14:45:55.293Z</time></trkpt><trkpt lat="44.935135" lon="8.4048417"><ele>144.0</ele><time>2026-04-11T14:45:56.293Z</time></trkpt><trkpt lat="44.9352117" lon="8.404735"><ele>144.0</ele><time>2026-04-11T14:45:57.293Z</time></trkpt><trkpt lat="44.9352767" lon="8.404635"><ele>144.0</ele><time>2026-04-11T14:45:58.293Z</time></trkpt><trkpt lat="44.9353317" lon="8.404555"><ele>144.0</ele><time>2026-04-11T14:45:59.293Z</time></trkpt><trkpt lat="44.9353817" lon="8.4044733"><ele>144.0</ele><time>2026-04-11T14:46:00.293Z</time></trkpt><trkpt lat="44.9354683" lon="8.4043533"><ele>144.0</ele><time>2026-04-11T14:46:02.293Z</time></trkpt><trkpt lat="44.93551" lon="8.4042833"><ele>144.0</ele><time>2026-04-11T14:46:03.294Z</time></trkpt><trkpt lat="44.9355667" lon="8.404205"><ele>144.0</ele><time>2026-04-11T14:46:04.294Z</time></trkpt><trkpt lat="44.9356267" lon="8.40412"><ele>144.0</ele><time>2026-04-11T14:46:05.294Z</time></trkpt><trkpt lat="44.93569" lon="8.4040283"><ele>144.0</ele><time>2026-04-11T14:46:06.293Z</time></trkpt><trkpt lat="44.93576" lon="8.4039183"><ele>144.0</ele><time>2026-04-11T14:46:07.293Z</time></trkpt><trkpt lat="44.9358317" lon="8.40381"><ele>144.0</ele><time>2026-04-11T14:46:08.293Z</time></trkpt><trkpt lat="44.9359017" lon="8.4037017"><ele>144.0</ele><time>2026-04-11T14:46:09.294Z</time></trkpt><trkpt lat="44.935975" lon="8.4035917"><ele>144.0</ele><time>2026-04-11T14:46:10.293Z</time></trkpt><trkpt lat="44.9360533" lon="8.4034817"><ele>144.0</ele><time>2026-04-11T14:46:11.293Z</time></trkpt><trkpt lat="44.93613" lon="8.40337"><ele>144.4</ele><time>2026-04-11T14:46:12.293Z</time></trkpt><trkpt lat="44.936205" lon="8.40326"><ele>144.8</ele><time>2026-04-11T14:46:13.294Z</time></trkpt><trkpt lat="44.9362767" lon="8.4031583"><ele>145.2</ele><time>2026-04-11T14:46:14.293Z</time></trkpt><trkpt lat="44.9363517" lon="8.403055"><ele>145.6</ele><time>2026-04-11T14:46:15.293Z</time></trkpt><trkpt lat="44.9364267" lon="8.40295"><ele>146.0</ele><time>2026-04-11T14:46:16.294Z</time></trkpt><trkpt lat="44.9365017" lon="8.4028433"><ele>146.4</ele><time>2026-04-11T14:46:17.293Z</time></trkpt><trkpt lat="44.93658" lon="8.40274"><ele>146.8</ele><time>2026-04-11T14:46:18.293Z</time></trkpt><trkpt lat="44.9366633" lon="8.4026283"><ele>147.20000000000002</ele><time>2026-04-11T14:46:19.293Z</time></trkpt><trkpt lat="44.9367467" lon="8.4025167"><ele>147.6</ele><time>2026-04-11T14:46:20.293Z</time></trkpt><trkpt lat="44.9368267" lon="8.402405"><ele>148.0</ele><time>2026-04-11T14:46:21.293Z</time></trkpt><trkpt lat="44.9369067" lon="8.4022917"><ele>148.0</ele><time>2026-04-11T14:46:22.294Z</time></trkpt><trkpt lat="44.9369833" lon="8.4021767"><ele>148.0</ele><time>2026-04-11T14:46:23.294Z</time></trkpt><trkpt lat="44.9370617" lon="8.4020633"><ele>148.0</ele><time>2026-04-11T14:46:24.294Z</time></trkpt><trkpt lat="44.937145" lon="8.4019517"><ele>148.0</ele><time>2026-04-11T14:46:25.293Z</time></trkpt><trkpt lat="44.9372317" lon="8.401835"><ele>148.25</ele><time>2026-04-11T14:46:26.293Z</time></trkpt><trkpt lat="44.9373117" lon="8.401715"><ele>148.5</ele><time>2026-04-11T14:46:27.294Z</time></trkpt><trkpt lat="44.9373883" lon="8.4015933"><ele>148.75</ele><time>2026-04-11T14:46:28.293Z</time></trkpt><trkpt lat="44.9374783" lon="8.401475"><ele>149.0</ele><time>2026-04-11T14:46:29.293Z</time></trkpt><trkpt lat="44.9375667" lon="8.401355"><ele>149.75</ele><time>2026-04-11T14:46:30.293Z</time></trkpt><trkpt lat="44.937655" lon="8.4012367"><ele>150.5</ele><time>2026-04-11T14:46:31.294Z</time></trkpt><trkpt lat="44.9377383" lon="8.4011183"><ele>151.25</ele><time>2026-04-11T14:46:32.294Z</time></trkpt><trkpt lat="44.9378217" lon="8.401"><ele>152.0</ele><time>2026-04-11T14:46:33.293Z</time></trkpt><trkpt lat="44.9379033" lon="8.4008883"><ele>152.0</ele><time>2026-04-11T14:46:34.293Z</time></trkpt><trkpt lat="44.937985" lon="8.4007783"><ele>152.0</ele><time>2026-04-11T14:46:35.293Z</time></trkpt><trkpt lat="44.9380617" lon="8.4006583"><ele>152.0</ele><time>2026-04-11T14:46:36.293Z</time></trkpt><trkpt lat="44.9381267" lon="8.40054"><ele>152.0</ele><time>2026-04-11T14:46:37.293Z</time></trkpt><trkpt lat="44.9382" lon="8.4004217"><ele>152.0</ele><time>2026-04-11T14:46:38.293Z</time></trkpt><trkpt lat="44.9382683" lon="8.40031"><ele>152.25</ele><time>2026-04-11T14:46:39.293Z</time></trkpt><trkpt lat="44.9383433" lon="8.4001967"><ele>152.5</ele><time>2026-04-11T14:46:40.294Z</time></trkpt><trkpt lat="44.938415" lon="8.4000717"><ele>152.75</ele><time>2026-04-11T14:46:41.294Z</time></trkpt><trkpt lat="44.9384933" lon="8.3999467"><ele>153.0</ele><time>2026-04-11T14:46:42.293Z</time></trkpt><trkpt lat="44.93857" lon="8.3998217"><ele>153.0</ele><time>2026-04-11T14:46:43.294Z</time></trkpt><trkpt lat="44.9386517" lon="8.3996933"><ele>153.0</ele><time>2026-04-11T14:46:44.293Z</time></trkpt><trkpt lat="44.938735" lon="8.3995817"><ele>153.0</ele><time>2026-04-11T14:46:45.294Z</time></trkpt><trkpt lat="44.938875" lon="8.3994033"><ele>153.0</ele><time>2026-04-11T14:46:47.293Z</time></trkpt><trkpt lat="44.9389417" lon="8.3993417"><ele>152.85714285714286</ele><time>2026-04-11T14:46:48.293Z</time></trkpt><trkpt lat="44.93901" lon="8.3993117"><ele>152.71428571428572</ele><time>2026-04-11T14:46:49.293Z</time></trkpt><trkpt lat="44.9390767" lon="8.3992983"><ele>152.57142857142856</ele><time>2026-04-11T14:46:50.293Z</time></trkpt><trkpt lat="44.9391417" lon="8.39931"><ele>152.42857142857144</ele><time>2026-04-11T14:46:51.293Z</time></trkpt><trkpt lat="44.93921" lon="8.39934"><ele>152.2857142857143</ele><time>2026-04-11T14:46:52.293Z</time></trkpt><trkpt lat="44.9392783" lon="8.399375"><ele>152.14285714285714</ele><time>2026-04-11T14:46:53.294Z</time></trkpt><trkpt lat="44.9393433" lon="8.39942"><ele>152.0</ele><time>2026-04-11T14:46:54.293Z</time></trkpt><trkpt lat="44.9394" lon="8.3994633"><ele>152.0</ele><time>2026-04-11T14:46:55.294Z</time></trkpt><trkpt lat="44.9394967" lon="8.3995333"><ele>152.0</ele><time>2026-04-11T14:46:57.293Z</time></trkpt><trkpt lat="44.9395767" lon="8.3995817"><ele>152.0</ele><time>2026-04-11T14:46:59.293Z</time></trkpt><trkpt lat="44.93963" lon="8.3995267"><ele>152.0</ele><time>2026-04-11T14:47:02.293Z</time></trkpt><trkpt lat="44.9396483" lon="8.3994367"><ele>152.0</ele><time>2026-04-11T14:47:51.293Z</time></trkpt><trkpt lat="44.939665" lon="8.3992933"><ele>152.0</ele><time>2026-04-11T14:47:53.293Z</time></trkpt><trkpt lat="44.9396733" lon="8.3991383"><ele>152.0</ele><time>2026-04-11T14:47:55.294Z</time></trkpt><trkpt lat="44.9396833" lon="8.3989717"><ele>152.0</ele><time>2026-04-11T14:47:57.293Z</time></trkpt><trkpt lat="44.9396933" lon="8.398785"><ele>152.0</ele><time>2026-04-11T14:47:59.293Z</time></trkpt><trkpt lat="44.939705" lon="8.39869"><ele>152.0</ele><time>2026-04-11T14:48:00.293Z</time></trkpt><trkpt lat="44.9397233" lon="8.39859"><ele>152.0</ele><time>2026-04-11T14:48:01.293Z</time></trkpt><trkpt lat="44.9397433" lon="8.3984867"><ele>151.33333333333331</ele><time>2026-04-11T14:48:02.293Z</time></trkpt><trkpt lat="44.9397617" lon="8.3983833"><ele>150.66666666666666</ele><time>2026-04-11T14:48:03.293Z</time></trkpt><trkpt lat="44.9397733" lon="8.39829"><ele>150.0</ele><time>2026-04-11T14:48:04.293Z</time></trkpt><trkpt lat="44.9397983" lon="8.39812"><ele>149.33333333333334</ele><time>2026-04-11T14:48:06.294Z</time></trkpt><trkpt lat="44.9398083" lon="8.39803"><ele>148.66666666666669</ele><time>2026-04-11T14:48:07.292Z</time></trkpt><trkpt lat="44.939825" lon="8.39792"><ele>148.0</ele><time>2026-04-11T14:48:08.292Z</time></trkpt><trkpt lat="44.93985" lon="8.3978067"><ele>148.16666666666669</ele><time>2026-04-11T14:48:09.292Z</time></trkpt><trkpt lat="44.9398717" lon="8.3976917"><ele>148.33333333333334</ele><time>2026-04-11T14:48:10.292Z</time></trkpt><trkpt lat="44.93989" lon="8.3975733"><ele>148.5</ele><time>2026-04-11T14:48:11.292Z</time></trkpt><trkpt lat="44.9399167" lon="8.3974617"><ele>148.66666666666666</ele><time>2026-04-11T14:48:12.292Z</time></trkpt><trkpt lat="44.9399583" lon="8.397365"><ele>148.83333333333331</ele><time>2026-04-11T14:48:13.293Z</time></trkpt><trkpt lat="44.9400167" lon="8.3972933"><ele>149.0</ele><time>2026-04-11T14:48:14.293Z</time></trkpt><trkpt lat="44.9400817" lon="8.3972433"><ele>149.0</ele><time>2026-04-11T14:48:15.292Z</time></trkpt><trkpt lat="44.94015" lon="8.3971967"><ele>149.0</ele><time>2026-04-11T14:48:16.293Z</time></trkpt><trkpt lat="44.9402233" lon="8.3971483"><ele>149.0</ele><time>2026-04-11T14:48:17.292Z</time></trkpt><trkpt lat="44.9402933" lon="8.3970967"><ele>149.0</ele><time>2026-04-11T14:48:18.293Z</time></trkpt><trkpt lat="44.9403583" lon="8.397035"><ele>149.0</ele><time>2026-04-11T14:48:19.292Z</time></trkpt><trkpt lat="44.9404267" lon="8.3969617"><ele>149.0</ele><time>2026-04-11T14:48:20.293Z</time></trkpt><trkpt lat="44.9404883" lon="8.396885"><ele>148.66666666666666</ele><time>2026-04-11T14:48:21.292Z</time></trkpt><trkpt lat="44.940545" lon="8.39682"><ele>148.33333333333331</ele><time>2026-04-11T14:48:22.293Z</time></trkpt><trkpt lat="44.9406083" lon="8.3967667"><ele>148.0</ele><time>2026-04-11T14:48:23.292Z</time></trkpt><trkpt lat="44.940675" lon="8.3967267"><ele>147.66666666666666</ele><time>2026-04-11T14:48:24.292Z</time></trkpt><trkpt lat="44.9407367" lon="8.396695"><ele>147.33333333333334</ele><time>2026-04-11T14:48:25.292Z</time></trkpt><trkpt lat="44.9407933" lon="8.3966517"><ele>147.0</ele><time>2026-04-11T14:48:26.292Z</time></trkpt><trkpt lat="44.94089" lon="8.39657"><ele>147.0</ele><time>2026-04-11T14:48:28.292Z</time></trkpt><trkpt lat="44.9409667" lon="8.3964983"><ele>147.0</ele><time>2026-04-11T14:48:30.292Z</time></trkpt><trkpt lat="44.941015" lon="8.3964217"><ele>147.0</ele><time>2026-04-11T14:48:32.292Z</time></trkpt><trkpt lat="44.9410583" lon="8.39632"><ele>147.0</ele><time>2026-04-11T14:48:34.292Z</time></trkpt><trkpt lat="44.941005" lon="8.3962283"><ele>147.0</ele><time>2026-04-11T14:48:37.292Z</time></trkpt><trkpt lat="44.9409383" lon="8.3961433"><ele>147.0</ele><time>2026-04-11T14:48:40.293Z</time></trkpt><trkpt lat="44.9408967" lon="8.3960683"><ele>146.79999999999998</ele><time>2026-04-11T14:48:42.293Z</time></trkpt><trkpt lat="44.9408633" lon="8.3959483"><ele>146.6</ele><time>2026-04-11T14:48:44.293Z</time></trkpt><trkpt lat="44.9408167" lon="8.3958183"><ele>146.39999999999998</ele><time>2026-04-11T14:48:46.293Z</time></trkpt><trkpt lat="44.940755" lon="8.395675"><ele>146.2</ele><time>2026-04-11T14:48:48.292Z</time></trkpt><trkpt lat="44.9406967" lon="8.3955233"><ele>146.0</ele><time>2026-04-11T14:48:50.292Z</time></trkpt><trkpt lat="44.940655" lon="8.39536"><ele>146.0</ele><time>2026-04-11T14:48:52.293Z</time></trkpt><trkpt lat="44.9406083" lon="8.3952033"><ele>146.0</ele><time>2026-04-11T14:48:54.292Z</time></trkpt><trkpt lat="44.9405817" lon="8.3951217"><ele>146.0</ele><time>2026-04-11T14:48:55.292Z</time></trkpt><trkpt lat="44.9405467" lon="8.3950383"><ele>146.0</ele><time>2026-04-11T14:48:56.292Z</time></trkpt><trkpt lat="44.9405167" lon="8.39495"><ele>146.0</ele><time>2026-04-11T14:48:57.292Z</time></trkpt><trkpt lat="44.940465" lon="8.3948017"><ele>146.0</ele><time>2026-04-11T14:48:59.292Z</time></trkpt><trkpt lat="44.94041" lon="8.39466"><ele>147.33333333333331</ele><time>2026-04-11T14:49:01.292Z</time></trkpt><trkpt lat="44.9403567" lon="8.3945133"><ele>148.66666666666666</ele><time>2026-04-11T14:49:03.292Z</time></trkpt><trkpt lat="44.940325" lon="8.3944333"><ele>150.0</ele><time>2026-04-11T14:49:04.292Z</time></trkpt><trkpt lat="44.9402967" lon="8.3943533"><ele>151.33333333333334</ele><time>2026-04-11T14:49:05.293Z</time></trkpt><trkpt lat="44.9402683" lon="8.39427"><ele>152.66666666666669</ele><time>2026-04-11T14:49:06.292Z</time></trkpt><trkpt lat="44.9402383" lon="8.3941833"><ele>154.0</ele><time>2026-04-11T14:49:07.293Z</time></trkpt><trkpt lat="44.9402" lon="8.3940933"><ele>154.0</ele><time>2026-04-11T14:49:08.292Z</time></trkpt><trkpt lat="44.9401583" lon="8.3940017"><ele>154.0</ele><time>2026-04-11T14:49:09.292Z</time></trkpt><trkpt lat="44.9401083" lon="8.3938967"><ele>154.0</ele><time>2026-04-11T14:49:10.293Z</time></trkpt><trkpt lat="44.9400683" lon="8.3937917"><ele>154.0</ele><time>2026-04-11T14:49:11.292Z</time></trkpt><trkpt lat="44.940025" lon="8.3936867"><ele>154.0</ele><time>2026-04-11T14:49:12.292Z</time></trkpt><trkpt lat="44.9399933" lon="8.393595"><ele>154.0</ele><time>2026-04-11T14:49:13.293Z</time></trkpt><trkpt lat="44.9399233" lon="8.39345"><ele>155.75</ele><time>2026-04-11T14:49:15.292Z</time></trkpt><trkpt lat="44.9398" lon="8.393405"><ele>157.5</ele><time>2026-04-11T14:49:17.293Z</time></trkpt><trkpt lat="44.939695" lon="8.3934517"><ele>159.25</ele><time>2026-04-11T14:49:19.292Z</time></trkpt><trkpt lat="44.9395983" lon="8.3934117"><ele>161.0</ele><time>2026-04-11T14:49:21.293Z</time></trkpt><trkpt lat="44.9395233" lon="8.3932833"><ele>161.0</ele><time>2026-04-11T14:49:23.292Z</time></trkpt><trkpt lat="44.93949" lon="8.3931883"><ele>161.0</ele><time>2026-04-11T14:49:24.292Z</time></trkpt><trkpt lat="44.9394567" lon="8.3930917"><ele>161.0</ele><time>2026-04-11T14:49:25.293Z</time></trkpt><trkpt lat="44.939415" lon="8.39299"><ele>161.0</ele><time>2026-04-11T14:49:26.292Z</time></trkpt><trkpt lat="44.93938" lon="8.392895"><ele>161.0</ele><time>2026-04-11T14:49:27.292Z</time></trkpt><trkpt lat="44.9393433" lon="8.3928067"><ele>161.0</ele><time>2026-04-11T14:49:28.292Z</time></trkpt><trkpt lat="44.9393" lon="8.3927133"><ele>161.71428571428572</ele><time>2026-04-11T14:49:29.293Z</time></trkpt><trkpt lat="44.9392583" lon="8.3926217"><ele>162.42857142857144</ele><time>2026-04-11T14:49:30.293Z</time></trkpt><trkpt lat="44.939225" lon="8.3925333"><ele>163.14285714285714</ele><time>2026-04-11T14:49:31.292Z</time></trkpt><trkpt lat="44.93919" lon="8.3924417"><ele>163.85714285714286</ele><time>2026-04-11T14:49:32.292Z</time></trkpt><trkpt lat="44.9391533" lon="8.3923417"><ele>164.57142857142858</ele><time>2026-04-11T14:49:33.293Z</time></trkpt><trkpt lat="44.93912" lon="8.3922617"><ele>165.28571428571428</ele><time>2026-04-11T14:49:34.292Z</time></trkpt><trkpt lat="44.939075" lon="8.3921683"><ele>166.0</ele><time>2026-04-11T14:49:36.292Z</time></trkpt><trkpt lat="44.9390483" lon="8.392075"><ele>166.0</ele><time>2026-04-11T14:49:39.292Z</time></trkpt><trkpt lat="44.939145" lon="8.392025"><ele>166.0</ele><time>2026-04-11T14:49:42.292Z</time></trkpt><trkpt lat="44.9392167" lon="8.3920233"><ele>166.0</ele><time>2026-04-11T14:49:43.293Z</time></trkpt><trkpt lat="44.9393083" lon="8.3920167"><ele>166.0</ele><time>2026-04-11T14:49:44.292Z</time></trkpt><trkpt lat="44.9394117" lon="8.3920167"><ele>166.0</ele><time>2026-04-11T14:49:45.292Z</time></trkpt><trkpt lat="44.9395183" lon="8.3920267"><ele>165.75</ele><time>2026-04-11T14:49:46.292Z</time></trkpt><trkpt lat="44.9396333" lon="8.3920267"><ele>165.5</ele><time>2026-04-11T14:49:47.292Z</time></trkpt><trkpt lat="44.9397517" lon="8.3920317"><ele>165.25</ele><time>2026-04-11T14:49:48.292Z</time></trkpt><trkpt lat="44.9398633" lon="8.39205"><ele>165.0</ele><time>2026-04-11T14:49:49.293Z</time></trkpt><trkpt lat="44.9399783" lon="8.392055"><ele>166.0</ele><time>2026-04-11T14:49:50.292Z</time></trkpt><trkpt lat="44.9400867" lon="8.3920517"><ele>167.0</ele><time>2026-04-11T14:49:51.292Z</time></trkpt><trkpt lat="44.9401933" lon="8.392045"><ele>168.0</ele><time>2026-04-11T14:49:52.293Z</time></trkpt><trkpt lat="44.9403" lon="8.3920383"><ele>169.0</ele><time>2026-04-11T14:49:53.292Z</time></trkpt><trkpt lat="44.9404067" lon="8.392015"><ele>170.0</ele><time>2026-04-11T14:49:54.292Z</time></trkpt><trkpt lat="44.940505" lon="8.39199"><ele>170.0</ele><time>2026-04-11T14:49:55.292Z</time></trkpt><trkpt lat="44.9406017" lon="8.3919683"><ele>170.0</ele><time>2026-04-11T14:49:56.292Z</time></trkpt><trkpt lat="44.9407017" lon="8.39193"><ele>170.0</ele><time>2026-04-11T14:49:57.292Z</time></trkpt><trkpt lat="44.9407983" lon="8.3918833"><ele>170.0</ele><time>2026-04-11T14:49:58.293Z</time></trkpt><trkpt lat="44.9408833" lon="8.3918417"><ele>170.0</ele><time>2026-04-11T14:49:59.293Z</time></trkpt><trkpt lat="44.9409733" lon="8.3918017"><ele>170.0</ele><time>2026-04-11T14:50:00.292Z</time></trkpt><trkpt lat="44.941065" lon="8.3917617"><ele>170.0</ele><time>2026-04-11T14:50:01.292Z</time></trkpt><trkpt lat="44.9411583" lon="8.3917183"><ele>170.0</ele><time>2026-04-11T14:50:02.292Z</time></trkpt><trkpt lat="44.9412467" lon="8.391675"><ele>170.0</ele><time>2026-04-11T14:50:03.292Z</time></trkpt><trkpt lat="44.9413383" lon="8.3916383"><ele>170.0</ele><time>2026-04-11T14:50:04.292Z</time></trkpt><trkpt lat="44.9414233" lon="8.3916033"><ele>170.0</ele><time>2026-04-11T14:50:05.292Z</time></trkpt><trkpt lat="44.9414983" lon="8.39156"><ele>170.0</ele><time>2026-04-11T14:50:06.292Z</time></trkpt><trkpt lat="44.941575" lon="8.3914933"><ele>170.0</ele><time>2026-04-11T14:50:07.292Z</time></trkpt><trkpt lat="44.9416483" lon="8.3914167"><ele>170.0</ele><time>2026-04-11T14:50:08.293Z</time></trkpt><trkpt lat="44.9417233" lon="8.3913233"><ele>170.0</ele><time>2026-04-11T14:50:09.292Z</time></trkpt><trkpt lat="44.9418033" lon="8.39123"><ele>170.33333333333331</ele><time>2026-04-11T14:50:10.293Z</time></trkpt><trkpt lat="44.941875" lon="8.391135"><ele>170.66666666666666</ele><time>2026-04-11T14:50:11.293Z</time></trkpt><trkpt lat="44.9419383" lon="8.391045"><ele>171.0</ele><time>2026-04-11T14:50:12.292Z</time></trkpt><trkpt lat="44.941995" lon="8.3909633"><ele>171.33333333333334</ele><time>2026-04-11T14:50:13.292Z</time></trkpt><trkpt lat="44.9420517" lon="8.3908767"><ele>171.66666666666669</ele><time>2026-04-11T14:50:14.292Z</time></trkpt><trkpt lat="44.9421133" lon="8.3907883"><ele>172.0</ele><time>2026-04-11T14:50:15.292Z</time></trkpt><trkpt lat="44.9421733" lon="8.3907117"><ele>172.00000000000003</ele><time>2026-04-11T14:50:16.293Z</time></trkpt><trkpt lat="44.942225" lon="8.39065"><ele>172.0</ele><time>2026-04-11T14:50:17.292Z</time></trkpt><trkpt lat="44.94228" lon="8.3905983"><ele>172.0</ele><time>2026-04-11T14:50:18.292Z</time></trkpt><trkpt lat="44.9423367" lon="8.3905433"><ele>172.0</ele><time>2026-04-11T14:50:19.292Z</time></trkpt><trkpt lat="44.9423983" lon="8.39049"><ele>172.0</ele><time>2026-04-11T14:50:20.293Z</time></trkpt><trkpt lat="44.94246" lon="8.390445"><ele>172.00000000000003</ele><time>2026-04-11T14:50:21.292Z</time></trkpt><trkpt lat="44.94252" lon="8.3904067"><ele>172.0</ele><time>2026-04-11T14:50:22.292Z</time></trkpt><trkpt lat="44.9425833" lon="8.3903783"><ele>172.8</ele><time>2026-04-11T14:50:23.292Z</time></trkpt><trkpt lat="44.942705" lon="8.39034"><ele>173.6</ele><time>2026-04-11T14:50:25.293Z</time></trkpt><trkpt lat="44.9427883" lon="8.3902967"><ele>174.4</ele><time>2026-04-11T14:50:27.293Z</time></trkpt><trkpt lat="44.9428567" lon="8.3902467"><ele>175.20000000000002</ele><time>2026-04-11T14:50:29.292Z</time></trkpt><trkpt lat="44.9429517" lon="8.3901967"><ele>176.0</ele><time>2026-04-11T14:50:31.292Z</time></trkpt><trkpt lat="44.9430167" lon="8.39017"><ele>176.0</ele><time>2026-04-11T14:50:32.292Z</time></trkpt><trkpt lat="44.9431417" lon="8.3901133"><ele>176.0</ele><time>2026-04-11T14:50:34.292Z</time></trkpt><trkpt lat="44.94321" lon="8.39008"><ele>176.0</ele><time>2026-04-11T14:50:35.292Z</time></trkpt><trkpt lat="44.9432817" lon="8.3900433"><ele>176.0</ele><time>2026-04-11T14:50:36.292Z</time></trkpt><trkpt lat="44.9433517" lon="8.39001"><ele>176.0</ele><time>2026-04-11T14:50:37.292Z</time></trkpt><trkpt lat="44.94342" lon="8.389975"><ele>176.0</ele><time>2026-04-11T14:50:38.292Z</time></trkpt><trkpt lat="44.9434917" lon="8.38995"><ele>176.5</ele><time>2026-04-11T14:50:39.292Z</time></trkpt><trkpt lat="44.9435583" lon="8.3899217"><ele>177.0</ele><time>2026-04-11T14:50:40.292Z</time></trkpt><trkpt lat="44.9436333" lon="8.389895"><ele>177.5</ele><time>2026-04-11T14:50:41.292Z</time></trkpt><trkpt lat="44.9437" lon="8.3898733"><ele>178.0</ele><time>2026-04-11T14:50:42.292Z</time></trkpt><trkpt lat="44.9437633" lon="8.3898567"><ele>178.5</ele><time>2026-04-11T14:50:43.292Z</time></trkpt><trkpt lat="44.9438617" lon="8.389815"><ele>179.0</ele><time>2026-04-11T14:50:45.292Z</time></trkpt><trkpt lat="44.9439617" lon="8.38975"><ele>178.79999999999998</ele><time>2026-04-11T14:50:47.292Z</time></trkpt><trkpt lat="44.94406" lon="8.3896517"><ele>178.6</ele><time>2026-04-11T14:50:49.292Z</time></trkpt><trkpt lat="44.94412" lon="8.3895867"><ele>178.4</ele><time>2026-04-11T14:50:50.292Z</time></trkpt><trkpt lat="44.944185" lon="8.38952"><ele>178.2</ele><time>2026-04-11T14:50:51.292Z</time></trkpt><trkpt lat="44.9442583" lon="8.389455"><ele>178.0</ele><time>2026-04-11T14:50:52.292Z</time></trkpt><trkpt lat="44.9443317" lon="8.38939"><ele>177.33333333333334</ele><time>2026-04-11T14:50:53.292Z</time></trkpt><trkpt lat="44.9444017" lon="8.38933"><ele>176.66666666666669</ele><time>2026-04-11T14:50:54.292Z</time></trkpt><trkpt lat="44.944465" lon="8.3892783"><ele>176.0</ele><time>2026-04-11T14:50:55.292Z</time></trkpt><trkpt lat="44.944535" lon="8.3892467"><ele>175.33333333333334</ele><time>2026-04-11T14:50:56.292Z</time></trkpt><trkpt lat="44.9446083" lon="8.3892083"><ele>174.66666666666666</ele><time>2026-04-11T14:50:57.293Z</time></trkpt><trkpt lat="44.944675" lon="8.3891767"><ele>174.0</ele><time>2026-04-11T14:50:58.293Z</time></trkpt><trkpt lat="44.9447533" lon="8.3891567"><ele>174.0</ele><time>2026-04-11T14:50:59.292Z</time></trkpt><trkpt lat="44.944835" lon="8.3891283"><ele>174.0</ele><time>2026-04-11T14:51:00.292Z</time></trkpt><trkpt lat="44.9449117" lon="8.389105"><ele>174.0</ele><time>2026-04-11T14:51:01.292Z</time></trkpt><trkpt lat="44.944985" lon="8.38908"><ele>174.0</ele><time>2026-04-11T14:51:02.293Z</time></trkpt><trkpt lat="44.94506" lon="8.3890467"><ele>174.0</ele><time>2026-04-11T14:51:03.292Z</time></trkpt><trkpt lat="44.9451367" lon="8.389005"><ele>174.0</ele><time>2026-04-11T14:51:04.292Z</time></trkpt><trkpt lat="44.94522" lon="8.3889767"><ele>174.0</ele><time>2026-04-11T14:51:05.292Z</time></trkpt><trkpt lat="44.9453033" lon="8.3889467"><ele>174.0</ele><time>2026-04-11T14:51:06.293Z</time></trkpt><trkpt lat="44.94539" lon="8.3889117"><ele>174.0</ele><time>2026-04-11T14:51:07.292Z</time></trkpt><trkpt lat="44.9454767" lon="8.388875"><ele>174.0</ele><time>2026-04-11T14:51:08.292Z</time></trkpt><trkpt lat="44.945565" lon="8.38884"><ele>174.0</ele><time>2026-04-11T14:51:09.292Z</time></trkpt><trkpt lat="44.9456467" lon="8.3887933"><ele>174.0</ele><time>2026-04-11T14:51:10.292Z</time></trkpt><trkpt lat="44.9457217" lon="8.3887567"><ele>174.39999999999998</ele><time>2026-04-11T14:51:11.292Z</time></trkpt><trkpt lat="44.9457967" lon="8.38871"><ele>174.8</ele><time>2026-04-11T14:51:12.292Z</time></trkpt><trkpt lat="44.945875" lon="8.3886633"><ele>175.2</ele><time>2026-04-11T14:51:13.293Z</time></trkpt><trkpt lat="44.9459633" lon="8.38863"><ele>175.60000000000002</ele><time>2026-04-11T14:51:14.292Z</time></trkpt><trkpt lat="44.9460583" lon="8.38862"><ele>176.0</ele><time>2026-04-11T14:51:15.293Z</time></trkpt><trkpt lat="44.9461567" lon="8.3886117"><ele>176.5</ele><time>2026-04-11T14:51:16.292Z</time></trkpt><trkpt lat="44.9462467" lon="8.3885967"><ele>177.0</ele><time>2026-04-11T14:51:17.292Z</time></trkpt><trkpt lat="44.9463383" lon="8.3885717"><ele>177.5</ele><time>2026-04-11T14:51:18.293Z</time></trkpt><trkpt lat="44.9464217" lon="8.3885333"><ele>178.0</ele><time>2026-04-11T14:51:19.292Z</time></trkpt><trkpt lat="44.9465" lon="8.3884917"><ele>178.5</ele><time>2026-04-11T14:51:20.293Z</time></trkpt><trkpt lat="44.9465683" lon="8.3884533"><ele>179.0</ele><time>2026-04-11T14:51:21.292Z</time></trkpt><trkpt lat="44.9466633" lon="8.3883967"><ele>179.39999999999998</ele><time>2026-04-11T14:51:23.292Z</time></trkpt><trkpt lat="44.9467767" lon="8.3883267"><ele>179.8</ele><time>2026-04-11T14:51:26.292Z</time></trkpt><trkpt lat="44.9468833" lon="8.3882533"><ele>180.2</ele><time>2026-04-11T14:51:28.292Z</time></trkpt><trkpt lat="44.9470033" lon="8.3882133"><ele>180.60000000000002</ele><time>2026-04-11T14:51:30.292Z</time></trkpt><trkpt lat="44.9470667" lon="8.388195"><ele>181.0</ele><time>2026-04-11T14:51:31.292Z</time></trkpt><trkpt lat="44.9471833" lon="8.3881233"><ele>181.0</ele><time>2026-04-11T14:51:33.293Z</time></trkpt><trkpt lat="44.9472517" lon="8.3880683"><ele>181.0</ele><time>2026-04-11T14:51:34.292Z</time></trkpt><trkpt lat="44.9473167" lon="8.388015"><ele>181.0</ele><time>2026-04-11T14:51:35.292Z</time></trkpt><trkpt lat="44.9473833" lon="8.387965"><ele>181.0</ele><time>2026-04-11T14:51:36.293Z</time></trkpt><trkpt lat="44.94744" lon="8.387915"><ele>181.0</ele><time>2026-04-11T14:51:37.293Z</time></trkpt><trkpt lat="44.9474933" lon="8.3878667"><ele>181.0</ele><time>2026-04-11T14:51:38.292Z</time></trkpt><trkpt lat="44.9475483" lon="8.3878233"><ele>181.0</ele><time>2026-04-11T14:51:39.292Z</time></trkpt><trkpt lat="44.947655" lon="8.38779"><ele>182.8</ele><time>2026-04-11T14:51:41.293Z</time></trkpt><trkpt lat="44.9477633" lon="8.387745"><ele>184.60000000000002</ele><time>2026-04-11T14:51:43.293Z</time></trkpt><trkpt lat="44.9478733" lon="8.387685"><ele>186.4</ele><time>2026-04-11T14:51:45.292Z</time></trkpt><trkpt lat="44.9479917" lon="8.387615"><ele>188.2</ele><time>2026-04-11T14:51:47.291Z</time></trkpt><trkpt lat="44.9480617" lon="8.38758"><ele>190.0</ele><time>2026-04-11T14:51:48.291Z</time></trkpt><trkpt lat="44.94813" lon="8.3875467"><ele>190.0</ele><time>2026-04-11T14:51:49.291Z</time></trkpt><trkpt lat="44.9481967" lon="8.3875033"><ele>190.0</ele><time>2026-04-11T14:51:50.291Z</time></trkpt><trkpt lat="44.9482833" lon="8.3874183"><ele>190.0</ele><time>2026-04-11T14:51:52.291Z</time></trkpt><trkpt lat="44.9483217" lon="8.3873333"><ele>190.0</ele><time>2026-04-11T14:51:54.291Z</time></trkpt><trkpt lat="44.9483317" lon="8.3872417"><ele>190.0</ele><time>2026-04-11T14:51:56.291Z</time></trkpt><trkpt lat="44.94833" lon="8.3871267"><ele>190.0</ele><time>2026-04-11T14:51:58.291Z</time></trkpt><trkpt lat="44.9483017" lon="8.3868783"><ele>189.2</ele><time>2026-04-11T14:52:01.292Z</time></trkpt><trkpt lat="44.9482917" lon="8.3867867"><ele>188.4</ele><time>2026-04-11T14:52:02.292Z</time></trkpt><trkpt lat="44.9482733" lon="8.3866017"><ele>187.60000000000002</ele><time>2026-04-11T14:52:04.291Z</time></trkpt><trkpt lat="44.9482617" lon="8.3865133"><ele>186.8</ele><time>2026-04-11T14:52:05.291Z</time></trkpt><trkpt lat="44.9482417" lon="8.386335"><ele>186.0</ele><time>2026-04-11T14:52:07.291Z</time></trkpt><trkpt lat="44.9482267" lon="8.386235"><ele>186.00000000000003</ele><time>2026-04-11T14:52:08.291Z</time></trkpt><trkpt lat="44.948215" lon="8.3861333"><ele>186.0</ele><time>2026-04-11T14:52:09.291Z</time></trkpt><trkpt lat="44.948205" lon="8.3860167"><ele>186.0</ele><time>2026-04-11T14:52:10.291Z</time></trkpt><trkpt lat="44.9482017" lon="8.3858933"><ele>186.0</ele><time>2026-04-11T14:52:11.292Z</time></trkpt><trkpt lat="44.9481933" lon="8.3857883"><ele>186.0</ele><time>2026-04-11T14:52:12.291Z</time></trkpt><trkpt lat="44.948185" lon="8.385695"><ele>186.00000000000003</ele><time>2026-04-11T14:52:13.292Z</time></trkpt><trkpt lat="44.9481733" lon="8.3856067"><ele>186.0</ele><time>2026-04-11T14:52:14.291Z</time></trkpt><trkpt lat="44.948155" lon="8.385425"><ele>186.0</ele><time>2026-04-11T14:52:16.291Z</time></trkpt><trkpt lat="44.9481633" lon="8.3853333"><ele>186.0</ele><time>2026-04-11T14:52:17.291Z</time></trkpt><trkpt lat="44.9481983" lon="8.3851817"><ele>186.0</ele><time>2026-04-11T14:52:19.292Z</time></trkpt><trkpt lat="44.9482667" lon="8.3851033"><ele>186.0</ele><time>2026-04-11T14:52:21.292Z</time></trkpt><trkpt lat="44.9483517" lon="8.3850733"><ele>186.0</ele><time>2026-04-11T14:52:29.291Z</time></trkpt><trkpt lat="44.94848" lon="8.3850167"><ele>185.66666666666666</ele><time>2026-04-11T14:52:33.291Z</time></trkpt><trkpt lat="44.9486017" lon="8.3849683"><ele>185.33333333333334</ele><time>2026-04-11T14:52:35.291Z</time></trkpt><trkpt lat="44.948675" lon="8.3849467"><ele>185.0</ele><time>2026-04-11T14:52:36.291Z</time></trkpt><trkpt lat="44.9487517" lon="8.3849183"><ele>184.66666666666669</ele><time>2026-04-11T14:52:37.291Z</time></trkpt><trkpt lat="44.948825" lon="8.384895"><ele>184.33333333333334</ele><time>2026-04-11T14:52:38.291Z</time></trkpt><trkpt lat="44.948895" lon="8.38487"><ele>184.0</ele><time>2026-04-11T14:52:39.292Z</time></trkpt><trkpt lat="44.9489667" lon="8.38484"><ele>184.0</ele><time>2026-04-11T14:52:40.292Z</time></trkpt><trkpt lat="44.94904" lon="8.3848067"><ele>184.0</ele><time>2026-04-11T14:52:41.291Z</time></trkpt><trkpt lat="44.9491133" lon="8.3847783"><ele>184.0</ele><time>2026-04-11T14:52:42.291Z</time></trkpt><trkpt lat="44.9491867" lon="8.3847417"><ele>184.0</ele><time>2026-04-11T14:52:43.292Z</time></trkpt><trkpt lat="44.9492567" lon="8.3847117"><ele>184.0</ele><time>2026-04-11T14:52:44.291Z</time></trkpt><trkpt lat="44.9493233" lon="8.3846733"><ele>184.0</ele><time>2026-04-11T14:52:45.292Z</time></trkpt><trkpt lat="44.94938" lon="8.3846283"><ele>184.0</ele><time>2026-04-11T14:52:46.291Z</time></trkpt><trkpt lat="44.9494267" lon="8.3845617"><ele>185.0</ele><time>2026-04-11T14:52:47.291Z</time></trkpt><trkpt lat="44.9494733" lon="8.3844817"><ele>186.0</ele><time>2026-04-11T14:52:48.291Z</time></trkpt><trkpt lat="44.94952" lon="8.3843933"><ele>187.0</ele><time>2026-04-11T14:52:49.291Z</time></trkpt><trkpt lat="44.9495567" lon="8.384305"><ele>188.0</ele><time>2026-04-11T14:52:50.291Z</time></trkpt><trkpt lat="44.9496017" lon="8.3842217"><ele>189.0</ele><time>2026-04-11T14:52:51.291Z</time></trkpt><trkpt lat="44.9496367" lon="8.3841333"><ele>190.0</ele><time>2026-04-11T14:52:52.291Z</time></trkpt><trkpt lat="44.9496733" lon="8.38404"><ele>191.0</ele><time>2026-04-11T14:52:53.292Z</time></trkpt><trkpt lat="44.9497083" lon="8.3839417"><ele>191.16666666666666</ele><time>2026-04-11T14:52:54.291Z</time></trkpt><trkpt lat="44.9497467" lon="8.3838367"><ele>191.33333333333331</ele><time>2026-04-11T14:52:55.291Z</time></trkpt><trkpt lat="44.94978" lon="8.3837333"><ele>191.5</ele><time>2026-04-11T14:52:56.292Z</time></trkpt><trkpt lat="44.9498233" lon="8.38363"><ele>191.66666666666666</ele><time>2026-04-11T14:52:57.291Z</time></trkpt><trkpt lat="44.949865" lon="8.38353"><ele>191.83333333333334</ele><time>2026-04-11T14:52:58.291Z</time></trkpt><trkpt lat="44.9499033" lon="8.3834467"><ele>192.0</ele><time>2026-04-11T14:52:59.291Z</time></trkpt><trkpt lat="44.9499333" lon="8.3833633"><ele>192.0</ele><time>2026-04-11T14:53:00.291Z</time></trkpt><trkpt lat="44.9499733" lon="8.3832817"><ele>192.0</ele><time>2026-04-11T14:53:01.291Z</time></trkpt><trkpt lat="44.9500117" lon="8.3831933"><ele>192.0</ele><time>2026-04-11T14:53:02.291Z</time></trkpt><trkpt lat="44.9500533" lon="8.3831033"><ele>192.0</ele><time>2026-04-11T14:53:03.291Z</time></trkpt><trkpt lat="44.950095" lon="8.38302"><ele>192.0</ele><time>2026-04-11T14:53:04.292Z</time></trkpt><trkpt lat="44.9501383" lon="8.382945"><ele>192.0</ele><time>2026-04-11T14:53:05.292Z</time></trkpt><trkpt lat="44.9502017" lon="8.382835"><ele>191.2</ele><time>2026-04-11T14:53:07.292Z</time></trkpt><trkpt lat="44.9502933" lon="8.382785"><ele>190.39999999999998</ele><time>2026-04-11T14:53:09.291Z</time></trkpt><trkpt lat="44.9503633" lon="8.3827517"><ele>189.60000000000002</ele><time>2026-04-11T14:53:10.291Z</time></trkpt><trkpt lat="44.9504417" lon="8.3827017"><ele>188.8</ele><time>2026-04-11T14:53:11.291Z</time></trkpt><trkpt lat="44.9505333" lon="8.382635"><ele>188.0</ele><time>2026-04-11T14:53:12.291Z</time></trkpt><trkpt lat="44.9506267" lon="8.3825533"><ele>188.0</ele><time>2026-04-11T14:53:13.291Z</time></trkpt><trkpt lat="44.950705" lon="8.3824817"><ele>188.0</ele><time>2026-04-11T14:53:14.291Z</time></trkpt><trkpt lat="44.9507733" lon="8.3824117"><ele>188.0</ele><time>2026-04-11T14:53:15.291Z</time></trkpt><trkpt lat="44.9508317" lon="8.38235"><ele>188.0</ele><time>2026-04-11T14:53:16.292Z</time></trkpt><trkpt lat="44.950905" lon="8.3822933"><ele>188.0</ele><time>2026-04-11T14:53:17.291Z</time></trkpt><trkpt lat="44.9509817" lon="8.3822567"><ele>188.0</ele><time>2026-04-11T14:53:18.291Z</time></trkpt><trkpt lat="44.951065" lon="8.382215"><ele>188.4</ele><time>2026-04-11T14:53:19.292Z</time></trkpt><trkpt lat="44.9511533" lon="8.38219"><ele>188.8</ele><time>2026-04-11T14:53:20.291Z</time></trkpt><trkpt lat="44.95125" lon="8.3821817"><ele>189.2</ele><time>2026-04-11T14:53:21.291Z</time></trkpt><trkpt lat="44.9513433" lon="8.3821867"><ele>189.6</ele><time>2026-04-11T14:53:22.292Z</time></trkpt><trkpt lat="44.951435" lon="8.3821983"><ele>190.0</ele><time>2026-04-11T14:53:23.291Z</time></trkpt><trkpt lat="44.951525" lon="8.38221"><ele>190.0</ele><time>2026-04-11T14:53:24.291Z</time></trkpt><trkpt lat="44.9516167" lon="8.3822233"><ele>190.0</ele><time>2026-04-11T14:53:25.291Z</time></trkpt><trkpt lat="44.9518117" lon="8.3822533"><ele>190.0</ele><time>2026-04-11T14:53:27.292Z</time></trkpt><trkpt lat="44.951905" lon="8.3822633"><ele>190.0</ele><time>2026-04-11T14:53:28.291Z</time></trkpt><trkpt lat="44.9519967" lon="8.3822517"><ele>190.6</ele><time>2026-04-11T14:53:29.291Z</time></trkpt><trkpt lat="44.9520833" lon="8.3822267"><ele>191.2</ele><time>2026-04-11T14:53:30.291Z</time></trkpt><trkpt lat="44.95217" lon="8.3821933"><ele>191.8</ele><time>2026-04-11T14:53:31.292Z</time></trkpt><trkpt lat="44.9522517" lon="8.382135"><ele>192.4</ele><time>2026-04-11T14:53:32.291Z</time></trkpt><trkpt lat="44.9523267" lon="8.3820667"><ele>193.0</ele><time>2026-04-11T14:53:33.291Z</time></trkpt><trkpt lat="44.9523983" lon="8.3819883"><ele>193.0</ele><time>2026-04-11T14:53:34.292Z</time></trkpt><trkpt lat="44.9524717" lon="8.3818967"><ele>193.0</ele><time>2026-04-11T14:53:35.291Z</time></trkpt><trkpt lat="44.9525383" lon="8.3817967"><ele>193.0</ele><time>2026-04-11T14:53:36.291Z</time></trkpt><trkpt lat="44.9526133" lon="8.3817"><ele>193.0</ele><time>2026-04-11T14:53:37.291Z</time></trkpt><trkpt lat="44.95268" lon="8.3816083"><ele>193.0</ele><time>2026-04-11T14:53:38.291Z</time></trkpt><trkpt lat="44.9527483" lon="8.3815217"><ele>193.4</ele><time>2026-04-11T14:53:39.291Z</time></trkpt><trkpt lat="44.9528233" lon="8.3814417"><ele>193.8</ele><time>2026-04-11T14:53:40.291Z</time></trkpt><trkpt lat="44.9529033" lon="8.3813717"><ele>194.2</ele><time>2026-04-11T14:53:41.291Z</time></trkpt><trkpt lat="44.953" lon="8.3813033"><ele>194.6</ele><time>2026-04-11T14:53:42.291Z</time></trkpt><trkpt lat="44.9531" lon="8.38123"><ele>195.0</ele><time>2026-04-11T14:53:43.292Z</time></trkpt><trkpt lat="44.9531933" lon="8.38116"><ele>195.0</ele><time>2026-04-11T14:53:44.292Z</time></trkpt><trkpt lat="44.95328" lon="8.3810883"><ele>195.0</ele><time>2026-04-11T14:53:45.291Z</time></trkpt><trkpt lat="44.9533633" lon="8.38102"><ele>195.0</ele><time>2026-04-11T14:53:46.291Z</time></trkpt><trkpt lat="44.9534333" lon="8.3809467"><ele>195.0</ele><time>2026-04-11T14:53:47.291Z</time></trkpt><trkpt lat="44.9535367" lon="8.3809117"><ele>195.0</ele><time>2026-04-11T14:53:48.292Z</time></trkpt><trkpt lat="44.9536483" lon="8.3808983"><ele>195.2</ele><time>2026-04-11T14:53:49.292Z</time></trkpt><trkpt lat="44.953765" lon="8.3809017"><ele>195.4</ele><time>2026-04-11T14:53:50.291Z</time></trkpt><trkpt lat="44.9538717" lon="8.3809217"><ele>195.60000000000002</ele><time>2026-04-11T14:53:51.291Z</time></trkpt><trkpt lat="44.9539783" lon="8.38094"><ele>195.8</ele><time>2026-04-11T14:53:52.291Z</time></trkpt><trkpt lat="44.954075" lon="8.3809567"><ele>196.0</ele><time>2026-04-11T14:53:53.291Z</time></trkpt><trkpt lat="44.954165" lon="8.380965"><ele>195.8</ele><time>2026-04-11T14:53:54.292Z</time></trkpt><trkpt lat="44.95425" lon="8.3809617"><ele>195.60000000000002</ele><time>2026-04-11T14:53:55.291Z</time></trkpt><trkpt lat="44.9543317" lon="8.38093"><ele>195.4</ele><time>2026-04-11T14:53:56.291Z</time></trkpt><trkpt lat="44.9544233" lon="8.38087"><ele>195.2</ele><time>2026-04-11T14:53:57.291Z</time></trkpt><trkpt lat="44.954515" lon="8.38081"><ele>195.0</ele><time>2026-04-11T14:53:58.291Z</time></trkpt><trkpt lat="44.9546067" lon="8.380745"><ele>195.0</ele><time>2026-04-11T14:53:59.291Z</time></trkpt><trkpt lat="44.954695" lon="8.380685"><ele>195.0</ele><time>2026-04-11T14:54:00.291Z</time></trkpt><trkpt lat="44.9547733" lon="8.3806117"><ele>195.0</ele><time>2026-04-11T14:54:01.291Z</time></trkpt><trkpt lat="44.9548433" lon="8.3805283"><ele>195.0</ele><time>2026-04-11T14:54:02.291Z</time></trkpt><trkpt lat="44.9549133" lon="8.3804217"><ele>195.0</ele><time>2026-04-11T14:54:03.291Z</time></trkpt><trkpt lat="44.9549883" lon="8.380315"><ele>195.0</ele><time>2026-04-11T14:54:04.291Z</time></trkpt><trkpt lat="44.9550583" lon="8.380205"><ele>195.0</ele><time>2026-04-11T14:54:05.291Z</time></trkpt><trkpt lat="44.95514" lon="8.3801133"><ele>195.0</ele><time>2026-04-11T14:54:06.292Z</time></trkpt><trkpt lat="44.9552217" lon="8.3800333"><ele>195.0</ele><time>2026-04-11T14:54:07.291Z</time></trkpt><trkpt lat="44.9552933" lon="8.3799767"><ele>195.0</ele><time>2026-04-11T14:54:08.291Z</time></trkpt><trkpt lat="44.9553667" lon="8.37993"><ele>195.0</ele><time>2026-04-11T14:54:09.291Z</time></trkpt><trkpt lat="44.9554417" lon="8.3798817"><ele>195.0</ele><time>2026-04-11T14:54:10.291Z</time></trkpt><trkpt lat="44.9555133" lon="8.3798433"><ele>195.0</ele><time>2026-04-11T14:54:11.291Z</time></trkpt><trkpt lat="44.9555817" lon="8.3798133"><ele>195.0</ele><time>2026-04-11T14:54:12.291Z</time></trkpt><trkpt lat="44.9556567" lon="8.3797733"><ele>195.0</ele><time>2026-04-11T14:54:13.292Z</time></trkpt><trkpt lat="44.9557383" lon="8.37973"><ele>195.0</ele><time>2026-04-11T14:54:14.292Z</time></trkpt><trkpt lat="44.9558283" lon="8.3796767"><ele>196.0</ele><time>2026-04-11T14:54:15.291Z</time></trkpt><trkpt lat="44.9559233" lon="8.3796233"><ele>197.0</ele><time>2026-04-11T14:54:16.291Z</time></trkpt><trkpt lat="44.9560233" lon="8.3795683"><ele>198.0</ele><time>2026-04-11T14:54:17.291Z</time></trkpt><trkpt lat="44.95612" lon="8.3795067"><ele>199.0</ele><time>2026-04-11T14:54:18.291Z</time></trkpt><trkpt lat="44.9562167" lon="8.37946"><ele>200.0</ele><time>2026-04-11T14:54:19.292Z</time></trkpt><trkpt lat="44.9563017" lon="8.3794067"><ele>200.0</ele><time>2026-04-11T14:54:20.291Z</time></trkpt><trkpt lat="44.9563767" lon="8.3793483"><ele>200.0</ele><time>2026-04-11T14:54:21.292Z</time></trkpt><trkpt lat="44.9564533" lon="8.379275"><ele>200.0</ele><time>2026-04-11T14:54:22.292Z</time></trkpt><trkpt lat="44.9565283" lon="8.3791917"><ele>200.0</ele><time>2026-04-11T14:54:23.291Z</time></trkpt><trkpt lat="44.9566" lon="8.3791017"><ele>200.0</ele><time>2026-04-11T14:54:24.291Z</time></trkpt><trkpt lat="44.95668" lon="8.37901"><ele>199.25</ele><time>2026-04-11T14:54:25.291Z</time></trkpt><trkpt lat="44.9567617" lon="8.37892"><ele>198.5</ele><time>2026-04-11T14:54:26.291Z</time></trkpt><trkpt lat="44.956855" lon="8.3788183"><ele>197.75</ele><time>2026-04-11T14:54:27.291Z</time></trkpt><trkpt lat="44.95696" lon="8.3787183"><ele>197.0</ele><time>2026-04-11T14:54:28.292Z</time></trkpt><trkpt lat="44.957065" lon="8.3786283"><ele>197.0</ele><time>2026-04-11T14:54:29.292Z</time></trkpt><trkpt lat="44.9571567" lon="8.3785517"><ele>197.0</ele><time>2026-04-11T14:54:30.291Z</time></trkpt><trkpt lat="44.95724" lon="8.3784767"><ele>197.0</ele><time>2026-04-11T14:54:31.291Z</time></trkpt><trkpt lat="44.957325" lon="8.3783917"><ele>197.0</ele><time>2026-04-11T14:54:32.292Z</time></trkpt><trkpt lat="44.957405" lon="8.3783133"><ele>197.0</ele><time>2026-04-11T14:54:33.292Z</time></trkpt><trkpt lat="44.9575017" lon="8.3782367"><ele>196.5</ele><time>2026-04-11T14:54:34.291Z</time></trkpt><trkpt lat="44.9576" lon="8.3781533"><ele>196.0</ele><time>2026-04-11T14:54:35.292Z</time></trkpt><trkpt lat="44.9577017" lon="8.37808"><ele>195.5</ele><time>2026-04-11T14:54:36.292Z</time></trkpt><trkpt lat="44.957805" lon="8.37801"><ele>195.0</ele><time>2026-04-11T14:54:37.291Z</time></trkpt><trkpt lat="44.9579083" lon="8.3779483"><ele>196.4</ele><time>2026-04-11T14:54:38.291Z</time></trkpt><trkpt lat="44.9580067" lon="8.377885"><ele>197.8</ele><time>2026-04-11T14:54:39.291Z</time></trkpt><trkpt lat="44.9581" lon="8.3778333"><ele>199.2</ele><time>2026-04-11T14:54:40.292Z</time></trkpt><trkpt lat="44.9582033" lon="8.3777983"><ele>200.6</ele><time>2026-04-11T14:54:41.291Z</time></trkpt><trkpt lat="44.95831" lon="8.37777"><ele>202.0</ele><time>2026-04-11T14:54:42.292Z</time></trkpt><trkpt lat="44.9584083" lon="8.3777433"><ele>201.99999999999997</ele><time>2026-04-11T14:54:43.291Z</time></trkpt><trkpt lat="44.958495" lon="8.37772"><ele>202.0</ele><time>2026-04-11T14:54:44.291Z</time></trkpt><trkpt lat="44.9585717" lon="8.37771"><ele>202.0</ele><time>2026-04-11T14:54:45.292Z</time></trkpt><trkpt lat="44.9586367" lon="8.37769"><ele>202.0</ele><time>2026-04-11T14:54:46.292Z</time></trkpt><trkpt lat="44.9587367" lon="8.377655"><ele>201.99999999999997</ele><time>2026-04-11T14:54:48.291Z</time></trkpt><trkpt lat="44.9588167" lon="8.3776317"><ele>202.0</ele><time>2026-04-11T14:54:51.291Z</time></trkpt><trkpt lat="44.958905" lon="8.37765"><ele>202.0</ele><time>2026-04-11T14:55:40.29Z</time></trkpt><trkpt lat="44.9590117" lon="8.3776267"><ele>202.0</ele><time>2026-04-11T14:55:42.29Z</time></trkpt><trkpt lat="44.9591183" lon="8.3776433"><ele>202.0</ele><time>2026-04-11T14:55:44.29Z</time></trkpt><trkpt lat="44.9592683" lon="8.377705"><ele>202.0</ele><time>2026-04-11T14:55:46.29Z</time></trkpt><trkpt lat="44.9593483" lon="8.37775"><ele>200.2</ele><time>2026-04-11T14:55:47.29Z</time></trkpt><trkpt lat="44.9594167" lon="8.377795"><ele>198.39999999999998</ele><time>2026-04-11T14:55:48.291Z</time></trkpt><trkpt lat="44.9594783" lon="8.3778283"><ele>196.60000000000002</ele><time>2026-04-11T14:55:49.29Z</time></trkpt><trkpt lat="44.9595817" lon="8.3778833"><ele>194.8</ele><time>2026-04-11T14:55:51.29Z</time></trkpt><trkpt lat="44.9596817" lon="8.377955"><ele>193.0</ele><time>2026-04-11T14:55:53.291Z</time></trkpt><trkpt lat="44.9597867" lon="8.37801"><ele>194.4</ele><time>2026-04-11T14:55:55.29Z</time></trkpt><trkpt lat="44.959865" lon="8.3780833"><ele>195.8</ele><time>2026-04-11T14:55:57.29Z</time></trkpt><trkpt lat="44.95994" lon="8.3781"><ele>197.2</ele><time>2026-04-11T14:55:59.29Z</time></trkpt><trkpt lat="44.9600283" lon="8.378095"><ele>198.6</ele><time>2026-04-11T14:56:01.29Z</time></trkpt><trkpt lat="44.9601267" lon="8.3780817"><ele>200.0</ele><time>2026-04-11T14:56:03.29Z</time></trkpt><trkpt lat="44.9602283" lon="8.3780383"><ele>199.8</ele><time>2026-04-11T14:56:05.29Z</time></trkpt><trkpt lat="44.9603417" lon="8.3779983"><ele>199.6</ele><time>2026-04-11T14:56:07.29Z</time></trkpt><trkpt lat="44.9604483" lon="8.37796"><ele>199.39999999999998</ele><time>2026-04-11T14:56:09.29Z</time></trkpt><trkpt lat="44.9605417" lon="8.37791"><ele>199.2</ele><time>2026-04-11T14:56:11.291Z</time></trkpt><trkpt lat="44.9606267" lon="8.3778717"><ele>199.0</ele><time>2026-04-11T14:56:13.29Z</time></trkpt><trkpt lat="44.9607117" lon="8.3778133"><ele>199.0</ele><time>2026-04-11T14:56:15.29Z</time></trkpt><trkpt lat="44.96077" lon="8.37777"><ele>199.0</ele><time>2026-04-11T14:56:17.291Z</time></trkpt><trkpt lat="44.9608633" lon="8.37772"><ele>199.0</ele><time>2026-04-11T14:56:19.29Z</time></trkpt><trkpt lat="44.9609533" lon="8.3776533"><ele>199.0</ele><time>2026-04-11T14:56:21.29Z</time></trkpt><trkpt lat="44.9610383" lon="8.3775833"><ele>199.0</ele><time>2026-04-11T14:56:23.29Z</time></trkpt><trkpt lat="44.9611133" lon="8.3775083"><ele>198.6</ele><time>2026-04-11T14:56:25.29Z</time></trkpt><trkpt lat="44.9612067" lon="8.3774167"><ele>198.2</ele><time>2026-04-11T14:56:27.291Z</time></trkpt><trkpt lat="44.9613083" lon="8.3772883"><ele>197.79999999999998</ele><time>2026-04-11T14:56:29.29Z</time></trkpt><trkpt lat="44.9613667" lon="8.3772367"><ele>197.39999999999998</ele><time>2026-04-11T14:56:30.29Z</time></trkpt><trkpt lat="44.961435" lon="8.3772033"><ele>197.0</ele><time>2026-04-11T14:56:31.29Z</time></trkpt><trkpt lat="44.9614933" lon="8.377155"><ele>197.0</ele><time>2026-04-11T14:56:32.291Z</time></trkpt><trkpt lat="44.96155" lon="8.3771"><ele>197.0</ele><time>2026-04-11T14:56:33.29Z</time></trkpt><trkpt lat="44.9616067" lon="8.37704"><ele>197.0</ele><time>2026-04-11T14:56:34.291Z</time></trkpt><trkpt lat="44.9616567" lon="8.3769833"><ele>197.0</ele><time>2026-04-11T14:56:35.29Z</time></trkpt><trkpt lat="44.9617083" lon="8.3769183"><ele>197.0</ele><time>2026-04-11T14:56:36.29Z</time></trkpt><trkpt lat="44.9617483" lon="8.3768483"><ele>197.0</ele><time>2026-04-11T14:56:37.29Z</time></trkpt><trkpt lat="44.9617917" lon="8.3767817"><ele>197.0</ele><time>2026-04-11T14:56:38.29Z</time></trkpt><trkpt lat="44.961865" lon="8.3766517"><ele>194.39999999999998</ele><time>2026-04-11T14:56:40.29Z</time></trkpt><trkpt lat="44.9619467" lon="8.3765467"><ele>191.79999999999998</ele><time>2026-04-11T14:56:42.291Z</time></trkpt><trkpt lat="44.9620267" lon="8.3764733"><ele>189.2</ele><time>2026-04-11T14:56:44.29Z</time></trkpt><trkpt lat="44.9621133" lon="8.3764233"><ele>186.6</ele><time>2026-04-11T14:56:46.29Z</time></trkpt><trkpt lat="44.9621817" lon="8.3763917"><ele>184.0</ele><time>2026-04-11T14:56:48.29Z</time></trkpt><trkpt lat="44.9622633" lon="8.3763533"><ele>185.0</ele><time>2026-04-11T14:56:50.291Z</time></trkpt><trkpt lat="44.962345" lon="8.3762783"><ele>186.0</ele><time>2026-04-11T14:56:52.291Z</time></trkpt><trkpt lat="44.962435" lon="8.376145"><ele>187.0</ele><time>2026-04-11T14:56:54.29Z</time></trkpt><trkpt lat="44.9624933" lon="8.3760217"><ele>188.0</ele><time>2026-04-11T14:56:56.29Z</time></trkpt><trkpt lat="44.9625467" lon="8.37591"><ele>189.0</ele><time>2026-04-11T14:56:58.29Z</time></trkpt><trkpt lat="44.9626217" lon="8.3757817"><ele>187.0</ele><time>2026-04-11T14:57:00.291Z</time></trkpt><trkpt lat="44.962715" lon="8.37568"><ele>185.0</ele><time>2026-04-11T14:57:02.291Z</time></trkpt><trkpt lat="44.9627983" lon="8.3755833"><ele>183.0</ele><time>2026-04-11T14:57:04.291Z</time></trkpt><trkpt lat="44.9628817" lon="8.37552"><ele>181.0</ele><time>2026-04-11T14:57:06.29Z</time></trkpt><trkpt lat="44.9629633" lon="8.3754717"><ele>179.0</ele><time>2026-04-11T14:57:08.29Z</time></trkpt><trkpt lat="44.9630417" lon="8.3754267"><ele>176.66666666666666</ele><time>2026-04-11T14:57:10.29Z</time></trkpt><trkpt lat="44.9631017" lon="8.3753867"><ele>174.33333333333331</ele><time>2026-04-11T14:57:12.29Z</time></trkpt><trkpt lat="44.9631833" lon="8.37533"><ele>172.0</ele><time>2026-04-11T14:57:14.29Z</time></trkpt><trkpt lat="44.96327" lon="8.3752467"><ele>169.66666666666666</ele><time>2026-04-11T14:57:16.29Z</time></trkpt><trkpt lat="44.9633283" lon="8.3751967"><ele>167.33333333333334</ele><time>2026-04-11T14:57:17.29Z</time></trkpt><trkpt lat="44.9633867" lon="8.37514"><ele>165.0</ele><time>2026-04-11T14:57:18.29Z</time></trkpt><trkpt lat="44.9634417" lon="8.3750883"><ele>163.6</ele><time>2026-04-11T14:57:19.291Z</time></trkpt><trkpt lat="44.96357" lon="8.37502"><ele>162.2</ele><time>2026-04-11T14:57:21.29Z</time></trkpt><trkpt lat="44.9636367" lon="8.3749917"><ele>160.8</ele><time>2026-04-11T14:57:22.29Z</time></trkpt><trkpt lat="44.9637133" lon="8.37495"><ele>159.4</ele><time>2026-04-11T14:57:23.29Z</time></trkpt><trkpt lat="44.963795" lon="8.37489"><ele>158.0</ele><time>2026-04-11T14:57:24.29Z</time></trkpt><trkpt lat="44.963865" lon="8.3748367"><ele>158.0</ele><time>2026-04-11T14:57:25.291Z</time></trkpt><trkpt lat="44.9639417" lon="8.3747783"><ele>158.0</ele><time>2026-04-11T14:57:26.291Z</time></trkpt><trkpt lat="44.9640117" lon="8.3747217"><ele>158.0</ele><time>2026-04-11T14:57:27.29Z</time></trkpt><trkpt lat="44.9640867" lon="8.3746583"><ele>158.0</ele><time>2026-04-11T14:57:28.291Z</time></trkpt><trkpt lat="44.9641533" lon="8.3745783"><ele>158.0</ele><time>2026-04-11T14:57:29.291Z</time></trkpt><trkpt lat="44.9642267" lon="8.3744867"><ele>158.0</ele><time>2026-04-11T14:57:30.291Z</time></trkpt><trkpt lat="44.9642883" lon="8.3744033"><ele>158.16666666666666</ele><time>2026-04-11T14:57:31.29Z</time></trkpt><trkpt lat="44.9643483" lon="8.3743333"><ele>158.33333333333331</ele><time>2026-04-11T14:57:32.291Z</time></trkpt><trkpt lat="44.9644" lon="8.37428"><ele>158.5</ele><time>2026-04-11T14:57:33.29Z</time></trkpt><trkpt lat="44.96447" lon="8.3742183"><ele>158.66666666666666</ele><time>2026-04-11T14:57:35.29Z</time></trkpt><trkpt lat="44.9645517" lon="8.3743467"><ele>158.83333333333334</ele><time>2026-04-11T14:57:38.29Z</time></trkpt><trkpt lat="44.9645817" lon="8.37447"><ele>159.0</ele><time>2026-04-11T14:57:39.291Z</time></trkpt><trkpt lat="44.9646217" lon="8.3746183"><ele>158.5</ele><time>2026-04-11T14:57:40.29Z</time></trkpt><trkpt lat="44.9646633" lon="8.3747967"><ele>158.0</ele><time>2026-04-11T14:57:41.29Z</time></trkpt><trkpt lat="44.9647017" lon="8.374995"><ele>157.5</ele><time>2026-04-11T14:57:42.291Z</time></trkpt><trkpt lat="44.9647467" lon="8.3752183"><ele>157.0</ele><time>2026-04-11T14:57:43.29Z</time></trkpt><trkpt lat="44.964815" lon="8.3754417"><ele>157.25</ele><time>2026-04-11T14:57:44.291Z</time></trkpt><trkpt lat="44.9648667" lon="8.3756317"><ele>157.5</ele><time>2026-04-11T14:57:45.29Z</time></trkpt><trkpt lat="44.964925" lon="8.375815"><ele>157.75</ele><time>2026-04-11T14:57:46.29Z</time></trkpt><trkpt lat="44.9650017" lon="8.3759783"><ele>158.0</ele><time>2026-04-11T14:57:47.291Z</time></trkpt><trkpt lat="44.9650817" lon="8.3761483"><ele>158.66666666666666</ele><time>2026-04-11T14:57:48.291Z</time></trkpt><trkpt lat="44.9651667" lon="8.3763083"><ele>159.33333333333334</ele><time>2026-04-11T14:57:49.29Z</time></trkpt><trkpt lat="44.9652467" lon="8.3764283"><ele>160.0</ele><time>2026-04-11T14:57:50.29Z</time></trkpt><trkpt lat="44.9654433" lon="8.3766567"><ele>160.0</ele><time>2026-04-11T14:57:52.29Z</time></trkpt><trkpt lat="44.9655517" lon="8.3767783"><ele>160.0</ele><time>2026-04-11T14:57:53.29Z</time></trkpt><trkpt lat="44.9656417" lon="8.376925"><ele>160.0</ele><time>2026-04-11T14:57:54.29Z</time></trkpt><trkpt lat="44.965725" lon="8.3771117"><ele>160.0</ele><time>2026-04-11T14:57:55.29Z</time></trkpt><trkpt lat="44.9658067" lon="8.377305"><ele>159.75</ele><time>2026-04-11T14:57:56.29Z</time></trkpt><trkpt lat="44.96588" lon="8.377485"><ele>159.5</ele><time>2026-04-11T14:57:57.29Z</time></trkpt><trkpt lat="44.9659517" lon="8.3776517"><ele>159.25</ele><time>2026-04-11T14:57:58.29Z</time></trkpt><trkpt lat="44.966025" lon="8.3778017"><ele>159.0</ele><time>2026-04-11T14:57:59.29Z</time></trkpt><trkpt lat="44.9661067" lon="8.3779483"><ele>159.75</ele><time>2026-04-11T14:58:00.291Z</time></trkpt><trkpt lat="44.9662133" lon="8.378085"><ele>160.5</ele><time>2026-04-11T14:58:01.29Z</time></trkpt><trkpt lat="44.9663183" lon="8.3782083"><ele>161.25</ele><time>2026-04-11T14:58:02.29Z</time></trkpt><trkpt lat="44.96641" lon="8.3783067"><ele>162.0</ele><time>2026-04-11T14:58:03.29Z</time></trkpt><trkpt lat="44.9665067" lon="8.3783967"><ele>162.0</ele><time>2026-04-11T14:58:04.29Z</time></trkpt><trkpt lat="44.9666033" lon="8.3784667"><ele>162.0</ele><time>2026-04-11T14:58:05.29Z</time></trkpt><trkpt lat="44.9667183" lon="8.37852"><ele>162.0</ele><time>2026-04-11T14:58:06.291Z</time></trkpt><trkpt lat="44.9668583" lon="8.37855"><ele>162.0</ele><time>2026-04-11T14:58:07.29Z</time></trkpt><trkpt lat="44.9669983" lon="8.3785767"><ele>163.75</ele><time>2026-04-11T14:58:08.29Z</time></trkpt><trkpt lat="44.96713" lon="8.378625"><ele>165.5</ele><time>2026-04-11T14:58:09.29Z</time></trkpt><trkpt lat="44.9672483" lon="8.378715"><ele>167.25</ele><time>2026-04-11T14:58:10.29Z</time></trkpt><trkpt lat="44.9673533" lon="8.3788133"><ele>169.0</ele><time>2026-04-11T14:58:11.29Z</time></trkpt><trkpt lat="44.96746" lon="8.3789167"><ele>168.75</ele><time>2026-04-11T14:58:12.291Z</time></trkpt><trkpt lat="44.9675483" lon="8.3790383"><ele>168.5</ele><time>2026-04-11T14:58:13.29Z</time></trkpt><trkpt lat="44.9676217" lon="8.3791817"><ele>168.25</ele><time>2026-04-11T14:58:14.29Z</time></trkpt><trkpt lat="44.9676667" lon="8.379335"><ele>168.0</ele><time>2026-04-11T14:58:15.29Z</time></trkpt><trkpt lat="44.9676867" lon="8.3794767"><ele>168.0</ele><time>2026-04-11T14:58:16.29Z</time></trkpt><trkpt lat="44.967725" lon="8.3796083"><ele>168.0</ele><time>2026-04-11T14:58:17.291Z</time></trkpt><trkpt lat="44.967775" lon="8.3797283"><ele>168.0</ele><time>2026-04-11T14:58:18.29Z</time></trkpt><trkpt lat="44.9678417" lon="8.37984"><ele>168.0</ele><time>2026-04-11T14:58:19.291Z</time></trkpt><trkpt lat="44.9679433" lon="8.3799417"><ele>168.0</ele><time>2026-04-11T14:58:20.29Z</time></trkpt><trkpt lat="44.968065" lon="8.3800217"><ele>168.66666666666666</ele><time>2026-04-11T14:58:21.29Z</time></trkpt><trkpt lat="44.9682133" lon="8.3800733"><ele>169.33333333333331</ele><time>2026-04-11T14:58:22.29Z</time></trkpt><trkpt lat="44.9683717" lon="8.38012"><ele>170.0</ele><time>2026-04-11T14:58:23.291Z</time></trkpt><trkpt lat="44.9685233" lon="8.3801567"><ele>170.0</ele><time>2026-04-11T14:58:24.291Z</time></trkpt><trkpt lat="44.968655" lon="8.3802133"><ele>170.0</ele><time>2026-04-11T14:58:25.29Z</time></trkpt><trkpt lat="44.968785" lon="8.3802783"><ele>170.0</ele><time>2026-04-11T14:58:26.29Z</time></trkpt><trkpt lat="44.9689033" lon="8.3803533"><ele>170.0</ele><time>2026-04-11T14:58:27.29Z</time></trkpt><trkpt lat="44.9690167" lon="8.38042"><ele>170.0</ele><time>2026-04-11T14:58:28.29Z</time></trkpt><trkpt lat="44.9691483" lon="8.3804817"><ele>170.0</ele><time>2026-04-11T14:58:29.291Z</time></trkpt><trkpt lat="44.9692817" lon="8.3805183"><ele>170.0</ele><time>2026-04-11T14:58:30.29Z</time></trkpt><trkpt lat="44.9694217" lon="8.38055"><ele>170.0</ele><time>2026-04-11T14:58:31.29Z</time></trkpt><trkpt lat="44.96955" lon="8.3805683"><ele>169.5</ele><time>2026-04-11T14:58:32.29Z</time></trkpt><trkpt lat="44.9696683" lon="8.3805817"><ele>169.0</ele><time>2026-04-11T14:58:33.29Z</time></trkpt><trkpt lat="44.9697783" lon="8.3805867"><ele>168.5</ele><time>2026-04-11T14:58:34.29Z</time></trkpt><trkpt lat="44.9698983" lon="8.38057"><ele>168.0</ele><time>2026-04-11T14:58:35.29Z</time></trkpt><trkpt lat="44.9700217" lon="8.3805333"><ele>171.5</ele><time>2026-04-11T14:58:36.29Z</time></trkpt><trkpt lat="44.9701383" lon="8.38051"><ele>175.0</ele><time>2026-04-11T14:58:37.291Z</time></trkpt><trkpt lat="44.9702567" lon="8.380505"><ele>178.5</ele><time>2026-04-11T14:58:38.29Z</time></trkpt><trkpt lat="44.970385" lon="8.380485"><ele>182.0</ele><time>2026-04-11T14:58:39.29Z</time></trkpt><trkpt lat="44.970515" lon="8.3804717"><ele>182.0</ele><time>2026-04-11T14:58:40.29Z</time></trkpt><trkpt lat="44.9706383" lon="8.38046"><ele>182.0</ele><time>2026-04-11T14:58:41.291Z</time></trkpt><trkpt lat="44.9707667" lon="8.3804433"><ele>182.0</ele><time>2026-04-11T14:58:42.29Z</time></trkpt><trkpt lat="44.9708917" lon="8.38043"><ele>182.0</ele><time>2026-04-11T14:58:43.291Z</time></trkpt><trkpt lat="44.9710183" lon="8.3804183"><ele>181.5</ele><time>2026-04-11T14:58:44.29Z</time></trkpt><trkpt lat="44.9711417" lon="8.3804083"><ele>181.0</ele><time>2026-04-11T14:58:45.29Z</time></trkpt><trkpt lat="44.97126" lon="8.3803967"><ele>180.5</ele><time>2026-04-11T14:58:46.291Z</time></trkpt><trkpt lat="44.9713783" lon="8.380385"><ele>180.0</ele><time>2026-04-11T14:58:47.29Z</time></trkpt><trkpt lat="44.9714933" lon="8.3803733"><ele>180.0</ele><time>2026-04-11T14:58:48.29Z</time></trkpt><trkpt lat="44.9716083" lon="8.3803617"><ele>180.0</ele><time>2026-04-11T14:58:49.29Z</time></trkpt><trkpt lat="44.97173" lon="8.380345"><ele>180.0</ele><time>2026-04-11T14:58:50.29Z</time></trkpt><trkpt lat="44.971845" lon="8.3803167"><ele>180.0</ele><time>2026-04-11T14:58:51.29Z</time></trkpt><trkpt lat="44.97194" lon="8.38027"><ele>178.6</ele><time>2026-04-11T14:58:52.291Z</time></trkpt><trkpt lat="44.9720383" lon="8.380215"><ele>177.2</ele><time>2026-04-11T14:58:53.29Z</time></trkpt><trkpt lat="44.972135" lon="8.3801517"><ele>175.8</ele><time>2026-04-11T14:58:54.29Z</time></trkpt><trkpt lat="44.9722033" lon="8.3800833"><ele>174.4</ele><time>2026-04-11T14:58:55.29Z</time></trkpt><trkpt lat="44.97229" lon="8.380025"><ele>173.0</ele><time>2026-04-11T14:58:56.29Z</time></trkpt><trkpt lat="44.9723783" lon="8.3799867"><ele>173.0</ele><time>2026-04-11T14:58:57.291Z</time></trkpt><trkpt lat="44.97247" lon="8.3799967"><ele>173.0</ele><time>2026-04-11T14:58:58.291Z</time></trkpt><trkpt lat="44.97256" lon="8.3800317"><ele>173.0</ele><time>2026-04-11T14:58:59.291Z</time></trkpt><trkpt lat="44.972645" lon="8.3801117"><ele>173.0</ele><time>2026-04-11T14:59:00.291Z</time></trkpt><trkpt lat="44.97271" lon="8.3802233"><ele>173.0</ele><time>2026-04-11T14:59:01.291Z</time></trkpt><trkpt lat="44.972785" lon="8.38033"><ele>172.66666666666666</ele><time>2026-04-11T14:59:02.29Z</time></trkpt><trkpt lat="44.9728633" lon="8.38043"><ele>172.33333333333331</ele><time>2026-04-11T14:59:03.29Z</time></trkpt><trkpt lat="44.9729383" lon="8.3804967"><ele>172.0</ele><time>2026-04-11T14:59:04.291Z</time></trkpt><trkpt lat="44.9730233" lon="8.3805417"><ele>171.66666666666666</ele><time>2026-04-11T14:59:05.29Z</time></trkpt><trkpt lat="44.973105" lon="8.3805383"><ele>171.33333333333334</ele><time>2026-04-11T14:59:06.29Z</time></trkpt><trkpt lat="44.9731733" lon="8.3804983"><ele>171.0</ele><time>2026-04-11T14:59:07.29Z</time></trkpt><trkpt lat="44.9732267" lon="8.3804333"><ele>171.0</ele><time>2026-04-11T14:59:08.29Z</time></trkpt><trkpt lat="44.9732733" lon="8.3803133"><ele>171.0</ele><time>2026-04-11T14:59:09.289Z</time></trkpt><trkpt lat="44.97333" lon="8.3801717"><ele>171.0</ele><time>2026-04-11T14:59:10.289Z</time></trkpt><trkpt lat="44.9733833" lon="8.38002"><ele>171.0</ele><time>2026-04-11T14:59:11.289Z</time></trkpt><trkpt lat="44.9734417" lon="8.3798667"><ele>172.25</ele><time>2026-04-11T14:59:12.289Z</time></trkpt><trkpt lat="44.973505" lon="8.37971"><ele>173.5</ele><time>2026-04-11T14:59:13.289Z</time></trkpt><trkpt lat="44.973575" lon="8.379555"><ele>174.75</ele><time>2026-04-11T14:59:14.289Z</time></trkpt><trkpt lat="44.9736583" lon="8.3794067"><ele>176.0</ele><time>2026-04-11T14:59:15.289Z</time></trkpt><trkpt lat="44.9737383" lon="8.3792567"><ele>176.0</ele><time>2026-04-11T14:59:16.289Z</time></trkpt><trkpt lat="44.973815" lon="8.37911"><ele>176.0</ele><time>2026-04-11T14:59:17.289Z</time></trkpt><trkpt lat="44.9738817" lon="8.378965"><ele>176.0</ele><time>2026-04-11T14:59:18.289Z</time></trkpt><trkpt lat="44.9739583" lon="8.378815"><ele>176.0</ele><time>2026-04-11T14:59:19.29Z</time></trkpt><trkpt lat="44.9740417" lon="8.3786633"><ele>176.25</ele><time>2026-04-11T14:59:20.289Z</time></trkpt><trkpt lat="44.974125" lon="8.378505"><ele>176.5</ele><time>2026-04-11T14:59:21.289Z</time></trkpt><trkpt lat="44.9741983" lon="8.3783533"><ele>176.75</ele><time>2026-04-11T14:59:22.29Z</time></trkpt><trkpt lat="44.9742733" lon="8.3782"><ele>177.0</ele><time>2026-04-11T14:59:23.289Z</time></trkpt><trkpt lat="44.9743467" lon="8.3780433"><ele>176.0</ele><time>2026-04-11T14:59:24.289Z</time></trkpt><trkpt lat="44.9744017" lon="8.3779033"><ele>175.0</ele><time>2026-04-11T14:59:25.289Z</time></trkpt><trkpt lat="44.97445" lon="8.3777633"><ele>174.0</ele><time>2026-04-11T14:59:26.289Z</time></trkpt><trkpt lat="44.974495" lon="8.3776217"><ele>173.0</ele><time>2026-04-11T14:59:27.289Z</time></trkpt><trkpt lat="44.9745267" lon="8.3774667"><ele>172.0</ele><time>2026-04-11T14:59:28.29Z</time></trkpt><trkpt lat="44.9745517" lon="8.3773133"><ele>172.75</ele><time>2026-04-11T14:59:29.289Z</time></trkpt><trkpt lat="44.9745633" lon="8.3771467"><ele>173.5</ele><time>2026-04-11T14:59:30.289Z</time></trkpt><trkpt lat="44.9745617" lon="8.3769817"><ele>174.25</ele><time>2026-04-11T14:59:31.289Z</time></trkpt><trkpt lat="44.97456" lon="8.3768183"><ele>175.0</ele><time>2026-04-11T14:59:32.29Z</time></trkpt><trkpt lat="44.974555" lon="8.3766667"><ele>175.0</ele><time>2026-04-11T14:59:33.289Z</time></trkpt><trkpt lat="44.974575" lon="8.3765183"><ele>175.0</ele><time>2026-04-11T14:59:34.289Z</time></trkpt><trkpt lat="44.9746" lon="8.376365"><ele>175.0</ele><time>2026-04-11T14:59:35.289Z</time></trkpt><trkpt lat="44.9746267" lon="8.376215"><ele>175.0</ele><time>2026-04-11T14:59:36.289Z</time></trkpt><trkpt lat="44.9746617" lon="8.3760567"><ele>175.0</ele><time>2026-04-11T14:59:37.29Z</time></trkpt><trkpt lat="44.9746983" lon="8.3759"><ele>174.5</ele><time>2026-04-11T14:59:38.289Z</time></trkpt><trkpt lat="44.97474" lon="8.3757533"><ele>174.0</ele><time>2026-04-11T14:59:39.289Z</time></trkpt><trkpt lat="44.974795" lon="8.375615"><ele>173.5</ele><time>2026-04-11T14:59:40.289Z</time></trkpt><trkpt lat="44.9748683" lon="8.3754883"><ele>173.0</ele><time>2026-04-11T14:59:41.289Z</time></trkpt><trkpt lat="44.9749533" lon="8.3753667"><ele>174.25</ele><time>2026-04-11T14:59:42.289Z</time></trkpt><trkpt lat="44.9750467" lon="8.3752417"><ele>175.5</ele><time>2026-04-11T14:59:43.289Z</time></trkpt><trkpt lat="44.975135" lon="8.3751233"><ele>176.75</ele><time>2026-04-11T14:59:44.289Z</time></trkpt><trkpt lat="44.9752217" lon="8.3750033"><ele>178.0</ele><time>2026-04-11T14:59:45.289Z</time></trkpt><trkpt lat="44.97531" lon="8.3748833"><ele>178.0</ele><time>2026-04-11T14:59:46.289Z</time></trkpt><trkpt lat="44.9754" lon="8.3747567"><ele>178.0</ele><time>2026-04-11T14:59:47.29Z</time></trkpt><trkpt lat="44.9754883" lon="8.3746333"><ele>178.0</ele><time>2026-04-11T14:59:48.29Z</time></trkpt><trkpt lat="44.9755767" lon="8.3745"><ele>178.0</ele><time>2026-04-11T14:59:49.29Z</time></trkpt><trkpt lat="44.9756667" lon="8.374365"><ele>177.5</ele><time>2026-04-11T14:59:50.29Z</time></trkpt><trkpt lat="44.9757433" lon="8.3742283"><ele>177.0</ele><time>2026-04-11T14:59:51.289Z</time></trkpt><trkpt lat="44.9758117" lon="8.3740967"><ele>176.5</ele><time>2026-04-11T14:59:52.289Z</time></trkpt><trkpt lat="44.9758667" lon="8.3739567"><ele>176.0</ele><time>2026-04-11T14:59:53.29Z</time></trkpt><trkpt lat="44.9759417" lon="8.3736683"><ele>177.0</ele><time>2026-04-11T14:59:55.29Z</time></trkpt><trkpt lat="44.9759917" lon="8.3733733"><ele>178.0</ele><time>2026-04-11T14:59:57.29Z</time></trkpt><trkpt lat="44.976005" lon="8.373235"><ele>179.0</ele><time>2026-04-11T14:59:58.289Z</time></trkpt><trkpt lat="44.9760183" lon="8.3731017"><ele>180.0</ele><time>2026-04-11T14:59:59.289Z</time></trkpt><trkpt lat="44.976015" lon="8.37296"><ele>181.4</ele><time>2026-04-11T15:00:00.289Z</time></trkpt><trkpt lat="44.9760183" lon="8.37282"><ele>182.8</ele><time>2026-04-11T15:00:01.289Z</time></trkpt><trkpt lat="44.97602" lon="8.3726717"><ele>184.2</ele><time>2026-04-11T15:00:02.29Z</time></trkpt><trkpt lat="44.976015" lon="8.3725283"><ele>185.6</ele><time>2026-04-11T15:00:03.289Z</time></trkpt><trkpt lat="44.9760167" lon="8.3723867"><ele>187.0</ele><time>2026-04-11T15:00:04.289Z</time></trkpt><trkpt lat="44.9760117" lon="8.372235"><ele>187.2</ele><time>2026-04-11T15:00:05.289Z</time></trkpt><trkpt lat="44.976015" lon="8.3720733"><ele>187.39999999999998</ele><time>2026-04-11T15:00:06.289Z</time></trkpt><trkpt lat="44.9760167" lon="8.3719167"><ele>187.60000000000002</ele><time>2026-04-11T15:00:07.29Z</time></trkpt><trkpt lat="44.97601" lon="8.3717617"><ele>187.8</ele><time>2026-04-11T15:00:08.289Z</time></trkpt><trkpt lat="44.97601" lon="8.3716"><ele>188.0</ele><time>2026-04-11T15:00:09.29Z</time></trkpt><trkpt lat="44.97601" lon="8.3714383"><ele>187.0</ele><time>2026-04-11T15:00:10.29Z</time></trkpt><trkpt lat="44.97601" lon="8.371285"><ele>186.0</ele><time>2026-04-11T15:00:11.289Z</time></trkpt><trkpt lat="44.9760067" lon="8.3711567"><ele>185.0</ele><time>2026-04-11T15:00:12.289Z</time></trkpt><trkpt lat="44.9759867" lon="8.3710317"><ele>184.0</ele><time>2026-04-11T15:00:13.289Z</time></trkpt><trkpt lat="44.975955" lon="8.3709033"><ele>183.0</ele><time>2026-04-11T15:00:14.289Z</time></trkpt><trkpt lat="44.9759183" lon="8.3707817"><ele>183.0</ele><time>2026-04-11T15:00:15.29Z</time></trkpt><trkpt lat="44.975865" lon="8.3705667"><ele>183.0</ele><time>2026-04-11T15:00:17.29Z</time></trkpt><trkpt lat="44.975855" lon="8.3704533"><ele>183.0</ele><time>2026-04-11T15:00:18.289Z</time></trkpt><trkpt lat="44.9758683" lon="8.37034"><ele>183.0</ele><time>2026-04-11T15:00:19.29Z</time></trkpt><trkpt lat="44.9759083" lon="8.370225"><ele>183.0</ele><time>2026-04-11T15:00:20.289Z</time></trkpt><trkpt lat="44.9759633" lon="8.3700983"><ele>181.75</ele><time>2026-04-11T15:00:21.29Z</time></trkpt><trkpt lat="44.97602" lon="8.3699717"><ele>180.5</ele><time>2026-04-11T15:00:22.289Z</time></trkpt><trkpt lat="44.976125" lon="8.369685"><ele>179.25</ele><time>2026-04-11T15:00:24.289Z</time></trkpt><trkpt lat="44.9761683" lon="8.36954"><ele>178.0</ele><time>2026-04-11T15:00:25.289Z</time></trkpt><trkpt lat="44.9762167" lon="8.3694067"><ele>177.8</ele><time>2026-04-11T15:00:26.289Z</time></trkpt><trkpt lat="44.9762733" lon="8.3692867"><ele>177.60000000000002</ele><time>2026-04-11T15:00:27.29Z</time></trkpt><trkpt lat="44.9763333" lon="8.369175"><ele>177.39999999999998</ele><time>2026-04-11T15:00:28.289Z</time></trkpt><trkpt lat="44.9764" lon="8.369065"><ele>177.2</ele><time>2026-04-11T15:00:29.289Z</time></trkpt><trkpt lat="44.9764783" lon="8.368965"><ele>177.0</ele><time>2026-04-11T15:00:30.289Z</time></trkpt><trkpt lat="44.97656" lon="8.3688617"><ele>177.6</ele><time>2026-04-11T15:00:31.289Z</time></trkpt><trkpt lat="44.9766367" lon="8.368775"><ele>178.2</ele><time>2026-04-11T15:00:32.29Z</time></trkpt><trkpt lat="44.976715" lon="8.3686867"><ele>178.8</ele><time>2026-04-11T15:00:33.29Z</time></trkpt><trkpt lat="44.9767983" lon="8.36859"><ele>179.4</ele><time>2026-04-11T15:00:34.289Z</time></trkpt><trkpt lat="44.9768917" lon="8.3684867"><ele>180.0</ele><time>2026-04-11T15:00:35.29Z</time></trkpt><trkpt lat="44.97698" lon="8.36838"><ele>180.0</ele><time>2026-04-11T15:00:36.29Z</time></trkpt><trkpt lat="44.9770717" lon="8.3682733"><ele>180.0</ele><time>2026-04-11T15:00:37.289Z</time></trkpt><trkpt lat="44.9771667" lon="8.36815"><ele>180.0</ele><time>2026-04-11T15:00:38.29Z</time></trkpt><trkpt lat="44.97726" lon="8.3680267"><ele>180.0</ele><time>2026-04-11T15:00:39.289Z</time></trkpt><trkpt lat="44.9773533" lon="8.3679017"><ele>180.5</ele><time>2026-04-11T15:00:40.289Z</time></trkpt><trkpt lat="44.977445" lon="8.3677867"><ele>181.0</ele><time>2026-04-11T15:00:41.289Z</time></trkpt><trkpt lat="44.97755" lon="8.3676817"><ele>181.5</ele><time>2026-04-11T15:00:42.289Z</time></trkpt><trkpt lat="44.9776467" lon="8.3675733"><ele>182.0</ele><time>2026-04-11T15:00:43.29Z</time></trkpt><trkpt lat="44.9777383" lon="8.36746"><ele>182.25</ele><time>2026-04-11T15:00:44.289Z</time></trkpt><trkpt lat="44.9778217" lon="8.3673317"><ele>182.5</ele><time>2026-04-11T15:00:45.29Z</time></trkpt><trkpt lat="44.977895" lon="8.3671933"><ele>182.75</ele><time>2026-04-11T15:00:46.289Z</time></trkpt><trkpt lat="44.9779733" lon="8.3670533"><ele>183.0</ele><time>2026-04-11T15:00:47.289Z</time></trkpt><trkpt lat="44.9780517" lon="8.3668983"><ele>183.5</ele><time>2026-04-11T15:00:48.29Z</time></trkpt><trkpt lat="44.9781267" lon="8.3667483"><ele>184.0</ele><time>2026-04-11T15:00:49.289Z</time></trkpt><trkpt lat="44.9781933" lon="8.3666"><ele>184.5</ele><time>2026-04-11T15:00:50.29Z</time></trkpt><trkpt lat="44.9782633" lon="8.3664483"><ele>185.0</ele><time>2026-04-11T15:00:51.289Z</time></trkpt><trkpt lat="44.9783333" lon="8.366295"><ele>186.0</ele><time>2026-04-11T15:00:52.289Z</time></trkpt><trkpt lat="44.9783983" lon="8.36614"><ele>187.0</ele><time>2026-04-11T15:00:53.29Z</time></trkpt><trkpt lat="44.9784633" lon="8.3659617"><ele>188.0</ele><time>2026-04-11T15:00:54.289Z</time></trkpt><trkpt lat="44.9785283" lon="8.3657833"><ele>189.0</ele><time>2026-04-11T15:00:55.289Z</time></trkpt><trkpt lat="44.9785933" lon="8.3656117"><ele>189.0</ele><time>2026-04-11T15:00:56.289Z</time></trkpt><trkpt lat="44.978645" lon="8.3654533"><ele>189.0</ele><time>2026-04-11T15:00:57.289Z</time></trkpt><trkpt lat="44.9787" lon="8.3653167"><ele>189.0</ele><time>2026-04-11T15:00:58.29Z</time></trkpt><trkpt lat="44.978755" lon="8.3652033"><ele>189.0</ele><time>2026-04-11T15:00:59.289Z</time></trkpt><trkpt lat="44.978815" lon="8.3651117"><ele>189.0</ele><time>2026-04-11T15:01:00.289Z</time></trkpt><trkpt lat="44.97887" lon="8.365035"><ele>189.0</ele><time>2026-04-11T15:01:01.289Z</time></trkpt><trkpt lat="44.978925" lon="8.3649717"><ele>189.0</ele><time>2026-04-11T15:01:02.289Z</time></trkpt><trkpt lat="44.97899" lon="8.3648883"><ele>189.0</ele><time>2026-04-11T15:01:04.289Z</time></trkpt><trkpt lat="44.97902" lon="8.36477"><ele>189.0</ele><time>2026-04-11T15:01:07.289Z</time></trkpt><trkpt lat="44.9790917" lon="8.364785"><ele>189.0</ele><time>2026-04-11T15:01:49.29Z</time></trkpt><trkpt lat="44.97911" lon="8.36495"><ele>189.0</ele><time>2026-04-11T15:01:51.29Z</time></trkpt><trkpt lat="44.979135" lon="8.36506"><ele>189.0</ele><time>2026-04-11T15:01:52.289Z</time></trkpt><trkpt lat="44.979165" lon="8.3651983"><ele>189.0</ele><time>2026-04-11T15:01:53.289Z</time></trkpt><trkpt lat="44.9791983" lon="8.3653683"><ele>189.0</ele><time>2026-04-11T15:01:54.29Z</time></trkpt><trkpt lat="44.9792317" lon="8.3655533"><ele>189.0</ele><time>2026-04-11T15:01:55.29Z</time></trkpt><trkpt lat="44.9792683" lon="8.3657217"><ele>191.75</ele><time>2026-04-11T15:01:56.289Z</time></trkpt><trkpt lat="44.9793083" lon="8.3658933"><ele>194.5</ele><time>2026-04-11T15:01:57.289Z</time></trkpt><trkpt lat="44.9793533" lon="8.3660467"><ele>197.25</ele><time>2026-04-11T15:01:58.289Z</time></trkpt><trkpt lat="44.9794117" lon="8.3661783"><ele>200.0</ele><time>2026-04-11T15:01:59.289Z</time></trkpt><trkpt lat="44.9794817" lon="8.3663133"><ele>199.0</ele><time>2026-04-11T15:02:00.29Z</time></trkpt><trkpt lat="44.979555" lon="8.3664317"><ele>198.0</ele><time>2026-04-11T15:02:01.289Z</time></trkpt><trkpt lat="44.9796467" lon="8.366535"><ele>197.0</ele><time>2026-04-11T15:02:02.289Z</time></trkpt><trkpt lat="44.9797583" lon="8.3666067"><ele>196.0</ele><time>2026-04-11T15:02:03.289Z</time></trkpt><trkpt lat="44.9798717" lon="8.3666583"><ele>196.0</ele><time>2026-04-11T15:02:04.29Z</time></trkpt><trkpt lat="44.9799667" lon="8.3667217"><ele>196.0</ele><time>2026-04-11T15:02:05.289Z</time></trkpt><trkpt lat="44.9800583" lon="8.3667933"><ele>196.0</ele><time>2026-04-11T15:02:06.289Z</time></trkpt><trkpt lat="44.9801317" lon="8.3668833"><ele>196.0</ele><time>2026-04-11T15:02:07.289Z</time></trkpt><trkpt lat="44.98019" lon="8.366995"><ele>196.0</ele><time>2026-04-11T15:02:08.289Z</time></trkpt><trkpt lat="44.980245" lon="8.3671183"><ele>197.20000000000002</ele><time>2026-04-11T15:02:09.289Z</time></trkpt><trkpt lat="44.9803067" lon="8.3672683"><ele>198.4</ele><time>2026-04-11T15:02:10.29Z</time></trkpt><trkpt lat="44.980345" lon="8.367415"><ele>199.6</ele><time>2026-04-11T15:02:11.29Z</time></trkpt><trkpt lat="44.9803667" lon="8.3675583"><ele>200.8</ele><time>2026-04-11T15:02:12.289Z</time></trkpt><trkpt lat="44.9803717" lon="8.3677117"><ele>202.0</ele><time>2026-04-11T15:02:13.29Z</time></trkpt><trkpt lat="44.9803617" lon="8.36787"><ele>202.0</ele><time>2026-04-11T15:02:14.29Z</time></trkpt><trkpt lat="44.9803333" lon="8.368015"><ele>202.0</ele><time>2026-04-11T15:02:15.289Z</time></trkpt><trkpt lat="44.9803067" lon="8.3681517"><ele>202.0</ele><time>2026-04-11T15:02:16.29Z</time></trkpt><trkpt lat="44.9802967" lon="8.3682867"><ele>202.0</ele><time>2026-04-11T15:02:17.289Z</time></trkpt><trkpt lat="44.9803017" lon="8.36841"><ele>202.0</ele><time>2026-04-11T15:02:18.289Z</time></trkpt><trkpt lat="44.9803333" lon="8.368525"><ele>202.0</ele><time>2026-04-11T15:02:19.289Z</time></trkpt><trkpt lat="44.9803867" lon="8.3686383"><ele>202.0</ele><time>2026-04-11T15:02:20.289Z</time></trkpt><trkpt lat="44.9804467" lon="8.3687383"><ele>202.0</ele><time>2026-04-11T15:02:21.289Z</time></trkpt><trkpt lat="44.98052" lon="8.3688533"><ele>202.0</ele><time>2026-04-11T15:02:22.289Z</time></trkpt><trkpt lat="44.9805867" lon="8.3690017"><ele>202.0</ele><time>2026-04-11T15:02:23.289Z</time></trkpt><trkpt lat="44.9806567" lon="8.3691333"><ele>201.6</ele><time>2026-04-11T15:02:24.29Z</time></trkpt><trkpt lat="44.98072" lon="8.3692467"><ele>201.2</ele><time>2026-04-11T15:02:25.289Z</time></trkpt><trkpt lat="44.9807883" lon="8.3693567"><ele>200.8</ele><time>2026-04-11T15:02:26.29Z</time></trkpt><trkpt lat="44.9808467" lon="8.3694583"><ele>200.4</ele><time>2026-04-11T15:02:27.289Z</time></trkpt><trkpt lat="44.9808933" lon="8.3695783"><ele>200.0</ele><time>2026-04-11T15:02:28.29Z</time></trkpt><trkpt lat="44.9809133" lon="8.3697"><ele>195.6</ele><time>2026-04-11T15:02:29.289Z</time></trkpt><trkpt lat="44.9809317" lon="8.3698333"><ele>191.2</ele><time>2026-04-11T15:02:30.289Z</time></trkpt><trkpt lat="44.980935" lon="8.3699783"><ele>186.8</ele><time>2026-04-11T15:02:31.289Z</time></trkpt><trkpt lat="44.98094" lon="8.3701183"><ele>182.4</ele><time>2026-04-11T15:02:32.29Z</time></trkpt><trkpt lat="44.980945" lon="8.3702717"><ele>178.0</ele><time>2026-04-11T15:02:33.29Z</time></trkpt><trkpt lat="44.9809533" lon="8.37041"><ele>179.2</ele><time>2026-04-11T15:02:34.29Z</time></trkpt><trkpt lat="44.9809683" lon="8.3705433"><ele>180.4</ele><time>2026-04-11T15:02:35.289Z</time></trkpt><trkpt lat="44.9809867" lon="8.3706717"><ele>181.6</ele><time>2026-04-11T15:02:36.29Z</time></trkpt><trkpt lat="44.9810117" lon="8.3708033"><ele>182.79999999999998</ele><time>2026-04-11T15:02:37.289Z</time></trkpt><trkpt lat="44.9810467" lon="8.3709567"><ele>184.0</ele><time>2026-04-11T15:02:38.29Z</time></trkpt><trkpt lat="44.9810733" lon="8.3711217"><ele>184.0</ele><time>2026-04-11T15:02:39.289Z</time></trkpt><trkpt lat="44.9811017" lon="8.371295"><ele>184.0</ele><time>2026-04-11T15:02:40.289Z</time></trkpt><trkpt lat="44.98113" lon="8.3714583"><ele>184.0</ele><time>2026-04-11T15:02:41.289Z</time></trkpt><trkpt lat="44.98115" lon="8.3716367"><ele>184.0</ele><time>2026-04-11T15:02:42.289Z</time></trkpt><trkpt lat="44.9811783" lon="8.3718183"><ele>184.5</ele><time>2026-04-11T15:02:43.289Z</time></trkpt><trkpt lat="44.9812" lon="8.3719783"><ele>185.0</ele><time>2026-04-11T15:02:44.29Z</time></trkpt><trkpt lat="44.9812133" lon="8.3721117"><ele>185.5</ele><time>2026-04-11T15:02:45.29Z</time></trkpt><trkpt lat="44.9811933" lon="8.3722217"><ele>186.0</ele><time>2026-04-11T15:02:46.289Z</time></trkpt><trkpt lat="44.9811767" lon="8.3723167"><ele>186.5</ele><time>2026-04-11T15:02:47.289Z</time></trkpt><trkpt lat="44.9811433" lon="8.3724067"><ele>187.0</ele><time>2026-04-11T15:04:09.288Z</time></trkpt><trkpt lat="44.9810883" lon="8.3725133"><ele>187.0</ele><time>2026-04-11T15:04:11.289Z</time></trkpt><trkpt lat="44.9809883" lon="8.3727517"><ele>187.0</ele><time>2026-04-11T15:04:14.288Z</time></trkpt><trkpt lat="44.9809433" lon="8.37285"><ele>187.0</ele><time>2026-04-11T15:04:15.289Z</time></trkpt><trkpt lat="44.9808917" lon="8.37295"><ele>187.0</ele><time>2026-04-11T15:04:16.288Z</time></trkpt><trkpt lat="44.980835" lon="8.373045"><ele>191.0</ele><time>2026-04-11T15:04:17.289Z</time></trkpt><trkpt lat="44.9807767" lon="8.373135"><ele>195.0</ele><time>2026-04-11T15:04:18.288Z</time></trkpt><trkpt lat="44.980735" lon="8.3732317"><ele>199.0</ele><time>2026-04-11T15:04:19.288Z</time></trkpt><trkpt lat="44.9806883" lon="8.37333"><ele>203.0</ele><time>2026-04-11T15:04:20.288Z</time></trkpt><trkpt lat="44.9806417" lon="8.3734167"><ele>207.0</ele><time>2026-04-11T15:04:21.288Z</time></trkpt><trkpt lat="44.9805617" lon="8.3735667"><ele>207.0</ele><time>2026-04-11T15:04:23.288Z</time></trkpt><trkpt lat="44.9805283" lon="8.3736567"><ele>207.0</ele><time>2026-04-11T15:04:24.289Z</time></trkpt><trkpt lat="44.9804867" lon="8.3737483"><ele>207.0</ele><time>2026-04-11T15:04:25.288Z</time></trkpt><trkpt lat="44.9804467" lon="8.3738467"><ele>207.0</ele><time>2026-04-11T15:04:26.288Z</time></trkpt><trkpt lat="44.9804067" lon="8.3739417"><ele>207.0</ele><time>2026-04-11T15:04:27.289Z</time></trkpt><trkpt lat="44.980375" lon="8.3740217"><ele>207.0</ele><time>2026-04-11T15:04:28.289Z</time></trkpt><trkpt lat="44.9803117" lon="8.3741683"><ele>205.33333333333334</ele><time>2026-04-11T15:04:30.288Z</time></trkpt><trkpt lat="44.9802533" lon="8.374325"><ele>203.66666666666669</ele><time>2026-04-11T15:04:32.288Z</time></trkpt><trkpt lat="44.9802283" lon="8.37441"><ele>202.0</ele><time>2026-04-11T15:04:33.289Z</time></trkpt><trkpt lat="44.9801983" lon="8.37449"><ele>200.33333333333334</ele><time>2026-04-11T15:04:34.288Z</time></trkpt><trkpt lat="44.9801533" lon="8.3745567"><ele>198.66666666666669</ele><time>2026-04-11T15:04:35.288Z</time></trkpt><trkpt lat="44.9800683" lon="8.3746667"><ele>197.0</ele><time>2026-04-11T15:04:37.289Z</time></trkpt><trkpt lat="44.97998" lon="8.3747517"><ele>197.00000000000003</ele><time>2026-04-11T15:04:39.288Z</time></trkpt><trkpt lat="44.979925" lon="8.3748367"><ele>197.0</ele><time>2026-04-11T15:04:41.288Z</time></trkpt><trkpt lat="44.9798917" lon="8.374915"><ele>197.0</ele><time>2026-04-11T15:04:44.289Z</time></trkpt><trkpt lat="44.9798667" lon="8.375015"><ele>197.0</ele><time>2026-04-11T15:04:48.288Z</time></trkpt><trkpt lat="44.979865" lon="8.3751583"><ele>197.00000000000003</ele><time>2026-04-11T15:04:52.288Z</time></trkpt><trkpt lat="44.9798767" lon="8.3753283"><ele>197.0</ele><time>2026-04-11T15:04:54.288Z</time></trkpt><trkpt lat="44.97988" lon="8.37543"><ele>197.83333333333334</ele><time>2026-04-11T15:04:55.289Z</time></trkpt><trkpt lat="44.9798767" lon="8.37553"><ele>198.66666666666669</ele><time>2026-04-11T15:04:56.289Z</time></trkpt><trkpt lat="44.9798717" lon="8.37563"><ele>199.5</ele><time>2026-04-11T15:04:57.289Z</time></trkpt><trkpt lat="44.97986" lon="8.3757367"><ele>200.33333333333331</ele><time>2026-04-11T15:04:58.288Z</time></trkpt><trkpt lat="44.9798517" lon="8.3758433"><ele>201.16666666666666</ele><time>2026-04-11T15:04:59.288Z</time></trkpt><trkpt lat="44.9798417" lon="8.37595"><ele>202.0</ele><time>2026-04-11T15:05:00.288Z</time></trkpt><trkpt lat="44.97983" lon="8.3760617"><ele>202.0</ele><time>2026-04-11T15:05:01.288Z</time></trkpt><trkpt lat="44.9798133" lon="8.3761783"><ele>202.0</ele><time>2026-04-11T15:05:02.288Z</time></trkpt><trkpt lat="44.9798067" lon="8.3763033"><ele>202.0</ele><time>2026-04-11T15:05:03.289Z</time></trkpt><trkpt lat="44.9797967" lon="8.3764433"><ele>202.0</ele><time>2026-04-11T15:05:04.288Z</time></trkpt><trkpt lat="44.9797933" lon="8.3765733"><ele>202.0</ele><time>2026-04-11T15:05:05.289Z</time></trkpt><trkpt lat="44.9797783" lon="8.3767067"><ele>204.39999999999998</ele><time>2026-04-11T15:05:06.288Z</time></trkpt><trkpt lat="44.979765" lon="8.37685"><ele>206.79999999999998</ele><time>2026-04-11T15:05:07.288Z</time></trkpt><trkpt lat="44.97976" lon="8.37699"><ele>209.2</ele><time>2026-04-11T15:05:08.288Z</time></trkpt><trkpt lat="44.9797483" lon="8.37714"><ele>211.6</ele><time>2026-04-11T15:05:09.288Z</time></trkpt><trkpt lat="44.9797517" lon="8.377265"><ele>214.0</ele><time>2026-04-11T15:05:10.288Z</time></trkpt><trkpt lat="44.9797683" lon="8.3774"><ele>215.39999999999998</ele><time>2026-04-11T15:05:11.288Z</time></trkpt><trkpt lat="44.979785" lon="8.3775333"><ele>216.79999999999998</ele><time>2026-04-11T15:05:12.289Z</time></trkpt><trkpt lat="44.9797817" lon="8.3777733"><ele>218.20000000000002</ele><time>2026-04-11T15:05:14.288Z</time></trkpt><trkpt lat="44.9797867" lon="8.377905"><ele>219.60000000000002</ele><time>2026-04-11T15:05:15.289Z</time></trkpt><trkpt lat="44.9797917" lon="8.37803"><ele>221.0</ele><time>2026-04-11T15:05:16.288Z</time></trkpt><trkpt lat="44.97979" lon="8.3781683"><ele>221.20000000000002</ele><time>2026-04-11T15:05:17.288Z</time></trkpt><trkpt lat="44.9797833" lon="8.378325"><ele>221.40000000000003</ele><time>2026-04-11T15:05:18.288Z</time></trkpt><trkpt lat="44.9797867" lon="8.37847"><ele>221.6</ele><time>2026-04-11T15:05:19.288Z</time></trkpt><trkpt lat="44.9797917" lon="8.3785983"><ele>221.8</ele><time>2026-04-11T15:05:20.288Z</time></trkpt><trkpt lat="44.97979" lon="8.3787183"><ele>222.0</ele><time>2026-04-11T15:05:21.288Z</time></trkpt><trkpt lat="44.97979" lon="8.3788333"><ele>222.57142857142856</ele><time>2026-04-11T15:05:22.288Z</time></trkpt><trkpt lat="44.97979" lon="8.3789467"><ele>223.14285714285717</ele><time>2026-04-11T15:05:23.288Z</time></trkpt><trkpt lat="44.9797933" lon="8.379045"><ele>223.71428571428572</ele><time>2026-04-11T15:05:24.289Z</time></trkpt><trkpt lat="44.9797983" lon="8.3791433"><ele>224.28571428571428</ele><time>2026-04-11T15:05:25.288Z</time></trkpt><trkpt lat="44.9798033" lon="8.379245"><ele>224.85714285714283</ele><time>2026-04-11T15:05:26.288Z</time></trkpt><trkpt lat="44.97981" lon="8.37935"><ele>225.42857142857144</ele><time>2026-04-11T15:05:27.288Z</time></trkpt><trkpt lat="44.9798167" lon="8.3794583"><ele>226.0</ele><time>2026-04-11T15:05:28.289Z</time></trkpt><trkpt lat="44.9798317" lon="8.3795683"><ele>225.99999999999997</ele><time>2026-04-11T15:05:29.288Z</time></trkpt><trkpt lat="44.979845" lon="8.379675"><ele>226.0</ele><time>2026-04-11T15:05:30.288Z</time></trkpt><trkpt lat="44.9798567" lon="8.379785"><ele>226.0</ele><time>2026-04-11T15:05:31.288Z</time></trkpt><trkpt lat="44.9798667" lon="8.3798883"><ele>226.0</ele><time>2026-04-11T15:05:32.288Z</time></trkpt><trkpt lat="44.9798733" lon="8.3799917"><ele>225.99999999999997</ele><time>2026-04-11T15:05:33.288Z</time></trkpt><trkpt lat="44.9798883" lon="8.3801017"><ele>226.0</ele><time>2026-04-11T15:05:34.288Z</time></trkpt><trkpt lat="44.9799083" lon="8.380205"><ele>226.16666666666666</ele><time>2026-04-11T15:05:35.289Z</time></trkpt><trkpt lat="44.9799283" lon="8.3803067"><ele>226.33333333333331</ele><time>2026-04-11T15:05:36.288Z</time></trkpt><trkpt lat="44.9799517" lon="8.3804033"><ele>226.5</ele><time>2026-04-11T15:05:37.289Z</time></trkpt><trkpt lat="44.9799717" lon="8.3804983"><ele>226.66666666666669</ele><time>2026-04-11T15:05:38.288Z</time></trkpt><trkpt lat="44.9800067" lon="8.3806167"><ele>226.83333333333334</ele><time>2026-04-11T15:05:39.288Z</time></trkpt><trkpt lat="44.980035" lon="8.3807133"><ele>227.0</ele><time>2026-04-11T15:05:40.288Z</time></trkpt><trkpt lat="44.9800633" lon="8.3808067"><ele>225.00000000000003</ele><time>2026-04-11T15:05:41.288Z</time></trkpt><trkpt lat="44.9800967" lon="8.3809067"><ele>223.0</ele><time>2026-04-11T15:05:42.288Z</time></trkpt><trkpt lat="44.9801367" lon="8.3810117"><ele>221.0</ele><time>2026-04-11T15:05:43.289Z</time></trkpt><trkpt lat="44.9801733" lon="8.3811133"><ele>219.0</ele><time>2026-04-11T15:05:44.289Z</time></trkpt><trkpt lat="44.9802017" lon="8.381215"><ele>217.00000000000003</ele><time>2026-04-11T15:05:45.289Z</time></trkpt><trkpt lat="44.98023" lon="8.3813117"><ele>215.0</ele><time>2026-04-11T15:05:46.288Z</time></trkpt><trkpt lat="44.9802583" lon="8.3814033"><ele>215.0</ele><time>2026-04-11T15:05:47.289Z</time></trkpt><trkpt lat="44.9802817" lon="8.3814933"><ele>215.0</ele><time>2026-04-11T15:05:48.288Z</time></trkpt><trkpt lat="44.98031" lon="8.3815767"><ele>215.0</ele><time>2026-04-11T15:05:49.288Z</time></trkpt><trkpt lat="44.9803383" lon="8.3816667"><ele>215.0</ele><time>2026-04-11T15:05:50.288Z</time></trkpt><trkpt lat="44.9803717" lon="8.3817733"><ele>215.0</ele><time>2026-04-11T15:05:51.288Z</time></trkpt><trkpt lat="44.9804017" lon="8.38187"><ele>215.0</ele><time>2026-04-11T15:05:52.288Z</time></trkpt><trkpt lat="44.9804367" lon="8.38197"><ele>215.0</ele><time>2026-04-11T15:05:53.288Z</time></trkpt><trkpt lat="44.9804633" lon="8.3820817"><ele>216.16666666666669</ele><time>2026-04-11T15:05:54.288Z</time></trkpt><trkpt lat="44.9804933" lon="8.382205"><ele>217.33333333333334</ele><time>2026-04-11T15:05:55.289Z</time></trkpt><trkpt lat="44.980525" lon="8.3823133"><ele>218.5</ele><time>2026-04-11T15:05:56.288Z</time></trkpt><trkpt lat="44.9805567" lon="8.3824283"><ele>219.66666666666669</ele><time>2026-04-11T15:05:57.288Z</time></trkpt><trkpt lat="44.9805867" lon="8.3825317"><ele>220.83333333333334</ele><time>2026-04-11T15:05:58.288Z</time></trkpt><trkpt lat="44.9806083" lon="8.3826533"><ele>222.0</ele><time>2026-04-11T15:05:59.288Z</time></trkpt><trkpt lat="44.9806333" lon="8.3827667"><ele>222.0</ele><time>2026-04-11T15:06:00.288Z</time></trkpt><trkpt lat="44.9806633" lon="8.38287"><ele>222.0</ele><time>2026-04-11T15:06:01.288Z</time></trkpt><trkpt lat="44.9806833" lon="8.3829717"><ele>222.0</ele><time>2026-04-11T15:06:02.288Z</time></trkpt><trkpt lat="44.9807033" lon="8.3830733"><ele>222.0</ele><time>2026-04-11T15:06:03.289Z</time></trkpt><trkpt lat="44.9807283" lon="8.3831683"><ele>222.0</ele><time>2026-04-11T15:06:04.289Z</time></trkpt><trkpt lat="44.9807567" lon="8.383315"><ele>222.0</ele><time>2026-04-11T15:06:06.288Z</time></trkpt><trkpt lat="44.9808183" lon="8.383425"><ele>220.16666666666666</ele><time>2026-04-11T15:06:08.289Z</time></trkpt><trkpt lat="44.9809217" lon="8.3835383"><ele>218.33333333333331</ele><time>2026-04-11T15:06:10.288Z</time></trkpt><trkpt lat="44.9809833" lon="8.3835917"><ele>216.5</ele><time>2026-04-11T15:06:11.289Z</time></trkpt><trkpt lat="44.981045" lon="8.383645"><ele>214.66666666666666</ele><time>2026-04-11T15:06:12.288Z</time></trkpt><trkpt lat="44.9810983" lon="8.383695"><ele>212.83333333333331</ele><time>2026-04-11T15:06:13.288Z</time></trkpt><trkpt lat="44.9811883" lon="8.38378"><ele>211.0</ele><time>2026-04-11T15:06:15.289Z</time></trkpt><trkpt lat="44.9812617" lon="8.3838433"><ele>212.8</ele><time>2026-04-11T15:06:17.288Z</time></trkpt><trkpt lat="44.9813517" lon="8.3838667"><ele>214.60000000000002</ele><time>2026-04-11T15:06:19.288Z</time></trkpt><trkpt lat="44.98146" lon="8.3839083"><ele>216.4</ele><time>2026-04-11T15:06:21.289Z</time></trkpt><trkpt lat="44.9815567" lon="8.3840183"><ele>218.2</ele><time>2026-04-11T15:06:23.289Z</time></trkpt><trkpt lat="44.9815967" lon="8.3841083"><ele>220.0</ele><time>2026-04-11T15:06:24.289Z</time></trkpt><trkpt lat="44.9816267" lon="8.3842017"><ele>219.99999999999997</ele><time>2026-04-11T15:06:25.288Z</time></trkpt><trkpt lat="44.9816667" lon="8.384295"><ele>220.0</ele><time>2026-04-11T15:06:26.289Z</time></trkpt><trkpt lat="44.9816917" lon="8.3843867"><ele>220.0</ele><time>2026-04-11T15:06:27.288Z</time></trkpt><trkpt lat="44.981725" lon="8.384475"><ele>220.0</ele><time>2026-04-11T15:06:28.289Z</time></trkpt><trkpt lat="44.9817533" lon="8.384565"><ele>219.99999999999997</ele><time>2026-04-11T15:06:29.289Z</time></trkpt><trkpt lat="44.98178" lon="8.384655"><ele>220.0</ele><time>2026-04-11T15:06:30.288Z</time></trkpt><trkpt lat="44.9818033" lon="8.38483"><ele>215.7142857142857</ele><time>2026-04-11T15:06:32.288Z</time></trkpt><trkpt lat="44.98183" lon="8.3849233"><ele>211.42857142857142</ele><time>2026-04-11T15:06:33.288Z</time></trkpt><trkpt lat="44.9818733" lon="8.3850133"><ele>207.14285714285714</ele><time>2026-04-11T15:06:34.289Z</time></trkpt><trkpt lat="44.9819183" lon="8.3851033"><ele>202.85714285714283</ele><time>2026-04-11T15:06:35.289Z</time></trkpt><trkpt lat="44.9819633" lon="8.3851883"><ele>198.57142857142858</ele><time>2026-04-11T15:06:36.288Z</time></trkpt><trkpt lat="44.982005" lon="8.3852783"><ele>194.28571428571428</ele><time>2026-04-11T15:06:37.288Z</time></trkpt><trkpt lat="44.9820317" lon="8.3853633"><ele>190.0</ele><time>2026-04-11T15:06:38.288Z</time></trkpt><trkpt lat="44.9820667" lon="8.3854583"><ele>191.16666666666669</ele><time>2026-04-11T15:06:39.288Z</time></trkpt><trkpt lat="44.98209" lon="8.38556"><ele>192.33333333333334</ele><time>2026-04-11T15:06:40.288Z</time></trkpt><trkpt lat="44.9821067" lon="8.3856667"><ele>193.5</ele><time>2026-04-11T15:06:41.288Z</time></trkpt><trkpt lat="44.9821217" lon="8.3857667"><ele>194.66666666666669</ele><time>2026-04-11T15:06:42.287Z</time></trkpt><trkpt lat="44.9821433" lon="8.3858633"><ele>195.83333333333334</ele><time>2026-04-11T15:06:43.288Z</time></trkpt><trkpt lat="44.982185" lon="8.3859583"><ele>197.0</ele><time>2026-04-11T15:06:44.287Z</time></trkpt><trkpt lat="44.9822183" lon="8.3860617"><ele>197.0</ele><time>2026-04-11T15:06:45.287Z</time></trkpt><trkpt lat="44.9822467" lon="8.3861567"><ele>197.0</ele><time>2026-04-11T15:06:46.287Z</time></trkpt><trkpt lat="44.982275" lon="8.3862367"><ele>197.0</ele><time>2026-04-11T15:06:47.287Z</time></trkpt><trkpt lat="44.9823117" lon="8.3863183"><ele>197.0</ele><time>2026-04-11T15:06:48.287Z</time></trkpt><trkpt lat="44.9823483" lon="8.38643"><ele>197.0</ele><time>2026-04-11T15:06:50.287Z</time></trkpt><trkpt lat="44.982355" lon="8.3865417"><ele>197.0</ele><time>2026-04-11T15:06:54.287Z</time></trkpt><trkpt lat="44.9823867" lon="8.3866317"><ele>197.0</ele><time>2026-04-11T15:06:56.287Z</time></trkpt><trkpt lat="44.9823817" lon="8.3868467"><ele>197.6</ele><time>2026-04-11T15:07:33.287Z</time></trkpt><trkpt lat="44.9823783" lon="8.3870333"><ele>198.2</ele><time>2026-04-11T15:07:35.287Z</time></trkpt><trkpt lat="44.98237" lon="8.3871433"><ele>198.8</ele><time>2026-04-11T15:07:36.288Z</time></trkpt><trkpt lat="44.9823617" lon="8.3872567"><ele>199.4</ele><time>2026-04-11T15:07:37.288Z</time></trkpt><trkpt lat="44.982355" lon="8.3873767"><ele>200.0</ele><time>2026-04-11T15:07:38.288Z</time></trkpt><trkpt lat="44.9823583" lon="8.3875117"><ele>200.0</ele><time>2026-04-11T15:07:39.287Z</time></trkpt><trkpt lat="44.982345" lon="8.3876633"><ele>200.0</ele><time>2026-04-11T15:07:40.287Z</time></trkpt><trkpt lat="44.9823383" lon="8.3878167"><ele>200.0</ele><time>2026-04-11T15:07:41.287Z</time></trkpt><trkpt lat="44.98233" lon="8.3879683"><ele>200.0</ele><time>2026-04-11T15:07:42.287Z</time></trkpt><trkpt lat="44.9823167" lon="8.3881167"><ele>200.0</ele><time>2026-04-11T15:07:43.287Z</time></trkpt><trkpt lat="44.9823017" lon="8.3882617"><ele>199.8</ele><time>2026-04-11T15:07:44.287Z</time></trkpt><trkpt lat="44.9822917" lon="8.3884017"><ele>199.6</ele><time>2026-04-11T15:07:45.287Z</time></trkpt><trkpt lat="44.9822817" lon="8.3885433"><ele>199.39999999999998</ele><time>2026-04-11T15:07:46.287Z</time></trkpt><trkpt lat="44.9822717" lon="8.3886883"><ele>199.2</ele><time>2026-04-11T15:07:47.287Z</time></trkpt><trkpt lat="44.9822567" lon="8.3888333"><ele>199.0</ele><time>2026-04-11T15:07:48.287Z</time></trkpt><trkpt lat="44.98225" lon="8.3889783"><ele>198.0</ele><time>2026-04-11T15:07:49.287Z</time></trkpt><trkpt lat="44.9822467" lon="8.38914"><ele>197.0</ele><time>2026-04-11T15:07:50.287Z</time></trkpt><trkpt lat="44.9822433" lon="8.389305"><ele>196.0</ele><time>2026-04-11T15:07:51.287Z</time></trkpt><trkpt lat="44.98224" lon="8.38946"><ele>195.0</ele><time>2026-04-11T15:07:52.288Z</time></trkpt><trkpt lat="44.9822367" lon="8.3896233"><ele>194.6</ele><time>2026-04-11T15:07:53.288Z</time></trkpt><trkpt lat="44.98223" lon="8.38979"><ele>194.2</ele><time>2026-04-11T15:07:54.287Z</time></trkpt><trkpt lat="44.9822267" lon="8.38995"><ele>193.8</ele><time>2026-04-11T15:07:55.287Z</time></trkpt><trkpt lat="44.982225" lon="8.3901033"><ele>193.4</ele><time>2026-04-11T15:07:56.288Z</time></trkpt><trkpt lat="44.9822217" lon="8.3902567"><ele>193.0</ele><time>2026-04-11T15:07:57.287Z</time></trkpt><trkpt lat="44.9822167" lon="8.390405"><ele>193.2</ele><time>2026-04-11T15:07:58.287Z</time></trkpt><trkpt lat="44.9822183" lon="8.390545"><ele>193.4</ele><time>2026-04-11T15:07:59.288Z</time></trkpt><trkpt lat="44.9822267" lon="8.3906783"><ele>193.6</ele><time>2026-04-11T15:08:00.287Z</time></trkpt><trkpt lat="44.9822567" lon="8.3907867"><ele>193.79999999999998</ele><time>2026-04-11T15:08:01.288Z</time></trkpt><trkpt lat="44.9823167" lon="8.390875"><ele>194.0</ele><time>2026-04-11T15:08:02.287Z</time></trkpt><trkpt lat="44.98239" lon="8.3909467"><ele>194.0</ele><time>2026-04-11T15:08:03.287Z</time></trkpt><trkpt lat="44.982485" lon="8.3909917"><ele>194.0</ele><time>2026-04-11T15:08:04.288Z</time></trkpt><trkpt lat="44.9825967" lon="8.39104"><ele>194.0</ele><time>2026-04-11T15:08:05.288Z</time></trkpt><trkpt lat="44.9827083" lon="8.3910883"><ele>194.0</ele><time>2026-04-11T15:08:06.288Z</time></trkpt><trkpt lat="44.982815" lon="8.391135"><ele>194.0</ele><time>2026-04-11T15:08:07.288Z</time></trkpt><trkpt lat="44.98292" lon="8.3911733"><ele>195.0</ele><time>2026-04-11T15:08:08.287Z</time></trkpt><trkpt lat="44.9830217" lon="8.391215"><ele>196.0</ele><time>2026-04-11T15:08:09.287Z</time></trkpt><trkpt lat="44.98313" lon="8.3912433"><ele>197.0</ele><time>2026-04-11T15:08:10.288Z</time></trkpt><trkpt lat="44.9832333" lon="8.391285"><ele>198.0</ele><time>2026-04-11T15:08:11.288Z</time></trkpt><trkpt lat="44.98335" lon="8.3913167"><ele>199.0</ele><time>2026-04-11T15:08:12.287Z</time></trkpt><trkpt lat="44.9834717" lon="8.3913467"><ele>203.5</ele><time>2026-04-11T15:08:13.287Z</time></trkpt><trkpt lat="44.9835967" lon="8.3913717"><ele>208.0</ele><time>2026-04-11T15:08:14.287Z</time></trkpt><trkpt lat="44.983725" lon="8.3913917"><ele>212.5</ele><time>2026-04-11T15:08:15.288Z</time></trkpt><trkpt lat="44.9838567" lon="8.3914267"><ele>217.0</ele><time>2026-04-11T15:08:16.287Z</time></trkpt><trkpt lat="44.9839983" lon="8.3914567"><ele>217.0</ele><time>2026-04-11T15:08:17.287Z</time></trkpt><trkpt lat="44.9841383" lon="8.3914783"><ele>217.0</ele><time>2026-04-11T15:08:18.287Z</time></trkpt><trkpt lat="44.9842817" lon="8.3914783"><ele>217.0</ele><time>2026-04-11T15:08:19.287Z</time></trkpt><trkpt lat="44.984415" lon="8.3914783"><ele>217.0</ele><time>2026-04-11T15:08:20.287Z</time></trkpt><trkpt lat="44.98455" lon="8.3914733"><ele>218.5</ele><time>2026-04-11T15:08:21.287Z</time></trkpt><trkpt lat="44.9846817" lon="8.3914817"><ele>220.0</ele><time>2026-04-11T15:08:22.287Z</time></trkpt><trkpt lat="44.9848067" lon="8.3914833"><ele>221.5</ele><time>2026-04-11T15:08:23.287Z</time></trkpt><trkpt lat="44.9849233" lon="8.3914817"><ele>223.0</ele><time>2026-04-11T15:08:24.288Z</time></trkpt><trkpt lat="44.9850383" lon="8.3914717"><ele>225.0</ele><time>2026-04-11T15:08:25.287Z</time></trkpt><trkpt lat="44.9851517" lon="8.3914567"><ele>227.0</ele><time>2026-04-11T15:08:26.287Z</time></trkpt><trkpt lat="44.9852617" lon="8.3914283"><ele>229.0</ele><time>2026-04-11T15:08:27.287Z</time></trkpt><trkpt lat="44.98537" lon="8.391435"><ele>231.0</ele><time>2026-04-11T15:08:28.287Z</time></trkpt><trkpt lat="44.985465" lon="8.39145"><ele>233.0</ele><time>2026-04-11T15:08:29.287Z</time></trkpt><trkpt lat="44.9855383" lon="8.39149"><ele>233.0</ele><time>2026-04-11T15:08:30.287Z</time></trkpt><trkpt lat="44.9856017" lon="8.3915367"><ele>233.0</ele><time>2026-04-11T15:08:31.287Z</time></trkpt><trkpt lat="44.9856317" lon="8.391705"><ele>233.0</ele><time>2026-04-11T15:08:33.288Z</time></trkpt><trkpt lat="44.9856083" lon="8.3918017"><ele>233.0</ele><time>2026-04-11T15:08:34.287Z</time></trkpt><trkpt lat="44.9855717" lon="8.39188"><ele>233.0</ele><time>2026-04-11T15:08:35.287Z</time></trkpt><trkpt lat="44.98547" lon="8.3919833"><ele>233.00000000000003</ele><time>2026-04-11T15:08:37.287Z</time></trkpt><trkpt lat="44.9854033" lon="8.3920233"><ele>233.0</ele><time>2026-04-11T15:08:38.288Z</time></trkpt><trkpt lat="44.9853033" lon="8.3921083"><ele>233.0</ele><time>2026-04-11T15:08:40.287Z</time></trkpt><trkpt lat="44.98525" lon="8.39222"><ele>233.0</ele><time>2026-04-11T15:08:42.287Z</time></trkpt><trkpt lat="44.98523" lon="8.3923217"><ele>233.00000000000003</ele><time>2026-04-11T15:08:44.287Z</time></trkpt><trkpt lat="44.9852117" lon="8.3924417"><ele>233.0</ele><time>2026-04-11T15:08:48.287Z</time></trkpt><trkpt lat="44.9852283" lon="8.39256"><ele>233.60000000000002</ele><time>2026-04-11T15:09:19.288Z</time></trkpt><trkpt lat="44.985245" lon="8.3926667"><ele>234.20000000000002</ele><time>2026-04-11T15:09:22.288Z</time></trkpt><trkpt lat="44.98524" lon="8.3928117"><ele>234.8</ele><time>2026-04-11T15:09:31.287Z</time></trkpt><trkpt lat="44.98527" lon="8.3929183"><ele>235.4</ele><time>2026-04-11T15:09:33.288Z</time></trkpt><trkpt lat="44.9853167" lon="8.39305"><ele>236.0</ele><time>2026-04-11T15:09:35.287Z</time></trkpt><trkpt lat="44.9853833" lon="8.3932383"><ele>236.0</ele><time>2026-04-11T15:09:37.287Z</time></trkpt><trkpt lat="44.9854517" lon="8.3934383"><ele>236.00000000000003</ele><time>2026-04-11T15:09:39.288Z</time></trkpt><trkpt lat="44.9854967" lon="8.39353"><ele>236.00000000000003</ele><time>2026-04-11T15:09:40.287Z</time></trkpt><trkpt lat="44.985535" lon="8.3936433"><ele>236.0</ele><time>2026-04-11T15:09:41.288Z</time></trkpt><trkpt lat="44.9855867" lon="8.3937417"><ele>236.0</ele><time>2026-04-11T15:09:42.288Z</time></trkpt><trkpt lat="44.9856383" lon="8.3938433"><ele>234.50000000000003</ele><time>2026-04-11T15:09:43.287Z</time></trkpt><trkpt lat="44.985695" lon="8.3939517"><ele>233.0</ele><time>2026-04-11T15:09:44.287Z</time></trkpt><trkpt lat="44.9857417" lon="8.39405"><ele>231.5</ele><time>2026-04-11T15:09:45.287Z</time></trkpt><trkpt lat="44.985785" lon="8.394155"><ele>230.0</ele><time>2026-04-11T15:09:46.288Z</time></trkpt><trkpt lat="44.98583" lon="8.394255"><ele>228.50000000000003</ele><time>2026-04-11T15:09:47.287Z</time></trkpt><trkpt lat="44.985875" lon="8.3943617"><ele>227.0</ele><time>2026-04-11T15:09:48.287Z</time></trkpt><trkpt lat="44.9859233" lon="8.3944783"><ele>227.0</ele><time>2026-04-11T15:09:49.288Z</time></trkpt><trkpt lat="44.985975" lon="8.3946067"><ele>227.0</ele><time>2026-04-11T15:09:50.287Z</time></trkpt><trkpt lat="44.9860217" lon="8.3947333"><ele>227.0</ele><time>2026-04-11T15:09:51.287Z</time></trkpt><trkpt lat="44.9860567" lon="8.394865"><ele>227.0</ele><time>2026-04-11T15:09:52.287Z</time></trkpt><trkpt lat="44.9861033" lon="8.3949783"><ele>227.0</ele><time>2026-04-11T15:09:53.287Z</time></trkpt><trkpt lat="44.9861483" lon="8.3951067"><ele>225.0</ele><time>2026-04-11T15:09:54.287Z</time></trkpt><trkpt lat="44.986185" lon="8.3952367"><ele>223.0</ele><time>2026-04-11T15:09:55.288Z</time></trkpt><trkpt lat="44.986225" lon="8.3953667"><ele>221.0</ele><time>2026-04-11T15:09:56.288Z</time></trkpt><trkpt lat="44.986265" lon="8.3955"><ele>219.0</ele><time>2026-04-11T15:09:57.288Z</time></trkpt><trkpt lat="44.986295" lon="8.3956267"><ele>217.0</ele><time>2026-04-11T15:09:58.288Z</time></trkpt><trkpt lat="44.9863267" lon="8.39574"><ele>215.83333333333331</ele><time>2026-04-11T15:09:59.287Z</time></trkpt><trkpt lat="44.9863683" lon="8.3958483"><ele>214.66666666666666</ele><time>2026-04-11T15:10:00.287Z</time></trkpt><trkpt lat="44.9864167" lon="8.395955"><ele>213.5</ele><time>2026-04-11T15:10:01.287Z</time></trkpt><trkpt lat="44.98648" lon="8.3960567"><ele>212.33333333333331</ele><time>2026-04-11T15:10:02.287Z</time></trkpt><trkpt lat="44.9865483" lon="8.3961383"><ele>211.16666666666666</ele><time>2026-04-11T15:10:03.287Z</time></trkpt><trkpt lat="44.9866133" lon="8.396205"><ele>210.0</ele><time>2026-04-11T15:10:04.287Z</time></trkpt><trkpt lat="44.9866733" lon="8.396285"><ele>211.0</ele><time>2026-04-11T15:10:05.287Z</time></trkpt><trkpt lat="44.9867283" lon="8.396375"><ele>212.0</ele><time>2026-04-11T15:10:06.287Z</time></trkpt><trkpt lat="44.986775" lon="8.3964833"><ele>213.0</ele><time>2026-04-11T15:10:07.287Z</time></trkpt><trkpt lat="44.9868" lon="8.3966133"><ele>214.0</ele><time>2026-04-11T15:10:08.287Z</time></trkpt><trkpt lat="44.986805" lon="8.3967633"><ele>215.0</ele><time>2026-04-11T15:10:09.287Z</time></trkpt><trkpt lat="44.9868167" lon="8.3969067"><ele>215.00000000000003</ele><time>2026-04-11T15:10:10.288Z</time></trkpt><trkpt lat="44.98683" lon="8.3970267"><ele>215.0</ele><time>2026-04-11T15:10:11.287Z</time></trkpt><trkpt lat="44.9868433" lon="8.397135"><ele>215.0</ele><time>2026-04-11T15:10:12.287Z</time></trkpt><trkpt lat="44.9868567" lon="8.39724"><ele>215.0</ele><time>2026-04-11T15:10:13.287Z</time></trkpt><trkpt lat="44.9868717" lon="8.39735"><ele>215.00000000000003</ele><time>2026-04-11T15:10:14.288Z</time></trkpt><trkpt lat="44.9869" lon="8.3974717"><ele>215.0</ele><time>2026-04-11T15:10:15.287Z</time></trkpt><trkpt lat="44.9869333" lon="8.3976017"><ele>214.6</ele><time>2026-04-11T15:10:16.287Z</time></trkpt><trkpt lat="44.9869667" lon="8.39773"><ele>214.2</ele><time>2026-04-11T15:10:17.287Z</time></trkpt><trkpt lat="44.987005" lon="8.397865"><ele>213.8</ele><time>2026-04-11T15:10:18.287Z</time></trkpt><trkpt lat="44.9870517" lon="8.3980083"><ele>213.4</ele><time>2026-04-11T15:10:19.288Z</time></trkpt><trkpt lat="44.9871033" lon="8.398135"><ele>213.0</ele><time>2026-04-11T15:10:20.288Z</time></trkpt><trkpt lat="44.987145" lon="8.39825"><ele>212.66666666666666</ele><time>2026-04-11T15:10:21.287Z</time></trkpt><trkpt lat="44.9871833" lon="8.3983517"><ele>212.33333333333331</ele><time>2026-04-11T15:10:22.287Z</time></trkpt><trkpt lat="44.98722" lon="8.3984317"><ele>212.0</ele><time>2026-04-11T15:10:23.287Z</time></trkpt><trkpt lat="44.9872833" lon="8.39855"><ele>211.66666666666666</ele><time>2026-04-11T15:10:25.288Z</time></trkpt><trkpt lat="44.9873167" lon="8.3986483"><ele>211.33333333333331</ele><time>2026-04-11T15:10:27.286Z</time></trkpt><trkpt lat="44.9872783" lon="8.398755"><ele>211.0</ele><time>2026-04-11T15:10:30.286Z</time></trkpt><trkpt lat="44.9872083" lon="8.3988833"><ele>210.49999999999997</ele><time>2026-04-11T15:10:32.286Z</time></trkpt><trkpt lat="44.9871783" lon="8.398965"><ele>210.0</ele><time>2026-04-11T15:10:33.286Z</time></trkpt><trkpt lat="44.9871533" lon="8.39905"><ele>209.5</ele><time>2026-04-11T15:10:34.286Z</time></trkpt><trkpt lat="44.9870983" lon="8.3991467"><ele>209.0</ele><time>2026-04-11T15:10:35.286Z</time></trkpt><trkpt lat="44.987035" lon="8.3992317"><ele>208.49999999999997</ele><time>2026-04-11T15:10:36.286Z</time></trkpt><trkpt lat="44.9869617" lon="8.399315"><ele>208.0</ele><time>2026-04-11T15:10:37.287Z</time></trkpt><trkpt lat="44.98688" lon="8.3993967"><ele>208.0</ele><time>2026-04-11T15:10:38.286Z</time></trkpt><trkpt lat="44.9867817" lon="8.39949"><ele>208.0</ele><time>2026-04-11T15:10:39.286Z</time></trkpt><trkpt lat="44.9866767" lon="8.399585"><ele>208.0</ele><time>2026-04-11T15:10:40.287Z</time></trkpt><trkpt lat="44.986565" lon="8.399675"><ele>208.0</ele><time>2026-04-11T15:10:41.286Z</time></trkpt><trkpt lat="44.9864483" lon="8.39975"><ele>210.25</ele><time>2026-04-11T15:10:42.286Z</time></trkpt><trkpt lat="44.9863267" lon="8.39981"><ele>212.5</ele><time>2026-04-11T15:10:43.286Z</time></trkpt><trkpt lat="44.9861983" lon="8.3998733"><ele>214.75</ele><time>2026-04-11T15:10:44.287Z</time></trkpt><trkpt lat="44.9860767" lon="8.3999317"><ele>217.0</ele><time>2026-04-11T15:10:45.286Z</time></trkpt><trkpt lat="44.98594" lon="8.4"><ele>217.75</ele><time>2026-04-11T15:10:46.287Z</time></trkpt><trkpt lat="44.9858067" lon="8.4000583"><ele>218.5</ele><time>2026-04-11T15:10:47.286Z</time></trkpt><trkpt lat="44.98567" lon="8.4001167"><ele>219.25</ele><time>2026-04-11T15:10:48.286Z</time></trkpt><trkpt lat="44.9855267" lon="8.400175"><ele>220.0</ele><time>2026-04-11T15:10:49.287Z</time></trkpt><trkpt lat="44.9853817" lon="8.40024"><ele>220.0</ele><time>2026-04-11T15:10:50.286Z</time></trkpt><trkpt lat="44.9852333" lon="8.4003033"><ele>220.0</ele><time>2026-04-11T15:10:51.287Z</time></trkpt><trkpt lat="44.985085" lon="8.4003667"><ele>220.0</ele><time>2026-04-11T15:10:52.287Z</time></trkpt><trkpt lat="44.98494" lon="8.4004317"><ele>219.75</ele><time>2026-04-11T15:10:53.286Z</time></trkpt><trkpt lat="44.9847967" lon="8.4004867"><ele>219.5</ele><time>2026-04-11T15:10:54.286Z</time></trkpt><trkpt lat="44.9846583" lon="8.4005217"><ele>219.25</ele><time>2026-04-11T15:10:55.286Z</time></trkpt><trkpt lat="44.98452" lon="8.4005533"><ele>219.0</ele><time>2026-04-11T15:10:56.286Z</time></trkpt><trkpt lat="44.9843767" lon="8.400565"><ele>219.0</ele><time>2026-04-11T15:10:57.286Z</time></trkpt><trkpt lat="44.98422" lon="8.40056"><ele>219.0</ele><time>2026-04-11T15:10:58.286Z</time></trkpt><trkpt lat="44.9840833" lon="8.400555"><ele>219.0</ele><time>2026-04-11T15:10:59.287Z</time></trkpt><trkpt lat="44.9839583" lon="8.400555"><ele>219.0</ele><time>2026-04-11T15:11:00.287Z</time></trkpt><trkpt lat="44.9838483" lon="8.40056"><ele>222.33333333333334</ele><time>2026-04-11T15:11:01.287Z</time></trkpt><trkpt lat="44.98376" lon="8.4005833"><ele>225.66666666666669</ele><time>2026-04-11T15:11:02.286Z</time></trkpt><trkpt lat="44.9836817" lon="8.4006167"><ele>229.0</ele><time>2026-04-11T15:11:03.287Z</time></trkpt><trkpt lat="44.983605" lon="8.4006683"><ele>232.33333333333334</ele><time>2026-04-11T15:11:04.286Z</time></trkpt><trkpt lat="44.9835417" lon="8.4007433"><ele>235.66666666666669</ele><time>2026-04-11T15:11:05.286Z</time></trkpt><trkpt lat="44.9834933" lon="8.400835"><ele>239.0</ele><time>2026-04-11T15:11:06.287Z</time></trkpt><trkpt lat="44.9834533" lon="8.40093"><ele>239.0</ele><time>2026-04-11T15:11:07.286Z</time></trkpt><trkpt lat="44.9834333" lon="8.40105"><ele>238.99999999999997</ele><time>2026-04-11T15:11:08.286Z</time></trkpt><trkpt lat="44.983425" lon="8.4011667"><ele>238.99999999999997</ele><time>2026-04-11T15:11:09.286Z</time></trkpt><trkpt lat="44.983415" lon="8.4012733"><ele>239.0</ele><time>2026-04-11T15:11:10.286Z</time></trkpt><trkpt lat="44.983405" lon="8.4014433"><ele>239.0</ele><time>2026-04-11T15:11:12.287Z</time></trkpt><trkpt lat="44.9833717" lon="8.4015767"><ele>239.83333333333334</ele><time>2026-04-11T15:11:14.287Z</time></trkpt><trkpt lat="44.9833333" lon="8.4016583"><ele>240.66666666666669</ele><time>2026-04-11T15:11:16.286Z</time></trkpt><trkpt lat="44.9833083" lon="8.401745"><ele>241.5</ele><time>2026-04-11T15:11:18.287Z</time></trkpt><trkpt lat="44.9833067" lon="8.4018583"><ele>242.33333333333331</ele><time>2026-04-11T15:11:20.286Z</time></trkpt><trkpt lat="44.98329" lon="8.4019667"><ele>243.16666666666666</ele><time>2026-04-11T15:11:22.286Z</time></trkpt><trkpt lat="44.9832617" lon="8.4020967"><ele>244.0</ele><time>2026-04-11T15:11:24.287Z</time></trkpt><trkpt lat="44.9832283" lon="8.4021817"><ele>244.39999999999998</ele><time>2026-04-11T15:11:25.287Z</time></trkpt><trkpt lat="44.9831783" lon="8.4022733"><ele>244.79999999999998</ele><time>2026-04-11T15:11:26.287Z</time></trkpt><trkpt lat="44.9831033" lon="8.4023633"><ele>245.20000000000002</ele><time>2026-04-11T15:11:27.286Z</time></trkpt><trkpt lat="44.983025" lon="8.402445"><ele>245.60000000000002</ele><time>2026-04-11T15:11:28.286Z</time></trkpt><trkpt lat="44.98294" lon="8.4025233"><ele>246.0</ele><time>2026-04-11T15:11:29.286Z</time></trkpt><trkpt lat="44.9828483" lon="8.40259"><ele>246.0</ele><time>2026-04-11T15:11:30.286Z</time></trkpt><trkpt lat="44.9827583" lon="8.40266"><ele>246.00000000000003</ele><time>2026-04-11T15:11:31.286Z</time></trkpt><trkpt lat="44.9826733" lon="8.4027133"><ele>246.00000000000003</ele><time>2026-04-11T15:11:32.287Z</time></trkpt><trkpt lat="44.9825883" lon="8.4027767"><ele>246.0</ele><time>2026-04-11T15:11:33.287Z</time></trkpt><trkpt lat="44.9824983" lon="8.402835"><ele>246.0</ele><time>2026-04-11T15:11:34.286Z</time></trkpt><trkpt lat="44.9824133" lon="8.4028983"><ele>246.0</ele><time>2026-04-11T15:11:35.286Z</time></trkpt><trkpt lat="44.9823333" lon="8.4029583"><ele>246.0</ele><time>2026-04-11T15:11:36.287Z</time></trkpt><trkpt lat="44.9822517" lon="8.4030133"><ele>246.0</ele><time>2026-04-11T15:11:37.286Z</time></trkpt><trkpt lat="44.9821817" lon="8.4030667"><ele>246.0</ele><time>2026-04-11T15:11:38.286Z</time></trkpt><trkpt lat="44.9821083" lon="8.4031133"><ele>246.0</ele><time>2026-04-11T15:11:39.286Z</time></trkpt><trkpt lat="44.9820333" lon="8.403135"><ele>246.0</ele><time>2026-04-11T15:11:40.286Z</time></trkpt><trkpt lat="44.9819583" lon="8.4031533"><ele>246.0</ele><time>2026-04-11T15:11:41.286Z</time></trkpt><trkpt lat="44.9818817" lon="8.403175"><ele>246.0</ele><time>2026-04-11T15:11:42.286Z</time></trkpt><trkpt lat="44.9818083" lon="8.403175"><ele>246.0</ele><time>2026-04-11T15:11:43.286Z</time></trkpt><trkpt lat="44.9817283" lon="8.4031633"><ele>246.0</ele><time>2026-04-11T15:11:44.286Z</time></trkpt><trkpt lat="44.9816567" lon="8.403125"><ele>246.0</ele><time>2026-04-11T15:11:45.286Z</time></trkpt><trkpt lat="44.9815783" lon="8.4030883"><ele>246.0</ele><time>2026-04-11T15:11:46.286Z</time></trkpt><trkpt lat="44.98151" lon="8.4030483"><ele>244.28571428571433</ele><time>2026-04-11T15:11:47.287Z</time></trkpt><trkpt lat="44.9814483" lon="8.4030133"><ele>242.57142857142858</ele><time>2026-04-11T15:11:48.286Z</time></trkpt><trkpt lat="44.981385" lon="8.4029817"><ele>240.8571428571429</ele><time>2026-04-11T15:11:49.286Z</time></trkpt><trkpt lat="44.9813217" lon="8.4029567"><ele>239.14285714285717</ele><time>2026-04-11T15:11:50.286Z</time></trkpt><trkpt lat="44.981245" lon="8.4029483"><ele>237.42857142857144</ele><time>2026-04-11T15:11:51.286Z</time></trkpt><trkpt lat="44.9811767" lon="8.40295"><ele>235.71428571428572</ele><time>2026-04-11T15:11:52.287Z</time></trkpt><trkpt lat="44.9810983" lon="8.40295"><ele>234.0</ele><time>2026-04-11T15:11:53.286Z</time></trkpt><trkpt lat="44.981015" lon="8.4029583"><ele>233.0</ele><time>2026-04-11T15:11:54.286Z</time></trkpt><trkpt lat="44.980925" lon="8.40297"><ele>232.0</ele><time>2026-04-11T15:11:55.286Z</time></trkpt><trkpt lat="44.9808417" lon="8.40299"><ele>231.0</ele><time>2026-04-11T15:11:56.286Z</time></trkpt><trkpt lat="44.980755" lon="8.4030217"><ele>230.0</ele><time>2026-04-11T15:11:57.287Z</time></trkpt><trkpt lat="44.9806767" lon="8.4030667"><ele>229.0</ele><time>2026-04-11T15:11:58.287Z</time></trkpt><trkpt lat="44.9806017" lon="8.4031133"><ele>228.0</ele><time>2026-04-11T15:11:59.286Z</time></trkpt><trkpt lat="44.980535" lon="8.4031617"><ele>228.0</ele><time>2026-04-11T15:12:00.286Z</time></trkpt><trkpt lat="44.980465" lon="8.4032067"><ele>228.0</ele><time>2026-04-11T15:12:01.286Z</time></trkpt><trkpt lat="44.9803983" lon="8.4032533"><ele>228.0</ele><time>2026-04-11T15:12:02.286Z</time></trkpt><trkpt lat="44.980285" lon="8.40332"><ele>228.0</ele><time>2026-04-11T15:12:04.286Z</time></trkpt><trkpt lat="44.9801883" lon="8.4033433"><ele>228.0</ele><time>2026-04-11T15:12:06.287Z</time></trkpt><trkpt lat="44.9801183" lon="8.403345"><ele>228.0</ele><time>2026-04-11T15:12:09.286Z</time></trkpt><trkpt lat="44.9802083" lon="8.40335"><ele>228.0</ele><time>2026-04-11T15:16:16.285Z</time></trkpt><trkpt lat="44.9803033" lon="8.403315"><ele>228.0</ele><time>2026-04-11T15:17:18.285Z</time></trkpt><trkpt lat="44.98041" lon="8.4032433"><ele>228.0</ele><time>2026-04-11T15:17:20.285Z</time></trkpt><trkpt lat="44.980525" lon="8.4031867"><ele>228.0</ele><time>2026-04-11T15:17:22.285Z</time></trkpt><trkpt lat="44.9806333" lon="8.4031233"><ele>228.0</ele><time>2026-04-11T15:17:24.285Z</time></trkpt><trkpt lat="44.9806917" lon="8.4030883"><ele>228.0</ele><time>2026-04-11T15:17:25.286Z</time></trkpt><trkpt lat="44.9808067" lon="8.4030233"><ele>228.0</ele><time>2026-04-11T15:17:27.286Z</time></trkpt><trkpt lat="44.9809233" lon="8.40299"><ele>228.0</ele><time>2026-04-11T15:17:29.285Z</time></trkpt><trkpt lat="44.9809883" lon="8.4029683"><ele>228.0</ele><time>2026-04-11T15:17:30.285Z</time></trkpt><trkpt lat="44.9810933" lon="8.40295"><ele>229.0</ele><time>2026-04-11T15:17:32.285Z</time></trkpt><trkpt lat="44.981215" lon="8.4029533"><ele>230.0</ele><time>2026-04-11T15:17:34.285Z</time></trkpt><trkpt lat="44.98128" lon="8.402955"><ele>231.0</ele><time>2026-04-11T15:17:35.286Z</time></trkpt><trkpt lat="44.9813483" lon="8.40296"><ele>232.0</ele><time>2026-04-11T15:17:36.285Z</time></trkpt><trkpt lat="44.981425" lon="8.40298"><ele>233.0</ele><time>2026-04-11T15:17:37.285Z</time></trkpt><trkpt lat="44.9815067" lon="8.4030117"><ele>234.0</ele><time>2026-04-11T15:17:38.285Z</time></trkpt><trkpt lat="44.9815867" lon="8.4030483"><ele>234.0</ele><time>2026-04-11T15:17:39.286Z</time></trkpt><trkpt lat="44.9816667" lon="8.40309"><ele>234.0</ele><time>2026-04-11T15:17:40.285Z</time></trkpt><trkpt lat="44.9817433" lon="8.403125"><ele>234.0</ele><time>2026-04-11T15:17:41.285Z</time></trkpt><trkpt lat="44.9818267" lon="8.4031433"><ele>234.0</ele><time>2026-04-11T15:17:42.285Z</time></trkpt><trkpt lat="44.981895" lon="8.4031517"><ele>234.0</ele><time>2026-04-11T15:17:43.285Z</time></trkpt><trkpt lat="44.981995" lon="8.4031467"><ele>234.0</ele><time>2026-04-11T15:17:45.285Z</time></trkpt><trkpt lat="44.9820583" lon="8.4031267"><ele>234.33333333333334</ele><time>2026-04-11T15:17:46.286Z</time></trkpt><trkpt lat="44.9821217" lon="8.40309"><ele>234.66666666666669</ele><time>2026-04-11T15:17:47.285Z</time></trkpt><trkpt lat="44.9821867" lon="8.403045"><ele>235.0</ele><time>2026-04-11T15:17:48.285Z</time></trkpt><trkpt lat="44.98226" lon="8.402985"><ele>235.33333333333334</ele><time>2026-04-11T15:17:49.285Z</time></trkpt><trkpt lat="44.982335" lon="8.4029333"><ele>235.66666666666669</ele><time>2026-04-11T15:17:50.285Z</time></trkpt><trkpt lat="44.982415" lon="8.4028733"><ele>236.0</ele><time>2026-04-11T15:17:51.286Z</time></trkpt><trkpt lat="44.9824933" lon="8.4028167"><ele>237.42857142857142</ele><time>2026-04-11T15:17:52.286Z</time></trkpt><trkpt lat="44.982555" lon="8.402755"><ele>238.8571428571429</ele><time>2026-04-11T15:17:53.286Z</time></trkpt><trkpt lat="44.9826233" lon="8.402705"><ele>240.2857142857143</ele><time>2026-04-11T15:17:54.285Z</time></trkpt><trkpt lat="44.9826883" lon="8.4026667"><ele>241.71428571428572</ele><time>2026-04-11T15:17:55.285Z</time></trkpt><trkpt lat="44.9827517" lon="8.40264"><ele>243.14285714285717</ele><time>2026-04-11T15:17:56.286Z</time></trkpt><trkpt lat="44.9828133" lon="8.402595"><ele>244.5714285714286</ele><time>2026-04-11T15:17:57.286Z</time></trkpt><trkpt lat="44.9828833" lon="8.402555"><ele>246.00000000000003</ele><time>2026-04-11T15:17:58.285Z</time></trkpt><trkpt lat="44.9829567" lon="8.40249"><ele>246.0</ele><time>2026-04-11T15:17:59.285Z</time></trkpt><trkpt lat="44.9830267" lon="8.4024333"><ele>246.0</ele><time>2026-04-11T15:18:00.286Z</time></trkpt><trkpt lat="44.9831133" lon="8.4023783"><ele>246.0</ele><time>2026-04-11T15:18:01.286Z</time></trkpt><trkpt lat="44.983195" lon="8.40234"><ele>246.0</ele><time>2026-04-11T15:18:02.285Z</time></trkpt><trkpt lat="44.983235" lon="8.4022567"><ele>246.0</ele><time>2026-04-11T15:18:03.284Z</time></trkpt><trkpt lat="44.983275" lon="8.4021483"><ele>246.0</ele><time>2026-04-11T15:18:05.285Z</time></trkpt><trkpt lat="44.9833083" lon="8.4020433"><ele>245.60000000000002</ele><time>2026-04-11T15:18:07.285Z</time></trkpt><trkpt lat="44.98334" lon="8.4019333"><ele>245.20000000000002</ele><time>2026-04-11T15:18:11.285Z</time></trkpt><trkpt lat="44.9833517" lon="8.4018083"><ele>244.79999999999998</ele><time>2026-04-11T15:18:14.284Z</time></trkpt><trkpt lat="44.9833917" lon="8.4016833"><ele>244.39999999999998</ele><time>2026-04-11T15:18:16.284Z</time></trkpt><trkpt lat="44.9834433" lon="8.4015217"><ele>244.0</ele><time>2026-04-11T15:18:18.284Z</time></trkpt><trkpt lat="44.983455" lon="8.4014183"><ele>243.28571428571425</ele><time>2026-04-11T15:18:19.285Z</time></trkpt><trkpt lat="44.9834617" lon="8.4012967"><ele>242.57142857142856</ele><time>2026-04-11T15:18:20.285Z</time></trkpt><trkpt lat="44.983465" lon="8.40119"><ele>241.85714285714286</ele><time>2026-04-11T15:18:21.285Z</time></trkpt><trkpt lat="44.9834717" lon="8.4010817"><ele>241.14285714285714</ele><time>2026-04-11T15:18:22.284Z</time></trkpt><trkpt lat="44.9834867" lon="8.4009883"><ele>240.42857142857144</ele><time>2026-04-11T15:18:23.284Z</time></trkpt><trkpt lat="44.9835017" lon="8.4009"><ele>239.71428571428575</ele><time>2026-04-11T15:18:24.284Z</time></trkpt><trkpt lat="44.9835367" lon="8.4008183"><ele>239.00000000000003</ele><time>2026-04-11T15:18:25.284Z</time></trkpt><trkpt lat="44.9835783" lon="8.4007383"><ele>239.00000000000003</ele><time>2026-04-11T15:18:26.285Z</time></trkpt><trkpt lat="44.98362" lon="8.4006683"><ele>239.0</ele><time>2026-04-11T15:18:27.284Z</time></trkpt><trkpt lat="44.983675" lon="8.4006133"><ele>239.0</ele><time>2026-04-11T15:18:28.285Z</time></trkpt><trkpt lat="44.9837383" lon="8.4005683"><ele>239.0</ele><time>2026-04-11T15:18:29.285Z</time></trkpt><trkpt lat="44.98382" lon="8.4005283"><ele>239.00000000000003</ele><time>2026-04-11T15:18:30.284Z</time></trkpt><trkpt lat="44.9839117" lon="8.40051"><ele>239.0</ele><time>2026-04-11T15:18:31.284Z</time></trkpt><trkpt lat="44.9840117" lon="8.4005"><ele>234.0</ele><time>2026-04-11T15:18:32.284Z</time></trkpt><trkpt lat="44.984125" lon="8.4004983"><ele>229.0</ele><time>2026-04-11T15:18:33.284Z</time></trkpt><trkpt lat="44.984255" lon="8.4005067"><ele>224.0</ele><time>2026-04-11T15:18:34.285Z</time></trkpt><trkpt lat="44.9843917" lon="8.400525"><ele>219.0</ele><time>2026-04-11T15:18:35.284Z</time></trkpt><trkpt lat="44.984525" lon="8.4005317"><ele>219.0</ele><time>2026-04-11T15:18:36.284Z</time></trkpt><trkpt lat="44.9846617" lon="8.40052"><ele>219.0</ele><time>2026-04-11T15:18:37.285Z</time></trkpt><trkpt lat="44.9848" lon="8.40049"><ele>219.0</ele><time>2026-04-11T15:18:38.285Z</time></trkpt><trkpt lat="44.984925" lon="8.4004533"><ele>219.0</ele><time>2026-04-11T15:18:39.284Z</time></trkpt><trkpt lat="44.9850583" lon="8.4004017"><ele>219.25</ele><time>2026-04-11T15:18:40.284Z</time></trkpt><trkpt lat="44.9851917" lon="8.4003567"><ele>219.5</ele><time>2026-04-11T15:18:41.285Z</time></trkpt><trkpt lat="44.9853267" lon="8.4003033"><ele>219.75</ele><time>2026-04-11T15:18:42.284Z</time></trkpt><trkpt lat="44.985465" lon="8.4002567"><ele>220.0</ele><time>2026-04-11T15:18:43.285Z</time></trkpt><trkpt lat="44.985595" lon="8.4001967"><ele>220.0</ele><time>2026-04-11T15:18:44.284Z</time></trkpt><trkpt lat="44.9857283" lon="8.40014"><ele>220.0</ele><time>2026-04-11T15:18:45.284Z</time></trkpt><trkpt lat="44.9858617" lon="8.4000817"><ele>220.0</ele><time>2026-04-11T15:18:46.284Z</time></trkpt><trkpt lat="44.98599" lon="8.4000133"><ele>220.0</ele><time>2026-04-11T15:18:47.284Z</time></trkpt><trkpt lat="44.9861133" lon="8.3999583"><ele>219.25</ele><time>2026-04-11T15:18:48.285Z</time></trkpt><trkpt lat="44.9862383" lon="8.399895"><ele>218.5</ele><time>2026-04-11T15:18:49.284Z</time></trkpt><trkpt lat="44.98635" lon="8.3998333"><ele>217.75</ele><time>2026-04-11T15:18:50.285Z</time></trkpt><trkpt lat="44.9864483" lon="8.3997733"><ele>217.0</ele><time>2026-04-11T15:18:51.285Z</time></trkpt><trkpt lat="44.98654" lon="8.3997183"><ele>217.6</ele><time>2026-04-11T15:18:52.285Z</time></trkpt><trkpt lat="44.986635" lon="8.3996567"><ele>218.2</ele><time>2026-04-11T15:18:53.284Z</time></trkpt><trkpt lat="44.986715" lon="8.3995883"><ele>218.8</ele><time>2026-04-11T15:18:54.285Z</time></trkpt><trkpt lat="44.986795" lon="8.399515"><ele>219.4</ele><time>2026-04-11T15:18:55.284Z</time></trkpt><trkpt lat="44.986885" lon="8.3994233"><ele>220.0</ele><time>2026-04-11T15:18:56.285Z</time></trkpt><trkpt lat="44.9869667" lon="8.3993333"><ele>218.49999999999997</ele><time>2026-04-11T15:18:57.285Z</time></trkpt><trkpt lat="44.9870417" lon="8.3992483"><ele>217.0</ele><time>2026-04-11T15:18:58.284Z</time></trkpt><trkpt lat="44.9871067" lon="8.3991733"><ele>215.5</ele><time>2026-04-11T15:18:59.284Z</time></trkpt><trkpt lat="44.9871667" lon="8.3990917"><ele>214.0</ele><time>2026-04-11T15:19:00.284Z</time></trkpt><trkpt lat="44.9871983" lon="8.399005"><ele>212.49999999999997</ele><time>2026-04-11T15:19:01.284Z</time></trkpt><trkpt lat="44.9872183" lon="8.39892"><ele>211.0</ele><time>2026-04-11T15:19:02.284Z</time></trkpt><trkpt lat="44.987245" lon="8.3987733"><ele>210.99999999999997</ele><time>2026-04-11T15:19:04.285Z</time></trkpt><trkpt lat="44.98731" lon="8.3987267"><ele>211.0</ele><time>2026-04-11T15:19:06.284Z</time></trkpt><trkpt lat="44.9873783" lon="8.3987717"><ele>211.0</ele><time>2026-04-11T15:19:08.284Z</time></trkpt><trkpt lat="44.987405" lon="8.39892"><ele>211.0</ele><time>2026-04-11T15:19:10.284Z</time></trkpt><trkpt lat="44.9874067" lon="8.3990233"><ele>210.99999999999997</ele><time>2026-04-11T15:19:11.285Z</time></trkpt><trkpt lat="44.9874" lon="8.399145"><ele>211.0</ele><time>2026-04-11T15:19:12.285Z</time></trkpt><trkpt lat="44.9873783" lon="8.399265"><ele>210.4</ele><time>2026-04-11T15:19:13.285Z</time></trkpt><trkpt lat="44.9873417" lon="8.3993767"><ele>209.8</ele><time>2026-04-11T15:19:14.284Z</time></trkpt><trkpt lat="44.9872917" lon="8.399485"><ele>209.20000000000002</ele><time>2026-04-11T15:19:15.285Z</time></trkpt><trkpt lat="44.9872167" lon="8.3996"><ele>208.60000000000002</ele><time>2026-04-11T15:19:16.284Z</time></trkpt><trkpt lat="44.987145" lon="8.399715"><ele>208.0</ele><time>2026-04-11T15:19:17.284Z</time></trkpt><trkpt lat="44.98708" lon="8.3998283"><ele>206.99999999999997</ele><time>2026-04-11T15:19:18.284Z</time></trkpt><trkpt lat="44.9870183" lon="8.3999433"><ele>206.0</ele><time>2026-04-11T15:19:19.284Z</time></trkpt><trkpt lat="44.9869733" lon="8.40004"><ele>205.0</ele><time>2026-04-11T15:19:20.285Z</time></trkpt><trkpt lat="44.9869233" lon="8.40013"><ele>204.0</ele><time>2026-04-11T15:19:21.285Z</time></trkpt><trkpt lat="44.9868783" lon="8.4002333"><ele>202.99999999999997</ele><time>2026-04-11T15:19:22.284Z</time></trkpt><trkpt lat="44.9868433" lon="8.4003233"><ele>202.0</ele><time>2026-04-11T15:19:23.285Z</time></trkpt><trkpt lat="44.9868067" lon="8.4003983"><ele>201.0</ele><time>2026-04-11T15:19:24.284Z</time></trkpt><trkpt lat="44.986755" lon="8.4005383"><ele>200.0</ele><time>2026-04-11T15:19:26.284Z</time></trkpt><trkpt lat="44.9867183" lon="8.4006883"><ele>199.0</ele><time>2026-04-11T15:19:28.284Z</time></trkpt><trkpt lat="44.9867433" lon="8.4007967"><ele>198.0</ele><time>2026-04-11T15:19:30.285Z</time></trkpt><trkpt lat="44.986815" lon="8.4008583"><ele>197.0</ele><time>2026-04-11T15:19:32.285Z</time></trkpt><trkpt lat="44.9869183" lon="8.4009167"><ele>197.0</ele><time>2026-04-11T15:19:33.284Z</time></trkpt><trkpt lat="44.9869383" lon="8.4010317"><ele>197.0</ele><time>2026-04-11T15:19:34.285Z</time></trkpt><trkpt lat="44.9869983" lon="8.4011433"><ele>197.0</ele><time>2026-04-11T15:19:35.284Z</time></trkpt><trkpt lat="44.9870833" lon="8.401235"><ele>197.0</ele><time>2026-04-11T15:19:36.284Z</time></trkpt><trkpt lat="44.9871617" lon="8.4013333"><ele>197.0</ele><time>2026-04-11T15:19:37.284Z</time></trkpt><trkpt lat="44.987245" lon="8.40138"><ele>196.00000000000003</ele><time>2026-04-11T15:19:38.284Z</time></trkpt><trkpt lat="44.9873067" lon="8.4014267"><ele>195.0</ele><time>2026-04-11T15:19:39.284Z</time></trkpt><trkpt lat="44.9873617" lon="8.4015"><ele>194.0</ele><time>2026-04-11T15:19:40.284Z</time></trkpt><trkpt lat="44.9874133" lon="8.4015717"><ele>193.0</ele><time>2026-04-11T15:19:41.285Z</time></trkpt><trkpt lat="44.9875067" lon="8.4016733"><ele>192.0</ele><time>2026-04-11T15:19:43.284Z</time></trkpt><trkpt lat="44.9875567" lon="8.4017867"><ele>191.0</ele><time>2026-04-11T15:19:45.284Z</time></trkpt><trkpt lat="44.987515" lon="8.4019017"><ele>191.0</ele><time>2026-04-11T15:19:47.284Z</time></trkpt><trkpt lat="44.9874667" lon="8.4019617"><ele>191.0</ele><time>2026-04-11T15:19:48.284Z</time></trkpt><trkpt lat="44.9874083" lon="8.4020283"><ele>191.0</ele><time>2026-04-11T15:19:49.284Z</time></trkpt><trkpt lat="44.98735" lon="8.4021017"><ele>191.0</ele><time>2026-04-11T15:19:50.284Z</time></trkpt><trkpt lat="44.9872983" lon="8.4021733"><ele>191.0</ele><time>2026-04-11T15:19:51.284Z</time></trkpt><trkpt lat="44.9872467" lon="8.40225"><ele>191.0</ele><time>2026-04-11T15:19:52.284Z</time></trkpt><trkpt lat="44.9871967" lon="8.4023267"><ele>191.0</ele><time>2026-04-11T15:19:53.284Z</time></trkpt><trkpt lat="44.9871317" lon="8.40246"><ele>189.5</ele><time>2026-04-11T15:19:55.284Z</time></trkpt><trkpt lat="44.9871167" lon="8.40259"><ele>188.0</ele><time>2026-04-11T15:19:57.284Z</time></trkpt><trkpt lat="44.9871317" lon="8.4026767"><ele>186.5</ele><time>2026-04-11T15:19:58.284Z</time></trkpt><trkpt lat="44.9871533" lon="8.4027733"><ele>185.0</ele><time>2026-04-11T15:19:59.284Z</time></trkpt><trkpt lat="44.98718" lon="8.4028783"><ele>183.5</ele><time>2026-04-11T15:20:00.285Z</time></trkpt><trkpt lat="44.9872017" lon="8.40298"><ele>182.0</ele><time>2026-04-11T15:20:01.285Z</time></trkpt><trkpt lat="44.9872233" lon="8.40308"><ele>180.66666666666666</ele><time>2026-04-11T15:20:02.284Z</time></trkpt><trkpt lat="44.98725" lon="8.4031917"><ele>179.33333333333331</ele><time>2026-04-11T15:20:03.284Z</time></trkpt><trkpt lat="44.98727" lon="8.403295"><ele>178.0</ele><time>2026-04-11T15:20:04.284Z</time></trkpt><trkpt lat="44.9872967" lon="8.4033917"><ele>176.66666666666666</ele><time>2026-04-11T15:20:05.284Z</time></trkpt><trkpt lat="44.9873283" lon="8.4034883"><ele>175.33333333333334</ele><time>2026-04-11T15:20:06.284Z</time></trkpt><trkpt lat="44.9873567" lon="8.40359"><ele>174.0</ele><time>2026-04-11T15:20:07.285Z</time></trkpt><trkpt lat="44.9873867" lon="8.4036917"><ele>174.0</ele><time>2026-04-11T15:20:08.285Z</time></trkpt><trkpt lat="44.9874117" lon="8.4038083"><ele>174.0</ele><time>2026-04-11T15:20:09.285Z</time></trkpt><trkpt lat="44.9874333" lon="8.4039333"><ele>174.0</ele><time>2026-04-11T15:20:10.284Z</time></trkpt><trkpt lat="44.98745" lon="8.40406"><ele>174.0</ele><time>2026-04-11T15:20:11.284Z</time></trkpt><trkpt lat="44.987455" lon="8.4041833"><ele>174.0</ele><time>2026-04-11T15:20:12.284Z</time></trkpt><trkpt lat="44.9874517" lon="8.404315"><ele>174.0</ele><time>2026-04-11T15:20:13.285Z</time></trkpt><trkpt lat="44.9874483" lon="8.4044367"><ele>172.33333333333334</ele><time>2026-04-11T15:20:14.284Z</time></trkpt><trkpt lat="44.9874383" lon="8.4045517"><ele>170.66666666666666</ele><time>2026-04-11T15:20:15.284Z</time></trkpt><trkpt lat="44.9874433" lon="8.4046567"><ele>169.0</ele><time>2026-04-11T15:20:16.284Z</time></trkpt><trkpt lat="44.98747" lon="8.4047867"><ele>167.33333333333331</ele><time>2026-04-11T15:20:18.284Z</time></trkpt><trkpt lat="44.9874983" lon="8.4049017"><ele>165.66666666666666</ele><time>2026-04-11T15:20:22.284Z</time></trkpt><trkpt lat="44.9875783" lon="8.40492"><ele>164.0</ele><time>2026-04-11T15:20:25.284Z</time></trkpt><trkpt lat="44.9876467" lon="8.4049117"><ele>161.7142857142857</ele><time>2026-04-11T15:20:27.284Z</time></trkpt><trkpt lat="44.98771" lon="8.4048917"><ele>159.42857142857142</ele><time>2026-04-11T15:20:29.284Z</time></trkpt><trkpt lat="44.9877767" lon="8.4048717"><ele>157.14285714285714</ele><time>2026-04-11T15:20:31.284Z</time></trkpt><trkpt lat="44.9878517" lon="8.40484"><ele>154.85714285714283</ele><time>2026-04-11T15:20:33.284Z</time></trkpt><trkpt lat="44.9879233" lon="8.4048183"><ele>152.57142857142856</ele><time>2026-04-11T15:20:35.285Z</time></trkpt><trkpt lat="44.988" lon="8.404795"><ele>150.28571428571428</ele><time>2026-04-11T15:20:38.284Z</time></trkpt><trkpt lat="44.9880667" lon="8.4047667"><ele>148.0</ele><time>2026-04-11T15:20:42.284Z</time></trkpt><trkpt lat="44.98814" lon="8.4047417"><ele>148.0</ele><time>2026-04-11T15:20:45.284Z</time></trkpt><trkpt lat="44.98822" lon="8.4047117"><ele>148.0</ele><time>2026-04-11T15:20:47.284Z</time></trkpt><trkpt lat="44.9883183" lon="8.4046617"><ele>148.0</ele><time>2026-04-11T15:20:49.285Z</time></trkpt><trkpt lat="44.9883783" lon="8.4046317"><ele>148.0</ele><time>2026-04-11T15:20:50.285Z</time></trkpt><trkpt lat="44.98845" lon="8.4045933"><ele>148.0</ele><time>2026-04-11T15:20:51.284Z</time></trkpt><trkpt lat="44.988525" lon="8.404555"><ele>148.0</ele><time>2026-04-11T15:20:52.284Z</time></trkpt><trkpt lat="44.988605" lon="8.4045167"><ele>148.8</ele><time>2026-04-11T15:20:53.284Z</time></trkpt><trkpt lat="44.988695" lon="8.4044617"><ele>149.60000000000002</ele><time>2026-04-11T15:20:54.284Z</time></trkpt><trkpt lat="44.9887967" lon="8.4044083"><ele>150.39999999999998</ele><time>2026-04-11T15:20:55.285Z</time></trkpt><trkpt lat="44.9889117" lon="8.4043583"><ele>151.2</ele><time>2026-04-11T15:20:56.285Z</time></trkpt><trkpt lat="44.989015" lon="8.4043017"><ele>152.0</ele><time>2026-04-11T15:20:57.285Z</time></trkpt><trkpt lat="44.9891333" lon="8.4042367"><ele>151.0</ele><time>2026-04-11T15:20:58.284Z</time></trkpt><trkpt lat="44.989255" lon="8.4041633"><ele>150.0</ele><time>2026-04-11T15:20:59.284Z</time></trkpt><trkpt lat="44.98938" lon="8.4040967"><ele>149.0</ele><time>2026-04-11T15:21:00.284Z</time></trkpt><trkpt lat="44.9895117" lon="8.4040317"><ele>148.0</ele><time>2026-04-11T15:21:01.284Z</time></trkpt><trkpt lat="44.9896517" lon="8.403965"><ele>148.0</ele><time>2026-04-11T15:21:02.284Z</time></trkpt><trkpt lat="44.9897867" lon="8.4038983"><ele>148.0</ele><time>2026-04-11T15:21:03.285Z</time></trkpt><trkpt lat="44.9899233" lon="8.4038267"><ele>148.0</ele><time>2026-04-11T15:21:04.285Z</time></trkpt><trkpt lat="44.9900667" lon="8.403755"><ele>148.0</ele><time>2026-04-11T15:21:05.284Z</time></trkpt><trkpt lat="44.9902183" lon="8.4036767"><ele>148.0</ele><time>2026-04-11T15:21:06.284Z</time></trkpt><trkpt lat="44.9903783" lon="8.4036"><ele>148.0</ele><time>2026-04-11T15:21:07.284Z</time></trkpt><trkpt lat="44.99054" lon="8.40351"><ele>148.0</ele><time>2026-04-11T15:21:08.284Z</time></trkpt><trkpt lat="44.9906983" lon="8.4034183"><ele>147.0</ele><time>2026-04-11T15:21:09.284Z</time></trkpt><trkpt lat="44.9908583" lon="8.4033283"><ele>146.0</ele><time>2026-04-11T15:21:10.285Z</time></trkpt><trkpt lat="44.9911517" lon="8.403065"><ele>146.0</ele><time>2026-04-11T15:21:12.284Z</time></trkpt><trkpt lat="44.9913" lon="8.4029"><ele>146.0</ele><time>2026-04-11T15:21:13.284Z</time></trkpt><trkpt lat="44.9914283" lon="8.4027217"><ele>146.0</ele><time>2026-04-11T15:21:14.284Z</time></trkpt><trkpt lat="44.9915467" lon="8.4025167"><ele>146.0</ele><time>2026-04-11T15:21:15.284Z</time></trkpt><trkpt lat="44.99164" lon="8.4022983"><ele>146.0</ele><time>2026-04-11T15:21:16.284Z</time></trkpt><trkpt lat="44.9917283" lon="8.4020583"><ele>146.0</ele><time>2026-04-11T15:21:17.285Z</time></trkpt><trkpt lat="44.991795" lon="8.4018083"><ele>146.0</ele><time>2026-04-11T15:21:18.284Z</time></trkpt><trkpt lat="44.9918483" lon="8.4015483"><ele>146.0</ele><time>2026-04-11T15:21:19.285Z</time></trkpt><trkpt lat="44.9919083" lon="8.4012733"><ele>146.0</ele><time>2026-04-11T15:21:20.284Z</time></trkpt><trkpt lat="44.99197" lon="8.40097"><ele>146.5</ele><time>2026-04-11T15:21:21.285Z</time></trkpt><trkpt lat="44.9920517" lon="8.4006467"><ele>147.0</ele><time>2026-04-11T15:21:22.284Z</time></trkpt><trkpt lat="44.992135" lon="8.400285"><ele>147.5</ele><time>2026-04-11T15:21:23.284Z</time></trkpt><trkpt lat="44.9922267" lon="8.3999117"><ele>148.0</ele><time>2026-04-11T15:21:24.284Z</time></trkpt><trkpt lat="44.99232" lon="8.3995433"><ele>148.5</ele><time>2026-04-11T15:21:25.285Z</time></trkpt><trkpt lat="44.99241" lon="8.3992"><ele>149.0</ele><time>2026-04-11T15:21:26.284Z</time></trkpt><trkpt lat="44.992495" lon="8.3988833"><ele>149.0</ele><time>2026-04-11T15:21:27.284Z</time></trkpt><trkpt lat="44.9925717" lon="8.3985917"><ele>149.0</ele><time>2026-04-11T15:21:28.284Z</time></trkpt><trkpt lat="44.9926467" lon="8.3982983"><ele>149.0</ele><time>2026-04-11T15:21:29.285Z</time></trkpt><trkpt lat="44.9927117" lon="8.39801"><ele>149.0</ele><time>2026-04-11T15:21:30.285Z</time></trkpt><trkpt lat="44.9927783" lon="8.3977267"><ele>149.0</ele><time>2026-04-11T15:21:31.285Z</time></trkpt><trkpt lat="44.9928533" lon="8.39746"><ele>149.0</ele><time>2026-04-11T15:21:32.284Z</time></trkpt><trkpt lat="44.992915" lon="8.397205"><ele>149.33333333333331</ele><time>2026-04-11T15:21:33.285Z</time></trkpt><trkpt lat="44.992975" lon="8.396975"><ele>149.66666666666666</ele><time>2026-04-11T15:21:34.284Z</time></trkpt><trkpt lat="44.99302" lon="8.396765"><ele>150.0</ele><time>2026-04-11T15:21:35.284Z</time></trkpt><trkpt lat="44.993065" lon="8.3965833"><ele>150.0</ele><time>2026-04-11T15:21:36.284Z</time></trkpt><trkpt lat="44.9931133" lon="8.39642"><ele>150.0</ele><time>2026-04-11T15:21:37.285Z</time></trkpt><trkpt lat="44.9931517" lon="8.3962783"><ele>150.0</ele><time>2026-04-11T15:21:38.284Z</time></trkpt><trkpt lat="44.993175" lon="8.39616"><ele>150.0</ele><time>2026-04-11T15:21:39.285Z</time></trkpt><trkpt lat="44.9932" lon="8.3960733"><ele>150.0</ele><time>2026-04-11T15:21:40.285Z</time></trkpt><trkpt lat="44.9932483" lon="8.3959583"><ele>150.0</ele><time>2026-04-11T15:21:42.284Z</time></trkpt><trkpt lat="44.9933133" lon="8.3959667"><ele>150.0</ele><time>2026-04-11T15:21:44.284Z</time></trkpt><trkpt lat="44.9934933" lon="8.3960667"><ele>150.0</ele><time>2026-04-11T15:21:47.284Z</time></trkpt><trkpt lat="44.9935783" lon="8.3961217"><ele>150.0</ele><time>2026-04-11T15:21:48.284Z</time></trkpt><trkpt lat="44.9936783" lon="8.39617"><ele>150.0</ele><time>2026-04-11T15:21:49.284Z</time></trkpt><trkpt lat="44.9937817" lon="8.3962167"><ele>150.0</ele><time>2026-04-11T15:21:50.285Z</time></trkpt><trkpt lat="44.993895" lon="8.3962767"><ele>150.0</ele><time>2026-04-11T15:21:51.284Z</time></trkpt><trkpt lat="44.9940017" lon="8.3963333"><ele>150.0</ele><time>2026-04-11T15:21:52.284Z</time></trkpt><trkpt lat="44.994115" lon="8.3963883"><ele>150.25</ele><time>2026-04-11T15:21:53.283Z</time></trkpt><trkpt lat="44.9942233" lon="8.396445"><ele>150.5</ele><time>2026-04-11T15:21:54.283Z</time></trkpt><trkpt lat="44.994335" lon="8.3964933"><ele>150.75</ele><time>2026-04-11T15:21:55.284Z</time></trkpt><trkpt lat="44.9944483" lon="8.3965383"><ele>151.0</ele><time>2026-04-11T15:21:56.284Z</time></trkpt><trkpt lat="44.9945683" lon="8.39657"><ele>151.0</ele><time>2026-04-11T15:21:57.283Z</time></trkpt><trkpt lat="44.9946783" lon="8.3966083"><ele>151.0</ele><time>2026-04-11T15:21:58.284Z</time></trkpt><trkpt lat="44.9947833" lon="8.3966633"><ele>151.0</ele><time>2026-04-11T15:21:59.283Z</time></trkpt><trkpt lat="44.9948833" lon="8.396725"><ele>151.0</ele><time>2026-04-11T15:22:00.283Z</time></trkpt><trkpt lat="44.9949967" lon="8.3967717"><ele>151.25</ele><time>2026-04-11T15:22:01.283Z</time></trkpt><trkpt lat="44.99511" lon="8.39679"><ele>151.5</ele><time>2026-04-11T15:22:02.283Z</time></trkpt><trkpt lat="44.9952383" lon="8.39679"><ele>151.75</ele><time>2026-04-11T15:22:03.284Z</time></trkpt><trkpt lat="44.995375" lon="8.39677"><ele>152.0</ele><time>2026-04-11T15:22:04.283Z</time></trkpt><trkpt lat="44.9955133" lon="8.396765"><ele>152.0</ele><time>2026-04-11T15:22:05.284Z</time></trkpt><trkpt lat="44.99565" lon="8.39676"><ele>152.0</ele><time>2026-04-11T15:22:06.283Z</time></trkpt><trkpt lat="44.9957683" lon="8.396765"><ele>152.0</ele><time>2026-04-11T15:22:07.284Z</time></trkpt><trkpt lat="44.9958833" lon="8.3967817"><ele>152.0</ele><time>2026-04-11T15:22:08.284Z</time></trkpt><trkpt lat="44.9960033" lon="8.3968117"><ele>153.25</ele><time>2026-04-11T15:22:09.284Z</time></trkpt><trkpt lat="44.99612" lon="8.3968533"><ele>154.5</ele><time>2026-04-11T15:22:10.283Z</time></trkpt><trkpt lat="44.996235" lon="8.39691"><ele>155.75</ele><time>2026-04-11T15:22:11.283Z</time></trkpt><trkpt lat="44.9963367" lon="8.3969883"><ele>157.0</ele><time>2026-04-11T15:22:12.283Z</time></trkpt><trkpt lat="44.9964333" lon="8.397085"><ele>157.75</ele><time>2026-04-11T15:22:13.283Z</time></trkpt><trkpt lat="44.9965317" lon="8.3971967"><ele>158.5</ele><time>2026-04-11T15:22:14.283Z</time></trkpt><trkpt lat="44.9966483" lon="8.397305"><ele>159.25</ele><time>2026-04-11T15:22:15.284Z</time></trkpt><trkpt lat="44.9967617" lon="8.397395"><ele>160.0</ele><time>2026-04-11T15:22:16.283Z</time></trkpt><trkpt lat="44.9968833" lon="8.397475"><ele>162.0</ele><time>2026-04-11T15:22:17.284Z</time></trkpt><trkpt lat="44.99701" lon="8.3975567"><ele>164.0</ele><time>2026-04-11T15:22:18.283Z</time></trkpt><trkpt lat="44.9971317" lon="8.397635"><ele>166.0</ele><time>2026-04-11T15:22:19.283Z</time></trkpt><trkpt lat="44.9972567" lon="8.3977117"><ele>168.0</ele><time>2026-04-11T15:22:20.283Z</time></trkpt><trkpt lat="44.9973767" lon="8.3977867"><ele>168.0</ele><time>2026-04-11T15:22:21.284Z</time></trkpt><trkpt lat="44.9975017" lon="8.3978617"><ele>168.0</ele><time>2026-04-11T15:22:22.283Z</time></trkpt><trkpt lat="44.9976283" lon="8.3979233"><ele>168.0</ele><time>2026-04-11T15:22:23.283Z</time></trkpt><trkpt lat="44.9977483" lon="8.39798"><ele>168.0</ele><time>2026-04-11T15:22:24.283Z</time></trkpt><trkpt lat="44.99786" lon="8.398035"><ele>171.0</ele><time>2026-04-11T15:22:25.283Z</time></trkpt><trkpt lat="44.9979817" lon="8.3980733"><ele>174.0</ele><time>2026-04-11T15:22:26.283Z</time></trkpt><trkpt lat="44.9981017" lon="8.39811"><ele>177.0</ele><time>2026-04-11T15:22:27.283Z</time></trkpt><trkpt lat="44.9982317" lon="8.398125"><ele>180.0</ele><time>2026-04-11T15:22:28.283Z</time></trkpt><trkpt lat="44.998365" lon="8.398135"><ele>182.75</ele><time>2026-04-11T15:22:29.283Z</time></trkpt><trkpt lat="44.9985033" lon="8.3981467"><ele>185.5</ele><time>2026-04-11T15:22:30.283Z</time></trkpt><trkpt lat="44.99864" lon="8.3981717"><ele>188.25</ele><time>2026-04-11T15:22:31.283Z</time></trkpt><trkpt lat="44.9987833" lon="8.3981883"><ele>191.0</ele><time>2026-04-11T15:22:32.283Z</time></trkpt><trkpt lat="44.9989083" lon="8.3982117"><ele>191.0</ele><time>2026-04-11T15:22:33.283Z</time></trkpt><trkpt lat="44.9990317" lon="8.39825"><ele>191.0</ele><time>2026-04-11T15:22:34.283Z</time></trkpt><trkpt lat="44.999145" lon="8.3983067"><ele>191.0</ele><time>2026-04-11T15:22:35.283Z</time></trkpt><trkpt lat="44.999255" lon="8.3983867"><ele>191.0</ele><time>2026-04-11T15:22:36.283Z</time></trkpt><trkpt lat="44.9993567" lon="8.3984833"><ele>191.75</ele><time>2026-04-11T15:22:37.283Z</time></trkpt><trkpt lat="44.9994433" lon="8.3986"><ele>192.5</ele><time>2026-04-11T15:22:38.283Z</time></trkpt><trkpt lat="44.999525" lon="8.3987167"><ele>193.25</ele><time>2026-04-11T15:22:39.283Z</time></trkpt><trkpt lat="44.99961" lon="8.3988367"><ele>194.0</ele><time>2026-04-11T15:22:40.283Z</time></trkpt><trkpt lat="44.9996867" lon="8.3989567"><ele>196.39999999999998</ele><time>2026-04-11T15:22:41.284Z</time></trkpt><trkpt lat="44.9997683" lon="8.39908"><ele>198.8</ele><time>2026-04-11T15:22:42.283Z</time></trkpt><trkpt lat="44.9998483" lon="8.3992"><ele>201.2</ele><time>2026-04-11T15:22:43.283Z</time></trkpt><trkpt lat="44.999915" lon="8.3993183"><ele>203.60000000000002</ele><time>2026-04-11T15:22:44.283Z</time></trkpt><trkpt lat="44.9999767" lon="8.399425"><ele>206.0</ele><time>2026-04-11T15:22:45.283Z</time></trkpt><trkpt lat="45.0000183" lon="8.3994933"><ele>205.99999999999997</ele><time>2026-04-11T15:22:46.283Z</time></trkpt><trkpt lat="45.000045" lon="8.3995833"><ele>206.0</ele><time>2026-04-11T15:22:49.283Z</time></trkpt><trkpt lat="45.00005" lon="8.3996767"><ele>206.0</ele><time>2026-04-11T15:22:55.283Z</time></trkpt><trkpt lat="45.0000983" lon="8.3997367"><ele>206.0</ele><time>2026-04-11T15:22:57.283Z</time></trkpt><trkpt lat="45.0001667" lon="8.3997467"><ele>206.0</ele><time>2026-04-11T15:22:59.283Z</time></trkpt><trkpt lat="45.0002433" lon="8.39967"><ele>205.99999999999997</ele><time>2026-04-11T15:23:01.283Z</time></trkpt><trkpt lat="45.0002867" lon="8.3996033"><ele>206.0</ele><time>2026-04-11T15:23:02.284Z</time></trkpt><trkpt lat="45.0003383" lon="8.3995233"><ele>206.0</ele><time>2026-04-11T15:23:03.283Z</time></trkpt><trkpt lat="45.0004717" lon="8.3993483"><ele>206.0</ele><time>2026-04-11T15:23:05.283Z</time></trkpt><trkpt lat="45.000535" lon="8.3992767"><ele>206.0</ele><time>2026-04-11T15:23:06.283Z</time></trkpt><trkpt lat="45.000635" lon="8.39927"><ele>206.0</ele><time>2026-04-11T15:23:08.283Z</time></trkpt><trkpt lat="45.0007233" lon="8.39929"><ele>206.00000000000003</ele><time>2026-04-11T15:23:10.283Z</time></trkpt><trkpt lat="45.0007917" lon="8.399365"><ele>206.0</ele><time>2026-04-11T15:23:12.283Z</time></trkpt><trkpt lat="45.0008233" lon="8.3994833"><ele>206.0</ele><time>2026-04-11T15:23:14.283Z</time></trkpt><trkpt lat="45.0008167" lon="8.399645"><ele>206.0</ele><time>2026-04-11T15:23:16.283Z</time></trkpt><trkpt lat="45.0008083" lon="8.3997483"><ele>206.00000000000003</ele><time>2026-04-11T15:23:17.283Z</time></trkpt><trkpt lat="45.0007983" lon="8.399865"><ele>206.0</ele><time>2026-04-11T15:23:18.284Z</time></trkpt><trkpt lat="45.0007983" lon="8.399995"><ele>207.60000000000002</ele><time>2026-04-11T15:23:19.283Z</time></trkpt><trkpt lat="45.0007933" lon="8.4001233"><ele>209.2</ele><time>2026-04-11T15:23:20.284Z</time></trkpt><trkpt lat="45.000795" lon="8.40026"><ele>210.79999999999998</ele><time>2026-04-11T15:23:21.284Z</time></trkpt><trkpt lat="45.0008067" lon="8.4003833"><ele>212.39999999999998</ele><time>2026-04-11T15:23:22.283Z</time></trkpt><trkpt lat="45.000805" lon="8.4005183"><ele>214.0</ele><time>2026-04-11T15:23:23.283Z</time></trkpt><trkpt lat="45.00081" lon="8.400645"><ele>215.0</ele><time>2026-04-11T15:23:24.283Z</time></trkpt><trkpt lat="45.0008217" lon="8.40074"><ele>215.99999999999997</ele><time>2026-04-11T15:23:25.283Z</time></trkpt><trkpt lat="45.000885" lon="8.4008817"><ele>216.99999999999997</ele><time>2026-04-11T15:23:27.284Z</time></trkpt><trkpt lat="45.0009633" lon="8.4009417"><ele>218.0</ele><time>2026-04-11T15:23:28.284Z</time></trkpt><trkpt lat="45.0010533" lon="8.401"><ele>219.0</ele><time>2026-04-11T15:23:29.284Z</time></trkpt><trkpt lat="45.0011583" lon="8.40106"><ele>222.39999999999998</ele><time>2026-04-11T15:23:30.283Z</time></trkpt><trkpt lat="45.0012733" lon="8.40111"><ele>225.79999999999998</ele><time>2026-04-11T15:23:31.283Z</time></trkpt><trkpt lat="45.0013733" lon="8.4011383"><ele>229.20000000000002</ele><time>2026-04-11T15:23:32.284Z</time></trkpt><trkpt lat="45.0014633" lon="8.4011567"><ele>232.60000000000002</ele><time>2026-04-11T15:23:33.283Z</time></trkpt><trkpt lat="45.0015417" lon="8.4011483"><ele>236.0</ele><time>2026-04-11T15:23:34.283Z</time></trkpt><trkpt lat="45.001615" lon="8.401125"><ele>238.00000000000003</ele><time>2026-04-11T15:23:35.284Z</time></trkpt><trkpt lat="45.0016833" lon="8.4010917"><ele>240.0</ele><time>2026-04-11T15:23:36.283Z</time></trkpt><trkpt lat="45.001755" lon="8.40105"><ele>242.0</ele><time>2026-04-11T15:23:37.283Z</time></trkpt><trkpt lat="45.0018183" lon="8.4010117"><ele>244.0</ele><time>2026-04-11T15:23:38.284Z</time></trkpt><trkpt lat="45.001905" lon="8.40097"><ele>246.00000000000003</ele><time>2026-04-11T15:23:39.283Z</time></trkpt><trkpt lat="45.0019783" lon="8.4009333"><ele>248.0</ele><time>2026-04-11T15:23:40.283Z</time></trkpt><trkpt lat="45.0020567" lon="8.40091"><ele>248.00000000000003</ele><time>2026-04-11T15:23:41.283Z</time></trkpt><trkpt lat="45.0021367" lon="8.4008933"><ele>248.0</ele><time>2026-04-11T15:23:42.283Z</time></trkpt><trkpt lat="45.0022167" lon="8.4008833"><ele>248.0</ele><time>2026-04-11T15:23:43.283Z</time></trkpt><trkpt lat="45.0022833" lon="8.4008683"><ele>248.0</ele><time>2026-04-11T15:23:44.283Z</time></trkpt><trkpt lat="45.0023733" lon="8.400875"><ele>248.00000000000003</ele><time>2026-04-11T15:23:45.284Z</time></trkpt><trkpt lat="45.0024567" lon="8.40089"><ele>248.0</ele><time>2026-04-11T15:23:46.283Z</time></trkpt><trkpt lat="45.0025433" lon="8.4009067"><ele>249.60000000000002</ele><time>2026-04-11T15:23:47.283Z</time></trkpt><trkpt lat="45.0026367" lon="8.4009233"><ele>251.20000000000002</ele><time>2026-04-11T15:23:48.284Z</time></trkpt><trkpt lat="45.0027333" lon="8.4009467"><ele>252.8</ele><time>2026-04-11T15:23:49.284Z</time></trkpt><trkpt lat="45.0028333" lon="8.40098"><ele>254.4</ele><time>2026-04-11T15:23:50.283Z</time></trkpt><trkpt lat="45.00292" lon="8.40102"><ele>256.0</ele><time>2026-04-11T15:23:51.284Z</time></trkpt><trkpt lat="45.0030067" lon="8.4010583"><ele>255.99999999999997</ele><time>2026-04-11T15:23:52.283Z</time></trkpt><trkpt lat="45.0030867" lon="8.401095"><ele>256.0</ele><time>2026-04-11T15:23:53.284Z</time></trkpt><trkpt lat="45.0031633" lon="8.401135"><ele>256.0</ele><time>2026-04-11T15:23:54.284Z</time></trkpt><trkpt lat="45.00324" lon="8.4011817"><ele>256.0</ele><time>2026-04-11T15:23:55.284Z</time></trkpt><trkpt lat="45.0033117" lon="8.4012267"><ele>255.99999999999997</ele><time>2026-04-11T15:23:56.284Z</time></trkpt><trkpt lat="45.0033883" lon="8.40126"><ele>256.0</ele><time>2026-04-11T15:23:57.283Z</time></trkpt><trkpt lat="45.003465" lon="8.4012967"><ele>258.8</ele><time>2026-04-11T15:23:58.283Z</time></trkpt><trkpt lat="45.0035533" lon="8.4013333"><ele>261.6</ele><time>2026-04-11T15:23:59.283Z</time></trkpt><trkpt lat="45.0036417" lon="8.4013717"><ele>264.4</ele><time>2026-04-11T15:24:00.283Z</time></trkpt><trkpt lat="45.0037417" lon="8.4014167"><ele>267.2</ele><time>2026-04-11T15:24:01.283Z</time></trkpt><trkpt lat="45.0038433" lon="8.4014633"><ele>270.0</ele><time>2026-04-11T15:24:02.284Z</time></trkpt><trkpt lat="45.0039367" lon="8.401525"><ele>270.0</ele><time>2026-04-11T15:24:03.284Z</time></trkpt><trkpt lat="45.0040167" lon="8.4015767"><ele>270.0</ele><time>2026-04-11T15:24:04.283Z</time></trkpt><trkpt lat="45.00409" lon="8.4016067"><ele>270.0</ele><time>2026-04-11T15:24:05.283Z</time></trkpt><trkpt lat="45.0041617" lon="8.40163"><ele>270.0</ele><time>2026-04-11T15:24:06.283Z</time></trkpt><trkpt lat="45.0042267" lon="8.40164"><ele>270.0</ele><time>2026-04-11T15:24:07.283Z</time></trkpt><trkpt lat="45.00434" lon="8.40163"><ele>270.0</ele><time>2026-04-11T15:24:09.284Z</time></trkpt><trkpt lat="45.0044033" lon="8.4016333"><ele>271.0</ele><time>2026-04-11T15:24:10.283Z</time></trkpt><trkpt lat="45.00448" lon="8.4016483"><ele>272.0</ele><time>2026-04-11T15:24:11.283Z</time></trkpt><trkpt lat="45.004565" lon="8.401665"><ele>273.0</ele><time>2026-04-11T15:24:12.283Z</time></trkpt><trkpt lat="45.0046533" lon="8.4016833"><ele>274.0</ele><time>2026-04-11T15:24:13.283Z</time></trkpt><trkpt lat="45.0047367" lon="8.4016917"><ele>275.0</ele><time>2026-04-11T15:24:14.284Z</time></trkpt><trkpt lat="45.00482" lon="8.4016817"><ele>276.0</ele><time>2026-04-11T15:24:15.283Z</time></trkpt><trkpt lat="45.0048917" lon="8.40167"><ele>276.0</ele><time>2026-04-11T15:24:16.284Z</time></trkpt><trkpt lat="45.0050183" lon="8.4016117"><ele>276.0</ele><time>2026-04-11T15:24:18.284Z</time></trkpt><trkpt lat="45.0051467" lon="8.4015983"><ele>276.0</ele><time>2026-04-11T15:24:20.283Z</time></trkpt><trkpt lat="45.0052183" lon="8.4016133"><ele>276.0</ele><time>2026-04-11T15:24:21.284Z</time></trkpt><trkpt lat="45.0053017" lon="8.401615"><ele>276.0</ele><time>2026-04-11T15:24:22.283Z</time></trkpt><trkpt lat="45.0054" lon="8.4016367"><ele>276.0</ele><time>2026-04-11T15:24:23.283Z</time></trkpt><trkpt lat="45.0055117" lon="8.4016767"><ele>276.0</ele><time>2026-04-11T15:24:24.283Z</time></trkpt><trkpt lat="45.0056067" lon="8.40174"><ele>276.0</ele><time>2026-04-11T15:24:25.283Z</time></trkpt><trkpt lat="45.005715" lon="8.4017917"><ele>276.0</ele><time>2026-04-11T15:24:26.283Z</time></trkpt><trkpt lat="45.0058267" lon="8.4018267"><ele>276.0</ele><time>2026-04-11T15:24:27.283Z</time></trkpt><trkpt lat="45.005945" lon="8.4018617"><ele>274.25</ele><time>2026-04-11T15:24:28.283Z</time></trkpt><trkpt lat="45.0060617" lon="8.4018833"><ele>272.5</ele><time>2026-04-11T15:24:29.283Z</time></trkpt><trkpt lat="45.006175" lon="8.4019067"><ele>270.75</ele><time>2026-04-11T15:24:30.283Z</time></trkpt><trkpt lat="45.006295" lon="8.4019417"><ele>269.0</ele><time>2026-04-11T15:24:31.284Z</time></trkpt><trkpt lat="45.0064233" lon="8.4019467"><ele>269.0</ele><time>2026-04-11T15:24:32.283Z</time></trkpt><trkpt lat="45.0065517" lon="8.4019533"><ele>269.0</ele><time>2026-04-11T15:24:33.283Z</time></trkpt><trkpt lat="45.0066817" lon="8.4019717"><ele>269.0</ele><time>2026-04-11T15:24:34.283Z</time></trkpt><trkpt lat="45.006815" lon="8.40199"><ele>269.0</ele><time>2026-04-11T15:24:35.283Z</time></trkpt><trkpt lat="45.0069467" lon="8.402015"><ele>267.75</ele><time>2026-04-11T15:24:36.283Z</time></trkpt><trkpt lat="45.0070767" lon="8.40205"><ele>266.5</ele><time>2026-04-11T15:24:37.283Z</time></trkpt><trkpt lat="45.0071967" lon="8.4020483"><ele>265.25</ele><time>2026-04-11T15:24:38.284Z</time></trkpt><trkpt lat="45.00732" lon="8.4020383"><ele>264.0</ele><time>2026-04-11T15:24:39.284Z</time></trkpt><trkpt lat="45.0074367" lon="8.40201"><ele>266.0</ele><time>2026-04-11T15:24:40.283Z</time></trkpt><trkpt lat="45.0075633" lon="8.4019617"><ele>268.0</ele><time>2026-04-11T15:24:41.284Z</time></trkpt><trkpt lat="45.0076733" lon="8.4019"><ele>270.0</ele><time>2026-04-11T15:24:42.283Z</time></trkpt><trkpt lat="45.0077733" lon="8.40184"><ele>272.0</ele><time>2026-04-11T15:24:43.284Z</time></trkpt><trkpt lat="45.007875" lon="8.4018"><ele>272.0</ele><time>2026-04-11T15:24:44.283Z</time></trkpt><trkpt lat="45.0079817" lon="8.4017667"><ele>272.0</ele><time>2026-04-11T15:24:45.283Z</time></trkpt><trkpt lat="45.0080833" lon="8.40175"><ele>272.0</ele><time>2026-04-11T15:24:46.284Z</time></trkpt><trkpt lat="45.0081817" lon="8.401715"><ele>272.0</ele><time>2026-04-11T15:24:47.284Z</time></trkpt><trkpt lat="45.0082867" lon="8.4016783"><ele>272.0</ele><time>2026-04-11T15:24:48.284Z</time></trkpt><trkpt lat="45.0083883" lon="8.401645"><ele>274.2</ele><time>2026-04-11T15:24:49.283Z</time></trkpt><trkpt lat="45.0084883" lon="8.401615"><ele>276.4</ele><time>2026-04-11T15:24:50.284Z</time></trkpt><trkpt lat="45.0085917" lon="8.4015717"><ele>278.6</ele><time>2026-04-11T15:24:51.283Z</time></trkpt><trkpt lat="45.0087033" lon="8.4015417"><ele>280.8</ele><time>2026-04-11T15:24:52.283Z</time></trkpt><trkpt lat="45.0088017" lon="8.4014717"><ele>283.0</ele><time>2026-04-11T15:24:53.283Z</time></trkpt><trkpt lat="45.0088833" lon="8.4013883"><ele>282.4</ele><time>2026-04-11T15:24:54.283Z</time></trkpt><trkpt lat="45.00895" lon="8.4013133"><ele>281.8</ele><time>2026-04-11T15:24:55.283Z</time></trkpt><trkpt lat="45.0090183" lon="8.4012333"><ele>281.2</ele><time>2026-04-11T15:24:56.284Z</time></trkpt><trkpt lat="45.0091467" lon="8.4010833"><ele>280.6</ele><time>2026-04-11T15:24:58.284Z</time></trkpt><trkpt lat="45.0091967" lon="8.40099"><ele>280.0</ele><time>2026-04-11T15:24:59.283Z</time></trkpt><trkpt lat="45.0092433" lon="8.4008917"><ele>280.0</ele><time>2026-04-11T15:25:00.283Z</time></trkpt><trkpt lat="45.0092983" lon="8.4008083"><ele>280.0</ele><time>2026-04-11T15:25:01.284Z</time></trkpt><trkpt lat="45.00936" lon="8.40073"><ele>280.0</ele><time>2026-04-11T15:25:02.283Z</time></trkpt><trkpt lat="45.0094167" lon="8.40066"><ele>280.0</ele><time>2026-04-11T15:25:03.284Z</time></trkpt><trkpt lat="45.0094717" lon="8.4005933"><ele>280.0</ele><time>2026-04-11T15:25:04.283Z</time></trkpt><trkpt lat="45.0095383" lon="8.4005367"><ele>280.0</ele><time>2026-04-11T15:25:05.284Z</time></trkpt><trkpt lat="45.0095983" lon="8.4004817"><ele>277.4</ele><time>2026-04-11T15:25:06.283Z</time></trkpt><trkpt lat="45.00969" lon="8.40041"><ele>274.8</ele><time>2026-04-11T15:25:08.284Z</time></trkpt><trkpt lat="45.00975" lon="8.4003683"><ele>272.2</ele><time>2026-04-11T15:25:10.284Z</time></trkpt><trkpt lat="45.0098017" lon="8.400245"><ele>269.6</ele><time>2026-04-11T15:25:13.283Z</time></trkpt><trkpt lat="45.00981" lon="8.4000733"><ele>267.0</ele><time>2026-04-11T15:25:15.284Z</time></trkpt><trkpt lat="45.009835" lon="8.399895"><ele>267.0</ele><time>2026-04-11T15:25:17.283Z</time></trkpt><trkpt lat="45.00986" lon="8.399785"><ele>267.0</ele><time>2026-04-11T15:25:18.283Z</time></trkpt><trkpt lat="45.0098833" lon="8.39969"><ele>267.0</ele><time>2026-04-11T15:25:19.283Z</time></trkpt><trkpt lat="45.0099133" lon="8.3996033"><ele>267.0</ele><time>2026-04-11T15:25:20.283Z</time></trkpt><trkpt lat="45.0099617" lon="8.3994483"><ele>267.0</ele><time>2026-04-11T15:25:22.283Z</time></trkpt><trkpt lat="45.0099833" lon="8.39936"><ele>267.0</ele><time>2026-04-11T15:25:23.283Z</time></trkpt><trkpt lat="45.0100083" lon="8.3992217"><ele>269.8333333333333</ele><time>2026-04-11T15:25:25.283Z</time></trkpt><trkpt lat="45.010025" lon="8.3991333"><ele>272.6666666666667</ele><time>2026-04-11T15:25:27.284Z</time></trkpt><trkpt lat="45.0100933" lon="8.3991317"><ele>275.5</ele><time>2026-04-11T15:25:30.283Z</time></trkpt><trkpt lat="45.0101683" lon="8.399265"><ele>278.33333333333337</ele><time>2026-04-11T15:25:33.284Z</time></trkpt><trkpt lat="45.01021" lon="8.399355"><ele>281.1666666666667</ele><time>2026-04-11T15:25:35.282Z</time></trkpt><trkpt lat="45.0102717" lon="8.3993833"><ele>284.0</ele><time>2026-04-11T15:25:37.282Z</time></trkpt><trkpt lat="45.0103483" lon="8.3993367"><ele>284.0</ele><time>2026-04-11T15:25:40.282Z</time></trkpt><trkpt lat="45.0103933" lon="8.3992683"><ele>284.0</ele><time>2026-04-11T15:25:43.283Z</time></trkpt><trkpt lat="45.0103917" lon="8.399155"><ele>284.0</ele><time>2026-04-11T15:25:46.282Z</time></trkpt><trkpt lat="45.010365" lon="8.3990717"><ele>284.0</ele><time>2026-04-11T15:25:48.282Z</time></trkpt></trkseg></trk></gpx>